﻿<?xml version="1.0" encoding="utf-8"?><gpx creator="Garmin Desktop App" version="1.1" xsi:schemaLocation="http://www.topografix.com/GPX/1/1 http://www.topografix.com/GPX/1/1/gpx.xsd http://www.garmin.com/xmlschemas/WaypointExtension/v1 http://www8.garmin.com/xmlschemas/WaypointExtensionv1.xsd http://www.garmin.com/xmlschemas/TrackPointExtension/v1 http://www.garmin.com/xmlschemas/TrackPointExtensionv1.xsd http://www.garmin.com/xmlschemas/GpxExtensions/v3 http://www8.garmin.com/xmlschemas/GpxExtensionsv3.xsd http://www.garmin.com/xmlschemas/ActivityExtension/v1 http://www8.garmin.com/xmlschemas/ActivityExtensionv1.xsd http://www.garmin.com/xmlschemas/AdventuresExtensions/v1 http://www8.garmin.com/xmlschemas/AdventuresExtensionv1.xsd http://www.garmin.com/xmlschemas/PressureExtension/v1 http://www.garmin.com/xmlschemas/PressureExtensionv1.xsd http://www.garmin.com/xmlschemas/TripExtensions/v1 http://www.garmin.com/xmlschemas/TripExtensionsv1.xsd http://www.garmin.com/xmlschemas/TripMetaDataExtensions/v1 http://www.garmin.com/xmlschemas/TripMetaDataExtensionsv1.xsd http://www.garmin.com/xmlschemas/ViaPointTransportationModeExtensions/v1 http://www.garmin.com/xmlschemas/ViaPointTransportationModeExtensionsv1.xsd http://www.garmin.com/xmlschemas/CreationTimeExtension/v1 http://www.garmin.com/xmlschemas/CreationTimeExtensionsv1.xsd http://www.garmin.com/xmlschemas/AccelerationExtension/v1 http://www.garmin.com/xmlschemas/AccelerationExtensionv1.xsd http://www.garmin.com/xmlschemas/PowerExtension/v1 http://www.garmin.com/xmlschemas/PowerExtensionv1.xsd http://www.garmin.com/xmlschemas/VideoExtension/v1 http://www.garmin.com/xmlschemas/VideoExtensionv1.xsd" xmlns="http://www.topografix.com/GPX/1/1" xmlns:xsi="http://www.w3.org/2001/XMLSchema-instance" xmlns:wptx1="http://www.garmin.com/xmlschemas/WaypointExtension/v1" xmlns:gpxtrx="http://www.garmin.com/xmlschemas/GpxExtensions/v3" xmlns:gpxtpx="http://www.garmin.com/xmlschemas/TrackPointExtension/v1" xmlns:gpxx="http://www.garmin.com/xmlschemas/GpxExtensions/v3" xmlns:trp="http://www.garmin.com/xmlschemas/TripExtensions/v1" xmlns:adv="http://www.garmin.com/xmlschemas/AdventuresExtensions/v1" xmlns:prs="http://www.garmin.com/xmlschemas/PressureExtension/v1" xmlns:tmd="http://www.garmin.com/xmlschemas/TripMetaDataExtensions/v1" xmlns:vptm="http://www.garmin.com/xmlschemas/ViaPointTransportationModeExtensions/v1" xmlns:ctx="http://www.garmin.com/xmlschemas/CreationTimeExtension/v1" xmlns:gpxacc="http://www.garmin.com/xmlschemas/AccelerationExtension/v1" xmlns:gpxpx="http://www.garmin.com/xmlschemas/PowerExtension/v1" xmlns:vidx1="http://www.garmin.com/xmlschemas/VideoExtension/v1">

  <metadata>
    <link href="http://www.garmin.com">
      <text>Garmin International</text>
    </link>
    <time>2023-08-29T17:30:27Z</time>
    <bounds maxlat="57.006518980488181" maxlon="-5.075678983703256" minlat="56.62298396229744" minlon="-6.224938994273543" />
  </metadata>

  <trk>
    <name>Track 230829</name>
    <extensions>
      <gpxx:TrackExtension>
        <gpxx:DisplayColor>DarkGray</gpxx:DisplayColor>
      </gpxx:TrackExtension>
    </extensions>
    <trkseg>
      <trkpt lat="56.807279968634248" lon="-5.112420972436667">
        <ele>110.69</ele>
        <time>2023-08-29T07:10:41Z</time>
      </trkpt>
      <trkpt lat="56.807140996679664" lon="-5.112242018803954">
        <ele>112.61</ele>
        <time>2023-08-29T07:10:43Z</time>
      </trkpt>
      <trkpt lat="56.807150971144438" lon="-5.112448967993259">
        <ele>116.94</ele>
        <time>2023-08-29T07:10:46Z</time>
      </trkpt>
      <trkpt lat="56.80717502720654" lon="-5.112174041569233">
        <ele>117.90000000000001</ele>
        <time>2023-08-29T07:10:47Z</time>
      </trkpt>
      <trkpt lat="56.807220038026571" lon="-5.112085025757551">
        <ele>117.90000000000001</ele>
        <time>2023-08-29T07:10:48Z</time>
      </trkpt>
      <trkpt lat="56.807266976684332" lon="-5.111990980803967">
        <ele>116.94</ele>
        <time>2023-08-29T07:10:49Z</time>
      </trkpt>
      <trkpt lat="56.807322967797518" lon="-5.111909005790949">
        <ele>115.98</ele>
        <time>2023-08-29T07:10:50Z</time>
      </trkpt>
      <trkpt lat="56.807413995265961" lon="-5.111843040212989">
        <ele>116.94</ele>
        <time>2023-08-29T07:10:51Z</time>
      </trkpt>
      <trkpt lat="56.807502005249262" lon="-5.111780008301139">
        <ele>117.42</ele>
        <time>2023-08-29T07:10:52Z</time>
      </trkpt>
      <trkpt lat="56.808574972674251" lon="-5.111024966463447">
        <ele>117.90000000000001</ele>
        <time>2023-08-29T07:11:06Z</time>
      </trkpt>
      <trkpt lat="56.809275029227138" lon="-5.110645014792681">
        <ele>116.45999999999999</ele>
        <time>2023-08-29T07:11:16Z</time>
      </trkpt>
      <trkpt lat="56.809344012290239" lon="-5.110639985650778">
        <ele>115.98</ele>
        <time>2023-08-29T07:11:17Z</time>
      </trkpt>
      <trkpt lat="56.809406038373709" lon="-5.110692037269473">
        <ele>115.98</ele>
        <time>2023-08-29T07:11:18Z</time>
      </trkpt>
      <trkpt lat="56.809458006173372" lon="-5.110753979533911">
        <ele>115.01000000000001</ele>
        <time>2023-08-29T07:11:19Z</time>
      </trkpt>
      <trkpt lat="56.809499999508262" lon="-5.110863028094173">
        <ele>114.53</ele>
        <time>2023-08-29T07:11:20Z</time>
      </trkpt>
      <trkpt lat="56.809521038085222" lon="-5.110984984785318">
        <ele>114.05</ele>
        <time>2023-08-29T07:11:21Z</time>
      </trkpt>
      <trkpt lat="56.809525983408093" lon="-5.11111699976027">
        <ele>113.56999999999999</ele>
        <time>2023-08-29T07:11:22Z</time>
      </trkpt>
      <trkpt lat="56.809516008943319" lon="-5.111247003078461">
        <ele>113.09</ele>
        <time>2023-08-29T07:11:23Z</time>
      </trkpt>
      <trkpt lat="56.809507040306926" lon="-5.111368959769607">
        <ele>112.61</ele>
        <time>2023-08-29T07:11:24Z</time>
      </trkpt>
      <trkpt lat="56.809498993679881" lon="-5.111491000279784">
        <ele>112.13</ele>
        <time>2023-08-29T07:11:25Z</time>
      </trkpt>
      <trkpt lat="56.809489019215107" lon="-5.111618991941214">
        <ele>112.13</ele>
        <time>2023-08-29T07:11:26Z</time>
      </trkpt>
      <trkpt lat="56.809449037536979" lon="-5.112173035740852">
        <ele>111.17</ele>
        <time>2023-08-29T07:11:30Z</time>
      </trkpt>
      <trkpt lat="56.809435961768031" lon="-5.112323993816972">
        <ele>110.69</ele>
        <time>2023-08-29T07:11:31Z</time>
      </trkpt>
      <trkpt lat="56.809254996478558" lon="-5.114048989489675">
        <ele>100.11</ele>
        <time>2023-08-29T07:11:43Z</time>
      </trkpt>
      <trkpt lat="56.8092389870435" lon="-5.114174969494343">
        <ele>99.150000000000006</ele>
        <time>2023-08-29T07:11:44Z</time>
      </trkpt>
      <trkpt lat="56.809214008972049" lon="-5.114302039146423">
        <ele>98.670000000000002</ele>
        <time>2023-08-29T07:11:45Z</time>
      </trkpt>
      <trkpt lat="56.809176960960031" lon="-5.114432964473963">
        <ele>97.709999999999994</ele>
        <time>2023-08-29T07:11:46Z</time>
      </trkpt>
      <trkpt lat="56.809138990938663" lon="-5.114567996934056">
        <ele>96.75</ele>
        <time>2023-08-29T07:11:47Z</time>
      </trkpt>
      <trkpt lat="56.809062967076898" lon="-5.114836972206831">
        <ele>94.829999999999998</ele>
        <time>2023-08-29T07:11:49Z</time>
      </trkpt>
      <trkpt lat="56.809027008712292" lon="-5.114964041858912">
        <ele>93.870000000000005</ele>
        <time>2023-08-29T07:11:50Z</time>
      </trkpt>
      <trkpt lat="56.808999013155699" lon="-5.115110976621509">
        <ele>92.420000000000002</ele>
        <time>2023-08-29T07:11:51Z</time>
      </trkpt>
      <trkpt lat="56.809020973742008" lon="-5.115246009081602">
        <ele>91.459999999999994</ele>
        <time>2023-08-29T07:11:52Z</time>
      </trkpt>
      <trkpt lat="56.809043018147349" lon="-5.115390010178089">
        <ele>90.5</ele>
        <time>2023-08-29T07:11:53Z</time>
      </trkpt>
      <trkpt lat="56.809075037017465" lon="-5.115533005446196">
        <ele>89.540000000000006</ele>
        <time>2023-08-29T07:11:54Z</time>
      </trkpt>
      <trkpt lat="56.809346023947001" lon="-5.116289975121617">
        <ele>82.329999999999998</ele>
        <time>2023-08-29T07:12:01Z</time>
      </trkpt>
      <trkpt lat="56.809380976483226" lon="-5.116324005648494">
        <ele>80.890000000000001</ele>
        <time>2023-08-29T07:12:02Z</time>
      </trkpt>
      <trkpt lat="56.809426993131638" lon="-5.116313025355339">
        <ele>79.930000000000007</ele>
        <time>2023-08-29T07:12:03Z</time>
      </trkpt>
      <trkpt lat="56.809492036700249" lon="-5.116297015920281">
        <ele>78.969999999999999</ele>
        <time>2023-08-29T07:12:04Z</time>
      </trkpt>
      <trkpt lat="56.809563031420112" lon="-5.116278994828463">
        <ele>78</ele>
        <time>2023-08-29T07:12:05Z</time>
      </trkpt>
      <trkpt lat="56.81061202660203" lon="-5.115936007350683">
        <ele>72.719999999999999</ele>
        <time>2023-08-29T07:12:19Z</time>
      </trkpt>
      <trkpt lat="56.810989966616035" lon="-5.115810027346015">
        <ele>69.829999999999998</ele>
        <time>2023-08-29T07:12:25Z</time>
      </trkpt>
      <trkpt lat="56.811034977436066" lon="-5.115842968225479">
        <ele>69.829999999999998</ele>
        <time>2023-08-29T07:12:26Z</time>
      </trkpt>
      <trkpt lat="56.811078982427716" lon="-5.115876998752356">
        <ele>69.349999999999994</ele>
        <time>2023-08-29T07:12:27Z</time>
      </trkpt>
      <trkpt lat="56.811144025996327" lon="-5.115982023999095">
        <ele>68.870000000000005</ele>
        <time>2023-08-29T07:12:28Z</time>
      </trkpt>
      <trkpt lat="56.811118964105844" lon="-5.116041032597423">
        <ele>68.870000000000005</ele>
        <time>2023-08-29T07:12:29Z</time>
      </trkpt>
      <trkpt lat="56.811090968549252" lon="-5.116109009832144">
        <ele>68.390000000000001</ele>
        <time>2023-08-29T07:12:30Z</time>
      </trkpt>
      <trkpt lat="56.811059033498168" lon="-5.1161889731884">
        <ele>67.909999999999997</ele>
        <time>2023-08-29T07:12:31Z</time>
      </trkpt>
      <trkpt lat="56.811020979657769" lon="-5.116278994828463">
        <ele>67.430000000000007</ele>
        <time>2023-08-29T07:12:32Z</time>
      </trkpt>
      <trkpt lat="56.810834985226393" lon="-5.116665987297893">
        <ele>65.989999999999995</ele>
        <time>2023-08-29T07:12:36Z</time>
      </trkpt>
      <trkpt lat="56.810582019388676" lon="-5.117182983085513">
        <ele>63.579999999999998</ele>
        <time>2023-08-29T07:12:41Z</time>
      </trkpt>
      <trkpt lat="56.810514964163303" lon="-5.117383981123567">
        <ele>62.619999999999997</ele>
        <time>2023-08-29T07:12:43Z</time>
      </trkpt>
      <trkpt lat="56.810497026890516" lon="-5.117439972236753">
        <ele>62.140000000000001</ele>
        <time>2023-08-29T07:12:44Z</time>
      </trkpt>
      <trkpt lat="56.810497026890516" lon="-5.117579028010368">
        <ele>61.659999999999997</ele>
        <time>2023-08-29T07:12:45Z</time>
      </trkpt>
      <trkpt lat="56.810497026890516" lon="-5.117664020508528">
        <ele>61.18</ele>
        <time>2023-08-29T07:12:46Z</time>
      </trkpt>
      <trkpt lat="56.810497026890516" lon="-5.117735015228391">
        <ele>60.700000000000003</ele>
        <time>2023-08-29T07:12:47Z</time>
      </trkpt>
      <trkpt lat="56.810497026890516" lon="-5.11779997497797">
        <ele>59.740000000000002</ele>
        <time>2023-08-29T07:12:48Z</time>
      </trkpt>
      <trkpt lat="56.810497026890516" lon="-5.117961997166276">
        <ele>58.299999999999997</ele>
        <time>2023-08-29T07:12:51Z</time>
      </trkpt>
      <trkpt lat="56.810497026890516" lon="-5.11801497079432">
        <ele>57.340000000000003</ele>
        <time>2023-08-29T07:12:52Z</time>
      </trkpt>
      <trkpt lat="56.810497026890516" lon="-5.118084037676454">
        <ele>56.369999999999997</ele>
        <time>2023-08-29T07:12:53Z</time>
      </trkpt>
      <trkpt lat="56.810565004125237" lon="-5.1180540304631">
        <ele>55.890000000000001</ele>
        <time>2023-08-29T07:12:54Z</time>
      </trkpt>
      <trkpt lat="56.810617977753282" lon="-5.118031986057758">
        <ele>54.93</ele>
        <time>2023-08-29T07:12:55Z</time>
      </trkpt>
      <trkpt lat="56.810681009665132" lon="-5.118003990501165">
        <ele>53.969999999999999</ele>
        <time>2023-08-29T07:12:56Z</time>
      </trkpt>
      <trkpt lat="56.810750998556614" lon="-5.117973983287811">
        <ele>53.490000000000002</ele>
        <time>2023-08-29T07:12:57Z</time>
      </trkpt>
      <trkpt lat="56.811591032892466" lon="-5.117611968889833">
        <ele>46.280000000000001</ele>
        <time>2023-08-29T07:13:07Z</time>
      </trkpt>
      <trkpt lat="56.812639022246003" lon="-5.117004029452801">
        <ele>37.630000000000003</ele>
        <time>2023-08-29T07:13:19Z</time>
      </trkpt>
      <trkpt lat="56.813781978562474" lon="-5.116364993155003">
        <ele>29.460000000000001</ele>
        <time>2023-08-29T07:13:33Z</time>
      </trkpt>
      <trkpt lat="56.814454961568117" lon="-5.115935001522303">
        <ele>20.32</ele>
        <time>2023-08-29T07:13:41Z</time>
      </trkpt>
      <trkpt lat="56.814530985429883" lon="-5.115895019844174">
        <ele>18.879999999999999</ele>
        <time>2023-08-29T07:13:42Z</time>
      </trkpt>
      <trkpt lat="56.814595023170114" lon="-5.115916980430484">
        <ele>17.920000000000002</ele>
        <time>2023-08-29T07:13:43Z</time>
      </trkpt>
      <trkpt lat="56.814658977091312" lon="-5.115938019007444">
        <ele>16.48</ele>
        <time>2023-08-29T07:13:44Z</time>
      </trkpt>
      <trkpt lat="56.814718991518021" lon="-5.115988980978727">
        <ele>15.039999999999999</ele>
        <time>2023-08-29T07:13:45Z</time>
      </trkpt>
      <trkpt lat="56.815015040338039" lon="-5.116240018978715">
        <ele>9.27</ele>
        <time>2023-08-29T07:13:50Z</time>
      </trkpt>
      <trkpt lat="56.815045969560742" lon="-5.116474963724613">
        <ele>7.83</ele>
        <time>2023-08-29T07:13:51Z</time>
      </trkpt>
      <trkpt lat="56.815138002857566" lon="-5.11674796231091">
        <ele>4.94</ele>
        <time>2023-08-29T07:13:54Z</time>
      </trkpt>
      <trkpt lat="56.815192988142371" lon="-5.116805965080857">
        <ele>3.98</ele>
        <time>2023-08-29T07:13:55Z</time>
      </trkpt>
      <trkpt lat="56.815259037539363" lon="-5.116818035021424">
        <ele>3.02</ele>
        <time>2023-08-29T07:13:56Z</time>
      </trkpt>
      <trkpt lat="56.815331038087606" lon="-5.116776041686535">
        <ele>2.54</ele>
        <time>2023-08-29T07:13:57Z</time>
      </trkpt>
      <trkpt lat="56.815390968695283" lon="-5.116688031703234">
        <ele>1.58</ele>
        <time>2023-08-29T07:13:58Z</time>
      </trkpt>
      <trkpt lat="56.815459029749036" lon="-5.116607984527946">
        <ele>1.1</ele>
        <time>2023-08-29T07:13:59Z</time>
      </trkpt>
      <trkpt lat="56.815531030297279" lon="-5.116518968716264">
        <ele>1.1</ele>
        <time>2023-08-29T07:14:00Z</time>
      </trkpt>
      <trkpt lat="56.816426971927285" lon="-5.115116005763412">
        <ele>-0.34</ele>
        <time>2023-08-29T07:14:11Z</time>
      </trkpt>
      <trkpt lat="56.817488959059119" lon="-5.113158999010921">
        <ele>1.58</ele>
        <time>2023-08-29T07:14:22Z</time>
      </trkpt>
      <trkpt lat="56.818665023893118" lon="-5.111679006367922">
        <ele>3.02</ele>
        <time>2023-08-29T07:14:32Z</time>
      </trkpt>
      <trkpt lat="56.819927003234625" lon="-5.109582021832466">
        <ele>4.46</ele>
        <time>2023-08-29T07:14:44Z</time>
      </trkpt>
      <trkpt lat="56.820404017344117" lon="-5.108547024428845">
        <ele>4.94</ele>
        <time>2023-08-29T07:14:51Z</time>
      </trkpt>
      <trkpt lat="56.820527985692024" lon="-5.108241001144052">
        <ele>5.42</ele>
        <time>2023-08-29T07:14:55Z</time>
      </trkpt>
      <trkpt lat="56.820578025653958" lon="-5.108174029737711">
        <ele>5.91</ele>
        <time>2023-08-29T07:14:56Z</time>
      </trkpt>
      <trkpt lat="56.820639967918396" lon="-5.108112003654242">
        <ele>5.91</ele>
        <time>2023-08-29T07:14:57Z</time>
      </trkpt>
      <trkpt lat="56.820752033963799" lon="-5.107955010607839">
        <ele>5.91</ele>
        <time>2023-08-29T07:14:59Z</time>
      </trkpt>
      <trkpt lat="56.820801990106702" lon="-5.107883010059595">
        <ele>5.42</ele>
        <time>2023-08-29T07:15:00Z</time>
      </trkpt>
      <trkpt lat="56.820777012035251" lon="-5.107773961499333">
        <ele>5.42</ele>
        <time>2023-08-29T07:15:01Z</time>
      </trkpt>
      <trkpt lat="56.820757985115051" lon="-5.107661979272962">
        <ele>5.42</ele>
        <time>2023-08-29T07:15:02Z</time>
      </trkpt>
      <trkpt lat="56.820738036185503" lon="-5.107544967904687">
        <ele>5.42</ele>
        <time>2023-08-29T07:15:03Z</time>
      </trkpt>
      <trkpt lat="56.820705011487007" lon="-5.107488976791501">
        <ele>4.94</ele>
        <time>2023-08-29T07:15:04Z</time>
      </trkpt>
      <trkpt lat="56.820633010938764" lon="-5.107445977628231">
        <ele>4.94</ele>
        <time>2023-08-29T07:15:05Z</time>
      </trkpt>
      <trkpt lat="56.820553969591856" lon="-5.107390992343426">
        <ele>4.46</ele>
        <time>2023-08-29T07:15:06Z</time>
      </trkpt>
      <trkpt lat="56.820455985143781" lon="-5.107301976531744">
        <ele>4.46</ele>
        <time>2023-08-29T07:15:07Z</time>
      </trkpt>
      <trkpt lat="56.820390019565821" lon="-5.10718597099185">
        <ele>4.46</ele>
        <time>2023-08-29T07:15:08Z</time>
      </trkpt>
      <trkpt lat="56.819964973255992" lon="-5.105909993872047">
        <ele>4.94</ele>
        <time>2023-08-29T07:15:17Z</time>
      </trkpt>
      <trkpt lat="56.819908982142806" lon="-5.105566000565887">
        <ele>5.42</ele>
        <time>2023-08-29T07:15:19Z</time>
      </trkpt>
      <trkpt lat="56.819885009899735" lon="-5.105181019753218">
        <ele>5.91</ele>
        <time>2023-08-29T07:15:21Z</time>
      </trkpt>
      <trkpt lat="56.819874029606581" lon="-5.104970969259739">
        <ele>5.91</ele>
        <time>2023-08-29T07:15:22Z</time>
      </trkpt>
      <trkpt lat="56.819896996021271" lon="-5.104537960141897">
        <ele>6.87</ele>
        <time>2023-08-29T07:15:24Z</time>
      </trkpt>
      <trkpt lat="56.820006966590881" lon="-5.103711001574993">
        <ele>8.310000000000001</ele>
        <time>2023-08-29T07:15:28Z</time>
      </trkpt>
      <trkpt lat="56.820509964600205" lon="-5.101882992312312">
        <ele>11.19</ele>
        <time>2023-08-29T07:15:39Z</time>
      </trkpt>
      <trkpt lat="56.82122896425426" lon="-5.099330032244325">
        <ele>7.83</ele>
        <time>2023-08-29T07:15:53Z</time>
      </trkpt>
      <trkpt lat="56.821766998618841" lon="-5.097206979990006">
        <ele>6.87</ele>
        <time>2023-08-29T07:16:05Z</time>
      </trkpt>
      <trkpt lat="56.821774039417505" lon="-5.097008999437094">
        <ele>7.35</ele>
        <time>2023-08-29T07:16:06Z</time>
      </trkpt>
      <trkpt lat="56.821780996397138" lon="-5.096809007227421">
        <ele>7.35</ele>
        <time>2023-08-29T07:16:07Z</time>
      </trkpt>
      <trkpt lat="56.821766998618841" lon="-5.096631981432438">
        <ele>7.35</ele>
        <time>2023-08-29T07:16:08Z</time>
      </trkpt>
      <trkpt lat="56.821741014719009" lon="-5.096435006707907">
        <ele>7.83</ele>
        <time>2023-08-29T07:16:09Z</time>
      </trkpt>
      <trkpt lat="56.821714024990797" lon="-5.096235014498234">
        <ele>7.83</ele>
        <time>2023-08-29T07:16:10Z</time>
      </trkpt>
      <trkpt lat="56.821582010015845" lon="-5.095360027626157">
        <ele>8.789999999999999</ele>
        <time>2023-08-29T07:16:16Z</time>
      </trkpt>
      <trkpt lat="56.821568012237549" lon="-5.095276040956378">
        <ele>8.789999999999999</ele>
        <time>2023-08-29T07:16:17Z</time>
      </trkpt>
      <trkpt lat="56.821491988375783" lon="-5.09483196772635">
        <ele>9.75</ele>
        <time>2023-08-29T07:16:22Z</time>
      </trkpt>
      <trkpt lat="56.821477990597486" lon="-5.094747981056571">
        <ele>10.23</ele>
        <time>2023-08-29T07:16:23Z</time>
      </trkpt>
      <trkpt lat="56.82146399281919" lon="-5.09466097690165">
        <ele>10.23</ele>
        <time>2023-08-29T07:16:24Z</time>
      </trkpt>
      <trkpt lat="56.821447983384132" lon="-5.094567015767098">
        <ele>10.23</ele>
        <time>2023-08-29T07:16:25Z</time>
      </trkpt>
      <trkpt lat="56.821428034454584" lon="-5.094365011900663">
        <ele>10.23</ele>
        <time>2023-08-29T07:16:26Z</time>
      </trkpt>
      <trkpt lat="56.821460975334048" lon="-5.094266021624208">
        <ele>10.23</ele>
        <time>2023-08-29T07:16:27Z</time>
      </trkpt>
      <trkpt lat="56.821550996974111" lon="-5.094141969457269">
        <ele>10.710000000000001</ele>
        <time>2023-08-29T07:16:28Z</time>
      </trkpt>
      <trkpt lat="56.821628026664257" lon="-5.0940350163728">
        <ele>11.19</ele>
        <time>2023-08-29T07:16:29Z</time>
      </trkpt>
      <trkpt lat="56.821710001677275" lon="-5.093921022489667">
        <ele>11.19</ele>
        <time>2023-08-29T07:16:30Z</time>
      </trkpt>
      <trkpt lat="56.822399999946356" lon="-5.092830033972859">
        <ele>11.19</ele>
        <time>2023-08-29T07:16:39Z</time>
      </trkpt>
      <trkpt lat="56.822641985490918" lon="-5.092517975717783">
        <ele>12.15</ele>
        <time>2023-08-29T07:16:43Z</time>
      </trkpt>
      <trkpt lat="56.822741981595755" lon="-5.092410016804934">
        <ele>12.15</ele>
        <time>2023-08-29T07:16:45Z</time>
      </trkpt>
      <trkpt lat="56.822792021557689" lon="-5.092356037348509">
        <ele>12.630000000000001</ele>
        <time>2023-08-29T07:16:46Z</time>
      </trkpt>
      <trkpt lat="56.82290400378406" lon="-5.092346984893084">
        <ele>12.630000000000001</ele>
        <time>2023-08-29T07:16:47Z</time>
      </trkpt>
      <trkpt lat="56.822900986298919" lon="-5.092137018218637">
        <ele>12.630000000000001</ele>
        <time>2023-08-29T07:16:48Z</time>
      </trkpt>
      <trkpt lat="56.82294700294733" lon="-5.091997040435672">
        <ele>12.15</ele>
        <time>2023-08-29T07:16:49Z</time>
      </trkpt>
      <trkpt lat="56.822996037080884" lon="-5.091850021854043">
        <ele>12.15</ele>
        <time>2023-08-29T07:16:50Z</time>
      </trkpt>
      <trkpt lat="56.82376298122108" lon="-5.09010398760438">
        <ele>10.23</ele>
        <time>2023-08-29T07:17:01Z</time>
      </trkpt>
      <trkpt lat="56.824780041351914" lon="-5.087834000587463">
        <ele>15.039999999999999</ele>
        <time>2023-08-29T07:17:14Z</time>
      </trkpt>
      <trkpt lat="56.825285973027349" lon="-5.087153976783156">
        <ele>16.48</ele>
        <time>2023-08-29T07:17:19Z</time>
      </trkpt>
      <trkpt lat="56.826342009007931" lon="-5.086154015734792">
        <ele>19.84</ele>
        <time>2023-08-29T07:17:28Z</time>
      </trkpt>
      <trkpt lat="56.827580016106367" lon="-5.084884995594621">
        <ele>20.32</ele>
        <time>2023-08-29T07:17:38Z</time>
      </trkpt>
      <trkpt lat="56.827959967777133" lon="-5.084319971501827">
        <ele>19.359999999999999</ele>
        <time>2023-08-29T07:17:44Z</time>
      </trkpt>
      <trkpt lat="56.828093994408846" lon="-5.084082009270787">
        <ele>19.359999999999999</ele>
        <time>2023-08-29T07:17:48Z</time>
      </trkpt>
      <trkpt lat="56.828140011057258" lon="-5.083999028429389">
        <ele>19.359999999999999</ele>
        <time>2023-08-29T07:17:49Z</time>
      </trkpt>
      <trkpt lat="56.828731019049883" lon="-5.082950033247471">
        <ele>19.84</ele>
        <time>2023-08-29T07:17:58Z</time>
      </trkpt>
      <trkpt lat="56.829234017059207" lon="-5.082056019455195">
        <ele>19.359999999999999</ele>
        <time>2023-08-29T07:18:06Z</time>
      </trkpt>
      <trkpt lat="56.829279027879238" lon="-5.081974966451526">
        <ele>19.359999999999999</ele>
        <time>2023-08-29T07:18:07Z</time>
      </trkpt>
      <trkpt lat="56.82943400926888" lon="-5.081929033622146">
        <ele>18.879999999999999</ele>
        <time>2023-08-29T07:18:09Z</time>
      </trkpt>
      <trkpt lat="56.829513972625136" lon="-5.081800036132336">
        <ele>18.879999999999999</ele>
        <time>2023-08-29T07:18:10Z</time>
      </trkpt>
      <trkpt lat="56.829528976231813" lon="-5.081691993400455">
        <ele>18.399999999999999</ele>
        <time>2023-08-29T07:18:11Z</time>
      </trkpt>
      <trkpt lat="56.829560995101929" lon="-5.08129502646625">
        <ele>18.399999999999999</ele>
        <time>2023-08-29T07:18:13Z</time>
      </trkpt>
      <trkpt lat="56.829620003700256" lon="-5.081150019541383">
        <ele>17.920000000000002</ele>
        <time>2023-08-29T07:18:14Z</time>
      </trkpt>
      <trkpt lat="56.829680018126965" lon="-5.081005012616515">
        <ele>17.440000000000001</ele>
        <time>2023-08-29T07:18:15Z</time>
      </trkpt>
      <trkpt lat="56.829756963998079" lon="-5.080866040661931">
        <ele>16.960000000000001</ele>
        <time>2023-08-29T07:18:16Z</time>
      </trkpt>
      <trkpt lat="56.829830976203084" lon="-5.080733019858599">
        <ele>16.48</ele>
        <time>2023-08-29T07:18:17Z</time>
      </trkpt>
      <trkpt lat="56.830871002748609" lon="-5.079086981713772">
        <ele>13.6</ele>
        <time>2023-08-29T07:18:29Z</time>
      </trkpt>
      <trkpt lat="56.831826958805323" lon="-5.077570024877787">
        <ele>14.08</ele>
        <time>2023-08-29T07:18:41Z</time>
      </trkpt>
      <trkpt lat="56.832024017348886" lon="-5.077333990484476">
        <ele>12.15</ele>
        <time>2023-08-29T07:18:47Z</time>
      </trkpt>
      <trkpt lat="56.831983029842377" lon="-5.077193006873131">
        <ele>11.67</ele>
        <time>2023-08-29T07:18:51Z</time>
      </trkpt>
      <trkpt lat="56.831895019859076" lon="-5.077484026551247">
        <ele>9.75</ele>
        <time>2023-08-29T07:18:58Z</time>
      </trkpt>
      <trkpt lat="56.831847997382283" lon="-5.077544040977955">
        <ele>9.75</ele>
        <time>2023-08-29T07:18:59Z</time>
      </trkpt>
      <trkpt lat="56.831276016309857" lon="-5.078445011749864">
        <ele>8.789999999999999</ele>
        <time>2023-08-29T07:19:06Z</time>
      </trkpt>
      <trkpt lat="56.83104601688683" lon="-5.078810965642333">
        <ele>7.83</ele>
        <time>2023-08-29T07:19:09Z</time>
      </trkpt>
      <trkpt lat="56.830822974443436" lon="-5.079164011403918">
        <ele>5.91</ele>
        <time>2023-08-29T07:19:13Z</time>
      </trkpt>
      <trkpt lat="56.830785004422069" lon="-5.079225031659007">
        <ele>5.91</ele>
        <time>2023-08-29T07:19:14Z</time>
      </trkpt>
      <trkpt lat="56.830715015530586" lon="-5.079310024157167">
        <ele>5.42</ele>
        <time>2023-08-29T07:19:15Z</time>
      </trkpt>
      <trkpt lat="56.830676039680839" lon="-5.079310024157167">
        <ele>4.94</ele>
        <time>2023-08-29T07:19:16Z</time>
      </trkpt>
      <trkpt lat="56.83063899166882" lon="-5.079310024157167">
        <ele>4.46</ele>
        <time>2023-08-29T07:19:17Z</time>
      </trkpt>
      <trkpt lat="56.830606972798705" lon="-5.079310024157167">
        <ele>3.98</ele>
        <time>2023-08-29T07:19:18Z</time>
      </trkpt>
      <trkpt lat="56.830580988898873" lon="-5.079310024157167">
        <ele>3.02</ele>
        <time>2023-08-29T07:19:20Z</time>
      </trkpt>
      <trkpt lat="56.83055299334228" lon="-5.079330978915095">
        <ele>2.54</ele>
        <time>2023-08-29T07:19:21Z</time>
      </trkpt>
      <trkpt lat="56.830494990572333" lon="-5.079373978078365">
        <ele>-1.79</ele>
        <time>2023-08-29T07:19:31Z</time>
      </trkpt>
      <trkpt lat="56.83048602193594" lon="-5.079653011634946">
        <ele>-6.11</ele>
        <time>2023-08-29T07:24:09Z</time>
      </trkpt>
      <trkpt lat="56.830580988898873" lon="-5.079310024157167">
        <ele>-9.960000000000001</ele>
        <time>2023-08-29T07:24:11Z</time>
      </trkpt>
      <trkpt lat="56.830580988898873" lon="-5.079310024157167">
        <ele>-9.960000000000001</ele>
        <time>2023-08-29T07:24:12Z</time>
      </trkpt>
      <trkpt lat="56.830494990572333" lon="-5.079373978078365">
        <ele>-10.44</ele>
        <time>2023-08-29T07:24:13Z</time>
      </trkpt>
      <trkpt lat="56.830494990572333" lon="-5.079373978078365">
        <ele>-10.92</ele>
        <time>2023-08-29T07:24:14Z</time>
      </trkpt>
      <trkpt lat="56.83035702444613" lon="-5.079891979694367">
        <ele>-53.219999999999999</ele>
        <time>2023-08-29T07:24:38Z</time>
      </trkpt>
      <trkpt lat="56.83035702444613" lon="-5.079891979694367">
        <ele>-59.460000000000001</ele>
        <time>2023-08-29T07:25:07Z</time>
      </trkpt>
      <trkpt lat="56.83035702444613" lon="-5.079891979694367">
        <ele>-56.100000000000001</ele>
        <time>2023-08-29T07:25:30Z</time>
      </trkpt>
      <trkpt lat="56.83035702444613" lon="-5.079891979694367">
        <ele>3.02</ele>
        <time>2023-08-29T07:25:46Z</time>
      </trkpt>
      <trkpt lat="56.83035702444613" lon="-5.079891979694367">
        <ele>19.359999999999999</ele>
        <time>2023-08-29T07:26:00Z</time>
      </trkpt>
      <trkpt lat="56.830610996112227" lon="-5.079498030245304">
        <ele>19.359999999999999</ele>
        <time>2023-08-29T07:26:03Z</time>
      </trkpt>
      <trkpt lat="56.830653995275497" lon="-5.079429969191551">
        <ele>18.399999999999999</ele>
        <time>2023-08-29T07:26:04Z</time>
      </trkpt>
      <trkpt lat="56.830706968903542" lon="-5.079347994178534">
        <ele>17.440000000000001</ele>
        <time>2023-08-29T07:26:05Z</time>
      </trkpt>
      <trkpt lat="56.83076798915863" lon="-5.079251015558839">
        <ele>17.440000000000001</ele>
        <time>2023-08-29T07:26:06Z</time>
      </trkpt>
      <trkpt lat="56.831471985206008" lon="-5.078133037313819">
        <ele>13.6</ele>
        <time>2023-08-29T07:26:14Z</time>
      </trkpt>
      <trkpt lat="56.832447974011302" lon="-5.076841972768307">
        <ele>10.710000000000001</ele>
        <time>2023-08-29T07:26:23Z</time>
      </trkpt>
      <trkpt lat="56.832800013944507" lon="-5.076631000265479">
        <ele>10.710000000000001</ele>
        <time>2023-08-29T07:26:26Z</time>
      </trkpt>
      <trkpt lat="56.834043972194195" lon="-5.076065976172686">
        <ele>11.19</ele>
        <time>2023-08-29T07:26:38Z</time>
      </trkpt>
      <trkpt lat="56.83429098688066" lon="-5.075873024761677">
        <ele>10.23</ele>
        <time>2023-08-29T07:26:44Z</time>
      </trkpt>
      <trkpt lat="56.834299033507705" lon="-5.075864978134632">
        <ele>10.23</ele>
        <time>2023-08-29T07:26:55Z</time>
      </trkpt>
      <trkpt lat="56.834499025717378" lon="-5.075714020058513">
        <ele>8.310000000000001</ele>
        <time>2023-08-29T07:27:01Z</time>
      </trkpt>
      <trkpt lat="56.834611007943749" lon="-5.075678983703256">
        <ele>7.83</ele>
        <time>2023-08-29T07:27:08Z</time>
      </trkpt>
      <trkpt lat="56.834731958806515" lon="-5.075755007565022">
        <ele>7.83</ele>
        <time>2023-08-29T07:27:09Z</time>
      </trkpt>
      <trkpt lat="56.834771018475294" lon="-5.075873024761677">
        <ele>7.83</ele>
        <time>2023-08-29T07:27:10Z</time>
      </trkpt>
      <trkpt lat="56.83560099452734" lon="-5.077293002977967">
        <ele>5.42</ele>
        <time>2023-08-29T07:27:22Z</time>
      </trkpt>
      <trkpt lat="56.836072979494929" lon="-5.07805097848177">
        <ele>6.87</ele>
        <time>2023-08-29T07:27:30Z</time>
      </trkpt>
      <trkpt lat="56.836100975051522" lon="-5.078095989301801">
        <ele>7.83</ele>
        <time>2023-08-29T07:27:41Z</time>
      </trkpt>
      <trkpt lat="56.83626601472497" lon="-5.078359013423324">
        <ele>8.310000000000001</ele>
        <time>2023-08-29T07:28:00Z</time>
      </trkpt>
      <trkpt lat="56.836874037981033" lon="-5.07934195920825">
        <ele>7.35</ele>
        <time>2023-08-29T07:28:08Z</time>
      </trkpt>
      <trkpt lat="56.837608963251114" lon="-5.080517018213868">
        <ele>5.91</ele>
        <time>2023-08-29T07:28:17Z</time>
      </trkpt>
      <trkpt lat="56.838875971734524" lon="-5.082535967230797">
        <ele>4.94</ele>
        <time>2023-08-29T07:28:30Z</time>
      </trkpt>
      <trkpt lat="56.839943993836641" lon="-5.084029035642743">
        <ele>6.39</ele>
        <time>2023-08-29T07:28:41Z</time>
      </trkpt>
      <trkpt lat="56.840017000213265" lon="-5.084128025919199">
        <ele>6.39</ele>
        <time>2023-08-29T07:28:42Z</time>
      </trkpt>
      <trkpt lat="56.840081037953496" lon="-5.084255011752248">
        <ele>6.39</ele>
        <time>2023-08-29T07:28:43Z</time>
      </trkpt>
      <trkpt lat="56.84026200324297" lon="-5.0847979914397">
        <ele>5.42</ele>
        <time>2023-08-29T07:28:46Z</time>
      </trkpt>
      <trkpt lat="56.840386977419257" lon="-5.084867980331183">
        <ele>5.42</ele>
        <time>2023-08-29T07:28:47Z</time>
      </trkpt>
      <trkpt lat="56.840473981574178" lon="-5.084993960335851">
        <ele>5.42</ele>
        <time>2023-08-29T07:28:48Z</time>
      </trkpt>
      <trkpt lat="56.840575989335775" lon="-5.08514198474586">
        <ele>5.42</ele>
        <time>2023-08-29T07:28:49Z</time>
      </trkpt>
      <trkpt lat="56.840673973783851" lon="-5.085319010540843">
        <ele>5.42</ele>
        <time>2023-08-29T07:28:50Z</time>
      </trkpt>
      <trkpt lat="56.840762989595532" lon="-5.085511961951852">
        <ele>5.42</ele>
        <time>2023-08-29T07:28:51Z</time>
      </trkpt>
      <trkpt lat="56.841999990865588" lon="-5.087682036682963">
        <ele>5.91</ele>
        <time>2023-08-29T07:29:02Z</time>
      </trkpt>
      <trkpt lat="56.84284103102982" lon="-5.089901983737946">
        <ele>7.83</ele>
        <time>2023-08-29T07:29:11Z</time>
      </trkpt>
      <trkpt lat="56.843276973813772" lon="-5.09223097935319">
        <ele>9.75</ele>
        <time>2023-08-29T07:29:20Z</time>
      </trkpt>
      <trkpt lat="56.843904023990035" lon="-5.09496096521616">
        <ele>11.67</ele>
        <time>2023-08-29T07:29:31Z</time>
      </trkpt>
      <trkpt lat="56.84488202445209" lon="-5.097992029041052">
        <ele>16.48</ele>
        <time>2023-08-29T07:29:45Z</time>
      </trkpt>
      <trkpt lat="56.845278991386294" lon="-5.100402999669313">
        <ele>18.879999999999999</ele>
        <time>2023-08-29T07:29:54Z</time>
      </trkpt>
      <trkpt lat="56.845244960859418" lon="-5.102850012481213">
        <ele>22.73</ele>
        <time>2023-08-29T07:30:03Z</time>
      </trkpt>
      <trkpt lat="56.845105988904834" lon="-5.105001982301474">
        <ele>25.609999999999999</ele>
        <time>2023-08-29T07:30:12Z</time>
      </trkpt>
      <trkpt lat="56.845073970034719" lon="-5.105433985590935">
        <ele>26.09</ele>
        <time>2023-08-29T07:30:14Z</time>
      </trkpt>
      <trkpt lat="56.845058966428041" lon="-5.105633977800608">
        <ele>26.09</ele>
        <time>2023-08-29T07:30:15Z</time>
      </trkpt>
      <trkpt lat="56.844921000301838" lon="-5.107522001489997">
        <ele>28.02</ele>
        <time>2023-08-29T07:30:26Z</time>
      </trkpt>
      <trkpt lat="56.844729976728559" lon="-5.109368031844497">
        <ele>28.5</ele>
        <time>2023-08-29T07:30:38Z</time>
      </trkpt>
      <trkpt lat="56.844712039455771" lon="-5.109513038769364">
        <ele>28.5</ele>
        <time>2023-08-29T07:30:39Z</time>
      </trkpt>
      <trkpt lat="56.844471981748939" lon="-5.111742960289121">
        <ele>26.09</ele>
        <time>2023-08-29T07:30:54Z</time>
      </trkpt>
      <trkpt lat="56.844466030597687" lon="-5.111897019669414">
        <ele>26.09</ele>
        <time>2023-08-29T07:30:55Z</time>
      </trkpt>
      <trkpt lat="56.844458989799023" lon="-5.112048983573914">
        <ele>26.09</ele>
        <time>2023-08-29T07:30:56Z</time>
      </trkpt>
      <trkpt lat="56.844455972313881" lon="-5.11397497728467">
        <ele>23.690000000000001</ele>
        <time>2023-08-29T07:31:07Z</time>
      </trkpt>
      <trkpt lat="56.844447003677487" lon="-5.115570975467563">
        <ele>24.649999999999999</ele>
        <time>2023-08-29T07:31:15Z</time>
      </trkpt>
      <trkpt lat="56.844118013978004" lon="-5.1178830396384">
        <ele>26.09</ele>
        <time>2023-08-29T07:31:27Z</time>
      </trkpt>
      <trkpt lat="56.843876028433442" lon="-5.120297027751803">
        <ele>22.25</ele>
        <time>2023-08-29T07:31:39Z</time>
      </trkpt>
      <trkpt lat="56.843845015391707" lon="-5.122950989753008">
        <ele>19.84</ele>
        <time>2023-08-29T07:31:53Z</time>
      </trkpt>
      <trkpt lat="56.843869993463159" lon="-5.125665972009301">
        <ele>17.920000000000002</ele>
        <time>2023-08-29T07:32:07Z</time>
      </trkpt>
      <trkpt lat="56.843794975429773" lon="-5.128134023398161">
        <ele>13.6</ele>
        <time>2023-08-29T07:32:19Z</time>
      </trkpt>
      <trkpt lat="56.843628007918596" lon="-5.130068985745311">
        <ele>11.19</ele>
        <time>2023-08-29T07:32:28Z</time>
      </trkpt>
      <trkpt lat="56.843330031260848" lon="-5.132691012695432">
        <ele>11.67</ele>
        <time>2023-08-29T07:32:41Z</time>
      </trkpt>
      <trkpt lat="56.843301029875875" lon="-5.133038023486733">
        <ele>11.67</ele>
        <time>2023-08-29T07:32:43Z</time>
      </trkpt>
      <trkpt lat="56.84329398907721" lon="-5.133212031796575">
        <ele>11.67</ele>
        <time>2023-08-29T07:32:44Z</time>
      </trkpt>
      <trkpt lat="56.843241015449166" lon="-5.135525017976761">
        <ele>15.039999999999999</ele>
        <time>2023-08-29T07:32:56Z</time>
      </trkpt>
      <trkpt lat="56.843175971880555" lon="-5.138614000752568">
        <ele>16.960000000000001</ele>
        <time>2023-08-29T07:33:10Z</time>
      </trkpt>
      <trkpt lat="56.843106988817453" lon="-5.141425961628556">
        <ele>20.32</ele>
        <time>2023-08-29T07:33:22Z</time>
      </trkpt>
      <trkpt lat="56.843090979382396" lon="-5.143792005255818">
        <ele>21.289999999999999</ele>
        <time>2023-08-29T07:33:31Z</time>
      </trkpt>
      <trkpt lat="56.843187035992742" lon="-5.146359968930483">
        <ele>21.289999999999999</ele>
        <time>2023-08-29T07:33:40Z</time>
      </trkpt>
      <trkpt lat="56.843686010688543" lon="-5.148727018386126">
        <ele>19.84</ele>
        <time>2023-08-29T07:33:48Z</time>
      </trkpt>
      <trkpt lat="56.8445810303092" lon="-5.150710009038448">
        <ele>17.440000000000001</ele>
        <time>2023-08-29T07:33:56Z</time>
      </trkpt>
      <trkpt lat="56.845427015796304" lon="-5.152196036651731">
        <ele>17.920000000000002</ele>
        <time>2023-08-29T07:34:04Z</time>
      </trkpt>
      <trkpt lat="56.845992039889097" lon="-5.15339900739491">
        <ele>18.879999999999999</ele>
        <time>2023-08-29T07:34:11Z</time>
      </trkpt>
      <trkpt lat="56.846251962706447" lon="-5.154298972338438">
        <ele>18.879999999999999</ele>
        <time>2023-08-29T07:34:15Z</time>
      </trkpt>
      <trkpt lat="56.846313988789916" lon="-5.154542969539762">
        <ele>19.84</ele>
        <time>2023-08-29T07:34:16Z</time>
      </trkpt>
      <trkpt lat="56.846374003216624" lon="-5.154776992276311">
        <ele>20.32</ele>
        <time>2023-08-29T07:34:17Z</time>
      </trkpt>
      <trkpt lat="56.84685898013413" lon="-5.156984031200409">
        <ele>22.25</ele>
        <time>2023-08-29T07:34:27Z</time>
      </trkpt>
      <trkpt lat="56.846903990954161" lon="-5.157187962904573">
        <ele>22.25</ele>
        <time>2023-08-29T07:34:28Z</time>
      </trkpt>
      <trkpt lat="56.847481001168489" lon="-5.159187968820334">
        <ele>20.809999999999999</ele>
        <time>2023-08-29T07:34:38Z</time>
      </trkpt>
      <trkpt lat="56.848249034956098" lon="-5.161659959703684">
        <ele>20.32</ele>
        <time>2023-08-29T07:34:50Z</time>
      </trkpt>
      <trkpt lat="56.84831902384758" lon="-5.161883002147079">
        <ele>19.84</ele>
        <time>2023-08-29T07:34:51Z</time>
      </trkpt>
      <trkpt lat="56.84900801628828" lon="-5.164091968908906">
        <ele>15.52</ele>
        <time>2023-08-29T07:35:00Z</time>
      </trkpt>
      <trkpt lat="56.849837992340326" lon="-5.166753977537155">
        <ele>13.119999999999999</ele>
        <time>2023-08-29T07:35:10Z</time>
      </trkpt>
      <trkpt lat="56.850918000563979" lon="-5.170203968882561">
        <ele>12.15</ele>
        <time>2023-08-29T07:35:22Z</time>
      </trkpt>
      <trkpt lat="56.852038996294141" lon="-5.172707978636026">
        <ele>11.67</ele>
        <time>2023-08-29T07:35:31Z</time>
      </trkpt>
      <trkpt lat="56.852994030341506" lon="-5.175288012251258">
        <ele>12.630000000000001</ele>
        <time>2023-08-29T07:35:40Z</time>
      </trkpt>
      <trkpt lat="56.853277003392577" lon="-5.177843989804387">
        <ele>12.15</ele>
        <time>2023-08-29T07:35:48Z</time>
      </trkpt>
      <trkpt lat="56.853483030572534" lon="-5.181874008849263">
        <ele>10.710000000000001</ele>
        <time>2023-08-29T07:36:00Z</time>
      </trkpt>
      <trkpt lat="56.853761980310082" lon="-5.185826998203993">
        <ele>11.19</ele>
        <time>2023-08-29T07:36:12Z</time>
      </trkpt>
      <trkpt lat="56.854401016607881" lon="-5.188144007697702">
        <ele>9.27</ele>
        <time>2023-08-29T07:36:20Z</time>
      </trkpt>
      <trkpt lat="56.854583993554115" lon="-5.18869997933507">
        <ele>8.789999999999999</ele>
        <time>2023-08-29T07:36:22Z</time>
      </trkpt>
      <trkpt lat="56.854675021022558" lon="-5.18897800706327">
        <ele>8.310000000000001</ele>
        <time>2023-08-29T07:36:23Z</time>
      </trkpt>
      <trkpt lat="56.855257982388139" lon="-5.191034004092217">
        <ele>5.42</ele>
        <time>2023-08-29T07:36:30Z</time>
      </trkpt>
      <trkpt lat="56.855612033978105" lon="-5.194018967449665">
        <ele>5.42</ele>
        <time>2023-08-29T07:36:39Z</time>
      </trkpt>
      <trkpt lat="56.855750000104308" lon="-5.197104010730982">
        <ele>5.91</ele>
        <time>2023-08-29T07:36:49Z</time>
      </trkpt>
      <trkpt lat="56.855719992890954" lon="-5.200777966529131">
        <ele>5.42</ele>
        <time>2023-08-29T07:36:59Z</time>
      </trkpt>
      <trkpt lat="56.855691997334361" lon="-5.204308005049825">
        <ele>5.91</ele>
        <time>2023-08-29T07:37:08Z</time>
      </trkpt>
      <trkpt lat="56.855660984292626" lon="-5.208084974437952">
        <ele>7.35</ele>
        <time>2023-08-29T07:37:18Z</time>
      </trkpt>
      <trkpt lat="56.855630977079272" lon="-5.211661029607058">
        <ele>7.83</ele>
        <time>2023-08-29T07:37:28Z</time>
      </trkpt>
      <trkpt lat="56.855611028149724" lon="-5.214151041582227">
        <ele>5.91</ele>
        <time>2023-08-29T07:37:35Z</time>
      </trkpt>
      <trkpt lat="56.855457974597812" lon="-5.218123979866505">
        <ele>3.02</ele>
        <time>2023-08-29T07:37:46Z</time>
      </trkpt>
      <trkpt lat="56.855212971568108" lon="-5.222719023004174">
        <ele>2.06</ele>
        <time>2023-08-29T07:37:59Z</time>
      </trkpt>
      <trkpt lat="56.855185981839895" lon="-5.227079037576914">
        <ele>4.46</ele>
        <time>2023-08-29T07:38:11Z</time>
      </trkpt>
      <trkpt lat="56.855178019031882" lon="-5.231701992452145">
        <ele>4.94</ele>
        <time>2023-08-29T07:38:24Z</time>
      </trkpt>
      <trkpt lat="56.855171984061599" lon="-5.235249968245626">
        <ele>3.98</ele>
        <time>2023-08-29T07:38:34Z</time>
      </trkpt>
      <trkpt lat="56.855215989053249" lon="-5.239777034148574">
        <ele>5.42</ele>
        <time>2023-08-29T07:38:47Z</time>
      </trkpt>
      <trkpt lat="56.855263011530042" lon="-5.242899041622877">
        <ele>6.39</ele>
        <time>2023-08-29T07:38:56Z</time>
      </trkpt>
      <trkpt lat="56.855200985446572" lon="-5.246805008500814">
        <ele>7.35</ele>
        <time>2023-08-29T07:39:07Z</time>
      </trkpt>
      <trkpt lat="56.854943996295333" lon="-5.251897014677525">
        <ele>4.94</ele>
        <time>2023-08-29T07:39:21Z</time>
      </trkpt>
      <trkpt lat="56.854676026850939" lon="-5.25575403124094">
        <ele>3.98</ele>
        <time>2023-08-29T07:39:32Z</time>
      </trkpt>
      <trkpt lat="56.854537976905704" lon="-5.257136961445212">
        <ele>3.02</ele>
        <time>2023-08-29T07:39:36Z</time>
      </trkpt>
      <trkpt lat="56.854503024369478" lon="-5.257481960579753">
        <ele>3.02</ele>
        <time>2023-08-29T07:39:37Z</time>
      </trkpt>
      <trkpt lat="56.854318035766482" lon="-5.260968999937177">
        <ele>4.46</ele>
        <time>2023-08-29T07:39:47Z</time>
      </trkpt>
      <trkpt lat="56.854480979964137" lon="-5.26314502581954">
        <ele>6.87</ele>
        <time>2023-08-29T07:39:53Z</time>
      </trkpt>
      <trkpt lat="56.854898985475302" lon="-5.266330987215042">
        <ele>7.83</ele>
        <time>2023-08-29T07:40:02Z</time>
      </trkpt>
      <trkpt lat="56.855183970183134" lon="-5.269450983032584">
        <ele>7.35</ele>
        <time>2023-08-29T07:40:11Z</time>
      </trkpt>
      <trkpt lat="56.855268040671945" lon="-5.273659033700824">
        <ele>5.91</ele>
        <time>2023-08-29T07:40:23Z</time>
      </trkpt>
      <trkpt lat="56.855340041220188" lon="-5.27724196203053">
        <ele>9.27</ele>
        <time>2023-08-29T07:40:33Z</time>
      </trkpt>
      <trkpt lat="56.855472978204489" lon="-5.282940985634923">
        <ele>11.67</ele>
        <time>2023-08-29T07:40:49Z</time>
      </trkpt>
      <trkpt lat="56.855751005932689" lon="-5.286692976951599">
        <ele>13.6</ele>
        <time>2023-08-29T07:41:00Z</time>
      </trkpt>
      <trkpt lat="56.856133975088596" lon="-5.2901950199157">
        <ele>12.630000000000001</ele>
        <time>2023-08-29T07:41:10Z</time>
      </trkpt>
      <trkpt lat="56.856460031121969" lon="-5.293672000989318">
        <ele>10.23</ele>
        <time>2023-08-29T07:41:20Z</time>
      </trkpt>
      <trkpt lat="56.856504958122969" lon="-5.297571010887623">
        <ele>9.75</ele>
        <time>2023-08-29T07:41:31Z</time>
      </trkpt>
      <trkpt lat="56.856588022783399" lon="-5.302362022921443">
        <ele>6.87</ele>
        <time>2023-08-29T07:41:44Z</time>
      </trkpt>
      <trkpt lat="56.856902008876204" lon="-5.305460980162025">
        <ele>3.98</ele>
        <time>2023-08-29T07:41:53Z</time>
      </trkpt>
      <trkpt lat="56.857327977195382" lon="-5.309623014181852">
        <ele>-0.82</ele>
        <time>2023-08-29T07:42:05Z</time>
      </trkpt>
      <trkpt lat="56.857827035710216" lon="-5.31309898942709">
        <ele>1.58</ele>
        <time>2023-08-29T07:42:15Z</time>
      </trkpt>
      <trkpt lat="56.858506975695491" lon="-5.315556982532144">
        <ele>3.5</ele>
        <time>2023-08-29T07:42:23Z</time>
      </trkpt>
      <trkpt lat="56.859442982822657" lon="-5.31922004185617">
        <ele>8.310000000000001</ele>
        <time>2023-08-29T07:42:35Z</time>
      </trkpt>
      <trkpt lat="56.85972603969276" lon="-5.322157982736826">
        <ele>12.15</ele>
        <time>2023-08-29T07:42:43Z</time>
      </trkpt>
      <trkpt lat="56.859991997480392" lon="-5.326582035049796">
        <ele>15.52</ele>
        <time>2023-08-29T07:42:55Z</time>
      </trkpt>
      <trkpt lat="56.860353006049991" lon="-5.330133028328419">
        <ele>15.52</ele>
        <time>2023-08-29T07:43:05Z</time>
      </trkpt>
      <trkpt lat="56.860535982996225" lon="-5.334029020741582">
        <ele>15.52</ele>
        <time>2023-08-29T07:43:16Z</time>
      </trkpt>
      <trkpt lat="56.860418971627951" lon="-5.33826095983386">
        <ele>18.399999999999999</ele>
        <time>2023-08-29T07:43:28Z</time>
      </trkpt>
      <trkpt lat="56.860343031585217" lon="-5.342755001038313">
        <ele>21.289999999999999</ele>
        <time>2023-08-29T07:43:41Z</time>
      </trkpt>
      <trkpt lat="56.860543023794889" lon="-5.346183031797409">
        <ele>24.649999999999999</ele>
        <time>2023-08-29T07:43:51Z</time>
      </trkpt>
      <trkpt lat="56.860430035740137" lon="-5.34919498488307">
        <ele>24.649999999999999</ele>
        <time>2023-08-29T07:44:00Z</time>
      </trkpt>
      <trkpt lat="56.859785970300436" lon="-5.351718021556735">
        <ele>23.690000000000001</ele>
        <time>2023-08-29T07:44:08Z</time>
      </trkpt>
      <trkpt lat="56.858965968713164" lon="-5.354429986327887">
        <ele>23.690000000000001</ele>
        <time>2023-08-29T07:44:17Z</time>
      </trkpt>
      <trkpt lat="56.858484009280801" lon="-5.35744403488934">
        <ele>23.690000000000001</ele>
        <time>2023-08-29T07:44:25Z</time>
      </trkpt>
      <trkpt lat="56.858427012339234" lon="-5.360463028773665">
        <ele>20.32</ele>
        <time>2023-08-29T07:44:33Z</time>
      </trkpt>
      <trkpt lat="56.858765976503491" lon="-5.363397030159831">
        <ele>16</ele>
        <time>2023-08-29T07:44:42Z</time>
      </trkpt>
      <trkpt lat="56.85947198420763" lon="-5.366665972396731">
        <ele>14.56</ele>
        <time>2023-08-29T07:44:52Z</time>
      </trkpt>
      <trkpt lat="56.860033990815282" lon="-5.369255980476737">
        <ele>15.039999999999999</ele>
        <time>2023-08-29T07:45:00Z</time>
      </trkpt>
      <trkpt lat="56.860709991306067" lon="-5.371994012966752">
        <ele>12.15</ele>
        <time>2023-08-29T07:45:08Z</time>
      </trkpt>
      <trkpt lat="56.861436031758785" lon="-5.374905969947577">
        <ele>9.75</ele>
        <time>2023-08-29T07:45:17Z</time>
      </trkpt>
      <trkpt lat="56.862128963693976" lon="-5.378599958494306">
        <ele>14.56</ele>
        <time>2023-08-29T07:45:28Z</time>
      </trkpt>
      <trkpt lat="56.862748973071575" lon="-5.381554998457432">
        <ele>16.48</ele>
        <time>2023-08-29T07:45:37Z</time>
      </trkpt>
      <trkpt lat="56.863784976303577" lon="-5.384696032851934">
        <ele>14.56</ele>
        <time>2023-08-29T07:45:47Z</time>
      </trkpt>
      <trkpt lat="56.86426199041307" lon="-5.387011030688882">
        <ele>11.67</ele>
        <time>2023-08-29T07:45:54Z</time>
      </trkpt>
      <trkpt lat="56.864572959020734" lon="-5.390404025092721">
        <ele>16</ele>
        <time>2023-08-29T07:46:04Z</time>
      </trkpt>
      <trkpt lat="56.864596009254456" lon="-5.393161000683904">
        <ele>21.77</ele>
        <time>2023-08-29T07:46:12Z</time>
      </trkpt>
      <trkpt lat="56.864316975697875" lon="-5.395227978006005">
        <ele>20.32</ele>
        <time>2023-08-29T07:46:18Z</time>
      </trkpt>
      <trkpt lat="56.863521030172706" lon="-5.397568037733436">
        <ele>18.879999999999999</ele>
        <time>2023-08-29T07:46:26Z</time>
      </trkpt>
      <trkpt lat="56.862596003338695" lon="-5.399475004523993">
        <ele>17.440000000000001</ele>
        <time>2023-08-29T07:46:33Z</time>
      </trkpt>
      <trkpt lat="56.861500991508365" lon="-5.400766991078854">
        <ele>16</ele>
        <time>2023-08-29T07:46:41Z</time>
      </trkpt>
      <trkpt lat="56.861069994047284" lon="-5.401004031300545">
        <ele>14.56</ele>
        <time>2023-08-29T07:46:46Z</time>
      </trkpt>
      <trkpt lat="56.860944014042616" lon="-5.401046024635434">
        <ele>13.119999999999999</ele>
        <time>2023-08-29T07:46:48Z</time>
      </trkpt>
      <trkpt lat="56.860862039029598" lon="-5.401163036003709">
        <ele>12.630000000000001</ele>
        <time>2023-08-29T07:46:49Z</time>
      </trkpt>
      <trkpt lat="56.860790038481355" lon="-5.401267977431417">
        <ele>12.15</ele>
        <time>2023-08-29T07:46:50Z</time>
      </trkpt>
      <trkpt lat="56.860726000741124" lon="-5.401421030983329">
        <ele>12.15</ele>
        <time>2023-08-29T07:46:51Z</time>
      </trkpt>
      <trkpt lat="56.860657017678022" lon="-5.401586992666125">
        <ele>12.15</ele>
        <time>2023-08-29T07:46:52Z</time>
      </trkpt>
      <trkpt lat="56.860063998028636" lon="-5.403204029425979">
        <ele>11.19</ele>
        <time>2023-08-29T07:46:59Z</time>
      </trkpt>
      <trkpt lat="56.859980011358857" lon="-5.403461018577218">
        <ele>11.19</ele>
        <time>2023-08-29T07:47:00Z</time>
      </trkpt>
      <trkpt lat="56.859910022467375" lon="-5.403741979971528">
        <ele>11.19</ele>
        <time>2023-08-29T07:47:01Z</time>
      </trkpt>
      <trkpt lat="56.85985897667706" lon="-5.404039034619927">
        <ele>11.19</ele>
        <time>2023-08-29T07:47:02Z</time>
      </trkpt>
      <trkpt lat="56.859806003049016" lon="-5.404341034591198">
        <ele>11.19</ele>
        <time>2023-08-29T07:47:03Z</time>
      </trkpt>
      <trkpt lat="56.859759986400604" lon="-5.404653009027243">
        <ele>11.19</ele>
        <time>2023-08-29T07:47:04Z</time>
      </trkpt>
      <trkpt lat="56.859744982793927" lon="-5.404974035918713">
        <ele>11.67</ele>
        <time>2023-08-29T07:47:05Z</time>
      </trkpt>
      <trkpt lat="56.85972997918725" lon="-5.40529296733439">
        <ele>11.67</ele>
        <time>2023-08-29T07:47:06Z</time>
      </trkpt>
      <trkpt lat="56.859724028035998" lon="-5.405618017539382">
        <ele>12.15</ele>
        <time>2023-08-29T07:47:07Z</time>
      </trkpt>
      <trkpt lat="56.859732996672392" lon="-5.405942983925343">
        <ele>12.15</ele>
        <time>2023-08-29T07:47:08Z</time>
      </trkpt>
      <trkpt lat="56.859743976965547" lon="-5.406274991109967">
        <ele>12.15</ele>
        <time>2023-08-29T07:47:09Z</time>
      </trkpt>
      <trkpt lat="56.860134992748499" lon="-5.408090008422732">
        <ele>10.23</ele>
        <time>2023-08-29T07:47:15Z</time>
      </trkpt>
      <trkpt lat="56.860235994681716" lon="-5.408367030322552">
        <ele>9.75</ele>
        <time>2023-08-29T07:47:16Z</time>
      </trkpt>
      <trkpt lat="56.860742010176182" lon="-5.409322986379266">
        <ele>8.310000000000001</ele>
        <time>2023-08-29T07:47:20Z</time>
      </trkpt>
      <trkpt lat="56.860897997394204" lon="-5.409498000517488">
        <ele>8.310000000000001</ele>
        <time>2023-08-29T07:47:21Z</time>
      </trkpt>
      <trkpt lat="56.862065009772778" lon="-5.410382961854339">
        <ele>7.83</ele>
        <time>2023-08-29T07:47:28Z</time>
      </trkpt>
      <trkpt lat="56.862905966117978" lon="-5.410957038402557">
        <ele>8.789999999999999</ele>
        <time>2023-08-29T07:47:33Z</time>
      </trkpt>
      <trkpt lat="56.863067988306284" lon="-5.411085030063987">
        <ele>8.789999999999999</ele>
        <time>2023-08-29T07:47:34Z</time>
      </trkpt>
      <trkpt lat="56.86323001049459" lon="-5.411214027553797">
        <ele>9.27</ele>
        <time>2023-08-29T07:47:35Z</time>
      </trkpt>
      <trkpt lat="56.863370994105935" lon="-5.411419970914722">
        <ele>9.27</ele>
        <time>2023-08-29T07:47:36Z</time>
      </trkpt>
      <trkpt lat="56.86350803822279" lon="-5.411647036671639">
        <ele>9.75</ele>
        <time>2023-08-29T07:47:37Z</time>
      </trkpt>
      <trkpt lat="56.863648016005754" lon="-5.411877958104014">
        <ele>9.75</ele>
        <time>2023-08-29T07:47:38Z</time>
      </trkpt>
      <trkpt lat="56.863776007667184" lon="-5.412122961133719">
        <ele>9.75</ele>
        <time>2023-08-29T07:47:39Z</time>
      </trkpt>
      <trkpt lat="56.863869968801737" lon="-5.412415992468596">
        <ele>10.23</ele>
        <time>2023-08-29T07:47:40Z</time>
      </trkpt>
      <trkpt lat="56.863966025412083" lon="-5.412717992439866">
        <ele>10.23</ele>
        <time>2023-08-29T07:47:41Z</time>
      </trkpt>
      <trkpt lat="56.864063004031777" lon="-5.413022004067898">
        <ele>9.75</ele>
        <time>2023-08-29T07:47:42Z</time>
      </trkpt>
      <trkpt lat="56.864456031471491" lon="-5.414924025535584">
        <ele>9.27</ele>
        <time>2023-08-29T07:47:48Z</time>
      </trkpt>
      <trkpt lat="56.864542029798031" lon="-5.415208004415035">
        <ele>8.789999999999999</ele>
        <time>2023-08-29T07:47:49Z</time>
      </trkpt>
      <trkpt lat="56.864629033952951" lon="-5.415492989122868">
        <ele>8.789999999999999</ele>
        <time>2023-08-29T07:47:50Z</time>
      </trkpt>
      <trkpt lat="56.864765994250774" lon="-5.415699016302824">
        <ele>8.310000000000001</ele>
        <time>2023-08-29T07:47:51Z</time>
      </trkpt>
      <trkpt lat="56.864903960376978" lon="-5.415899008512497">
        <ele>8.310000000000001</ele>
        <time>2023-08-29T07:47:52Z</time>
      </trkpt>
      <trkpt lat="56.865041004493833" lon="-5.416087014600635">
        <ele>7.83</ele>
        <time>2023-08-29T07:47:53Z</time>
      </trkpt>
      <trkpt lat="56.865200009196997" lon="-5.416246019303799">
        <ele>7.83</ele>
        <time>2023-08-29T07:47:54Z</time>
      </trkpt>
      <trkpt lat="56.86535800807178" lon="-5.416404018178582">
        <ele>7.35</ele>
        <time>2023-08-29T07:47:55Z</time>
      </trkpt>
      <trkpt lat="56.865647016093135" lon="-5.416693026199937">
        <ele>7.35</ele>
        <time>2023-08-29T07:47:57Z</time>
      </trkpt>
      <trkpt lat="56.865775007754564" lon="-5.416874997317791">
        <ele>7.83</ele>
        <time>2023-08-29T07:47:58Z</time>
      </trkpt>
      <trkpt lat="56.865863017737865" lon="-5.417111031711102">
        <ele>7.83</ele>
        <time>2023-08-29T07:47:59Z</time>
      </trkpt>
      <trkpt lat="56.865945998579264" lon="-5.417357040569186">
        <ele>8.310000000000001</ele>
        <time>2023-08-29T07:48:00Z</time>
      </trkpt>
      <trkpt lat="56.866033002734184" lon="-5.417614029720426">
        <ele>8.789999999999999</ele>
        <time>2023-08-29T07:48:01Z</time>
      </trkpt>
      <trkpt lat="56.866122018545866" lon="-5.417876970022917">
        <ele>9.27</ele>
        <time>2023-08-29T07:48:02Z</time>
      </trkpt>
      <trkpt lat="56.866764994338155" lon="-5.419859038665891">
        <ele>11.67</ele>
        <time>2023-08-29T07:48:09Z</time>
      </trkpt>
      <trkpt lat="56.866836994886398" lon="-5.420171013101935">
        <ele>12.15</ele>
        <time>2023-08-29T07:48:10Z</time>
      </trkpt>
      <trkpt lat="56.867079986259341" lon="-5.422075968235731">
        <ele>16</ele>
        <time>2023-08-29T07:48:16Z</time>
      </trkpt>
      <trkpt lat="56.867007985711098" lon="-5.424769995734096">
        <ele>18.399999999999999</ele>
        <time>2023-08-29T07:48:24Z</time>
      </trkpt>
      <trkpt lat="56.867040004581213" lon="-5.425099991261959">
        <ele>18.879999999999999</ele>
        <time>2023-08-29T07:48:25Z</time>
      </trkpt>
      <trkpt lat="56.867339992895722" lon="-5.426387032493949">
        <ele>23.690000000000001</ele>
        <time>2023-08-29T07:48:29Z</time>
      </trkpt>
      <trkpt lat="56.867567980661988" lon="-5.426900004968047">
        <ele>25.609999999999999</ele>
        <time>2023-08-29T07:48:31Z</time>
      </trkpt>
      <trkpt lat="56.868027979508042" lon="-5.428016977384687">
        <ele>29.460000000000001</ele>
        <time>2023-08-29T07:48:36Z</time>
      </trkpt>
      <trkpt lat="56.868097968399525" lon="-5.428256029263139">
        <ele>29.940000000000001</ele>
        <time>2023-08-29T07:48:37Z</time>
      </trkpt>
      <trkpt lat="56.868224032223225" lon="-5.429001012817025">
        <ele>30.420000000000002</ele>
        <time>2023-08-29T07:48:40Z</time>
      </trkpt>
      <trkpt lat="56.868255967274308" lon="-5.429250961169601">
        <ele>30.420000000000002</ele>
        <time>2023-08-29T07:48:41Z</time>
      </trkpt>
      <trkpt lat="56.868282034993172" lon="-5.429472997784615">
        <ele>30.420000000000002</ele>
        <time>2023-08-29T07:48:42Z</time>
      </trkpt>
      <trkpt lat="56.868239035829902" lon="-5.431599989533424">
        <ele>28.98</ele>
        <time>2023-08-29T07:48:50Z</time>
      </trkpt>
      <trkpt lat="56.868239035829902" lon="-5.431836023926735">
        <ele>28.5</ele>
        <time>2023-08-29T07:48:51Z</time>
      </trkpt>
      <trkpt lat="56.868239035829902" lon="-5.432280013337731">
        <ele>28.02</ele>
        <time>2023-08-29T07:48:53Z</time>
      </trkpt>
      <trkpt lat="56.868334002792835" lon="-5.432952996343374">
        <ele>29.940000000000001</ele>
        <time>2023-08-29T07:48:56Z</time>
      </trkpt>
      <trkpt lat="56.868380019441247" lon="-5.433174027130008">
        <ele>30.420000000000002</ele>
        <time>2023-08-29T07:48:57Z</time>
      </trkpt>
      <trkpt lat="56.868711020797491" lon="-5.433962009847164">
        <ele>30.899999999999999</ele>
        <time>2023-08-29T07:49:01Z</time>
      </trkpt>
      <trkpt lat="56.869083009660244" lon="-5.434392001479864">
        <ele>31.379999999999999</ele>
        <time>2023-08-29T07:49:04Z</time>
      </trkpt>
      <trkpt lat="56.869201026856899" lon="-5.434496020898223">
        <ele>31.379999999999999</ele>
        <time>2023-08-29T07:49:05Z</time>
      </trkpt>
      <trkpt lat="56.869336981326342" lon="-5.434598028659821">
        <ele>31.379999999999999</ele>
        <time>2023-08-29T07:49:06Z</time>
      </trkpt>
      <trkpt lat="56.870207022875547" lon="-5.435311999171972">
        <ele>31.379999999999999</ele>
        <time>2023-08-29T07:49:14Z</time>
      </trkpt>
      <trkpt lat="56.870266031473875" lon="-5.435421969741583">
        <ele>31.379999999999999</ele>
        <time>2023-08-29T07:49:15Z</time>
      </trkpt>
      <trkpt lat="56.870354041457176" lon="-5.435584997758269">
        <ele>31.379999999999999</ele>
        <time>2023-08-29T07:49:17Z</time>
      </trkpt>
      <trkpt lat="56.870387988165021" lon="-5.4356490354985">
        <ele>31.379999999999999</ele>
        <time>2023-08-29T07:49:18Z</time>
      </trkpt>
      <trkpt lat="56.870413972064853" lon="-5.435695974156261">
        <ele>30.899999999999999</ele>
        <time>2023-08-29T07:49:19Z</time>
      </trkpt>
      <trkpt lat="56.870417995378375" lon="-5.435704020783305">
        <ele>28.98</ele>
        <time>2023-08-29T07:49:20Z</time>
      </trkpt>
      <trkpt lat="56.870417995378375" lon="-5.435704020783305">
        <ele>27.050000000000001</ele>
        <time>2023-08-29T07:49:21Z</time>
      </trkpt>
      <trkpt lat="56.870614970102906" lon="-5.435569994151592">
        <ele>23.690000000000001</ele>
        <time>2023-08-29T07:49:30Z</time>
      </trkpt>
      <trkpt lat="56.870646988973022" lon="-5.435578962787986">
        <ele>22.73</ele>
        <time>2023-08-29T07:49:42Z</time>
      </trkpt>
      <trkpt lat="56.870641959831119" lon="-5.43554300442338">
        <ele>22.25</ele>
        <time>2023-08-29T07:49:58Z</time>
      </trkpt>
      <trkpt lat="56.870672972872853" lon="-5.435420041903853">
        <ele>21.289999999999999</ele>
        <time>2023-08-29T08:04:44Z</time>
      </trkpt>
      <trkpt lat="56.870674984529614" lon="-5.43550000526011">
        <ele>16.960000000000001</ele>
        <time>2023-08-29T08:05:17Z</time>
      </trkpt>
      <trkpt lat="56.87070800922811" lon="-5.435491958633065">
        <ele>15.039999999999999</ele>
        <time>2023-08-29T08:05:40Z</time>
      </trkpt>
      <trkpt lat="56.870875982567668" lon="-5.435562031343579">
        <ele>14.08</ele>
        <time>2023-08-29T08:05:45Z</time>
      </trkpt>
      <trkpt lat="56.87098503112793" lon="-5.435485001653433">
        <ele>13.119999999999999</ele>
        <time>2023-08-29T08:05:48Z</time>
      </trkpt>
      <trkpt lat="56.87081303447485" lon="-5.435192976146936">
        <ele>9.27</ele>
        <time>2023-08-29T08:05:56Z</time>
      </trkpt>
      <trkpt lat="56.87053601257503" lon="-5.435403026640415">
        <ele>7.83</ele>
        <time>2023-08-29T08:06:03Z</time>
      </trkpt>
      <trkpt lat="56.870453031733632" lon="-5.435637971386313">
        <ele>6.87</ele>
        <time>2023-08-29T08:06:11Z</time>
      </trkpt>
      <trkpt lat="56.870457977056503" lon="-5.435640988871455">
        <ele>6.87</ele>
        <time>2023-08-29T08:06:18Z</time>
      </trkpt>
      <trkpt lat="56.870435010641813" lon="-5.435736961662769">
        <ele>6.87</ele>
        <time>2023-08-29T08:06:20Z</time>
      </trkpt>
      <trkpt lat="56.870456971228123" lon="-5.435788007453084">
        <ele>6.87</ele>
        <time>2023-08-29T08:06:21Z</time>
      </trkpt>
      <trkpt lat="56.870491001754999" lon="-5.435865959152579">
        <ele>6.87</ele>
        <time>2023-08-29T08:06:22Z</time>
      </trkpt>
      <trkpt lat="56.87053500674665" lon="-5.435965033248067">
        <ele>6.87</ele>
        <time>2023-08-29T08:06:23Z</time>
      </trkpt>
      <trkpt lat="56.870586974546313" lon="-5.436082966625691">
        <ele>6.87</ele>
        <time>2023-08-29T08:06:24Z</time>
      </trkpt>
      <trkpt lat="56.87064497731626" lon="-5.436214981600642">
        <ele>6.87</ele>
        <time>2023-08-29T08:06:25Z</time>
      </trkpt>
      <trkpt lat="56.870705997571349" lon="-5.436353031545878">
        <ele>7.35</ele>
        <time>2023-08-29T08:06:26Z</time>
      </trkpt>
      <trkpt lat="56.87077104113996" lon="-5.436499966308475">
        <ele>7.35</ele>
        <time>2023-08-29T08:06:27Z</time>
      </trkpt>
      <trkpt lat="56.87083600088954" lon="-5.436655031517148">
        <ele>7.35</ele>
        <time>2023-08-29T08:06:28Z</time>
      </trkpt>
      <trkpt lat="56.87150102108717" lon="-5.438210964202881">
        <ele>10.710000000000001</ele>
        <time>2023-08-29T08:06:37Z</time>
      </trkpt>
      <trkpt lat="56.871536979451776" lon="-5.438382038846612">
        <ele>11.19</ele>
        <time>2023-08-29T08:06:38Z</time>
      </trkpt>
      <trkpt lat="56.87158701941371" lon="-5.438618995249271">
        <ele>11.67</ele>
        <time>2023-08-29T08:06:39Z</time>
      </trkpt>
      <trkpt lat="56.871594982221723" lon="-5.43880901299417">
        <ele>12.15</ele>
        <time>2023-08-29T08:06:40Z</time>
      </trkpt>
      <trkpt lat="56.871638987213373" lon="-5.439837975427508">
        <ele>16</ele>
        <time>2023-08-29T08:06:44Z</time>
      </trkpt>
      <trkpt lat="56.871774019673467" lon="-5.440765013918281">
        <ele>20.32</ele>
        <time>2023-08-29T08:06:48Z</time>
      </trkpt>
      <trkpt lat="56.871816013008356" lon="-5.440988978371024">
        <ele>21.289999999999999</ele>
        <time>2023-08-29T08:06:49Z</time>
      </trkpt>
      <trkpt lat="56.871973006054759" lon="-5.441836975514889">
        <ele>25.609999999999999</ele>
        <time>2023-08-29T08:06:53Z</time>
      </trkpt>
      <trkpt lat="56.871958002448082" lon="-5.442025987431407">
        <ele>27.050000000000001</ele>
        <time>2023-08-29T08:06:54Z</time>
      </trkpt>
      <trkpt lat="56.871941993013024" lon="-5.442224973812699">
        <ele>28.5</ele>
        <time>2023-08-29T08:06:55Z</time>
      </trkpt>
      <trkpt lat="56.871912991628051" lon="-5.442423038184643">
        <ele>29.940000000000001</ele>
        <time>2023-08-29T08:06:56Z</time>
      </trkpt>
      <trkpt lat="56.871849037706852" lon="-5.442613977938891">
        <ele>30.899999999999999</ele>
        <time>2023-08-29T08:06:57Z</time>
      </trkpt>
      <trkpt lat="56.871780976653099" lon="-5.442814975976944">
        <ele>32.340000000000003</ele>
        <time>2023-08-29T08:06:58Z</time>
      </trkpt>
      <trkpt lat="56.871570004150271" lon="-5.443440014496446">
        <ele>36.670000000000002</ele>
        <time>2023-08-29T08:07:01Z</time>
      </trkpt>
      <trkpt lat="56.871505966410041" lon="-5.443627014756203">
        <ele>37.630000000000003</ele>
        <time>2023-08-29T08:07:02Z</time>
      </trkpt>
      <trkpt lat="56.871443018317223" lon="-5.443816026672721">
        <ele>38.590000000000003</ele>
        <time>2023-08-29T08:07:03Z</time>
      </trkpt>
      <trkpt lat="56.871409993618727" lon="-5.444014007225633">
        <ele>39.549999999999997</ele>
        <time>2023-08-29T08:07:04Z</time>
      </trkpt>
      <trkpt lat="56.871401024982333" lon="-5.444239983335137">
        <ele>40.509999999999998</ele>
        <time>2023-08-29T08:07:05Z</time>
      </trkpt>
      <trkpt lat="56.871399013325572" lon="-5.444465959444642">
        <ele>41.469999999999999</ele>
        <time>2023-08-29T08:07:06Z</time>
      </trkpt>
      <trkpt lat="56.871423991397023" lon="-5.444702999666333">
        <ele>41.950000000000003</ele>
        <time>2023-08-29T08:07:07Z</time>
      </trkpt>
      <trkpt lat="56.871450981125236" lon="-5.44495303183794">
        <ele>42.439999999999998</ele>
        <time>2023-08-29T08:07:08Z</time>
      </trkpt>
      <trkpt lat="56.87150102108717" lon="-5.445460975170136">
        <ele>43.399999999999999</ele>
        <time>2023-08-29T08:07:10Z</time>
      </trkpt>
      <trkpt lat="56.871529016643763" lon="-5.447830036282539">
        <ele>44.840000000000003</ele>
        <time>2023-08-29T08:07:19Z</time>
      </trkpt>
      <trkpt lat="56.871607974171638" lon="-5.449133003130555">
        <ele>43.880000000000003</ele>
        <time>2023-08-29T08:07:24Z</time>
      </trkpt>
      <trkpt lat="56.871736971661448" lon="-5.449604988098145">
        <ele>43.880000000000003</ele>
        <time>2023-08-29T08:07:26Z</time>
      </trkpt>
      <trkpt lat="56.871816013008356" lon="-5.449800034984946">
        <ele>43.880000000000003</ele>
        <time>2023-08-29T08:07:27Z</time>
      </trkpt>
      <trkpt lat="56.871977029368281" lon="-5.45019599609077">
        <ele>43.880000000000003</ele>
        <time>2023-08-29T08:07:29Z</time>
      </trkpt>
      <trkpt lat="56.872053975239396" lon="-5.450386013835669">
        <ele>43.880000000000003</ele>
        <time>2023-08-29T08:07:30Z</time>
      </trkpt>
      <trkpt lat="56.872424958273768" lon="-5.451296959072352">
        <ele>46.280000000000001</ele>
        <time>2023-08-29T08:07:37Z</time>
      </trkpt>
      <trkpt lat="56.872488996013999" lon="-5.451455963775516">
        <ele>46.759999999999998</ele>
        <time>2023-08-29T08:07:40Z</time>
      </trkpt>
      <trkpt lat="56.872503999620676" lon="-5.451492005959153">
        <ele>46.280000000000001</ele>
        <time>2023-08-29T08:07:41Z</time>
      </trkpt>
      <trkpt lat="56.87251397408545" lon="-5.451516984030604">
        <ele>46.759999999999998</ele>
        <time>2023-08-29T08:07:42Z</time>
      </trkpt>
      <trkpt lat="56.872535012662411" lon="-5.451432997360826">
        <ele>46.759999999999998</ele>
        <time>2023-08-29T08:07:43Z</time>
      </trkpt>
      <trkpt lat="56.872537024319172" lon="-5.451379017904401">
        <ele>46.759999999999998</ele>
        <time>2023-08-29T08:07:44Z</time>
      </trkpt>
      <trkpt lat="56.872539035975933" lon="-5.451315985992551">
        <ele>46.759999999999998</ele>
        <time>2023-08-29T08:07:45Z</time>
      </trkpt>
      <trkpt lat="56.872540963813663" lon="-5.451253959909082">
        <ele>47.240000000000002</ele>
        <time>2023-08-29T08:07:46Z</time>
      </trkpt>
      <trkpt lat="56.872542975470424" lon="-5.451181959360838">
        <ele>47.240000000000002</ele>
        <time>2023-08-29T08:07:47Z</time>
      </trkpt>
      <trkpt lat="56.872545992955565" lon="-5.451108030974865">
        <ele>47.240000000000002</ele>
        <time>2023-08-29T08:07:48Z</time>
      </trkpt>
      <trkpt lat="56.872548004612327" lon="-5.45103301294148">
        <ele>47.719999999999999</ele>
        <time>2023-08-29T08:07:49Z</time>
      </trkpt>
      <trkpt lat="56.872551022097468" lon="-5.450954977422953">
        <ele>47.719999999999999</ele>
        <time>2023-08-29T08:07:50Z</time>
      </trkpt>
      <trkpt lat="56.87255303375423" lon="-5.450874008238316">
        <ele>48.200000000000003</ele>
        <time>2023-08-29T08:07:51Z</time>
      </trkpt>
      <trkpt lat="56.87255596742034" lon="-5.450794966891408">
        <ele>48.68</ele>
        <time>2023-08-29T08:07:52Z</time>
      </trkpt>
      <trkpt lat="56.872560996562243" lon="-5.450635040178895">
        <ele>49.159999999999997</ele>
        <time>2023-08-29T08:07:54Z</time>
      </trkpt>
      <trkpt lat="56.872568959370255" lon="-5.450405040755868">
        <ele>50.130000000000003</ele>
        <time>2023-08-29T08:07:56Z</time>
      </trkpt>
      <trkpt lat="56.872573988512158" lon="-5.450270008295775">
        <ele>50.609999999999999</ele>
        <time>2023-08-29T08:07:57Z</time>
      </trkpt>
      <trkpt lat="56.872455971315503" lon="-5.449926014989615">
        <ele>53.490000000000002</ele>
        <time>2023-08-29T08:08:04Z</time>
      </trkpt>
      <trkpt lat="56.872455971315503" lon="-5.449926014989615">
        <ele>53.969999999999999</ele>
        <time>2023-08-29T08:08:17Z</time>
      </trkpt>
      <trkpt lat="56.872425964102149" lon="-5.449839010834694">
        <ele>55.890000000000001</ele>
        <time>2023-08-29T08:08:40Z</time>
      </trkpt>
      <trkpt lat="56.872301995754242" lon="-5.449476996436715">
        <ele>58.299999999999997</ele>
        <time>2023-08-29T08:08:48Z</time>
      </trkpt>
      <trkpt lat="56.87229503877461" lon="-5.449455035850406">
        <ele>56.859999999999999</ele>
        <time>2023-08-29T08:08:52Z</time>
      </trkpt>
      <trkpt lat="56.872344994917512" lon="-5.44935897924006">
        <ele>76.560000000000002</ele>
        <time>2023-08-29T08:57:12Z</time>
      </trkpt>
      <trkpt lat="56.872325967997313" lon="-5.449346993118525">
        <ele>73.200000000000003</ele>
        <time>2023-08-29T08:57:35Z</time>
      </trkpt>
      <trkpt lat="56.872282968834043" lon="-5.449288990348578">
        <ele>72.719999999999999</ele>
        <time>2023-08-29T08:58:01Z</time>
      </trkpt>
      <trkpt lat="56.872325967997313" lon="-5.449329977855086">
        <ele>68.870000000000005</ele>
        <time>2023-08-29T08:58:18Z</time>
      </trkpt>
      <trkpt lat="56.872295960783958" lon="-5.449457969516516">
        <ele>68.390000000000001</ele>
        <time>2023-08-29T08:58:20Z</time>
      </trkpt>
      <trkpt lat="56.872315993532538" lon="-5.449516978114843">
        <ele>68.390000000000001</ele>
        <time>2023-08-29T08:58:21Z</time>
      </trkpt>
      <trkpt lat="56.872338959947228" lon="-5.449583027511835">
        <ele>68.390000000000001</ele>
        <time>2023-08-29T08:58:22Z</time>
      </trkpt>
      <trkpt lat="56.87236100435257" lon="-5.449648993089795">
        <ele>67.909999999999997</ele>
        <time>2023-08-29T08:58:23Z</time>
      </trkpt>
      <trkpt lat="56.872433004900813" lon="-5.449859965592623">
        <ele>66.950000000000003</ele>
        <time>2023-08-29T08:58:26Z</time>
      </trkpt>
      <trkpt lat="56.872457982972264" lon="-5.449931966140866">
        <ele>66.469999999999999</ele>
        <time>2023-08-29T08:58:27Z</time>
      </trkpt>
      <trkpt lat="56.872484972700477" lon="-5.450013019144535">
        <ele>65.989999999999995</ele>
        <time>2023-08-29T08:58:28Z</time>
      </trkpt>
      <trkpt lat="56.872516991570592" lon="-5.450104968622327">
        <ele>65.510000000000005</ele>
        <time>2023-08-29T08:58:29Z</time>
      </trkpt>
      <trkpt lat="56.872548004612327" lon="-5.450194990262389">
        <ele>65.030000000000001</ele>
        <time>2023-08-29T08:58:30Z</time>
      </trkpt>
      <trkpt lat="56.872571976855397" lon="-5.450320970267057">
        <ele>64.549999999999997</ele>
        <time>2023-08-29T08:58:31Z</time>
      </trkpt>
      <trkpt lat="56.872568959370255" lon="-5.450419038534164">
        <ele>64.069999999999993</ele>
        <time>2023-08-29T08:58:32Z</time>
      </trkpt>
      <trkpt lat="56.872551022097468" lon="-5.450950032100081">
        <ele>61.18</ele>
        <time>2023-08-29T08:58:38Z</time>
      </trkpt>
      <trkpt lat="56.872548004612327" lon="-5.451039969921112">
        <ele>60.700000000000003</ele>
        <time>2023-08-29T08:58:39Z</time>
      </trkpt>
      <trkpt lat="56.872544987127185" lon="-5.451125968247652">
        <ele>59.740000000000002</ele>
        <time>2023-08-29T08:58:40Z</time>
      </trkpt>
      <trkpt lat="56.872541969642043" lon="-5.451204003766179">
        <ele>59.259999999999998</ele>
        <time>2023-08-29T08:58:41Z</time>
      </trkpt>
      <trkpt lat="56.872540041804314" lon="-5.4512719810009">
        <ele>58.780000000000001</ele>
        <time>2023-08-29T08:58:42Z</time>
      </trkpt>
      <trkpt lat="56.872530989348888" lon="-5.451557971537113">
        <ele>53.490000000000002</ele>
        <time>2023-08-29T08:58:50Z</time>
      </trkpt>
      <trkpt lat="56.872573988512158" lon="-5.451681017875671">
        <ele>52.530000000000001</ele>
        <time>2023-08-29T08:58:51Z</time>
      </trkpt>
      <trkpt lat="56.872613970190287" lon="-5.451791994273663">
        <ele>52.049999999999997</ele>
        <time>2023-08-29T08:58:52Z</time>
      </trkpt>
      <trkpt lat="56.872657975181937" lon="-5.451917974278331">
        <ele>51.090000000000003</ele>
        <time>2023-08-29T08:58:53Z</time>
      </trkpt>
      <trkpt lat="56.872707009315491" lon="-5.452054012566805">
        <ele>50.609999999999999</ele>
        <time>2023-08-29T08:58:54Z</time>
      </trkpt>
      <trkpt lat="56.872760988771915" lon="-5.452206982299686">
        <ele>50.130000000000003</ele>
        <time>2023-08-29T08:58:55Z</time>
      </trkpt>
      <trkpt lat="56.873244037851691" lon="-5.453767022117972">
        <ele>51.57</ele>
        <time>2023-08-29T08:59:04Z</time>
      </trkpt>
      <trkpt lat="56.873727003112435" lon="-5.455317003652453">
        <ele>59.740000000000002</ele>
        <time>2023-08-29T08:59:11Z</time>
      </trkpt>
      <trkpt lat="56.873763967305422" lon="-5.455526970326901">
        <ele>60.700000000000003</ele>
        <time>2023-08-29T08:59:12Z</time>
      </trkpt>
      <trkpt lat="56.873791962862015" lon="-5.455732997506857">
        <ele>62.140000000000001</ele>
        <time>2023-08-29T08:59:13Z</time>
      </trkpt>
      <trkpt lat="56.873885001987219" lon="-5.456608990207315">
        <ele>67.430000000000007</ele>
        <time>2023-08-29T08:59:18Z</time>
      </trkpt>
      <trkpt lat="56.873900005593896" lon="-5.456760032102466">
        <ele>68.390000000000001</ele>
        <time>2023-08-29T08:59:19Z</time>
      </trkpt>
      <trkpt lat="56.873933030292392" lon="-5.456866985186935">
        <ele>69.349999999999994</ele>
        <time>2023-08-29T08:59:20Z</time>
      </trkpt>
      <trkpt lat="56.873978041112423" lon="-5.456982990726829">
        <ele>70.310000000000002</ele>
        <time>2023-08-29T08:59:21Z</time>
      </trkpt>
      <trkpt lat="56.874021040275693" lon="-5.4570949729532">
        <ele>71.269999999999996</ele>
        <time>2023-08-29T08:59:22Z</time>
      </trkpt>
      <trkpt lat="56.874064961448312" lon="-5.457193041220307">
        <ele>72.239999999999995</ele>
        <time>2023-08-29T08:59:23Z</time>
      </trkpt>
      <trkpt lat="56.87412497587502" lon="-5.457267975434661">
        <ele>72.719999999999999</ele>
        <time>2023-08-29T08:59:24Z</time>
      </trkpt>
      <trkpt lat="56.87425103969872" lon="-5.45735296793282">
        <ele>74.640000000000001</ele>
        <time>2023-08-29T08:59:26Z</time>
      </trkpt>
      <trkpt lat="56.874783961102366" lon="-5.45771598815918">
        <ele>78.480000000000004</ele>
        <time>2023-08-29T08:59:31Z</time>
      </trkpt>
      <trkpt lat="56.874897032976151" lon="-5.457859989255667">
        <ele>79.450000000000003</ele>
        <time>2023-08-29T08:59:32Z</time>
      </trkpt>
      <trkpt lat="56.874999040737748" lon="-5.458026034757495">
        <ele>79.930000000000007</ele>
        <time>2023-08-29T08:59:33Z</time>
      </trkpt>
      <trkpt lat="56.875081015750766" lon="-5.458257962018251">
        <ele>80.409999999999997</ele>
        <time>2023-08-29T08:59:34Z</time>
      </trkpt>
      <trkpt lat="56.87515502795577" lon="-5.458499025553465">
        <ele>80.890000000000001</ele>
        <time>2023-08-29T08:59:35Z</time>
      </trkpt>
      <trkpt lat="56.875516958534718" lon="-5.459517007693648">
        <ele>83.769999999999996</ele>
        <time>2023-08-29T08:59:39Z</time>
      </trkpt>
      <trkpt lat="56.875699013471603" lon="-5.459941970184445">
        <ele>85.689999999999998</ele>
        <time>2023-08-29T08:59:41Z</time>
      </trkpt>
      <trkpt lat="56.875816024839878" lon="-5.460108015686274">
        <ele>86.659999999999997</ele>
        <time>2023-08-29T08:59:42Z</time>
      </trkpt>
      <trkpt lat="56.875933958217502" lon="-5.460274983197451">
        <ele>87.140000000000001</ele>
        <time>2023-08-29T08:59:43Z</time>
      </trkpt>
      <trkpt lat="56.876051975414157" lon="-5.46044304035604">
        <ele>88.099999999999994</ele>
        <time>2023-08-29T08:59:44Z</time>
      </trkpt>
      <trkpt lat="56.876157000660896" lon="-5.460590980947018">
        <ele>89.060000000000002</ele>
        <time>2023-08-29T08:59:45Z</time>
      </trkpt>
      <trkpt lat="56.876259008422494" lon="-5.460817962884903">
        <ele>89.540000000000006</ele>
        <time>2023-08-29T08:59:46Z</time>
      </trkpt>
      <trkpt lat="56.876349030062556" lon="-5.461017033085227">
        <ele>90.5</ele>
        <time>2023-08-29T08:59:47Z</time>
      </trkpt>
      <trkpt lat="56.87640099786222" lon="-5.461252983659506">
        <ele>90.980000000000004</ele>
        <time>2023-08-29T08:59:48Z</time>
      </trkpt>
      <trkpt lat="56.876453971490264" lon="-5.461493963375688">
        <ele>91.459999999999994</ele>
        <time>2023-08-29T08:59:49Z</time>
      </trkpt>
      <trkpt lat="56.876997034996748" lon="-5.46409897506237">
        <ele>93.390000000000001</ele>
        <time>2023-08-29T08:59:58Z</time>
      </trkpt>
      <trkpt lat="56.877059983089566" lon="-5.464752009138465">
        <ele>93.870000000000005</ele>
        <time>2023-08-29T09:00:00Z</time>
      </trkpt>
      <trkpt lat="56.87706601805985" lon="-5.465073036029935">
        <ele>93.870000000000005</ele>
        <time>2023-08-29T09:00:01Z</time>
      </trkpt>
      <trkpt lat="56.8769839592278" lon="-5.467884996905923">
        <ele>94.829999999999998</ele>
        <time>2023-08-29T09:00:10Z</time>
      </trkpt>
      <trkpt lat="56.876993011683226" lon="-5.468174004927278">
        <ele>94.829999999999998</ele>
        <time>2023-08-29T09:00:11Z</time>
      </trkpt>
      <trkpt lat="56.877051014453173" lon="-5.468443986028433">
        <ele>95.310000000000002</ele>
        <time>2023-08-29T09:00:12Z</time>
      </trkpt>
      <trkpt lat="56.877108011394739" lon="-5.468702986836433">
        <ele>95.790000000000006</ele>
        <time>2023-08-29T09:00:13Z</time>
      </trkpt>
      <trkpt lat="56.877201972529292" lon="-5.468938015401363">
        <ele>96.269999999999996</ele>
        <time>2023-08-29T09:00:14Z</time>
      </trkpt>
      <trkpt lat="56.877305991947651" lon="-5.469160974025726">
        <ele>96.269999999999996</ele>
        <time>2023-08-29T09:00:15Z</time>
      </trkpt>
      <trkpt lat="56.877951985225081" lon="-5.47062998637557">
        <ele>96.269999999999996</ele>
        <time>2023-08-29T09:00:21Z</time>
      </trkpt>
      <trkpt lat="56.878020968288183" lon="-5.470927963033319">
        <ele>95.790000000000006</ele>
        <time>2023-08-29T09:00:22Z</time>
      </trkpt>
      <trkpt lat="56.878091963008046" lon="-5.471239015460014">
        <ele>95.310000000000002</ele>
        <time>2023-08-29T09:00:23Z</time>
      </trkpt>
      <trkpt lat="56.878401003777981" lon="-5.473812008276582">
        <ele>92.900000000000006</ele>
        <time>2023-08-29T09:00:31Z</time>
      </trkpt>
      <trkpt lat="56.878361022099853" lon="-5.476719019934535">
        <ele>96.269999999999996</ele>
        <time>2023-08-29T09:00:40Z</time>
      </trkpt>
      <trkpt lat="56.878389017656446" lon="-5.477049015462399">
        <ele>96.269999999999996</ele>
        <time>2023-08-29T09:00:41Z</time>
      </trkpt>
      <trkpt lat="56.878603007644415" lon="-5.478480979800224">
        <ele>96.269999999999996</ele>
        <time>2023-08-29T09:00:46Z</time>
      </trkpt>
      <trkpt lat="56.878599990159273" lon="-5.478795971721411">
        <ele>95.790000000000006</ele>
        <time>2023-08-29T09:00:47Z</time>
      </trkpt>
      <trkpt lat="56.87854802235961" lon="-5.482169017195702">
        <ele>94.349999999999994</ele>
        <time>2023-08-29T09:00:57Z</time>
      </trkpt>
      <trkpt lat="56.878403015434742" lon="-5.487267980352044">
        <ele>102.04000000000001</ele>
        <time>2023-08-29T09:01:12Z</time>
      </trkpt>
      <trkpt lat="56.878135967999697" lon="-5.49076097086072">
        <ele>111.17</ele>
        <time>2023-08-29T09:01:23Z</time>
      </trkpt>
      <trkpt lat="56.878104032948613" lon="-5.491079986095429">
        <ele>111.17</ele>
        <time>2023-08-29T09:01:24Z</time>
      </trkpt>
      <trkpt lat="56.878019040450454" lon="-5.491348039358854">
        <ele>112.13</ele>
        <time>2023-08-29T09:01:25Z</time>
      </trkpt>
      <trkpt lat="56.877921978011727" lon="-5.491604022681713">
        <ele>112.61</ele>
        <time>2023-08-29T09:01:26Z</time>
      </trkpt>
      <trkpt lat="56.877815024927258" lon="-5.491851037368178">
        <ele>113.56999999999999</ele>
        <time>2023-08-29T09:01:27Z</time>
      </trkpt>
      <trkpt lat="56.877703964710236" lon="-5.492105009034276">
        <ele>114.05</ele>
        <time>2023-08-29T09:01:28Z</time>
      </trkpt>
      <trkpt lat="56.876909025013447" lon="-5.493891024962068">
        <ele>111.65000000000001</ele>
        <time>2023-08-29T09:01:35Z</time>
      </trkpt>
      <trkpt lat="56.876823026686907" lon="-5.494148014113307">
        <ele>111.17</ele>
        <time>2023-08-29T09:01:36Z</time>
      </trkpt>
      <trkpt lat="56.876754965633154" lon="-5.494428975507617">
        <ele>111.17</ele>
        <time>2023-08-29T09:01:37Z</time>
      </trkpt>
      <trkpt lat="56.876608030870557" lon="-5.495325000956655">
        <ele>109.73</ele>
        <time>2023-08-29T09:01:40Z</time>
      </trkpt>
      <trkpt lat="56.876555979251862" lon="-5.495619038119912">
        <ele>109.25</ele>
        <time>2023-08-29T09:01:41Z</time>
      </trkpt>
      <trkpt lat="56.876480039209127" lon="-5.495899999514222">
        <ele>108.77</ele>
        <time>2023-08-29T09:01:42Z</time>
      </trkpt>
      <trkpt lat="56.87624903395772" lon="-5.496745985001326">
        <ele>108.29000000000001</ele>
        <time>2023-08-29T09:01:45Z</time>
      </trkpt>
      <trkpt lat="56.876176027581096" lon="-5.497024012729526">
        <ele>108.29000000000001</ele>
        <time>2023-08-29T09:01:46Z</time>
      </trkpt>
      <trkpt lat="56.875857012346387" lon="-5.500087011605501">
        <ele>107.31999999999999</ele>
        <time>2023-08-29T09:01:56Z</time>
      </trkpt>
      <trkpt lat="56.875620977953076" lon="-5.502790007740259">
        <ele>107.31999999999999</ele>
        <time>2023-08-29T09:02:04Z</time>
      </trkpt>
      <trkpt lat="56.875620977953076" lon="-5.503486040979624">
        <ele>107.31999999999999</ele>
        <time>2023-08-29T09:02:06Z</time>
      </trkpt>
      <trkpt lat="56.875626007094979" lon="-5.503830034285784">
        <ele>107.31999999999999</ele>
        <time>2023-08-29T09:02:07Z</time>
      </trkpt>
      <trkpt lat="56.875665988773108" lon="-5.504174027591944">
        <ele>107.31999999999999</ele>
        <time>2023-08-29T09:02:08Z</time>
      </trkpt>
      <trkpt lat="56.875828010961413" lon="-5.506832012906671">
        <ele>108.29000000000001</ele>
        <time>2023-08-29T09:02:15Z</time>
      </trkpt>
      <trkpt lat="56.875553000718355" lon="-5.510315028950572">
        <ele>111.17</ele>
        <time>2023-08-29T09:02:24Z</time>
      </trkpt>
      <trkpt lat="56.875428026542068" lon="-5.511018019169569">
        <ele>112.13</ele>
        <time>2023-08-29T09:02:26Z</time>
      </trkpt>
      <trkpt lat="56.874614981934428" lon="-5.513495961204171">
        <ele>118.86</ele>
        <time>2023-08-29T09:02:34Z</time>
      </trkpt>
      <trkpt lat="56.873696995899081" lon="-5.516050010919571">
        <ele>118.38</ele>
        <time>2023-08-29T09:02:43Z</time>
      </trkpt>
      <trkpt lat="56.873369012027979" lon="-5.517654977738857">
        <ele>115.01000000000001</ele>
        <time>2023-08-29T09:02:49Z</time>
      </trkpt>
      <trkpt lat="56.873397007584572" lon="-5.517876008525491">
        <ele>114.53</ele>
        <time>2023-08-29T09:02:50Z</time>
      </trkpt>
      <trkpt lat="56.873430032283068" lon="-5.518102990463376">
        <ele>113.56999999999999</ele>
        <time>2023-08-29T09:02:51Z</time>
      </trkpt>
      <trkpt lat="56.873474037274718" lon="-5.518319997936487">
        <ele>113.09</ele>
        <time>2023-08-29T09:02:52Z</time>
      </trkpt>
      <trkpt lat="56.873556012287736" lon="-5.518522001802921">
        <ele>112.13</ele>
        <time>2023-08-29T09:02:53Z</time>
      </trkpt>
      <trkpt lat="56.873644022271037" lon="-5.518736997619271">
        <ele>111.65000000000001</ele>
        <time>2023-08-29T09:02:54Z</time>
      </trkpt>
      <trkpt lat="56.873747035861015" lon="-5.518932966515422">
        <ele>110.69</ele>
        <time>2023-08-29T09:02:55Z</time>
      </trkpt>
      <trkpt lat="56.873868992552161" lon="-5.519107980653644">
        <ele>110.20999999999999</ele>
        <time>2023-08-29T09:02:56Z</time>
      </trkpt>
      <trkpt lat="56.874252967536449" lon="-5.519692031666637">
        <ele>109.25</ele>
        <time>2023-08-29T09:02:59Z</time>
      </trkpt>
      <trkpt lat="56.874345000833273" lon="-5.519927982240915">
        <ele>109.25</ele>
        <time>2023-08-29T09:03:00Z</time>
      </trkpt>
      <trkpt lat="56.874434016644955" lon="-5.520155970007181">
        <ele>108.77</ele>
        <time>2023-08-29T09:03:01Z</time>
      </trkpt>
      <trkpt lat="56.874615987762809" lon="-5.520547991618514">
        <ele>106.84</ele>
        <time>2023-08-29T09:03:03Z</time>
      </trkpt>
      <trkpt lat="56.874722018837929" lon="-5.520671959966421">
        <ele>105.40000000000001</ele>
        <time>2023-08-29T09:03:04Z</time>
      </trkpt>
      <trkpt lat="56.874841041862965" lon="-5.520724011585116">
        <ele>104.44</ele>
        <time>2023-08-29T09:03:05Z</time>
      </trkpt>
      <trkpt lat="56.874955035746098" lon="-5.520727029070258">
        <ele>103.95999999999999</ele>
        <time>2023-08-29T09:03:06Z</time>
      </trkpt>
      <trkpt lat="56.875086966902018" lon="-5.520701967179775">
        <ele>103</ele>
        <time>2023-08-29T09:03:07Z</time>
      </trkpt>
      <trkpt lat="56.875232979655266" lon="-5.520657040178776">
        <ele>102.04000000000001</ele>
        <time>2023-08-29T09:03:08Z</time>
      </trkpt>
      <trkpt lat="56.87582298181951" lon="-5.520473979413509">
        <ele>99.150000000000006</ele>
        <time>2023-08-29T09:03:12Z</time>
      </trkpt>
      <trkpt lat="56.875942004844546" lon="-5.520437015220523">
        <ele>98.189999999999998</ele>
        <time>2023-08-29T09:03:13Z</time>
      </trkpt>
      <trkpt lat="56.876078965142369" lon="-5.520504992455244">
        <ele>97.709999999999994</ele>
        <time>2023-08-29T09:03:14Z</time>
      </trkpt>
      <trkpt lat="56.876157000660896" lon="-5.520543968304992">
        <ele>96.75</ele>
        <time>2023-08-29T09:03:15Z</time>
      </trkpt>
      <trkpt lat="56.876265965402126" lon="-5.520714037120342">
        <ele>96.75</ele>
        <time>2023-08-29T09:03:16Z</time>
      </trkpt>
      <trkpt lat="56.876350035890937" lon="-5.520844962447882">
        <ele>96.269999999999996</ele>
        <time>2023-08-29T09:03:17Z</time>
      </trkpt>
      <trkpt lat="56.876383982598782" lon="-5.521026011556387">
        <ele>95.310000000000002</ele>
        <time>2023-08-29T09:03:18Z</time>
      </trkpt>
      <trkpt lat="56.876428993418813" lon="-5.521261962130666">
        <ele>94.349999999999994</ele>
        <time>2023-08-29T09:03:19Z</time>
      </trkpt>
      <trkpt lat="56.876479033380747" lon="-5.521530015394092">
        <ele>93.390000000000001</ele>
        <time>2023-08-29T09:03:20Z</time>
      </trkpt>
      <trkpt lat="56.876532007008791" lon="-5.521810976788402">
        <ele>92.900000000000006</ele>
        <time>2023-08-29T09:03:21Z</time>
      </trkpt>
      <trkpt lat="56.876736022531986" lon="-5.522501980885863">
        <ele>90.5</ele>
        <time>2023-08-29T09:03:24Z</time>
      </trkpt>
      <trkpt lat="56.876840963959694" lon="-5.522674983367324">
        <ele>89.540000000000006</ele>
        <time>2023-08-29T09:03:25Z</time>
      </trkpt>
      <trkpt lat="56.877176994457841" lon="-5.523231038823724">
        <ele>87.620000000000005</ele>
        <time>2023-08-29T09:03:28Z</time>
      </trkpt>
      <trkpt lat="56.877255029976368" lon="-5.523493979126215">
        <ele>86.659999999999997</ele>
        <time>2023-08-29T09:03:29Z</time>
      </trkpt>
      <trkpt lat="56.877326024696231" lon="-5.523749962449074">
        <ele>85.689999999999998</ele>
        <time>2023-08-29T09:03:30Z</time>
      </trkpt>
      <trkpt lat="56.877464996650815" lon="-5.52464397624135">
        <ele>82.810000000000002</ele>
        <time>2023-08-29T09:03:33Z</time>
      </trkpt>
      <trkpt lat="56.877509001642466" lon="-5.52496399730444">
        <ele>81.849999999999994</ele>
        <time>2023-08-29T09:03:34Z</time>
      </trkpt>
      <trkpt lat="56.877469019964337" lon="-5.52558702416718">
        <ele>79.450000000000003</ele>
        <time>2023-08-29T09:03:36Z</time>
      </trkpt>
      <trkpt lat="56.877245977520943" lon="-5.528955040499568">
        <ele>67.430000000000007</ele>
        <time>2023-08-29T09:03:45Z</time>
      </trkpt>
      <trkpt lat="56.877214964479208" lon="-5.529310014098883">
        <ele>66.469999999999999</ele>
        <time>2023-08-29T09:03:46Z</time>
      </trkpt>
      <trkpt lat="56.877113040536642" lon="-5.529975034296513">
        <ele>63.579999999999998</ele>
        <time>2023-08-29T09:03:48Z</time>
      </trkpt>
      <trkpt lat="56.877037016674876" lon="-5.530284997075796">
        <ele>62.140000000000001</ele>
        <time>2023-08-29T09:03:49Z</time>
      </trkpt>
      <trkpt lat="56.876950012519956" lon="-5.530606023967266">
        <ele>60.700000000000003</ele>
        <time>2023-08-29T09:03:50Z</time>
      </trkpt>
      <trkpt lat="56.876176027581096" lon="-5.533085977658629">
        <ele>48.68</ele>
        <time>2023-08-29T09:03:58Z</time>
      </trkpt>
      <trkpt lat="56.876092962920666" lon="-5.533375991508365">
        <ele>46.759999999999998</ele>
        <time>2023-08-29T09:03:59Z</time>
      </trkpt>
      <trkpt lat="56.876071002334356" lon="-5.533668017014861">
        <ele>45.32</ele>
        <time>2023-08-29T09:04:00Z</time>
      </trkpt>
      <trkpt lat="56.876048035919666" lon="-5.533969011157751">
        <ele>43.880000000000003</ele>
        <time>2023-08-29T09:04:01Z</time>
      </trkpt>
      <trkpt lat="56.876028003171086" lon="-5.534271011129022">
        <ele>42.439999999999998</ele>
        <time>2023-08-29T09:04:02Z</time>
      </trkpt>
      <trkpt lat="56.876021968200803" lon="-5.534575022757053">
        <ele>41.469999999999999</ele>
        <time>2023-08-29T09:04:03Z</time>
      </trkpt>
      <trkpt lat="56.87595197930932" lon="-5.536994962021709">
        <ele>36.670000000000002</ele>
        <time>2023-08-29T09:04:11Z</time>
      </trkpt>
      <trkpt lat="56.875934964045882" lon="-5.537287993356586">
        <ele>36.189999999999998</ele>
        <time>2023-08-29T09:04:12Z</time>
      </trkpt>
      <trkpt lat="56.87586598098278" lon="-5.537552023306489">
        <ele>36.189999999999998</ele>
        <time>2023-08-29T09:04:13Z</time>
      </trkpt>
      <trkpt lat="56.875786017626524" lon="-5.537819992750883">
        <ele>35.710000000000001</ele>
        <time>2023-08-29T09:04:14Z</time>
      </trkpt>
      <trkpt lat="56.875685015693307" lon="-5.538063989952207">
        <ele>35.229999999999997</ele>
        <time>2023-08-29T09:04:15Z</time>
      </trkpt>
      <trkpt lat="56.875580996274948" lon="-5.538313016295433">
        <ele>35.229999999999997</ele>
        <time>2023-08-29T09:04:16Z</time>
      </trkpt>
      <trkpt lat="56.875371029600501" lon="-5.538819031789899">
        <ele>34.740000000000002</ele>
        <time>2023-08-29T09:04:18Z</time>
      </trkpt>
      <trkpt lat="56.875297017395496" lon="-5.539098987355828">
        <ele>34.259999999999998</ele>
        <time>2023-08-29T09:04:19Z</time>
      </trkpt>
      <trkpt lat="56.874841963872313" lon="-5.541429994627833">
        <ele>32.340000000000003</ele>
        <time>2023-08-29T09:04:27Z</time>
      </trkpt>
      <trkpt lat="56.87483299523592" lon="-5.541708022356033">
        <ele>31.859999999999999</ele>
        <time>2023-08-29T09:04:28Z</time>
      </trkpt>
      <trkpt lat="56.87483299523592" lon="-5.541950007900596">
        <ele>31.379999999999999</ele>
        <time>2023-08-29T09:04:29Z</time>
      </trkpt>
      <trkpt lat="56.874884041026235" lon="-5.542166009545326">
        <ele>30.899999999999999</ele>
        <time>2023-08-29T09:04:30Z</time>
      </trkpt>
      <trkpt lat="56.874968027696013" lon="-5.542362984269857">
        <ele>30.420000000000002</ele>
        <time>2023-08-29T09:04:31Z</time>
      </trkpt>
      <trkpt lat="56.875058971345425" lon="-5.54256197065115">
        <ele>29.940000000000001</ele>
        <time>2023-08-29T09:04:32Z</time>
      </trkpt>
      <trkpt lat="56.875186040997505" lon="-5.542723992839456">
        <ele>28.98</ele>
        <time>2023-08-29T09:04:33Z</time>
      </trkpt>
      <trkpt lat="56.875339010730386" lon="-5.542822983115912">
        <ele>28.5</ele>
        <time>2023-08-29T09:04:34Z</time>
      </trkpt>
      <trkpt lat="56.875493992120028" lon="-5.542919961735606">
        <ele>28.02</ele>
        <time>2023-08-29T09:04:35Z</time>
      </trkpt>
      <trkpt lat="56.875646039843559" lon="-5.543026998639107">
        <ele>27.530000000000001</ele>
        <time>2023-08-29T09:04:36Z</time>
      </trkpt>
      <trkpt lat="56.876063039526343" lon="-5.543332016095519">
        <ele>26.57</ele>
        <time>2023-08-29T09:04:39Z</time>
      </trkpt>
      <trkpt lat="56.876175021752715" lon="-5.543490014970303">
        <ele>26.57</ele>
        <time>2023-08-29T09:04:40Z</time>
      </trkpt>
      <trkpt lat="56.876284992322326" lon="-5.543675003573299">
        <ele>26.09</ele>
        <time>2023-08-29T09:04:41Z</time>
      </trkpt>
      <trkpt lat="56.876413989812136" lon="-5.543889999389648">
        <ele>26.09</ele>
        <time>2023-08-29T09:04:42Z</time>
      </trkpt>
      <trkpt lat="56.876499988138676" lon="-5.544102983549237">
        <ele>25.609999999999999</ele>
        <time>2023-08-29T09:04:43Z</time>
      </trkpt>
      <trkpt lat="56.876997034996748" lon="-5.545363035053015">
        <ele>25.129999999999999</ele>
        <time>2023-08-29T09:04:48Z</time>
      </trkpt>
      <trkpt lat="56.877060988917947" lon="-5.545631004497409">
        <ele>25.129999999999999</ele>
        <time>2023-08-29T09:04:49Z</time>
      </trkpt>
      <trkpt lat="56.877123015001416" lon="-5.545885981991887">
        <ele>24.649999999999999</ele>
        <time>2023-08-29T09:04:50Z</time>
      </trkpt>
      <trkpt lat="56.877123015001416" lon="-5.546203991398215">
        <ele>24.649999999999999</ele>
        <time>2023-08-29T09:04:51Z</time>
      </trkpt>
      <trkpt lat="56.877123015001416" lon="-5.546500962227583">
        <ele>24.170000000000002</ele>
        <time>2023-08-29T09:04:52Z</time>
      </trkpt>
      <trkpt lat="56.877098036929965" lon="-5.546792987734079">
        <ele>24.170000000000002</ele>
        <time>2023-08-29T09:04:53Z</time>
      </trkpt>
      <trkpt lat="56.877063000574708" lon="-5.547075960785151">
        <ele>24.170000000000002</ele>
        <time>2023-08-29T09:04:54Z</time>
      </trkpt>
      <trkpt lat="56.877027964219451" lon="-5.547360023483634">
        <ele>24.170000000000002</ele>
        <time>2023-08-29T09:04:55Z</time>
      </trkpt>
      <trkpt lat="56.876994017511606" lon="-5.547640984877944">
        <ele>24.170000000000002</ele>
        <time>2023-08-29T09:04:56Z</time>
      </trkpt>
      <trkpt lat="56.876977002248168" lon="-5.547928987070918">
        <ele>24.170000000000002</ele>
        <time>2023-08-29T09:04:57Z</time>
      </trkpt>
      <trkpt lat="56.876989994198084" lon="-5.548214977607131">
        <ele>23.690000000000001</ele>
        <time>2023-08-29T09:04:58Z</time>
      </trkpt>
      <trkpt lat="56.877030981704593" lon="-5.548509014770389">
        <ele>23.690000000000001</ele>
        <time>2023-08-29T09:04:59Z</time>
      </trkpt>
      <trkpt lat="56.877133995294571" lon="-5.549101028591394">
        <ele>24.170000000000002</ele>
        <time>2023-08-29T09:05:01Z</time>
      </trkpt>
      <trkpt lat="56.877213036641479" lon="-5.549375033006072">
        <ele>24.649999999999999</ele>
        <time>2023-08-29T09:05:02Z</time>
      </trkpt>
      <trkpt lat="56.877291994169354" lon="-5.549647025763989">
        <ele>25.609999999999999</ele>
        <time>2023-08-29T09:05:03Z</time>
      </trkpt>
      <trkpt lat="56.877381009981036" lon="-5.549921030178666">
        <ele>26.09</ele>
        <time>2023-08-29T09:05:04Z</time>
      </trkpt>
      <trkpt lat="56.87749701552093" lon="-5.550153041258454">
        <ele>26.57</ele>
        <time>2023-08-29T09:05:05Z</time>
      </trkpt>
      <trkpt lat="56.877615032717586" lon="-5.550389997661114">
        <ele>27.050000000000001</ele>
        <time>2023-08-29T09:05:06Z</time>
      </trkpt>
      <trkpt lat="56.878282986581326" lon="-5.551809975877404">
        <ele>31.379999999999999</ele>
        <time>2023-08-29T09:05:12Z</time>
      </trkpt>
      <trkpt lat="56.878365967422724" lon="-5.552026983350515">
        <ele>32.340000000000003</ele>
        <time>2023-08-29T09:05:13Z</time>
      </trkpt>
      <trkpt lat="56.878418019041419" lon="-5.552281960844994">
        <ele>32.82</ele>
        <time>2023-08-29T09:05:14Z</time>
      </trkpt>
      <trkpt lat="56.878450959920883" lon="-5.552554959431291">
        <ele>33.299999999999997</ele>
        <time>2023-08-29T09:05:15Z</time>
      </trkpt>
      <trkpt lat="56.878440985456109" lon="-5.552833992987871">
        <ele>33.780000000000001</ele>
        <time>2023-08-29T09:05:16Z</time>
      </trkpt>
      <trkpt lat="56.878428999334574" lon="-5.553128030151129">
        <ele>34.259999999999998</ele>
        <time>2023-08-29T09:05:17Z</time>
      </trkpt>
      <trkpt lat="56.878417013213038" lon="-5.553442016243935">
        <ele>34.259999999999998</ele>
        <time>2023-08-29T09:05:18Z</time>
      </trkpt>
      <trkpt lat="56.878280974924564" lon="-5.555160976946354">
        <ele>31.859999999999999</ele>
        <time>2023-08-29T09:05:23Z</time>
      </trkpt>
      <trkpt lat="56.878280974924564" lon="-5.55551796220243">
        <ele>30.899999999999999</ele>
        <time>2023-08-29T09:05:24Z</time>
      </trkpt>
      <trkpt lat="56.878672996535897" lon="-5.558676011860371">
        <ele>26.09</ele>
        <time>2023-08-29T09:05:33Z</time>
      </trkpt>
      <trkpt lat="56.879112040624022" lon="-5.560580966994166">
        <ele>23.210000000000001</ele>
        <time>2023-08-29T09:05:39Z</time>
      </trkpt>
      <trkpt lat="56.879144981503487" lon="-5.561156971380115">
        <ele>22.25</ele>
        <time>2023-08-29T09:05:41Z</time>
      </trkpt>
      <trkpt lat="56.879127966240048" lon="-5.561453020200133">
        <ele>21.77</ele>
        <time>2023-08-29T09:05:42Z</time>
      </trkpt>
      <trkpt lat="56.879097959026694" lon="-5.562001029029489">
        <ele>21.289999999999999</ele>
        <time>2023-08-29T09:05:44Z</time>
      </trkpt>
      <trkpt lat="56.879083039239049" lon="-5.562268998473883">
        <ele>21.289999999999999</ele>
        <time>2023-08-29T09:05:45Z</time>
      </trkpt>
      <trkpt lat="56.879096031188965" lon="-5.56256303563714">
        <ele>21.289999999999999</ele>
        <time>2023-08-29T09:05:46Z</time>
      </trkpt>
      <trkpt lat="56.879134001210332" lon="-5.562846008688211">
        <ele>20.809999999999999</ele>
        <time>2023-08-29T09:05:47Z</time>
      </trkpt>
      <trkpt lat="56.87917398288846" lon="-5.563141973689199">
        <ele>20.32</ele>
        <time>2023-08-29T09:05:48Z</time>
      </trkpt>
      <trkpt lat="56.879457961767912" lon="-5.565319005399942">
        <ele>16.960000000000001</ele>
        <time>2023-08-29T09:05:55Z</time>
      </trkpt>
      <trkpt lat="56.879432983696461" lon="-5.565606001764536">
        <ele>16.960000000000001</ele>
        <time>2023-08-29T09:05:56Z</time>
      </trkpt>
      <trkpt lat="56.87940800562501" lon="-5.565892998129129">
        <ele>17.440000000000001</ele>
        <time>2023-08-29T09:05:57Z</time>
      </trkpt>
      <trkpt lat="56.87934597954154" lon="-5.566188041120768">
        <ele>17.440000000000001</ele>
        <time>2023-08-29T09:05:58Z</time>
      </trkpt>
      <trkpt lat="56.879267022013664" lon="-5.566462967544794">
        <ele>17.920000000000002</ele>
        <time>2023-08-29T09:05:59Z</time>
      </trkpt>
      <trkpt lat="56.878552967682481" lon="-5.569016011431813">
        <ele>19.84</ele>
        <time>2023-08-29T09:06:08Z</time>
      </trkpt>
      <trkpt lat="56.878392035141587" lon="-5.569835007190704">
        <ele>20.809999999999999</ele>
        <time>2023-08-29T09:06:11Z</time>
      </trkpt>
      <trkpt lat="56.878180978819728" lon="-5.572483018040657">
        <ele>22.25</ele>
        <time>2023-08-29T09:06:20Z</time>
      </trkpt>
      <trkpt lat="56.878273012116551" lon="-5.57590601965785">
        <ele>20.32</ele>
        <time>2023-08-29T09:06:31Z</time>
      </trkpt>
      <trkpt lat="56.878316011279821" lon="-5.577047970145941">
        <ele>20.32</ele>
        <time>2023-08-29T09:06:35Z</time>
      </trkpt>
      <trkpt lat="56.878362027928233" lon="-5.577304037287831">
        <ele>20.809999999999999</ele>
        <time>2023-08-29T09:06:36Z</time>
      </trkpt>
      <trkpt lat="56.878407038748264" lon="-5.577549962326884">
        <ele>20.809999999999999</ele>
        <time>2023-08-29T09:06:37Z</time>
      </trkpt>
      <trkpt lat="56.87846596352756" lon="-5.577780967578292">
        <ele>20.809999999999999</ele>
        <time>2023-08-29T09:06:38Z</time>
      </trkpt>
      <trkpt lat="56.878555985167623" lon="-5.577980037778616">
        <ele>20.809999999999999</ele>
        <time>2023-08-29T09:06:39Z</time>
      </trkpt>
      <trkpt lat="56.878662016242743" lon="-5.578138958662748">
        <ele>20.32</ele>
        <time>2023-08-29T09:06:40Z</time>
      </trkpt>
      <trkpt lat="56.878767963498831" lon="-5.578298969194293">
        <ele>20.32</ele>
        <time>2023-08-29T09:06:41Z</time>
      </trkpt>
      <trkpt lat="56.878895033150911" lon="-5.57842000387609">
        <ele>20.32</ele>
        <time>2023-08-29T09:06:42Z</time>
      </trkpt>
      <trkpt lat="56.879017995670438" lon="-5.578536009415984">
        <ele>20.32</ele>
        <time>2023-08-29T09:06:43Z</time>
      </trkpt>
      <trkpt lat="56.880322974175215" lon="-5.579525995999575">
        <ele>21.77</ele>
        <time>2023-08-29T09:06:52Z</time>
      </trkpt>
      <trkpt lat="56.880735028535128" lon="-5.579749960452318">
        <ele>21.77</ele>
        <time>2023-08-29T09:06:55Z</time>
      </trkpt>
      <trkpt lat="56.880864026024938" lon="-5.579849034547806">
        <ele>21.77</ele>
        <time>2023-08-29T09:06:56Z</time>
      </trkpt>
      <trkpt lat="56.881006015464664" lon="-5.579960010945797">
        <ele>21.77</ele>
        <time>2023-08-29T09:06:57Z</time>
      </trkpt>
      <trkpt lat="56.881101988255978" lon="-5.580104012042284">
        <ele>22.25</ele>
        <time>2023-08-29T09:06:58Z</time>
      </trkpt>
      <trkpt lat="56.881195027381182" lon="-5.580281959846616">
        <ele>22.25</ele>
        <time>2023-08-29T09:06:59Z</time>
      </trkpt>
      <trkpt lat="56.881252024322748" lon="-5.580494021996856">
        <ele>22.25</ele>
        <time>2023-08-29T09:07:00Z</time>
      </trkpt>
      <trkpt lat="56.881309021264315" lon="-5.580707006156445">
        <ele>22.25</ele>
        <time>2023-08-29T09:07:01Z</time>
      </trkpt>
      <trkpt lat="56.881350008770823" lon="-5.580941028892994">
        <ele>22.73</ele>
        <time>2023-08-29T09:07:02Z</time>
      </trkpt>
      <trkpt lat="56.881350008770823" lon="-5.581165999174118">
        <ele>22.73</ele>
        <time>2023-08-29T09:07:03Z</time>
      </trkpt>
      <trkpt lat="56.881350008770823" lon="-5.581378983333707">
        <ele>23.210000000000001</ele>
        <time>2023-08-29T09:07:04Z</time>
      </trkpt>
      <trkpt lat="56.881350008770823" lon="-5.581580987200141">
        <ele>23.210000000000001</ele>
        <time>2023-08-29T09:07:05Z</time>
      </trkpt>
      <trkpt lat="56.881308015435934" lon="-5.582668036222458">
        <ele>26.09</ele>
        <time>2023-08-29T09:07:10Z</time>
      </trkpt>
      <trkpt lat="56.881332993507385" lon="-5.582894012331963">
        <ele>26.57</ele>
        <time>2023-08-29T09:07:11Z</time>
      </trkpt>
      <trkpt lat="56.881360989063978" lon="-5.583120994269848">
        <ele>27.530000000000001</ele>
        <time>2023-08-29T09:07:12Z</time>
      </trkpt>
      <trkpt lat="56.881421003490686" lon="-5.583334984257817">
        <ele>28.5</ele>
        <time>2023-08-29T09:07:13Z</time>
      </trkpt>
      <trkpt lat="56.881499961018562" lon="-5.583546040579677">
        <ele>29.460000000000001</ele>
        <time>2023-08-29T09:07:14Z</time>
      </trkpt>
      <trkpt lat="56.881583025678992" lon="-5.583767993375659">
        <ele>29.460000000000001</ele>
        <time>2023-08-29T09:07:15Z</time>
      </trkpt>
      <trkpt lat="56.882149977609515" lon="-5.585163999348879">
        <ele>30.899999999999999</ele>
        <time>2023-08-29T09:07:21Z</time>
      </trkpt>
      <trkpt lat="56.882247040048242" lon="-5.585383018478751">
        <ele>30.899999999999999</ele>
        <time>2023-08-29T09:07:22Z</time>
      </trkpt>
      <trkpt lat="56.882721036672592" lon="-5.586623959243298">
        <ele>28.02</ele>
        <time>2023-08-29T09:07:27Z</time>
      </trkpt>
      <trkpt lat="56.882779961451888" lon="-5.586908021941781">
        <ele>27.530000000000001</ele>
        <time>2023-08-29T09:07:28Z</time>
      </trkpt>
      <trkpt lat="56.88327600248158" lon="-5.589681006968021">
        <ele>27.530000000000001</ele>
        <time>2023-08-29T09:07:37Z</time>
      </trkpt>
      <trkpt lat="56.883886959403753" lon="-5.59208401478827">
        <ele>24.170000000000002</ele>
        <time>2023-08-29T09:07:45Z</time>
      </trkpt>
      <trkpt lat="56.88441501930356" lon="-5.594379985705018">
        <ele>25.129999999999999</ele>
        <time>2023-08-29T09:07:53Z</time>
      </trkpt>
      <trkpt lat="56.884444020688534" lon="-5.594638986513019">
        <ele>25.609999999999999</ele>
        <time>2023-08-29T09:07:54Z</time>
      </trkpt>
      <trkpt lat="56.88445701263845" lon="-5.594910979270935">
        <ele>26.09</ele>
        <time>2023-08-29T09:07:55Z</time>
      </trkpt>
      <trkpt lat="56.884447038173676" lon="-5.595180038362742">
        <ele>26.09</ele>
        <time>2023-08-29T09:07:56Z</time>
      </trkpt>
      <trkpt lat="56.88443697988987" lon="-5.595450019463897">
        <ele>26.57</ele>
        <time>2023-08-29T09:07:57Z</time>
      </trkpt>
      <trkpt lat="56.884425999596715" lon="-5.595728969201446">
        <ele>26.09</ele>
        <time>2023-08-29T09:07:58Z</time>
      </trkpt>
      <trkpt lat="56.884404039010406" lon="-5.59631897136569">
        <ele>26.09</ele>
        <time>2023-08-29T09:08:00Z</time>
      </trkpt>
      <trkpt lat="56.884498000144958" lon="-5.598425008356571">
        <ele>27.050000000000001</ele>
        <time>2023-08-29T09:08:07Z</time>
      </trkpt>
      <trkpt lat="56.88448098488152" lon="-5.598718961700797">
        <ele>27.050000000000001</ele>
        <time>2023-08-29T09:08:08Z</time>
      </trkpt>
      <trkpt lat="56.884445026516914" lon="-5.599000006914139">
        <ele>27.530000000000001</ele>
        <time>2023-08-29T09:08:09Z</time>
      </trkpt>
      <trkpt lat="56.884409990161657" lon="-5.599275017157197">
        <ele>28.02</ele>
        <time>2023-08-29T09:08:10Z</time>
      </trkpt>
      <trkpt lat="56.884360034018755" lon="-5.599543992429972">
        <ele>28.02</ele>
        <time>2023-08-29T09:08:11Z</time>
      </trkpt>
      <trkpt lat="56.884219972416759" lon="-5.600173976272345">
        <ele>29.460000000000001</ele>
        <time>2023-08-29T09:08:13Z</time>
      </trkpt>
      <trkpt lat="56.884137997403741" lon="-5.600542025640607">
        <ele>29.940000000000001</ele>
        <time>2023-08-29T09:08:14Z</time>
      </trkpt>
      <trkpt lat="56.883819987997413" lon="-5.601933002471924">
        <ele>32.82</ele>
        <time>2023-08-29T09:08:18Z</time>
      </trkpt>
      <trkpt lat="56.883689984679222" lon="-5.602551000192761">
        <ele>33.780000000000001</ele>
        <time>2023-08-29T09:08:20Z</time>
      </trkpt>
      <trkpt lat="56.883651008829474" lon="-5.602883007377386">
        <ele>33.780000000000001</ele>
        <time>2023-08-29T09:08:21Z</time>
      </trkpt>
      <trkpt lat="56.883408017456532" lon="-5.605196999385953">
        <ele>34.259999999999998</ele>
        <time>2023-08-29T09:08:29Z</time>
      </trkpt>
      <trkpt lat="56.883252030238509" lon="-5.60744502581656">
        <ele>36.670000000000002</ele>
        <time>2023-08-29T09:08:38Z</time>
      </trkpt>
      <trkpt lat="56.883268039673567" lon="-5.607707966119051">
        <ele>36.670000000000002</ele>
        <time>2023-08-29T09:08:39Z</time>
      </trkpt>
      <trkpt lat="56.883541960269213" lon="-5.609934031963348">
        <ele>36.189999999999998</ele>
        <time>2023-08-29T09:08:47Z</time>
      </trkpt>
      <trkpt lat="56.883593006059527" lon="-5.610702987760305">
        <ele>36.189999999999998</ele>
        <time>2023-08-29T09:08:50Z</time>
      </trkpt>
      <trkpt lat="56.883584959432483" lon="-5.610965006053448">
        <ele>36.189999999999998</ele>
        <time>2023-08-29T09:08:51Z</time>
      </trkpt>
      <trkpt lat="56.883463002741337" lon="-5.612524962052703">
        <ele>35.710000000000001</ele>
        <time>2023-08-29T09:08:57Z</time>
      </trkpt>
      <trkpt lat="56.883458979427814" lon="-5.612796032801271">
        <ele>35.229999999999997</ele>
        <time>2023-08-29T09:08:58Z</time>
      </trkpt>
      <trkpt lat="56.88351103104651" lon="-5.613029971718788">
        <ele>35.229999999999997</ele>
        <time>2023-08-29T09:08:59Z</time>
      </trkpt>
      <trkpt lat="56.883562998846173" lon="-5.613263994455338">
        <ele>34.740000000000002</ele>
        <time>2023-08-29T09:09:00Z</time>
      </trkpt>
      <trkpt lat="56.883637011051178" lon="-5.613470021635294">
        <ele>34.740000000000002</ele>
        <time>2023-08-29T09:09:01Z</time>
      </trkpt>
      <trkpt lat="56.883724015206099" lon="-5.613660961389542">
        <ele>34.740000000000002</ele>
        <time>2023-08-29T09:09:02Z</time>
      </trkpt>
      <trkpt lat="56.88381596468389" lon="-5.613861037418246">
        <ele>34.740000000000002</ele>
        <time>2023-08-29T09:09:03Z</time>
      </trkpt>
      <trkpt lat="56.883911015465856" lon="-5.614069998264313">
        <ele>34.740000000000002</ele>
        <time>2023-08-29T09:09:04Z</time>
      </trkpt>
      <trkpt lat="56.884851967915893" lon="-5.616051983088255">
        <ele>33.780000000000001</ele>
        <time>2023-08-29T09:09:13Z</time>
      </trkpt>
      <trkpt lat="56.884919023141265" lon="-5.616295980289578">
        <ele>33.780000000000001</ele>
        <time>2023-08-29T09:09:14Z</time>
      </trkpt>
      <trkpt lat="56.884961016476154" lon="-5.616568978875876">
        <ele>33.780000000000001</ele>
        <time>2023-08-29T09:09:15Z</time>
      </trkpt>
      <trkpt lat="56.885003009811044" lon="-5.616843989118934">
        <ele>33.780000000000001</ele>
        <time>2023-08-29T09:09:16Z</time>
      </trkpt>
      <trkpt lat="56.885045003145933" lon="-5.617120005190373">
        <ele>33.780000000000001</ele>
        <time>2023-08-29T09:09:17Z</time>
      </trkpt>
      <trkpt lat="56.885065035894513" lon="-5.617396021261811">
        <ele>33.780000000000001</ele>
        <time>2023-08-29T09:09:18Z</time>
      </trkpt>
      <trkpt lat="56.885069981217384" lon="-5.617682011798024">
        <ele>33.780000000000001</ele>
        <time>2023-08-29T09:09:19Z</time>
      </trkpt>
      <trkpt lat="56.885104011744261" lon="-5.620215022936463">
        <ele>35.710000000000001</ele>
        <time>2023-08-29T09:09:28Z</time>
      </trkpt>
      <trkpt lat="56.884811986237764" lon="-5.622069016098976">
        <ele>34.259999999999998</ele>
        <time>2023-08-29T09:09:35Z</time>
      </trkpt>
      <trkpt lat="56.884129028767347" lon="-5.625729979947209">
        <ele>36.670000000000002</ele>
        <time>2023-08-29T09:09:47Z</time>
      </trkpt>
      <trkpt lat="56.884021991863847" lon="-5.626541012898088">
        <ele>38.109999999999999</ele>
        <time>2023-08-29T09:09:50Z</time>
      </trkpt>
      <trkpt lat="56.884001037105918" lon="-5.626824991777539">
        <ele>38.109999999999999</ele>
        <time>2023-08-29T09:09:51Z</time>
      </trkpt>
      <trkpt lat="56.883978992700577" lon="-5.627108970656991">
        <ele>38.109999999999999</ele>
        <time>2023-08-29T09:09:52Z</time>
      </trkpt>
      <trkpt lat="56.883929958567023" lon="-5.62762001529336">
        <ele>38.109999999999999</ele>
        <time>2023-08-29T09:09:54Z</time>
      </trkpt>
      <trkpt lat="56.883904980495572" lon="-5.627859989181161">
        <ele>38.109999999999999</ele>
        <time>2023-08-29T09:09:55Z</time>
      </trkpt>
      <trkpt lat="56.883839014917612" lon="-5.62807297334075">
        <ele>38.109999999999999</ele>
        <time>2023-08-29T09:09:56Z</time>
      </trkpt>
      <trkpt lat="56.883274996653199" lon="-5.629847003147006">
        <ele>38.109999999999999</ele>
        <time>2023-08-29T09:10:04Z</time>
      </trkpt>
      <trkpt lat="56.883260998874903" lon="-5.630064010620117">
        <ele>38.109999999999999</ele>
        <time>2023-08-29T09:10:05Z</time>
      </trkpt>
      <trkpt lat="56.883269967511296" lon="-5.63026299700141">
        <ele>38.109999999999999</ele>
        <time>2023-08-29T09:10:06Z</time>
      </trkpt>
      <trkpt lat="56.883279019966722" lon="-5.630447985604405">
        <ele>38.109999999999999</ele>
        <time>2023-08-29T09:10:07Z</time>
      </trkpt>
      <trkpt lat="56.883329981938004" lon="-5.630612019449472">
        <ele>38.109999999999999</ele>
        <time>2023-08-29T09:10:08Z</time>
      </trkpt>
      <trkpt lat="56.883392008021474" lon="-5.630761971697211">
        <ele>38.109999999999999</ele>
        <time>2023-08-29T09:10:09Z</time>
      </trkpt>
      <trkpt lat="56.88347197137773" lon="-5.630898009985685">
        <ele>38.109999999999999</ele>
        <time>2023-08-29T09:10:10Z</time>
      </trkpt>
      <trkpt lat="56.883575990796089" lon="-5.631003035232425">
        <ele>37.630000000000003</ele>
        <time>2023-08-29T09:10:11Z</time>
      </trkpt>
      <trkpt lat="56.883689984679222" lon="-5.631047040224075">
        <ele>37.630000000000003</ele>
        <time>2023-08-29T09:10:12Z</time>
      </trkpt>
      <trkpt lat="56.883816970512271" lon="-5.631073024123907">
        <ele>37.630000000000003</ele>
        <time>2023-08-29T09:10:13Z</time>
      </trkpt>
      <trkpt lat="56.8839449621737" lon="-5.631045028567314">
        <ele>37.630000000000003</ele>
        <time>2023-08-29T09:10:14Z</time>
      </trkpt>
      <trkpt lat="56.884074965491891" lon="-5.631017033010721">
        <ele>37.630000000000003</ele>
        <time>2023-08-29T09:10:15Z</time>
      </trkpt>
      <trkpt lat="56.884202035143971" lon="-5.630989037454128">
        <ele>37.630000000000003</ele>
        <time>2023-08-29T09:10:16Z</time>
      </trkpt>
      <trkpt lat="56.884671002626419" lon="-5.630887029692531">
        <ele>38.109999999999999</ele>
        <time>2023-08-29T09:10:20Z</time>
      </trkpt>
      <trkpt lat="56.884767981246114" lon="-5.63086599111557">
        <ele>38.109999999999999</ele>
        <time>2023-08-29T09:10:21Z</time>
      </trkpt>
      <trkpt lat="56.884869989007711" lon="-5.630893986672163">
        <ele>38.590000000000003</ele>
        <time>2023-08-29T09:10:22Z</time>
      </trkpt>
      <trkpt lat="56.884962022304535" lon="-5.630944026634097">
        <ele>39.07</ele>
        <time>2023-08-29T09:10:23Z</time>
      </trkpt>
      <trkpt lat="56.885055983439088" lon="-5.631021978333592">
        <ele>39.549999999999997</ele>
        <time>2023-08-29T09:10:24Z</time>
      </trkpt>
      <trkpt lat="56.885114992037416" lon="-5.631151981651783">
        <ele>39.07</ele>
        <time>2023-08-29T09:10:25Z</time>
      </trkpt>
      <trkpt lat="56.88516897149384" lon="-5.631311992183328">
        <ele>39.07</ele>
        <time>2023-08-29T09:10:26Z</time>
      </trkpt>
      <trkpt lat="56.88521197065711" lon="-5.631493963301182">
        <ele>38.109999999999999</ele>
        <time>2023-08-29T09:10:27Z</time>
      </trkpt>
      <trkpt lat="56.885609021410346" lon="-5.633058026432991">
        <ele>30.899999999999999</ele>
        <time>2023-08-29T09:10:33Z</time>
      </trkpt>
      <trkpt lat="56.886121993884444" lon="-5.63512098044157">
        <ele>22.73</ele>
        <time>2023-08-29T09:10:39Z</time>
      </trkpt>
      <trkpt lat="56.886791959404945" lon="-5.636550011113286">
        <ele>16.960000000000001</ele>
        <time>2023-08-29T09:10:46Z</time>
      </trkpt>
      <trkpt lat="56.886962028220296" lon="-5.63694597221911">
        <ele>16</ele>
        <time>2023-08-29T09:10:48Z</time>
      </trkpt>
      <trkpt lat="56.887018019333482" lon="-5.637151999399066">
        <ele>15.52</ele>
        <time>2023-08-29T09:10:49Z</time>
      </trkpt>
      <trkpt lat="56.887065041810274" lon="-5.637358026579022">
        <ele>16</ele>
        <time>2023-08-29T09:10:50Z</time>
      </trkpt>
      <trkpt lat="56.887090019881725" lon="-5.63756899908185">
        <ele>16</ele>
        <time>2023-08-29T09:10:51Z</time>
      </trkpt>
      <trkpt lat="56.887122038751841" lon="-5.637832023203373">
        <ele>16.48</ele>
        <time>2023-08-29T09:10:52Z</time>
      </trkpt>
      <trkpt lat="56.887108962982893" lon="-5.638017011806369">
        <ele>16.48</ele>
        <time>2023-08-29T09:10:53Z</time>
      </trkpt>
      <trkpt lat="56.887084990739822" lon="-5.638240976259112">
        <ele>17.440000000000001</ele>
        <time>2023-08-29T09:10:54Z</time>
      </trkpt>
      <trkpt lat="56.887051966041327" lon="-5.638467036187649">
        <ele>18.399999999999999</ele>
        <time>2023-08-29T09:10:55Z</time>
      </trkpt>
      <trkpt lat="56.886916011571884" lon="-5.639404971152544">
        <ele>20.809999999999999</ele>
        <time>2023-08-29T09:10:59Z</time>
      </trkpt>
      <trkpt lat="56.886608982458711" lon="-5.641954997554421">
        <ele>28.5</ele>
        <time>2023-08-29T09:11:09Z</time>
      </trkpt>
      <trkpt lat="56.886231964454055" lon="-5.644454983994365">
        <ele>29.940000000000001</ele>
        <time>2023-08-29T09:11:17Z</time>
      </trkpt>
      <trkpt lat="56.885900041088462" lon="-5.647094026207924">
        <ele>31.859999999999999</ele>
        <time>2023-08-29T09:11:26Z</time>
      </trkpt>
      <trkpt lat="56.885556969791651" lon="-5.649633994325995">
        <ele>34.740000000000002</ele>
        <time>2023-08-29T09:11:35Z</time>
      </trkpt>
      <trkpt lat="56.884897984564304" lon="-5.652243029326201">
        <ele>31.379999999999999</ele>
        <time>2023-08-29T09:11:44Z</time>
      </trkpt>
      <trkpt lat="56.884438991546631" lon="-5.6541149597615">
        <ele>28.98</ele>
        <time>2023-08-29T09:11:50Z</time>
      </trkpt>
      <trkpt lat="56.883624019101262" lon="-5.656039025634527">
        <ele>27.050000000000001</ele>
        <time>2023-08-29T09:11:58Z</time>
      </trkpt>
      <trkpt lat="56.883034016937017" lon="-5.657453974708915">
        <ele>27.050000000000001</ele>
        <time>2023-08-29T09:12:04Z</time>
      </trkpt>
      <trkpt lat="56.882965033873916" lon="-5.657703001052141">
        <ele>27.050000000000001</ele>
        <time>2023-08-29T09:12:05Z</time>
      </trkpt>
      <trkpt lat="56.882894961163402" lon="-5.657958984375">
        <ele>27.530000000000001</ele>
        <time>2023-08-29T09:12:06Z</time>
      </trkpt>
      <trkpt lat="56.882528001442552" lon="-5.66012897528708">
        <ele>29.940000000000001</ele>
        <time>2023-08-29T09:12:14Z</time>
      </trkpt>
      <trkpt lat="56.88220102339983" lon="-5.661851037293673">
        <ele>29.460000000000001</ele>
        <time>2023-08-29T09:12:21Z</time>
      </trkpt>
      <trkpt lat="56.88213799148798" lon="-5.662052035331726">
        <ele>29.460000000000001</ele>
        <time>2023-08-29T09:12:22Z</time>
      </trkpt>
      <trkpt lat="56.882058028131723" lon="-5.662228977307677">
        <ele>28.98</ele>
        <time>2023-08-29T09:12:23Z</time>
      </trkpt>
      <trkpt lat="56.881941016763449" lon="-5.662372978404164">
        <ele>29.460000000000001</ele>
        <time>2023-08-29T09:12:24Z</time>
      </trkpt>
      <trkpt lat="56.881824005395174" lon="-5.662518991157413">
        <ele>29.460000000000001</ele>
        <time>2023-08-29T09:12:25Z</time>
      </trkpt>
      <trkpt lat="56.880733016878366" lon="-5.663334969431162">
        <ele>30.899999999999999</ele>
        <time>2023-08-29T09:12:33Z</time>
      </trkpt>
      <trkpt lat="56.879754010587931" lon="-5.664111971855164">
        <ele>29.940000000000001</ele>
        <time>2023-08-29T09:12:41Z</time>
      </trkpt>
      <trkpt lat="56.879657031968236" lon="-5.664237029850483">
        <ele>29.460000000000001</ele>
        <time>2023-08-29T09:12:42Z</time>
      </trkpt>
      <trkpt lat="56.879470031708479" lon="-5.664552021771669">
        <ele>28.98</ele>
        <time>2023-08-29T09:12:44Z</time>
      </trkpt>
      <trkpt lat="56.879375986754894" lon="-5.664714965969324">
        <ele>28.98</ele>
        <time>2023-08-29T09:12:45Z</time>
      </trkpt>
      <trkpt lat="56.879070969298482" lon="-5.665246965363622">
        <ele>28.5</ele>
        <time>2023-08-29T09:12:49Z</time>
      </trkpt>
      <trkpt lat="56.878987988457084" lon="-5.665391972288489">
        <ele>28.5</ele>
        <time>2023-08-29T09:12:52Z</time>
      </trkpt>
      <trkpt lat="56.87897901982069" lon="-5.665406975895166">
        <ele>28.02</ele>
        <time>2023-08-29T09:12:53Z</time>
      </trkpt>
      <trkpt lat="56.878882041200995" lon="-5.665257023647428">
        <ele>28.02</ele>
        <time>2023-08-29T09:13:02Z</time>
      </trkpt>
      <trkpt lat="56.878885980695486" lon="-5.665205977857113">
        <ele>27.530000000000001</ele>
        <time>2023-08-29T09:13:05Z</time>
      </trkpt>
      <trkpt lat="56.878981031477451" lon="-5.665387026965618">
        <ele>55.409999999999997</ele>
        <time>2023-08-29T09:20:34Z</time>
      </trkpt>
      <trkpt lat="56.878867037594318" lon="-5.665255011990666">
        <ele>22.25</ele>
        <time>2023-08-29T09:21:06Z</time>
      </trkpt>
      <trkpt lat="56.878822026774287" lon="-5.665283007547259">
        <ele>25.129999999999999</ele>
        <time>2023-08-29T09:21:43Z</time>
      </trkpt>
      <trkpt lat="56.8788299895823" lon="-5.665251994505525">
        <ele>24.649999999999999</ele>
        <time>2023-08-29T09:21:45Z</time>
      </trkpt>
      <trkpt lat="56.878974996507168" lon="-5.665415022522211">
        <ele>24.649999999999999</ele>
        <time>2023-08-29T09:21:47Z</time>
      </trkpt>
      <trkpt lat="56.878991005942225" lon="-5.665386021137238">
        <ele>24.649999999999999</ele>
        <time>2023-08-29T09:21:48Z</time>
      </trkpt>
      <trkpt lat="56.878965022042394" lon="-5.665432037785649">
        <ele>23.690000000000001</ele>
        <time>2023-08-29T09:21:55Z</time>
      </trkpt>
      <trkpt lat="56.878938032314181" lon="-5.665485011413693">
        <ele>23.690000000000001</ele>
        <time>2023-08-29T09:21:56Z</time>
      </trkpt>
      <trkpt lat="56.878538969904184" lon="-5.66625103354454">
        <ele>24.170000000000002</ele>
        <time>2023-08-29T09:22:03Z</time>
      </trkpt>
      <trkpt lat="56.878045024350286" lon="-5.667593982070684">
        <ele>25.129999999999999</ele>
        <time>2023-08-29T09:22:10Z</time>
      </trkpt>
      <trkpt lat="56.877747969701886" lon="-5.669935969635844">
        <ele>24.649999999999999</ele>
        <time>2023-08-29T09:22:18Z</time>
      </trkpt>
      <trkpt lat="56.878007976338267" lon="-5.672571994364262">
        <ele>21.77</ele>
        <time>2023-08-29T09:22:26Z</time>
      </trkpt>
      <trkpt lat="56.878448026254773" lon="-5.67398501560092">
        <ele>19.84</ele>
        <time>2023-08-29T09:22:31Z</time>
      </trkpt>
      <trkpt lat="56.878862008452415" lon="-5.674905013293028">
        <ele>16.960000000000001</ele>
        <time>2023-08-29T09:22:37Z</time>
      </trkpt>
      <trkpt lat="56.879068035632372" lon="-5.67533902823925">
        <ele>14.08</ele>
        <time>2023-08-29T09:22:42Z</time>
      </trkpt>
      <trkpt lat="56.87910701148212" lon="-5.675422009080648">
        <ele>11.67</ele>
        <time>2023-08-29T09:22:50Z</time>
      </trkpt>
      <trkpt lat="56.87910701148212" lon="-5.675422009080648">
        <ele>11.19</ele>
        <time>2023-08-29T09:23:37Z</time>
      </trkpt>
      <trkpt lat="56.879186974838376" lon="-5.675589982420206">
        <ele>9.27</ele>
        <time>2023-08-29T09:24:18Z</time>
      </trkpt>
      <trkpt lat="56.879639010876417" lon="-5.676540993154049">
        <ele>5.42</ele>
        <time>2023-08-29T09:24:25Z</time>
      </trkpt>
      <trkpt lat="56.880148965865374" lon="-5.678244028240442">
        <ele>2.54</ele>
        <time>2023-08-29T09:24:33Z</time>
      </trkpt>
      <trkpt lat="56.880382988601923" lon="-5.680750971660018">
        <ele>4.94</ele>
        <time>2023-08-29T09:24:42Z</time>
      </trkpt>
      <trkpt lat="56.880455994978547" lon="-5.684863971546292">
        <ele>16</ele>
        <time>2023-08-29T09:24:55Z</time>
      </trkpt>
      <trkpt lat="56.880553979426622" lon="-5.68908803164959">
        <ele>28.02</ele>
        <time>2023-08-29T09:25:08Z</time>
      </trkpt>
      <trkpt lat="56.880935020744801" lon="-5.691228015348315">
        <ele>34.259999999999998</ele>
        <time>2023-08-29T09:25:15Z</time>
      </trkpt>
      <trkpt lat="56.881974963471293" lon="-5.694423029199243">
        <ele>45.32</ele>
        <time>2023-08-29T09:25:26Z</time>
      </trkpt>
      <trkpt lat="56.883173994719982" lon="-5.697950972244144">
        <ele>51.57</ele>
        <time>2023-08-29T09:25:38Z</time>
      </trkpt>
      <trkpt lat="56.884244028478861" lon="-5.699755009263754">
        <ele>56.859999999999999</ele>
        <time>2023-08-29T09:25:46Z</time>
      </trkpt>
      <trkpt lat="56.885728966444731" lon="-5.702488012611866">
        <ele>70.790000000000006</ele>
        <time>2023-08-29T09:25:58Z</time>
      </trkpt>
      <trkpt lat="56.885797027498484" lon="-5.702785989269614">
        <ele>71.269999999999996</ele>
        <time>2023-08-29T09:25:59Z</time>
      </trkpt>
      <trkpt lat="56.88585301861167" lon="-5.70309896953404">
        <ele>71.760000000000005</ele>
        <time>2023-08-29T09:26:00Z</time>
      </trkpt>
      <trkpt lat="56.885910015553236" lon="-5.703418990597129">
        <ele>72.239999999999995</ele>
        <time>2023-08-29T09:26:01Z</time>
      </trkpt>
      <trkpt lat="56.885954020544887" lon="-5.703746974468231">
        <ele>71.760000000000005</ele>
        <time>2023-08-29T09:26:02Z</time>
      </trkpt>
      <trkpt lat="56.886302959173918" lon="-5.706129027530551">
        <ele>68.870000000000005</ele>
        <time>2023-08-29T09:26:09Z</time>
      </trkpt>
      <trkpt lat="56.886390969157219" lon="-5.706424992531538">
        <ele>67.430000000000007</ele>
        <time>2023-08-29T09:26:10Z</time>
      </trkpt>
      <trkpt lat="56.886488031595945" lon="-5.706701008602977">
        <ele>66.469999999999999</ele>
        <time>2023-08-29T09:26:11Z</time>
      </trkpt>
      <trkpt lat="56.886615017428994" lon="-5.706925978884101">
        <ele>65.030000000000001</ele>
        <time>2023-08-29T09:26:12Z</time>
      </trkpt>
      <trkpt lat="56.886735968291759" lon="-5.70713996887207">
        <ele>64.069999999999993</ele>
        <time>2023-08-29T09:26:13Z</time>
      </trkpt>
      <trkpt lat="56.886878963559866" lon="-5.707325041294098">
        <ele>62.619999999999997</ele>
        <time>2023-08-29T09:26:14Z</time>
      </trkpt>
      <trkpt lat="56.886878963559866" lon="-5.707325041294098">
        <ele>61.659999999999997</ele>
        <time>2023-08-29T09:26:15Z</time>
      </trkpt>
      <trkpt lat="56.887178029865026" lon="-5.70761002600193">
        <ele>60.219999999999999</ele>
        <time>2023-08-29T09:26:16Z</time>
      </trkpt>
      <trkpt lat="56.887343991547823" lon="-5.707708010450006">
        <ele>59.259999999999998</ele>
        <time>2023-08-29T09:26:17Z</time>
      </trkpt>
      <trkpt lat="56.887514982372522" lon="-5.707771964371204">
        <ele>57.82</ele>
        <time>2023-08-29T09:26:18Z</time>
      </trkpt>
      <trkpt lat="56.887697037309408" lon="-5.707820998504758">
        <ele>56.369999999999997</ele>
        <time>2023-08-29T09:26:19Z</time>
      </trkpt>
      <trkpt lat="56.889579026028514" lon="-5.708374036476016">
        <ele>43.399999999999999</ele>
        <time>2023-08-29T09:26:29Z</time>
      </trkpt>
      <trkpt lat="56.889914972707629" lon="-5.708590960130096">
        <ele>41.950000000000003</ele>
        <time>2023-08-29T09:26:31Z</time>
      </trkpt>
      <trkpt lat="56.890084035694599" lon="-5.708714006468654">
        <ele>41.469999999999999</ele>
        <time>2023-08-29T09:26:32Z</time>
      </trkpt>
      <trkpt lat="56.890228036791086" lon="-5.708902012556791">
        <ele>40.990000000000002</ele>
        <time>2023-08-29T09:26:33Z</time>
      </trkpt>
      <trkpt lat="56.890371032059193" lon="-5.709088006988168">
        <ele>40.509999999999998</ele>
        <time>2023-08-29T09:26:34Z</time>
      </trkpt>
      <trkpt lat="56.890514027327299" lon="-5.709275007247925">
        <ele>40.030000000000001</ele>
        <time>2023-08-29T09:26:35Z</time>
      </trkpt>
      <trkpt lat="56.890642018988729" lon="-5.70952101610601">
        <ele>40.030000000000001</ele>
        <time>2023-08-29T09:26:36Z</time>
      </trkpt>
      <trkpt lat="56.890757018700242" lon="-5.709774987772107">
        <ele>40.030000000000001</ele>
        <time>2023-08-29T09:26:37Z</time>
      </trkpt>
      <trkpt lat="56.890874030068517" lon="-5.710033988580108">
        <ele>40.030000000000001</ele>
        <time>2023-08-29T09:26:38Z</time>
      </trkpt>
      <trkpt lat="56.890987018123269" lon="-5.710324002429843">
        <ele>40.509999999999998</ele>
        <time>2023-08-29T09:26:39Z</time>
      </trkpt>
      <trkpt lat="56.891067987307906" lon="-5.710632959380746">
        <ele>40.990000000000002</ele>
        <time>2023-08-29T09:26:40Z</time>
      </trkpt>
      <trkpt lat="56.891151973977685" lon="-5.710953986272216">
        <ele>41.950000000000003</ele>
        <time>2023-08-29T09:26:41Z</time>
      </trkpt>
      <trkpt lat="56.891471995040774" lon="-5.713590011000633">
        <ele>47.240000000000002</ele>
        <time>2023-08-29T09:26:48Z</time>
      </trkpt>
      <trkpt lat="56.891900980845094" lon="-5.717353988438845">
        <ele>38.590000000000003</ele>
        <time>2023-08-29T09:26:58Z</time>
      </trkpt>
      <trkpt lat="56.89199997112155" lon="-5.717703010886908">
        <ele>36.670000000000002</ele>
        <time>2023-08-29T09:26:59Z</time>
      </trkpt>
      <trkpt lat="56.892663985490799" lon="-5.720156980678439">
        <ele>23.690000000000001</ele>
        <time>2023-08-29T09:27:06Z</time>
      </trkpt>
      <trkpt lat="56.892716037109494" lon="-5.720512038096786">
        <ele>21.77</ele>
        <time>2023-08-29T09:27:07Z</time>
      </trkpt>
      <trkpt lat="56.892744032666087" lon="-5.720871035009623">
        <ele>19.84</ele>
        <time>2023-08-29T09:27:08Z</time>
      </trkpt>
      <trkpt lat="56.892744032666087" lon="-5.721236988902092">
        <ele>18.399999999999999</ele>
        <time>2023-08-29T09:27:09Z</time>
      </trkpt>
      <trkpt lat="56.892735986039042" lon="-5.72159699164331">
        <ele>16.960000000000001</ele>
        <time>2023-08-29T09:27:10Z</time>
      </trkpt>
      <trkpt lat="56.892727017402649" lon="-5.721952971071005">
        <ele>15.039999999999999</ele>
        <time>2023-08-29T09:27:11Z</time>
      </trkpt>
      <trkpt lat="56.892703967168927" lon="-5.722287995740771">
        <ele>13.6</ele>
        <time>2023-08-29T09:27:12Z</time>
      </trkpt>
      <trkpt lat="56.892653005197644" lon="-5.72262603789568">
        <ele>12.630000000000001</ele>
        <time>2023-08-29T09:27:13Z</time>
      </trkpt>
      <trkpt lat="56.892596008256078" lon="-5.722958967089653">
        <ele>11.19</ele>
        <time>2023-08-29T09:27:14Z</time>
      </trkpt>
      <trkpt lat="56.892242040485144" lon="-5.724929971620441">
        <ele>5.91</ele>
        <time>2023-08-29T09:27:20Z</time>
      </trkpt>
      <trkpt lat="56.89221303910017" lon="-5.725248986855149">
        <ele>5.91</ele>
        <time>2023-08-29T09:27:21Z</time>
      </trkpt>
      <trkpt lat="56.892185965552926" lon="-5.725576970726252">
        <ele>5.42</ele>
        <time>2023-08-29T09:27:22Z</time>
      </trkpt>
      <trkpt lat="56.892194012179971" lon="-5.725905960425735">
        <ele>5.91</ele>
        <time>2023-08-29T09:27:23Z</time>
      </trkpt>
      <trkpt lat="56.892200969159603" lon="-5.726242996752262">
        <ele>6.39</ele>
        <time>2023-08-29T09:27:24Z</time>
      </trkpt>
      <trkpt lat="56.892501041293144" lon="-5.729483021423221">
        <ele>4.94</ele>
        <time>2023-08-29T09:27:34Z</time>
      </trkpt>
      <trkpt lat="56.892588967457414" lon="-5.730349039658904">
        <ele>3.98</ele>
        <time>2023-08-29T09:27:37Z</time>
      </trkpt>
      <trkpt lat="56.892702961340547" lon="-5.73145997710526">
        <ele>4.46</ele>
        <time>2023-08-29T09:27:41Z</time>
      </trkpt>
      <trkpt lat="56.892753001302481" lon="-5.731710009276867">
        <ele>4.94</ele>
        <time>2023-08-29T09:27:42Z</time>
      </trkpt>
      <trkpt lat="56.892846962437034" lon="-5.731912013143301">
        <ele>5.42</ele>
        <time>2023-08-29T09:27:43Z</time>
      </trkpt>
      <trkpt lat="56.892943019047379" lon="-5.732118040323257">
        <ele>5.42</ele>
        <time>2023-08-29T09:27:44Z</time>
      </trkpt>
      <trkpt lat="56.893047038465738" lon="-5.73231803253293">
        <ele>5.42</ele>
        <time>2023-08-29T09:27:45Z</time>
      </trkpt>
      <trkpt lat="56.8931819871068" lon="-5.73248902335763">
        <ele>5.42</ele>
        <time>2023-08-29T09:27:46Z</time>
      </trkpt>
      <trkpt lat="56.893320959061384" lon="-5.732664037495852">
        <ele>5.42</ele>
        <time>2023-08-29T09:27:47Z</time>
      </trkpt>
      <trkpt lat="56.893462026491761" lon="-5.732840979471803">
        <ele>5.42</ele>
        <time>2023-08-29T09:27:48Z</time>
      </trkpt>
      <trkpt lat="56.893603010103106" lon="-5.733018005266786">
        <ele>5.42</ele>
        <time>2023-08-29T09:27:49Z</time>
      </trkpt>
      <trkpt lat="56.89509398303926" lon="-5.734347039833665">
        <ele>5.91</ele>
        <time>2023-08-29T09:27:59Z</time>
      </trkpt>
      <trkpt lat="56.89552104100585" lon="-5.734827993437648">
        <ele>5.42</ele>
        <time>2023-08-29T09:28:02Z</time>
      </trkpt>
      <trkpt lat="56.89565003849566" lon="-5.735017005354166">
        <ele>5.42</ele>
        <time>2023-08-29T09:28:03Z</time>
      </trkpt>
      <trkpt lat="56.895767971873283" lon="-5.735225966200233">
        <ele>5.42</ele>
        <time>2023-08-29T09:28:04Z</time>
      </trkpt>
      <trkpt lat="56.895880959928036" lon="-5.735451020300388">
        <ele>5.42</ele>
        <time>2023-08-29T09:28:05Z</time>
      </trkpt>
      <trkpt lat="56.895989002659917" lon="-5.735673978924751">
        <ele>4.94</ele>
        <time>2023-08-29T09:28:06Z</time>
      </trkpt>
      <trkpt lat="56.896070977672935" lon="-5.735931973904371">
        <ele>4.94</ele>
        <time>2023-08-29T09:28:07Z</time>
      </trkpt>
      <trkpt lat="56.896153036504984" lon="-5.736192986369133">
        <ele>4.94</ele>
        <time>2023-08-29T09:28:08Z</time>
      </trkpt>
      <trkpt lat="56.896240962669253" lon="-5.736473025754094">
        <ele>5.42</ele>
        <time>2023-08-29T09:28:09Z</time>
      </trkpt>
      <trkpt lat="56.896352022886276" lon="-5.737061016261578">
        <ele>5.91</ele>
        <time>2023-08-29T09:28:11Z</time>
      </trkpt>
      <trkpt lat="56.896369960159063" lon="-5.737380031496286">
        <ele>5.91</ele>
        <time>2023-08-29T09:28:12Z</time>
      </trkpt>
      <trkpt lat="56.896387981250882" lon="-5.737707009539008">
        <ele>5.91</ele>
        <time>2023-08-29T09:28:13Z</time>
      </trkpt>
      <trkpt lat="56.89638203009963" lon="-5.738038010895252">
        <ele>5.91</ele>
        <time>2023-08-29T09:28:14Z</time>
      </trkpt>
      <trkpt lat="56.896369038149714" lon="-5.738374963402748">
        <ele>5.91</ele>
        <time>2023-08-29T09:28:15Z</time>
      </trkpt>
      <trkpt lat="56.896356968209147" lon="-5.738709988072515">
        <ele>5.91</ele>
        <time>2023-08-29T09:28:16Z</time>
      </trkpt>
      <trkpt lat="56.896331990137696" lon="-5.739038977771998">
        <ele>5.91</ele>
        <time>2023-08-29T09:28:17Z</time>
      </trkpt>
      <trkpt lat="56.896278010681272" lon="-5.739354975521565">
        <ele>5.91</ele>
        <time>2023-08-29T09:28:18Z</time>
      </trkpt>
      <trkpt lat="56.895663030445576" lon="-5.742950979620218">
        <ele>8.310000000000001</ele>
        <time>2023-08-29T09:28:29Z</time>
      </trkpt>
      <trkpt lat="56.895348960533738" lon="-5.74641396291554">
        <ele>10.23</ele>
        <time>2023-08-29T09:28:39Z</time>
      </trkpt>
      <trkpt lat="56.895042015239596" lon="-5.749658010900021">
        <ele>11.19</ele>
        <time>2023-08-29T09:28:49Z</time>
      </trkpt>
      <trkpt lat="56.894327038899064" lon="-5.752582037821412">
        <ele>12.15</ele>
        <time>2023-08-29T09:28:58Z</time>
      </trkpt>
      <trkpt lat="56.893659001216292" lon="-5.754575002938509">
        <ele>12.15</ele>
        <time>2023-08-29T09:29:05Z</time>
      </trkpt>
      <trkpt lat="56.893579959869385" lon="-5.754863005131483">
        <ele>12.15</ele>
        <time>2023-08-29T09:29:06Z</time>
      </trkpt>
      <trkpt lat="56.893547018989921" lon="-5.755163999274373">
        <ele>12.15</ele>
        <time>2023-08-29T09:29:07Z</time>
      </trkpt>
      <trkpt lat="56.893516005948186" lon="-5.755441021174192">
        <ele>12.630000000000001</ele>
        <time>2023-08-29T09:29:08Z</time>
      </trkpt>
      <trkpt lat="56.893545007333159" lon="-5.755783002823591">
        <ele>12.630000000000001</ele>
        <time>2023-08-29T09:29:09Z</time>
      </trkpt>
      <trkpt lat="56.893569985404611" lon="-5.756087014451623">
        <ele>12.630000000000001</ele>
        <time>2023-08-29T09:29:10Z</time>
      </trkpt>
      <trkpt lat="56.893610972911119" lon="-5.75638297945261">
        <ele>13.119999999999999</ele>
        <time>2023-08-29T09:29:11Z</time>
      </trkpt>
      <trkpt lat="56.893677022308111" lon="-5.756673999130726">
        <ele>12.630000000000001</ele>
        <time>2023-08-29T09:29:12Z</time>
      </trkpt>
      <trkpt lat="56.893763020634651" lon="-5.756931994110346">
        <ele>13.119999999999999</ele>
        <time>2023-08-29T09:29:13Z</time>
      </trkpt>
      <trkpt lat="56.893887994810939" lon="-5.757161993533373">
        <ele>13.119999999999999</ele>
        <time>2023-08-29T09:29:14Z</time>
      </trkpt>
      <trkpt lat="56.894028978422284" lon="-5.757311023771763">
        <ele>13.6</ele>
        <time>2023-08-29T09:29:15Z</time>
      </trkpt>
      <trkpt lat="56.894159987568855" lon="-5.75741495937109">
        <ele>14.08</ele>
        <time>2023-08-29T09:29:16Z</time>
      </trkpt>
      <trkpt lat="56.894328966736794" lon="-5.757476985454559">
        <ele>14.56</ele>
        <time>2023-08-29T09:29:17Z</time>
      </trkpt>
      <trkpt lat="56.894497023895383" lon="-5.757538005709648">
        <ele>15.039999999999999</ele>
        <time>2023-08-29T09:29:18Z</time>
      </trkpt>
      <trkpt lat="56.894654016941786" lon="-5.757585028186441">
        <ele>15.52</ele>
        <time>2023-08-29T09:29:19Z</time>
      </trkpt>
      <trkpt lat="56.894820984452963" lon="-5.757566001266241">
        <ele>16</ele>
        <time>2023-08-29T09:29:20Z</time>
      </trkpt>
      <trkpt lat="56.895017959177494" lon="-5.757544040679932">
        <ele>16.960000000000001</ele>
        <time>2023-08-29T09:29:21Z</time>
      </trkpt>
      <trkpt lat="56.895144023001194" lon="-5.757463993504643">
        <ele>17.440000000000001</ele>
        <time>2023-08-29T09:29:22Z</time>
      </trkpt>
      <trkpt lat="56.895297998562455" lon="-5.757341030985117">
        <ele>18.399999999999999</ele>
        <time>2023-08-29T09:29:23Z</time>
      </trkpt>
      <trkpt lat="56.895441999658942" lon="-5.757165011018515">
        <ele>19.359999999999999</ele>
        <time>2023-08-29T09:29:24Z</time>
      </trkpt>
      <trkpt lat="56.895575020462275" lon="-5.756960995495319">
        <ele>20.32</ele>
        <time>2023-08-29T09:29:25Z</time>
      </trkpt>
      <trkpt lat="56.895708963274956" lon="-5.756753962486982">
        <ele>21.289999999999999</ele>
        <time>2023-08-29T09:29:26Z</time>
      </trkpt>
      <trkpt lat="56.89584500156343" lon="-5.756542989984155">
        <ele>22.25</ele>
        <time>2023-08-29T09:29:27Z</time>
      </trkpt>
      <trkpt lat="56.896614963188767" lon="-5.755389975383878">
        <ele>28.02</ele>
        <time>2023-08-29T09:29:33Z</time>
      </trkpt>
      <trkpt lat="56.896743960678577" lon="-5.755260977894068">
        <ele>28.98</ele>
        <time>2023-08-29T09:29:34Z</time>
      </trkpt>
      <trkpt lat="56.89687798731029" lon="-5.755206998437643">
        <ele>29.940000000000001</ele>
        <time>2023-08-29T09:29:35Z</time>
      </trkpt>
      <trkpt lat="56.897022994235158" lon="-5.75517799705267">
        <ele>30.899999999999999</ele>
        <time>2023-08-29T09:29:36Z</time>
      </trkpt>
      <trkpt lat="56.897165989503264" lon="-5.755148995667696">
        <ele>32.340000000000003</ele>
        <time>2023-08-29T09:29:37Z</time>
      </trkpt>
      <trkpt lat="56.897304961457849" lon="-5.755170034244657">
        <ele>33.299999999999997</ele>
        <time>2023-08-29T09:29:38Z</time>
      </trkpt>
      <trkpt lat="56.897452985867858" lon="-5.755223007872701">
        <ele>34.740000000000002</ele>
        <time>2023-08-29T09:29:39Z</time>
      </trkpt>
      <trkpt lat="56.897602016106248" lon="-5.75530699454248">
        <ele>36.189999999999998</ele>
        <time>2023-08-29T09:29:40Z</time>
      </trkpt>
      <trkpt lat="56.897751968353987" lon="-5.755391987040639">
        <ele>37.630000000000003</ele>
        <time>2023-08-29T09:29:41Z</time>
      </trkpt>
      <trkpt lat="56.897895969450474" lon="-5.755473962053657">
        <ele>39.07</ele>
        <time>2023-08-29T09:29:42Z</time>
      </trkpt>
      <trkpt lat="56.898034019395709" lon="-5.755551997572184">
        <ele>40.990000000000002</ele>
        <time>2023-08-29T09:29:43Z</time>
      </trkpt>
      <trkpt lat="56.898163016885519" lon="-5.755559038370848">
        <ele>42.920000000000002</ele>
        <time>2023-08-29T09:29:44Z</time>
      </trkpt>
      <trkpt lat="56.898298971354961" lon="-5.755544034764171">
        <ele>44.359999999999999</ele>
        <time>2023-08-29T09:29:45Z</time>
      </trkpt>
      <trkpt lat="56.898427968844771" lon="-5.755530036985874">
        <ele>45.799999999999997</ele>
        <time>2023-08-29T09:29:46Z</time>
      </trkpt>
      <trkpt lat="56.898545986041427" lon="-5.755482008680701">
        <ele>46.759999999999998</ele>
        <time>2023-08-29T09:29:47Z</time>
      </trkpt>
      <trkpt lat="56.898678001016378" lon="-5.755419982597232">
        <ele>47.719999999999999</ele>
        <time>2023-08-29T09:29:48Z</time>
      </trkpt>
      <trkpt lat="56.899254005402327" lon="-5.755068026483059">
        <ele>52.049999999999997</ele>
        <time>2023-08-29T09:29:52Z</time>
      </trkpt>
      <trkpt lat="56.899375962093472" lon="-5.754926959052682">
        <ele>53.009999999999998</ele>
        <time>2023-08-29T09:29:53Z</time>
      </trkpt>
      <trkpt lat="56.89947696402669" lon="-5.754745993763208">
        <ele>53.490000000000002</ele>
        <time>2023-08-29T09:29:54Z</time>
      </trkpt>
      <trkpt lat="56.899576038122177" lon="-5.754565028473735">
        <ele>54.450000000000003</ele>
        <time>2023-08-29T09:29:55Z</time>
      </trkpt>
      <trkpt lat="56.899667987599969" lon="-5.754360007122159">
        <ele>54.93</ele>
        <time>2023-08-29T09:29:56Z</time>
      </trkpt>
      <trkpt lat="56.899759015068412" lon="-5.754162026569247">
        <ele>55.890000000000001</ele>
        <time>2023-08-29T09:29:57Z</time>
      </trkpt>
      <trkpt lat="56.899851970374584" lon="-5.753957005217671">
        <ele>56.369999999999997</ele>
        <time>2023-08-29T09:29:58Z</time>
      </trkpt>
      <trkpt lat="56.899946015328169" lon="-5.753741003572941">
        <ele>56.859999999999999</ele>
        <time>2023-08-29T09:29:59Z</time>
      </trkpt>
      <trkpt lat="56.900210967287421" lon="-5.753124011680484">
        <ele>57.82</ele>
        <time>2023-08-29T09:30:02Z</time>
      </trkpt>
      <trkpt lat="56.900323033332825" lon="-5.753012029454112">
        <ele>58.299999999999997</ele>
        <time>2023-08-29T09:30:03Z</time>
      </trkpt>
      <trkpt lat="56.900445995852351" lon="-5.752888983115554">
        <ele>58.299999999999997</ele>
        <time>2023-08-29T09:30:04Z</time>
      </trkpt>
      <trkpt lat="56.900574993342161" lon="-5.752786975353956">
        <ele>58.299999999999997</ele>
        <time>2023-08-29T09:30:05Z</time>
      </trkpt>
      <trkpt lat="56.900713965296745" lon="-5.75270801782608">
        <ele>58.780000000000001</ele>
        <time>2023-08-29T09:30:06Z</time>
      </trkpt>
      <trkpt lat="56.900839023292065" lon="-5.752655966207385">
        <ele>58.780000000000001</ele>
        <time>2023-08-29T09:30:07Z</time>
      </trkpt>
      <trkpt lat="56.900975983589888" lon="-5.752674993127585">
        <ele>59.259999999999998</ele>
        <time>2023-08-29T09:30:08Z</time>
      </trkpt>
      <trkpt lat="56.901110010221601" lon="-5.752694020047784">
        <ele>59.740000000000002</ele>
        <time>2023-08-29T09:30:09Z</time>
      </trkpt>
      <trkpt lat="56.901220986619592" lon="-5.752809019759297">
        <ele>60.700000000000003</ele>
        <time>2023-08-29T09:30:10Z</time>
      </trkpt>
      <trkpt lat="56.901337997987866" lon="-5.752932988107204">
        <ele>61.18</ele>
        <time>2023-08-29T09:30:11Z</time>
      </trkpt>
      <trkpt lat="56.90145299769938" lon="-5.753056034445763">
        <ele>61.659999999999997</ele>
        <time>2023-08-29T09:30:12Z</time>
      </trkpt>
      <trkpt lat="56.901535978540778" lon="-5.7532440405339">
        <ele>62.140000000000001</ele>
        <time>2023-08-29T09:30:13Z</time>
      </trkpt>
      <trkpt lat="56.901593981310725" lon="-5.753466999158263">
        <ele>63.100000000000001</ele>
        <time>2023-08-29T09:30:14Z</time>
      </trkpt>
      <trkpt lat="56.90164796076715" lon="-5.75371996499598">
        <ele>64.069999999999993</ele>
        <time>2023-08-29T09:30:15Z</time>
      </trkpt>
      <trkpt lat="56.901702024042606" lon="-5.7539779599756">
        <ele>65.030000000000001</ele>
        <time>2023-08-29T09:30:16Z</time>
      </trkpt>
      <trkpt lat="56.901750974357128" lon="-5.754244001582265">
        <ele>65.989999999999995</ele>
        <time>2023-08-29T09:30:17Z</time>
      </trkpt>
      <trkpt lat="56.901790034025908" lon="-5.754518005996943">
        <ele>66.950000000000003</ele>
        <time>2023-08-29T09:30:18Z</time>
      </trkpt>
      <trkpt lat="56.901783999055624" lon="-5.754810031503439">
        <ele>67.909999999999997</ele>
        <time>2023-08-29T09:30:19Z</time>
      </trkpt>
      <trkpt lat="56.901756003499031" lon="-5.755085041746497">
        <ele>68.390000000000001</ele>
        <time>2023-08-29T09:30:20Z</time>
      </trkpt>
      <trkpt lat="56.901709986850619" lon="-5.755366003140807">
        <ele>69.349999999999994</ele>
        <time>2023-08-29T09:30:21Z</time>
      </trkpt>
      <trkpt lat="56.901639997959137" lon="-5.755645958706737">
        <ele>69.829999999999998</ele>
        <time>2023-08-29T09:30:22Z</time>
      </trkpt>
      <trkpt lat="56.90091404132545" lon="-5.758539978414774">
        <ele>75.120000000000005</ele>
        <time>2023-08-29T09:30:31Z</time>
      </trkpt>
      <trkpt lat="56.900755036622286" lon="-5.759168034419417">
        <ele>77.040000000000006</ele>
        <time>2023-08-29T09:30:33Z</time>
      </trkpt>
      <trkpt lat="56.900350023061037" lon="-5.761734992265701">
        <ele>85.689999999999998</ele>
        <time>2023-08-29T09:30:41Z</time>
      </trkpt>
      <trkpt lat="56.900179032236338" lon="-5.764623982831836">
        <ele>85.209999999999994</ele>
        <time>2023-08-29T09:30:49Z</time>
      </trkpt>
      <trkpt lat="56.900123041123152" lon="-5.766359036788344">
        <ele>82.810000000000002</ele>
        <time>2023-08-29T09:30:54Z</time>
      </trkpt>
      <trkpt lat="56.900177020579576" lon="-5.767636019736528">
        <ele>79.930000000000007</ele>
        <time>2023-08-29T09:31:00Z</time>
      </trkpt>
      <trkpt lat="56.900183977559209" lon="-5.767801981419325">
        <ele>79.930000000000007</ele>
        <time>2023-08-29T09:31:01Z</time>
      </trkpt>
      <trkpt lat="56.900180960074067" lon="-5.767978001385927">
        <ele>79.450000000000003</ele>
        <time>2023-08-29T09:31:02Z</time>
      </trkpt>
      <trkpt lat="56.900155982002616" lon="-5.768117979168892">
        <ele>78.969999999999999</ele>
        <time>2023-08-29T09:31:03Z</time>
      </trkpt>
      <trkpt lat="56.900132009759545" lon="-5.768255023285747">
        <ele>78.969999999999999</ele>
        <time>2023-08-29T09:31:04Z</time>
      </trkpt>
      <trkpt lat="56.900095967575908" lon="-5.76839298941195">
        <ele>78.480000000000004</ele>
        <time>2023-08-29T09:31:05Z</time>
      </trkpt>
      <trkpt lat="56.900053974241018" lon="-5.768537996336818">
        <ele>78.480000000000004</ele>
        <time>2023-08-29T09:31:06Z</time>
      </trkpt>
      <trkpt lat="56.900009969249368" lon="-5.768690966069698">
        <ele>78</ele>
        <time>2023-08-29T09:31:07Z</time>
      </trkpt>
      <trkpt lat="56.899975016713142" lon="-5.768808983266354">
        <ele>78</ele>
        <time>2023-08-29T09:31:08Z</time>
      </trkpt>
      <trkpt lat="56.899960013106465" lon="-5.769019033759832">
        <ele>78</ele>
        <time>2023-08-29T09:31:09Z</time>
      </trkpt>
      <trkpt lat="56.899945009499788" lon="-5.769239980727434">
        <ele>78</ele>
        <time>2023-08-29T09:31:10Z</time>
      </trkpt>
      <trkpt lat="56.899926988407969" lon="-5.76948800124228">
        <ele>78</ele>
        <time>2023-08-29T09:31:11Z</time>
      </trkpt>
      <trkpt lat="56.89990796148777" lon="-5.769760999828577">
        <ele>78</ele>
        <time>2023-08-29T09:31:12Z</time>
      </trkpt>
      <trkpt lat="56.899837972596288" lon="-5.770684015005827">
        <ele>76.079999999999998</ele>
        <time>2023-08-29T09:31:15Z</time>
      </trkpt>
      <trkpt lat="56.89962700009346" lon="-5.771904001012445">
        <ele>73.680000000000007</ele>
        <time>2023-08-29T09:31:19Z</time>
      </trkpt>
      <trkpt lat="56.899605039507151" lon="-5.772212035953999">
        <ele>72.719999999999999</ele>
        <time>2023-08-29T09:31:20Z</time>
      </trkpt>
      <trkpt lat="56.899562040343881" lon="-5.772826010361314">
        <ele>70.310000000000002</ele>
        <time>2023-08-29T09:31:22Z</time>
      </trkpt>
      <trkpt lat="56.89954100176692" lon="-5.773138990625739">
        <ele>69.349999999999994</ele>
        <time>2023-08-29T09:31:23Z</time>
      </trkpt>
      <trkpt lat="56.89928200095892" lon="-5.776574984192848">
        <ele>54.450000000000003</ele>
        <time>2023-08-29T09:31:33Z</time>
      </trkpt>
      <trkpt lat="56.898877993226051" lon="-5.781911993399262">
        <ele>34.740000000000002</ele>
        <time>2023-08-29T09:31:48Z</time>
      </trkpt>
      <trkpt lat="56.899049989879131" lon="-5.783982994034886">
        <ele>28.5</ele>
        <time>2023-08-29T09:31:54Z</time>
      </trkpt>
      <trkpt lat="56.899747028946877" lon="-5.786579037085176">
        <ele>26.09</ele>
        <time>2023-08-29T09:32:02Z</time>
      </trkpt>
      <trkpt lat="56.899936040863395" lon="-5.787615962326527">
        <ele>26.57</ele>
        <time>2023-08-29T09:32:05Z</time>
      </trkpt>
      <trkpt lat="56.899961018934846" lon="-5.787960039451718">
        <ele>27.050000000000001</ele>
        <time>2023-08-29T09:32:06Z</time>
      </trkpt>
      <trkpt lat="56.899971999228001" lon="-5.788303026929498">
        <ele>27.530000000000001</ele>
        <time>2023-08-29T09:32:07Z</time>
      </trkpt>
      <trkpt lat="56.899951966479421" lon="-5.788642996922135">
        <ele>28.5</ele>
        <time>2023-08-29T09:32:08Z</time>
      </trkpt>
      <trkpt lat="56.899921037256718" lon="-5.788978021591902">
        <ele>28.98</ele>
        <time>2023-08-29T09:32:09Z</time>
      </trkpt>
      <trkpt lat="56.899856999516487" lon="-5.789297036826611">
        <ele>30.420000000000002</ele>
        <time>2023-08-29T09:32:10Z</time>
      </trkpt>
      <trkpt lat="56.89977896399796" lon="-5.78959995880723">
        <ele>31.859999999999999</ele>
        <time>2023-08-29T09:32:11Z</time>
      </trkpt>
      <trkpt lat="56.899695983156562" lon="-5.789924003183842">
        <ele>33.780000000000001</ele>
        <time>2023-08-29T09:32:12Z</time>
      </trkpt>
      <trkpt lat="56.899607973173261" lon="-5.790198007598519">
        <ele>35.710000000000001</ele>
        <time>2023-08-29T09:32:13Z</time>
      </trkpt>
      <trkpt lat="56.898989975452423" lon="-5.792644014582038">
        <ele>53.009999999999998</ele>
        <time>2023-08-29T09:32:21Z</time>
      </trkpt>
      <trkpt lat="56.898881010711193" lon="-5.795453963801265">
        <ele>64.549999999999997</ele>
        <time>2023-08-29T09:32:29Z</time>
      </trkpt>
      <trkpt lat="56.899052001535892" lon="-5.798998000100255">
        <ele>75.120000000000005</ele>
        <time>2023-08-29T09:32:39Z</time>
      </trkpt>
      <trkpt lat="56.899751974269748" lon="-5.801618015393615">
        <ele>84.25</ele>
        <time>2023-08-29T09:32:47Z</time>
      </trkpt>
      <trkpt lat="56.901257028803229" lon="-5.805618027225137">
        <ele>89.540000000000006</ele>
        <time>2023-08-29T09:32:59Z</time>
      </trkpt>
      <trkpt lat="56.902609029784799" lon="-5.809499016031623">
        <ele>82.329999999999998</ele>
        <time>2023-08-29T09:33:10Z</time>
      </trkpt>
      <trkpt lat="56.904250960797071" lon="-5.814373008906841">
        <ele>65.510000000000005</ele>
        <time>2023-08-29T09:33:24Z</time>
      </trkpt>
      <trkpt lat="56.905864980071783" lon="-5.818682983517647">
        <ele>61.18</ele>
        <time>2023-08-29T09:33:37Z</time>
      </trkpt>
      <trkpt lat="56.907036015763879" lon="-5.821297969669104">
        <ele>55.409999999999997</ele>
        <time>2023-08-29T09:33:46Z</time>
      </trkpt>
      <trkpt lat="56.908081993460655" lon="-5.822417037561536">
        <ele>49.159999999999997</ele>
        <time>2023-08-29T09:33:52Z</time>
      </trkpt>
      <trkpt lat="56.908280979841948" lon="-5.82253597676754">
        <ele>48.200000000000003</ele>
        <time>2023-08-29T09:33:53Z</time>
      </trkpt>
      <trkpt lat="56.909485040232539" lon="-5.822618035599589">
        <ele>43.399999999999999</ele>
        <time>2023-08-29T09:33:59Z</time>
      </trkpt>
      <trkpt lat="56.909686038270593" lon="-5.822545029222965">
        <ele>42.439999999999998</ele>
        <time>2023-08-29T09:34:00Z</time>
      </trkpt>
      <trkpt lat="56.909879995509982" lon="-5.822442015632987">
        <ele>41.950000000000003</ele>
        <time>2023-08-29T09:34:01Z</time>
      </trkpt>
      <trkpt lat="56.910966038703918" lon="-5.821798034012318">
        <ele>38.109999999999999</ele>
        <time>2023-08-29T09:34:07Z</time>
      </trkpt>
      <trkpt lat="56.911312965676188" lon="-5.82167498767376">
        <ele>37.630000000000003</ele>
        <time>2023-08-29T09:34:09Z</time>
      </trkpt>
      <trkpt lat="56.911488985642791" lon="-5.821667024865747">
        <ele>37.630000000000003</ele>
        <time>2023-08-29T09:34:10Z</time>
      </trkpt>
      <trkpt lat="56.911662993952632" lon="-5.821667024865747">
        <ele>37.630000000000003</ele>
        <time>2023-08-29T09:34:11Z</time>
      </trkpt>
      <trkpt lat="56.911821998655796" lon="-5.8217419590801">
        <ele>37.630000000000003</ele>
        <time>2023-08-29T09:34:12Z</time>
      </trkpt>
      <trkpt lat="56.91197999753058" lon="-5.821815971285105">
        <ele>37.630000000000003</ele>
        <time>2023-08-29T09:34:13Z</time>
      </trkpt>
      <trkpt lat="56.912127016112208" lon="-5.821944968774915">
        <ele>37.630000000000003</ele>
        <time>2023-08-29T09:34:14Z</time>
      </trkpt>
      <trkpt lat="56.912264982238412" lon="-5.822115959599614">
        <ele>37.630000000000003</ele>
        <time>2023-08-29T09:34:15Z</time>
      </trkpt>
      <trkpt lat="56.912399008870125" lon="-5.822325004264712">
        <ele>37.630000000000003</ele>
        <time>2023-08-29T09:34:16Z</time>
      </trkpt>
      <trkpt lat="56.912506967782974" lon="-5.822566989809275">
        <ele>37.630000000000003</ele>
        <time>2023-08-29T09:34:17Z</time>
      </trkpt>
      <trkpt lat="56.912602018564939" lon="-5.822837976738811">
        <ele>38.109999999999999</ele>
        <time>2023-08-29T09:34:18Z</time>
      </trkpt>
      <trkpt lat="56.912677036598325" lon="-5.82313503138721">
        <ele>38.590000000000003</ele>
        <time>2023-08-29T09:34:19Z</time>
      </trkpt>
      <trkpt lat="56.912722969427705" lon="-5.823463015258312">
        <ele>39.07</ele>
        <time>2023-08-29T09:34:20Z</time>
      </trkpt>
      <trkpt lat="56.912755994126201" lon="-5.823794016614556">
        <ele>39.549999999999997</ele>
        <time>2023-08-29T09:34:21Z</time>
      </trkpt>
      <trkpt lat="56.912783989682794" lon="-5.824141027405858">
        <ele>39.549999999999997</ele>
        <time>2023-08-29T09:34:22Z</time>
      </trkpt>
      <trkpt lat="56.912773009389639" lon="-5.824488960206509">
        <ele>40.509999999999998</ele>
        <time>2023-08-29T09:34:23Z</time>
      </trkpt>
      <trkpt lat="56.91275498829782" lon="-5.82485499791801">
        <ele>40.509999999999998</ele>
        <time>2023-08-29T09:34:24Z</time>
      </trkpt>
      <trkpt lat="56.912706959992647" lon="-5.825206032022834">
        <ele>41.469999999999999</ele>
        <time>2023-08-29T09:34:25Z</time>
      </trkpt>
      <trkpt lat="56.912637976929545" lon="-5.825556982308626">
        <ele>41.469999999999999</ele>
        <time>2023-08-29T09:34:26Z</time>
      </trkpt>
      <trkpt lat="56.912563964724541" lon="-5.82590701058507">
        <ele>41.950000000000003</ele>
        <time>2023-08-29T09:34:27Z</time>
      </trkpt>
      <trkpt lat="56.912490958347917" lon="-5.826255027204752">
        <ele>42.439999999999998</ele>
        <time>2023-08-29T09:34:28Z</time>
      </trkpt>
      <trkpt lat="56.911753015592694" lon="-5.828861966729164">
        <ele>39.549999999999997</ele>
        <time>2023-08-29T09:34:37Z</time>
      </trkpt>
      <trkpt lat="56.9112070184201" lon="-5.831402018666267">
        <ele>32.82</ele>
        <time>2023-08-29T09:34:47Z</time>
      </trkpt>
      <trkpt lat="56.911011971533298" lon="-5.833476036787033">
        <ele>27.530000000000001</ele>
        <time>2023-08-29T09:34:56Z</time>
      </trkpt>
      <trkpt lat="56.911072991788387" lon="-5.836267964914441">
        <ele>25.129999999999999</ele>
        <time>2023-08-29T09:35:07Z</time>
      </trkpt>
      <trkpt lat="56.911144992336631" lon="-5.837101964280009">
        <ele>24.170000000000002</ele>
        <time>2023-08-29T09:35:11Z</time>
      </trkpt>
      <trkpt lat="56.911165025085211" lon="-5.837303968146443">
        <ele>24.170000000000002</ele>
        <time>2023-08-29T09:35:12Z</time>
      </trkpt>
      <trkpt lat="56.911359988152981" lon="-5.838875994086266">
        <ele>22.73</ele>
        <time>2023-08-29T09:35:20Z</time>
      </trkpt>
      <trkpt lat="56.911375997588038" lon="-5.839005997404456">
        <ele>23.210000000000001</ele>
        <time>2023-08-29T09:35:21Z</time>
      </trkpt>
      <trkpt lat="56.911387983709574" lon="-5.839103981852531">
        <ele>23.690000000000001</ele>
        <time>2023-08-29T09:35:22Z</time>
      </trkpt>
      <trkpt lat="56.911309026181698" lon="-5.8393369987607">
        <ele>24.170000000000002</ele>
        <time>2023-08-29T09:35:23Z</time>
      </trkpt>
      <trkpt lat="56.911241970956326" lon="-5.839362982660532">
        <ele>24.649999999999999</ele>
        <time>2023-08-29T09:35:24Z</time>
      </trkpt>
      <trkpt lat="56.911133006215096" lon="-5.839404975995421">
        <ele>25.129999999999999</ele>
        <time>2023-08-29T09:35:25Z</time>
      </trkpt>
      <trkpt lat="56.910503022372723" lon="-5.840264037251473">
        <ele>21.77</ele>
        <time>2023-08-29T09:35:32Z</time>
      </trkpt>
      <trkpt lat="56.910450970754027" lon="-5.840399991720915">
        <ele>20.809999999999999</ele>
        <time>2023-08-29T09:35:33Z</time>
      </trkpt>
      <trkpt lat="56.910405959933996" lon="-5.840534018352628">
        <ele>19.84</ele>
        <time>2023-08-29T09:35:34Z</time>
      </trkpt>
      <trkpt lat="56.910331025719643" lon="-5.840938026085496">
        <ele>15.039999999999999</ele>
        <time>2023-08-29T09:35:37Z</time>
      </trkpt>
      <trkpt lat="56.910210996866226" lon="-5.841719973832369">
        <ele>10.710000000000001</ele>
        <time>2023-08-29T09:35:43Z</time>
      </trkpt>
      <trkpt lat="56.909863986074924" lon="-5.843229973688722">
        <ele>13.119999999999999</ele>
        <time>2023-08-29T09:35:55Z</time>
      </trkpt>
      <trkpt lat="56.909812018275261" lon="-5.843329969793558">
        <ele>13.119999999999999</ele>
        <time>2023-08-29T09:35:56Z</time>
      </trkpt>
      <trkpt lat="56.909756027162075" lon="-5.843441030010581">
        <ele>13.119999999999999</ele>
        <time>2023-08-29T09:35:57Z</time>
      </trkpt>
      <trkpt lat="56.909438017755747" lon="-5.84410697221756">
        <ele>10.23</ele>
        <time>2023-08-29T09:36:03Z</time>
      </trkpt>
      <trkpt lat="56.909369034692645" lon="-5.844395980238915">
        <ele>8.789999999999999</ele>
        <time>2023-08-29T09:36:05Z</time>
      </trkpt>
      <trkpt lat="56.909330980852246" lon="-5.844554984942079">
        <ele>8.310000000000001</ele>
        <time>2023-08-29T09:36:06Z</time>
      </trkpt>
      <trkpt lat="56.90931698307395" lon="-5.844693034887314">
        <ele>7.83</ele>
        <time>2023-08-29T09:36:07Z</time>
      </trkpt>
      <trkpt lat="56.909285970032215" lon="-5.845001991838217">
        <ele>7.35</ele>
        <time>2023-08-29T09:36:09Z</time>
      </trkpt>
      <trkpt lat="56.909282030537724" lon="-5.845490992069244">
        <ele>5.42</ele>
        <time>2023-08-29T09:36:12Z</time>
      </trkpt>
      <trkpt lat="56.909336009994149" lon="-5.84595300257206">
        <ele>3.02</ele>
        <time>2023-08-29T09:36:15Z</time>
      </trkpt>
      <trkpt lat="56.9093609880656" lon="-5.846101026982069">
        <ele>2.06</ele>
        <time>2023-08-29T09:36:16Z</time>
      </trkpt>
      <trkpt lat="56.909408010542393" lon="-5.846226001158357">
        <ele>1.1</ele>
        <time>2023-08-29T09:36:17Z</time>
      </trkpt>
      <trkpt lat="56.909455033019185" lon="-5.846348963677883">
        <ele>0.14</ele>
        <time>2023-08-29T09:36:18Z</time>
      </trkpt>
      <trkpt lat="56.909500965848565" lon="-5.8464689925313">
        <ele>0.14</ele>
        <time>2023-08-29T09:36:19Z</time>
      </trkpt>
      <trkpt lat="56.909545976668596" lon="-5.846589021384716">
        <ele>-0.34</ele>
        <time>2023-08-29T09:36:20Z</time>
      </trkpt>
      <trkpt lat="56.909877983853221" lon="-5.847463002428412">
        <ele>-0.34</ele>
        <time>2023-08-29T09:36:28Z</time>
      </trkpt>
      <trkpt lat="56.909931041300297" lon="-5.847601974382997">
        <ele>-0.34</ele>
        <time>2023-08-29T09:36:29Z</time>
      </trkpt>
      <trkpt lat="56.909969011321664" lon="-5.847654026001692">
        <ele>-0.34</ele>
        <time>2023-08-29T09:36:30Z</time>
      </trkpt>
      <trkpt lat="56.91043496131897" lon="-5.848300019279122">
        <ele>0.14</ele>
        <time>2023-08-29T09:36:37Z</time>
      </trkpt>
      <trkpt lat="56.910489024594426" lon="-5.848374031484127">
        <ele>0.14</ele>
        <time>2023-08-29T09:36:38Z</time>
      </trkpt>
      <trkpt lat="56.91058399155736" lon="-5.848433962091804">
        <ele>0.14</ele>
        <time>2023-08-29T09:36:39Z</time>
      </trkpt>
      <trkpt lat="56.910661021247506" lon="-5.848481990396977">
        <ele>0.14</ele>
        <time>2023-08-29T09:36:40Z</time>
      </trkpt>
      <trkpt lat="56.910744002088904" lon="-5.848462963476777">
        <ele>0.14</ele>
        <time>2023-08-29T09:36:41Z</time>
      </trkpt>
      <trkpt lat="56.910828994587064" lon="-5.84844502620399">
        <ele>0.14</ele>
        <time>2023-08-29T09:36:42Z</time>
      </trkpt>
      <trkpt lat="56.91088599152863" lon="-5.848400015383959">
        <ele>0.62</ele>
        <time>2023-08-29T09:36:43Z</time>
      </trkpt>
      <trkpt lat="56.910952040925622" lon="-5.84831896238029">
        <ele>1.1</ele>
        <time>2023-08-29T09:36:44Z</time>
      </trkpt>
      <trkpt lat="56.911020018160343" lon="-5.848235981538892">
        <ele>1.58</ele>
        <time>2023-08-29T09:36:45Z</time>
      </trkpt>
      <trkpt lat="56.911086989566684" lon="-5.848154006525874">
        <ele>2.54</ele>
        <time>2023-08-29T09:36:46Z</time>
      </trkpt>
      <trkpt lat="56.911156978458166" lon="-5.848069014027715">
        <ele>3.02</ele>
        <time>2023-08-29T09:36:47Z</time>
      </trkpt>
      <trkpt lat="56.911239959299564" lon="-5.847967006266117">
        <ele>3.98</ele>
        <time>2023-08-29T09:36:48Z</time>
      </trkpt>
      <trkpt lat="56.911274995654821" lon="-5.84784597158432">
        <ele>4.94</ele>
        <time>2023-08-29T09:36:49Z</time>
      </trkpt>
      <trkpt lat="56.911320006474853" lon="-5.847686966881156">
        <ele>5.91</ele>
        <time>2023-08-29T09:36:50Z</time>
      </trkpt>
      <trkpt lat="56.911368034780025" lon="-5.847519999369979">
        <ele>6.87</ele>
        <time>2023-08-29T09:36:51Z</time>
      </trkpt>
      <trkpt lat="56.911700963973999" lon="-5.846407972276211">
        <ele>14.08</ele>
        <time>2023-08-29T09:36:58Z</time>
      </trkpt>
      <trkpt lat="56.91174597479403" lon="-5.846304958686233">
        <ele>14.56</ele>
        <time>2023-08-29T09:36:59Z</time>
      </trkpt>
      <trkpt lat="56.911784028634429" lon="-5.846216026693583">
        <ele>15.52</ele>
        <time>2023-08-29T09:37:00Z</time>
      </trkpt>
      <trkpt lat="56.911862986162305" lon="-5.846035983413458">
        <ele>16.960000000000001</ele>
        <time>2023-08-29T09:37:01Z</time>
      </trkpt>
      <trkpt lat="56.911923000589013" lon="-5.846107983961701">
        <ele>17.920000000000002</ele>
        <time>2023-08-29T09:37:02Z</time>
      </trkpt>
      <trkpt lat="56.911976980045438" lon="-5.846173027530313">
        <ele>18.879999999999999</ele>
        <time>2023-08-29T09:37:03Z</time>
      </trkpt>
      <trkpt lat="56.912076976150274" lon="-5.846292972564697">
        <ele>19.84</ele>
        <time>2023-08-29T09:37:04Z</time>
      </trkpt>
      <trkpt lat="56.91213296726346" lon="-5.846302025020123">
        <ele>20.32</ele>
        <time>2023-08-29T09:37:05Z</time>
      </trkpt>
      <trkpt lat="56.91223899833858" lon="-5.84631803445518">
        <ele>20.809999999999999</ele>
        <time>2023-08-29T09:37:06Z</time>
      </trkpt>
      <trkpt lat="56.912356009706855" lon="-5.846335971727967">
        <ele>21.289999999999999</ele>
        <time>2023-08-29T09:37:07Z</time>
      </trkpt>
      <trkpt lat="56.912610987201333" lon="-5.846400009468198">
        <ele>22.73</ele>
        <time>2023-08-29T09:37:09Z</time>
      </trkpt>
      <trkpt lat="56.912745013833046" lon="-5.846433034166694">
        <ele>23.690000000000001</ele>
        <time>2023-08-29T09:37:10Z</time>
      </trkpt>
      <trkpt lat="56.913376003503799" lon="-5.846591033041477">
        <ele>27.050000000000001</ele>
        <time>2023-08-29T09:37:15Z</time>
      </trkpt>
      <trkpt lat="56.913496032357216" lon="-5.846621040254831">
        <ele>27.530000000000001</ele>
        <time>2023-08-29T09:37:16Z</time>
      </trkpt>
      <trkpt lat="56.91399903036654" lon="-5.8467470202595">
        <ele>28.02</ele>
        <time>2023-08-29T09:37:21Z</time>
      </trkpt>
      <trkpt lat="56.914091985672712" lon="-5.846780966967344">
        <ele>28.02</ele>
        <time>2023-08-29T09:37:22Z</time>
      </trkpt>
      <trkpt lat="56.914260964840651" lon="-5.84691901691258">
        <ele>28.02</ele>
        <time>2023-08-29T09:37:24Z</time>
      </trkpt>
      <trkpt lat="56.914344029501081" lon="-5.846986994147301">
        <ele>28.02</ele>
        <time>2023-08-29T09:37:25Z</time>
      </trkpt>
      <trkpt lat="56.914513008669019" lon="-5.847124960273504">
        <ele>28.98</ele>
        <time>2023-08-29T09:37:27Z</time>
      </trkpt>
      <trkpt lat="56.914594983682036" lon="-5.847214981913567">
        <ele>29.460000000000001</ele>
        <time>2023-08-29T09:37:28Z</time>
      </trkpt>
      <trkpt lat="56.914674025028944" lon="-5.847314978018403">
        <ele>29.460000000000001</ele>
        <time>2023-08-29T09:37:29Z</time>
      </trkpt>
      <trkpt lat="56.914843004196882" lon="-5.847527962177992">
        <ele>30.420000000000002</ele>
        <time>2023-08-29T09:37:31Z</time>
      </trkpt>
      <trkpt lat="56.915092030540109" lon="-5.847752010449767">
        <ele>32.340000000000003</ele>
        <time>2023-08-29T09:37:34Z</time>
      </trkpt>
      <trkpt lat="56.915184985846281" lon="-5.847809007391334">
        <ele>33.299999999999997</ele>
        <time>2023-08-29T09:37:35Z</time>
      </trkpt>
      <trkpt lat="56.915463013574481" lon="-5.847991984337568">
        <ele>34.740000000000002</ele>
        <time>2023-08-29T09:37:38Z</time>
      </trkpt>
      <trkpt lat="56.915551023557782" lon="-5.848050992935896">
        <ele>34.740000000000002</ele>
        <time>2023-08-29T09:37:39Z</time>
      </trkpt>
      <trkpt lat="56.915643978863955" lon="-5.848151994869113">
        <ele>35.710000000000001</ele>
        <time>2023-08-29T09:37:40Z</time>
      </trkpt>
      <trkpt lat="56.91569996997714" lon="-5.848270012065768">
        <ele>35.710000000000001</ele>
        <time>2023-08-29T09:37:41Z</time>
      </trkpt>
      <trkpt lat="56.915753027424216" lon="-5.848380988463759">
        <ele>36.189999999999998</ele>
        <time>2023-08-29T09:37:42Z</time>
      </trkpt>
      <trkpt lat="56.915807006880641" lon="-5.848495988175273">
        <ele>36.670000000000002</ele>
        <time>2023-08-29T09:37:43Z</time>
      </trkpt>
      <trkpt lat="56.915916977450252" lon="-5.848730010911822">
        <ele>37.149999999999999</ele>
        <time>2023-08-29T09:37:45Z</time>
      </trkpt>
      <trkpt lat="56.915982021018863" lon="-5.848867977038026">
        <ele>37.630000000000003</ele>
        <time>2023-08-29T09:37:46Z</time>
      </trkpt>
      <trkpt lat="56.916057961061597" lon="-5.84891801699996">
        <ele>38.109999999999999</ele>
        <time>2023-08-29T09:37:47Z</time>
      </trkpt>
      <trkpt lat="56.916829012334347" lon="-5.849546995013952">
        <ele>39.07</ele>
        <time>2023-08-29T09:37:54Z</time>
      </trkpt>
      <trkpt lat="56.917140986770391" lon="-5.849855029955506">
        <ele>40.030000000000001</ele>
        <time>2023-08-29T09:37:57Z</time>
      </trkpt>
      <trkpt lat="56.917220028117299" lon="-5.85001403465867">
        <ele>40.030000000000001</ele>
        <time>2023-08-29T09:37:58Z</time>
      </trkpt>
      <trkpt lat="56.917300997301936" lon="-5.850174967199564">
        <ele>40.509999999999998</ele>
        <time>2023-08-29T09:37:59Z</time>
      </trkpt>
      <trkpt lat="56.917360005900264" lon="-5.85037998855114">
        <ele>40.990000000000002</ele>
        <time>2023-08-29T09:38:00Z</time>
      </trkpt>
      <trkpt lat="56.917398981750011" lon="-5.850592972710729">
        <ele>40.990000000000002</ele>
        <time>2023-08-29T09:38:01Z</time>
      </trkpt>
      <trkpt lat="56.91743896342814" lon="-5.85081098601222">
        <ele>40.990000000000002</ele>
        <time>2023-08-29T09:38:02Z</time>
      </trkpt>
      <trkpt lat="56.9174790289253" lon="-5.851028999313712">
        <ele>40.990000000000002</ele>
        <time>2023-08-29T09:38:03Z</time>
      </trkpt>
      <trkpt lat="56.917557986453176" lon="-5.851220022886992">
        <ele>40.990000000000002</ele>
        <time>2023-08-29T09:38:04Z</time>
      </trkpt>
      <trkpt lat="56.917644990608096" lon="-5.851412974298">
        <ele>40.509999999999998</ele>
        <time>2023-08-29T09:38:05Z</time>
      </trkpt>
      <trkpt lat="56.917733000591397" lon="-5.851607015356422">
        <ele>40.030000000000001</ele>
        <time>2023-08-29T09:38:06Z</time>
      </trkpt>
      <trkpt lat="56.917895022779703" lon="-5.852023009210825">
        <ele>40.030000000000001</ele>
        <time>2023-08-29T09:38:08Z</time>
      </trkpt>
      <trkpt lat="56.918044975027442" lon="-5.852431962266564">
        <ele>40.030000000000001</ele>
        <time>2023-08-29T09:38:10Z</time>
      </trkpt>
      <trkpt lat="56.91812401637435" lon="-5.852631032466888">
        <ele>40.030000000000001</ele>
        <time>2023-08-29T09:38:11Z</time>
      </trkpt>
      <trkpt lat="56.918222000822425" lon="-5.852800011634827">
        <ele>40.509999999999998</ele>
        <time>2023-08-29T09:38:12Z</time>
      </trkpt>
      <trkpt lat="56.91831897944212" lon="-5.852966979146004">
        <ele>40.509999999999998</ele>
        <time>2023-08-29T09:38:13Z</time>
      </trkpt>
      <trkpt lat="56.918436996638775" lon="-5.853093964979053">
        <ele>40.509999999999998</ele>
        <time>2023-08-29T09:38:14Z</time>
      </trkpt>
      <trkpt lat="56.918559037148952" lon="-5.853205025196075">
        <ele>40.990000000000002</ele>
        <time>2023-08-29T09:38:15Z</time>
      </trkpt>
      <trkpt lat="56.919383984059095" lon="-5.853814976289868">
        <ele>40.990000000000002</ele>
        <time>2023-08-29T09:38:21Z</time>
      </trkpt>
      <trkpt lat="56.919526979327202" lon="-5.853889994323254">
        <ele>40.509999999999998</ele>
        <time>2023-08-29T09:38:22Z</time>
      </trkpt>
      <trkpt lat="56.919676009565592" lon="-5.853912960737944">
        <ele>40.030000000000001</ele>
        <time>2023-08-29T09:38:23Z</time>
      </trkpt>
      <trkpt lat="56.919807018712163" lon="-5.853875996544957">
        <ele>40.030000000000001</ele>
        <time>2023-08-29T09:38:24Z</time>
      </trkpt>
      <trkpt lat="56.919939033687115" lon="-5.853840038180351">
        <ele>39.549999999999997</ele>
        <time>2023-08-29T09:38:25Z</time>
      </trkpt>
      <trkpt lat="56.920072976499796" lon="-5.853801984339953">
        <ele>39.07</ele>
        <time>2023-08-29T09:38:26Z</time>
      </trkpt>
      <trkpt lat="56.920214965939522" lon="-5.853787986561656">
        <ele>38.590000000000003</ele>
        <time>2023-08-29T09:38:27Z</time>
      </trkpt>
      <trkpt lat="56.92036097869277" lon="-5.853800978511572">
        <ele>38.109999999999999</ele>
        <time>2023-08-29T09:38:28Z</time>
      </trkpt>
      <trkpt lat="56.920497016981244" lon="-5.853874990716577">
        <ele>37.630000000000003</ele>
        <time>2023-08-29T09:38:29Z</time>
      </trkpt>
      <trkpt lat="56.920634983107448" lon="-5.853960989043117">
        <ele>37.149999999999999</ele>
        <time>2023-08-29T09:38:30Z</time>
      </trkpt>
      <trkpt lat="56.920774038881063" lon="-5.854046987369657">
        <ele>36.670000000000002</ele>
        <time>2023-08-29T09:38:31Z</time>
      </trkpt>
      <trkpt lat="56.920909993350506" lon="-5.854131979867816">
        <ele>36.189999999999998</ele>
        <time>2023-08-29T09:38:32Z</time>
      </trkpt>
      <trkpt lat="56.92104603163898" lon="-5.854199035093188">
        <ele>36.189999999999998</ele>
        <time>2023-08-29T09:38:33Z</time>
      </trkpt>
      <trkpt lat="56.921556992456317" lon="-5.854343958199024">
        <ele>35.229999999999997</ele>
        <time>2023-08-29T09:38:37Z</time>
      </trkpt>
      <trkpt lat="56.921674003824592" lon="-5.854433979839087">
        <ele>34.740000000000002</ele>
        <time>2023-08-29T09:38:38Z</time>
      </trkpt>
      <trkpt lat="56.921771988272667" lon="-5.854577980935574">
        <ele>34.259999999999998</ele>
        <time>2023-08-29T09:38:39Z</time>
      </trkpt>
      <trkpt lat="56.921996958553791" lon="-5.854937983676791">
        <ele>31.859999999999999</ele>
        <time>2023-08-29T09:38:42Z</time>
      </trkpt>
      <trkpt lat="56.922070970758796" lon="-5.854984000325203">
        <ele>30.899999999999999</ele>
        <time>2023-08-29T09:38:43Z</time>
      </trkpt>
      <trkpt lat="56.922126961871982" lon="-5.855005960911512">
        <ele>29.940000000000001</ele>
        <time>2023-08-29T09:38:44Z</time>
      </trkpt>
      <trkpt lat="56.92222704179585" lon="-5.855044014751911">
        <ele>28.02</ele>
        <time>2023-08-29T09:38:47Z</time>
      </trkpt>
      <trkpt lat="56.922298036515713" lon="-5.855118026956916">
        <ele>27.530000000000001</ele>
        <time>2023-08-29T09:38:48Z</time>
      </trkpt>
      <trkpt lat="56.92231304012239" lon="-5.855221962556243">
        <ele>27.050000000000001</ele>
        <time>2023-08-29T09:38:49Z</time>
      </trkpt>
      <trkpt lat="56.922353021800518" lon="-5.855505019426346">
        <ele>26.09</ele>
        <time>2023-08-29T09:38:51Z</time>
      </trkpt>
      <trkpt lat="56.922569023445249" lon="-5.857228003442287">
        <ele>22.73</ele>
        <time>2023-08-29T09:38:59Z</time>
      </trkpt>
      <trkpt lat="56.922816038131714" lon="-5.858753006905317">
        <ele>16.960000000000001</ele>
        <time>2023-08-29T09:39:06Z</time>
      </trkpt>
      <trkpt lat="56.922874040901661" lon="-5.858859037980437">
        <ele>15.52</ele>
        <time>2023-08-29T09:39:07Z</time>
      </trkpt>
      <trkpt lat="56.922948975116014" lon="-5.858916034922004">
        <ele>14.08</ele>
        <time>2023-08-29T09:39:08Z</time>
      </trkpt>
      <trkpt lat="56.923022987321019" lon="-5.858947969973087">
        <ele>13.119999999999999</ele>
        <time>2023-08-29T09:39:09Z</time>
      </trkpt>
      <trkpt lat="56.923118960112333" lon="-5.858926009386778">
        <ele>12.630000000000001</ele>
        <time>2023-08-29T09:39:10Z</time>
      </trkpt>
      <trkpt lat="56.923227002844214" lon="-5.858901031315327">
        <ele>12.15</ele>
        <time>2023-08-29T09:39:11Z</time>
      </trkpt>
      <trkpt lat="56.923788003623486" lon="-5.858790976926684">
        <ele>11.19</ele>
        <time>2023-08-29T09:39:16Z</time>
      </trkpt>
      <trkpt lat="56.924944035708904" lon="-5.85886700078845">
        <ele>5.42</ele>
        <time>2023-08-29T09:39:25Z</time>
      </trkpt>
      <trkpt lat="56.92508895881474" lon="-5.858937995508313">
        <ele>4.94</ele>
        <time>2023-08-29T09:39:26Z</time>
      </trkpt>
      <trkpt lat="56.926177013665438" lon="-5.859396988525987">
        <ele>0.62</ele>
        <time>2023-08-29T09:39:33Z</time>
      </trkpt>
      <trkpt lat="56.926322020590305" lon="-5.859375027939677">
        <ele>0.14</ele>
        <time>2023-08-29T09:39:34Z</time>
      </trkpt>
      <trkpt lat="56.926466021686792" lon="-5.859353989362717">
        <ele>-0.34</ele>
        <time>2023-08-29T09:39:35Z</time>
      </trkpt>
      <trkpt lat="56.927451984956861" lon="-5.858969008550048">
        <ele>-1.3</ele>
        <time>2023-08-29T09:39:42Z</time>
      </trkpt>
      <trkpt lat="56.928393021225929" lon="-5.858252020552754">
        <ele>0.62</ele>
        <time>2023-08-29T09:39:49Z</time>
      </trkpt>
      <trkpt lat="56.928529981523752" lon="-5.85820198059082">
        <ele>1.1</ele>
        <time>2023-08-29T09:39:50Z</time>
      </trkpt>
      <trkpt lat="56.928659984841943" lon="-5.85820198059082">
        <ele>1.58</ele>
        <time>2023-08-29T09:39:51Z</time>
      </trkpt>
      <trkpt lat="56.928779007866979" lon="-5.85820198059082">
        <ele>2.54</ele>
        <time>2023-08-29T09:39:52Z</time>
      </trkpt>
      <trkpt lat="56.928895013406873" lon="-5.858245985582471">
        <ele>3.02</ele>
        <time>2023-08-29T09:39:53Z</time>
      </trkpt>
      <trkpt lat="56.929010013118386" lon="-5.85832997225225">
        <ele>3.98</ele>
        <time>2023-08-29T09:39:54Z</time>
      </trkpt>
      <trkpt lat="56.929134987294674" lon="-5.858423011377454">
        <ele>4.46</ele>
        <time>2023-08-29T09:39:55Z</time>
      </trkpt>
      <trkpt lat="56.929268008098006" lon="-5.858509009703994">
        <ele>4.94</ele>
        <time>2023-08-29T09:39:56Z</time>
      </trkpt>
      <trkpt lat="56.929415026679635" lon="-5.858549997210503">
        <ele>5.42</ele>
        <time>2023-08-29T09:39:57Z</time>
      </trkpt>
      <trkpt lat="56.929571013897657" lon="-5.858592996373773">
        <ele>5.42</ele>
        <time>2023-08-29T09:39:58Z</time>
      </trkpt>
      <trkpt lat="56.930946987122297" lon="-5.858761975541711">
        <ele>8.310000000000001</ele>
        <time>2023-08-29T09:40:06Z</time>
      </trkpt>
      <trkpt lat="56.931928005069494" lon="-5.858669020235539">
        <ele>11.19</ele>
        <time>2023-08-29T09:40:12Z</time>
      </trkpt>
      <trkpt lat="56.932040993124247" lon="-5.858733979985118">
        <ele>11.67</ele>
        <time>2023-08-29T09:40:13Z</time>
      </trkpt>
      <trkpt lat="56.932162027806044" lon="-5.85880296304822">
        <ele>11.67</ele>
        <time>2023-08-29T09:40:14Z</time>
      </trkpt>
      <trkpt lat="56.932664019986987" lon="-5.859492961317301">
        <ele>10.23</ele>
        <time>2023-08-29T09:40:19Z</time>
      </trkpt>
      <trkpt lat="56.932736020535231" lon="-5.859710974618793">
        <ele>10.23</ele>
        <time>2023-08-29T09:40:20Z</time>
      </trkpt>
      <trkpt lat="56.932810032740235" lon="-5.859934017062187">
        <ele>10.23</ele>
        <time>2023-08-29T09:40:21Z</time>
      </trkpt>
      <trkpt lat="56.932953028008342" lon="-5.860360991209745">
        <ele>10.23</ele>
        <time>2023-08-29T09:40:23Z</time>
      </trkpt>
      <trkpt lat="56.933012958616018" lon="-5.8605429623276">
        <ele>10.23</ele>
        <time>2023-08-29T09:40:24Z</time>
      </trkpt>
      <trkpt lat="56.933080013841391" lon="-5.860655028373003">
        <ele>10.23</ele>
        <time>2023-08-29T09:40:25Z</time>
      </trkpt>
      <trkpt lat="56.933179004117846" lon="-5.860727028921247">
        <ele>10.710000000000001</ele>
        <time>2023-08-29T09:40:26Z</time>
      </trkpt>
      <trkpt lat="56.933279000222683" lon="-5.86079802364111">
        <ele>10.710000000000001</ele>
        <time>2023-08-29T09:40:27Z</time>
      </trkpt>
      <trkpt lat="56.933401040732861" lon="-5.86079802364111">
        <ele>11.19</ele>
        <time>2023-08-29T09:40:28Z</time>
      </trkpt>
      <trkpt lat="56.933530038222671" lon="-5.86079802364111">
        <ele>12.15</ele>
        <time>2023-08-29T09:40:29Z</time>
      </trkpt>
      <trkpt lat="56.933948965743184" lon="-5.86079802364111">
        <ele>13.6</ele>
        <time>2023-08-29T09:40:32Z</time>
      </trkpt>
      <trkpt lat="56.934086009860039" lon="-5.860868012532592">
        <ele>14.08</ele>
        <time>2023-08-29T09:40:33Z</time>
      </trkpt>
      <trkpt lat="56.934222970157862" lon="-5.860945964232087">
        <ele>14.08</ele>
        <time>2023-08-29T09:40:34Z</time>
      </trkpt>
      <trkpt lat="56.934483982622623" lon="-5.861087031662464">
        <ele>14.08</ele>
        <time>2023-08-29T09:40:36Z</time>
      </trkpt>
      <trkpt lat="56.93492503836751" lon="-5.86122902110219">
        <ele>13.119999999999999</ele>
        <time>2023-08-29T09:40:40Z</time>
      </trkpt>
      <trkpt lat="56.935030985623598" lon="-5.861202031373978">
        <ele>12.630000000000001</ele>
        <time>2023-08-29T09:40:41Z</time>
      </trkpt>
      <trkpt lat="56.935144979506731" lon="-5.861174035817385">
        <ele>12.630000000000001</ele>
        <time>2023-08-29T09:40:42Z</time>
      </trkpt>
      <trkpt lat="56.935481010004878" lon="-5.861007990315557">
        <ele>11.19</ele>
        <time>2023-08-29T09:40:45Z</time>
      </trkpt>
      <trkpt lat="56.935586035251617" lon="-5.860922997817397">
        <ele>10.23</ele>
        <time>2023-08-29T09:40:46Z</time>
      </trkpt>
      <trkpt lat="56.935659041628242" lon="-5.860776985064149">
        <ele>9.75</ele>
        <time>2023-08-29T09:40:47Z</time>
      </trkpt>
      <trkpt lat="56.935713021084666" lon="-5.860603982582688">
        <ele>9.27</ele>
        <time>2023-08-29T09:40:48Z</time>
      </trkpt>
      <trkpt lat="56.935770018026233" lon="-5.860417988151312">
        <ele>8.789999999999999</ele>
        <time>2023-08-29T09:40:49Z</time>
      </trkpt>
      <trkpt lat="56.935830032452941" lon="-5.860221013426781">
        <ele>8.789999999999999</ele>
        <time>2023-08-29T09:40:50Z</time>
      </trkpt>
      <trkpt lat="56.936053996905684" lon="-5.859623970463872">
        <ele>7.35</ele>
        <time>2023-08-29T09:40:53Z</time>
      </trkpt>
      <trkpt lat="56.936131026595831" lon="-5.859448034316301">
        <ele>6.87</ele>
        <time>2023-08-29T09:40:54Z</time>
      </trkpt>
      <trkpt lat="56.936232028529048" lon="-5.859345020726323">
        <ele>6.39</ele>
        <time>2023-08-29T09:40:55Z</time>
      </trkpt>
      <trkpt lat="56.936326995491982" lon="-5.859250975772739">
        <ele>5.91</ele>
        <time>2023-08-29T09:40:56Z</time>
      </trkpt>
      <trkpt lat="56.936425985768437" lon="-5.859238989651203">
        <ele>5.91</ele>
        <time>2023-08-29T09:40:57Z</time>
      </trkpt>
      <trkpt lat="56.936526987701654" lon="-5.859247036278248">
        <ele>5.42</ele>
        <time>2023-08-29T09:40:58Z</time>
      </trkpt>
      <trkpt lat="56.93662597797811" lon="-5.85927695967257">
        <ele>4.94</ele>
        <time>2023-08-29T09:40:59Z</time>
      </trkpt>
      <trkpt lat="56.936720022931695" lon="-5.859376033768058">
        <ele>4.94</ele>
        <time>2023-08-29T09:41:00Z</time>
      </trkpt>
      <trkpt lat="56.936815995723009" lon="-5.859477035701275">
        <ele>4.46</ele>
        <time>2023-08-29T09:41:01Z</time>
      </trkpt>
      <trkpt lat="56.936912974342704" lon="-5.859578037634492">
        <ele>3.5</ele>
        <time>2023-08-29T09:41:02Z</time>
      </trkpt>
      <trkpt lat="56.937007019296288" lon="-5.859677027910948">
        <ele>3.02</ele>
        <time>2023-08-29T09:41:03Z</time>
      </trkpt>
      <trkpt lat="56.937111038714647" lon="-5.859730001538992">
        <ele>2.54</ele>
        <time>2023-08-29T09:41:04Z</time>
      </trkpt>
      <trkpt lat="56.937216985970736" lon="-5.859738970175386">
        <ele>2.06</ele>
        <time>2023-08-29T09:41:05Z</time>
      </trkpt>
      <trkpt lat="56.937325028702617" lon="-5.859753973782063">
        <ele>2.06</ele>
        <time>2023-08-29T09:41:06Z</time>
      </trkpt>
      <trkpt lat="56.937429970130324" lon="-5.859809964895248">
        <ele>1.58</ele>
        <time>2023-08-29T09:41:07Z</time>
      </trkpt>
      <trkpt lat="56.937532983720303" lon="-5.859865033999085">
        <ele>1.58</ele>
        <time>2023-08-29T09:41:08Z</time>
      </trkpt>
      <trkpt lat="56.937644965946674" lon="-5.859914990141988">
        <ele>1.58</ele>
        <time>2023-08-29T09:41:09Z</time>
      </trkpt>
      <trkpt lat="56.937758037820458" lon="-5.859874002635479">
        <ele>1.58</ele>
        <time>2023-08-29T09:41:10Z</time>
      </trkpt>
      <trkpt lat="56.937873959541321" lon="-5.859831003472209">
        <ele>1.58</ele>
        <time>2023-08-29T09:41:11Z</time>
      </trkpt>
      <trkpt lat="56.938104964792728" lon="-5.85974701680243">
        <ele>2.54</ele>
        <time>2023-08-29T09:41:13Z</time>
      </trkpt>
      <trkpt lat="56.938188029453158" lon="-5.859688008204103">
        <ele>3.02</ele>
        <time>2023-08-29T09:41:14Z</time>
      </trkpt>
      <trkpt lat="56.938289031386375" lon="-5.859587006270886">
        <ele>3.02</ele>
        <time>2023-08-29T09:41:15Z</time>
      </trkpt>
      <trkpt lat="56.938382992520928" lon="-5.859435964375734">
        <ele>3.02</ele>
        <time>2023-08-29T09:41:16Z</time>
      </trkpt>
      <trkpt lat="56.938483994454145" lon="-5.85927402600646">
        <ele>3.02</ele>
        <time>2023-08-29T09:41:17Z</time>
      </trkpt>
      <trkpt lat="56.939230989664793" lon="-5.858086980879307">
        <ele>3.02</ele>
        <time>2023-08-29T09:41:24Z</time>
      </trkpt>
      <trkpt lat="56.939364010468125" lon="-5.857726978138089">
        <ele>2.54</ele>
        <time>2023-08-29T09:41:26Z</time>
      </trkpt>
      <trkpt lat="56.939409021288157" lon="-5.857536038383842">
        <ele>2.54</ele>
        <time>2023-08-29T09:41:27Z</time>
      </trkpt>
      <trkpt lat="56.939872959628701" lon="-5.855397982522845">
        <ele>3.5</ele>
        <time>2023-08-29T09:41:38Z</time>
      </trkpt>
      <trkpt lat="56.939915958791971" lon="-5.855022976174951">
        <ele>3.98</ele>
        <time>2023-08-29T09:41:41Z</time>
      </trkpt>
      <trkpt lat="56.939993994310498" lon="-5.853782035410404">
        <ele>3.5</ele>
        <time>2023-08-29T09:41:48Z</time>
      </trkpt>
      <trkpt lat="56.940034981817007" lon="-5.853627976030111">
        <ele>3.02</ele>
        <time>2023-08-29T09:41:49Z</time>
      </trkpt>
      <trkpt lat="56.940078986808658" lon="-5.853460002690554">
        <ele>3.02</ele>
        <time>2023-08-29T09:41:50Z</time>
      </trkpt>
      <trkpt lat="56.940144030377269" lon="-5.853303009644151">
        <ele>3.02</ele>
        <time>2023-08-29T09:41:51Z</time>
      </trkpt>
      <trkpt lat="56.940206978470087" lon="-5.853148028254509">
        <ele>3.02</ele>
        <time>2023-08-29T09:41:52Z</time>
      </trkpt>
      <trkpt lat="56.940271016210318" lon="-5.852992963045836">
        <ele>3.02</ele>
        <time>2023-08-29T09:41:53Z</time>
      </trkpt>
      <trkpt lat="56.940359026193619" lon="-5.852888021618128">
        <ele>3.02</ele>
        <time>2023-08-29T09:41:54Z</time>
      </trkpt>
      <trkpt lat="56.940448964014649" lon="-5.852784002199769">
        <ele>2.54</ele>
        <time>2023-08-29T09:41:55Z</time>
      </trkpt>
      <trkpt lat="56.940538985654712" lon="-5.85267998278141">
        <ele>2.54</ele>
        <time>2023-08-29T09:41:56Z</time>
      </trkpt>
      <trkpt lat="56.940635964274406" lon="-5.852628014981747">
        <ele>2.54</ele>
        <time>2023-08-29T09:41:57Z</time>
      </trkpt>
      <trkpt lat="56.940740989521146" lon="-5.852580992504954">
        <ele>2.54</ele>
        <time>2023-08-29T09:41:58Z</time>
      </trkpt>
      <trkpt lat="56.940846014767885" lon="-5.852533970028162">
        <ele>2.54</ele>
        <time>2023-08-29T09:41:59Z</time>
      </trkpt>
      <trkpt lat="56.940980963408947" lon="-5.852473033592105">
        <ele>2.54</ele>
        <time>2023-08-29T09:42:00Z</time>
      </trkpt>
      <trkpt lat="56.941047012805939" lon="-5.852500023320317">
        <ele>2.54</ele>
        <time>2023-08-29T09:42:01Z</time>
      </trkpt>
      <trkpt lat="56.941137034446001" lon="-5.852536987513304">
        <ele>2.54</ele>
        <time>2023-08-29T09:42:02Z</time>
      </trkpt>
      <trkpt lat="56.941223032772541" lon="-5.852573029696941">
        <ele>2.06</ele>
        <time>2023-08-29T09:42:03Z</time>
      </trkpt>
      <trkpt lat="56.94221100769937" lon="-5.852967984974384">
        <ele>0.14</ele>
        <time>2023-08-29T09:42:15Z</time>
      </trkpt>
      <trkpt lat="56.94234000518918" lon="-5.853014001622796">
        <ele>-1.3</ele>
        <time>2023-08-29T09:42:21Z</time>
      </trkpt>
      <trkpt lat="56.94234000518918" lon="-5.853014001622796">
        <ele>-1.3</ele>
        <time>2023-08-29T09:43:00Z</time>
      </trkpt>
      <trkpt lat="56.94234000518918" lon="-5.853014001622796">
        <ele>-1.3</ele>
        <time>2023-08-29T09:44:05Z</time>
      </trkpt>
      <trkpt lat="56.94234000518918" lon="-5.853014001622796">
        <ele>-1.79</ele>
        <time>2023-08-29T09:45:01Z</time>
      </trkpt>
      <trkpt lat="56.942432960495353" lon="-5.853048032149673">
        <ele>-1.3</ele>
        <time>2023-08-29T09:45:51Z</time>
      </trkpt>
      <trkpt lat="56.942966971546412" lon="-5.853239977732301">
        <ele>-1.3</ele>
        <time>2023-08-29T09:45:58Z</time>
      </trkpt>
      <trkpt lat="56.943082977086306" lon="-5.853245006874204">
        <ele>-1.3</ele>
        <time>2023-08-29T09:45:59Z</time>
      </trkpt>
      <trkpt lat="56.94315698929131" lon="-5.853222040459514">
        <ele>-1.3</ele>
        <time>2023-08-29T09:46:00Z</time>
      </trkpt>
      <trkpt lat="56.94420799612999" lon="-5.852949963882566">
        <ele>-0.82</ele>
        <time>2023-08-29T09:46:10Z</time>
      </trkpt>
      <trkpt lat="56.944778971374035" lon="-5.852998998016119">
        <ele>0.14</ele>
        <time>2023-08-29T09:46:15Z</time>
      </trkpt>
      <trkpt lat="56.944876033812761" lon="-5.853047026321292">
        <ele>0.14</ele>
        <time>2023-08-29T09:46:16Z</time>
      </trkpt>
      <trkpt lat="56.944966977462173" lon="-5.853121038526297">
        <ele>0.62</ele>
        <time>2023-08-29T09:46:17Z</time>
      </trkpt>
      <trkpt lat="56.945611964911222" lon="-5.854331972077489">
        <ele>1.58</ele>
        <time>2023-08-29T09:46:26Z</time>
      </trkpt>
      <trkpt lat="56.945740962401032" lon="-5.854589967057109">
        <ele>0.62</ele>
        <time>2023-08-29T09:46:28Z</time>
      </trkpt>
      <trkpt lat="56.945810029283166" lon="-5.854666996747255">
        <ele>0.14</ele>
        <time>2023-08-29T09:46:29Z</time>
      </trkpt>
      <trkpt lat="56.945872977375984" lon="-5.854703960940242">
        <ele>-0.34</ele>
        <time>2023-08-29T09:46:30Z</time>
      </trkpt>
      <trkpt lat="56.94597196765244" lon="-5.854650987312198">
        <ele>-0.34</ele>
        <time>2023-08-29T09:46:31Z</time>
      </trkpt>
      <trkpt lat="56.946066012606025" lon="-5.854601031169295">
        <ele>-0.34</ele>
        <time>2023-08-29T09:46:32Z</time>
      </trkpt>
      <trkpt lat="56.946168020367622" lon="-5.854545962065458">
        <ele>-0.34</ele>
        <time>2023-08-29T09:46:33Z</time>
      </trkpt>
      <trkpt lat="56.946282014250755" lon="-5.854486031457782">
        <ele>-0.34</ele>
        <time>2023-08-29T09:46:34Z</time>
      </trkpt>
      <trkpt lat="56.947375014424324" lon="-5.854119993746281">
        <ele>1.58</ele>
        <time>2023-08-29T09:46:43Z</time>
      </trkpt>
      <trkpt lat="56.947909025475383" lon="-5.854047993198037">
        <ele>0.62</ele>
        <time>2023-08-29T09:46:48Z</time>
      </trkpt>
      <trkpt lat="56.947995023801923" lon="-5.854013040661812">
        <ele>0.62</ele>
        <time>2023-08-29T09:46:49Z</time>
      </trkpt>
      <trkpt lat="56.948069036006927" lon="-5.853915978223085">
        <ele>0.62</ele>
        <time>2023-08-29T09:46:50Z</time>
      </trkpt>
      <trkpt lat="56.948146987706423" lon="-5.853811036795378">
        <ele>0.62</ele>
        <time>2023-08-29T09:46:51Z</time>
      </trkpt>
      <trkpt lat="56.948232986032963" lon="-5.853696959093213">
        <ele>0.62</ele>
        <time>2023-08-29T09:46:52Z</time>
      </trkpt>
      <trkpt lat="56.948331976309419" lon="-5.85362596437335">
        <ele>1.1</ele>
        <time>2023-08-29T09:46:53Z</time>
      </trkpt>
      <trkpt lat="56.948432978242636" lon="-5.853554969653487">
        <ele>1.1</ele>
        <time>2023-08-29T09:46:54Z</time>
      </trkpt>
      <trkpt lat="56.948530040681362" lon="-5.853486992418766">
        <ele>1.1</ele>
        <time>2023-08-29T09:46:55Z</time>
      </trkpt>
      <trkpt lat="56.948598017916083" lon="-5.853437958285213">
        <ele>1.58</ele>
        <time>2023-08-29T09:46:56Z</time>
      </trkpt>
      <trkpt lat="56.94865501485765" lon="-5.853316001594067">
        <ele>1.58</ele>
        <time>2023-08-29T09:46:57Z</time>
      </trkpt>
      <trkpt lat="56.948705976828933" lon="-5.853206031024456">
        <ele>1.58</ele>
        <time>2023-08-29T09:46:58Z</time>
      </trkpt>
      <trkpt lat="56.948760040104389" lon="-5.853089019656181">
        <ele>1.58</ele>
        <time>2023-08-29T09:46:59Z</time>
      </trkpt>
      <trkpt lat="56.948817959055305" lon="-5.852963961660862">
        <ele>1.58</ele>
        <time>2023-08-29T09:47:00Z</time>
      </trkpt>
      <trkpt lat="56.948876967653632" lon="-5.852836975827813">
        <ele>1.58</ele>
        <time>2023-08-29T09:47:01Z</time>
      </trkpt>
      <trkpt lat="56.948932958766818" lon="-5.852715019136667">
        <ele>1.58</ele>
        <time>2023-08-29T09:47:02Z</time>
      </trkpt>
      <trkpt lat="56.948985010385513" lon="-5.852603036910296">
        <ele>1.58</ele>
        <time>2023-08-29T09:47:03Z</time>
      </trkpt>
      <trkpt lat="56.949013005942106" lon="-5.852477978914976">
        <ele>1.1</ele>
        <time>2023-08-29T09:47:04Z</time>
      </trkpt>
      <trkpt lat="56.949028009548783" lon="-5.852321991696954">
        <ele>1.1</ele>
        <time>2023-08-29T09:47:05Z</time>
      </trkpt>
      <trkpt lat="56.949045024812222" lon="-5.852142032235861">
        <ele>1.1</ele>
        <time>2023-08-29T09:47:06Z</time>
      </trkpt>
      <trkpt lat="56.94906497374177" lon="-5.851937010884285">
        <ele>1.1</ele>
        <time>2023-08-29T09:47:07Z</time>
      </trkpt>
      <trkpt lat="56.949244011193514" lon="-5.85001403465867">
        <ele>6.87</ele>
        <time>2023-08-29T09:47:15Z</time>
      </trkpt>
      <trkpt lat="56.94960200227797" lon="-5.848309993743897">
        <ele>16</ele>
        <time>2023-08-29T09:47:24Z</time>
      </trkpt>
      <trkpt lat="56.949647013098001" lon="-5.848212009295821">
        <ele>16.960000000000001</ele>
        <time>2023-08-29T09:47:25Z</time>
      </trkpt>
      <trkpt lat="56.949721025303006" lon="-5.848165992647409">
        <ele>17.920000000000002</ele>
        <time>2023-08-29T09:47:26Z</time>
      </trkpt>
      <trkpt lat="56.949806017801166" lon="-5.848117964342237">
        <ele>19.359999999999999</ele>
        <time>2023-08-29T09:47:27Z</time>
      </trkpt>
      <trkpt lat="56.949915988370776" lon="-5.848128022626042">
        <ele>20.32</ele>
        <time>2023-08-29T09:47:28Z</time>
      </trkpt>
      <trkpt lat="56.950035011395812" lon="-5.848153000697494">
        <ele>21.289999999999999</ele>
        <time>2023-08-29T09:47:29Z</time>
      </trkpt>
      <trkpt lat="56.950157973915339" lon="-5.848235981538892">
        <ele>22.25</ele>
        <time>2023-08-29T09:47:30Z</time>
      </trkpt>
      <trkpt lat="56.95028998889029" lon="-5.848326003178954">
        <ele>22.73</ele>
        <time>2023-08-29T09:47:31Z</time>
      </trkpt>
      <trkpt lat="56.950952997431159" lon="-5.848720958456397">
        <ele>24.649999999999999</ele>
        <time>2023-08-29T09:47:36Z</time>
      </trkpt>
      <trkpt lat="56.951086018234491" lon="-5.848780972883105">
        <ele>25.129999999999999</ele>
        <time>2023-08-29T09:47:37Z</time>
      </trkpt>
      <trkpt lat="56.952047003433108" lon="-5.848698997870088">
        <ele>22.73</ele>
        <time>2023-08-29T09:47:45Z</time>
      </trkpt>
      <trkpt lat="56.952128978446126" lon="-5.848608976230025">
        <ele>22.73</ele>
        <time>2023-08-29T09:47:46Z</time>
      </trkpt>
      <trkpt lat="56.952216988429427" lon="-5.848514009267092">
        <ele>22.73</ele>
        <time>2023-08-29T09:47:47Z</time>
      </trkpt>
      <trkpt lat="56.952278008684516" lon="-5.848391968756914">
        <ele>22.73</ele>
        <time>2023-08-29T09:47:48Z</time>
      </trkpt>
      <trkpt lat="56.952336011454463" lon="-5.848234975710511">
        <ele>22.25</ele>
        <time>2023-08-29T09:47:49Z</time>
      </trkpt>
      <trkpt lat="56.952397031709552" lon="-5.848067002370954">
        <ele>22.25</ele>
        <time>2023-08-29T09:47:50Z</time>
      </trkpt>
      <trkpt lat="56.952455034479499" lon="-5.847878996282816">
        <ele>22.25</ele>
        <time>2023-08-29T09:47:51Z</time>
      </trkpt>
      <trkpt lat="56.95271797478199" lon="-5.846957992762327">
        <ele>22.25</ele>
        <time>2023-08-29T09:47:56Z</time>
      </trkpt>
      <trkpt lat="56.952799027785659" lon="-5.846894960850477">
        <ele>22.25</ele>
        <time>2023-08-29T09:47:57Z</time>
      </trkpt>
      <trkpt lat="56.952873039990664" lon="-5.846837041899562">
        <ele>22.25</ele>
        <time>2023-08-29T09:47:58Z</time>
      </trkpt>
      <trkpt lat="56.952950991690159" lon="-5.846800999715924">
        <ele>22.25</ele>
        <time>2023-08-29T09:47:59Z</time>
      </trkpt>
      <trkpt lat="56.953045036643744" lon="-5.846783984452486">
        <ele>22.25</ele>
        <time>2023-08-29T09:48:00Z</time>
      </trkpt>
      <trkpt lat="56.95404801517725" lon="-5.846721958369017">
        <ele>24.170000000000002</ele>
        <time>2023-08-29T09:48:09Z</time>
      </trkpt>
      <trkpt lat="56.954097971320152" lon="-5.846651969477534">
        <ele>24.649999999999999</ele>
        <time>2023-08-29T09:48:10Z</time>
      </trkpt>
      <trkpt lat="56.954164020717144" lon="-5.846558008342981">
        <ele>25.129999999999999</ele>
        <time>2023-08-29T09:48:11Z</time>
      </trkpt>
      <trkpt lat="56.954235015437007" lon="-5.846458012238145">
        <ele>25.129999999999999</ele>
        <time>2023-08-29T09:48:12Z</time>
      </trkpt>
      <trkpt lat="56.954299975186586" lon="-5.846365978941321">
        <ele>25.609999999999999</ele>
        <time>2023-08-29T09:48:13Z</time>
      </trkpt>
      <trkpt lat="56.954324031248689" lon="-5.846266988664866">
        <ele>25.609999999999999</ele>
        <time>2023-08-29T09:48:14Z</time>
      </trkpt>
      <trkpt lat="56.95434900932014" lon="-5.846143020316958">
        <ele>26.09</ele>
        <time>2023-08-29T09:48:15Z</time>
      </trkpt>
      <trkpt lat="56.954336017370224" lon="-5.845974963158369">
        <ele>25.609999999999999</ele>
        <time>2023-08-29T09:48:16Z</time>
      </trkpt>
      <trkpt lat="56.954322019591928" lon="-5.845786035060883">
        <ele>25.609999999999999</ele>
        <time>2023-08-29T09:48:17Z</time>
      </trkpt>
      <trkpt lat="56.95422001183033" lon="-5.844367984682322">
        <ele>26.57</ele>
        <time>2023-08-29T09:48:23Z</time>
      </trkpt>
      <trkpt lat="56.954212971031666" lon="-5.843952996656299">
        <ele>27.050000000000001</ele>
        <time>2023-08-29T09:48:25Z</time>
      </trkpt>
      <trkpt lat="56.954236021265388" lon="-5.843773037195206">
        <ele>27.530000000000001</ele>
        <time>2023-08-29T09:48:26Z</time>
      </trkpt>
      <trkpt lat="56.954260999336839" lon="-5.843581007793546">
        <ele>27.530000000000001</ele>
        <time>2023-08-29T09:48:27Z</time>
      </trkpt>
      <trkpt lat="56.954327970743179" lon="-5.843430971726775">
        <ele>27.530000000000001</ele>
        <time>2023-08-29T09:48:28Z</time>
      </trkpt>
      <trkpt lat="56.954400977119803" lon="-5.843276996165514">
        <ele>28.02</ele>
        <time>2023-08-29T09:48:29Z</time>
      </trkpt>
      <trkpt lat="56.95447901263833" lon="-5.843118997290731">
        <ele>28.02</ele>
        <time>2023-08-29T09:48:30Z</time>
      </trkpt>
      <trkpt lat="56.954568028450012" lon="-5.842955969274044">
        <ele>28.5</ele>
        <time>2023-08-29T09:48:31Z</time>
      </trkpt>
      <trkpt lat="56.954919984564185" lon="-5.842316010966897">
        <ele>30.420000000000002</ele>
        <time>2023-08-29T09:48:35Z</time>
      </trkpt>
      <trkpt lat="56.955005982890725" lon="-5.842202017083764">
        <ele>30.899999999999999</ele>
        <time>2023-08-29T09:48:36Z</time>
      </trkpt>
      <trkpt lat="56.955082006752491" lon="-5.842106966301799">
        <ele>31.379999999999999</ele>
        <time>2023-08-29T09:48:37Z</time>
      </trkpt>
      <trkpt lat="56.955174962058663" lon="-5.842061033472419">
        <ele>31.859999999999999</ele>
        <time>2023-08-29T09:48:38Z</time>
      </trkpt>
      <trkpt lat="56.9552749581635" lon="-5.842066984623671">
        <ele>31.859999999999999</ele>
        <time>2023-08-29T09:48:39Z</time>
      </trkpt>
      <trkpt lat="56.955386018380523" lon="-5.842104032635689">
        <ele>31.859999999999999</ele>
        <time>2023-08-29T09:48:40Z</time>
      </trkpt>
      <trkpt lat="56.955505963414907" lon="-5.842144014313817">
        <ele>31.379999999999999</ele>
        <time>2023-08-29T09:48:41Z</time>
      </trkpt>
      <trkpt lat="56.955633033066988" lon="-5.842186007648706">
        <ele>31.379999999999999</ele>
        <time>2023-08-29T09:48:42Z</time>
      </trkpt>
      <trkpt lat="56.956928037106991" lon="-5.842451965436339">
        <ele>22.73</ele>
        <time>2023-08-29T09:48:51Z</time>
      </trkpt>
      <trkpt lat="56.957047982141376" lon="-5.842423969879746">
        <ele>21.77</ele>
        <time>2023-08-29T09:48:52Z</time>
      </trkpt>
      <trkpt lat="56.957160970196128" lon="-5.842339983209968">
        <ele>21.289999999999999</ele>
        <time>2023-08-29T09:48:53Z</time>
      </trkpt>
      <trkpt lat="56.957274964079261" lon="-5.842255996540189">
        <ele>20.809999999999999</ele>
        <time>2023-08-29T09:48:54Z</time>
      </trkpt>
      <trkpt lat="56.957389041781425" lon="-5.842171004042029">
        <ele>20.809999999999999</ele>
        <time>2023-08-29T09:48:55Z</time>
      </trkpt>
      <trkpt lat="56.957500018179417" lon="-5.842090034857392">
        <ele>20.32</ele>
        <time>2023-08-29T09:48:56Z</time>
      </trkpt>
      <trkpt lat="56.958219017833471" lon="-5.841602040454745">
        <ele>22.73</ele>
        <time>2023-08-29T09:49:04Z</time>
      </trkpt>
      <trkpt lat="56.959195006638765" lon="-5.841324012726545">
        <ele>28.02</ele>
        <time>2023-08-29T09:49:13Z</time>
      </trkpt>
      <trkpt lat="56.959319980815053" lon="-5.841238014400005">
        <ele>28.02</ele>
        <time>2023-08-29T09:49:15Z</time>
      </trkpt>
      <trkpt lat="56.959378989413381" lon="-5.841158973053098">
        <ele>27.530000000000001</ele>
        <time>2023-08-29T09:49:16Z</time>
      </trkpt>
      <trkpt lat="56.959405979141593" lon="-5.841002985835075">
        <ele>26.57</ele>
        <time>2023-08-29T09:49:17Z</time>
      </trkpt>
      <trkpt lat="56.959427017718554" lon="-5.84079603664577">
        <ele>25.129999999999999</ele>
        <time>2023-08-29T09:49:18Z</time>
      </trkpt>
      <trkpt lat="56.959449984133244" lon="-5.840567965060473">
        <ele>24.170000000000002</ele>
        <time>2023-08-29T09:49:19Z</time>
      </trkpt>
      <trkpt lat="56.959597002714872" lon="-5.83862797357142">
        <ele>21.289999999999999</ele>
        <time>2023-08-29T09:49:27Z</time>
      </trkpt>
      <trkpt lat="56.959574958309531" lon="-5.838230000808835">
        <ele>21.77</ele>
        <time>2023-08-29T09:49:29Z</time>
      </trkpt>
      <trkpt lat="56.959548974409699" lon="-5.838037971407175">
        <ele>21.77</ele>
        <time>2023-08-29T09:49:30Z</time>
      </trkpt>
      <trkpt lat="56.959456019103527" lon="-5.837061982601881">
        <ele>22.25</ele>
        <time>2023-08-29T09:49:35Z</time>
      </trkpt>
      <trkpt lat="56.959465993568301" lon="-5.836904989555478">
        <ele>21.77</ele>
        <time>2023-08-29T09:49:36Z</time>
      </trkpt>
      <trkpt lat="56.959493989124894" lon="-5.836753025650978">
        <ele>20.809999999999999</ele>
        <time>2023-08-29T09:49:37Z</time>
      </trkpt>
      <trkpt lat="56.959519973024726" lon="-5.836615981534123">
        <ele>20.32</ele>
        <time>2023-08-29T09:49:38Z</time>
      </trkpt>
      <trkpt lat="56.959576969966292" lon="-5.83652101457119">
        <ele>19.84</ele>
        <time>2023-08-29T09:49:39Z</time>
      </trkpt>
      <trkpt lat="56.959646036848426" lon="-5.836406014859676">
        <ele>19.84</ele>
        <time>2023-08-29T09:49:40Z</time>
      </trkpt>
      <trkpt lat="56.959719965234399" lon="-5.836304007098079">
        <ele>19.84</ele>
        <time>2023-08-29T09:49:41Z</time>
      </trkpt>
      <trkpt lat="56.960083991289139" lon="-5.835802014917135">
        <ele>19.84</ele>
        <time>2023-08-29T09:49:45Z</time>
      </trkpt>
      <trkpt lat="56.960182981565595" lon="-5.835686009377241">
        <ele>19.84</ele>
        <time>2023-08-29T09:49:46Z</time>
      </trkpt>
      <trkpt lat="56.960297981277108" lon="-5.835648039355874">
        <ele>20.32</ele>
        <time>2023-08-29T09:49:47Z</time>
      </trkpt>
      <trkpt lat="56.960421027615666" lon="-5.835606968030334">
        <ele>20.32</ele>
        <time>2023-08-29T09:49:48Z</time>
      </trkpt>
      <trkpt lat="56.960549019277096" lon="-5.835564974695444">
        <ele>20.32</ele>
        <time>2023-08-29T09:49:49Z</time>
      </trkpt>
      <trkpt lat="56.960682962089777" lon="-5.835517030209303">
        <ele>20.809999999999999</ele>
        <time>2023-08-29T09:49:50Z</time>
      </trkpt>
      <trkpt lat="56.96158803999424" lon="-5.834963992238045">
        <ele>20.809999999999999</ele>
        <time>2023-08-29T09:49:57Z</time>
      </trkpt>
      <trkpt lat="56.962537039071321" lon="-5.834089005365968">
        <ele>20.32</ele>
        <time>2023-08-29T09:50:05Z</time>
      </trkpt>
      <trkpt lat="56.962622031569481" lon="-5.833981968462467">
        <ele>20.32</ele>
        <time>2023-08-29T09:50:06Z</time>
      </trkpt>
      <trkpt lat="56.962684979662299" lon="-5.8338369615376">
        <ele>20.32</ele>
        <time>2023-08-29T09:50:07Z</time>
      </trkpt>
      <trkpt lat="56.962716998532414" lon="-5.833678040653467">
        <ele>20.32</ele>
        <time>2023-08-29T09:50:08Z</time>
      </trkpt>
      <trkpt lat="56.962741976603866" lon="-5.833505960181356">
        <ele>20.32</ele>
        <time>2023-08-29T09:50:09Z</time>
      </trkpt>
      <trkpt lat="56.962751029059291" lon="-5.833327006548643">
        <ele>20.32</ele>
        <time>2023-08-29T09:50:10Z</time>
      </trkpt>
      <trkpt lat="56.962759997695684" lon="-5.833141012117267">
        <ele>20.809999999999999</ele>
        <time>2023-08-29T09:50:11Z</time>
      </trkpt>
      <trkpt lat="56.962769972160459" lon="-5.832944037392736">
        <ele>21.289999999999999</ele>
        <time>2023-08-29T09:50:12Z</time>
      </trkpt>
      <trkpt lat="56.962781958281994" lon="-5.832710014656186">
        <ele>22.25</ele>
        <time>2023-08-29T09:50:13Z</time>
      </trkpt>
      <trkpt lat="56.962824035435915" lon="-5.832581017166376">
        <ele>22.73</ele>
        <time>2023-08-29T09:50:14Z</time>
      </trkpt>
      <trkpt lat="56.962883966043591" lon="-5.832395022735">
        <ele>23.210000000000001</ele>
        <time>2023-08-29T09:50:15Z</time>
      </trkpt>
      <trkpt lat="56.962948003783822" lon="-5.832198970019817">
        <ele>23.690000000000001</ele>
        <time>2023-08-29T09:50:16Z</time>
      </trkpt>
      <trkpt lat="56.963070966303349" lon="-5.831822035834193">
        <ele>24.170000000000002</ele>
        <time>2023-08-29T09:50:18Z</time>
      </trkpt>
      <trkpt lat="56.963088987395167" lon="-5.831634029746056">
        <ele>24.170000000000002</ele>
        <time>2023-08-29T09:50:19Z</time>
      </trkpt>
      <trkpt lat="56.963098039850593" lon="-5.831457003951073">
        <ele>23.210000000000001</ele>
        <time>2023-08-29T09:50:20Z</time>
      </trkpt>
      <trkpt lat="56.96309401653707" lon="-5.831264974549413">
        <ele>22.25</ele>
        <time>2023-08-29T09:50:21Z</time>
      </trkpt>
      <trkpt lat="56.963066020980477" lon="-5.831061964854598">
        <ele>20.809999999999999</ele>
        <time>2023-08-29T09:50:22Z</time>
      </trkpt>
      <trkpt lat="56.962860999628901" lon="-5.829631006345153">
        <ele>18.399999999999999</ele>
        <time>2023-08-29T09:50:30Z</time>
      </trkpt>
      <trkpt lat="56.962845996022224" lon="-5.829535033553839">
        <ele>18.399999999999999</ele>
        <time>2023-08-29T09:50:37Z</time>
      </trkpt>
      <trkpt lat="56.962744994089007" lon="-5.829581972211599">
        <ele>26.57</ele>
        <time>2023-08-29T09:52:24Z</time>
      </trkpt>
      <trkpt lat="56.962781958281994" lon="-5.829418022185564">
        <ele>28.02</ele>
        <time>2023-08-29T09:52:53Z</time>
      </trkpt>
      <trkpt lat="56.962812971323729" lon="-5.829396983608604">
        <ele>26.09</ele>
        <time>2023-08-29T09:53:38Z</time>
      </trkpt>
      <trkpt lat="56.962780030444264" lon="-5.829416010528803">
        <ele>27.530000000000001</ele>
        <time>2023-08-29T09:54:32Z</time>
      </trkpt>
      <trkpt lat="56.962785981595516" lon="-5.829422967508435">
        <ele>27.530000000000001</ele>
        <time>2023-08-29T09:55:17Z</time>
      </trkpt>
      <trkpt lat="56.962785981595516" lon="-5.829422967508435">
        <ele>27.530000000000001</ele>
        <time>2023-08-29T09:55:20Z</time>
      </trkpt>
      <trkpt lat="56.962767960503697" lon="-5.829347027465701">
        <ele>26.57</ele>
        <time>2023-08-29T09:55:22Z</time>
      </trkpt>
      <trkpt lat="56.96270601823926" lon="-5.829197997227311">
        <ele>26.57</ele>
        <time>2023-08-29T09:55:24Z</time>
      </trkpt>
      <trkpt lat="56.962662013247609" lon="-5.829091966152191">
        <ele>26.09</ele>
        <time>2023-08-29T09:55:25Z</time>
      </trkpt>
      <trkpt lat="56.962611973285675" lon="-5.828986018896103">
        <ele>25.609999999999999</ele>
        <time>2023-08-29T09:55:26Z</time>
      </trkpt>
      <trkpt lat="56.962553970515728" lon="-5.828886022791266">
        <ele>25.129999999999999</ele>
        <time>2023-08-29T09:55:27Z</time>
      </trkpt>
      <trkpt lat="56.962498985230923" lon="-5.82878896035254">
        <ele>24.649999999999999</ele>
        <time>2023-08-29T09:55:28Z</time>
      </trkpt>
      <trkpt lat="56.962442994117737" lon="-5.828691981732845">
        <ele>24.170000000000002</ele>
        <time>2023-08-29T09:55:29Z</time>
      </trkpt>
      <trkpt lat="56.962389014661312" lon="-5.828599026426673">
        <ele>23.690000000000001</ele>
        <time>2023-08-29T09:55:30Z</time>
      </trkpt>
      <trkpt lat="56.962223974987864" lon="-5.828312030062079">
        <ele>22.25</ele>
        <time>2023-08-29T09:55:33Z</time>
      </trkpt>
      <trkpt lat="56.962065976113081" lon="-5.827996032312512">
        <ele>19.359999999999999</ele>
        <time>2023-08-29T09:55:37Z</time>
      </trkpt>
      <trkpt lat="56.96199799887836" lon="-5.827858988195658">
        <ele>18.399999999999999</ele>
        <time>2023-08-29T09:55:39Z</time>
      </trkpt>
      <trkpt lat="56.961973020806909" lon="-5.827810037881136">
        <ele>17.920000000000002</ele>
        <time>2023-08-29T09:55:40Z</time>
      </trkpt>
      <trkpt lat="56.961973020806909" lon="-5.827810037881136">
        <ele>17.440000000000001</ele>
        <time>2023-08-29T09:55:48Z</time>
      </trkpt>
      <trkpt lat="56.961928009986877" lon="-5.827720016241074">
        <ele>16.960000000000001</ele>
        <time>2023-08-29T09:56:01Z</time>
      </trkpt>
      <trkpt lat="56.961880987510085" lon="-5.82762697711587">
        <ele>16.48</ele>
        <time>2023-08-29T09:56:02Z</time>
      </trkpt>
      <trkpt lat="56.961573958396912" lon="-5.826932033523917">
        <ele>15.039999999999999</ele>
        <time>2023-08-29T09:56:07Z</time>
      </trkpt>
      <trkpt lat="56.961447978392243" lon="-5.826392993330956">
        <ele>15.039999999999999</ele>
        <time>2023-08-29T09:56:10Z</time>
      </trkpt>
      <trkpt lat="56.96143900975585" lon="-5.826175985857844">
        <ele>15.039999999999999</ele>
        <time>2023-08-29T09:56:11Z</time>
      </trkpt>
      <trkpt lat="56.96141998283565" lon="-5.82522296346724">
        <ele>15.52</ele>
        <time>2023-08-29T09:56:15Z</time>
      </trkpt>
      <trkpt lat="56.961410008370876" lon="-5.824560960754752">
        <ele>16</ele>
        <time>2023-08-29T09:56:18Z</time>
      </trkpt>
      <trkpt lat="56.961389975622296" lon="-5.824398016557097">
        <ele>16</ele>
        <time>2023-08-29T09:56:19Z</time>
      </trkpt>
      <trkpt lat="56.961343958973885" lon="-5.824271030724049">
        <ele>15.52</ele>
        <time>2023-08-29T09:56:20Z</time>
      </trkpt>
      <trkpt lat="56.96126701310277" lon="-5.824138009920716">
        <ele>15.039999999999999</ele>
        <time>2023-08-29T09:56:21Z</time>
      </trkpt>
      <trkpt lat="56.961174979805946" lon="-5.824014041572809">
        <ele>14.08</ele>
        <time>2023-08-29T09:56:22Z</time>
      </trkpt>
      <trkpt lat="56.961080012843013" lon="-5.823884038254619">
        <ele>13.6</ele>
        <time>2023-08-29T09:56:23Z</time>
      </trkpt>
      <trkpt lat="56.960998037829995" lon="-5.823732996359468">
        <ele>12.630000000000001</ele>
        <time>2023-08-29T09:56:24Z</time>
      </trkpt>
      <trkpt lat="56.960514988750219" lon="-5.822267001494765">
        <ele>8.310000000000001</ele>
        <time>2023-08-29T09:56:32Z</time>
      </trkpt>
      <trkpt lat="56.960311979055405" lon="-5.821454962715507">
        <ele>7.35</ele>
        <time>2023-08-29T09:56:37Z</time>
      </trkpt>
      <trkpt lat="56.960293035954237" lon="-5.821315990760922">
        <ele>7.35</ele>
        <time>2023-08-29T09:56:38Z</time>
      </trkpt>
      <trkpt lat="56.960285995155573" lon="-5.821166960522533">
        <ele>7.83</ele>
        <time>2023-08-29T09:56:39Z</time>
      </trkpt>
      <trkpt lat="56.960274009034038" lon="-5.820877030491829">
        <ele>8.789999999999999</ele>
        <time>2023-08-29T09:56:41Z</time>
      </trkpt>
      <trkpt lat="56.960249030962586" lon="-5.820735041052103">
        <ele>9.27</ele>
        <time>2023-08-29T09:56:42Z</time>
      </trkpt>
      <trkpt lat="56.96021500043571" lon="-5.820634039118886">
        <ele>10.23</ele>
        <time>2023-08-29T09:56:43Z</time>
      </trkpt>
      <trkpt lat="56.960185999050736" lon="-5.820548040792346">
        <ele>10.710000000000001</ele>
        <time>2023-08-29T09:56:44Z</time>
      </trkpt>
      <trkpt lat="56.960140988230705" lon="-5.820542005822063">
        <ele>11.67</ele>
        <time>2023-08-29T09:56:45Z</time>
      </trkpt>
      <trkpt lat="56.960079967975616" lon="-5.820539994165301">
        <ele>12.630000000000001</ele>
        <time>2023-08-29T09:56:46Z</time>
      </trkpt>
      <trkpt lat="56.960008973255754" lon="-5.82053798250854">
        <ele>13.6</ele>
        <time>2023-08-29T09:56:47Z</time>
      </trkpt>
      <trkpt lat="56.959932027384639" lon="-5.820534965023398">
        <ele>14.08</ele>
        <time>2023-08-29T09:56:48Z</time>
      </trkpt>
      <trkpt lat="56.95985097438097" lon="-5.820533037185669">
        <ele>14.56</ele>
        <time>2023-08-29T09:56:49Z</time>
      </trkpt>
      <trkpt lat="56.959767993539572" lon="-5.820530019700527">
        <ele>15.039999999999999</ele>
        <time>2023-08-29T09:56:50Z</time>
      </trkpt>
      <trkpt lat="56.959562972187996" lon="-5.820521973073483">
        <ele>16</ele>
        <time>2023-08-29T09:56:52Z</time>
      </trkpt>
      <trkpt lat="56.959489965811372" lon="-5.820448966696858">
        <ele>16.48</ele>
        <time>2023-08-29T09:56:53Z</time>
      </trkpt>
      <trkpt lat="56.959412014111876" lon="-5.820371014997363">
        <ele>17.440000000000001</ele>
        <time>2023-08-29T09:56:54Z</time>
      </trkpt>
      <trkpt lat="56.959339007735252" lon="-5.820261966437101">
        <ele>18.399999999999999</ele>
        <time>2023-08-29T09:56:55Z</time>
      </trkpt>
      <trkpt lat="56.959279999136925" lon="-5.820159958675504">
        <ele>18.879999999999999</ele>
        <time>2023-08-29T09:56:56Z</time>
      </trkpt>
      <trkpt lat="56.959225013852119" lon="-5.820024004206061">
        <ele>19.359999999999999</ele>
        <time>2023-08-29T09:56:57Z</time>
      </trkpt>
      <trkpt lat="56.959198024123907" lon="-5.819909004494548">
        <ele>19.84</ele>
        <time>2023-08-29T09:56:58Z</time>
      </trkpt>
      <trkpt lat="56.959174973890185" lon="-5.819810014218092">
        <ele>20.32</ele>
        <time>2023-08-29T09:56:59Z</time>
      </trkpt>
      <trkpt lat="56.959156030789018" lon="-5.819728961214423">
        <ele>20.809999999999999</ele>
        <time>2023-08-29T09:57:00Z</time>
      </trkpt>
      <trkpt lat="56.959141027182341" lon="-5.819662995636463">
        <ele>21.289999999999999</ele>
        <time>2023-08-29T09:57:01Z</time>
      </trkpt>
      <trkpt lat="56.959172962233424" lon="-5.819403994828463">
        <ele>21.77</ele>
        <time>2023-08-29T09:57:02Z</time>
      </trkpt>
      <trkpt lat="56.959217973053455" lon="-5.819378010928631">
        <ele>22.25</ele>
        <time>2023-08-29T09:57:03Z</time>
      </trkpt>
      <trkpt lat="56.959276981651783" lon="-5.819344986230135">
        <ele>22.25</ele>
        <time>2023-08-29T09:57:04Z</time>
      </trkpt>
      <trkpt lat="56.959354011341929" lon="-5.819301987066865">
        <ele>22.73</ele>
        <time>2023-08-29T09:57:05Z</time>
      </trkpt>
      <trkpt lat="56.959446966648102" lon="-5.819250019267201">
        <ele>22.73</ele>
        <time>2023-08-29T09:57:06Z</time>
      </trkpt>
      <trkpt lat="56.959550986066461" lon="-5.819192016497254">
        <ele>23.210000000000001</ele>
        <time>2023-08-29T09:57:07Z</time>
      </trkpt>
      <trkpt lat="56.959801018238068" lon="-5.819096965715289">
        <ele>23.210000000000001</ele>
        <time>2023-08-29T09:57:09Z</time>
      </trkpt>
      <trkpt lat="56.961086969822645" lon="-5.818958999589086">
        <ele>21.289999999999999</ele>
        <time>2023-08-29T09:57:17Z</time>
      </trkpt>
      <trkpt lat="56.962844990193844" lon="-5.819343980401754">
        <ele>19.359999999999999</ele>
        <time>2023-08-29T09:57:27Z</time>
      </trkpt>
      <trkpt lat="56.964421039447188" lon="-5.820362968370318">
        <ele>17.920000000000002</ele>
        <time>2023-08-29T09:57:37Z</time>
      </trkpt>
      <trkpt lat="56.965997004881501" lon="-5.822072038426995">
        <ele>20.809999999999999</ele>
        <time>2023-08-29T09:57:47Z</time>
      </trkpt>
      <trkpt lat="56.96784496307373" lon="-5.82423297688365">
        <ele>18.399999999999999</ele>
        <time>2023-08-29T09:57:58Z</time>
      </trkpt>
      <trkpt lat="56.969439033418894" lon="-5.825045015662909">
        <ele>15.52</ele>
        <time>2023-08-29T09:58:07Z</time>
      </trkpt>
      <trkpt lat="56.972488034516573" lon="-5.826361980289221">
        <ele>11.67</ele>
        <time>2023-08-29T09:58:25Z</time>
      </trkpt>
      <trkpt lat="56.97516999207437" lon="-5.827522035688162">
        <ele>11.19</ele>
        <time>2023-08-29T09:58:41Z</time>
      </trkpt>
      <trkpt lat="56.977802999317646" lon="-5.828601038083434">
        <ele>24.170000000000002</ele>
        <time>2023-08-29T09:58:55Z</time>
      </trkpt>
      <trkpt lat="56.979262037202716" lon="-5.828560972586274">
        <ele>32.82</ele>
        <time>2023-08-29T09:59:02Z</time>
      </trkpt>
      <trkpt lat="56.981187025085092" lon="-5.827939035370946">
        <ele>43.399999999999999</ele>
        <time>2023-08-29T09:59:12Z</time>
      </trkpt>
      <trkpt lat="56.983456006273627" lon="-5.827158009633422">
        <ele>46.280000000000001</ele>
        <time>2023-08-29T09:59:24Z</time>
      </trkpt>
      <trkpt lat="56.985280998051167" lon="-5.826109014451504">
        <ele>46.280000000000001</ele>
        <time>2023-08-29T09:59:34Z</time>
      </trkpt>
      <trkpt lat="56.98709299787879" lon="-5.825282977893949">
        <ele>47.719999999999999</ele>
        <time>2023-08-29T09:59:44Z</time>
      </trkpt>
      <trkpt lat="56.988673992455006" lon="-5.825447011739016">
        <ele>46.280000000000001</ele>
        <time>2023-08-29T09:59:52Z</time>
      </trkpt>
      <trkpt lat="56.990183992311358" lon="-5.826472034677863">
        <ele>40.509999999999998</ele>
        <time>2023-08-29T10:00:00Z</time>
      </trkpt>
      <trkpt lat="56.991978976875544" lon="-5.828299960121512">
        <ele>21.289999999999999</ele>
        <time>2023-08-29T10:00:11Z</time>
      </trkpt>
      <trkpt lat="56.993405995890498" lon="-5.829765032976866">
        <ele>8.789999999999999</ele>
        <time>2023-08-29T10:00:20Z</time>
      </trkpt>
      <trkpt lat="56.994890011847019" lon="-5.831146035343409">
        <ele>5.42</ele>
        <time>2023-08-29T10:00:29Z</time>
      </trkpt>
      <trkpt lat="56.997153963893652" lon="-5.832722000777721">
        <ele>4.94</ele>
        <time>2023-08-29T10:00:42Z</time>
      </trkpt>
      <trkpt lat="56.999291013926268" lon="-5.833644010126591">
        <ele>5.42</ele>
        <time>2023-08-29T10:00:54Z</time>
      </trkpt>
      <trkpt lat="57.000998994335532" lon="-5.833521969616413">
        <ele>6.39</ele>
        <time>2023-08-29T10:01:03Z</time>
      </trkpt>
      <trkpt lat="57.002252005040646" lon="-5.832888968288899">
        <ele>7.35</ele>
        <time>2023-08-29T10:01:11Z</time>
      </trkpt>
      <trkpt lat="57.00350996106863" lon="-5.832106014713645">
        <ele>10.23</ele>
        <time>2023-08-29T10:01:22Z</time>
      </trkpt>
      <trkpt lat="57.005033036693931" lon="-5.83115198649466">
        <ele>10.23</ele>
        <time>2023-08-29T10:01:37Z</time>
      </trkpt>
      <trkpt lat="57.005438972264528" lon="-5.830770023167133">
        <ele>10.23</ele>
        <time>2023-08-29T10:01:41Z</time>
      </trkpt>
      <trkpt lat="57.006026040762663" lon="-5.829891012981534">
        <ele>10.23</ele>
        <time>2023-08-29T10:01:48Z</time>
      </trkpt>
      <trkpt lat="57.006073985248804" lon="-5.829800991341472">
        <ele>10.710000000000001</ele>
        <time>2023-08-29T10:01:49Z</time>
      </trkpt>
      <trkpt lat="57.006112039089203" lon="-5.829733014106751">
        <ele>10.710000000000001</ele>
        <time>2023-08-29T10:01:50Z</time>
      </trkpt>
      <trkpt lat="57.006126036867499" lon="-5.829706024378538">
        <ele>10.710000000000001</ele>
        <time>2023-08-29T10:01:51Z</time>
      </trkpt>
      <trkpt lat="57.006212035194039" lon="-5.829606028273702">
        <ele>11.19</ele>
        <time>2023-08-29T10:01:52Z</time>
      </trkpt>
      <trkpt lat="57.00621597468853" lon="-5.829502008855343">
        <ele>11.19</ele>
        <time>2023-08-29T10:01:53Z</time>
      </trkpt>
      <trkpt lat="57.006246987730265" lon="-5.829408969730139">
        <ele>11.19</ele>
        <time>2023-08-29T10:01:54Z</time>
      </trkpt>
      <trkpt lat="57.006275989115238" lon="-5.829326994717121">
        <ele>11.67</ele>
        <time>2023-08-29T10:01:55Z</time>
      </trkpt>
      <trkpt lat="57.006452009081841" lon="-5.828811004757881">
        <ele>12.15</ele>
        <time>2023-08-29T10:02:04Z</time>
      </trkpt>
      <trkpt lat="57.00651504099369" lon="-5.828644037246704">
        <ele>13.119999999999999</ele>
        <time>2023-08-29T10:02:10Z</time>
      </trkpt>
      <trkpt lat="57.006512023508549" lon="-5.828632973134518">
        <ele>13.119999999999999</ele>
        <time>2023-08-29T10:02:11Z</time>
      </trkpt>
      <trkpt lat="57.006500037387013" lon="-5.828620987012982">
        <ele>13.119999999999999</ele>
        <time>2023-08-29T10:02:12Z</time>
      </trkpt>
      <trkpt lat="57.006475981324911" lon="-5.828597014769912">
        <ele>13.119999999999999</ele>
        <time>2023-08-29T10:02:13Z</time>
      </trkpt>
      <trkpt lat="57.006518980488181" lon="-5.828616041690111">
        <ele>13.119999999999999</ele>
        <time>2023-08-29T10:02:14Z</time>
      </trkpt>
      <trkpt lat="57.006501965224743" lon="-5.828663986176252">
        <ele>13.119999999999999</ele>
        <time>2023-08-29T10:02:15Z</time>
      </trkpt>
      <trkpt lat="57.006481010466814" lon="-5.828725006431341">
        <ele>12.630000000000001</ele>
        <time>2023-08-29T10:02:16Z</time>
      </trkpt>
      <trkpt lat="57.006456032395363" lon="-5.828797006979585">
        <ele>12.15</ele>
        <time>2023-08-29T10:02:17Z</time>
      </trkpt>
      <trkpt lat="57.006428958848119" lon="-5.828877976164222">
        <ele>11.67</ele>
        <time>2023-08-29T10:02:18Z</time>
      </trkpt>
      <trkpt lat="57.006285963580012" lon="-5.829296987503767">
        <ele>10.23</ele>
        <time>2023-08-29T10:02:23Z</time>
      </trkpt>
      <trkpt lat="57.006260985508561" lon="-5.829369993880391">
        <ele>9.75</ele>
        <time>2023-08-29T10:02:24Z</time>
      </trkpt>
      <trkpt lat="57.006212035194039" lon="-5.829512989148498">
        <ele>9.75</ele>
        <time>2023-08-29T10:02:25Z</time>
      </trkpt>
      <trkpt lat="57.00617004185915" lon="-5.829534027725458">
        <ele>9.75</ele>
        <time>2023-08-29T10:02:26Z</time>
      </trkpt>
      <trkpt lat="57.006078008562326" lon="-5.829485999420285">
        <ele>9.75</ele>
        <time>2023-08-29T10:02:27Z</time>
      </trkpt>
      <trkpt lat="57.006036015227437" lon="-5.829424979165196">
        <ele>9.75</ele>
        <time>2023-08-29T10:02:28Z</time>
      </trkpt>
      <trkpt lat="57.005993016064167" lon="-5.829363036900759">
        <ele>9.75</ele>
        <time>2023-08-29T10:02:29Z</time>
      </trkpt>
      <trkpt lat="57.005953034386039" lon="-5.829305034130812">
        <ele>9.27</ele>
        <time>2023-08-29T10:02:30Z</time>
      </trkpt>
      <trkpt lat="57.005921015515924" lon="-5.829258011654019">
        <ele>9.27</ele>
        <time>2023-08-29T10:02:31Z</time>
      </trkpt>
      <trkpt lat="57.005876004695892" lon="-5.829191962257028">
        <ele>9.27</ele>
        <time>2023-08-29T10:02:39Z</time>
      </trkpt>
      <trkpt lat="57.005876004695892" lon="-5.829191962257028">
        <ele>9.27</ele>
        <time>2023-08-29T10:03:07Z</time>
      </trkpt>
      <trkpt lat="57.005694033578038" lon="-5.828927010297775">
        <ele>9.75</ele>
        <time>2023-08-29T10:03:26Z</time>
      </trkpt>
      <trkpt lat="57.005676012486219" lon="-5.828901026397944">
        <ele>10.23</ele>
        <time>2023-08-29T10:03:37Z</time>
      </trkpt>
      <trkpt lat="57.005593031644821" lon="-5.828827014192939">
        <ele>11.67</ele>
        <time>2023-08-29T10:04:30Z</time>
      </trkpt>
      <trkpt lat="57.00554802082479" lon="-5.828794995322824">
        <ele>11.67</ele>
        <time>2023-08-29T10:04:31Z</time>
      </trkpt>
      <trkpt lat="57.005497980862856" lon="-5.828759958967567">
        <ele>11.67</ele>
        <time>2023-08-29T10:04:32Z</time>
      </trkpt>
      <trkpt lat="57.005438972264528" lon="-5.828718971461058">
        <ele>11.67</ele>
        <time>2023-08-29T10:04:34Z</time>
      </trkpt>
      <trkpt lat="57.005379963666201" lon="-5.82861696369946">
        <ele>12.15</ele>
        <time>2023-08-29T10:04:35Z</time>
      </trkpt>
      <trkpt lat="57.00533595867455" lon="-5.828541023656726">
        <ele>12.630000000000001</ele>
        <time>2023-08-29T10:04:36Z</time>
      </trkpt>
      <trkpt lat="57.005296982824802" lon="-5.828472962602973">
        <ele>13.6</ele>
        <time>2023-08-29T10:04:37Z</time>
      </trkpt>
      <trkpt lat="57.005254989489913" lon="-5.828400040045381">
        <ele>14.08</ele>
        <time>2023-08-29T10:04:38Z</time>
      </trkpt>
      <trkpt lat="57.005214001983404" lon="-5.828328961506486">
        <ele>14.56</ele>
        <time>2023-08-29T10:04:39Z</time>
      </trkpt>
      <trkpt lat="57.005126997828484" lon="-5.828298032283783">
        <ele>14.56</ele>
        <time>2023-08-29T10:04:40Z</time>
      </trkpt>
      <trkpt lat="57.005076035857201" lon="-5.828287973999977">
        <ele>14.56</ele>
        <time>2023-08-29T10:04:41Z</time>
      </trkpt>
      <trkpt lat="57.005019038915634" lon="-5.828276993706822">
        <ele>14.56</ele>
        <time>2023-08-29T10:04:42Z</time>
      </trkpt>
      <trkpt lat="57.004957012832165" lon="-5.828266013413668">
        <ele>14.56</ele>
        <time>2023-08-29T10:04:43Z</time>
      </trkpt>
      <trkpt lat="57.004890963435173" lon="-5.828254027292132">
        <ele>14.56</ele>
        <time>2023-08-29T10:04:44Z</time>
      </trkpt>
      <trkpt lat="57.004662975668907" lon="-5.828212033957243">
        <ele>14.56</ele>
        <time>2023-08-29T10:04:48Z</time>
      </trkpt>
      <trkpt lat="57.004601033404469" lon="-5.828161993995309">
        <ele>14.56</ele>
        <time>2023-08-29T10:04:49Z</time>
      </trkpt>
      <trkpt lat="57.004562979564071" lon="-5.828094016760588">
        <ele>14.56</ele>
        <time>2023-08-29T10:04:50Z</time>
      </trkpt>
      <trkpt lat="57.00451897457242" lon="-5.8280139695853">
        <ele>14.56</ele>
        <time>2023-08-29T10:04:51Z</time>
      </trkpt>
      <trkpt lat="57.00447203591466" lon="-5.827926965430379">
        <ele>14.56</ele>
        <time>2023-08-29T10:04:52Z</time>
      </trkpt>
      <trkpt lat="57.004426019266248" lon="-5.8278429787606">
        <ele>14.08</ele>
        <time>2023-08-29T10:04:53Z</time>
      </trkpt>
      <trkpt lat="57.00438603758812" lon="-5.827767960727215">
        <ele>14.08</ele>
        <time>2023-08-29T10:04:54Z</time>
      </trkpt>
      <trkpt lat="57.004357958212495" lon="-5.827685985714197">
        <ele>14.56</ele>
        <time>2023-08-29T10:04:55Z</time>
      </trkpt>
      <trkpt lat="57.004330968484282" lon="-5.82760501652956">
        <ele>14.56</ele>
        <time>2023-08-29T10:04:56Z</time>
      </trkpt>
      <trkpt lat="57.004284029826522" lon="-5.827464032918215">
        <ele>14.56</ele>
        <time>2023-08-29T10:04:58Z</time>
      </trkpt>
      <trkpt lat="57.004277994856238" lon="-5.827406030148268">
        <ele>14.56</ele>
        <time>2023-08-29T10:04:59Z</time>
      </trkpt>
      <trkpt lat="57.004262991249561" lon="-5.827123979106545">
        <ele>15.039999999999999</ele>
        <time>2023-08-29T10:05:02Z</time>
      </trkpt>
      <trkpt lat="57.004258967936039" lon="-5.82704602740705">
        <ele>15.039999999999999</ele>
        <time>2023-08-29T10:05:03Z</time>
      </trkpt>
      <trkpt lat="57.004282018169761" lon="-5.82689599134028">
        <ele>15.039999999999999</ele>
        <time>2023-08-29T10:05:04Z</time>
      </trkpt>
      <trkpt lat="57.004300961270928" lon="-5.826770011335611">
        <ele>15.52</ele>
        <time>2023-08-29T10:05:05Z</time>
      </trkpt>
      <trkpt lat="57.004318982362747" lon="-5.826655011624098">
        <ele>15.52</ele>
        <time>2023-08-29T10:05:06Z</time>
      </trkpt>
      <trkpt lat="57.004333985969424" lon="-5.826557027176023">
        <ele>15.52</ele>
        <time>2023-08-29T10:05:07Z</time>
      </trkpt>
      <trkpt lat="57.00434597209096" lon="-5.826476980000734">
        <ele>15.52</ele>
        <time>2023-08-29T10:05:08Z</time>
      </trkpt>
      <trkpt lat="57.004356030374765" lon="-5.826415037736297">
        <ele>15.52</ele>
        <time>2023-08-29T10:05:09Z</time>
      </trkpt>
      <trkpt lat="57.004363993182778" lon="-5.82635996863246">
        <ele>15.52</ele>
        <time>2023-08-29T10:05:10Z</time>
      </trkpt>
      <trkpt lat="57.004372039809823" lon="-5.826308000832796">
        <ele>15.52</ele>
        <time>2023-08-29T10:05:11Z</time>
      </trkpt>
      <trkpt lat="57.004378996789455" lon="-5.826261984184384">
        <ele>15.52</ele>
        <time>2023-08-29T10:05:12Z</time>
      </trkpt>
      <trkpt lat="57.004384025931358" lon="-5.826226025819778">
        <ele>15.52</ele>
        <time>2023-08-29T10:05:13Z</time>
      </trkpt>
      <trkpt lat="57.004384025931358" lon="-5.826226025819778">
        <ele>15.52</ele>
        <time>2023-08-29T10:05:14Z</time>
      </trkpt>
      <trkpt lat="57.004384025931358" lon="-5.826226025819778">
        <ele>15.52</ele>
        <time>2023-08-29T10:05:19Z</time>
      </trkpt>
      <trkpt lat="57.004286041483283" lon="-5.826872019097209">
        <ele>12.630000000000001</ele>
        <time>2023-08-29T10:05:26Z</time>
      </trkpt>
      <trkpt lat="57.004262991249561" lon="-5.827018031850457">
        <ele>12.15</ele>
        <time>2023-08-29T10:05:27Z</time>
      </trkpt>
      <trkpt lat="57.004262991249561" lon="-5.827124984934926">
        <ele>12.15</ele>
        <time>2023-08-29T10:05:28Z</time>
      </trkpt>
      <trkpt lat="57.004268020391464" lon="-5.82721802406013">
        <ele>11.67</ele>
        <time>2023-08-29T10:05:29Z</time>
      </trkpt>
      <trkpt lat="57.004271959885955" lon="-5.827278038486838">
        <ele>11.19</ele>
        <time>2023-08-29T10:05:30Z</time>
      </trkpt>
      <trkpt lat="57.004273971542716" lon="-5.827323971316218">
        <ele>10.710000000000001</ele>
        <time>2023-08-29T10:05:31Z</time>
      </trkpt>
      <trkpt lat="57.004275983199477" lon="-5.827356996014714">
        <ele>10.710000000000001</ele>
        <time>2023-08-29T10:05:32Z</time>
      </trkpt>
      <trkpt lat="57.004371033981442" lon="-5.827724961563945">
        <ele>8.310000000000001</ele>
        <time>2023-08-29T10:05:40Z</time>
      </trkpt>
      <trkpt lat="57.004387965425849" lon="-5.827775001525879">
        <ele>7.83</ele>
        <time>2023-08-29T10:05:41Z</time>
      </trkpt>
      <trkpt lat="57.004444962367415" lon="-5.827878015115857">
        <ele>7.35</ele>
        <time>2023-08-29T10:05:42Z</time>
      </trkpt>
      <trkpt lat="57.004588041454554" lon="-5.828140033408999">
        <ele>6.87</ele>
        <time>2023-08-29T10:05:45Z</time>
      </trkpt>
      <trkpt lat="57.004632968455553" lon="-5.82820599898696">
        <ele>6.87</ele>
        <time>2023-08-29T10:05:46Z</time>
      </trkpt>
      <trkpt lat="57.004790967330337" lon="-5.828235000371933">
        <ele>7.83</ele>
        <time>2023-08-29T10:05:49Z</time>
      </trkpt>
      <trkpt lat="57.005006968975067" lon="-5.828274982050061">
        <ele>9.27</ele>
        <time>2023-08-29T10:05:57Z</time>
      </trkpt>
      <trkpt lat="57.005093973129988" lon="-5.828290991485119">
        <ele>9.75</ele>
        <time>2023-08-29T10:05:59Z</time>
      </trkpt>
      <trkpt lat="57.005142001435161" lon="-5.828299960121512">
        <ele>9.75</ele>
        <time>2023-08-29T10:06:00Z</time>
      </trkpt>
      <trkpt lat="57.005211990326643" lon="-5.828326027840376">
        <ele>9.75</ele>
        <time>2023-08-29T10:06:01Z</time>
      </trkpt>
      <trkpt lat="57.005351968109608" lon="-5.828833971172571">
        <ele>9.27</ele>
        <time>2023-08-29T10:06:09Z</time>
      </trkpt>
      <trkpt lat="57.005321038886905" lon="-5.82887495867908">
        <ele>9.75</ele>
        <time>2023-08-29T10:06:10Z</time>
      </trkpt>
      <trkpt lat="57.005278961732984" lon="-5.828930027782917">
        <ele>9.75</ele>
        <time>2023-08-29T10:06:11Z</time>
      </trkpt>
      <trkpt lat="57.004809994250536" lon="-5.829547019675374">
        <ele>11.67</ele>
        <time>2023-08-29T10:06:20Z</time>
      </trkpt>
      <trkpt lat="57.00475400313735" lon="-5.829620026051998">
        <ele>12.15</ele>
        <time>2023-08-29T10:06:21Z</time>
      </trkpt>
      <trkpt lat="57.004680996760726" lon="-5.829708036035299">
        <ele>12.630000000000001</ele>
        <time>2023-08-29T10:06:22Z</time>
      </trkpt>
      <trkpt lat="57.004600027576089" lon="-5.829724967479706">
        <ele>12.630000000000001</ele>
        <time>2023-08-29T10:06:23Z</time>
      </trkpt>
      <trkpt lat="57.004513023421168" lon="-5.829743994399905">
        <ele>13.119999999999999</ele>
        <time>2023-08-29T10:06:24Z</time>
      </trkpt>
      <trkpt lat="57.004429958760738" lon="-5.829762015491724">
        <ele>13.119999999999999</ele>
        <time>2023-08-29T10:06:25Z</time>
      </trkpt>
      <trkpt lat="57.004339015111327" lon="-5.829764027148485">
        <ele>13.6</ele>
        <time>2023-08-29T10:06:26Z</time>
      </trkpt>
      <trkpt lat="57.003774996846914" lon="-5.829717004671693">
        <ele>21.77</ele>
        <time>2023-08-29T10:06:36Z</time>
      </trkpt>
      <trkpt lat="57.003634013235569" lon="-5.829690014943481">
        <ele>25.129999999999999</ele>
        <time>2023-08-29T10:06:43Z</time>
      </trkpt>
      <trkpt lat="57.003049962222576" lon="-5.829634023830295">
        <ele>25.609999999999999</ele>
        <time>2023-08-29T10:06:51Z</time>
      </trkpt>
      <trkpt lat="57.002081014215946" lon="-5.829986985772848">
        <ele>33.780000000000001</ele>
        <time>2023-08-29T10:07:03Z</time>
      </trkpt>
      <trkpt lat="57.001261012628675" lon="-5.830702967941761">
        <ele>41.469999999999999</ele>
        <time>2023-08-29T10:07:13Z</time>
      </trkpt>
      <trkpt lat="57.001170990988612" lon="-5.830776980146766">
        <ele>41.950000000000003</ele>
        <time>2023-08-29T10:07:14Z</time>
      </trkpt>
      <trkpt lat="57.001084992662072" lon="-5.830845963209868">
        <ele>42.920000000000002</ele>
        <time>2023-08-29T10:07:15Z</time>
      </trkpt>
      <trkpt lat="57.000998994335532" lon="-5.83084998652339">
        <ele>43.399999999999999</ele>
        <time>2023-08-29T10:07:16Z</time>
      </trkpt>
      <trkpt lat="57.000054018571973" lon="-5.830621998757124">
        <ele>49.159999999999997</ele>
        <time>2023-08-29T10:07:27Z</time>
      </trkpt>
      <trkpt lat="56.999071994796395" lon="-5.83044296130538">
        <ele>53.969999999999999</ele>
        <time>2023-08-29T10:07:38Z</time>
      </trkpt>
      <trkpt lat="56.998320976272225" lon="-5.830260990187526">
        <ele>53.969999999999999</ele>
        <time>2023-08-29T10:07:46Z</time>
      </trkpt>
      <trkpt lat="56.997757041826844" lon="-5.829821024090052">
        <ele>51.57</ele>
        <time>2023-08-29T10:07:53Z</time>
      </trkpt>
      <trkpt lat="56.997669031843543" lon="-5.829755980521441">
        <ele>51.090000000000003</ele>
        <time>2023-08-29T10:07:54Z</time>
      </trkpt>
      <trkpt lat="56.996877025812864" lon="-5.829304028302431">
        <ele>49.649999999999999</ele>
        <time>2023-08-29T10:08:03Z</time>
      </trkpt>
      <trkpt lat="56.996793039143085" lon="-5.829282989725471">
        <ele>49.649999999999999</ele>
        <time>2023-08-29T10:08:04Z</time>
      </trkpt>
      <trkpt lat="56.996706034988165" lon="-5.829280978068709">
        <ele>49.159999999999997</ele>
        <time>2023-08-29T10:08:05Z</time>
      </trkpt>
      <trkpt lat="56.995758041739464" lon="-5.829436965286732">
        <ele>43.880000000000003</ele>
        <time>2023-08-29T10:08:14Z</time>
      </trkpt>
      <trkpt lat="56.994836032390594" lon="-5.829663025215268">
        <ele>36.670000000000002</ele>
        <time>2023-08-29T10:08:23Z</time>
      </trkpt>
      <trkpt lat="56.994745004922152" lon="-5.829622037708759">
        <ele>35.710000000000001</ele>
        <time>2023-08-29T10:08:24Z</time>
      </trkpt>
      <trkpt lat="56.994654983282089" lon="-5.829550959169865">
        <ele>35.229999999999997</ele>
        <time>2023-08-29T10:08:25Z</time>
      </trkpt>
      <trkpt lat="56.994576025754213" lon="-5.829481976106763">
        <ele>34.740000000000002</ele>
        <time>2023-08-29T10:08:26Z</time>
      </trkpt>
      <trkpt lat="56.994508970528841" lon="-5.82936798222363">
        <ele>34.740000000000002</ele>
        <time>2023-08-29T10:08:27Z</time>
      </trkpt>
      <trkpt lat="56.994443004950881" lon="-5.829255999997258">
        <ele>34.740000000000002</ele>
        <time>2023-08-29T10:08:28Z</time>
      </trkpt>
      <trkpt lat="56.99416003189981" lon="-5.828822990879417">
        <ele>34.740000000000002</ele>
        <time>2023-08-29T10:08:32Z</time>
      </trkpt>
      <trkpt lat="56.994091970846057" lon="-5.828725006431341">
        <ele>34.740000000000002</ele>
        <time>2023-08-29T10:08:33Z</time>
      </trkpt>
      <trkpt lat="56.99401100166142" lon="-5.828707991167903">
        <ele>35.229999999999997</ele>
        <time>2023-08-29T10:08:34Z</time>
      </trkpt>
      <trkpt lat="56.993937995284796" lon="-5.828698016703129">
        <ele>35.229999999999997</ele>
        <time>2023-08-29T10:08:35Z</time>
      </trkpt>
      <trkpt lat="56.993870018050075" lon="-5.828756019473076">
        <ele>34.740000000000002</ele>
        <time>2023-08-29T10:08:36Z</time>
      </trkpt>
      <trkpt lat="56.993787959218025" lon="-5.828826008364558">
        <ele>34.740000000000002</ele>
        <time>2023-08-29T10:08:37Z</time>
      </trkpt>
      <trkpt lat="56.993734985589981" lon="-5.828932039439678">
        <ele>34.740000000000002</ele>
        <time>2023-08-29T10:08:38Z</time>
      </trkpt>
      <trkpt lat="56.993677988648415" lon="-5.829045027494431">
        <ele>34.740000000000002</ele>
        <time>2023-08-29T10:08:39Z</time>
      </trkpt>
      <trkpt lat="56.99362400919199" lon="-5.829153992235661">
        <ele>34.259999999999998</ele>
        <time>2023-08-29T10:08:40Z</time>
      </trkpt>
      <trkpt lat="56.993595007807016" lon="-5.829213000833988">
        <ele>33.780000000000001</ele>
        <time>2023-08-29T10:08:41Z</time>
      </trkpt>
      <trkpt lat="56.993500040844083" lon="-5.829213000833988">
        <ele>33.299999999999997</ele>
        <time>2023-08-29T10:08:42Z</time>
      </trkpt>
      <trkpt lat="56.993427034467459" lon="-5.829213000833988">
        <ele>32.340000000000003</ele>
        <time>2023-08-29T10:08:43Z</time>
      </trkpt>
      <trkpt lat="56.993373977020383" lon="-5.829171007499099">
        <ele>31.379999999999999</ele>
        <time>2023-08-29T10:08:44Z</time>
      </trkpt>
      <trkpt lat="56.993313962593675" lon="-5.829080985859036">
        <ele>30.420000000000002</ele>
        <time>2023-08-29T10:08:45Z</time>
      </trkpt>
      <trkpt lat="56.993263000622392" lon="-5.828978978097439">
        <ele>29.940000000000001</ele>
        <time>2023-08-29T10:08:46Z</time>
      </trkpt>
      <trkpt lat="56.993229975923896" lon="-5.828837994486094">
        <ele>29.460000000000001</ele>
        <time>2023-08-29T10:08:47Z</time>
      </trkpt>
      <trkpt lat="56.993195023387671" lon="-5.828693993389607">
        <ele>28.98</ele>
        <time>2023-08-29T10:08:48Z</time>
      </trkpt>
      <trkpt lat="56.993144983425736" lon="-5.828554015606642">
        <ele>28.5</ele>
        <time>2023-08-29T10:08:49Z</time>
      </trkpt>
      <trkpt lat="56.993068037554622" lon="-5.828496012836695">
        <ele>28.02</ele>
        <time>2023-08-29T10:08:50Z</time>
      </trkpt>
      <trkpt lat="56.992987990379333" lon="-5.828435998409987">
        <ele>27.050000000000001</ele>
        <time>2023-08-29T10:08:51Z</time>
      </trkpt>
      <trkpt lat="56.992908027023077" lon="-5.828375983983278">
        <ele>26.09</ele>
        <time>2023-08-29T10:08:52Z</time>
      </trkpt>
      <trkpt lat="56.992821022868156" lon="-5.828384030610323">
        <ele>24.649999999999999</ele>
        <time>2023-08-29T10:08:53Z</time>
      </trkpt>
      <trkpt lat="56.992740975692868" lon="-5.828390987589955">
        <ele>23.690000000000001</ele>
        <time>2023-08-29T10:08:54Z</time>
      </trkpt>
      <trkpt lat="56.992671992629766" lon="-5.828397022560239">
        <ele>22.73</ele>
        <time>2023-08-29T10:08:55Z</time>
      </trkpt>
      <trkpt lat="56.992628993466496" lon="-5.828491989523172">
        <ele>21.77</ele>
        <time>2023-08-29T10:08:56Z</time>
      </trkpt>
      <trkpt lat="56.992588005959988" lon="-5.828584022819996">
        <ele>20.809999999999999</ele>
        <time>2023-08-29T10:08:57Z</time>
      </trkpt>
      <trkpt lat="56.992552969604731" lon="-5.828662980347872">
        <ele>20.32</ele>
        <time>2023-08-29T10:08:58Z</time>
      </trkpt>
      <trkpt lat="56.992441993206739" lon="-5.828788038343191">
        <ele>16.960000000000001</ele>
        <time>2023-08-29T10:09:02Z</time>
      </trkpt>
      <trkpt lat="56.992407040670514" lon="-5.828749984502792">
        <ele>16.48</ele>
        <time>2023-08-29T10:09:03Z</time>
      </trkpt>
      <trkpt lat="56.992350965738297" lon="-5.828690975904465">
        <ele>16.48</ele>
        <time>2023-08-29T10:09:04Z</time>
      </trkpt>
      <trkpt lat="56.991592990234494" lon="-5.827899975702167">
        <ele>20.32</ele>
        <time>2023-08-29T10:09:12Z</time>
      </trkpt>
      <trkpt lat="56.989954998716712" lon="-5.826241029426456">
        <ele>31.859999999999999</ele>
        <time>2023-08-29T10:09:24Z</time>
      </trkpt>
      <trkpt lat="56.988328993320465" lon="-5.825339974835515">
        <ele>37.630000000000003</ele>
        <time>2023-08-29T10:09:34Z</time>
      </trkpt>
      <trkpt lat="56.986741963773966" lon="-5.825337963178754">
        <ele>39.549999999999997</ele>
        <time>2023-08-29T10:09:43Z</time>
      </trkpt>
      <trkpt lat="56.984985033050179" lon="-5.826303977519274">
        <ele>40.030000000000001</ele>
        <time>2023-08-29T10:09:53Z</time>
      </trkpt>
      <trkpt lat="56.983089968562126" lon="-5.82728398963809">
        <ele>40.990000000000002</ele>
        <time>2023-08-29T10:10:03Z</time>
      </trkpt>
      <trkpt lat="56.980244982987642" lon="-5.828262995928526">
        <ele>45.32</ele>
        <time>2023-08-29T10:10:17Z</time>
      </trkpt>
      <trkpt lat="56.978150010108948" lon="-5.828675972297788">
        <ele>40.030000000000001</ele>
        <time>2023-08-29T10:10:28Z</time>
      </trkpt>
      <trkpt lat="56.976516041904688" lon="-5.828101979568601">
        <ele>30.420000000000002</ele>
        <time>2023-08-29T10:10:37Z</time>
      </trkpt>
      <trkpt lat="56.974722985178232" lon="-5.827330006286502">
        <ele>17.920000000000002</ele>
        <time>2023-08-29T10:10:46Z</time>
      </trkpt>
      <trkpt lat="56.972162984311581" lon="-5.826222002506256">
        <ele>11.19</ele>
        <time>2023-08-29T10:10:59Z</time>
      </trkpt>
      <trkpt lat="56.969954017549753" lon="-5.825267974287272">
        <ele>14.08</ele>
        <time>2023-08-29T10:11:11Z</time>
      </trkpt>
      <trkpt lat="56.968413004651666" lon="-5.824565989896655">
        <ele>14.56</ele>
        <time>2023-08-29T10:11:20Z</time>
      </trkpt>
      <trkpt lat="56.967825014144182" lon="-5.824218979105353">
        <ele>15.52</ele>
        <time>2023-08-29T10:11:26Z</time>
      </trkpt>
      <trkpt lat="56.967782014980912" lon="-5.824187966063619">
        <ele>15.52</ele>
        <time>2023-08-29T10:11:27Z</time>
      </trkpt>
      <trkpt lat="56.967701967805624" lon="-5.824131974950433">
        <ele>16.48</ele>
        <time>2023-08-29T10:11:34Z</time>
      </trkpt>
      <trkpt lat="56.967701967805624" lon="-5.824131974950433">
        <ele>16.48</ele>
        <time>2023-08-29T10:12:04Z</time>
      </trkpt>
      <trkpt lat="56.967676989734173" lon="-5.824201041832566">
        <ele>19.359999999999999</ele>
        <time>2023-08-29T10:14:11Z</time>
      </trkpt>
      <trkpt lat="56.967657962813973" lon="-5.82425300963223">
        <ele>20.32</ele>
        <time>2023-08-29T10:14:49Z</time>
      </trkpt>
      <trkpt lat="56.967656034976244" lon="-5.824221996590495">
        <ele>19.359999999999999</ele>
        <time>2023-08-29T10:15:32Z</time>
      </trkpt>
      <trkpt lat="56.967656034976244" lon="-5.824089981615543">
        <ele>19.359999999999999</ele>
        <time>2023-08-29T10:15:34Z</time>
      </trkpt>
      <trkpt lat="56.967524020001292" lon="-5.823965007439256">
        <ele>19.84</ele>
        <time>2023-08-29T10:15:37Z</time>
      </trkpt>
      <trkpt lat="56.96745403110981" lon="-5.823899041861296">
        <ele>19.359999999999999</ele>
        <time>2023-08-29T10:15:38Z</time>
      </trkpt>
      <trkpt lat="56.966612990945578" lon="-5.822897991165519">
        <ele>19.84</ele>
        <time>2023-08-29T10:15:47Z</time>
      </trkpt>
      <trkpt lat="56.965514039620757" lon="-5.821465020999312">
        <ele>22.25</ele>
        <time>2023-08-29T10:15:56Z</time>
      </trkpt>
      <trkpt lat="56.963827013969421" lon="-5.819920990616083">
        <ele>19.84</ele>
        <time>2023-08-29T10:16:07Z</time>
      </trkpt>
      <trkpt lat="56.962178964167833" lon="-5.819103000685573">
        <ele>16.960000000000001</ele>
        <time>2023-08-29T10:16:17Z</time>
      </trkpt>
      <trkpt lat="56.960279038175941" lon="-5.818972997367382">
        <ele>20.32</ele>
        <time>2023-08-29T10:16:28Z</time>
      </trkpt>
      <trkpt lat="56.959908977150917" lon="-5.819063019007444">
        <ele>21.289999999999999</ele>
        <time>2023-08-29T10:16:30Z</time>
      </trkpt>
      <trkpt lat="56.958643980324268" lon="-5.819890983402729">
        <ele>26.09</ele>
        <time>2023-08-29T10:16:37Z</time>
      </trkpt>
      <trkpt lat="56.957687018439174" lon="-5.821539033204317">
        <ele>29.460000000000001</ele>
        <time>2023-08-29T10:16:44Z</time>
      </trkpt>
      <trkpt lat="56.956338034942746" lon="-5.824911994859576">
        <ele>31.859999999999999</ele>
        <time>2023-08-29T10:16:56Z</time>
      </trkpt>
      <trkpt lat="56.954968012869358" lon="-5.828175991773605">
        <ele>39.07</ele>
        <time>2023-08-29T10:17:07Z</time>
      </trkpt>
      <trkpt lat="56.95387601852417" lon="-5.829451968893409">
        <ele>46.759999999999998</ele>
        <time>2023-08-29T10:17:14Z</time>
      </trkpt>
      <trkpt lat="56.95237398147583" lon="-5.830100979655981">
        <ele>54.93</ele>
        <time>2023-08-29T10:17:22Z</time>
      </trkpt>
      <trkpt lat="56.949156001210213" lon="-5.830795001238585">
        <ele>64.069999999999993</ele>
        <time>2023-08-29T10:17:38Z</time>
      </trkpt>
      <trkpt lat="56.946503967046738" lon="-5.831679962575436">
        <ele>68.390000000000001</ele>
        <time>2023-08-29T10:17:51Z</time>
      </trkpt>
      <trkpt lat="56.945072002708912" lon="-5.833121985197067">
        <ele>67.430000000000007</ele>
        <time>2023-08-29T10:17:59Z</time>
      </trkpt>
      <trkpt lat="56.943580023944378" lon="-5.835807966068387">
        <ele>57.82</ele>
        <time>2023-08-29T10:18:09Z</time>
      </trkpt>
      <trkpt lat="56.942012021318078" lon="-5.838633002713323">
        <ele>42.439999999999998</ele>
        <time>2023-08-29T10:18:20Z</time>
      </trkpt>
      <trkpt lat="56.940008997917175" lon="-5.84223504178226">
        <ele>24.170000000000002</ele>
        <time>2023-08-29T10:18:34Z</time>
      </trkpt>
      <trkpt lat="56.938056014478207" lon="-5.845341961830854">
        <ele>18.399999999999999</ele>
        <time>2023-08-29T10:18:47Z</time>
      </trkpt>
      <trkpt lat="56.93657903932035" lon="-5.84651299752295">
        <ele>16.48</ele>
        <time>2023-08-29T10:18:55Z</time>
      </trkpt>
      <trkpt lat="56.933614024892449" lon="-5.847873967140913">
        <ele>15.039999999999999</ele>
        <time>2023-08-29T10:19:10Z</time>
      </trkpt>
      <trkpt lat="56.930237961933017" lon="-5.849131001159549">
        <ele>14.56</ele>
        <time>2023-08-29T10:19:27Z</time>
      </trkpt>
      <trkpt lat="56.928005022928119" lon="-5.849727960303426">
        <ele>15.52</ele>
        <time>2023-08-29T10:19:38Z</time>
      </trkpt>
      <trkpt lat="56.925178980454803" lon="-5.850029038265348">
        <ele>17.440000000000001</ele>
        <time>2023-08-29T10:19:52Z</time>
      </trkpt>
      <trkpt lat="56.923251980915666" lon="-5.849602986127138">
        <ele>19.84</ele>
        <time>2023-08-29T10:20:02Z</time>
      </trkpt>
      <trkpt lat="56.920913010835648" lon="-5.848706960678101">
        <ele>34.740000000000002</ele>
        <time>2023-08-29T10:20:14Z</time>
      </trkpt>
      <trkpt lat="56.918823989108205" lon="-5.847812024876475">
        <ele>53.009999999999998</ele>
        <time>2023-08-29T10:20:24Z</time>
      </trkpt>
      <trkpt lat="56.916065001860261" lon="-5.846589021384716">
        <ele>63.100000000000001</ele>
        <time>2023-08-29T10:20:38Z</time>
      </trkpt>
      <trkpt lat="56.914836969226599" lon="-5.846048975363374">
        <ele>62.619999999999997</ele>
        <time>2023-08-29T10:20:45Z</time>
      </trkpt>
      <trkpt lat="56.913637015968561" lon="-5.845427038148046">
        <ele>58.299999999999997</ele>
        <time>2023-08-29T10:20:54Z</time>
      </trkpt>
      <trkpt lat="56.912740990519524" lon="-5.844469992443919">
        <ele>54.450000000000003</ele>
        <time>2023-08-29T10:21:01Z</time>
      </trkpt>
      <trkpt lat="56.912329019978642" lon="-5.843714028596878">
        <ele>52.049999999999997</ele>
        <time>2023-08-29T10:21:06Z</time>
      </trkpt>
      <trkpt lat="56.912248972803354" lon="-5.84356801584363">
        <ele>51.57</ele>
        <time>2023-08-29T10:21:07Z</time>
      </trkpt>
      <trkpt lat="56.912019979208708" lon="-5.842882040888071">
        <ele>48.68</ele>
        <time>2023-08-29T10:21:11Z</time>
      </trkpt>
      <trkpt lat="56.911585964262486" lon="-5.840786984190345">
        <ele>40.509999999999998</ele>
        <time>2023-08-29T10:21:21Z</time>
      </trkpt>
      <trkpt lat="56.911324029788375" lon="-5.83858598023653">
        <ele>32.82</ele>
        <time>2023-08-29T10:21:31Z</time>
      </trkpt>
      <trkpt lat="56.911051031202078" lon="-5.836012987419963">
        <ele>32.82</ele>
        <time>2023-08-29T10:21:43Z</time>
      </trkpt>
      <trkpt lat="56.911024963483214" lon="-5.833132965490222">
        <ele>32.82</ele>
        <time>2023-08-29T10:21:55Z</time>
      </trkpt>
      <trkpt lat="56.911375997588038" lon="-5.830411026254296">
        <ele>33.780000000000001</ele>
        <time>2023-08-29T10:22:05Z</time>
      </trkpt>
      <trkpt lat="56.911934986710548" lon="-5.82818403840065">
        <ele>38.109999999999999</ele>
        <time>2023-08-29T10:22:13Z</time>
      </trkpt>
      <trkpt lat="56.912490036338568" lon="-5.826260978356004">
        <ele>43.399999999999999</ele>
        <time>2023-08-29T10:22:20Z</time>
      </trkpt>
      <trkpt lat="56.912779966369271" lon="-5.824244040995836">
        <ele>47.240000000000002</ele>
        <time>2023-08-29T10:22:27Z</time>
      </trkpt>
      <trkpt lat="56.912772003561258" lon="-5.823955032974482">
        <ele>47.240000000000002</ele>
        <time>2023-08-29T10:22:28Z</time>
      </trkpt>
      <trkpt lat="56.912744008004665" lon="-5.823668958619237">
        <ele>47.240000000000002</ele>
        <time>2023-08-29T10:22:29Z</time>
      </trkpt>
      <trkpt lat="56.912665972486138" lon="-5.823093960061669">
        <ele>47.240000000000002</ele>
        <time>2023-08-29T10:22:31Z</time>
      </trkpt>
      <trkpt lat="56.912597995251417" lon="-5.822819033637643">
        <ele>47.240000000000002</ele>
        <time>2023-08-29T10:22:32Z</time>
      </trkpt>
      <trkpt lat="56.912506967782974" lon="-5.822567995637655">
        <ele>46.759999999999998</ele>
        <time>2023-08-29T10:22:33Z</time>
      </trkpt>
      <trkpt lat="56.912402026355267" lon="-5.822331961244345">
        <ele>46.759999999999998</ele>
        <time>2023-08-29T10:22:34Z</time>
      </trkpt>
      <trkpt lat="56.912276968359947" lon="-5.822135992348194">
        <ele>46.280000000000001</ele>
        <time>2023-08-29T10:22:35Z</time>
      </trkpt>
      <trkpt lat="56.912140008062124" lon="-5.821957960724831">
        <ele>46.759999999999998</ele>
        <time>2023-08-29T10:22:36Z</time>
      </trkpt>
      <trkpt lat="56.912013022229075" lon="-5.821830974891782">
        <ele>46.280000000000001</ele>
        <time>2023-08-29T10:22:37Z</time>
      </trkpt>
      <trkpt lat="56.911839013919234" lon="-5.821750005707145">
        <ele>46.280000000000001</ele>
        <time>2023-08-29T10:22:38Z</time>
      </trkpt>
      <trkpt lat="56.911683026701212" lon="-5.82167599350214">
        <ele>46.280000000000001</ele>
        <time>2023-08-29T10:22:39Z</time>
      </trkpt>
      <trkpt lat="56.9115299731493" lon="-5.821665013208985">
        <ele>46.280000000000001</ele>
        <time>2023-08-29T10:22:40Z</time>
      </trkpt>
      <trkpt lat="56.911361999809742" lon="-5.821671970188618">
        <ele>46.280000000000001</ele>
        <time>2023-08-29T10:22:41Z</time>
      </trkpt>
      <trkpt lat="56.911194026470184" lon="-5.821680016815662">
        <ele>46.280000000000001</ele>
        <time>2023-08-29T10:22:42Z</time>
      </trkpt>
      <trkpt lat="56.911042984575033" lon="-5.821755034849048">
        <ele>46.280000000000001</ele>
        <time>2023-08-29T10:22:43Z</time>
      </trkpt>
      <trkpt lat="56.910886997357011" lon="-5.821841033175588">
        <ele>45.799999999999997</ele>
        <time>2023-08-29T10:22:44Z</time>
      </trkpt>
      <trkpt lat="56.909240959212184" lon="-5.822692969813943">
        <ele>45.799999999999997</ele>
        <time>2023-08-29T10:22:54Z</time>
      </trkpt>
      <trkpt lat="56.909057982265949" lon="-5.822706967592239">
        <ele>46.280000000000001</ele>
        <time>2023-08-29T10:22:55Z</time>
      </trkpt>
      <trkpt lat="56.908871987834573" lon="-5.822690958157182">
        <ele>46.759999999999998</ele>
        <time>2023-08-29T10:22:56Z</time>
      </trkpt>
      <trkpt lat="56.908685993403196" lon="-5.822662962600589">
        <ele>47.240000000000002</ele>
        <time>2023-08-29T10:22:57Z</time>
      </trkpt>
      <trkpt lat="56.908496981486678" lon="-5.822634967043996">
        <ele>47.719999999999999</ele>
        <time>2023-08-29T10:22:58Z</time>
      </trkpt>
      <trkpt lat="56.90830796957016" lon="-5.822552992030978">
        <ele>48.200000000000003</ele>
        <time>2023-08-29T10:22:59Z</time>
      </trkpt>
      <trkpt lat="56.908119963482022" lon="-5.822440003976226">
        <ele>49.159999999999997</ele>
        <time>2023-08-29T10:23:00Z</time>
      </trkpt>
      <trkpt lat="56.907929023727775" lon="-5.822325004264712">
        <ele>49.649999999999999</ele>
        <time>2023-08-29T10:23:01Z</time>
      </trkpt>
      <trkpt lat="56.907735988497734" lon="-5.82219198346138">
        <ele>50.609999999999999</ele>
        <time>2023-08-29T10:23:02Z</time>
      </trkpt>
      <trkpt lat="56.907553011551499" lon="-5.822017975151539">
        <ele>51.090000000000003</ele>
        <time>2023-08-29T10:23:03Z</time>
      </trkpt>
      <trkpt lat="56.907366011291742" lon="-5.821834998205304">
        <ele>52.049999999999997</ele>
        <time>2023-08-29T10:23:04Z</time>
      </trkpt>
      <trkpt lat="56.907206000760198" lon="-5.821596030145884">
        <ele>53.009999999999998</ele>
        <time>2023-08-29T10:23:05Z</time>
      </trkpt>
      <trkpt lat="56.906627984717488" lon="-5.820480985566974">
        <ele>58.299999999999997</ele>
        <time>2023-08-29T10:23:10Z</time>
      </trkpt>
      <trkpt lat="56.905721984803677" lon="-5.818306971341372">
        <ele>66.469999999999999</ele>
        <time>2023-08-29T10:23:20Z</time>
      </trkpt>
      <trkpt lat="56.904627978801727" lon="-5.815434996038675">
        <ele>70.310000000000002</ele>
        <time>2023-08-29T10:23:30Z</time>
      </trkpt>
      <trkpt lat="56.90338896587491" lon="-5.811832034960389">
        <ele>71.269999999999996</ele>
        <time>2023-08-29T10:23:40Z</time>
      </trkpt>
      <trkpt lat="56.902417000383139" lon="-5.808922005817294">
        <ele>76.079999999999998</ele>
        <time>2023-08-29T10:23:49Z</time>
      </trkpt>
      <trkpt lat="56.900944970548153" lon="-5.804754020646215">
        <ele>87.620000000000005</ele>
        <time>2023-08-29T10:24:02Z</time>
      </trkpt>
      <trkpt lat="56.89943396486342" lon="-5.800707992166281">
        <ele>88.099999999999994</ele>
        <time>2023-08-29T10:24:15Z</time>
      </trkpt>
      <trkpt lat="56.898973966017365" lon="-5.798312025144696">
        <ele>83.290000000000006</ele>
        <time>2023-08-29T10:24:22Z</time>
      </trkpt>
      <trkpt lat="56.898881010711193" lon="-5.79524701461196">
        <ele>72.719999999999999</ele>
        <time>2023-08-29T10:24:30Z</time>
      </trkpt>
      <trkpt lat="56.899030962958932" lon="-5.792387025430799">
        <ele>63.579999999999998</ele>
        <time>2023-08-29T10:24:38Z</time>
      </trkpt>
      <trkpt lat="56.899668993428349" lon="-5.79000698402524">
        <ele>51.57</ele>
        <time>2023-08-29T10:24:45Z</time>
      </trkpt>
      <trkpt lat="56.899952972307801" lon="-5.788638973608613">
        <ele>43.880000000000003</ele>
        <time>2023-08-29T10:24:49Z</time>
      </trkpt>
      <trkpt lat="56.89997099339962" lon="-5.788278970867395">
        <ele>42.439999999999998</ele>
        <time>2023-08-29T10:24:50Z</time>
      </trkpt>
      <trkpt lat="56.899960013106465" lon="-5.787917962297797">
        <ele>40.990000000000002</ele>
        <time>2023-08-29T10:24:51Z</time>
      </trkpt>
      <trkpt lat="56.899929000064731" lon="-5.787566006183624">
        <ele>39.07</ele>
        <time>2023-08-29T10:24:52Z</time>
      </trkpt>
      <trkpt lat="56.899878038093448" lon="-5.787217989563942">
        <ele>37.630000000000003</ele>
        <time>2023-08-29T10:24:53Z</time>
      </trkpt>
      <trkpt lat="56.899818023666739" lon="-5.786881959065795">
        <ele>36.670000000000002</ele>
        <time>2023-08-29T10:24:54Z</time>
      </trkpt>
      <trkpt lat="56.899740993976593" lon="-5.786554981023073">
        <ele>35.710000000000001</ele>
        <time>2023-08-29T10:24:55Z</time>
      </trkpt>
      <trkpt lat="56.898987041786313" lon="-5.783705972135067">
        <ele>29.460000000000001</ele>
        <time>2023-08-29T10:25:04Z</time>
      </trkpt>
      <trkpt lat="56.898928033187985" lon="-5.783353010192514">
        <ele>28.98</ele>
        <time>2023-08-29T10:25:05Z</time>
      </trkpt>
      <trkpt lat="56.898878999054432" lon="-5.782984038814902">
        <ele>28.5</ele>
        <time>2023-08-29T10:25:06Z</time>
      </trkpt>
      <trkpt lat="56.898869024589658" lon="-5.782602997496724">
        <ele>28.02</ele>
        <time>2023-08-29T10:25:07Z</time>
      </trkpt>
      <trkpt lat="56.898860977962613" lon="-5.782216005027294">
        <ele>28.02</ele>
        <time>2023-08-29T10:25:08Z</time>
      </trkpt>
      <trkpt lat="56.898882016539574" lon="-5.781827000901103">
        <ele>28.02</ele>
        <time>2023-08-29T10:25:09Z</time>
      </trkpt>
      <trkpt lat="56.898903977125883" lon="-5.781442020088434">
        <ele>28.02</ele>
        <time>2023-08-29T10:25:10Z</time>
      </trkpt>
      <trkpt lat="56.899136994034052" lon="-5.778325963765383">
        <ele>30.899999999999999</ele>
        <time>2023-08-29T10:25:19Z</time>
      </trkpt>
      <trkpt lat="56.899505965411663" lon="-5.773644000291824">
        <ele>35.229999999999997</ele>
        <time>2023-08-29T10:25:32Z</time>
      </trkpt>
      <trkpt lat="56.899628005921841" lon="-5.771882040426135">
        <ele>38.109999999999999</ele>
        <time>2023-08-29T10:25:37Z</time>
      </trkpt>
      <trkpt lat="56.899688020348549" lon="-5.771531006321311">
        <ele>38.590000000000003</ele>
        <time>2023-08-29T10:25:38Z</time>
      </trkpt>
      <trkpt lat="56.899896981194615" lon="-5.769920004531741">
        <ele>42.920000000000002</ele>
        <time>2023-08-29T10:25:44Z</time>
      </trkpt>
      <trkpt lat="56.899932017549872" lon="-5.769423041492701">
        <ele>46.759999999999998</ele>
        <time>2023-08-29T10:25:50Z</time>
      </trkpt>
      <trkpt lat="56.899936962872744" lon="-5.769353974610567">
        <ele>48.68</ele>
        <time>2023-08-29T10:26:01Z</time>
      </trkpt>
      <trkpt lat="56.89994802698493" lon="-5.76918700709939">
        <ele>49.649999999999999</ele>
        <time>2023-08-29T10:26:03Z</time>
      </trkpt>
      <trkpt lat="56.899956995621324" lon="-5.769063038751483">
        <ele>50.130000000000003</ele>
        <time>2023-08-29T10:26:04Z</time>
      </trkpt>
      <trkpt lat="56.899966970086098" lon="-5.768925994634628">
        <ele>50.609999999999999</ele>
        <time>2023-08-29T10:26:05Z</time>
      </trkpt>
      <trkpt lat="56.899985997006297" lon="-5.768772019073367">
        <ele>51.090000000000003</ele>
        <time>2023-08-29T10:26:06Z</time>
      </trkpt>
      <trkpt lat="56.900028996169567" lon="-5.768626006320119">
        <ele>51.090000000000003</ele>
        <time>2023-08-29T10:26:07Z</time>
      </trkpt>
      <trkpt lat="56.900075012817979" lon="-5.768468007445335">
        <ele>51.090000000000003</ele>
        <time>2023-08-29T10:26:08Z</time>
      </trkpt>
      <trkpt lat="56.90012002363801" lon="-5.768312020227313">
        <ele>51.57</ele>
        <time>2023-08-29T10:26:09Z</time>
      </trkpt>
      <trkpt lat="56.900150030851364" lon="-5.768151003867388">
        <ele>51.57</ele>
        <time>2023-08-29T10:26:10Z</time>
      </trkpt>
      <trkpt lat="56.900190012529492" lon="-5.767929973080754">
        <ele>52.049999999999997</ele>
        <time>2023-08-29T10:26:11Z</time>
      </trkpt>
      <trkpt lat="56.900174003094435" lon="-5.767553960904479">
        <ele>53.490000000000002</ele>
        <time>2023-08-29T10:26:13Z</time>
      </trkpt>
      <trkpt lat="56.900164028629661" lon="-5.767320021986961">
        <ele>53.969999999999999</ele>
        <time>2023-08-29T10:26:14Z</time>
      </trkpt>
      <trkpt lat="56.900147013366222" lon="-5.765354968607426">
        <ele>59.259999999999998</ele>
        <time>2023-08-29T10:26:21Z</time>
      </trkpt>
      <trkpt lat="56.900295959785581" lon="-5.762215023860335">
        <ele>69.349999999999994</ele>
        <time>2023-08-29T10:26:31Z</time>
      </trkpt>
      <trkpt lat="56.900685969740152" lon="-5.759444972500205">
        <ele>75.120000000000005</ele>
        <time>2023-08-29T10:26:40Z</time>
      </trkpt>
      <trkpt lat="56.901282006874681" lon="-5.757074989378452">
        <ele>70.790000000000006</ele>
        <time>2023-08-29T10:26:47Z</time>
      </trkpt>
      <trkpt lat="56.901749968528748" lon="-5.7551349978894">
        <ele>66.950000000000003</ele>
        <time>2023-08-29T10:26:53Z</time>
      </trkpt>
      <trkpt lat="56.901780981570482" lon="-5.754854958504438">
        <ele>65.989999999999995</ele>
        <time>2023-08-29T10:26:54Z</time>
      </trkpt>
      <trkpt lat="56.901794979348779" lon="-5.754558993503451">
        <ele>65.510000000000005</ele>
        <time>2023-08-29T10:26:55Z</time>
      </trkpt>
      <trkpt lat="56.901759020984173" lon="-5.754300998523831">
        <ele>65.030000000000001</ele>
        <time>2023-08-29T10:26:56Z</time>
      </trkpt>
      <trkpt lat="56.901717027649283" lon="-5.754047026857734">
        <ele>64.069999999999993</ele>
        <time>2023-08-29T10:26:57Z</time>
      </trkpt>
      <trkpt lat="56.901618959382176" lon="-5.753581998869777">
        <ele>62.619999999999997</ele>
        <time>2023-08-29T10:26:59Z</time>
      </trkpt>
      <trkpt lat="56.901502031832933" lon="-5.753148989751935">
        <ele>61.659999999999997</ele>
        <time>2023-08-29T10:27:01Z</time>
      </trkpt>
      <trkpt lat="56.901386026293039" lon="-5.752984033897519">
        <ele>61.18</ele>
        <time>2023-08-29T10:27:02Z</time>
      </trkpt>
      <trkpt lat="56.901261974126101" lon="-5.752853024750948">
        <ele>60.700000000000003</ele>
        <time>2023-08-29T10:27:03Z</time>
      </trkpt>
      <trkpt lat="56.901135994121432" lon="-5.752720003947616">
        <ele>60.700000000000003</ele>
        <time>2023-08-29T10:27:04Z</time>
      </trkpt>
      <trkpt lat="56.900986963883042" lon="-5.752677004784346">
        <ele>59.740000000000002</ele>
        <time>2023-08-29T10:27:05Z</time>
      </trkpt>
      <trkpt lat="56.900838017463684" lon="-5.752655966207385">
        <ele>58.780000000000001</ele>
        <time>2023-08-29T10:27:06Z</time>
      </trkpt>
      <trkpt lat="56.900695022195578" lon="-5.752717992290855">
        <ele>58.299999999999997</ele>
        <time>2023-08-29T10:27:07Z</time>
      </trkpt>
      <trkpt lat="56.90055001527071" lon="-5.752801978960633">
        <ele>57.340000000000003</ele>
        <time>2023-08-29T10:27:08Z</time>
      </trkpt>
      <trkpt lat="56.900409031659365" lon="-5.752926031127572">
        <ele>56.859999999999999</ele>
        <time>2023-08-29T10:27:09Z</time>
      </trkpt>
      <trkpt lat="56.900270981714129" lon="-5.753063997253776">
        <ele>56.369999999999997</ele>
        <time>2023-08-29T10:27:10Z</time>
      </trkpt>
      <trkpt lat="56.90016302280128" lon="-5.753234988078475">
        <ele>55.890000000000001</ele>
        <time>2023-08-29T10:27:11Z</time>
      </trkpt>
      <trkpt lat="56.90007995814085" lon="-5.753429029136896">
        <ele>55.409999999999997</ele>
        <time>2023-08-29T10:27:12Z</time>
      </trkpt>
      <trkpt lat="56.900001000612974" lon="-5.753614017739892">
        <ele>55.409999999999997</ele>
        <time>2023-08-29T10:27:13Z</time>
      </trkpt>
      <trkpt lat="56.899926988407969" lon="-5.753788026049733">
        <ele>55.409999999999997</ele>
        <time>2023-08-29T10:27:14Z</time>
      </trkpt>
      <trkpt lat="56.899852976202965" lon="-5.75395398773253">
        <ele>55.409999999999997</ele>
        <time>2023-08-29T10:27:15Z</time>
      </trkpt>
      <trkpt lat="56.899783993139863" lon="-5.754106035456061">
        <ele>55.409999999999997</ele>
        <time>2023-08-29T10:27:16Z</time>
      </trkpt>
      <trkpt lat="56.899711992591619" lon="-5.754264034330845">
        <ele>55.409999999999997</ele>
        <time>2023-08-29T10:27:17Z</time>
      </trkpt>
      <trkpt lat="56.899636974558234" lon="-5.754428990185261">
        <ele>55.890000000000001</ele>
        <time>2023-08-29T10:27:18Z</time>
      </trkpt>
      <trkpt lat="56.899564974009991" lon="-5.754586989060044">
        <ele>55.890000000000001</ele>
        <time>2023-08-29T10:27:19Z</time>
      </trkpt>
      <trkpt lat="56.899479981511831" lon="-5.754740964621306">
        <ele>55.890000000000001</ele>
        <time>2023-08-29T10:27:20Z</time>
      </trkpt>
      <trkpt lat="56.89939096570015" lon="-5.75489996932447">
        <ele>56.369999999999997</ele>
        <time>2023-08-29T10:27:21Z</time>
      </trkpt>
      <trkpt lat="56.899284012615681" lon="-5.755038019269705">
        <ele>56.369999999999997</ele>
        <time>2023-08-29T10:27:22Z</time>
      </trkpt>
      <trkpt lat="56.899155015125871" lon="-5.755148995667696">
        <ele>56.859999999999999</ele>
        <time>2023-08-29T10:27:23Z</time>
      </trkpt>
      <trkpt lat="56.899007996544242" lon="-5.75524102896452">
        <ele>56.859999999999999</ele>
        <time>2023-08-29T10:27:24Z</time>
      </trkpt>
      <trkpt lat="56.898857960477471" lon="-5.755333984270692">
        <ele>56.859999999999999</ele>
        <time>2023-08-29T10:27:25Z</time>
      </trkpt>
      <trkpt lat="56.898555038496852" lon="-5.755477985367179">
        <ele>54.93</ele>
        <time>2023-08-29T10:27:27Z</time>
      </trkpt>
      <trkpt lat="56.898117000237107" lon="-5.755563983693719">
        <ele>52.530000000000001</ele>
        <time>2023-08-29T10:27:30Z</time>
      </trkpt>
      <trkpt lat="56.897980039939284" lon="-5.75552199035883">
        <ele>52.049999999999997</ele>
        <time>2023-08-29T10:27:31Z</time>
      </trkpt>
      <trkpt lat="56.897830003872514" lon="-5.75543699786067">
        <ele>51.57</ele>
        <time>2023-08-29T10:27:32Z</time>
      </trkpt>
      <trkpt lat="56.897353995591402" lon="-5.755185037851334">
        <ele>49.159999999999997</ele>
        <time>2023-08-29T10:27:35Z</time>
      </trkpt>
      <trkpt lat="56.897206977009773" lon="-5.755141032859683">
        <ele>48.200000000000003</ele>
        <time>2023-08-29T10:27:36Z</time>
      </trkpt>
      <trkpt lat="56.897033974528313" lon="-5.755174979567528">
        <ele>47.240000000000002</ele>
        <time>2023-08-29T10:27:37Z</time>
      </trkpt>
      <trkpt lat="56.896878993138671" lon="-5.755205992609263">
        <ele>45.799999999999997</ele>
        <time>2023-08-29T10:27:38Z</time>
      </trkpt>
      <trkpt lat="56.896727029234171" lon="-5.755276987329125">
        <ele>44.359999999999999</ele>
        <time>2023-08-29T10:27:39Z</time>
      </trkpt>
      <trkpt lat="56.896587973460555" lon="-5.75541696511209">
        <ele>42.920000000000002</ele>
        <time>2023-08-29T10:27:40Z</time>
      </trkpt>
      <trkpt lat="56.896444978192449" lon="-5.755559038370848">
        <ele>40.990000000000002</ele>
        <time>2023-08-29T10:27:41Z</time>
      </trkpt>
      <trkpt lat="56.896312041208148" lon="-5.755749978125095">
        <ele>39.549999999999997</ele>
        <time>2023-08-29T10:27:42Z</time>
      </trkpt>
      <trkpt lat="56.896185977384448" lon="-5.755966985598207">
        <ele>38.109999999999999</ele>
        <time>2023-08-29T10:27:43Z</time>
      </trkpt>
      <trkpt lat="56.895086020231247" lon="-5.757501041516662">
        <ele>24.649999999999999</ele>
        <time>2023-08-29T10:27:52Z</time>
      </trkpt>
      <trkpt lat="56.894936989992857" lon="-5.757553009316325">
        <ele>23.210000000000001</ele>
        <time>2023-08-29T10:27:53Z</time>
      </trkpt>
      <trkpt lat="56.89477002248168" lon="-5.757572036236525">
        <ele>22.25</ele>
        <time>2023-08-29T10:27:54Z</time>
      </trkpt>
      <trkpt lat="56.894631972536445" lon="-5.757587039843202">
        <ele>20.32</ele>
        <time>2023-08-29T10:27:55Z</time>
      </trkpt>
      <trkpt lat="56.894452013075352" lon="-5.757521996274591">
        <ele>18.879999999999999</ele>
        <time>2023-08-29T10:27:56Z</time>
      </trkpt>
      <trkpt lat="56.894287979230285" lon="-5.757461981847882">
        <ele>17.440000000000001</ele>
        <time>2023-08-29T10:27:57Z</time>
      </trkpt>
      <trkpt lat="56.894136015325785" lon="-5.757397022098303">
        <ele>16</ele>
        <time>2023-08-29T10:27:58Z</time>
      </trkpt>
      <trkpt lat="56.893944991752505" lon="-5.757243968546391">
        <ele>15.039999999999999</ele>
        <time>2023-08-29T10:27:59Z</time>
      </trkpt>
      <trkpt lat="56.893848013132811" lon="-5.757104996591806">
        <ele>13.6</ele>
        <time>2023-08-29T10:28:00Z</time>
      </trkpt>
      <trkpt lat="56.893737958744168" lon="-5.756858987733722">
        <ele>12.15</ele>
        <time>2023-08-29T10:28:01Z</time>
      </trkpt>
      <trkpt lat="56.893648020923138" lon="-5.756588000804186">
        <ele>11.19</ele>
        <time>2023-08-29T10:28:02Z</time>
      </trkpt>
      <trkpt lat="56.893594041466713" lon="-5.756286000832915">
        <ele>10.23</ele>
        <time>2023-08-29T10:28:03Z</time>
      </trkpt>
      <trkpt lat="56.893562022596598" lon="-5.755986012518406">
        <ele>9.27</ele>
        <time>2023-08-29T10:28:04Z</time>
      </trkpt>
      <trkpt lat="56.893536038696766" lon="-5.755679989233613">
        <ele>8.310000000000001</ele>
        <time>2023-08-29T10:28:05Z</time>
      </trkpt>
      <trkpt lat="56.893524974584579" lon="-5.755367008969188">
        <ele>7.35</ele>
        <time>2023-08-29T10:28:06Z</time>
      </trkpt>
      <trkpt lat="56.893560010939837" lon="-5.75505000539124">
        <ele>6.87</ele>
        <time>2023-08-29T10:28:07Z</time>
      </trkpt>
      <trkpt lat="56.893614996224642" lon="-5.754736019298434">
        <ele>6.39</ele>
        <time>2023-08-29T10:28:08Z</time>
      </trkpt>
      <trkpt lat="56.89369797706604" lon="-5.754433013498783">
        <ele>6.39</ele>
        <time>2023-08-29T10:28:09Z</time>
      </trkpt>
      <trkpt lat="56.893784981220961" lon="-5.754123972728849">
        <ele>5.91</ele>
        <time>2023-08-29T10:28:10Z</time>
      </trkpt>
      <trkpt lat="56.893895035609603" lon="-5.753831025213003">
        <ele>5.91</ele>
        <time>2023-08-29T10:28:11Z</time>
      </trkpt>
      <trkpt lat="56.894961968064308" lon="-5.750083979219198">
        <ele>5.42</ele>
        <time>2023-08-29T10:28:22Z</time>
      </trkpt>
      <trkpt lat="56.895273020491004" lon="-5.747479973360896">
        <ele>7.35</ele>
        <time>2023-08-29T10:28:29Z</time>
      </trkpt>
      <trkpt lat="56.89569697715342" lon="-5.74271796271205">
        <ele>8.789999999999999</ele>
        <time>2023-08-29T10:28:42Z</time>
      </trkpt>
      <trkpt lat="56.896326038986444" lon="-5.739072002470493">
        <ele>7.83</ele>
        <time>2023-08-29T10:28:52Z</time>
      </trkpt>
      <trkpt lat="56.896355962380767" lon="-5.738727003335953">
        <ele>7.83</ele>
        <time>2023-08-29T10:28:53Z</time>
      </trkpt>
      <trkpt lat="56.896369960159063" lon="-5.738363983109593">
        <ele>7.83</ele>
        <time>2023-08-29T10:28:54Z</time>
      </trkpt>
      <trkpt lat="56.896383035928011" lon="-5.738001968711615">
        <ele>7.83</ele>
        <time>2023-08-29T10:28:55Z</time>
      </trkpt>
      <trkpt lat="56.89638496376574" lon="-5.7376469951123">
        <ele>7.83</ele>
        <time>2023-08-29T10:28:56Z</time>
      </trkpt>
      <trkpt lat="56.896365014836192" lon="-5.737291015684605">
        <ele>7.83</ele>
        <time>2023-08-29T10:28:57Z</time>
      </trkpt>
      <trkpt lat="56.896334001794457" lon="-5.736935036256909">
        <ele>8.310000000000001</ele>
        <time>2023-08-29T10:28:58Z</time>
      </trkpt>
      <trkpt lat="56.896266024559736" lon="-5.736593976616859">
        <ele>8.310000000000001</ele>
        <time>2023-08-29T10:28:59Z</time>
      </trkpt>
      <trkpt lat="56.896174997091293" lon="-5.736262975260615">
        <ele>8.310000000000001</ele>
        <time>2023-08-29T10:29:00Z</time>
      </trkpt>
      <trkpt lat="56.896072989329696" lon="-5.735941026359797">
        <ele>8.310000000000001</ele>
        <time>2023-08-29T10:29:01Z</time>
      </trkpt>
      <trkpt lat="56.895963018760085" lon="-5.735614970326424">
        <ele>8.310000000000001</ele>
        <time>2023-08-29T10:29:02Z</time>
      </trkpt>
      <trkpt lat="56.895821029320359" lon="-5.735330991446972">
        <ele>8.310000000000001</ele>
        <time>2023-08-29T10:29:03Z</time>
      </trkpt>
      <trkpt lat="56.89567300491035" lon="-5.735051035881043">
        <ele>7.83</ele>
        <time>2023-08-29T10:29:04Z</time>
      </trkpt>
      <trkpt lat="56.895506037399173" lon="-5.734809972345829">
        <ele>7.83</ele>
        <time>2023-08-29T10:29:05Z</time>
      </trkpt>
      <trkpt lat="56.895326999947429" lon="-5.734600005671382">
        <ele>8.310000000000001</ele>
        <time>2023-08-29T10:29:06Z</time>
      </trkpt>
      <trkpt lat="56.895145028829575" lon="-5.734391966834664">
        <ele>7.83</ele>
        <time>2023-08-29T10:29:07Z</time>
      </trkpt>
      <trkpt lat="56.894950987771153" lon="-5.734219970181584">
        <ele>7.83</ele>
        <time>2023-08-29T10:29:08Z</time>
      </trkpt>
      <trkpt lat="56.893282989040017" lon="-5.732616009190679">
        <ele>5.42</ele>
        <time>2023-08-29T10:29:17Z</time>
      </trkpt>
      <trkpt lat="56.893000015988946" lon="-5.732238991186023">
        <ele>4.94</ele>
        <time>2023-08-29T10:29:19Z</time>
      </trkpt>
      <trkpt lat="56.892894990742207" lon="-5.732015026733279">
        <ele>4.46</ele>
        <time>2023-08-29T10:29:20Z</time>
      </trkpt>
      <trkpt lat="56.892797006294131" lon="-5.73180397041142">
        <ele>4.46</ele>
        <time>2023-08-29T10:29:21Z</time>
      </trkpt>
      <trkpt lat="56.892715031281114" lon="-5.731576988473535">
        <ele>3.98</ele>
        <time>2023-08-29T10:29:22Z</time>
      </trkpt>
      <trkpt lat="56.89268896356225" lon="-5.731317987665534">
        <ele>3.98</ele>
        <time>2023-08-29T10:29:23Z</time>
      </trkpt>
      <trkpt lat="56.892660968005657" lon="-5.731043983250856">
        <ele>3.5</ele>
        <time>2023-08-29T10:29:24Z</time>
      </trkpt>
      <trkpt lat="56.892630960792303" lon="-5.730755981057882">
        <ele>3.5</ele>
        <time>2023-08-29T10:29:25Z</time>
      </trkpt>
      <trkpt lat="56.892529036849737" lon="-5.729760965332389">
        <ele>3.5</ele>
        <time>2023-08-29T10:29:28Z</time>
      </trkpt>
      <trkpt lat="56.892195018008351" lon="-5.72595901787281">
        <ele>5.91</ele>
        <time>2023-08-29T10:29:38Z</time>
      </trkpt>
      <trkpt lat="56.892446978017688" lon="-5.723684001713991">
        <ele>6.87</ele>
        <time>2023-08-29T10:29:44Z</time>
      </trkpt>
      <trkpt lat="56.892726011574268" lon="-5.722003011032939">
        <ele>11.19</ele>
        <time>2023-08-29T10:29:49Z</time>
      </trkpt>
      <trkpt lat="56.892659962177277" lon="-5.720132002606988">
        <ele>17.920000000000002</ele>
        <time>2023-08-29T10:29:54Z</time>
      </trkpt>
      <trkpt lat="56.892587961629033" lon="-5.719774011522532">
        <ele>19.84</ele>
        <time>2023-08-29T10:29:55Z</time>
      </trkpt>
      <trkpt lat="56.892504980787635" lon="-5.719433035701513">
        <ele>21.289999999999999</ele>
        <time>2023-08-29T10:29:56Z</time>
      </trkpt>
      <trkpt lat="56.89182797446847" lon="-5.716862976551056">
        <ele>34.259999999999998</ele>
        <time>2023-08-29T10:30:04Z</time>
      </trkpt>
      <trkpt lat="56.891433019191027" lon="-5.713173011317849">
        <ele>52.049999999999997</ele>
        <time>2023-08-29T10:30:14Z</time>
      </trkpt>
      <trkpt lat="56.89116102643311" lon="-5.710984999313951">
        <ele>57.340000000000003</ele>
        <time>2023-08-29T10:30:20Z</time>
      </trkpt>
      <trkpt lat="56.891069998964667" lon="-5.710637988522649">
        <ele>57.82</ele>
        <time>2023-08-29T10:30:21Z</time>
      </trkpt>
      <trkpt lat="56.890979977324605" lon="-5.710293995216489">
        <ele>57.82</ele>
        <time>2023-08-29T10:30:22Z</time>
      </trkpt>
      <trkpt lat="56.890853997319937" lon="-5.709988977760077">
        <ele>57.82</ele>
        <time>2023-08-29T10:30:23Z</time>
      </trkpt>
      <trkpt lat="56.890717959031463" lon="-5.709689995273948">
        <ele>58.299999999999997</ele>
        <time>2023-08-29T10:30:24Z</time>
      </trkpt>
      <trkpt lat="56.890584016218781" lon="-5.7093920186162">
        <ele>57.82</ele>
        <time>2023-08-29T10:30:25Z</time>
      </trkpt>
      <trkpt lat="56.890420988202095" lon="-5.709152966737747">
        <ele>57.82</ele>
        <time>2023-08-29T10:30:26Z</time>
      </trkpt>
      <trkpt lat="56.890255026519299" lon="-5.708937970921397">
        <ele>57.340000000000003</ele>
        <time>2023-08-29T10:30:27Z</time>
      </trkpt>
      <trkpt lat="56.890095015987754" lon="-5.708729010075331">
        <ele>56.369999999999997</ele>
        <time>2023-08-29T10:30:28Z</time>
      </trkpt>
      <trkpt lat="56.88972202129662" lon="-5.708466991782188">
        <ele>55.409999999999997</ele>
        <time>2023-08-29T10:30:30Z</time>
      </trkpt>
      <trkpt lat="56.889526974409819" lon="-5.708342017605901">
        <ele>54.93</ele>
        <time>2023-08-29T10:30:31Z</time>
      </trkpt>
      <trkpt lat="56.889332011342049" lon="-5.708263982087374">
        <ele>54.450000000000003</ele>
        <time>2023-08-29T10:30:32Z</time>
      </trkpt>
      <trkpt lat="56.889135036617517" lon="-5.70821100845933">
        <ele>53.969999999999999</ele>
        <time>2023-08-29T10:30:33Z</time>
      </trkpt>
      <trkpt lat="56.888944013044238" lon="-5.708159040659666">
        <ele>53.969999999999999</ele>
        <time>2023-08-29T10:30:34Z</time>
      </trkpt>
      <trkpt lat="56.887134024873376" lon="-5.707583958283067">
        <ele>59.259999999999998</ele>
        <time>2023-08-29T10:30:44Z</time>
      </trkpt>
      <trkpt lat="56.886962028220296" lon="-5.707430988550186">
        <ele>60.219999999999999</ele>
        <time>2023-08-29T10:30:45Z</time>
      </trkpt>
      <trkpt lat="56.886807968840003" lon="-5.707234013825655">
        <ele>61.659999999999997</ele>
        <time>2023-08-29T10:30:46Z</time>
      </trkpt>
      <trkpt lat="56.886664973571897" lon="-5.707016000524163">
        <ele>63.100000000000001</ele>
        <time>2023-08-29T10:30:47Z</time>
      </trkpt>
      <trkpt lat="56.886530024930835" lon="-5.706776026636362">
        <ele>64.069999999999993</ele>
        <time>2023-08-29T10:30:48Z</time>
      </trkpt>
      <trkpt lat="56.886416031047702" lon="-5.706509985029697">
        <ele>65.510000000000005</ele>
        <time>2023-08-29T10:30:49Z</time>
      </trkpt>
      <trkpt lat="56.886325003579259" lon="-5.706203039735556">
        <ele>66.950000000000003</ele>
        <time>2023-08-29T10:30:50Z</time>
      </trkpt>
      <trkpt lat="56.886232970282435" lon="-5.705895004794002">
        <ele>67.909999999999997</ele>
        <time>2023-08-29T10:30:51Z</time>
      </trkpt>
      <trkpt lat="56.886172033846378" lon="-5.70556802675128">
        <ele>69.349999999999994</ele>
        <time>2023-08-29T10:30:52Z</time>
      </trkpt>
      <trkpt lat="56.886113025248051" lon="-5.705221015959978">
        <ele>70.790000000000006</ele>
        <time>2023-08-29T10:30:53Z</time>
      </trkpt>
      <trkpt lat="56.886054016649723" lon="-5.704874005168676">
        <ele>71.760000000000005</ele>
        <time>2023-08-29T10:30:54Z</time>
      </trkpt>
      <trkpt lat="56.885680016130209" lon="-5.702312998473644">
        <ele>78.480000000000004</ele>
        <time>2023-08-29T10:31:01Z</time>
      </trkpt>
      <trkpt lat="56.885569039732218" lon="-5.701979985460639">
        <ele>78.969999999999999</ele>
        <time>2023-08-29T10:31:02Z</time>
      </trkpt>
      <trkpt lat="56.885434007272124" lon="-5.701670022681356">
        <ele>79.450000000000003</ele>
        <time>2023-08-29T10:31:03Z</time>
      </trkpt>
      <trkpt lat="56.885281037539244" lon="-5.701387971639633">
        <ele>79.450000000000003</ele>
        <time>2023-08-29T10:31:04Z</time>
      </trkpt>
      <trkpt lat="56.88512203283608" lon="-5.701112039387226">
        <ele>79.450000000000003</ele>
        <time>2023-08-29T10:31:05Z</time>
      </trkpt>
      <trkpt lat="56.883475994691253" lon="-5.698544997721911">
        <ele>68.870000000000005</ele>
        <time>2023-08-29T10:31:15Z</time>
      </trkpt>
      <trkpt lat="56.883335011079907" lon="-5.698269987478852">
        <ele>66.950000000000003</ele>
        <time>2023-08-29T10:31:16Z</time>
      </trkpt>
      <trkpt lat="56.883193021640182" lon="-5.697994977235794">
        <ele>65.989999999999995</ele>
        <time>2023-08-29T10:31:17Z</time>
      </trkpt>
      <trkpt lat="56.882329015061259" lon="-5.695506976917386">
        <ele>58.780000000000001</ele>
        <time>2023-08-29T10:31:25Z</time>
      </trkpt>
      <trkpt lat="56.880991011857986" lon="-5.691401017829776">
        <ele>50.130000000000003</ele>
        <time>2023-08-29T10:31:38Z</time>
      </trkpt>
      <trkpt lat="56.880549034103751" lon="-5.688923997804523">
        <ele>42.439999999999998</ele>
        <time>2023-08-29T10:31:45Z</time>
      </trkpt>
      <trkpt lat="56.880462029948831" lon="-5.685204025357962">
        <ele>31.379999999999999</ele>
        <time>2023-08-29T10:31:55Z</time>
      </trkpt>
      <trkpt lat="56.88041802495718" lon="-5.682685011997819">
        <ele>23.210000000000001</ele>
        <time>2023-08-29T10:32:03Z</time>
      </trkpt>
      <trkpt lat="56.880307970568538" lon="-5.67933501675725">
        <ele>13.6</ele>
        <time>2023-08-29T10:32:12Z</time>
      </trkpt>
      <trkpt lat="56.879790974780917" lon="-5.676915999501944">
        <ele>8.789999999999999</ele>
        <time>2023-08-29T10:32:19Z</time>
      </trkpt>
      <trkpt lat="56.878734016790986" lon="-5.674635032191873">
        <ele>8.310000000000001</ele>
        <time>2023-08-29T10:32:27Z</time>
      </trkpt>
      <trkpt lat="56.878130016848445" lon="-5.673073986545205">
        <ele>12.630000000000001</ele>
        <time>2023-08-29T10:32:33Z</time>
      </trkpt>
      <trkpt lat="56.877746041864157" lon="-5.670776003971696">
        <ele>19.359999999999999</ele>
        <time>2023-08-29T10:32:41Z</time>
      </trkpt>
      <trkpt lat="56.877914015203714" lon="-5.66833795979619">
        <ele>24.649999999999999</ele>
        <time>2023-08-29T10:32:49Z</time>
      </trkpt>
      <trkpt lat="56.878261025995016" lon="-5.666947988793254">
        <ele>27.530000000000001</ele>
        <time>2023-08-29T10:32:55Z</time>
      </trkpt>
      <trkpt lat="56.878335038200021" lon="-5.66672301851213">
        <ele>28.98</ele>
        <time>2023-08-29T10:32:57Z</time>
      </trkpt>
      <trkpt lat="56.878362027928233" lon="-5.666642971336842">
        <ele>28.98</ele>
        <time>2023-08-29T10:32:58Z</time>
      </trkpt>
      <trkpt lat="56.878350963816047" lon="-5.666520008817315">
        <ele>29.460000000000001</ele>
        <time>2023-08-29T10:32:59Z</time>
      </trkpt>
      <trkpt lat="56.87831299379468" lon="-5.666474997997284">
        <ele>29.940000000000001</ele>
        <time>2023-08-29T10:33:00Z</time>
      </trkpt>
      <trkpt lat="56.878261025995016" lon="-5.666413977742195">
        <ele>30.899999999999999</ele>
        <time>2023-08-29T10:33:01Z</time>
      </trkpt>
      <trkpt lat="56.878200005739927" lon="-5.666340971365571">
        <ele>31.379999999999999</ele>
        <time>2023-08-29T10:33:02Z</time>
      </trkpt>
      <trkpt lat="56.877886019647121" lon="-5.666026985272765">
        <ele>31.859999999999999</ele>
        <time>2023-08-29T10:33:06Z</time>
      </trkpt>
      <trkpt lat="56.877801027148962" lon="-5.665991026908159">
        <ele>31.379999999999999</ele>
        <time>2023-08-29T10:33:07Z</time>
      </trkpt>
      <trkpt lat="56.877705976366997" lon="-5.666011981666088">
        <ele>30.899999999999999</ele>
        <time>2023-08-29T10:33:08Z</time>
      </trkpt>
      <trkpt lat="56.877624001353979" lon="-5.666049029678106">
        <ele>30.420000000000002</ele>
        <time>2023-08-29T10:33:09Z</time>
      </trkpt>
      <trkpt lat="56.877547977492213" lon="-5.666177021339536">
        <ele>29.460000000000001</ele>
        <time>2023-08-29T10:33:10Z</time>
      </trkpt>
      <trkpt lat="56.877461979165673" lon="-5.666319010779262">
        <ele>28.5</ele>
        <time>2023-08-29T10:33:11Z</time>
      </trkpt>
      <trkpt lat="56.87736801803112" lon="-5.666477009654045">
        <ele>27.530000000000001</ele>
        <time>2023-08-29T10:33:12Z</time>
      </trkpt>
      <trkpt lat="56.876778015866876" lon="-5.667604962363839">
        <ele>24.170000000000002</ele>
        <time>2023-08-29T10:33:18Z</time>
      </trkpt>
      <trkpt lat="56.876440979540348" lon="-5.668018022552133">
        <ele>22.25</ele>
        <time>2023-08-29T10:33:21Z</time>
      </trkpt>
      <trkpt lat="56.876325979828835" lon="-5.668139979243279">
        <ele>21.289999999999999</ele>
        <time>2023-08-29T10:33:22Z</time>
      </trkpt>
      <trkpt lat="56.876196982339025" lon="-5.668196976184845">
        <ele>19.84</ele>
        <time>2023-08-29T10:33:23Z</time>
      </trkpt>
      <trkpt lat="56.876064967364073" lon="-5.668254978954792">
        <ele>18.879999999999999</ele>
        <time>2023-08-29T10:33:24Z</time>
      </trkpt>
      <trkpt lat="56.87592901289463" lon="-5.66831398755312">
        <ele>17.920000000000002</ele>
        <time>2023-08-29T10:33:25Z</time>
      </trkpt>
      <trkpt lat="56.875790040940046" lon="-5.668376013636589">
        <ele>16.960000000000001</ele>
        <time>2023-08-29T10:33:26Z</time>
      </trkpt>
      <trkpt lat="56.875645034015179" lon="-5.668438961729407">
        <ele>16.48</ele>
        <time>2023-08-29T10:33:27Z</time>
      </trkpt>
      <trkpt lat="56.874418007209897" lon="-5.669209007173777">
        <ele>10.23</ele>
        <time>2023-08-29T10:33:35Z</time>
      </trkpt>
      <trkpt lat="56.873953985050321" lon="-5.669499021023512">
        <ele>9.27</ele>
        <time>2023-08-29T10:33:38Z</time>
      </trkpt>
      <trkpt lat="56.872829971835017" lon="-5.669921971857548">
        <ele>8.789999999999999</ele>
        <time>2023-08-29T10:33:45Z</time>
      </trkpt>
      <trkpt lat="56.872686976566911" lon="-5.670040994882584">
        <ele>8.789999999999999</ele>
        <time>2023-08-29T10:33:46Z</time>
      </trkpt>
      <trkpt lat="56.872548004612327" lon="-5.670192958787084">
        <ele>8.789999999999999</ele>
        <time>2023-08-29T10:33:47Z</time>
      </trkpt>
      <trkpt lat="56.87240400351584" lon="-5.670350035652518">
        <ele>8.789999999999999</ele>
        <time>2023-08-29T10:33:48Z</time>
      </trkpt>
      <trkpt lat="56.872264025732875" lon="-5.670523960143328">
        <ele>8.789999999999999</ele>
        <time>2023-08-29T10:33:49Z</time>
      </trkpt>
      <trkpt lat="56.871187034994364" lon="-5.672233030200005">
        <ele>8.789999999999999</ele>
        <time>2023-08-29T10:33:57Z</time>
      </trkpt>
      <trkpt lat="56.871084021404386" lon="-5.672500999644399">
        <ele>8.310000000000001</ele>
        <time>2023-08-29T10:33:58Z</time>
      </trkpt>
      <trkpt lat="56.87098897062242" lon="-5.672776009887457">
        <ele>8.310000000000001</ele>
        <time>2023-08-29T10:33:59Z</time>
      </trkpt>
      <trkpt lat="56.870914036408067" lon="-5.673080021515489">
        <ele>8.789999999999999</ele>
        <time>2023-08-29T10:34:00Z</time>
      </trkpt>
      <trkpt lat="56.870839018374681" lon="-5.673390990123153">
        <ele>8.789999999999999</ele>
        <time>2023-08-29T10:34:01Z</time>
      </trkpt>
      <trkpt lat="56.870760982856154" lon="-5.673708999529481">
        <ele>9.27</ele>
        <time>2023-08-29T10:34:02Z</time>
      </trkpt>
      <trkpt lat="56.869914997369051" lon="-5.676558008417487">
        <ele>12.15</ele>
        <time>2023-08-29T10:34:11Z</time>
      </trkpt>
      <trkpt lat="56.868969015777111" lon="-5.679845977574587">
        <ele>14.56</ele>
        <time>2023-08-29T10:34:21Z</time>
      </trkpt>
      <trkpt lat="56.868388988077641" lon="-5.682372031733394">
        <ele>13.119999999999999</ele>
        <time>2023-08-29T10:34:29Z</time>
      </trkpt>
      <trkpt lat="56.867966037243605" lon="-5.68421202711761">
        <ele>13.119999999999999</ele>
        <time>2023-08-29T10:34:36Z</time>
      </trkpt>
      <trkpt lat="56.867953967303038" lon="-5.684507992118597">
        <ele>13.119999999999999</ele>
        <time>2023-08-29T10:34:37Z</time>
      </trkpt>
      <trkpt lat="56.867941981181502" lon="-5.684802029281855">
        <ele>13.119999999999999</ele>
        <time>2023-08-29T10:34:38Z</time>
      </trkpt>
      <trkpt lat="56.86795799061656" lon="-5.685066981241107">
        <ele>13.119999999999999</ele>
        <time>2023-08-29T10:34:39Z</time>
      </trkpt>
      <trkpt lat="56.867989003658295" lon="-5.685336962342262">
        <ele>13.119999999999999</ele>
        <time>2023-08-29T10:34:40Z</time>
      </trkpt>
      <trkpt lat="56.868032002821565" lon="-5.685572996735573">
        <ele>13.119999999999999</ele>
        <time>2023-08-29T10:34:41Z</time>
      </trkpt>
      <trkpt lat="56.868100985884666" lon="-5.685825040563941">
        <ele>13.119999999999999</ele>
        <time>2023-08-29T10:34:42Z</time>
      </trkpt>
      <trkpt lat="56.868169968947768" lon="-5.6860810238868">
        <ele>13.119999999999999</ele>
        <time>2023-08-29T10:34:43Z</time>
      </trkpt>
      <trkpt lat="56.868240963667631" lon="-5.686342036351562">
        <ele>12.630000000000001</ele>
        <time>2023-08-29T10:34:44Z</time>
      </trkpt>
      <trkpt lat="56.868312964215875" lon="-5.686604976654053">
        <ele>12.630000000000001</ele>
        <time>2023-08-29T10:34:45Z</time>
      </trkpt>
      <trkpt lat="56.868579005822539" lon="-5.687723960727453">
        <ele>11.67</ele>
        <time>2023-08-29T10:34:49Z</time>
      </trkpt>
      <trkpt lat="56.868629967793822" lon="-5.688029984012246">
        <ele>11.19</ele>
        <time>2023-08-29T10:34:50Z</time>
      </trkpt>
      <trkpt lat="56.868682019412518" lon="-5.6883380189538">
        <ele>11.19</ele>
        <time>2023-08-29T10:34:51Z</time>
      </trkpt>
      <trkpt lat="56.868681013584137" lon="-5.688680000603199">
        <ele>11.19</ele>
        <time>2023-08-29T10:34:52Z</time>
      </trkpt>
      <trkpt lat="56.868670033290982" lon="-5.689019970595837">
        <ele>11.19</ele>
        <time>2023-08-29T10:34:53Z</time>
      </trkpt>
      <trkpt lat="56.868628961965442" lon="-5.689357006922364">
        <ele>11.67</ele>
        <time>2023-08-29T10:34:54Z</time>
      </trkpt>
      <trkpt lat="56.868583029136062" lon="-5.689692031592131">
        <ele>12.15</ele>
        <time>2023-08-29T10:34:55Z</time>
      </trkpt>
      <trkpt lat="56.868250016123056" lon="-5.691690025851131">
        <ele>15.039999999999999</ele>
        <time>2023-08-29T10:35:01Z</time>
      </trkpt>
      <trkpt lat="56.868164017796516" lon="-5.691982973366976">
        <ele>15.52</ele>
        <time>2023-08-29T10:35:02Z</time>
      </trkpt>
      <trkpt lat="56.868051029741764" lon="-5.692254966124892">
        <ele>15.52</ele>
        <time>2023-08-29T10:35:03Z</time>
      </trkpt>
      <trkpt lat="56.867246031761169" lon="-5.693990020081401">
        <ele>16.48</ele>
        <time>2023-08-29T10:35:10Z</time>
      </trkpt>
      <trkpt lat="56.867123991250992" lon="-5.694169979542494">
        <ele>16.48</ele>
        <time>2023-08-29T10:35:11Z</time>
      </trkpt>
      <trkpt lat="56.866988958790898" lon="-5.694321021437645">
        <ele>16.960000000000001</ele>
        <time>2023-08-29T10:35:12Z</time>
      </trkpt>
      <trkpt lat="56.866838000714779" lon="-5.69444197230041">
        <ele>16.48</ele>
        <time>2023-08-29T10:35:13Z</time>
      </trkpt>
      <trkpt lat="56.866675978526473" lon="-5.694549009203911">
        <ele>16.48</ele>
        <time>2023-08-29T10:35:14Z</time>
      </trkpt>
      <trkpt lat="56.866497024893761" lon="-5.694625033065677">
        <ele>16.48</ele>
        <time>2023-08-29T10:35:15Z</time>
      </trkpt>
      <trkpt lat="56.866307007148862" lon="-5.694704996421933">
        <ele>16</ele>
        <time>2023-08-29T10:35:16Z</time>
      </trkpt>
      <trkpt lat="56.864856015890837" lon="-5.695690959692001">
        <ele>16.48</ele>
        <time>2023-08-29T10:35:24Z</time>
      </trkpt>
      <trkpt lat="56.86385496519506" lon="-5.697550987824798">
        <ele>15.039999999999999</ele>
        <time>2023-08-29T10:35:31Z</time>
      </trkpt>
      <trkpt lat="56.86297201551497" lon="-5.700406031683087">
        <ele>12.15</ele>
        <time>2023-08-29T10:35:40Z</time>
      </trkpt>
      <trkpt lat="56.862215967848897" lon="-5.702478960156441">
        <ele>10.710000000000001</ele>
        <time>2023-08-29T10:35:48Z</time>
      </trkpt>
      <trkpt lat="56.861244002357125" lon="-5.704029025509954">
        <ele>10.710000000000001</ele>
        <time>2023-08-29T10:35:55Z</time>
      </trkpt>
      <trkpt lat="56.861049039289355" lon="-5.704177971929312">
        <ele>10.710000000000001</ele>
        <time>2023-08-29T10:35:56Z</time>
      </trkpt>
      <trkpt lat="56.860865978524089" lon="-5.704313004389405">
        <ele>11.19</ele>
        <time>2023-08-29T10:35:57Z</time>
      </trkpt>
      <trkpt lat="56.860677972435951" lon="-5.704402020201087">
        <ele>11.19</ele>
        <time>2023-08-29T10:35:58Z</time>
      </trkpt>
      <trkpt lat="56.860487032681704" lon="-5.704468991607428">
        <ele>11.67</ele>
        <time>2023-08-29T10:35:59Z</time>
      </trkpt>
      <trkpt lat="56.860296009108424" lon="-5.704501010477543">
        <ele>12.15</ele>
        <time>2023-08-29T10:36:00Z</time>
      </trkpt>
      <trkpt lat="56.85901802033186" lon="-5.704319039359689">
        <ele>14.08</ele>
        <time>2023-08-29T10:36:07Z</time>
      </trkpt>
      <trkpt lat="56.857372988015413" lon="-5.704348962754011">
        <ele>13.6</ele>
        <time>2023-08-29T10:36:16Z</time>
      </trkpt>
      <trkpt lat="56.855475995689631" lon="-5.705250017344952">
        <ele>10.23</ele>
        <time>2023-08-29T10:36:26Z</time>
      </trkpt>
      <trkpt lat="56.854296997189522" lon="-5.705992989242077">
        <ele>9.27</ele>
        <time>2023-08-29T10:36:33Z</time>
      </trkpt>
      <trkpt lat="56.853092014789581" lon="-5.707324035465717">
        <ele>6.39</ele>
        <time>2023-08-29T10:36:41Z</time>
      </trkpt>
      <trkpt lat="56.852751960977912" lon="-5.707499971613288">
        <ele>5.42</ele>
        <time>2023-08-29T10:36:43Z</time>
      </trkpt>
      <trkpt lat="56.852577030658722" lon="-5.707560991868377">
        <ele>5.42</ele>
        <time>2023-08-29T10:36:44Z</time>
      </trkpt>
      <trkpt lat="56.850708033889532" lon="-5.707916971296072">
        <ele>3.5</ele>
        <time>2023-08-29T10:36:54Z</time>
      </trkpt>
      <trkpt lat="56.848662011325359" lon="-5.708870999515057">
        <ele>0.14</ele>
        <time>2023-08-29T10:37:05Z</time>
      </trkpt>
      <trkpt lat="56.848053988069296" lon="-5.709348013624549">
        <ele>-0.34</ele>
        <time>2023-08-29T10:37:09Z</time>
      </trkpt>
      <trkpt lat="56.847930019721389" lon="-5.709556974470615">
        <ele>-0.34</ele>
        <time>2023-08-29T10:37:10Z</time>
      </trkpt>
      <trkpt lat="56.846840037032962" lon="-5.711254980415106">
        <ele>0.62</ele>
        <time>2023-08-29T10:37:18Z</time>
      </trkpt>
      <trkpt lat="56.846252968534827" lon="-5.712031982839108">
        <ele>0.14</ele>
        <time>2023-08-29T10:37:22Z</time>
      </trkpt>
      <trkpt lat="56.846120031550527" lon="-5.712249996140599">
        <ele>0.62</ele>
        <time>2023-08-29T10:37:23Z</time>
      </trkpt>
      <trkpt lat="56.845660032704473" lon="-5.713291028514504">
        <ele>1.1</ele>
        <time>2023-08-29T10:37:27Z</time>
      </trkpt>
      <trkpt lat="56.845273040235043" lon="-5.714534986764193">
        <ele>1.58</ele>
        <time>2023-08-29T10:37:31Z</time>
      </trkpt>
      <trkpt lat="56.845159968361259" lon="-5.71482902392745">
        <ele>1.58</ele>
        <time>2023-08-29T10:37:32Z</time>
      </trkpt>
      <trkpt lat="56.845039017498493" lon="-5.715111996978521">
        <ele>1.1</ele>
        <time>2023-08-29T10:37:33Z</time>
      </trkpt>
      <trkpt lat="56.843966972082853" lon="-5.717243012040854">
        <ele>0.62</ele>
        <time>2023-08-29T10:37:41Z</time>
      </trkpt>
      <trkpt lat="56.843580985441804" lon="-5.718930037692189">
        <ele>-1.3</ele>
        <time>2023-08-29T10:37:46Z</time>
      </trkpt>
      <trkpt lat="56.843518959358335" lon="-5.719274030998349">
        <ele>-1.3</ele>
        <time>2023-08-29T10:37:47Z</time>
      </trkpt>
      <trkpt lat="56.843496998772025" lon="-5.719639984890819">
        <ele>-1.79</ele>
        <time>2023-08-29T10:37:48Z</time>
      </trkpt>
      <trkpt lat="56.843475960195065" lon="-5.720013985410333">
        <ele>-1.79</ele>
        <time>2023-08-29T10:37:49Z</time>
      </trkpt>
      <trkpt lat="56.843472020700574" lon="-5.720399972051382">
        <ele>-2.27</ele>
        <time>2023-08-29T10:37:50Z</time>
      </trkpt>
      <trkpt lat="56.843301029875875" lon="-5.723449978977442">
        <ele>-0.34</ele>
        <time>2023-08-29T10:37:58Z</time>
      </trkpt>
      <trkpt lat="56.843282002955675" lon="-5.723817022517324">
        <ele>0.14</ele>
        <time>2023-08-29T10:37:59Z</time>
      </trkpt>
      <trkpt lat="56.843262976035476" lon="-5.725953988730907">
        <ele>3.5</ele>
        <time>2023-08-29T10:38:05Z</time>
      </trkpt>
      <trkpt lat="56.842935997992754" lon="-5.728284996002913">
        <ele>7.35</ele>
        <time>2023-08-29T10:38:12Z</time>
      </trkpt>
      <trkpt lat="56.842908002436161" lon="-5.728626977652311">
        <ele>8.310000000000001</ele>
        <time>2023-08-29T10:38:13Z</time>
      </trkpt>
      <trkpt lat="56.842879001051188" lon="-5.728968037292361">
        <ele>8.310000000000001</ele>
        <time>2023-08-29T10:38:14Z</time>
      </trkpt>
      <trkpt lat="56.842888975515962" lon="-5.729324016720057">
        <ele>8.789999999999999</ele>
        <time>2023-08-29T10:38:15Z</time>
      </trkpt>
      <trkpt lat="56.842898027971387" lon="-5.72967697866261">
        <ele>9.27</ele>
        <time>2023-08-29T10:38:16Z</time>
      </trkpt>
      <trkpt lat="56.842787973582745" lon="-5.732550965622068">
        <ele>11.67</ele>
        <time>2023-08-29T10:38:24Z</time>
      </trkpt>
      <trkpt lat="56.842353036627173" lon="-5.735723013058305">
        <ele>17.920000000000002</ele>
        <time>2023-08-29T10:38:33Z</time>
      </trkpt>
      <trkpt lat="56.841851966455579" lon="-5.73945295996964">
        <ele>27.050000000000001</ele>
        <time>2023-08-29T10:38:44Z</time>
      </trkpt>
      <trkpt lat="56.841813996434212" lon="-5.741970967501402">
        <ele>25.129999999999999</ele>
        <time>2023-08-29T10:38:51Z</time>
      </trkpt>
      <trkpt lat="56.842294028028846" lon="-5.745032960548997">
        <ele>25.129999999999999</ele>
        <time>2023-08-29T10:39:00Z</time>
      </trkpt>
      <trkpt lat="56.842516986653209" lon="-5.747426999732852">
        <ele>25.129999999999999</ele>
        <time>2023-08-29T10:39:07Z</time>
      </trkpt>
      <trkpt lat="56.842701975256205" lon="-5.750099988654256">
        <ele>26.57</ele>
        <time>2023-08-29T10:39:15Z</time>
      </trkpt>
      <trkpt lat="56.843036999925971" lon="-5.753070032224059">
        <ele>30.899999999999999</ele>
        <time>2023-08-29T10:39:24Z</time>
      </trkpt>
      <trkpt lat="56.842998024076223" lon="-5.753373960033059">
        <ele>31.379999999999999</ele>
        <time>2023-08-29T10:39:25Z</time>
      </trkpt>
      <trkpt lat="56.842940021306276" lon="-5.753662968054414">
        <ele>31.859999999999999</ele>
        <time>2023-08-29T10:39:26Z</time>
      </trkpt>
      <trkpt lat="56.842866009101272" lon="-5.753960022702813">
        <ele>32.340000000000003</ele>
        <time>2023-08-29T10:39:27Z</time>
      </trkpt>
      <trkpt lat="56.842786967754364" lon="-5.754238972440362">
        <ele>32.82</ele>
        <time>2023-08-29T10:39:28Z</time>
      </trkpt>
      <trkpt lat="56.842679008841515" lon="-5.754514988511801">
        <ele>33.299999999999997</ele>
        <time>2023-08-29T10:39:29Z</time>
      </trkpt>
      <trkpt lat="56.842567026615143" lon="-5.754802990704775">
        <ele>33.299999999999997</ele>
        <time>2023-08-29T10:39:30Z</time>
      </trkpt>
      <trkpt lat="56.842454960569739" lon="-5.75509300455451">
        <ele>33.780000000000001</ele>
        <time>2023-08-29T10:39:31Z</time>
      </trkpt>
      <trkpt lat="56.842341972514987" lon="-5.755382012575865">
        <ele>33.780000000000001</ele>
        <time>2023-08-29T10:39:32Z</time>
      </trkpt>
      <trkpt lat="56.842225966975093" lon="-5.755680995061994">
        <ele>33.780000000000001</ele>
        <time>2023-08-29T10:39:33Z</time>
      </trkpt>
      <trkpt lat="56.841459022834897" lon="-5.757857020944357">
        <ele>31.859999999999999</ele>
        <time>2023-08-29T10:39:40Z</time>
      </trkpt>
      <trkpt lat="56.841420968994498" lon="-5.758174024522305">
        <ele>31.379999999999999</ele>
        <time>2023-08-29T10:39:41Z</time>
      </trkpt>
      <trkpt lat="56.841385010629892" lon="-5.758480969816446">
        <ele>30.899999999999999</ele>
        <time>2023-08-29T10:39:42Z</time>
      </trkpt>
      <trkpt lat="56.841388028115034" lon="-5.758781963959336">
        <ele>30.420000000000002</ele>
        <time>2023-08-29T10:39:43Z</time>
      </trkpt>
      <trkpt lat="56.841406971216202" lon="-5.75908899307251">
        <ele>29.460000000000001</ele>
        <time>2023-08-29T10:39:44Z</time>
      </trkpt>
      <trkpt lat="56.841445025056601" lon="-5.759384036064148">
        <ele>29.460000000000001</ele>
        <time>2023-08-29T10:39:45Z</time>
      </trkpt>
      <trkpt lat="56.841505039483309" lon="-5.759695004671812">
        <ele>28.98</ele>
        <time>2023-08-29T10:39:46Z</time>
      </trkpt>
      <trkpt lat="56.841567987576127" lon="-5.760017037391663">
        <ele>28.98</ele>
        <time>2023-08-29T10:39:47Z</time>
      </trkpt>
      <trkpt lat="56.841632025316358" lon="-5.760348038747907">
        <ele>28.98</ele>
        <time>2023-08-29T10:39:48Z</time>
      </trkpt>
      <trkpt lat="56.842088000848889" lon="-5.763068972155452">
        <ele>28.98</ele>
        <time>2023-08-29T10:39:56Z</time>
      </trkpt>
      <trkpt lat="56.842108033597469" lon="-5.763415982946754">
        <ele>28.98</ele>
        <time>2023-08-29T10:39:57Z</time>
      </trkpt>
      <trkpt lat="56.842124965041876" lon="-5.763724017888308">
        <ele>28.98</ele>
        <time>2023-08-29T10:39:58Z</time>
      </trkpt>
      <trkpt lat="56.842082971706986" lon="-5.764088965952396">
        <ele>28.98</ele>
        <time>2023-08-29T10:39:59Z</time>
      </trkpt>
      <trkpt lat="56.842043995857239" lon="-5.764432959258556">
        <ele>28.5</ele>
        <time>2023-08-29T10:40:00Z</time>
      </trkpt>
      <trkpt lat="56.841974006965756" lon="-5.764753986150026">
        <ele>28.5</ele>
        <time>2023-08-29T10:40:01Z</time>
      </trkpt>
      <trkpt lat="56.84189697727561" lon="-5.765082975849509">
        <ele>28.5</ele>
        <time>2023-08-29T10:40:02Z</time>
      </trkpt>
      <trkpt lat="56.841663960367441" lon="-5.765581028535962">
        <ele>28.02</ele>
        <time>2023-08-29T10:40:04Z</time>
      </trkpt>
      <trkpt lat="56.841540997847915" lon="-5.765831982716918">
        <ele>28.02</ele>
        <time>2023-08-29T10:40:05Z</time>
      </trkpt>
      <trkpt lat="56.841413006186485" lon="-5.7660280354321">
        <ele>27.530000000000001</ele>
        <time>2023-08-29T10:40:06Z</time>
      </trkpt>
      <trkpt lat="56.841241009533405" lon="-5.766209000721574">
        <ele>27.050000000000001</ele>
        <time>2023-08-29T10:40:07Z</time>
      </trkpt>
      <trkpt lat="56.841069012880325" lon="-5.766388960182667">
        <ele>26.57</ele>
        <time>2023-08-29T10:40:08Z</time>
      </trkpt>
      <trkpt lat="56.839810973033309" lon="-5.767803993076086">
        <ele>28.02</ele>
        <time>2023-08-29T10:40:16Z</time>
      </trkpt>
      <trkpt lat="56.839691027998924" lon="-5.768063999712467">
        <ele>28.5</ele>
        <time>2023-08-29T10:40:17Z</time>
      </trkpt>
      <trkpt lat="56.83957502245903" lon="-5.768316965550184">
        <ele>28.98</ele>
        <time>2023-08-29T10:40:18Z</time>
      </trkpt>
      <trkpt lat="56.839462034404278" lon="-5.768605973571539">
        <ele>29.460000000000001</ele>
        <time>2023-08-29T10:40:19Z</time>
      </trkpt>
      <trkpt lat="56.839385004714131" lon="-5.768920965492725">
        <ele>29.940000000000001</ele>
        <time>2023-08-29T10:40:20Z</time>
      </trkpt>
      <trkpt lat="56.839313004165888" lon="-5.769215002655983">
        <ele>30.420000000000002</ele>
        <time>2023-08-29T10:40:21Z</time>
      </trkpt>
      <trkpt lat="56.839243015274405" lon="-5.769512979313731">
        <ele>30.899999999999999</ele>
        <time>2023-08-29T10:40:22Z</time>
      </trkpt>
      <trkpt lat="56.838683020323515" lon="-5.773304030299187">
        <ele>27.050000000000001</ele>
        <time>2023-08-29T10:40:34Z</time>
      </trkpt>
      <trkpt lat="56.83867497369647" lon="-5.773630002513528">
        <ele>26.57</ele>
        <time>2023-08-29T10:40:35Z</time>
      </trkpt>
      <trkpt lat="56.838658964261413" lon="-5.776402987539768">
        <ele>26.09</ele>
        <time>2023-08-29T10:40:43Z</time>
      </trkpt>
      <trkpt lat="56.83862904086709" lon="-5.778743969276547">
        <ele>23.210000000000001</ele>
        <time>2023-08-29T10:40:50Z</time>
      </trkpt>
      <trkpt lat="56.838683020323515" lon="-5.779661033302546">
        <ele>23.690000000000001</ele>
        <time>2023-08-29T10:40:53Z</time>
      </trkpt>
      <trkpt lat="56.838675979524851" lon="-5.779953980818391">
        <ele>24.170000000000002</ele>
        <time>2023-08-29T10:40:54Z</time>
      </trkpt>
      <trkpt lat="56.838642032817006" lon="-5.780235026031733">
        <ele>24.649999999999999</ele>
        <time>2023-08-29T10:40:55Z</time>
      </trkpt>
      <trkpt lat="56.83860900811851" lon="-5.78051196411252">
        <ele>25.129999999999999</ele>
        <time>2023-08-29T10:40:56Z</time>
      </trkpt>
      <trkpt lat="56.83856500312686" lon="-5.780787980183959">
        <ele>25.609999999999999</ele>
        <time>2023-08-29T10:40:57Z</time>
      </trkpt>
      <trkpt lat="56.8384990375489" lon="-5.781018985435367">
        <ele>26.09</ele>
        <time>2023-08-29T10:40:58Z</time>
      </trkpt>
      <trkpt lat="56.838395018130541" lon="-5.781274968758225">
        <ele>26.57</ele>
        <time>2023-08-29T10:40:59Z</time>
      </trkpt>
      <trkpt lat="56.838297033682466" lon="-5.781513014808297">
        <ele>27.050000000000001</ele>
        <time>2023-08-29T10:41:00Z</time>
      </trkpt>
      <trkpt lat="56.837139995768666" lon="-5.784133030101657">
        <ele>29.940000000000001</ele>
        <time>2023-08-29T10:41:11Z</time>
      </trkpt>
      <trkpt lat="56.836385959759355" lon="-5.786542994901538">
        <ele>27.050000000000001</ele>
        <time>2023-08-29T10:41:19Z</time>
      </trkpt>
      <trkpt lat="56.836214968934655" lon="-5.787662984803319">
        <ele>25.129999999999999</ele>
        <time>2023-08-29T10:41:23Z</time>
      </trkpt>
      <trkpt lat="56.836214968934655" lon="-5.787970013916493">
        <ele>24.649999999999999</ele>
        <time>2023-08-29T10:41:24Z</time>
      </trkpt>
      <trkpt lat="56.836251011118293" lon="-5.788585999980569">
        <ele>23.690000000000001</ele>
        <time>2023-08-29T10:41:26Z</time>
      </trkpt>
      <trkpt lat="56.836256040260196" lon="-5.791432997211814">
        <ele>23.690000000000001</ele>
        <time>2023-08-29T10:41:35Z</time>
      </trkpt>
      <trkpt lat="56.836037021130323" lon="-5.794518040493131">
        <ele>17.440000000000001</ele>
        <time>2023-08-29T10:41:44Z</time>
      </trkpt>
      <trkpt lat="56.836080020293593" lon="-5.795163027942181">
        <ele>15.039999999999999</ele>
        <time>2023-08-29T10:41:46Z</time>
      </trkpt>
      <trkpt lat="56.836124025285244" lon="-5.795481959357858">
        <ele>14.56</ele>
        <time>2023-08-29T10:41:47Z</time>
      </trkpt>
      <trkpt lat="56.836173981428146" lon="-5.795799968764186">
        <ele>14.08</ele>
        <time>2023-08-29T10:41:48Z</time>
      </trkpt>
      <trkpt lat="56.836243970319629" lon="-5.796100040897727">
        <ele>13.119999999999999</ele>
        <time>2023-08-29T10:41:49Z</time>
      </trkpt>
      <trkpt lat="56.836313959211111" lon="-5.796399023383856">
        <ele>13.119999999999999</ele>
        <time>2023-08-29T10:41:50Z</time>
      </trkpt>
      <trkpt lat="56.836698018014431" lon="-5.798123013228178">
        <ele>15.039999999999999</ele>
        <time>2023-08-29T10:41:56Z</time>
      </trkpt>
      <trkpt lat="56.836736993864179" lon="-5.798415960744023">
        <ele>15.52</ele>
        <time>2023-08-29T10:41:57Z</time>
      </trkpt>
      <trkpt lat="56.836757026612759" lon="-5.798742016777396">
        <ele>16</ele>
        <time>2023-08-29T10:41:58Z</time>
      </trkpt>
      <trkpt lat="56.836749985814095" lon="-5.799057008698583">
        <ele>16</ele>
        <time>2023-08-29T10:41:59Z</time>
      </trkpt>
      <trkpt lat="56.836743028834462" lon="-5.799378035590053">
        <ele>16.48</ele>
        <time>2023-08-29T10:42:00Z</time>
      </trkpt>
      <trkpt lat="56.836699023842812" lon="-5.801419029012322">
        <ele>16</ele>
        <time>2023-08-29T10:42:06Z</time>
      </trkpt>
      <trkpt lat="56.83676297776401" lon="-5.801737038418651">
        <ele>15.52</ele>
        <time>2023-08-29T10:42:07Z</time>
      </trkpt>
      <trkpt lat="56.836828021332622" lon="-5.80205999314785">
        <ele>15.039999999999999</ele>
        <time>2023-08-29T10:42:08Z</time>
      </trkpt>
      <trkpt lat="56.837376030161977" lon="-5.804857034236193">
        <ele>14.56</ele>
        <time>2023-08-29T10:42:17Z</time>
      </trkpt>
      <trkpt lat="56.837538974359632" lon="-5.807545026764274">
        <ele>14.56</ele>
        <time>2023-08-29T10:42:26Z</time>
      </trkpt>
      <trkpt lat="56.837520031258464" lon="-5.80783998593688">
        <ele>14.56</ele>
        <time>2023-08-29T10:42:27Z</time>
      </trkpt>
      <trkpt lat="56.837482983246446" lon="-5.808124970644712">
        <ele>15.039999999999999</ele>
        <time>2023-08-29T10:42:28Z</time>
      </trkpt>
      <trkpt lat="56.837431015446782" lon="-5.808399980887771">
        <ele>14.56</ele>
        <time>2023-08-29T10:42:29Z</time>
      </trkpt>
      <trkpt lat="56.837373012676835" lon="-5.808682031929493">
        <ele>14.56</ele>
        <time>2023-08-29T10:42:30Z</time>
      </trkpt>
      <trkpt lat="56.837279973551631" lon="-5.808920999988914">
        <ele>14.56</ele>
        <time>2023-08-29T10:42:31Z</time>
      </trkpt>
      <trkpt lat="56.837188024073839" lon="-5.809158962219954">
        <ele>14.56</ele>
        <time>2023-08-29T10:42:32Z</time>
      </trkpt>
      <trkpt lat="56.8370829988271" lon="-5.809429027140141">
        <ele>15.039999999999999</ele>
        <time>2023-08-29T10:42:33Z</time>
      </trkpt>
      <trkpt lat="56.83695400133729" lon="-5.809604041278362">
        <ele>15.52</ele>
        <time>2023-08-29T10:42:34Z</time>
      </trkpt>
      <trkpt lat="56.836816035211086" lon="-5.809793975204229">
        <ele>16</ele>
        <time>2023-08-29T10:42:35Z</time>
      </trkpt>
      <trkpt lat="56.836659964174032" lon="-5.809994973242283">
        <ele>16.48</ele>
        <time>2023-08-29T10:42:36Z</time>
      </trkpt>
      <trkpt lat="56.836492996662855" lon="-5.810091029852629">
        <ele>16.960000000000001</ele>
        <time>2023-08-29T10:42:37Z</time>
      </trkpt>
      <trkpt lat="56.836319994181395" lon="-5.810190020129085">
        <ele>17.440000000000001</ele>
        <time>2023-08-29T10:42:38Z</time>
      </trkpt>
      <trkpt lat="56.835304023697972" lon="-5.810857973992825">
        <ele>16.48</ele>
        <time>2023-08-29T10:42:44Z</time>
      </trkpt>
      <trkpt lat="56.835159016773105" lon="-5.811016978695989">
        <ele>16</ele>
        <time>2023-08-29T10:42:45Z</time>
      </trkpt>
      <trkpt lat="56.835022978484631" lon="-5.811167014762759">
        <ele>15.52</ele>
        <time>2023-08-29T10:42:46Z</time>
      </trkpt>
      <trkpt lat="56.834918959066272" lon="-5.81142601557076">
        <ele>15.039999999999999</ele>
        <time>2023-08-29T10:42:47Z</time>
      </trkpt>
      <trkpt lat="56.834817035123706" lon="-5.811681998893619">
        <ele>14.56</ele>
        <time>2023-08-29T10:42:48Z</time>
      </trkpt>
      <trkpt lat="56.834715027362108" lon="-5.811940999701619">
        <ele>14.08</ele>
        <time>2023-08-29T10:42:49Z</time>
      </trkpt>
      <trkpt lat="56.834202976897359" lon="-5.813227035105228">
        <ele>13.119999999999999</ele>
        <time>2023-08-29T10:42:54Z</time>
      </trkpt>
      <trkpt lat="56.834086971357465" lon="-5.813423004001379">
        <ele>12.630000000000001</ele>
        <time>2023-08-29T10:42:55Z</time>
      </trkpt>
      <trkpt lat="56.833970965817571" lon="-5.813603969290853">
        <ele>12.15</ele>
        <time>2023-08-29T10:42:56Z</time>
      </trkpt>
      <trkpt lat="56.833854038268328" lon="-5.813785018399358">
        <ele>12.15</ele>
        <time>2023-08-29T10:42:57Z</time>
      </trkpt>
      <trkpt lat="56.833720011636615" lon="-5.813930025324225">
        <ele>11.19</ele>
        <time>2023-08-29T10:42:58Z</time>
      </trkpt>
      <trkpt lat="56.833569975569844" lon="-5.814022980630398">
        <ele>11.19</ele>
        <time>2023-08-29T10:42:59Z</time>
      </trkpt>
      <trkpt lat="56.833421029150486" lon="-5.814085006713867">
        <ele>10.710000000000001</ele>
        <time>2023-08-29T10:43:00Z</time>
      </trkpt>
      <trkpt lat="56.833269987255335" lon="-5.814147032797337">
        <ele>10.23</ele>
        <time>2023-08-29T10:43:01Z</time>
      </trkpt>
      <trkpt lat="56.8331060372293" lon="-5.814137980341911">
        <ele>10.23</ele>
        <time>2023-08-29T10:43:02Z</time>
      </trkpt>
      <trkpt lat="56.832944015040994" lon="-5.814125994220376">
        <ele>10.23</ele>
        <time>2023-08-29T10:43:03Z</time>
      </trkpt>
      <trkpt lat="56.832118984311819" lon="-5.814129011705518">
        <ele>9.75</ele>
        <time>2023-08-29T10:43:08Z</time>
      </trkpt>
      <trkpt lat="56.831962997093797" lon="-5.814166981726885">
        <ele>10.23</ele>
        <time>2023-08-29T10:43:09Z</time>
      </trkpt>
      <trkpt lat="56.830221991986036" lon="-5.815237015485764">
        <ele>12.15</ele>
        <time>2023-08-29T10:43:20Z</time>
      </trkpt>
      <trkpt lat="56.829208033159375" lon="-5.816145027056336">
        <ele>14.56</ele>
        <time>2023-08-29T10:43:27Z</time>
      </trkpt>
      <trkpt lat="56.829065959900618" lon="-5.816185008734465">
        <ele>14.56</ele>
        <time>2023-08-29T10:43:28Z</time>
      </trkpt>
      <trkpt lat="56.828907961025834" lon="-5.816231025382876">
        <ele>15.039999999999999</ele>
        <time>2023-08-29T10:43:29Z</time>
      </trkpt>
      <trkpt lat="56.828734958544374" lon="-5.816268995404244">
        <ele>15.039999999999999</ele>
        <time>2023-08-29T10:43:30Z</time>
      </trkpt>
      <trkpt lat="56.828566985204816" lon="-5.816234964877367">
        <ele>15.039999999999999</ele>
        <time>2023-08-29T10:43:31Z</time>
      </trkpt>
      <trkpt lat="56.827775985002518" lon="-5.816113008186221">
        <ele>15.039999999999999</ele>
        <time>2023-08-29T10:43:36Z</time>
      </trkpt>
      <trkpt lat="56.827636007219553" lon="-5.816106973215938">
        <ele>15.039999999999999</ele>
        <time>2023-08-29T10:43:37Z</time>
      </trkpt>
      <trkpt lat="56.827502986416221" lon="-5.816120970994234">
        <ele>15.039999999999999</ele>
        <time>2023-08-29T10:43:38Z</time>
      </trkpt>
      <trkpt lat="56.827355967834592" lon="-5.816210992634296">
        <ele>15.52</ele>
        <time>2023-08-29T10:43:39Z</time>
      </trkpt>
      <trkpt lat="56.827210038900375" lon="-5.816333033144474">
        <ele>16</ele>
        <time>2023-08-29T10:43:40Z</time>
      </trkpt>
      <trkpt lat="56.827068971469998" lon="-5.816520033404231">
        <ele>16.48</ele>
        <time>2023-08-29T10:43:41Z</time>
      </trkpt>
      <trkpt lat="56.82692295871675" lon="-5.81671298481524">
        <ele>16.960000000000001</ele>
        <time>2023-08-29T10:43:42Z</time>
      </trkpt>
      <trkpt lat="56.825893996283412" lon="-5.817986028268933">
        <ele>23.690000000000001</ele>
        <time>2023-08-29T10:43:49Z</time>
      </trkpt>
      <trkpt lat="56.825731974095106" lon="-5.818112008273602">
        <ele>25.129999999999999</ele>
        <time>2023-08-29T10:43:50Z</time>
      </trkpt>
      <trkpt lat="56.825554026290774" lon="-5.818193983286619">
        <ele>26.57</ele>
        <time>2023-08-29T10:43:51Z</time>
      </trkpt>
      <trkpt lat="56.825367026031017" lon="-5.818247962743044">
        <ele>27.530000000000001</ele>
        <time>2023-08-29T10:43:52Z</time>
      </trkpt>
      <trkpt lat="56.825199974700809" lon="-5.818247962743044">
        <ele>28.98</ele>
        <time>2023-08-29T10:43:53Z</time>
      </trkpt>
      <trkpt lat="56.825025966390967" lon="-5.818247962743044">
        <ele>30.420000000000002</ele>
        <time>2023-08-29T10:43:54Z</time>
      </trkpt>
      <trkpt lat="56.824510982260108" lon="-5.818247962743044">
        <ele>33.780000000000001</ele>
        <time>2023-08-29T10:43:57Z</time>
      </trkpt>
      <trkpt lat="56.824340997263789" lon="-5.818272018805146">
        <ele>35.229999999999997</ele>
        <time>2023-08-29T10:43:58Z</time>
      </trkpt>
      <trkpt lat="56.824166988953948" lon="-5.818341001868248">
        <ele>36.189999999999998</ele>
        <time>2023-08-29T10:43:59Z</time>
      </trkpt>
      <trkpt lat="56.823995998129249" lon="-5.818435968831182">
        <ele>37.149999999999999</ele>
        <time>2023-08-29T10:44:00Z</time>
      </trkpt>
      <trkpt lat="56.82382701896131" lon="-5.818557003512979">
        <ele>37.630000000000003</ele>
        <time>2023-08-29T10:44:01Z</time>
      </trkpt>
      <trkpt lat="56.822340991348028" lon="-5.819471972063184">
        <ele>47.719999999999999</ele>
        <time>2023-08-29T10:44:10Z</time>
      </trkpt>
      <trkpt lat="56.820729989558458" lon="-5.819825017824769">
        <ele>56.859999999999999</ele>
        <time>2023-08-29T10:44:19Z</time>
      </trkpt>
      <trkpt lat="56.819278998300433" lon="-5.82023698836565">
        <ele>61.18</ele>
        <time>2023-08-29T10:44:27Z</time>
      </trkpt>
      <trkpt lat="56.818577013909817" lon="-5.820797989144921">
        <ele>62.619999999999997</ele>
        <time>2023-08-29T10:44:31Z</time>
      </trkpt>
      <trkpt lat="56.818405017256737" lon="-5.820955988019705">
        <ele>63.579999999999998</ele>
        <time>2023-08-29T10:44:32Z</time>
      </trkpt>
      <trkpt lat="56.817757012322545" lon="-5.821454040706158">
        <ele>66.469999999999999</ele>
        <time>2023-08-29T10:44:36Z</time>
      </trkpt>
      <trkpt lat="56.817593984305859" lon="-5.821517994627357">
        <ele>67.430000000000007</ele>
        <time>2023-08-29T10:44:37Z</time>
      </trkpt>
      <trkpt lat="56.817428022623062" lon="-5.821583038195968">
        <ele>68.390000000000001</ele>
        <time>2023-08-29T10:44:38Z</time>
      </trkpt>
      <trkpt lat="56.817247979342937" lon="-5.821595024317503">
        <ele>69.829999999999998</ele>
        <time>2023-08-29T10:44:39Z</time>
      </trkpt>
      <trkpt lat="56.817070031538606" lon="-5.821553030982614">
        <ele>71.269999999999996</ele>
        <time>2023-08-29T10:44:40Z</time>
      </trkpt>
      <trkpt lat="56.816891999915242" lon="-5.821485975757241">
        <ele>72.239999999999995</ele>
        <time>2023-08-29T10:44:41Z</time>
      </trkpt>
      <trkpt lat="56.816722014918923" lon="-5.82139503210783">
        <ele>73.680000000000007</ele>
        <time>2023-08-29T10:44:42Z</time>
      </trkpt>
      <trkpt lat="56.815173961222172" lon="-5.820797989144921">
        <ele>87.140000000000001</ele>
        <time>2023-08-29T10:44:51Z</time>
      </trkpt>
      <trkpt lat="56.813059039413929" lon="-5.820655999705195">
        <ele>107.31999999999999</ele>
        <time>2023-08-29T10:45:03Z</time>
      </trkpt>
      <trkpt lat="56.811549039557576" lon="-5.820645019412041">
        <ele>121.73999999999999</ele>
        <time>2023-08-29T10:45:12Z</time>
      </trkpt>
      <trkpt lat="56.811388023197651" lon="-5.820570001378655">
        <ele>123.19</ele>
        <time>2023-08-29T10:45:13Z</time>
      </trkpt>
      <trkpt lat="56.809964021667838" lon="-5.819496028125286">
        <ele>135.68000000000001</ele>
        <time>2023-08-29T10:45:22Z</time>
      </trkpt>
      <trkpt lat="56.809793030843139" lon="-5.819408018141985">
        <ele>137.13</ele>
        <time>2023-08-29T10:45:23Z</time>
      </trkpt>
      <trkpt lat="56.809619022533298" lon="-5.819364013150334">
        <ele>138.09</ele>
        <time>2023-08-29T10:45:24Z</time>
      </trkpt>
      <trkpt lat="56.809438979253173" lon="-5.819319002330303">
        <ele>139.53</ele>
        <time>2023-08-29T10:45:25Z</time>
      </trkpt>
      <trkpt lat="56.809251978993416" lon="-5.819298969581723">
        <ele>140.00999999999999</ele>
        <time>2023-08-29T10:45:26Z</time>
      </trkpt>
      <trkpt lat="56.809063972905278" lon="-5.819298969581723">
        <ele>140.97</ele>
        <time>2023-08-29T10:45:27Z</time>
      </trkpt>
      <trkpt lat="56.807867959141731" lon="-5.819047009572387">
        <ele>141.44999999999999</ele>
        <time>2023-08-29T10:45:34Z</time>
      </trkpt>
      <trkpt lat="56.8069629650563" lon="-5.81795996055007">
        <ele>131.36000000000001</ele>
        <time>2023-08-29T10:45:40Z</time>
      </trkpt>
      <trkpt lat="56.806649984791875" lon="-5.817576991394162">
        <ele>127.51000000000001</ele>
        <time>2023-08-29T10:45:42Z</time>
      </trkpt>
      <trkpt lat="56.806504977867007" lon="-5.817431984469295">
        <ele>125.59</ele>
        <time>2023-08-29T10:45:43Z</time>
      </trkpt>
      <trkpt lat="56.806292999535799" lon="-5.817363001406193">
        <ele>123.67</ele>
        <time>2023-08-29T10:45:44Z</time>
      </trkpt>
      <trkpt lat="56.806104993447661" lon="-5.817301981151104">
        <ele>121.26000000000001</ele>
        <time>2023-08-29T10:45:45Z</time>
      </trkpt>
      <trkpt lat="56.805916987359524" lon="-5.817240960896015">
        <ele>119.34</ele>
        <time>2023-08-29T10:45:46Z</time>
      </trkpt>
      <trkpt lat="56.805374007672071" lon="-5.817030994221568">
        <ele>112.61</ele>
        <time>2023-08-29T10:45:49Z</time>
      </trkpt>
      <trkpt lat="56.805204022675753" lon="-5.816908031702042">
        <ele>110.69</ele>
        <time>2023-08-29T10:45:50Z</time>
      </trkpt>
      <trkpt lat="56.805034037679434" lon="-5.816783979535103">
        <ele>108.29000000000001</ele>
        <time>2023-08-29T10:45:51Z</time>
      </trkpt>
      <trkpt lat="56.80487603880465" lon="-5.816607037559152">
        <ele>105.88</ele>
        <time>2023-08-29T10:45:52Z</time>
      </trkpt>
      <trkpt lat="56.804718039929867" lon="-5.816398998722434">
        <ele>103</ele>
        <time>2023-08-29T10:45:53Z</time>
      </trkpt>
      <trkpt lat="56.804557023569942" lon="-5.816187020391226">
        <ele>101.08</ele>
        <time>2023-08-29T10:45:54Z</time>
      </trkpt>
      <trkpt lat="56.803778009489179" lon="-5.815042974427342">
        <ele>89.540000000000006</ele>
        <time>2023-08-29T10:45:59Z</time>
      </trkpt>
      <trkpt lat="56.803667033091187" lon="-5.814772993326187">
        <ele>87.620000000000005</ele>
        <time>2023-08-29T10:46:00Z</time>
      </trkpt>
      <trkpt lat="56.803553039208055" lon="-5.81449898891151">
        <ele>85.689999999999998</ele>
        <time>2023-08-29T10:46:01Z</time>
      </trkpt>
      <trkpt lat="56.802882989868522" lon="-5.812426982447505">
        <ele>77.519999999999996</ele>
        <time>2023-08-29T10:46:08Z</time>
      </trkpt>
      <trkpt lat="56.801798958331347" lon="-5.809819037094712">
        <ele>65.030000000000001</ele>
        <time>2023-08-29T10:46:17Z</time>
      </trkpt>
      <trkpt lat="56.800266997888684" lon="-5.806094035506249">
        <ele>52.530000000000001</ele>
        <time>2023-08-29T10:46:30Z</time>
      </trkpt>
      <trkpt lat="56.799219008535147" lon="-5.80390602350235">
        <ele>43.880000000000003</ele>
        <time>2023-08-29T10:46:38Z</time>
      </trkpt>
      <trkpt lat="56.798139000311494" lon="-5.802592998370528">
        <ele>36.189999999999998</ele>
        <time>2023-08-29T10:46:45Z</time>
      </trkpt>
      <trkpt lat="56.798011008650064" lon="-5.802359981462359">
        <ele>35.710000000000001</ele>
        <time>2023-08-29T10:46:46Z</time>
      </trkpt>
      <trkpt lat="56.797798024490476" lon="-5.801820019260049">
        <ele>35.229999999999997</ele>
        <time>2023-08-29T10:46:48Z</time>
      </trkpt>
      <trkpt lat="56.79733601398766" lon="-5.800449997186661">
        <ele>33.299999999999997</ele>
        <time>2023-08-29T10:46:53Z</time>
      </trkpt>
      <trkpt lat="56.797220008447766" lon="-5.800227960571647">
        <ele>32.82</ele>
        <time>2023-08-29T10:46:54Z</time>
      </trkpt>
      <trkpt lat="56.797084975987673" lon="-5.80004096031189">
        <ele>32.340000000000003</ele>
        <time>2023-08-29T10:46:55Z</time>
      </trkpt>
      <trkpt lat="56.796932006254792" lon="-5.79991296865046">
        <ele>31.859999999999999</ele>
        <time>2023-08-29T10:46:56Z</time>
      </trkpt>
      <trkpt lat="56.796764032915235" lon="-5.799772990867496">
        <ele>31.379999999999999</ele>
        <time>2023-08-29T10:46:57Z</time>
      </trkpt>
      <trkpt lat="56.796602010726929" lon="-5.799707025289536">
        <ele>30.420000000000002</ele>
        <time>2023-08-29T10:46:58Z</time>
      </trkpt>
      <trkpt lat="56.79643303155899" lon="-5.799637036398053">
        <ele>29.940000000000001</ele>
        <time>2023-08-29T10:46:59Z</time>
      </trkpt>
      <trkpt lat="56.795818973332644" lon="-5.799321960657835">
        <ele>26.09</ele>
        <time>2023-08-29T10:47:03Z</time>
      </trkpt>
      <trkpt lat="56.795686958357692" lon="-5.799189023673534">
        <ele>24.649999999999999</ele>
        <time>2023-08-29T10:47:04Z</time>
      </trkpt>
      <trkpt lat="56.795571958646178" lon="-5.799003029242158">
        <ele>23.690000000000001</ele>
        <time>2023-08-29T10:47:05Z</time>
      </trkpt>
      <trkpt lat="56.795473974198103" lon="-5.798777975142002">
        <ele>22.73</ele>
        <time>2023-08-29T10:47:06Z</time>
      </trkpt>
      <trkpt lat="56.795372972264886" lon="-5.798544958233833">
        <ele>21.289999999999999</ele>
        <time>2023-08-29T10:47:07Z</time>
      </trkpt>
      <trkpt lat="56.795298960059881" lon="-5.798267014324665">
        <ele>19.84</ele>
        <time>2023-08-29T10:47:08Z</time>
      </trkpt>
      <trkpt lat="56.795232994481921" lon="-5.797969037666917">
        <ele>18.399999999999999</ele>
        <time>2023-08-29T10:47:09Z</time>
      </trkpt>
      <trkpt lat="56.795164011418819" lon="-5.797658991068602">
        <ele>17.440000000000001</ele>
        <time>2023-08-29T10:47:10Z</time>
      </trkpt>
      <trkpt lat="56.795107014477253" lon="-5.79733201302588">
        <ele>16</ele>
        <time>2023-08-29T10:47:11Z</time>
      </trkpt>
      <trkpt lat="56.79467199370265" lon="-5.794144039973617">
        <ele>9.75</ele>
        <time>2023-08-29T10:47:21Z</time>
      </trkpt>
      <trkpt lat="56.794450040906668" lon="-5.790926981717348">
        <ele>8.789999999999999</ele>
        <time>2023-08-29T10:47:31Z</time>
      </trkpt>
      <trkpt lat="56.79441399872303" lon="-5.790602015331388">
        <ele>9.27</ele>
        <time>2023-08-29T10:47:32Z</time>
      </trkpt>
      <trkpt lat="56.794355995953083" lon="-5.790290040895343">
        <ele>9.27</ele>
        <time>2023-08-29T10:47:33Z</time>
      </trkpt>
      <trkpt lat="56.793947964906693" lon="-5.788479968905449">
        <ele>9.75</ele>
        <time>2023-08-29T10:47:39Z</time>
      </trkpt>
      <trkpt lat="56.793846962973475" lon="-5.788208981975913">
        <ele>9.27</ele>
        <time>2023-08-29T10:47:40Z</time>
      </trkpt>
      <trkpt lat="56.792996032163501" lon="-5.785785019397736">
        <ele>9.75</ele>
        <time>2023-08-29T10:47:49Z</time>
      </trkpt>
      <trkpt lat="56.792623959481716" lon="-5.784296980127692">
        <ele>9.75</ele>
        <time>2023-08-29T10:47:54Z</time>
      </trkpt>
      <trkpt lat="56.792182987555861" lon="-5.781768998131156">
        <ele>9.27</ele>
        <time>2023-08-29T10:48:02Z</time>
      </trkpt>
      <trkpt lat="56.792085003107786" lon="-5.781493987888098">
        <ele>9.75</ele>
        <time>2023-08-29T10:48:03Z</time>
      </trkpt>
      <trkpt lat="56.791984001174569" lon="-5.781225012615323">
        <ele>9.75</ele>
        <time>2023-08-29T10:48:04Z</time>
      </trkpt>
      <trkpt lat="56.790830986574292" lon="-5.779007999226451">
        <ele>11.67</ele>
        <time>2023-08-29T10:48:14Z</time>
      </trkpt>
      <trkpt lat="56.79076099768281" lon="-5.778755033388734">
        <ele>11.67</ele>
        <time>2023-08-29T10:48:15Z</time>
      </trkpt>
      <trkpt lat="56.790690002962947" lon="-5.778495026752353">
        <ele>11.67</ele>
        <time>2023-08-29T10:48:16Z</time>
      </trkpt>
      <trkpt lat="56.790639040991664" lon="-5.778208030387759">
        <ele>11.67</ele>
        <time>2023-08-29T10:48:17Z</time>
      </trkpt>
      <trkpt lat="56.790370987728238" lon="-5.776657965034246">
        <ele>11.67</ele>
        <time>2023-08-29T10:48:22Z</time>
      </trkpt>
      <trkpt lat="56.790294041857123" lon="-5.776340961456299">
        <ele>11.67</ele>
        <time>2023-08-29T10:48:23Z</time>
      </trkpt>
      <trkpt lat="56.790078962221742" lon="-5.775447031483054">
        <ele>12.630000000000001</ele>
        <time>2023-08-29T10:48:26Z</time>
      </trkpt>
      <trkpt lat="56.790021965280175" lon="-5.775146959349513">
        <ele>12.15</ele>
        <time>2023-08-29T10:48:27Z</time>
      </trkpt>
      <trkpt lat="56.789980977773666" lon="-5.774829033762217">
        <ele>12.15</ele>
        <time>2023-08-29T10:48:28Z</time>
      </trkpt>
      <trkpt lat="56.789975026622415" lon="-5.774499038234353">
        <ele>12.15</ele>
        <time>2023-08-29T10:48:29Z</time>
      </trkpt>
      <trkpt lat="56.789968991652131" lon="-5.774165019392967">
        <ele>12.15</ele>
        <time>2023-08-29T10:48:30Z</time>
      </trkpt>
      <trkpt lat="56.789918029680848" lon="-5.772462990134955">
        <ele>10.710000000000001</ele>
        <time>2023-08-29T10:48:35Z</time>
      </trkpt>
      <trkpt lat="56.789866983890533" lon="-5.772135006263852">
        <ele>10.710000000000001</ele>
        <time>2023-08-29T10:48:36Z</time>
      </trkpt>
      <trkpt lat="56.789803029969335" lon="-5.771822025999427">
        <ele>10.710000000000001</ele>
        <time>2023-08-29T10:48:37Z</time>
      </trkpt>
      <trkpt lat="56.789733963087201" lon="-5.771517008543015">
        <ele>10.710000000000001</ele>
        <time>2023-08-29T10:48:38Z</time>
      </trkpt>
      <trkpt lat="56.789664980024099" lon="-5.77122800052166">
        <ele>10.710000000000001</ele>
        <time>2023-08-29T10:48:39Z</time>
      </trkpt>
      <trkpt lat="56.789375972002745" lon="-5.769552038982511">
        <ele>12.630000000000001</ele>
        <time>2023-08-29T10:48:45Z</time>
      </trkpt>
      <trkpt lat="56.789399022236466" lon="-5.768603961914778">
        <ele>12.630000000000001</ele>
        <time>2023-08-29T10:48:48Z</time>
      </trkpt>
      <trkpt lat="56.789436992257833" lon="-5.768281007185578">
        <ele>12.15</ele>
        <time>2023-08-29T10:48:49Z</time>
      </trkpt>
      <trkpt lat="56.789474962279201" lon="-5.767959980294108">
        <ele>11.67</ele>
        <time>2023-08-29T10:48:50Z</time>
      </trkpt>
      <trkpt lat="56.789646958932281" lon="-5.766760027036071">
        <ele>11.19</ele>
        <time>2023-08-29T10:48:55Z</time>
      </trkpt>
      <trkpt lat="56.789920041337609" lon="-5.765045005828142">
        <ele>12.15</ele>
        <time>2023-08-29T10:49:02Z</time>
      </trkpt>
      <trkpt lat="56.789955999702215" lon="-5.764822969213128">
        <ele>12.15</ele>
        <time>2023-08-29T10:49:03Z</time>
      </trkpt>
      <trkpt lat="56.789989024400711" lon="-5.764615014195442">
        <ele>11.67</ele>
        <time>2023-08-29T10:49:04Z</time>
      </trkpt>
      <trkpt lat="56.790044009685516" lon="-5.764415021985769">
        <ele>11.67</ele>
        <time>2023-08-29T10:49:05Z</time>
      </trkpt>
      <trkpt lat="56.790105029940605" lon="-5.764256017282605">
        <ele>11.67</ele>
        <time>2023-08-29T10:49:06Z</time>
      </trkpt>
      <trkpt lat="56.790169989690185" lon="-5.764086032286286">
        <ele>11.19</ele>
        <time>2023-08-29T10:49:07Z</time>
      </trkpt>
      <trkpt lat="56.790242996066809" lon="-5.763897020369768">
        <ele>11.19</ele>
        <time>2023-08-29T10:49:08Z</time>
      </trkpt>
      <trkpt lat="56.790392026305199" lon="-5.763510027900338">
        <ele>10.710000000000001</ele>
        <time>2023-08-29T10:49:10Z</time>
      </trkpt>
      <trkpt lat="56.790454974398017" lon="-5.763311963528395">
        <ele>10.23</ele>
        <time>2023-08-29T10:49:11Z</time>
      </trkpt>
      <trkpt lat="56.790509037673473" lon="-5.763084981590509">
        <ele>10.23</ele>
        <time>2023-08-29T10:49:12Z</time>
      </trkpt>
      <trkpt lat="56.790544996038079" lon="-5.762836961075664">
        <ele>9.75</ele>
        <time>2023-08-29T10:49:13Z</time>
      </trkpt>
      <trkpt lat="56.790554970502853" lon="-5.762579971924424">
        <ele>9.75</ele>
        <time>2023-08-29T10:49:14Z</time>
      </trkpt>
      <trkpt lat="56.790647003799677" lon="-5.760143017396331">
        <ele>10.23</ele>
        <time>2023-08-29T10:49:23Z</time>
      </trkpt>
      <trkpt lat="56.790623031556606" lon="-5.759897008538246">
        <ele>10.710000000000001</ele>
        <time>2023-08-29T10:49:24Z</time>
      </trkpt>
      <trkpt lat="56.790595036000013" lon="-5.7596489880234">
        <ele>11.19</ele>
        <time>2023-08-29T10:49:25Z</time>
      </trkpt>
      <trkpt lat="56.790562011301517" lon="-5.75936802662909">
        <ele>11.19</ele>
        <time>2023-08-29T10:49:26Z</time>
      </trkpt>
      <trkpt lat="56.790511971339583" lon="-5.759158981963992">
        <ele>11.19</ele>
        <time>2023-08-29T10:49:27Z</time>
      </trkpt>
      <trkpt lat="56.790452962741256" lon="-5.75891699641943">
        <ele>11.67</ele>
        <time>2023-08-29T10:49:28Z</time>
      </trkpt>
      <trkpt lat="56.789943007752299" lon="-5.756718004122376">
        <ele>15.52</ele>
        <time>2023-08-29T10:49:37Z</time>
      </trkpt>
      <trkpt lat="56.789893973618746" lon="-5.756485993042588">
        <ele>16</ele>
        <time>2023-08-29T10:49:38Z</time>
      </trkpt>
      <trkpt lat="56.789832031354308" lon="-5.756001016125083">
        <ele>16.48</ele>
        <time>2023-08-29T10:49:40Z</time>
      </trkpt>
      <trkpt lat="56.789636984467506" lon="-5.753386029973626">
        <ele>16.960000000000001</ele>
        <time>2023-08-29T10:49:50Z</time>
      </trkpt>
      <trkpt lat="56.789539000019431" lon="-5.752211976796389">
        <ele>15.52</ele>
        <time>2023-08-29T10:49:55Z</time>
      </trkpt>
      <trkpt lat="56.789490971714258" lon="-5.752035034820437">
        <ele>15.52</ele>
        <time>2023-08-29T10:49:56Z</time>
      </trkpt>
      <trkpt lat="56.789443027228117" lon="-5.751859014853835">
        <ele>15.52</ele>
        <time>2023-08-29T10:49:57Z</time>
      </trkpt>
      <trkpt lat="56.789378989487886" lon="-5.751702021807432">
        <ele>15.52</ele>
        <time>2023-08-29T10:49:58Z</time>
      </trkpt>
      <trkpt lat="56.789298020303249" lon="-5.751539999619126">
        <ele>15.52</ele>
        <time>2023-08-29T10:49:59Z</time>
      </trkpt>
      <trkpt lat="56.789204981178045" lon="-5.751375965774059">
        <ele>16</ele>
        <time>2023-08-29T10:50:00Z</time>
      </trkpt>
      <trkpt lat="56.788642974570394" lon="-5.750515982508659">
        <ele>15.52</ele>
        <time>2023-08-29T10:50:05Z</time>
      </trkpt>
      <trkpt lat="56.788530992344022" lon="-5.75036795809865">
        <ele>15.52</ele>
        <time>2023-08-29T10:50:06Z</time>
      </trkpt>
      <trkpt lat="56.788270985707641" lon="-5.75015002861619">
        <ele>14.56</ele>
        <time>2023-08-29T10:50:08Z</time>
      </trkpt>
      <trkpt lat="56.788149029016495" lon="-5.750051960349083">
        <ele>14.08</ele>
        <time>2023-08-29T10:50:09Z</time>
      </trkpt>
      <trkpt lat="56.788009973242879" lon="-5.7500009983778">
        <ele>13.6</ele>
        <time>2023-08-29T10:50:10Z</time>
      </trkpt>
      <trkpt lat="56.787579981610179" lon="-5.749817015603185">
        <ele>13.119999999999999</ele>
        <time>2023-08-29T10:50:13Z</time>
      </trkpt>
      <trkpt lat="56.786741958931088" lon="-5.749295996502042">
        <ele>12.630000000000001</ele>
        <time>2023-08-29T10:50:19Z</time>
      </trkpt>
      <trkpt lat="56.786483963951468" lon="-5.748987961560488">
        <ele>13.119999999999999</ele>
        <time>2023-08-29T10:50:21Z</time>
      </trkpt>
      <trkpt lat="56.786355972290039" lon="-5.748828034847975">
        <ele>13.119999999999999</ele>
        <time>2023-08-29T10:50:22Z</time>
      </trkpt>
      <trkpt lat="56.786232003942132" lon="-5.748673975467682">
        <ele>13.6</ele>
        <time>2023-08-29T10:50:23Z</time>
      </trkpt>
      <trkpt lat="56.786111975088716" lon="-5.748525029048324">
        <ele>13.6</ele>
        <time>2023-08-29T10:50:24Z</time>
      </trkpt>
      <trkpt lat="56.785992030054331" lon="-5.748375998809934">
        <ele>14.08</ele>
        <time>2023-08-29T10:50:25Z</time>
      </trkpt>
      <trkpt lat="56.784710017964244" lon="-5.7467130292207">
        <ele>13.6</ele>
        <time>2023-08-29T10:50:36Z</time>
      </trkpt>
      <trkpt lat="56.784575991332531" lon="-5.746600963175297">
        <ele>13.6</ele>
        <time>2023-08-29T10:50:37Z</time>
      </trkpt>
      <trkpt lat="56.784455962479115" lon="-5.746565004810691">
        <ele>13.6</ele>
        <time>2023-08-29T10:50:38Z</time>
      </trkpt>
      <trkpt lat="56.784327970817685" lon="-5.74654002673924">
        <ele>13.6</ele>
        <time>2023-08-29T10:50:39Z</time>
      </trkpt>
      <trkpt lat="56.784198973327875" lon="-5.746556036174297">
        <ele>13.6</ele>
        <time>2023-08-29T10:50:40Z</time>
      </trkpt>
      <trkpt lat="56.784072993323207" lon="-5.746571961790323">
        <ele>13.6</ele>
        <time>2023-08-29T10:50:41Z</time>
      </trkpt>
      <trkpt lat="56.78384399972856" lon="-5.746565004810691">
        <ele>13.119999999999999</ele>
        <time>2023-08-29T10:50:43Z</time>
      </trkpt>
      <trkpt lat="56.783635960891843" lon="-5.746547989547253">
        <ele>13.6</ele>
        <time>2023-08-29T10:50:45Z</time>
      </trkpt>
      <trkpt lat="56.783526996150613" lon="-5.746539020910859">
        <ele>13.6</ele>
        <time>2023-08-29T10:50:46Z</time>
      </trkpt>
      <trkpt lat="56.783417025581002" lon="-5.74654103256762">
        <ele>14.08</ele>
        <time>2023-08-29T10:50:47Z</time>
      </trkpt>
      <trkpt lat="56.783296996727586" lon="-5.746547989547253">
        <ele>14.56</ele>
        <time>2023-08-29T10:50:48Z</time>
      </trkpt>
      <trkpt lat="56.783172022551298" lon="-5.746556036174297">
        <ele>14.56</ele>
        <time>2023-08-29T10:50:49Z</time>
      </trkpt>
      <trkpt lat="56.783054005354643" lon="-5.74660699814558">
        <ele>15.039999999999999</ele>
        <time>2023-08-29T10:50:50Z</time>
      </trkpt>
      <trkpt lat="56.782926013693213" lon="-5.746681010350585">
        <ele>15.039999999999999</ele>
        <time>2023-08-29T10:50:51Z</time>
      </trkpt>
      <trkpt lat="56.782798022031784" lon="-5.746766002848744">
        <ele>15.039999999999999</ele>
        <time>2023-08-29T10:50:52Z</time>
      </trkpt>
      <trkpt lat="56.782208019867539" lon="-5.747181996703148">
        <ele>15.039999999999999</ele>
        <time>2023-08-29T10:50:57Z</time>
      </trkpt>
      <trkpt lat="56.782098971307278" lon="-5.747215021401644">
        <ele>15.039999999999999</ele>
        <time>2023-08-29T10:50:58Z</time>
      </trkpt>
      <trkpt lat="56.781949019059539" lon="-5.747216027230024">
        <ele>15.52</ele>
        <time>2023-08-29T10:50:59Z</time>
      </trkpt>
      <trkpt lat="56.781832007691264" lon="-5.747151989489794">
        <ele>16</ele>
        <time>2023-08-29T10:51:00Z</time>
      </trkpt>
      <trkpt lat="56.781702004373074" lon="-5.747039001435041">
        <ele>16.960000000000001</ele>
        <time>2023-08-29T10:51:01Z</time>
      </trkpt>
      <trkpt lat="56.781596979126334" lon="-5.746913021430373">
        <ele>18.399999999999999</ele>
        <time>2023-08-29T10:51:02Z</time>
      </trkpt>
      <trkpt lat="56.781491031870246" lon="-5.746785029768944">
        <ele>19.84</ele>
        <time>2023-08-29T10:51:03Z</time>
      </trkpt>
      <trkpt lat="56.781382989138365" lon="-5.746655026450753">
        <ele>20.809999999999999</ele>
        <time>2023-08-29T10:51:04Z</time>
      </trkpt>
      <trkpt lat="56.781268995255232" lon="-5.746515970677137">
        <ele>21.77</ele>
        <time>2023-08-29T10:51:05Z</time>
      </trkpt>
      <trkpt lat="56.780893988907337" lon="-5.746063012629747">
        <ele>24.649999999999999</ele>
        <time>2023-08-29T10:51:08Z</time>
      </trkpt>
      <trkpt lat="56.780773038044572" lon="-5.745828989893198">
        <ele>25.129999999999999</ele>
        <time>2023-08-29T10:51:09Z</time>
      </trkpt>
      <trkpt lat="56.780042974278331" lon="-5.743915988132358">
        <ele>28.5</ele>
        <time>2023-08-29T10:51:16Z</time>
      </trkpt>
      <trkpt lat="56.779945995658636" lon="-5.743650030344725">
        <ele>29.460000000000001</ele>
        <time>2023-08-29T10:51:17Z</time>
      </trkpt>
      <trkpt lat="56.779834013432264" lon="-5.743338977918029">
        <ele>30.420000000000002</ele>
        <time>2023-08-29T10:51:18Z</time>
      </trkpt>
      <trkpt lat="56.778544038534164" lon="-5.741463024169207">
        <ele>45.32</ele>
        <time>2023-08-29T10:51:28Z</time>
      </trkpt>
      <trkpt lat="56.777364034205675" lon="-5.739370984956622">
        <ele>59.259999999999998</ele>
        <time>2023-08-29T10:51:37Z</time>
      </trkpt>
      <trkpt lat="56.776911998167634" lon="-5.738207995891571">
        <ele>61.18</ele>
        <time>2023-08-29T10:51:41Z</time>
      </trkpt>
      <trkpt lat="56.77677302621305" lon="-5.737899038940668">
        <ele>60.219999999999999</ele>
        <time>2023-08-29T10:51:42Z</time>
      </trkpt>
      <trkpt lat="56.776371030136943" lon="-5.737113989889622">
        <ele>57.340000000000003</ele>
        <time>2023-08-29T10:51:45Z</time>
      </trkpt>
      <trkpt lat="56.776304980739951" lon="-5.736854989081621">
        <ele>56.859999999999999</ele>
        <time>2023-08-29T10:51:46Z</time>
      </trkpt>
      <trkpt lat="56.776253012940288" lon="-5.736560029909015">
        <ele>56.369999999999997</ele>
        <time>2023-08-29T10:51:47Z</time>
      </trkpt>
      <trkpt lat="56.776081016287208" lon="-5.735381031408906">
        <ele>56.369999999999997</ele>
        <time>2023-08-29T10:51:51Z</time>
      </trkpt>
      <trkpt lat="56.775955036282539" lon="-5.734244026243687">
        <ele>58.299999999999997</ele>
        <time>2023-08-29T10:51:55Z</time>
      </trkpt>
      <trkpt lat="56.775921005755663" lon="-5.733936997130513">
        <ele>59.259999999999998</ele>
        <time>2023-08-29T10:51:56Z</time>
      </trkpt>
      <trkpt lat="56.775869037955999" lon="-5.733633991330862">
        <ele>60.219999999999999</ele>
        <time>2023-08-29T10:51:57Z</time>
      </trkpt>
      <trkpt lat="56.775794019922614" lon="-5.73332997970283">
        <ele>61.18</ele>
        <time>2023-08-29T10:51:58Z</time>
      </trkpt>
      <trkpt lat="56.775695029646158" lon="-5.733050024136901">
        <ele>62.619999999999997</ele>
        <time>2023-08-29T10:51:59Z</time>
      </trkpt>
      <trkpt lat="56.775596039369702" lon="-5.732775013893843">
        <ele>63.579999999999998</ele>
        <time>2023-08-29T10:52:00Z</time>
      </trkpt>
      <trkpt lat="56.774794980883598" lon="-5.730938035994768">
        <ele>78</ele>
        <time>2023-08-29T10:52:08Z</time>
      </trkpt>
      <trkpt lat="56.773597961291671" lon="-5.72894498705864">
        <ele>93.390000000000001</ele>
        <time>2023-08-29T10:52:18Z</time>
      </trkpt>
      <trkpt lat="56.773192025721073" lon="-5.728526981547475">
        <ele>96.75</ele>
        <time>2023-08-29T10:52:21Z</time>
      </trkpt>
      <trkpt lat="56.773050958290696" lon="-5.728381974622607">
        <ele>97.230000000000004</ele>
        <time>2023-08-29T10:52:22Z</time>
      </trkpt>
      <trkpt lat="56.772895976901054" lon="-5.728315003216267">
        <ele>97.709999999999994</ele>
        <time>2023-08-29T10:52:23Z</time>
      </trkpt>
      <trkpt lat="56.772737978026271" lon="-5.728247025981545">
        <ele>98.189999999999998</ele>
        <time>2023-08-29T10:52:24Z</time>
      </trkpt>
      <trkpt lat="56.772573022171855" lon="-5.728175025433302">
        <ele>98.670000000000002</ele>
        <time>2023-08-29T10:52:25Z</time>
      </trkpt>
      <trkpt lat="56.772408988326788" lon="-5.728104030713439">
        <ele>98.670000000000002</ele>
        <time>2023-08-29T10:52:26Z</time>
      </trkpt>
      <trkpt lat="56.772251995280385" lon="-5.7279990054667">
        <ele>99.150000000000006</ele>
        <time>2023-08-29T10:52:27Z</time>
      </trkpt>
      <trkpt lat="56.771076014265418" lon="-5.727458037436009">
        <ele>104.44</ele>
        <time>2023-08-29T10:52:35Z</time>
      </trkpt>
      <trkpt lat="56.769135016947985" lon="-5.727006001397967">
        <ele>108.29000000000001</ele>
        <time>2023-08-29T10:52:47Z</time>
      </trkpt>
      <trkpt lat="56.768987998366356" lon="-5.72699099779129">
        <ele>108.29000000000001</ele>
        <time>2023-08-29T10:52:48Z</time>
      </trkpt>
      <trkpt lat="56.768855983391404" lon="-5.726977000012994">
        <ele>107.81</ele>
        <time>2023-08-29T10:52:49Z</time>
      </trkpt>
      <trkpt lat="56.768728997558355" lon="-5.726992003619671">
        <ele>107.31999999999999</ele>
        <time>2023-08-29T10:52:50Z</time>
      </trkpt>
      <trkpt lat="56.768616009503603" lon="-5.727080013602972">
        <ele>106.84</ele>
        <time>2023-08-29T10:52:51Z</time>
      </trkpt>
      <trkpt lat="56.768504027277231" lon="-5.727215968072414">
        <ele>106.36</ele>
        <time>2023-08-29T10:52:52Z</time>
      </trkpt>
      <trkpt lat="56.768399002030492" lon="-5.72737799026072">
        <ele>105.40000000000001</ele>
        <time>2023-08-29T10:52:53Z</time>
      </trkpt>
      <trkpt lat="56.768293976783752" lon="-5.727538000792265">
        <ele>104.44</ele>
        <time>2023-08-29T10:52:54Z</time>
      </trkpt>
      <trkpt lat="56.768166990950704" lon="-5.727616036310792">
        <ele>103.48</ele>
        <time>2023-08-29T10:52:55Z</time>
      </trkpt>
      <trkpt lat="56.767508005723357" lon="-5.727990036830306">
        <ele>100.11</ele>
        <time>2023-08-29T10:53:00Z</time>
      </trkpt>
      <trkpt lat="56.767376996576786" lon="-5.727968998253346">
        <ele>99.150000000000006</ele>
        <time>2023-08-29T10:53:01Z</time>
      </trkpt>
      <trkpt lat="56.76725403405726" lon="-5.727938991039991">
        <ele>99.150000000000006</ele>
        <time>2023-08-29T10:53:02Z</time>
      </trkpt>
      <trkpt lat="56.766642993316054" lon="-5.727793984115124">
        <ele>96.269999999999996</ele>
        <time>2023-08-29T10:53:08Z</time>
      </trkpt>
      <trkpt lat="56.766594965010881" lon="-5.727781997993588">
        <ele>92.900000000000006</ele>
        <time>2023-08-29T10:53:19Z</time>
      </trkpt>
      <trkpt lat="56.766594965010881" lon="-5.727781997993588">
        <ele>92.900000000000006</ele>
        <time>2023-08-29T10:53:22Z</time>
      </trkpt>
      <trkpt lat="56.766594965010881" lon="-5.727781997993588">
        <ele>92.900000000000006</ele>
        <time>2023-08-29T10:53:23Z</time>
      </trkpt>
      <trkpt lat="56.766550960019231" lon="-5.727573037147522">
        <ele>108.29000000000001</ele>
        <time>2023-08-29T11:03:10Z</time>
      </trkpt>
      <trkpt lat="56.766533022746444" lon="-5.727605978026986">
        <ele>100.11</ele>
        <time>2023-08-29T11:03:27Z</time>
      </trkpt>
      <trkpt lat="56.766536040231586" lon="-5.727626010775566">
        <ele>98.189999999999998</ele>
        <time>2023-08-29T11:03:32Z</time>
      </trkpt>
      <trkpt lat="56.766551965847611" lon="-5.727842012420297">
        <ele>97.709999999999994</ele>
        <time>2023-08-29T11:03:36Z</time>
      </trkpt>
      <trkpt lat="56.766528999432921" lon="-5.727875037118793">
        <ele>97.709999999999994</ele>
        <time>2023-08-29T11:03:37Z</time>
      </trkpt>
      <trkpt lat="56.766444006934762" lon="-5.727996993809938">
        <ele>97.709999999999994</ele>
        <time>2023-08-29T11:03:38Z</time>
      </trkpt>
      <trkpt lat="56.766444006934762" lon="-5.727996993809938">
        <ele>97.230000000000004</ele>
        <time>2023-08-29T11:03:39Z</time>
      </trkpt>
      <trkpt lat="56.766324983909726" lon="-5.728512983769178">
        <ele>95.310000000000002</ele>
        <time>2023-08-29T11:03:44Z</time>
      </trkpt>
      <trkpt lat="56.766306962817907" lon="-5.728720016777515">
        <ele>94.349999999999994</ele>
        <time>2023-08-29T11:03:45Z</time>
      </trkpt>
      <trkpt lat="56.766287013888359" lon="-5.728942975401878">
        <ele>93.390000000000001</ele>
        <time>2023-08-29T11:03:46Z</time>
      </trkpt>
      <trkpt lat="56.766278967261314" lon="-5.729200970381498">
        <ele>92.420000000000002</ele>
        <time>2023-08-29T11:03:47Z</time>
      </trkpt>
      <trkpt lat="56.766295982524753" lon="-5.72943801060319">
        <ele>91.459999999999994</ele>
        <time>2023-08-29T11:03:48Z</time>
      </trkpt>
      <trkpt lat="56.766395978629589" lon="-5.730429003015161">
        <ele>87.620000000000005</ele>
        <time>2023-08-29T11:03:52Z</time>
      </trkpt>
      <trkpt lat="56.766464039683342" lon="-5.730924960225821">
        <ele>85.689999999999998</ele>
        <time>2023-08-29T11:03:54Z</time>
      </trkpt>
      <trkpt lat="56.766493963077664" lon="-5.731144985184073">
        <ele>84.25</ele>
        <time>2023-08-29T11:03:55Z</time>
      </trkpt>
      <trkpt lat="56.766548026353121" lon="-5.731538012623787">
        <ele>81.370000000000005</ele>
        <time>2023-08-29T11:03:57Z</time>
      </trkpt>
      <trkpt lat="56.766550960019231" lon="-5.731705985963345">
        <ele>79.930000000000007</ele>
        <time>2023-08-29T11:03:58Z</time>
      </trkpt>
      <trkpt lat="56.766550960019231" lon="-5.731945037841797">
        <ele>78.480000000000004</ele>
        <time>2023-08-29T11:03:59Z</time>
      </trkpt>
      <trkpt lat="56.766533022746444" lon="-5.732055008411408">
        <ele>77.040000000000006</ele>
        <time>2023-08-29T11:04:00Z</time>
      </trkpt>
      <trkpt lat="56.766506033018231" lon="-5.732218036428094">
        <ele>76.079999999999998</ele>
        <time>2023-08-29T11:04:01Z</time>
      </trkpt>
      <trkpt lat="56.766481976956129" lon="-5.732362037524581">
        <ele>74.640000000000001</ele>
        <time>2023-08-29T11:04:02Z</time>
      </trkpt>
      <trkpt lat="56.766459010541439" lon="-5.732496986165643">
        <ele>73.680000000000007</ele>
        <time>2023-08-29T11:04:03Z</time>
      </trkpt>
      <trkpt lat="56.766437971964478" lon="-5.732626989483833">
        <ele>72.239999999999995</ele>
        <time>2023-08-29T11:04:04Z</time>
      </trkpt>
      <trkpt lat="56.766415005549788" lon="-5.732763027772307">
        <ele>71.269999999999996</ele>
        <time>2023-08-29T11:04:05Z</time>
      </trkpt>
      <trkpt lat="56.766401007771492" lon="-5.732928989455104">
        <ele>69.829999999999998</ele>
        <time>2023-08-29T11:04:06Z</time>
      </trkpt>
      <trkpt lat="56.766401007771492" lon="-5.733095034956932">
        <ele>68.870000000000005</ele>
        <time>2023-08-29T11:04:07Z</time>
      </trkpt>
      <trkpt lat="56.766401007771492" lon="-5.733856027945876">
        <ele>65.030000000000001</ele>
        <time>2023-08-29T11:04:11Z</time>
      </trkpt>
      <trkpt lat="56.766372006386518" lon="-5.734019977971911">
        <ele>64.549999999999997</ele>
        <time>2023-08-29T11:04:12Z</time>
      </trkpt>
      <trkpt lat="56.766316015273333" lon="-5.734174959361553">
        <ele>64.549999999999997</ele>
        <time>2023-08-29T11:04:13Z</time>
      </trkpt>
      <trkpt lat="56.76616002805531" lon="-5.734606962651014">
        <ele>63.579999999999998</ele>
        <time>2023-08-29T11:04:16Z</time>
      </trkpt>
      <trkpt lat="56.766119040548801" lon="-5.734738977625966">
        <ele>63.100000000000001</ele>
        <time>2023-08-29T11:04:17Z</time>
      </trkpt>
      <trkpt lat="56.766099007800221" lon="-5.734900999814272">
        <ele>62.619999999999997</ele>
        <time>2023-08-29T11:04:18Z</time>
      </trkpt>
      <trkpt lat="56.766123985871673" lon="-5.735457977280021">
        <ele>61.659999999999997</ele>
        <time>2023-08-29T11:04:21Z</time>
      </trkpt>
      <trkpt lat="56.766144018620253" lon="-5.735641038045287">
        <ele>61.18</ele>
        <time>2023-08-29T11:04:22Z</time>
      </trkpt>
      <trkpt lat="56.766164973378181" lon="-5.735828960314393">
        <ele>60.700000000000003</ele>
        <time>2023-08-29T11:04:23Z</time>
      </trkpt>
      <trkpt lat="56.766228005290031" lon="-5.735955024138093">
        <ele>60.219999999999999</ele>
        <time>2023-08-29T11:04:24Z</time>
      </trkpt>
      <trkpt lat="56.766297994181514" lon="-5.736093996092677">
        <ele>59.740000000000002</ele>
        <time>2023-08-29T11:04:25Z</time>
      </trkpt>
      <trkpt lat="56.766367983072996" lon="-5.736234979704022">
        <ele>59.259999999999998</ele>
        <time>2023-08-29T11:04:26Z</time>
      </trkpt>
      <trkpt lat="56.766435960307717" lon="-5.736371017992497">
        <ele>58.780000000000001</ele>
        <time>2023-08-29T11:04:27Z</time>
      </trkpt>
      <trkpt lat="56.76648398861289" lon="-5.736559024080634">
        <ele>58.299999999999997</ele>
        <time>2023-08-29T11:04:28Z</time>
      </trkpt>
      <trkpt lat="56.766505027189851" lon="-5.736754992976785">
        <ele>57.82</ele>
        <time>2023-08-29T11:04:29Z</time>
      </trkpt>
      <trkpt lat="56.766487006098032" lon="-5.736902011558414">
        <ele>57.340000000000003</ele>
        <time>2023-08-29T11:04:30Z</time>
      </trkpt>
      <trkpt lat="56.76641802303493" lon="-5.737050035968423">
        <ele>56.859999999999999</ele>
        <time>2023-08-29T11:04:31Z</time>
      </trkpt>
      <trkpt lat="56.76635499112308" lon="-5.737184984609485">
        <ele>56.859999999999999</ele>
        <time>2023-08-29T11:04:32Z</time>
      </trkpt>
      <trkpt lat="56.76626899279654" lon="-5.737284980714321">
        <ele>56.369999999999997</ele>
        <time>2023-08-29T11:04:33Z</time>
      </trkpt>
      <trkpt lat="56.766176959499717" lon="-5.737394029274583">
        <ele>56.369999999999997</ele>
        <time>2023-08-29T11:04:34Z</time>
      </trkpt>
      <trkpt lat="56.765470029786229" lon="-5.738475965335965">
        <ele>53.490000000000002</ele>
        <time>2023-08-29T11:04:41Z</time>
      </trkpt>
      <trkpt lat="56.765386965125799" lon="-5.738665983080864">
        <ele>53.009999999999998</ele>
        <time>2023-08-29T11:04:42Z</time>
      </trkpt>
      <trkpt lat="56.765186972916126" lon="-5.7392149977386">
        <ele>51.57</ele>
        <time>2023-08-29T11:04:45Z</time>
      </trkpt>
      <trkpt lat="56.765161994844675" lon="-5.739423036575317">
        <ele>50.609999999999999</ele>
        <time>2023-08-29T11:04:46Z</time>
      </trkpt>
      <trkpt lat="56.765143973752856" lon="-5.739621017128229">
        <ele>50.130000000000003</ele>
        <time>2023-08-29T11:04:47Z</time>
      </trkpt>
      <trkpt lat="56.765126958489418" lon="-5.739823020994663">
        <ele>49.159999999999997</ele>
        <time>2023-08-29T11:04:48Z</time>
      </trkpt>
      <trkpt lat="56.765098962932825" lon="-5.740021001547575">
        <ele>47.719999999999999</ele>
        <time>2023-08-29T11:04:49Z</time>
      </trkpt>
      <trkpt lat="56.7650449834764" lon="-5.740202972665429">
        <ele>46.759999999999998</ele>
        <time>2023-08-29T11:04:50Z</time>
      </trkpt>
      <trkpt lat="56.764974994584918" lon="-5.740364994853735">
        <ele>46.280000000000001</ele>
        <time>2023-08-29T11:04:51Z</time>
      </trkpt>
      <trkpt lat="56.764873992651701" lon="-5.740460967645049">
        <ele>45.32</ele>
        <time>2023-08-29T11:04:52Z</time>
      </trkpt>
      <trkpt lat="56.764775002375245" lon="-5.740556018427014">
        <ele>44.840000000000003</ele>
        <time>2023-08-29T11:04:53Z</time>
      </trkpt>
      <trkpt lat="56.764665031805634" lon="-5.740661965683103">
        <ele>44.359999999999999</ele>
        <time>2023-08-29T11:04:54Z</time>
      </trkpt>
      <trkpt lat="56.76454802043736" lon="-5.740774031728506">
        <ele>43.399999999999999</ele>
        <time>2023-08-29T11:04:55Z</time>
      </trkpt>
      <trkpt lat="56.764439977705479" lon="-5.740907974541187">
        <ele>42.439999999999998</ele>
        <time>2023-08-29T11:04:56Z</time>
      </trkpt>
      <trkpt lat="56.764323972165585" lon="-5.741066979244351">
        <ele>41.950000000000003</ele>
        <time>2023-08-29T11:04:57Z</time>
      </trkpt>
      <trkpt lat="56.764214001595974" lon="-5.741220032796264">
        <ele>41.469999999999999</ele>
        <time>2023-08-29T11:04:58Z</time>
      </trkpt>
      <trkpt lat="56.764104031026363" lon="-5.741371996700764">
        <ele>41.469999999999999</ele>
        <time>2023-08-29T11:04:59Z</time>
      </trkpt>
      <trkpt lat="56.764000011608005" lon="-5.74157701805234">
        <ele>41.469999999999999</ele>
        <time>2023-08-29T11:05:00Z</time>
      </trkpt>
      <trkpt lat="56.763259973376989" lon="-5.743542993441224">
        <ele>38.109999999999999</ele>
        <time>2023-08-29T11:05:08Z</time>
      </trkpt>
      <trkpt lat="56.763203982263803" lon="-5.74379101395607">
        <ele>37.630000000000003</ele>
        <time>2023-08-29T11:05:09Z</time>
      </trkpt>
      <trkpt lat="56.763057969510555" lon="-5.744553012773395">
        <ele>35.710000000000001</ele>
        <time>2023-08-29T11:05:12Z</time>
      </trkpt>
      <trkpt lat="56.762998038902879" lon="-5.744814025238156">
        <ele>34.740000000000002</ele>
        <time>2023-08-29T11:05:13Z</time>
      </trkpt>
      <trkpt lat="56.7627879884094" lon="-5.745664034038782">
        <ele>31.859999999999999</ele>
        <time>2023-08-29T11:05:17Z</time>
      </trkpt>
      <trkpt lat="56.762749012559652" lon="-5.745853967964649">
        <ele>30.899999999999999</ele>
        <time>2023-08-29T11:05:18Z</time>
      </trkpt>
      <trkpt lat="56.762745995074511" lon="-5.746030993759632">
        <ele>29.940000000000001</ele>
        <time>2023-08-29T11:05:19Z</time>
      </trkpt>
      <trkpt lat="56.762778013944626" lon="-5.746240960434079">
        <ele>28.98</ele>
        <time>2023-08-29T11:05:20Z</time>
      </trkpt>
      <trkpt lat="56.762811038643122" lon="-5.746464002877474">
        <ele>28.02</ele>
        <time>2023-08-29T11:05:21Z</time>
      </trkpt>
      <trkpt lat="56.762845991179347" lon="-5.746700037270784">
        <ele>27.050000000000001</ele>
        <time>2023-08-29T11:05:22Z</time>
      </trkpt>
      <trkpt lat="56.763011030852795" lon="-5.747674014419317">
        <ele>24.170000000000002</ele>
        <time>2023-08-29T11:05:26Z</time>
      </trkpt>
      <trkpt lat="56.763011030852795" lon="-5.747948018833995">
        <ele>23.690000000000001</ele>
        <time>2023-08-29T11:05:27Z</time>
      </trkpt>
      <trkpt lat="56.763004995882511" lon="-5.748193021863699">
        <ele>23.690000000000001</ele>
        <time>2023-08-29T11:05:28Z</time>
      </trkpt>
      <trkpt lat="56.762998038902879" lon="-5.748449005186558">
        <ele>23.690000000000001</ele>
        <time>2023-08-29T11:05:29Z</time>
      </trkpt>
      <trkpt lat="56.762990998104215" lon="-5.748717980459333">
        <ele>23.690000000000001</ele>
        <time>2023-08-29T11:05:30Z</time>
      </trkpt>
      <trkpt lat="56.762918997555971" lon="-5.750536015257239">
        <ele>24.170000000000002</ele>
        <time>2023-08-29T11:05:37Z</time>
      </trkpt>
      <trkpt lat="56.762864012271166" lon="-5.750730978325009">
        <ele>24.170000000000002</ele>
        <time>2023-08-29T11:05:38Z</time>
      </trkpt>
      <trkpt lat="56.762817995622754" lon="-5.750891994684935">
        <ele>24.170000000000002</ele>
        <time>2023-08-29T11:05:39Z</time>
      </trkpt>
      <trkpt lat="56.762719005346298" lon="-5.751057034358382">
        <ele>24.649999999999999</ele>
        <time>2023-08-29T11:05:40Z</time>
      </trkpt>
      <trkpt lat="56.762624038383365" lon="-5.751217966899276">
        <ele>25.129999999999999</ele>
        <time>2023-08-29T11:05:41Z</time>
      </trkpt>
      <trkpt lat="56.762524964287877" lon="-5.751383006572723">
        <ele>25.609999999999999</ele>
        <time>2023-08-29T11:05:42Z</time>
      </trkpt>
      <trkpt lat="56.761764977127314" lon="-5.752856964245439">
        <ele>26.57</ele>
        <time>2023-08-29T11:05:50Z</time>
      </trkpt>
      <trkpt lat="56.761715020984411" lon="-5.753065003082156">
        <ele>26.57</ele>
        <time>2023-08-29T11:05:51Z</time>
      </trkpt>
      <trkpt lat="56.761586023494601" lon="-5.754808019846678">
        <ele>26.57</ele>
        <time>2023-08-29T11:05:58Z</time>
      </trkpt>
      <trkpt lat="56.761451996862888" lon="-5.75661800801754">
        <ele>26.57</ele>
        <time>2023-08-29T11:06:07Z</time>
      </trkpt>
      <trkpt lat="56.761420983821154" lon="-5.757472040131688">
        <ele>27.050000000000001</ele>
        <time>2023-08-29T11:06:11Z</time>
      </trkpt>
      <trkpt lat="56.761446967720985" lon="-5.757687035948038">
        <ele>27.050000000000001</ele>
        <time>2023-08-29T11:06:12Z</time>
      </trkpt>
      <trkpt lat="56.761586023494601" lon="-5.759020010009408">
        <ele>26.09</ele>
        <time>2023-08-29T11:06:18Z</time>
      </trkpt>
      <trkpt lat="56.761589040979743" lon="-5.759249003604055">
        <ele>25.609999999999999</ele>
        <time>2023-08-29T11:06:19Z</time>
      </trkpt>
      <trkpt lat="56.761551992967725" lon="-5.759466011077166">
        <ele>25.609999999999999</ele>
        <time>2023-08-29T11:06:20Z</time>
      </trkpt>
      <trkpt lat="56.761514022946358" lon="-5.759684024378657">
        <ele>25.609999999999999</ele>
        <time>2023-08-29T11:06:21Z</time>
      </trkpt>
      <trkpt lat="56.76147798076272" lon="-5.759894996881485">
        <ele>25.609999999999999</ele>
        <time>2023-08-29T11:06:22Z</time>
      </trkpt>
      <trkpt lat="56.760951010510325" lon="-5.761942025274038">
        <ele>25.129999999999999</ele>
        <time>2023-08-29T11:06:32Z</time>
      </trkpt>
      <trkpt lat="56.760278027504683" lon="-5.76336401514709">
        <ele>22.25</ele>
        <time>2023-08-29T11:06:39Z</time>
      </trkpt>
      <trkpt lat="56.760162021964788" lon="-5.763520002365112">
        <ele>21.77</ele>
        <time>2023-08-29T11:06:40Z</time>
      </trkpt>
      <trkpt lat="56.760041993111372" lon="-5.763681018725038">
        <ele>21.77</ele>
        <time>2023-08-29T11:06:41Z</time>
      </trkpt>
      <trkpt lat="56.759919030591846" lon="-5.763847986236215">
        <ele>21.289999999999999</ele>
        <time>2023-08-29T11:06:42Z</time>
      </trkpt>
      <trkpt lat="56.759806964546442" lon="-5.764053007587791">
        <ele>21.289999999999999</ele>
        <time>2023-08-29T11:06:43Z</time>
      </trkpt>
      <trkpt lat="56.759695988148451" lon="-5.764268003404141">
        <ele>20.809999999999999</ele>
        <time>2023-08-29T11:06:44Z</time>
      </trkpt>
      <trkpt lat="56.759581994265318" lon="-5.764488028362393">
        <ele>20.32</ele>
        <time>2023-08-29T11:06:45Z</time>
      </trkpt>
      <trkpt lat="56.758689992129803" lon="-5.766439000144601">
        <ele>19.359999999999999</ele>
        <time>2023-08-29T11:06:54Z</time>
      </trkpt>
      <trkpt lat="56.758629977703094" lon="-5.766665982082486">
        <ele>19.359999999999999</ele>
        <time>2023-08-29T11:06:55Z</time>
      </trkpt>
      <trkpt lat="56.758574992418289" lon="-5.766895981505513">
        <ele>18.879999999999999</ele>
        <time>2023-08-29T11:06:56Z</time>
      </trkpt>
      <trkpt lat="56.75855596549809" lon="-5.767136039212346">
        <ele>18.879999999999999</ele>
        <time>2023-08-29T11:06:57Z</time>
      </trkpt>
      <trkpt lat="56.75857599824667" lon="-5.767349023371935">
        <ele>18.879999999999999</ele>
        <time>2023-08-29T11:06:58Z</time>
      </trkpt>
      <trkpt lat="56.758589996024966" lon="-5.767499981448054">
        <ele>18.879999999999999</ele>
        <time>2023-08-29T11:06:59Z</time>
      </trkpt>
      <trkpt lat="56.758624026551843" lon="-5.767590003088117">
        <ele>18.399999999999999</ele>
        <time>2023-08-29T11:07:00Z</time>
      </trkpt>
      <trkpt lat="56.758660990744829" lon="-5.767687987536192">
        <ele>18.399999999999999</ele>
        <time>2023-08-29T11:07:01Z</time>
      </trkpt>
      <trkpt lat="56.758701978251338" lon="-5.767795024439693">
        <ele>18.399999999999999</ele>
        <time>2023-08-29T11:07:02Z</time>
      </trkpt>
      <trkpt lat="56.758928960189223" lon="-5.768551994115114">
        <ele>18.879999999999999</ele>
        <time>2023-08-29T11:07:07Z</time>
      </trkpt>
      <trkpt lat="56.758955027908087" lon="-5.768723990768194">
        <ele>18.879999999999999</ele>
        <time>2023-08-29T11:07:08Z</time>
      </trkpt>
      <trkpt lat="56.758928038179874" lon="-5.768910991027951">
        <ele>18.879999999999999</ele>
        <time>2023-08-29T11:07:09Z</time>
      </trkpt>
      <trkpt lat="56.75889995880425" lon="-5.769109977409244">
        <ele>19.359999999999999</ele>
        <time>2023-08-29T11:07:10Z</time>
      </trkpt>
      <trkpt lat="56.758856037631631" lon="-5.769308041781187">
        <ele>19.359999999999999</ele>
        <time>2023-08-29T11:07:11Z</time>
      </trkpt>
      <trkpt lat="56.758801974356174" lon="-5.769517002627254">
        <ele>19.84</ele>
        <time>2023-08-29T11:07:12Z</time>
      </trkpt>
      <trkpt lat="56.75855596549809" lon="-5.770352007821202">
        <ele>20.809999999999999</ele>
        <time>2023-08-29T11:07:16Z</time>
      </trkpt>
      <trkpt lat="56.758477007970214" lon="-5.770501960068941">
        <ele>21.289999999999999</ele>
        <time>2023-08-29T11:07:17Z</time>
      </trkpt>
      <trkpt lat="56.758385980501771" lon="-5.770646966993809">
        <ele>21.289999999999999</ele>
        <time>2023-08-29T11:07:18Z</time>
      </trkpt>
      <trkpt lat="56.75827600993216" lon="-5.770765990018845">
        <ele>21.289999999999999</ele>
        <time>2023-08-29T11:07:19Z</time>
      </trkpt>
      <trkpt lat="56.758157992735505" lon="-5.770891970023513">
        <ele>21.77</ele>
        <time>2023-08-29T11:07:20Z</time>
      </trkpt>
      <trkpt lat="56.757595986127853" lon="-5.771497981622815">
        <ele>22.25</ele>
        <time>2023-08-29T11:07:25Z</time>
      </trkpt>
      <trkpt lat="56.757522979751229" lon="-5.771654974669218">
        <ele>22.25</ele>
        <time>2023-08-29T11:07:26Z</time>
      </trkpt>
      <trkpt lat="56.757475035265088" lon="-5.771770980209112">
        <ele>21.77</ele>
        <time>2023-08-29T11:07:27Z</time>
      </trkpt>
      <trkpt lat="56.757449973374605" lon="-5.771955968812108">
        <ele>21.77</ele>
        <time>2023-08-29T11:07:28Z</time>
      </trkpt>
      <trkpt lat="56.757432958111167" lon="-5.772097958251834">
        <ele>21.289999999999999</ele>
        <time>2023-08-29T11:07:29Z</time>
      </trkpt>
      <trkpt lat="56.757457014173269" lon="-5.772250005975366">
        <ele>21.289999999999999</ele>
        <time>2023-08-29T11:07:30Z</time>
      </trkpt>
      <trkpt lat="56.757484003901482" lon="-5.772419990971685">
        <ele>21.289999999999999</ele>
        <time>2023-08-29T11:07:31Z</time>
      </trkpt>
      <trkpt lat="56.757787009701133" lon="-5.774298962205648">
        <ele>19.84</ele>
        <time>2023-08-29T11:07:39Z</time>
      </trkpt>
      <trkpt lat="56.757998988032341" lon="-5.775621039792895">
        <ele>20.32</ele>
        <time>2023-08-29T11:07:44Z</time>
      </trkpt>
      <trkpt lat="56.758306017145514" lon="-5.776916965842247">
        <ele>24.170000000000002</ele>
        <time>2023-08-29T11:07:49Z</time>
      </trkpt>
      <trkpt lat="56.75838396884501" lon="-5.777144031599164">
        <ele>25.609999999999999</ele>
        <time>2023-08-29T11:07:50Z</time>
      </trkpt>
      <trkpt lat="56.758603993803263" lon="-5.777778960764408">
        <ele>28.5</ele>
        <time>2023-08-29T11:07:53Z</time>
      </trkpt>
      <trkpt lat="56.758624026551843" lon="-5.777980964630842">
        <ele>29.460000000000001</ele>
        <time>2023-08-29T11:07:54Z</time>
      </trkpt>
      <trkpt lat="56.758627966046333" lon="-5.778172994032502">
        <ele>29.940000000000001</ele>
        <time>2023-08-29T11:07:55Z</time>
      </trkpt>
      <trkpt lat="56.758606005460024" lon="-5.778370974585414">
        <ele>30.899999999999999</ele>
        <time>2023-08-29T11:07:56Z</time>
      </trkpt>
      <trkpt lat="56.758582033216953" lon="-5.778581025078893">
        <ele>31.379999999999999</ele>
        <time>2023-08-29T11:07:57Z</time>
      </trkpt>
      <trkpt lat="56.758558982983232" lon="-5.778788980096579">
        <ele>31.379999999999999</ele>
        <time>2023-08-29T11:07:58Z</time>
      </trkpt>
      <trkpt lat="56.758498968556523" lon="-5.779331037774682">
        <ele>32.340000000000003</ele>
        <time>2023-08-29T11:08:01Z</time>
      </trkpt>
      <trkpt lat="56.758478013798594" lon="-5.779519965872169">
        <ele>32.340000000000003</ele>
        <time>2023-08-29T11:08:02Z</time>
      </trkpt>
      <trkpt lat="56.758455969393253" lon="-5.780821004882455">
        <ele>31.379999999999999</ele>
        <time>2023-08-29T11:08:07Z</time>
      </trkpt>
      <trkpt lat="56.758439959958196" lon="-5.781091991811991">
        <ele>30.899999999999999</ele>
        <time>2023-08-29T11:08:08Z</time>
      </trkpt>
      <trkpt lat="56.758425962179899" lon="-5.781330037862063">
        <ele>30.420000000000002</ele>
        <time>2023-08-29T11:08:09Z</time>
      </trkpt>
      <trkpt lat="56.758413976058364" lon="-5.781525000929833">
        <ele>30.420000000000002</ele>
        <time>2023-08-29T11:08:10Z</time>
      </trkpt>
      <trkpt lat="56.75840400159359" lon="-5.781704038381577">
        <ele>29.940000000000001</ele>
        <time>2023-08-29T11:08:11Z</time>
      </trkpt>
      <trkpt lat="56.758417999371886" lon="-5.78188399784267">
        <ele>29.460000000000001</ele>
        <time>2023-08-29T11:08:12Z</time>
      </trkpt>
      <trkpt lat="56.758471978828311" lon="-5.782067980617285">
        <ele>28.98</ele>
        <time>2023-08-29T11:08:13Z</time>
      </trkpt>
      <trkpt lat="56.75853400491178" lon="-5.782279036939144">
        <ele>28.5</ele>
        <time>2023-08-29T11:08:14Z</time>
      </trkpt>
      <trkpt lat="56.758601982146502" lon="-5.782509036362171">
        <ele>28.02</ele>
        <time>2023-08-29T11:08:15Z</time>
      </trkpt>
      <trkpt lat="56.75879099406302" lon="-5.783454012125731">
        <ele>26.57</ele>
        <time>2023-08-29T11:08:19Z</time>
      </trkpt>
      <trkpt lat="56.758839022368193" lon="-5.783663978800178">
        <ele>26.09</ele>
        <time>2023-08-29T11:08:20Z</time>
      </trkpt>
      <trkpt lat="56.758903982117772" lon="-5.783805968239904">
        <ele>25.609999999999999</ele>
        <time>2023-08-29T11:08:21Z</time>
      </trkpt>
      <trkpt lat="56.758969025686383" lon="-5.783948041498661">
        <ele>25.129999999999999</ele>
        <time>2023-08-29T11:08:22Z</time>
      </trkpt>
      <trkpt lat="56.759039014577866" lon="-5.784103022888303">
        <ele>24.649999999999999</ele>
        <time>2023-08-29T11:08:23Z</time>
      </trkpt>
      <trkpt lat="56.759115038439631" lon="-5.784267978742719">
        <ele>24.170000000000002</ele>
        <time>2023-08-29T11:08:24Z</time>
      </trkpt>
      <trkpt lat="56.759173963218927" lon="-5.78442002646625">
        <ele>23.690000000000001</ele>
        <time>2023-08-29T11:08:25Z</time>
      </trkpt>
      <trkpt lat="56.75919902510941" lon="-5.784618007019162">
        <ele>23.690000000000001</ele>
        <time>2023-08-29T11:08:26Z</time>
      </trkpt>
      <trkpt lat="56.759211011230946" lon="-5.784794026985765">
        <ele>23.210000000000001</ele>
        <time>2023-08-29T11:08:27Z</time>
      </trkpt>
      <trkpt lat="56.759205982089043" lon="-5.784981027245522">
        <ele>23.210000000000001</ele>
        <time>2023-08-29T11:08:28Z</time>
      </trkpt>
      <trkpt lat="56.759201036766171" lon="-5.785142965614796">
        <ele>22.73</ele>
        <time>2023-08-29T11:08:29Z</time>
      </trkpt>
      <trkpt lat="56.759197013452649" lon="-5.785287972539663">
        <ele>22.73</ele>
        <time>2023-08-29T11:08:30Z</time>
      </trkpt>
      <trkpt lat="56.759192990139127" lon="-5.785442031919956">
        <ele>22.25</ele>
        <time>2023-08-29T11:08:31Z</time>
      </trkpt>
      <trkpt lat="56.759208999574184" lon="-5.785617968067527">
        <ele>21.77</ele>
        <time>2023-08-29T11:08:32Z</time>
      </trkpt>
      <trkpt lat="56.759238000959158" lon="-5.785805974155664">
        <ele>21.289999999999999</ele>
        <time>2023-08-29T11:08:33Z</time>
      </trkpt>
      <trkpt lat="56.75939398817718" lon="-5.786871984601021">
        <ele>21.289999999999999</ele>
        <time>2023-08-29T11:08:38Z</time>
      </trkpt>
      <trkpt lat="56.759427012875676" lon="-5.787538010627031">
        <ele>21.77</ele>
        <time>2023-08-29T11:08:41Z</time>
      </trkpt>
      <trkpt lat="56.759409997612238" lon="-5.787759963423014">
        <ele>21.77</ele>
        <time>2023-08-29T11:08:42Z</time>
      </trkpt>
      <trkpt lat="56.759360041469336" lon="-5.787962973117828">
        <ele>22.25</ele>
        <time>2023-08-29T11:08:43Z</time>
      </trkpt>
      <trkpt lat="56.759299021214247" lon="-5.788120971992612">
        <ele>22.25</ele>
        <time>2023-08-29T11:08:44Z</time>
      </trkpt>
      <trkpt lat="56.759228026494384" lon="-5.788262961432338">
        <ele>22.73</ele>
        <time>2023-08-29T11:08:45Z</time>
      </trkpt>
      <trkpt lat="56.75915895961225" lon="-5.788401011377573">
        <ele>22.73</ele>
        <time>2023-08-29T11:08:46Z</time>
      </trkpt>
      <trkpt lat="56.759086959064007" lon="-5.78854400664568">
        <ele>22.73</ele>
        <time>2023-08-29T11:08:47Z</time>
      </trkpt>
      <trkpt lat="56.759014958515763" lon="-5.788689013570547">
        <ele>23.210000000000001</ele>
        <time>2023-08-29T11:08:48Z</time>
      </trkpt>
      <trkpt lat="56.75894103012979" lon="-5.788836032152176">
        <ele>23.210000000000001</ele>
        <time>2023-08-29T11:08:49Z</time>
      </trkpt>
      <trkpt lat="56.758891995996237" lon="-5.789016997441649">
        <ele>23.690000000000001</ele>
        <time>2023-08-29T11:08:50Z</time>
      </trkpt>
      <trkpt lat="56.758842961862683" lon="-5.789214977994561">
        <ele>23.690000000000001</ele>
        <time>2023-08-29T11:08:51Z</time>
      </trkpt>
      <trkpt lat="56.75879099406302" lon="-5.789421005174518">
        <ele>23.690000000000001</ele>
        <time>2023-08-29T11:08:52Z</time>
      </trkpt>
      <trkpt lat="56.758740032091737" lon="-5.789626026526094">
        <ele>23.690000000000001</ele>
        <time>2023-08-29T11:08:53Z</time>
      </trkpt>
      <trkpt lat="56.758688986301422" lon="-5.789830964058638">
        <ele>23.690000000000001</ele>
        <time>2023-08-29T11:08:54Z</time>
      </trkpt>
      <trkpt lat="56.758632995188236" lon="-5.790051994845271">
        <ele>23.690000000000001</ele>
        <time>2023-08-29T11:08:55Z</time>
      </trkpt>
      <trkpt lat="56.75842797383666" lon="-5.790460025891662">
        <ele>23.690000000000001</ele>
        <time>2023-08-29T11:08:58Z</time>
      </trkpt>
      <trkpt lat="56.758327977731824" lon="-5.790572008118033">
        <ele>23.210000000000001</ele>
        <time>2023-08-29T11:08:59Z</time>
      </trkpt>
      <trkpt lat="56.758223036304116" lon="-5.790690025314689">
        <ele>22.73</ele>
        <time>2023-08-29T11:09:00Z</time>
      </trkpt>
      <trkpt lat="56.757993958890438" lon="-5.790947014465928">
        <ele>21.77</ele>
        <time>2023-08-29T11:09:02Z</time>
      </trkpt>
      <trkpt lat="56.75726699642837" lon="-5.791760981082916">
        <ele>19.84</ele>
        <time>2023-08-29T11:09:08Z</time>
      </trkpt>
      <trkpt lat="56.75720103085041" lon="-5.791894001886249">
        <ele>19.84</ele>
        <time>2023-08-29T11:09:09Z</time>
      </trkpt>
      <trkpt lat="56.757143028080463" lon="-5.792015958577395">
        <ele>19.84</ele>
        <time>2023-08-29T11:09:10Z</time>
      </trkpt>
      <trkpt lat="56.757092988118529" lon="-5.792120983824134">
        <ele>19.359999999999999</ele>
        <time>2023-08-29T11:09:11Z</time>
      </trkpt>
      <trkpt lat="56.757067004218698" lon="-5.792242018505931">
        <ele>18.879999999999999</ele>
        <time>2023-08-29T11:09:12Z</time>
      </trkpt>
      <trkpt lat="56.757067004218698" lon="-5.792393982410431">
        <ele>18.879999999999999</ele>
        <time>2023-08-29T11:09:13Z</time>
      </trkpt>
      <trkpt lat="56.757101034745574" lon="-5.792536977678537">
        <ele>18.399999999999999</ele>
        <time>2023-08-29T11:09:14Z</time>
      </trkpt>
      <trkpt lat="56.75713799893856" lon="-5.792694976553321">
        <ele>17.440000000000001</ele>
        <time>2023-08-29T11:09:15Z</time>
      </trkpt>
      <trkpt lat="56.75717999227345" lon="-5.792872002348304">
        <ele>16.960000000000001</ele>
        <time>2023-08-29T11:09:16Z</time>
      </trkpt>
      <trkpt lat="56.757227014750242" lon="-5.793069982901216">
        <ele>16.48</ele>
        <time>2023-08-29T11:09:17Z</time>
      </trkpt>
      <trkpt lat="56.757239000871778" lon="-5.793299982324243">
        <ele>16</ele>
        <time>2023-08-29T11:09:18Z</time>
      </trkpt>
      <trkpt lat="56.757239000871778" lon="-5.793554037809372">
        <ele>16</ele>
        <time>2023-08-29T11:09:19Z</time>
      </trkpt>
      <trkpt lat="56.757239000871778" lon="-5.79380901530385">
        <ele>15.52</ele>
        <time>2023-08-29T11:09:20Z</time>
      </trkpt>
      <trkpt lat="56.757230032235384" lon="-5.79404697753489">
        <ele>15.52</ele>
        <time>2023-08-29T11:09:21Z</time>
      </trkpt>
      <trkpt lat="56.757188960909843" lon="-5.794264990836382">
        <ele>15.52</ele>
        <time>2023-08-29T11:09:22Z</time>
      </trkpt>
      <trkpt lat="56.757122995331883" lon="-5.794480992481113">
        <ele>16</ele>
        <time>2023-08-29T11:09:23Z</time>
      </trkpt>
      <trkpt lat="56.757053006440401" lon="-5.794670004397631">
        <ele>16.48</ele>
        <time>2023-08-29T11:09:24Z</time>
      </trkpt>
      <trkpt lat="56.756989974528551" lon="-5.79483998939395">
        <ele>16.960000000000001</ele>
        <time>2023-08-29T11:09:25Z</time>
      </trkpt>
      <trkpt lat="56.756931971758604" lon="-5.794996982440352">
        <ele>17.440000000000001</ele>
        <time>2023-08-29T11:09:26Z</time>
      </trkpt>
      <trkpt lat="56.756889978423715" lon="-5.795151963829994">
        <ele>17.440000000000001</ele>
        <time>2023-08-29T11:09:27Z</time>
      </trkpt>
      <trkpt lat="56.756869023665786" lon="-5.795362014323473">
        <ele>17.440000000000001</ele>
        <time>2023-08-29T11:09:28Z</time>
      </trkpt>
      <trkpt lat="56.756847985088825" lon="-5.795583967119455">
        <ele>17.440000000000001</ele>
        <time>2023-08-29T11:09:29Z</time>
      </trkpt>
      <trkpt lat="56.756837004795671" lon="-5.795795023441315">
        <ele>17.440000000000001</ele>
        <time>2023-08-29T11:09:30Z</time>
      </trkpt>
      <trkpt lat="56.756875980645418" lon="-5.796010019257665">
        <ele>17.440000000000001</ele>
        <time>2023-08-29T11:09:31Z</time>
      </trkpt>
      <trkpt lat="56.756917973980308" lon="-5.796242030337453">
        <ele>17.440000000000001</ele>
        <time>2023-08-29T11:09:32Z</time>
      </trkpt>
      <trkpt lat="56.756961978971958" lon="-5.796484015882015">
        <ele>17.440000000000001</ele>
        <time>2023-08-29T11:09:33Z</time>
      </trkpt>
      <trkpt lat="56.75728702917695" lon="-5.798269025981426">
        <ele>21.77</ele>
        <time>2023-08-29T11:09:40Z</time>
      </trkpt>
      <trkpt lat="56.757348971441388" lon="-5.798441022634506">
        <ele>22.25</ele>
        <time>2023-08-29T11:09:41Z</time>
      </trkpt>
      <trkpt lat="56.757431030273438" lon="-5.798591980710626">
        <ele>22.73</ele>
        <time>2023-08-29T11:09:42Z</time>
      </trkpt>
      <trkpt lat="56.757518034428358" lon="-5.79875199124217">
        <ele>22.73</ele>
        <time>2023-08-29T11:09:43Z</time>
      </trkpt>
      <trkpt lat="56.757606966421008" lon="-5.798916025087237">
        <ele>22.73</ele>
        <time>2023-08-29T11:09:44Z</time>
      </trkpt>
      <trkpt lat="56.757693970575929" lon="-5.799077041447163">
        <ele>22.73</ele>
        <time>2023-08-29T11:09:45Z</time>
      </trkpt>
      <trkpt lat="56.757749961689115" lon="-5.799272004514933">
        <ele>22.73</ele>
        <time>2023-08-29T11:09:46Z</time>
      </trkpt>
      <trkpt lat="56.757800001651049" lon="-5.799477025866509">
        <ele>22.25</ele>
        <time>2023-08-29T11:09:47Z</time>
      </trkpt>
      <trkpt lat="56.757849035784602" lon="-5.799679029732943">
        <ele>22.25</ele>
        <time>2023-08-29T11:09:48Z</time>
      </trkpt>
      <trkpt lat="56.757881976664066" lon="-5.79989000223577">
        <ele>21.77</ele>
        <time>2023-08-29T11:09:49Z</time>
      </trkpt>
      <trkpt lat="56.757881976664066" lon="-5.80010499805212">
        <ele>21.289999999999999</ele>
        <time>2023-08-29T11:09:50Z</time>
      </trkpt>
      <trkpt lat="56.757869990542531" lon="-5.800344971939921">
        <ele>20.809999999999999</ele>
        <time>2023-08-29T11:09:51Z</time>
      </trkpt>
      <trkpt lat="56.757829003036022" lon="-5.800601039081812">
        <ele>20.809999999999999</ele>
        <time>2023-08-29T11:09:52Z</time>
      </trkpt>
      <trkpt lat="56.757788015529513" lon="-5.800854004919529">
        <ele>20.32</ele>
        <time>2023-08-29T11:09:53Z</time>
      </trkpt>
      <trkpt lat="56.757700005546212" lon="-5.801506033167243">
        <ele>19.359999999999999</ele>
        <time>2023-08-29T11:09:56Z</time>
      </trkpt>
      <trkpt lat="56.757689025253057" lon="-5.801661014556885">
        <ele>18.879999999999999</ele>
        <time>2023-08-29T11:09:57Z</time>
      </trkpt>
      <trkpt lat="56.757731018587947" lon="-5.801762016490102">
        <ele>18.879999999999999</ele>
        <time>2023-08-29T11:09:58Z</time>
      </trkpt>
      <trkpt lat="56.757794972509146" lon="-5.801915992051363">
        <ele>18.399999999999999</ele>
        <time>2023-08-29T11:09:59Z</time>
      </trkpt>
      <trkpt lat="56.757862027734518" lon="-5.802077008411288">
        <ele>18.399999999999999</ele>
        <time>2023-08-29T11:10:00Z</time>
      </trkpt>
      <trkpt lat="56.757926987484097" lon="-5.80223198980093">
        <ele>17.920000000000002</ele>
        <time>2023-08-29T11:10:01Z</time>
      </trkpt>
      <trkpt lat="56.757985996082425" lon="-5.802374985069037">
        <ele>17.920000000000002</ele>
        <time>2023-08-29T11:10:02Z</time>
      </trkpt>
      <trkpt lat="56.758027989417315" lon="-5.802549999207258">
        <ele>17.440000000000001</ele>
        <time>2023-08-29T11:10:03Z</time>
      </trkpt>
      <trkpt lat="56.758051961660385" lon="-5.802718978375197">
        <ele>16.960000000000001</ele>
        <time>2023-08-29T11:10:04Z</time>
      </trkpt>
      <trkpt lat="56.758019020780921" lon="-5.802933974191546">
        <ele>16.48</ele>
        <time>2023-08-29T11:10:05Z</time>
      </trkpt>
      <trkpt lat="56.757976021617651" lon="-5.803124997764826">
        <ele>16</ele>
        <time>2023-08-29T11:10:06Z</time>
      </trkpt>
      <trkpt lat="56.757907960563898" lon="-5.8032610360533">
        <ele>16</ele>
        <time>2023-08-29T11:10:07Z</time>
      </trkpt>
      <trkpt lat="56.75782598555088" lon="-5.803414005786181">
        <ele>15.52</ele>
        <time>2023-08-29T11:10:08Z</time>
      </trkpt>
      <trkpt lat="56.757726995274425" lon="-5.80352196469903">
        <ele>16</ele>
        <time>2023-08-29T11:10:09Z</time>
      </trkpt>
      <trkpt lat="56.757618030533195" lon="-5.803640987724066">
        <ele>16</ele>
        <time>2023-08-29T11:10:10Z</time>
      </trkpt>
      <trkpt lat="56.757234977558255" lon="-5.803978024050593">
        <ele>16</ele>
        <time>2023-08-29T11:10:13Z</time>
      </trkpt>
      <trkpt lat="56.757091982290149" lon="-5.804047007113695">
        <ele>16</ele>
        <time>2023-08-29T11:10:14Z</time>
      </trkpt>
      <trkpt lat="56.756218001246452" lon="-5.804470041766763">
        <ele>14.08</ele>
        <time>2023-08-29T11:10:20Z</time>
      </trkpt>
      <trkpt lat="56.756111970171332" lon="-5.804522009566426">
        <ele>13.6</ele>
        <time>2023-08-29T11:10:21Z</time>
      </trkpt>
      <trkpt lat="56.756020020693541" lon="-5.804557967931032">
        <ele>13.119999999999999</ele>
        <time>2023-08-29T11:10:22Z</time>
      </trkpt>
      <trkpt lat="56.755934022367001" lon="-5.804557967931032">
        <ele>12.15</ele>
        <time>2023-08-29T11:10:23Z</time>
      </trkpt>
      <trkpt lat="56.755853975191712" lon="-5.804498037323356">
        <ele>11.67</ele>
        <time>2023-08-29T11:10:24Z</time>
      </trkpt>
      <trkpt lat="56.755791027098894" lon="-5.80437901429832">
        <ele>11.67</ele>
        <time>2023-08-29T11:10:25Z</time>
      </trkpt>
      <trkpt lat="56.755710979923606" lon="-5.80423098988831">
        <ele>11.19</ele>
        <time>2023-08-29T11:10:26Z</time>
      </trkpt>
      <trkpt lat="56.754943029955029" lon="-5.802798019722104">
        <ele>10.23</ele>
        <time>2023-08-29T11:10:33Z</time>
      </trkpt>
      <trkpt lat="56.754199974238873" lon="-5.801495974883437">
        <ele>10.23</ele>
        <time>2023-08-29T11:10:41Z</time>
      </trkpt>
      <trkpt lat="56.754113975912333" lon="-5.801352979615331">
        <ele>10.710000000000001</ele>
        <time>2023-08-29T11:10:43Z</time>
      </trkpt>
      <trkpt lat="56.754072988405824" lon="-5.801312997937203">
        <ele>10.710000000000001</ele>
        <time>2023-08-29T11:10:44Z</time>
      </trkpt>
      <trkpt lat="56.754012973979115" lon="-5.80126496963203">
        <ele>10.710000000000001</ele>
        <time>2023-08-29T11:10:45Z</time>
      </trkpt>
      <trkpt lat="56.753958994522691" lon="-5.8012630417943">
        <ele>11.19</ele>
        <time>2023-08-29T11:10:46Z</time>
      </trkpt>
      <trkpt lat="56.753883976489305" lon="-5.801281984895468">
        <ele>11.19</ele>
        <time>2023-08-29T11:10:47Z</time>
      </trkpt>
      <trkpt lat="56.75380895845592" lon="-5.801312997937203">
        <ele>11.67</ele>
        <time>2023-08-29T11:10:48Z</time>
      </trkpt>
      <trkpt lat="56.753724971786141" lon="-5.801392961293459">
        <ele>12.15</ele>
        <time>2023-08-29T11:10:49Z</time>
      </trkpt>
      <trkpt lat="56.752918967977166" lon="-5.802091006189585">
        <ele>15.039999999999999</ele>
        <time>2023-08-29T11:10:58Z</time>
      </trkpt>
      <trkpt lat="56.752807991579175" lon="-5.802116990089417">
        <ele>14.56</ele>
        <time>2023-08-29T11:10:59Z</time>
      </trkpt>
      <trkpt lat="56.752695003524423" lon="-5.802143979817629">
        <ele>14.56</ele>
        <time>2023-08-29T11:11:00Z</time>
      </trkpt>
      <trkpt lat="56.75256097689271" lon="-5.802175998687744">
        <ele>14.56</ele>
        <time>2023-08-29T11:11:01Z</time>
      </trkpt>
      <trkpt lat="56.752447988837957" lon="-5.802183039486408">
        <ele>14.56</ele>
        <time>2023-08-29T11:11:02Z</time>
      </trkpt>
      <trkpt lat="56.752313040196896" lon="-5.802191002294421">
        <ele>14.56</ele>
        <time>2023-08-29T11:11:03Z</time>
      </trkpt>
      <trkpt lat="56.752178007736802" lon="-5.802216986194253">
        <ele>15.039999999999999</ele>
        <time>2023-08-29T11:11:04Z</time>
      </trkpt>
      <trkpt lat="56.752040963619947" lon="-5.802285969257355">
        <ele>15.039999999999999</ele>
        <time>2023-08-29T11:11:05Z</time>
      </trkpt>
      <trkpt lat="56.751901991665363" lon="-5.802355036139488">
        <ele>15.52</ele>
        <time>2023-08-29T11:11:06Z</time>
      </trkpt>
      <trkpt lat="56.75060598179698" lon="-5.802701041102409">
        <ele>16.48</ele>
        <time>2023-08-29T11:11:15Z</time>
      </trkpt>
      <trkpt lat="56.750375982373953" lon="-5.802749991416931">
        <ele>16.48</ele>
        <time>2023-08-29T11:11:17Z</time>
      </trkpt>
      <trkpt lat="56.749681038782001" lon="-5.802825009450316">
        <ele>13.119999999999999</ele>
        <time>2023-08-29T11:11:24Z</time>
      </trkpt>
      <trkpt lat="56.748851984739304" lon="-5.802826015278697">
        <ele>11.67</ele>
        <time>2023-08-29T11:11:31Z</time>
      </trkpt>
      <trkpt lat="56.748743019998074" lon="-5.802809000015259">
        <ele>11.19</ele>
        <time>2023-08-29T11:11:32Z</time>
      </trkpt>
      <trkpt lat="56.748617962002754" lon="-5.802739011123776">
        <ele>11.19</ele>
        <time>2023-08-29T11:11:33Z</time>
      </trkpt>
      <trkpt lat="56.74770500510931" lon="-5.801774002611637">
        <ele>11.19</ele>
        <time>2023-08-29T11:11:42Z</time>
      </trkpt>
      <trkpt lat="56.746757011860609" lon="-5.800673039630055">
        <ele>11.67</ele>
        <time>2023-08-29T11:11:52Z</time>
      </trkpt>
      <trkpt lat="56.745409034192562" lon="-5.798951983451843">
        <ele>14.56</ele>
        <time>2023-08-29T11:12:06Z</time>
      </trkpt>
      <trkpt lat="56.74424503929913" lon="-5.796981984749436">
        <ele>14.08</ele>
        <time>2023-08-29T11:12:18Z</time>
      </trkpt>
      <trkpt lat="56.743770958855748" lon="-5.795895019546151">
        <ele>15.52</ele>
        <time>2023-08-29T11:12:25Z</time>
      </trkpt>
      <trkpt lat="56.743653025478125" lon="-5.795622020959854">
        <ele>16</ele>
        <time>2023-08-29T11:12:27Z</time>
      </trkpt>
      <trkpt lat="56.743256980553269" lon="-5.794550981372595">
        <ele>17.920000000000002</ele>
        <time>2023-08-29T11:12:33Z</time>
      </trkpt>
      <trkpt lat="56.743184980005026" lon="-5.794331962242723">
        <ele>17.920000000000002</ele>
        <time>2023-08-29T11:12:34Z</time>
      </trkpt>
      <trkpt lat="56.743114991113544" lon="-5.794116966426373">
        <ele>18.399999999999999</ele>
        <time>2023-08-29T11:12:35Z</time>
      </trkpt>
      <trkpt lat="56.742572011426091" lon="-5.792509987950325">
        <ele>19.84</ele>
        <time>2023-08-29T11:12:43Z</time>
      </trkpt>
      <trkpt lat="56.742473021149635" lon="-5.792168006300926">
        <ele>20.32</ele>
        <time>2023-08-29T11:12:45Z</time>
      </trkpt>
      <trkpt lat="56.74244100227952" lon="-5.791984023526311">
        <ele>20.32</ele>
        <time>2023-08-29T11:12:46Z</time>
      </trkpt>
      <trkpt lat="56.742410995066166" lon="-5.791812026873231">
        <ele>20.809999999999999</ele>
        <time>2023-08-29T11:12:47Z</time>
      </trkpt>
      <trkpt lat="56.742393979802728" lon="-5.791603988036513">
        <ele>20.809999999999999</ele>
        <time>2023-08-29T11:12:48Z</time>
      </trkpt>
      <trkpt lat="56.742376964539289" lon="-5.79140298999846">
        <ele>20.809999999999999</ele>
        <time>2023-08-29T11:12:49Z</time>
      </trkpt>
      <trkpt lat="56.742361038923264" lon="-5.791201991960406">
        <ele>21.289999999999999</ele>
        <time>2023-08-29T11:12:50Z</time>
      </trkpt>
      <trkpt lat="56.742275040596724" lon="-5.790177974849939">
        <ele>21.289999999999999</ele>
        <time>2023-08-29T11:12:55Z</time>
      </trkpt>
      <trkpt lat="56.742260958999395" lon="-5.790010001510382">
        <ele>20.809999999999999</ele>
        <time>2023-08-29T11:12:56Z</time>
      </trkpt>
      <trkpt lat="56.742175966501236" lon="-5.789863988757134">
        <ele>20.809999999999999</ele>
        <time>2023-08-29T11:12:57Z</time>
      </trkpt>
      <trkpt lat="56.742099020630121" lon="-5.789730967953801">
        <ele>20.32</ele>
        <time>2023-08-29T11:12:58Z</time>
      </trkpt>
      <trkpt lat="56.742016039788723" lon="-5.789588978514075">
        <ele>19.84</ele>
        <time>2023-08-29T11:12:59Z</time>
      </trkpt>
      <trkpt lat="56.741930041462183" lon="-5.789440032094717">
        <ele>19.359999999999999</ele>
        <time>2023-08-29T11:13:00Z</time>
      </trkpt>
      <trkpt lat="56.741843959316611" lon="-5.789292007684708">
        <ele>18.879999999999999</ele>
        <time>2023-08-29T11:13:01Z</time>
      </trkpt>
      <trkpt lat="56.741533996537328" lon="-5.78871600329876">
        <ele>18.399999999999999</ele>
        <time>2023-08-29T11:13:05Z</time>
      </trkpt>
      <trkpt lat="56.741474987939" lon="-5.788551969453692">
        <ele>18.879999999999999</ele>
        <time>2023-08-29T11:13:06Z</time>
      </trkpt>
      <trkpt lat="56.741427965462208" lon="-5.78837301582098">
        <ele>19.359999999999999</ele>
        <time>2023-08-29T11:13:07Z</time>
      </trkpt>
      <trkpt lat="56.740866964682937" lon="-5.786025999113917">
        <ele>19.84</ele>
        <time>2023-08-29T11:13:18Z</time>
      </trkpt>
      <trkpt lat="56.740759005770087" lon="-5.785568011924624">
        <ele>20.32</ele>
        <time>2023-08-29T11:13:20Z</time>
      </trkpt>
      <trkpt lat="56.740722041577101" lon="-5.784564027562738">
        <ele>19.84</ele>
        <time>2023-08-29T11:13:25Z</time>
      </trkpt>
      <trkpt lat="56.740802004933357" lon="-5.783679988235235">
        <ele>20.32</ele>
        <time>2023-08-29T11:13:29Z</time>
      </trkpt>
      <trkpt lat="56.740779038518667" lon="-5.783443031832576">
        <ele>21.289999999999999</ele>
        <time>2023-08-29T11:13:30Z</time>
      </trkpt>
      <trkpt lat="56.740756994113326" lon="-5.783216971904039">
        <ele>21.77</ele>
        <time>2023-08-29T11:13:31Z</time>
      </trkpt>
      <trkpt lat="56.740735033527017" lon="-5.782989989966154">
        <ele>22.25</ele>
        <time>2023-08-29T11:13:32Z</time>
      </trkpt>
      <trkpt lat="56.740709971636534" lon="-5.782766025513411">
        <ele>22.25</ele>
        <time>2023-08-29T11:13:33Z</time>
      </trkpt>
      <trkpt lat="56.740561025217175" lon="-5.781934959813952">
        <ele>24.170000000000002</ele>
        <time>2023-08-29T11:13:37Z</time>
      </trkpt>
      <trkpt lat="56.740522971376777" lon="-5.781724993139505">
        <ele>24.649999999999999</ele>
        <time>2023-08-29T11:13:38Z</time>
      </trkpt>
      <trkpt lat="56.740176966413856" lon="-5.779803022742271">
        <ele>29.940000000000001</ele>
        <time>2023-08-29T11:13:47Z</time>
      </trkpt>
      <trkpt lat="56.740143019706011" lon="-5.779599007219076">
        <ele>30.899999999999999</ele>
        <time>2023-08-29T11:13:48Z</time>
      </trkpt>
      <trkpt lat="56.740109995007515" lon="-5.779398009181023">
        <ele>32.340000000000003</ele>
        <time>2023-08-29T11:13:49Z</time>
      </trkpt>
      <trkpt lat="56.739871026948094" lon="-5.778506007045507">
        <ele>36.670000000000002</ele>
        <time>2023-08-29T11:13:54Z</time>
      </trkpt>
      <trkpt lat="56.739674974232912" lon="-5.778066962957382">
        <ele>38.109999999999999</ele>
        <time>2023-08-29T11:13:57Z</time>
      </trkpt>
      <trkpt lat="56.739598028361797" lon="-5.777923967689276">
        <ele>38.590000000000003</ele>
        <time>2023-08-29T11:13:58Z</time>
      </trkpt>
      <trkpt lat="56.739515969529748" lon="-5.777829000726342">
        <ele>38.590000000000003</ele>
        <time>2023-08-29T11:13:59Z</time>
      </trkpt>
      <trkpt lat="56.739427037537098" lon="-5.777778960764408">
        <ele>39.07</ele>
        <time>2023-08-29T11:14:00Z</time>
      </trkpt>
      <trkpt lat="56.739327041432261" lon="-5.777778960764408">
        <ele>39.549999999999997</ele>
        <time>2023-08-29T11:14:01Z</time>
      </trkpt>
      <trkpt lat="56.739226039499044" lon="-5.777778960764408">
        <ele>40.030000000000001</ele>
        <time>2023-08-29T11:14:02Z</time>
      </trkpt>
      <trkpt lat="56.739127971231937" lon="-5.777778960764408">
        <ele>40.509999999999998</ele>
        <time>2023-08-29T11:14:03Z</time>
      </trkpt>
      <trkpt lat="56.738895960152149" lon="-5.777735039591789">
        <ele>42.439999999999998</ele>
        <time>2023-08-29T11:14:05Z</time>
      </trkpt>
      <trkpt lat="56.737624006345868" lon="-5.777433039620519">
        <ele>50.609999999999999</ele>
        <time>2023-08-29T11:14:14Z</time>
      </trkpt>
      <trkpt lat="56.735896999016404" lon="-5.777021991088986">
        <ele>66.469999999999999</ele>
        <time>2023-08-29T11:14:25Z</time>
      </trkpt>
      <trkpt lat="56.734205028042197" lon="-5.777087034657598">
        <ele>75.599999999999994</ele>
        <time>2023-08-29T11:14:35Z</time>
      </trkpt>
      <trkpt lat="56.732724029570818" lon="-5.777160041034222">
        <ele>74.159999999999997</ele>
        <time>2023-08-29T11:14:44Z</time>
      </trkpt>
      <trkpt lat="56.731445034965873" lon="-5.777357015758753">
        <ele>74.159999999999997</ele>
        <time>2023-08-29T11:14:52Z</time>
      </trkpt>
      <trkpt lat="56.729874014854431" lon="-5.777457011863589">
        <ele>75.120000000000005</ele>
        <time>2023-08-29T11:15:02Z</time>
      </trkpt>
      <trkpt lat="56.728583034127951" lon="-5.777195999398828">
        <ele>77.519999999999996</ele>
        <time>2023-08-29T11:15:10Z</time>
      </trkpt>
      <trkpt lat="56.727933017536998" lon="-5.777043029665947">
        <ele>78</ele>
        <time>2023-08-29T11:15:14Z</time>
      </trkpt>
      <trkpt lat="56.727782981470227" lon="-5.77700799331069">
        <ele>78</ele>
        <time>2023-08-29T11:15:15Z</time>
      </trkpt>
      <trkpt lat="56.726718982681632" lon="-5.776839014142752">
        <ele>77.519999999999996</ele>
        <time>2023-08-29T11:15:22Z</time>
      </trkpt>
      <trkpt lat="56.725865034386516" lon="-5.776693001389504">
        <ele>75.599999999999994</ele>
        <time>2023-08-29T11:15:28Z</time>
      </trkpt>
      <trkpt lat="56.725707035511732" lon="-5.7767069991678">
        <ele>75.120000000000005</ele>
        <time>2023-08-29T11:15:29Z</time>
      </trkpt>
      <trkpt lat="56.725552976131439" lon="-5.776718985289335">
        <ele>74.159999999999997</ele>
        <time>2023-08-29T11:15:30Z</time>
      </trkpt>
      <trkpt lat="56.725406041368842" lon="-5.776710016652942">
        <ele>73.680000000000007</ele>
        <time>2023-08-29T11:15:31Z</time>
      </trkpt>
      <trkpt lat="56.725262040272355" lon="-5.77666400000453">
        <ele>72.719999999999999</ele>
        <time>2023-08-29T11:15:32Z</time>
      </trkpt>
      <trkpt lat="56.72484403476119" lon="-5.776581019163132">
        <ele>69.829999999999998</ele>
        <time>2023-08-29T11:15:35Z</time>
      </trkpt>
      <trkpt lat="56.724707996472716" lon="-5.776584958657622">
        <ele>68.870000000000005</ele>
        <time>2023-08-29T11:15:36Z</time>
      </trkpt>
      <trkpt lat="56.724580004811287" lon="-5.776588981971145">
        <ele>67.909999999999997</ele>
        <time>2023-08-29T11:15:37Z</time>
      </trkpt>
      <trkpt lat="56.724218996241689" lon="-5.776589987799525">
        <ele>65.510000000000005</ele>
        <time>2023-08-29T11:15:40Z</time>
      </trkpt>
      <trkpt lat="56.724099973216653" lon="-5.776529973372817">
        <ele>64.549999999999997</ele>
        <time>2023-08-29T11:15:41Z</time>
      </trkpt>
      <trkpt lat="56.723981034010649" lon="-5.776455961167812">
        <ele>63.579999999999998</ele>
        <time>2023-08-29T11:15:42Z</time>
      </trkpt>
      <trkpt lat="56.723864022642374" lon="-5.776354959234595">
        <ele>62.619999999999997</ele>
        <time>2023-08-29T11:15:43Z</time>
      </trkpt>
      <trkpt lat="56.723744999617338" lon="-5.77625404112041">
        <ele>61.659999999999997</ele>
        <time>2023-08-29T11:15:44Z</time>
      </trkpt>
      <trkpt lat="56.723628994077444" lon="-5.776153961196542">
        <ele>61.18</ele>
        <time>2023-08-29T11:15:45Z</time>
      </trkpt>
      <trkpt lat="56.723526986315846" lon="-5.776067040860653">
        <ele>60.700000000000003</ele>
        <time>2023-08-29T11:15:46Z</time>
      </trkpt>
      <trkpt lat="56.723421039059758" lon="-5.77597601339221">
        <ele>60.700000000000003</ele>
        <time>2023-08-29T11:15:47Z</time>
      </trkpt>
      <trkpt lat="56.722669014707208" lon="-5.77569798566401">
        <ele>59.740000000000002</ele>
        <time>2023-08-29T11:15:54Z</time>
      </trkpt>
      <trkpt lat="56.721387002617121" lon="-5.77522499486804">
        <ele>53.969999999999999</ele>
        <time>2023-08-29T11:16:04Z</time>
      </trkpt>
      <trkpt lat="56.721265967935324" lon="-5.775179984048009">
        <ele>53.490000000000002</ele>
        <time>2023-08-29T11:16:05Z</time>
      </trkpt>
      <trkpt lat="56.721146022900939" lon="-5.775135979056358">
        <ele>53.009999999999998</ele>
        <time>2023-08-29T11:16:06Z</time>
      </trkpt>
      <trkpt lat="56.72102096490562" lon="-5.775103038176894">
        <ele>52.530000000000001</ele>
        <time>2023-08-29T11:16:07Z</time>
      </trkpt>
      <trkpt lat="56.720893979072571" lon="-5.775146959349513">
        <ele>51.57</ele>
        <time>2023-08-29T11:16:08Z</time>
      </trkpt>
      <trkpt lat="56.720758024603128" lon="-5.775193981826305">
        <ele>51.090000000000003</ele>
        <time>2023-08-29T11:16:09Z</time>
      </trkpt>
      <trkpt lat="56.720616035163403" lon="-5.775243015959859">
        <ele>50.609999999999999</ele>
        <time>2023-08-29T11:16:10Z</time>
      </trkpt>
      <trkpt lat="56.720467004925013" lon="-5.775301018729806">
        <ele>50.130000000000003</ele>
        <time>2023-08-29T11:16:11Z</time>
      </trkpt>
      <trkpt lat="56.720329038798809" lon="-5.775414006784558">
        <ele>49.649999999999999</ele>
        <time>2023-08-29T11:16:12Z</time>
      </trkpt>
      <trkpt lat="56.718865977600217" lon="-5.776441041380167">
        <ele>45.32</ele>
        <time>2023-08-29T11:16:22Z</time>
      </trkpt>
      <trkpt lat="56.718714013695717" lon="-5.776490997523069">
        <ele>44.359999999999999</ele>
        <time>2023-08-29T11:16:23Z</time>
      </trkpt>
      <trkpt lat="56.718552997335792" lon="-5.776490997523069">
        <ele>43.880000000000003</ele>
        <time>2023-08-29T11:16:24Z</time>
      </trkpt>
      <trkpt lat="56.718260971829295" lon="-5.776468031108379">
        <ele>42.439999999999998</ele>
        <time>2023-08-29T11:16:26Z</time>
      </trkpt>
      <trkpt lat="56.718128034844995" lon="-5.776410028338432">
        <ele>41.469999999999999</ele>
        <time>2023-08-29T11:16:27Z</time>
      </trkpt>
      <trkpt lat="56.717133019119501" lon="-5.775848021730781">
        <ele>32.340000000000003</ele>
        <time>2023-08-29T11:16:35Z</time>
      </trkpt>
      <trkpt lat="56.716932021081448" lon="-5.775707038119435">
        <ele>29.940000000000001</ele>
        <time>2023-08-29T11:16:38Z</time>
      </trkpt>
      <trkpt lat="56.716892961412668" lon="-5.775680970400572">
        <ele>28.98</ele>
        <time>2023-08-29T11:16:39Z</time>
      </trkpt>
      <trkpt lat="56.716845016926527" lon="-5.775723969563842">
        <ele>28.5</ele>
        <time>2023-08-29T11:16:40Z</time>
      </trkpt>
      <trkpt lat="56.716834036633372" lon="-5.775797981768847">
        <ele>28.02</ele>
        <time>2023-08-29T11:16:41Z</time>
      </trkpt>
      <trkpt lat="56.716819033026695" lon="-5.775898983702064">
        <ele>27.050000000000001</ele>
        <time>2023-08-29T11:16:42Z</time>
      </trkpt>
      <trkpt lat="56.716800006106496" lon="-5.776024963706732">
        <ele>26.09</ele>
        <time>2023-08-29T11:16:43Z</time>
      </trkpt>
      <trkpt lat="56.716804029420018" lon="-5.776178017258644">
        <ele>25.129999999999999</ele>
        <time>2023-08-29T11:16:44Z</time>
      </trkpt>
      <trkpt lat="56.716829007491469" lon="-5.776350013911724">
        <ele>24.170000000000002</ele>
        <time>2023-08-29T11:16:45Z</time>
      </trkpt>
      <trkpt lat="56.716887010261416" lon="-5.776521004736424">
        <ele>23.210000000000001</ele>
        <time>2023-08-29T11:16:46Z</time>
      </trkpt>
      <trkpt lat="56.716956999152899" lon="-5.776699958369136">
        <ele>22.25</ele>
        <time>2023-08-29T11:16:47Z</time>
      </trkpt>
      <trkpt lat="56.717030005529523" lon="-5.776888970285654">
        <ele>20.809999999999999</ele>
        <time>2023-08-29T11:16:48Z</time>
      </trkpt>
      <trkpt lat="56.717107035219669" lon="-5.777087034657598">
        <ele>19.359999999999999</ele>
        <time>2023-08-29T11:16:49Z</time>
      </trkpt>
      <trkpt lat="56.717154979705811" lon="-5.777305969968438">
        <ele>17.920000000000002</ele>
        <time>2023-08-29T11:16:50Z</time>
      </trkpt>
      <trkpt lat="56.717184986919165" lon="-5.777513002976775">
        <ele>16.48</ele>
        <time>2023-08-29T11:16:51Z</time>
      </trkpt>
      <trkpt lat="56.717209964990616" lon="-5.777687011286616">
        <ele>15.52</ele>
        <time>2023-08-29T11:16:52Z</time>
      </trkpt>
      <trkpt lat="56.717188004404306" lon="-5.777848027646542">
        <ele>14.56</ele>
        <time>2023-08-29T11:16:53Z</time>
      </trkpt>
      <trkpt lat="56.717147016897798" lon="-5.777961015701294">
        <ele>14.08</ele>
        <time>2023-08-29T11:16:54Z</time>
      </trkpt>
      <trkpt lat="56.717093037441373" lon="-5.778078027069569">
        <ele>13.6</ele>
        <time>2023-08-29T11:16:55Z</time>
      </trkpt>
      <trkpt lat="56.717009972780943" lon="-5.778152961283922">
        <ele>13.119999999999999</ele>
        <time>2023-08-29T11:16:56Z</time>
      </trkpt>
      <trkpt lat="56.716913999989629" lon="-5.778208030387759">
        <ele>13.119999999999999</ele>
        <time>2023-08-29T11:16:57Z</time>
      </trkpt>
      <trkpt lat="56.716810986399651" lon="-5.778267038986087">
        <ele>13.119999999999999</ele>
        <time>2023-08-29T11:16:58Z</time>
      </trkpt>
      <trkpt lat="56.716113025322556" lon="-5.778709016740322">
        <ele>14.08</ele>
        <time>2023-08-29T11:17:04Z</time>
      </trkpt>
      <trkpt lat="56.716004982590675" lon="-5.778798032552004">
        <ele>13.6</ele>
        <time>2023-08-29T11:17:05Z</time>
      </trkpt>
      <trkpt lat="56.715889982879162" lon="-5.778894005343318">
        <ele>13.119999999999999</ele>
        <time>2023-08-29T11:17:06Z</time>
      </trkpt>
      <trkpt lat="56.715826028957963" lon="-5.778997018933296">
        <ele>12.630000000000001</ele>
        <time>2023-08-29T11:17:07Z</time>
      </trkpt>
      <trkpt lat="56.715754028409719" lon="-5.77911302447319">
        <ele>12.630000000000001</ele>
        <time>2023-08-29T11:17:08Z</time>
      </trkpt>
      <trkpt lat="56.715680016204715" lon="-5.779231963679195">
        <ele>12.630000000000001</ele>
        <time>2023-08-29T11:17:09Z</time>
      </trkpt>
      <trkpt lat="56.715604998171329" lon="-5.779351992532611">
        <ele>12.630000000000001</ele>
        <time>2023-08-29T11:17:10Z</time>
      </trkpt>
      <trkpt lat="56.715366030111909" lon="-5.779735967516899">
        <ele>12.15</ele>
        <time>2023-08-29T11:17:13Z</time>
      </trkpt>
      <trkpt lat="56.715187998488545" lon="-5.779941994696856">
        <ele>11.67</ele>
        <time>2023-08-29T11:17:15Z</time>
      </trkpt>
      <trkpt lat="56.715104011818767" lon="-5.780010977759957">
        <ele>11.19</ele>
        <time>2023-08-29T11:17:16Z</time>
      </trkpt>
      <trkpt lat="56.714999992400408" lon="-5.780032016336918">
        <ele>11.19</ele>
        <time>2023-08-29T11:17:17Z</time>
      </trkpt>
      <trkpt lat="56.714912988245487" lon="-5.779997985810041">
        <ele>10.710000000000001</ele>
        <time>2023-08-29T11:17:18Z</time>
      </trkpt>
      <trkpt lat="56.714818021282554" lon="-5.779947023838759">
        <ele>9.75</ele>
        <time>2023-08-29T11:17:19Z</time>
      </trkpt>
      <trkpt lat="56.714743003249168" lon="-5.779872005805373">
        <ele>9.75</ele>
        <time>2023-08-29T11:17:20Z</time>
      </trkpt>
      <trkpt lat="56.714523984119296" lon="-5.779652986675501">
        <ele>8.789999999999999</ele>
        <time>2023-08-29T11:17:23Z</time>
      </trkpt>
      <trkpt lat="56.714451983571053" lon="-5.779623985290527">
        <ele>8.789999999999999</ele>
        <time>2023-08-29T11:17:24Z</time>
      </trkpt>
      <trkpt lat="56.714365985244513" lon="-5.779595989733934">
        <ele>8.310000000000001</ele>
        <time>2023-08-29T11:17:25Z</time>
      </trkpt>
      <trkpt lat="56.71427202410996" lon="-5.779588026925921">
        <ele>8.310000000000001</ele>
        <time>2023-08-29T11:17:26Z</time>
      </trkpt>
      <trkpt lat="56.71416599303484" lon="-5.779604036360979">
        <ele>7.83</ele>
        <time>2023-08-29T11:17:27Z</time>
      </trkpt>
      <trkpt lat="56.713854018598795" lon="-5.77964804135263">
        <ele>8.310000000000001</ele>
        <time>2023-08-29T11:17:30Z</time>
      </trkpt>
      <trkpt lat="56.713748993352056" lon="-5.779662961140275">
        <ele>8.310000000000001</ele>
        <time>2023-08-29T11:17:31Z</time>
      </trkpt>
      <trkpt lat="56.713181035593152" lon="-5.779738985002041">
        <ele>9.75</ele>
        <time>2023-08-29T11:17:36Z</time>
      </trkpt>
      <trkpt lat="56.711740018799901" lon="-5.779840992763639">
        <ele>11.19</ele>
        <time>2023-08-29T11:17:48Z</time>
      </trkpt>
      <trkpt lat="56.710780039429665" lon="-5.779519965872169">
        <ele>12.630000000000001</ele>
        <time>2023-08-29T11:17:56Z</time>
      </trkpt>
      <trkpt lat="56.710205962881446" lon="-5.779354004189372">
        <ele>15.039999999999999</ele>
        <time>2023-08-29T11:18:01Z</time>
      </trkpt>
      <trkpt lat="56.710092974826694" lon="-5.779387028887868">
        <ele>15.52</ele>
        <time>2023-08-29T11:18:02Z</time>
      </trkpt>
      <trkpt lat="56.709386967122555" lon="-5.779593978077173">
        <ele>17.920000000000002</ele>
        <time>2023-08-29T11:18:09Z</time>
      </trkpt>
      <trkpt lat="56.709266016259789" lon="-5.779630020260811">
        <ele>20.32</ele>
        <time>2023-08-29T11:18:16Z</time>
      </trkpt>
      <trkpt lat="56.709212958812714" lon="-5.779645023867488">
        <ele>20.809999999999999</ele>
        <time>2023-08-29T11:18:18Z</time>
      </trkpt>
      <trkpt lat="56.70916099101305" lon="-5.779661033302546">
        <ele>21.289999999999999</ele>
        <time>2023-08-29T11:18:19Z</time>
      </trkpt>
      <trkpt lat="56.709098964929581" lon="-5.779677964746952">
        <ele>21.77</ele>
        <time>2023-08-29T11:18:20Z</time>
      </trkpt>
      <trkpt lat="56.709028976038098" lon="-5.779753988608718">
        <ele>22.25</ele>
        <time>2023-08-29T11:18:21Z</time>
      </trkpt>
      <trkpt lat="56.708982959389687" lon="-5.779834035784006">
        <ele>22.73</ele>
        <time>2023-08-29T11:18:22Z</time>
      </trkpt>
      <trkpt lat="56.708935014903545" lon="-5.779918022453785">
        <ele>23.210000000000001</ele>
        <time>2023-08-29T11:18:23Z</time>
      </trkpt>
      <trkpt lat="56.70888296328485" lon="-5.780033022165299">
        <ele>23.690000000000001</ele>
        <time>2023-08-29T11:18:24Z</time>
      </trkpt>
      <trkpt lat="56.708844993263483" lon="-5.78018699772656">
        <ele>24.170000000000002</ele>
        <time>2023-08-29T11:18:25Z</time>
      </trkpt>
      <trkpt lat="56.708800988271832" lon="-5.780362011864781">
        <ele>24.649999999999999</ele>
        <time>2023-08-29T11:18:26Z</time>
      </trkpt>
      <trkpt lat="56.70870803296566" lon="-5.780732994899154">
        <ele>25.609999999999999</ele>
        <time>2023-08-29T11:18:28Z</time>
      </trkpt>
      <trkpt lat="56.708627985790372" lon="-5.780880013480783">
        <ele>26.09</ele>
        <time>2023-08-29T11:18:29Z</time>
      </trkpt>
      <trkpt lat="56.70853603631258" lon="-5.781030971556902">
        <ele>26.09</ele>
        <time>2023-08-29T11:18:30Z</time>
      </trkpt>
      <trkpt lat="56.708439979702234" lon="-5.781186958774924">
        <ele>26.57</ele>
        <time>2023-08-29T11:18:31Z</time>
      </trkpt>
      <trkpt lat="56.708338977769017" lon="-5.781335989013314">
        <ele>26.57</ele>
        <time>2023-08-29T11:18:32Z</time>
      </trkpt>
      <trkpt lat="56.708216015249491" lon="-5.781446965411305">
        <ele>27.050000000000001</ele>
        <time>2023-08-29T11:18:33Z</time>
      </trkpt>
      <trkpt lat="56.708089029416442" lon="-5.78156003728509">
        <ele>27.530000000000001</ele>
        <time>2023-08-29T11:18:34Z</time>
      </trkpt>
      <trkpt lat="56.707966988906264" lon="-5.78166900202632">
        <ele>28.02</ele>
        <time>2023-08-29T11:18:35Z</time>
      </trkpt>
      <trkpt lat="56.707851989194751" lon="-5.781773021444678">
        <ele>28.5</ele>
        <time>2023-08-29T11:18:36Z</time>
      </trkpt>
      <trkpt lat="56.707747969776392" lon="-5.78186497092247">
        <ele>28.98</ele>
        <time>2023-08-29T11:18:37Z</time>
      </trkpt>
      <trkpt lat="56.707645962014794" lon="-5.781957004219294">
        <ele>29.460000000000001</ele>
        <time>2023-08-29T11:18:38Z</time>
      </trkpt>
      <trkpt lat="56.707542026415467" lon="-5.782049959525466">
        <ele>30.420000000000002</ele>
        <time>2023-08-29T11:18:39Z</time>
      </trkpt>
      <trkpt lat="56.707240026444197" lon="-5.782290017232299">
        <ele>34.259999999999998</ele>
        <time>2023-08-29T11:18:42Z</time>
      </trkpt>
      <trkpt lat="56.707128966227174" lon="-5.782351037487388">
        <ele>35.229999999999997</ele>
        <time>2023-08-29T11:18:43Z</time>
      </trkpt>
      <trkpt lat="56.70701296068728" lon="-5.782394036650658">
        <ele>36.189999999999998</ele>
        <time>2023-08-29T11:18:44Z</time>
      </trkpt>
      <trkpt lat="56.706906007602811" lon="-5.782425971701741">
        <ele>36.670000000000002</ele>
        <time>2023-08-29T11:18:45Z</time>
      </trkpt>
      <trkpt lat="56.706808023154736" lon="-5.782414991408587">
        <ele>37.149999999999999</ele>
        <time>2023-08-29T11:18:46Z</time>
      </trkpt>
      <trkpt lat="56.706719007343054" lon="-5.782388001680374">
        <ele>37.149999999999999</ele>
        <time>2023-08-29T11:18:47Z</time>
      </trkpt>
      <trkpt lat="56.706640971824527" lon="-5.782366041094065">
        <ele>36.670000000000002</ele>
        <time>2023-08-29T11:18:48Z</time>
      </trkpt>
      <trkpt lat="56.706566037610173" lon="-5.782343996688724">
        <ele>36.189999999999998</ele>
        <time>2023-08-29T11:18:49Z</time>
      </trkpt>
      <trkpt lat="56.706512980163097" lon="-5.782327987253666">
        <ele>35.710000000000001</ele>
        <time>2023-08-29T11:18:50Z</time>
      </trkpt>
      <trkpt lat="56.706420024856925" lon="-5.782384984195232">
        <ele>35.229999999999997</ele>
        <time>2023-08-29T11:18:51Z</time>
      </trkpt>
      <trkpt lat="56.706360010430217" lon="-5.782423038035631">
        <ele>34.740000000000002</ele>
        <time>2023-08-29T11:18:52Z</time>
      </trkpt>
      <trkpt lat="56.706330003216863" lon="-5.782489003613591">
        <ele>34.259999999999998</ele>
        <time>2023-08-29T11:18:53Z</time>
      </trkpt>
      <trkpt lat="56.706308964639902" lon="-5.782596040517092">
        <ele>33.780000000000001</ele>
        <time>2023-08-29T11:18:54Z</time>
      </trkpt>
      <trkpt lat="56.70628197491169" lon="-5.782728977501392">
        <ele>33.299999999999997</ele>
        <time>2023-08-29T11:18:55Z</time>
      </trkpt>
      <trkpt lat="56.70628298074007" lon="-5.782867027446628">
        <ele>32.82</ele>
        <time>2023-08-29T11:18:56Z</time>
      </trkpt>
      <trkpt lat="56.706293961033225" lon="-5.783037012442946">
        <ele>31.859999999999999</ele>
        <time>2023-08-29T11:18:57Z</time>
      </trkpt>
      <trkpt lat="56.706305025145411" lon="-5.783216971904039">
        <ele>31.379999999999999</ele>
        <time>2023-08-29T11:18:58Z</time>
      </trkpt>
      <trkpt lat="56.706317011266947" lon="-5.783398021012545">
        <ele>30.420000000000002</ele>
        <time>2023-08-29T11:18:59Z</time>
      </trkpt>
      <trkpt lat="56.706327991560102" lon="-5.783574962988496">
        <ele>29.460000000000001</ele>
        <time>2023-08-29T11:19:00Z</time>
      </trkpt>
      <trkpt lat="56.706312987953424" lon="-5.783935971558094">
        <ele>27.050000000000001</ele>
        <time>2023-08-29T11:19:02Z</time>
      </trkpt>
      <trkpt lat="56.706279963254929" lon="-5.784106962382793">
        <ele>25.609999999999999</ele>
        <time>2023-08-29T11:19:03Z</time>
      </trkpt>
      <trkpt lat="56.706244004890323" lon="-5.784276025369763">
        <ele>24.649999999999999</ele>
        <time>2023-08-29T11:19:04Z</time>
      </trkpt>
      <trkpt lat="56.706191031262279" lon="-5.784451961517334">
        <ele>24.170000000000002</ele>
        <time>2023-08-29T11:19:05Z</time>
      </trkpt>
      <trkpt lat="56.706115007400513" lon="-5.784595040604472">
        <ele>23.210000000000001</ele>
        <time>2023-08-29T11:19:06Z</time>
      </trkpt>
      <trkpt lat="56.706034038215876" lon="-5.784745998680592">
        <ele>22.73</ele>
        <time>2023-08-29T11:19:07Z</time>
      </trkpt>
      <trkpt lat="56.705561969429255" lon="-5.785632971674204">
        <ele>20.32</ele>
        <time>2023-08-29T11:19:13Z</time>
      </trkpt>
      <trkpt lat="56.705483011901379" lon="-5.785782001912594">
        <ele>19.84</ele>
        <time>2023-08-29T11:19:14Z</time>
      </trkpt>
      <trkpt lat="56.705407993867993" lon="-5.785792982205749">
        <ele>19.84</ele>
        <time>2023-08-29T11:19:15Z</time>
      </trkpt>
      <trkpt lat="56.70531403273344" lon="-5.785805974155664">
        <ele>19.84</ele>
        <time>2023-08-29T11:19:16Z</time>
      </trkpt>
      <trkpt lat="56.705212024971843" lon="-5.785820977762342">
        <ele>19.359999999999999</ele>
        <time>2023-08-29T11:19:17Z</time>
      </trkpt>
      <trkpt lat="56.704472992569208" lon="-5.785688040778041">
        <ele>18.879999999999999</ele>
        <time>2023-08-29T11:19:23Z</time>
      </trkpt>
      <trkpt lat="56.704376013949513" lon="-5.785704972222447">
        <ele>18.399999999999999</ele>
        <time>2023-08-29T11:19:24Z</time>
      </trkpt>
      <trkpt lat="56.704299990087748" lon="-5.7857730332762">
        <ele>17.920000000000002</ele>
        <time>2023-08-29T11:19:25Z</time>
      </trkpt>
      <trkpt lat="56.704228995367885" lon="-5.785835981369019">
        <ele>17.920000000000002</ele>
        <time>2023-08-29T11:19:26Z</time>
      </trkpt>
      <trkpt lat="56.704185996204615" lon="-5.785938994958997">
        <ele>17.440000000000001</ele>
        <time>2023-08-29T11:19:27Z</time>
      </trkpt>
      <trkpt lat="56.704144002869725" lon="-5.786064974963665">
        <ele>16.960000000000001</ele>
        <time>2023-08-29T11:19:28Z</time>
      </trkpt>
      <trkpt lat="56.704121958464384" lon="-5.786219034343958">
        <ele>16.48</ele>
        <time>2023-08-29T11:19:29Z</time>
      </trkpt>
      <trkpt lat="56.704108966514468" lon="-5.786387007683516">
        <ele>16.48</ele>
        <time>2023-08-29T11:19:30Z</time>
      </trkpt>
      <trkpt lat="56.704093962907791" lon="-5.78656897880137">
        <ele>16.48</ele>
        <time>2023-08-29T11:19:31Z</time>
      </trkpt>
      <trkpt lat="56.704078959301114" lon="-5.786765031516552">
        <ele>16.48</ele>
        <time>2023-08-29T11:19:32Z</time>
      </trkpt>
      <trkpt lat="56.704050963744521" lon="-5.786979021504521">
        <ele>16.48</ele>
        <time>2023-08-29T11:19:33Z</time>
      </trkpt>
      <trkpt lat="56.704001007601619" lon="-5.78717096708715">
        <ele>16.48</ele>
        <time>2023-08-29T11:19:34Z</time>
      </trkpt>
      <trkpt lat="56.703645028173923" lon="-5.788414003327489">
        <ele>17.920000000000002</ele>
        <time>2023-08-29T11:19:41Z</time>
      </trkpt>
      <trkpt lat="56.70357596129179" lon="-5.788577031344175">
        <ele>17.920000000000002</ele>
        <time>2023-08-29T11:19:42Z</time>
      </trkpt>
      <trkpt lat="56.703505972400308" lon="-5.788743998855352">
        <ele>17.920000000000002</ele>
        <time>2023-08-29T11:19:43Z</time>
      </trkpt>
      <trkpt lat="56.703341016545892" lon="-5.789090003818274">
        <ele>17.440000000000001</ele>
        <time>2023-08-29T11:19:45Z</time>
      </trkpt>
      <trkpt lat="56.703235991299152" lon="-5.789214977994561">
        <ele>17.440000000000001</ele>
        <time>2023-08-29T11:19:46Z</time>
      </trkpt>
      <trkpt lat="56.703125014901161" lon="-5.789347998797894">
        <ele>17.440000000000001</ele>
        <time>2023-08-29T11:19:47Z</time>
      </trkpt>
      <trkpt lat="56.703012026846409" lon="-5.789483031257987">
        <ele>16.960000000000001</ele>
        <time>2023-08-29T11:19:48Z</time>
      </trkpt>
      <trkpt lat="56.702894009649754" lon="-5.789623009040952">
        <ele>16.960000000000001</ele>
        <time>2023-08-29T11:19:49Z</time>
      </trkpt>
      <trkpt lat="56.70183202251792" lon="-5.790549963712692">
        <ele>17.920000000000002</ele>
        <time>2023-08-29T11:19:58Z</time>
      </trkpt>
      <trkpt lat="56.70174602419138" lon="-5.790622970089316">
        <ele>17.920000000000002</ele>
        <time>2023-08-29T11:19:59Z</time>
      </trkpt>
      <trkpt lat="56.701673017814755" lon="-5.790684996172786">
        <ele>18.399999999999999</ele>
        <time>2023-08-29T11:20:00Z</time>
      </trkpt>
      <trkpt lat="56.701599005609751" lon="-5.790748028084636">
        <ele>18.399999999999999</ele>
        <time>2023-08-29T11:20:01Z</time>
      </trkpt>
      <trkpt lat="56.701518036425114" lon="-5.790816005319357">
        <ele>18.399999999999999</ele>
        <time>2023-08-29T11:20:02Z</time>
      </trkpt>
      <trkpt lat="56.701433965936303" lon="-5.7908880058676">
        <ele>18.399999999999999</ele>
        <time>2023-08-29T11:20:03Z</time>
      </trkpt>
      <trkpt lat="56.70134000480175" lon="-5.790967969223857">
        <ele>17.920000000000002</ele>
        <time>2023-08-29T11:20:04Z</time>
      </trkpt>
      <trkpt lat="56.701120985671878" lon="-5.791068971157074">
        <ele>16.960000000000001</ele>
        <time>2023-08-29T11:20:06Z</time>
      </trkpt>
      <trkpt lat="56.700993999838829" lon="-5.791097972542048">
        <ele>16.48</ele>
        <time>2023-08-29T11:20:07Z</time>
      </trkpt>
      <trkpt lat="56.700869025662541" lon="-5.79112496227026">
        <ele>16</ele>
        <time>2023-08-29T11:20:08Z</time>
      </trkpt>
      <trkpt lat="56.700238035991788" lon="-5.791050028055906">
        <ele>15.52</ele>
        <time>2023-08-29T11:20:14Z</time>
      </trkpt>
      <trkpt lat="56.699925977736712" lon="-5.79108003526926">
        <ele>15.52</ele>
        <time>2023-08-29T11:20:17Z</time>
      </trkpt>
      <trkpt lat="56.699738977476954" lon="-5.791096966713667">
        <ele>15.52</ele>
        <time>2023-08-29T11:20:19Z</time>
      </trkpt>
      <trkpt lat="56.699667982757092" lon="-5.791104007512331">
        <ele>15.52</ele>
        <time>2023-08-29T11:20:20Z</time>
      </trkpt>
      <trkpt lat="56.699569998309016" lon="-5.7912109605968">
        <ele>16</ele>
        <time>2023-08-29T11:20:21Z</time>
      </trkpt>
      <trkpt lat="56.699452986940742" lon="-5.791340041905642">
        <ele>16.48</ele>
        <time>2023-08-29T11:20:22Z</time>
      </trkpt>
      <trkpt lat="56.699409987777472" lon="-5.791426040232182">
        <ele>16.960000000000001</ele>
        <time>2023-08-29T11:20:23Z</time>
      </trkpt>
      <trkpt lat="56.699101030826569" lon="-5.792010007426143">
        <ele>20.32</ele>
        <time>2023-08-29T11:20:27Z</time>
      </trkpt>
      <trkpt lat="56.698994999751449" lon="-5.792104974389076">
        <ele>20.809999999999999</ele>
        <time>2023-08-29T11:20:28Z</time>
      </trkpt>
      <trkpt lat="56.698455959558487" lon="-5.792553992941976">
        <ele>24.170000000000002</ele>
        <time>2023-08-29T11:20:33Z</time>
      </trkpt>
      <trkpt lat="56.698338026180863" lon="-5.7926079723984">
        <ele>24.649999999999999</ele>
        <time>2023-08-29T11:20:34Z</time>
      </trkpt>
      <trkpt lat="56.697994032874703" lon="-5.792750967666507">
        <ele>26.09</ele>
        <time>2023-08-29T11:20:37Z</time>
      </trkpt>
      <trkpt lat="56.697803009301424" lon="-5.792931010946631">
        <ele>27.530000000000001</ele>
        <time>2023-08-29T11:20:39Z</time>
      </trkpt>
      <trkpt lat="56.697606034576893" lon="-5.793168973177671">
        <ele>28.98</ele>
        <time>2023-08-29T11:20:41Z</time>
      </trkpt>
      <trkpt lat="56.697521964088082" lon="-5.793270980939269">
        <ele>29.940000000000001</ele>
        <time>2023-08-29T11:20:42Z</time>
      </trkpt>
      <trkpt lat="56.697382992133498" lon="-5.793349016457796">
        <ele>30.420000000000002</ele>
        <time>2023-08-29T11:20:43Z</time>
      </trkpt>
      <trkpt lat="56.697274027392268" lon="-5.793410036712885">
        <ele>30.420000000000002</ele>
        <time>2023-08-29T11:20:44Z</time>
      </trkpt>
      <trkpt lat="56.697179982438684" lon="-5.793463010340929">
        <ele>31.379999999999999</ele>
        <time>2023-08-29T11:20:45Z</time>
      </trkpt>
      <trkpt lat="56.697116028517485" lon="-5.793557977303863">
        <ele>31.859999999999999</ele>
        <time>2023-08-29T11:20:46Z</time>
      </trkpt>
      <trkpt lat="56.697069006040692" lon="-5.79365998506546">
        <ele>32.82</ele>
        <time>2023-08-29T11:20:47Z</time>
      </trkpt>
      <trkpt lat="56.697027012705803" lon="-5.793778002262116">
        <ele>33.299999999999997</ele>
        <time>2023-08-29T11:20:48Z</time>
      </trkpt>
      <trkpt lat="56.696928022429347" lon="-5.79400397837162">
        <ele>34.259999999999998</ele>
        <time>2023-08-29T11:20:50Z</time>
      </trkpt>
      <trkpt lat="56.696860967203975" lon="-5.79408997669816">
        <ele>34.259999999999998</ele>
        <time>2023-08-29T11:20:51Z</time>
      </trkpt>
      <trkpt lat="56.696814028546214" lon="-5.794150996953249">
        <ele>34.259999999999998</ele>
        <time>2023-08-29T11:20:52Z</time>
      </trkpt>
      <trkpt lat="56.696707997471094" lon="-5.794144039973617">
        <ele>34.259999999999998</ele>
        <time>2023-08-29T11:20:53Z</time>
      </trkpt>
      <trkpt lat="56.696613030508161" lon="-5.794138005003333">
        <ele>34.259999999999998</ele>
        <time>2023-08-29T11:20:54Z</time>
      </trkpt>
      <trkpt lat="56.696516973897815" lon="-5.794130964204669">
        <ele>34.259999999999998</ele>
        <time>2023-08-29T11:20:55Z</time>
      </trkpt>
      <trkpt lat="56.696425024420023" lon="-5.794201036915183">
        <ele>33.780000000000001</ele>
        <time>2023-08-29T11:20:56Z</time>
      </trkpt>
      <trkpt lat="56.69635402970016" lon="-5.794277982786298">
        <ele>33.780000000000001</ele>
        <time>2023-08-29T11:20:57Z</time>
      </trkpt>
      <trkpt lat="56.696280017495155" lon="-5.794357024133205">
        <ele>33.299999999999997</ele>
        <time>2023-08-29T11:20:58Z</time>
      </trkpt>
      <trkpt lat="56.696200976148248" lon="-5.794460959732533">
        <ele>32.82</ele>
        <time>2023-08-29T11:20:59Z</time>
      </trkpt>
      <trkpt lat="56.696140039712191" lon="-5.794620970264077">
        <ele>32.340000000000003</ele>
        <time>2023-08-29T11:21:00Z</time>
      </trkpt>
      <trkpt lat="56.696074996143579" lon="-5.794791039079428">
        <ele>31.859999999999999</ele>
        <time>2023-08-29T11:21:01Z</time>
      </trkpt>
      <trkpt lat="56.696025962010026" lon="-5.794978039339185">
        <ele>31.379999999999999</ele>
        <time>2023-08-29T11:21:02Z</time>
      </trkpt>
      <trkpt lat="56.695996960625052" lon="-5.795160010457039">
        <ele>30.899999999999999</ele>
        <time>2023-08-29T11:21:03Z</time>
      </trkpt>
      <trkpt lat="56.69596896506846" lon="-5.795332007110119">
        <ele>30.420000000000002</ele>
        <time>2023-08-29T11:21:04Z</time>
      </trkpt>
      <trkpt lat="56.695963013917208" lon="-5.795696033164859">
        <ele>29.460000000000001</ele>
        <time>2023-08-29T11:21:06Z</time>
      </trkpt>
      <trkpt lat="56.69596896506846" lon="-5.795905999839306">
        <ele>28.5</ele>
        <time>2023-08-29T11:21:07Z</time>
      </trkpt>
      <trkpt lat="56.695957984775305" lon="-5.796321993693709">
        <ele>28.02</ele>
        <time>2023-08-29T11:21:09Z</time>
      </trkpt>
      <trkpt lat="56.695929989218712" lon="-5.79649499617517">
        <ele>27.530000000000001</ele>
        <time>2023-08-29T11:21:10Z</time>
      </trkpt>
      <trkpt lat="56.695893025025725" lon="-5.796635979786515">
        <ele>27.050000000000001</ele>
        <time>2023-08-29T11:21:11Z</time>
      </trkpt>
      <trkpt lat="56.695830998942256" lon="-5.796760031953454">
        <ele>26.57</ele>
        <time>2023-08-29T11:21:12Z</time>
      </trkpt>
      <trkpt lat="56.695768972858787" lon="-5.796868996694684">
        <ele>26.09</ele>
        <time>2023-08-29T11:21:13Z</time>
      </trkpt>
      <trkpt lat="56.695682974532247" lon="-5.796954995021224">
        <ele>26.09</ele>
        <time>2023-08-29T11:21:14Z</time>
      </trkpt>
      <trkpt lat="56.695595970377326" lon="-5.797043005004525">
        <ele>26.09</ele>
        <time>2023-08-29T11:21:15Z</time>
      </trkpt>
      <trkpt lat="56.695524975657463" lon="-5.797152975574136">
        <ele>26.09</ele>
        <time>2023-08-29T11:21:16Z</time>
      </trkpt>
      <trkpt lat="56.695476025342941" lon="-5.797283984720707">
        <ele>26.09</ele>
        <time>2023-08-29T11:21:17Z</time>
      </trkpt>
      <trkpt lat="56.695424979552627" lon="-5.797422034665942">
        <ele>25.609999999999999</ele>
        <time>2023-08-29T11:21:18Z</time>
      </trkpt>
      <trkpt lat="56.695368988439441" lon="-5.797573998570442">
        <ele>25.609999999999999</ele>
        <time>2023-08-29T11:21:19Z</time>
      </trkpt>
      <trkpt lat="56.695300005376339" lon="-5.797706013545394">
        <ele>25.129999999999999</ele>
        <time>2023-08-29T11:21:20Z</time>
      </trkpt>
      <trkpt lat="56.69521601870656" lon="-5.797797041013837">
        <ele>24.170000000000002</ele>
        <time>2023-08-29T11:21:21Z</time>
      </trkpt>
      <trkpt lat="56.695138989016414" lon="-5.797880021855235">
        <ele>24.170000000000002</ele>
        <time>2023-08-29T11:21:22Z</time>
      </trkpt>
      <trkpt lat="56.695073023438454" lon="-5.79795696772635">
        <ele>23.690000000000001</ele>
        <time>2023-08-29T11:21:23Z</time>
      </trkpt>
      <trkpt lat="56.695039998739958" lon="-5.798071967437863">
        <ele>23.210000000000001</ele>
        <time>2023-08-29T11:21:24Z</time>
      </trkpt>
      <trkpt lat="56.695017032325268" lon="-5.79821303486824">
        <ele>23.210000000000001</ele>
        <time>2023-08-29T11:21:25Z</time>
      </trkpt>
      <trkpt lat="56.694993982091546" lon="-5.798375979065895">
        <ele>22.25</ele>
        <time>2023-08-29T11:21:26Z</time>
      </trkpt>
      <trkpt lat="56.694924999028444" lon="-5.799182988703251">
        <ele>19.84</ele>
        <time>2023-08-29T11:21:30Z</time>
      </trkpt>
      <trkpt lat="56.694924999028444" lon="-5.799557995051146">
        <ele>18.879999999999999</ele>
        <time>2023-08-29T11:21:32Z</time>
      </trkpt>
      <trkpt lat="56.694902032613754" lon="-5.799704007804394">
        <ele>18.399999999999999</ele>
        <time>2023-08-29T11:21:33Z</time>
      </trkpt>
      <trkpt lat="56.694859033450484" lon="-5.799855971708894">
        <ele>18.399999999999999</ele>
        <time>2023-08-29T11:21:34Z</time>
      </trkpt>
      <trkpt lat="56.694800024852157" lon="-5.799991004168987">
        <ele>18.399999999999999</ele>
        <time>2023-08-29T11:21:35Z</time>
      </trkpt>
      <trkpt lat="56.694719977676868" lon="-5.800128970295191">
        <ele>18.399999999999999</ele>
        <time>2023-08-29T11:21:36Z</time>
      </trkpt>
      <trkpt lat="56.694544963538647" lon="-5.800385037437081">
        <ele>17.920000000000002</ele>
        <time>2023-08-29T11:21:38Z</time>
      </trkpt>
      <trkpt lat="56.6944420337677" lon="-5.800481010228396">
        <ele>17.920000000000002</ele>
        <time>2023-08-29T11:21:39Z</time>
      </trkpt>
      <trkpt lat="56.694268025457859" lon="-5.800668010488153">
        <ele>17.440000000000001</ele>
        <time>2023-08-29T11:21:41Z</time>
      </trkpt>
      <trkpt lat="56.694209016859531" lon="-5.800768006592989">
        <ele>17.440000000000001</ele>
        <time>2023-08-29T11:21:42Z</time>
      </trkpt>
      <trkpt lat="56.694161994382739" lon="-5.800914019346237">
        <ele>17.920000000000002</ele>
        <time>2023-08-29T11:21:43Z</time>
      </trkpt>
      <trkpt lat="56.694138022139668" lon="-5.801084004342556">
        <ele>17.920000000000002</ele>
        <time>2023-08-29T11:21:44Z</time>
      </trkpt>
      <trkpt lat="56.694112038239837" lon="-5.801267987117171">
        <ele>17.920000000000002</ele>
        <time>2023-08-29T11:21:45Z</time>
      </trkpt>
      <trkpt lat="56.694084964692593" lon="-5.801463034003973">
        <ele>17.440000000000001</ele>
        <time>2023-08-29T11:21:46Z</time>
      </trkpt>
      <trkpt lat="56.694005001336336" lon="-5.802034009248018">
        <ele>17.440000000000001</ele>
        <time>2023-08-29T11:21:49Z</time>
      </trkpt>
      <trkpt lat="56.693937024101615" lon="-5.802229978144169">
        <ele>16.960000000000001</ele>
        <time>2023-08-29T11:21:50Z</time>
      </trkpt>
      <trkpt lat="56.693854965269566" lon="-5.802455032244325">
        <ele>16.960000000000001</ele>
        <time>2023-08-29T11:21:51Z</time>
      </trkpt>
      <trkpt lat="56.693686991930008" lon="-5.802917964756489">
        <ele>16.960000000000001</ele>
        <time>2023-08-29T11:21:53Z</time>
      </trkpt>
      <trkpt lat="56.693610968068242" lon="-5.803129021078348">
        <ele>17.440000000000001</ele>
        <time>2023-08-29T11:21:54Z</time>
      </trkpt>
      <trkpt lat="56.693474007770419" lon="-5.803395984694362">
        <ele>17.920000000000002</ele>
        <time>2023-08-29T11:21:56Z</time>
      </trkpt>
      <trkpt lat="56.693401001393795" lon="-5.803479971364141">
        <ele>17.920000000000002</ele>
        <time>2023-08-29T11:21:57Z</time>
      </trkpt>
      <trkpt lat="56.693100007250905" lon="-5.803694967180491">
        <ele>18.879999999999999</ele>
        <time>2023-08-29T11:22:00Z</time>
      </trkpt>
      <trkpt lat="56.692973021417856" lon="-5.803784988820553">
        <ele>18.879999999999999</ele>
        <time>2023-08-29T11:22:01Z</time>
      </trkpt>
      <trkpt lat="56.692751990631223" lon="-5.804107021540403">
        <ele>18.879999999999999</ele>
        <time>2023-08-29T11:22:03Z</time>
      </trkpt>
      <trkpt lat="56.692243041470647" lon="-5.804850999265909">
        <ele>17.920000000000002</ele>
        <time>2023-08-29T11:22:09Z</time>
      </trkpt>
      <trkpt lat="56.692226026207209" lon="-5.804877988994122">
        <ele>17.920000000000002</ele>
        <time>2023-08-29T11:22:16Z</time>
      </trkpt>
      <trkpt lat="56.692204987630248" lon="-5.804910007864237">
        <ele>17.440000000000001</ele>
        <time>2023-08-29T11:22:17Z</time>
      </trkpt>
      <trkpt lat="56.692174980416894" lon="-5.804958958178759">
        <ele>16.960000000000001</ele>
        <time>2023-08-29T11:22:18Z</time>
      </trkpt>
      <trkpt lat="56.69188697822392" lon="-5.805310998111963">
        <ele>16</ele>
        <time>2023-08-29T11:22:23Z</time>
      </trkpt>
      <trkpt lat="56.691046021878719" lon="-5.806316994130611">
        <ele>15.039999999999999</ele>
        <time>2023-08-29T11:22:31Z</time>
      </trkpt>
      <trkpt lat="56.690934961661696" lon="-5.806449009105563">
        <ele>14.56</ele>
        <time>2023-08-29T11:22:32Z</time>
      </trkpt>
      <trkpt lat="56.690848963335156" lon="-5.806553028523922">
        <ele>14.08</ele>
        <time>2023-08-29T11:22:33Z</time>
      </trkpt>
      <trkpt lat="56.690771011635661" lon="-5.806767018511891">
        <ele>13.119999999999999</ele>
        <time>2023-08-29T11:22:34Z</time>
      </trkpt>
      <trkpt lat="56.690707979723811" lon="-5.806940020993352">
        <ele>12.630000000000001</ele>
        <time>2023-08-29T11:22:35Z</time>
      </trkpt>
      <trkpt lat="56.690642014145851" lon="-5.807121992111206">
        <ele>11.67</ele>
        <time>2023-08-29T11:22:36Z</time>
      </trkpt>
      <trkpt lat="56.69057403691113" lon="-5.807308992370963">
        <ele>11.19</ele>
        <time>2023-08-29T11:22:37Z</time>
      </trkpt>
      <trkpt lat="56.690507987514138" lon="-5.807490963488817">
        <ele>10.710000000000001</ele>
        <time>2023-08-29T11:22:38Z</time>
      </trkpt>
      <trkpt lat="56.690442021936178" lon="-5.807672012597323">
        <ele>10.710000000000001</ele>
        <time>2023-08-29T11:22:39Z</time>
      </trkpt>
      <trkpt lat="56.690346971154213" lon="-5.807832023128867">
        <ele>10.23</ele>
        <time>2023-08-29T11:22:40Z</time>
      </trkpt>
      <trkpt lat="56.69025301001966" lon="-5.807960014790297">
        <ele>10.23</ele>
        <time>2023-08-29T11:22:41Z</time>
      </trkpt>
      <trkpt lat="56.690143961459398" lon="-5.808081971481443">
        <ele>10.710000000000001</ele>
        <time>2023-08-29T11:22:42Z</time>
      </trkpt>
      <trkpt lat="56.690028039738536" lon="-5.808159001171589">
        <ele>11.19</ele>
        <time>2023-08-29T11:22:43Z</time>
      </trkpt>
      <trkpt lat="56.689904993399978" lon="-5.808240976184607">
        <ele>11.19</ele>
        <time>2023-08-29T11:22:44Z</time>
      </trkpt>
      <trkpt lat="56.689075017347932" lon="-5.808779010549188">
        <ele>10.710000000000001</ele>
        <time>2023-08-29T11:22:51Z</time>
      </trkpt>
      <trkpt lat="56.688323998823762" lon="-5.809200033545494">
        <ele>10.23</ele>
        <time>2023-08-29T11:22:57Z</time>
      </trkpt>
      <trkpt lat="56.687843967229128" lon="-5.809469008818269">
        <ele>11.19</ele>
        <time>2023-08-29T11:23:01Z</time>
      </trkpt>
      <trkpt lat="56.687647998332977" lon="-5.809647040441632">
        <ele>12.15</ele>
        <time>2023-08-29T11:23:03Z</time>
      </trkpt>
      <trkpt lat="56.687558982521296" lon="-5.809735972434282">
        <ele>12.630000000000001</ele>
        <time>2023-08-29T11:23:04Z</time>
      </trkpt>
      <trkpt lat="56.68748295865953" lon="-5.809866981580854">
        <ele>13.6</ele>
        <time>2023-08-29T11:23:05Z</time>
      </trkpt>
      <trkpt lat="56.687414981424809" lon="-5.81003000959754">
        <ele>14.08</ele>
        <time>2023-08-29T11:23:06Z</time>
      </trkpt>
      <trkpt lat="56.687371982261539" lon="-5.810212986543775">
        <ele>14.08</ele>
        <time>2023-08-29T11:23:07Z</time>
      </trkpt>
      <trkpt lat="56.687324037775397" lon="-5.810413984581828">
        <ele>14.56</ele>
        <time>2023-08-29T11:23:08Z</time>
      </trkpt>
      <trkpt lat="56.687278021126986" lon="-5.81061196513474">
        <ele>15.039999999999999</ele>
        <time>2023-08-29T11:23:09Z</time>
      </trkpt>
      <trkpt lat="56.687226975336671" lon="-5.810826038941741">
        <ele>15.039999999999999</ele>
        <time>2023-08-29T11:23:10Z</time>
      </trkpt>
      <trkpt lat="56.687174001708627" lon="-5.811048997566104">
        <ele>15.52</ele>
        <time>2023-08-29T11:23:11Z</time>
      </trkpt>
      <trkpt lat="56.687127985060215" lon="-5.811222000047565">
        <ele>16</ele>
        <time>2023-08-29T11:23:12Z</time>
      </trkpt>
      <trkpt lat="56.68703000061214" lon="-5.811359966173768">
        <ele>16</ele>
        <time>2023-08-29T11:23:13Z</time>
      </trkpt>
      <trkpt lat="56.686928998678923" lon="-5.811502039432526">
        <ele>16.960000000000001</ele>
        <time>2023-08-29T11:23:14Z</time>
      </trkpt>
      <trkpt lat="56.686834031715989" lon="-5.811635982245207">
        <ele>17.440000000000001</ele>
        <time>2023-08-29T11:23:15Z</time>
      </trkpt>
      <trkpt lat="56.686750967055559" lon="-5.811775960028172">
        <ele>17.440000000000001</ele>
        <time>2023-08-29T11:23:16Z</time>
      </trkpt>
      <trkpt lat="56.686691036447883" lon="-5.811927001923323">
        <ele>17.920000000000002</ele>
        <time>2023-08-29T11:23:17Z</time>
      </trkpt>
      <trkpt lat="56.686638984829187" lon="-5.812110984697938">
        <ele>17.920000000000002</ele>
        <time>2023-08-29T11:23:18Z</time>
      </trkpt>
      <trkpt lat="56.686630016192794" lon="-5.812288010492921">
        <ele>18.399999999999999</ele>
        <time>2023-08-29T11:23:19Z</time>
      </trkpt>
      <trkpt lat="56.68662398122251" lon="-5.812467969954014">
        <ele>18.399999999999999</ele>
        <time>2023-08-29T11:23:20Z</time>
      </trkpt>
      <trkpt lat="56.686654994264245" lon="-5.8126500248909">
        <ele>18.399999999999999</ele>
        <time>2023-08-29T11:23:21Z</time>
      </trkpt>
      <trkpt lat="56.686688018962741" lon="-5.812838030979037">
        <ele>18.879999999999999</ele>
        <time>2023-08-29T11:23:22Z</time>
      </trkpt>
      <trkpt lat="56.68672900646925" lon="-5.813356032595038">
        <ele>18.879999999999999</ele>
        <time>2023-08-29T11:23:25Z</time>
      </trkpt>
      <trkpt lat="56.686680978164077" lon="-5.813585026189685">
        <ele>18.879999999999999</ele>
        <time>2023-08-29T11:23:26Z</time>
      </trkpt>
      <trkpt lat="56.686642002314329" lon="-5.813772026449442">
        <ele>18.879999999999999</ele>
        <time>2023-08-29T11:23:27Z</time>
      </trkpt>
      <trkpt lat="56.686603026464581" lon="-5.813959026709199">
        <ele>18.879999999999999</ele>
        <time>2023-08-29T11:23:28Z</time>
      </trkpt>
      <trkpt lat="56.686562038958073" lon="-5.814158013090491">
        <ele>18.399999999999999</ele>
        <time>2023-08-29T11:23:29Z</time>
      </trkpt>
      <trkpt lat="56.6865140106529" lon="-5.814384995028377">
        <ele>18.879999999999999</ele>
        <time>2023-08-29T11:23:30Z</time>
      </trkpt>
      <trkpt lat="56.686458019539714" lon="-5.814531007781625">
        <ele>18.879999999999999</ele>
        <time>2023-08-29T11:23:31Z</time>
      </trkpt>
      <trkpt lat="56.686391970142722" lon="-5.814682971686125">
        <ele>19.359999999999999</ele>
        <time>2023-08-29T11:23:32Z</time>
      </trkpt>
      <trkpt lat="56.686297003179789" lon="-5.814801994711161">
        <ele>19.359999999999999</ele>
        <time>2023-08-29T11:23:33Z</time>
      </trkpt>
      <trkpt lat="56.68619298376143" lon="-5.814931998029351">
        <ele>19.84</ele>
        <time>2023-08-29T11:23:34Z</time>
      </trkpt>
      <trkpt lat="56.686092987656593" lon="-5.815109023824334">
        <ele>20.32</ele>
        <time>2023-08-29T11:23:35Z</time>
      </trkpt>
      <trkpt lat="56.68599902652204" lon="-5.815311027690768">
        <ele>20.809999999999999</ele>
        <time>2023-08-29T11:23:36Z</time>
      </trkpt>
      <trkpt lat="56.68554900214076" lon="-5.816507963463664">
        <ele>20.809999999999999</ele>
        <time>2023-08-29T11:23:42Z</time>
      </trkpt>
      <trkpt lat="56.685457974672318" lon="-5.816810969263315">
        <ele>21.77</ele>
        <time>2023-08-29T11:23:44Z</time>
      </trkpt>
      <trkpt lat="56.68542000465095" lon="-5.816938960924745">
        <ele>21.289999999999999</ele>
        <time>2023-08-29T11:23:45Z</time>
      </trkpt>
      <trkpt lat="56.68542000465095" lon="-5.817105006426573">
        <ele>20.809999999999999</ele>
        <time>2023-08-29T11:23:46Z</time>
      </trkpt>
      <trkpt lat="56.68542000465095" lon="-5.817279014736414">
        <ele>20.809999999999999</ele>
        <time>2023-08-29T11:23:47Z</time>
      </trkpt>
      <trkpt lat="56.68542000465095" lon="-5.817453023046255">
        <ele>20.32</ele>
        <time>2023-08-29T11:23:48Z</time>
      </trkpt>
      <trkpt lat="56.685383962467313" lon="-5.817612027749419">
        <ele>19.84</ele>
        <time>2023-08-29T11:23:49Z</time>
      </trkpt>
      <trkpt lat="56.685338029637933" lon="-5.817729961127043">
        <ele>19.84</ele>
        <time>2023-08-29T11:23:50Z</time>
      </trkpt>
      <trkpt lat="56.685272986069322" lon="-5.817839009687305">
        <ele>19.84</ele>
        <time>2023-08-29T11:23:51Z</time>
      </trkpt>
      <trkpt lat="56.685194028541446" lon="-5.817922996357083">
        <ele>20.32</ele>
        <time>2023-08-29T11:23:52Z</time>
      </trkpt>
      <trkpt lat="56.685115993022919" lon="-5.818005977198482">
        <ele>20.32</ele>
        <time>2023-08-29T11:23:53Z</time>
      </trkpt>
      <trkpt lat="56.685026977211237" lon="-5.818102033808827">
        <ele>20.809999999999999</ele>
        <time>2023-08-29T11:23:54Z</time>
      </trkpt>
      <trkpt lat="56.684908960014582" lon="-5.818180991336703">
        <ele>20.32</ele>
        <time>2023-08-29T11:23:55Z</time>
      </trkpt>
      <trkpt lat="56.684777028858662" lon="-5.818247040733695">
        <ele>19.84</ele>
        <time>2023-08-29T11:23:56Z</time>
      </trkpt>
      <trkpt lat="56.684304038062692" lon="-5.818483997136354">
        <ele>19.359999999999999</ele>
        <time>2023-08-29T11:24:00Z</time>
      </trkpt>
      <trkpt lat="56.6842379886657" lon="-5.818578964099288">
        <ele>19.84</ele>
        <time>2023-08-29T11:24:01Z</time>
      </trkpt>
      <trkpt lat="56.68417202308774" lon="-5.818674014881253">
        <ele>19.84</ele>
        <time>2023-08-29T11:24:02Z</time>
      </trkpt>
      <trkpt lat="56.684109997004271" lon="-5.818765964359045">
        <ele>20.32</ele>
        <time>2023-08-29T11:24:03Z</time>
      </trkpt>
      <trkpt lat="56.68408895842731" lon="-5.818912982940674">
        <ele>19.84</ele>
        <time>2023-08-29T11:24:04Z</time>
      </trkpt>
      <trkpt lat="56.684099016711116" lon="-5.819038962945342">
        <ele>19.84</ele>
        <time>2023-08-29T11:24:05Z</time>
      </trkpt>
      <trkpt lat="56.684111002832651" lon="-5.819192016497254">
        <ele>20.32</ele>
        <time>2023-08-29T11:24:06Z</time>
      </trkpt>
      <trkpt lat="56.684157019481063" lon="-5.819292012602091">
        <ele>20.32</ele>
        <time>2023-08-29T11:24:07Z</time>
      </trkpt>
      <trkpt lat="56.684216028079391" lon="-5.819421010091901">
        <ele>20.809999999999999</ele>
        <time>2023-08-29T11:24:08Z</time>
      </trkpt>
      <trkpt lat="56.684278976172209" lon="-5.819559982046485">
        <ele>20.809999999999999</ele>
        <time>2023-08-29T11:24:09Z</time>
      </trkpt>
      <trkpt lat="56.684471005573869" lon="-5.820029033347964">
        <ele>21.289999999999999</ele>
        <time>2023-08-29T11:24:12Z</time>
      </trkpt>
      <trkpt lat="56.684507969766855" lon="-5.82021301612258">
        <ele>21.289999999999999</ele>
        <time>2023-08-29T11:24:13Z</time>
      </trkpt>
      <trkpt lat="56.684544011950493" lon="-5.820389958098531">
        <ele>21.289999999999999</ele>
        <time>2023-08-29T11:24:14Z</time>
      </trkpt>
      <trkpt lat="56.684554992243648" lon="-5.820543011650443">
        <ele>20.809999999999999</ele>
        <time>2023-08-29T11:24:15Z</time>
      </trkpt>
      <trkpt lat="56.684539988636971" lon="-5.820690030232072">
        <ele>21.289999999999999</ele>
        <time>2023-08-29T11:24:16Z</time>
      </trkpt>
      <trkpt lat="56.684524985030293" lon="-5.820842999964953">
        <ele>21.289999999999999</ele>
        <time>2023-08-29T11:24:17Z</time>
      </trkpt>
      <trkpt lat="56.684509981423616" lon="-5.820995969697833">
        <ele>21.289999999999999</ele>
        <time>2023-08-29T11:24:18Z</time>
      </trkpt>
      <trkpt lat="56.684483997523785" lon="-5.821155980229378">
        <ele>21.289999999999999</ele>
        <time>2023-08-29T11:24:19Z</time>
      </trkpt>
      <trkpt lat="56.684423983097076" lon="-5.821313979104161">
        <ele>21.289999999999999</ele>
        <time>2023-08-29T11:24:20Z</time>
      </trkpt>
      <trkpt lat="56.684360029175878" lon="-5.821478012949228">
        <ele>21.77</ele>
        <time>2023-08-29T11:24:21Z</time>
      </trkpt>
      <trkpt lat="56.684296997264028" lon="-5.821640035137534">
        <ele>21.77</ele>
        <time>2023-08-29T11:24:22Z</time>
      </trkpt>
      <trkpt lat="56.684235977008939" lon="-5.821799039840698">
        <ele>21.77</ele>
        <time>2023-08-29T11:24:23Z</time>
      </trkpt>
      <trkpt lat="56.684175962582231" lon="-5.821955027058721">
        <ele>21.77</ele>
        <time>2023-08-29T11:24:24Z</time>
      </trkpt>
      <trkpt lat="56.68412902392447" lon="-5.822085030376911">
        <ele>22.25</ele>
        <time>2023-08-29T11:24:25Z</time>
      </trkpt>
      <trkpt lat="56.684103962033987" lon="-5.822213022038341">
        <ele>22.25</ele>
        <time>2023-08-29T11:24:26Z</time>
      </trkpt>
      <trkpt lat="56.684087030589581" lon="-5.822302037850022">
        <ele>22.25</ele>
        <time>2023-08-29T11:24:27Z</time>
      </trkpt>
      <trkpt lat="56.684087030589581" lon="-5.822302037850022">
        <ele>22.25</ele>
        <time>2023-08-29T11:24:28Z</time>
      </trkpt>
      <trkpt lat="56.684087030589581" lon="-5.822302037850022">
        <ele>22.25</ele>
        <time>2023-08-29T11:24:42Z</time>
      </trkpt>
      <trkpt lat="56.684013018384576" lon="-5.822679977864027">
        <ele>22.73</ele>
        <time>2023-08-29T11:24:47Z</time>
      </trkpt>
      <trkpt lat="56.683990973979235" lon="-5.822795983403921">
        <ele>22.73</ele>
        <time>2023-08-29T11:24:48Z</time>
      </trkpt>
      <trkpt lat="56.683985022827983" lon="-5.82294300198555">
        <ele>22.25</ele>
        <time>2023-08-29T11:24:49Z</time>
      </trkpt>
      <trkpt lat="56.683989968150854" lon="-5.823079962283373">
        <ele>21.77</ele>
        <time>2023-08-29T11:24:50Z</time>
      </trkpt>
      <trkpt lat="56.683993991464376" lon="-5.823227986693382">
        <ele>21.289999999999999</ele>
        <time>2023-08-29T11:24:51Z</time>
      </trkpt>
      <trkpt lat="56.683999020606279" lon="-5.823395038023591">
        <ele>20.809999999999999</ele>
        <time>2023-08-29T11:24:52Z</time>
      </trkpt>
      <trkpt lat="56.683996003121138" lon="-5.82356602884829">
        <ele>20.32</ele>
        <time>2023-08-29T11:24:53Z</time>
      </trkpt>
      <trkpt lat="56.683968007564545" lon="-5.823729978874326">
        <ele>20.32</ele>
        <time>2023-08-29T11:24:54Z</time>
      </trkpt>
      <trkpt lat="56.683933977037668" lon="-5.823901975527406">
        <ele>19.84</ele>
        <time>2023-08-29T11:24:55Z</time>
      </trkpt>
      <trkpt lat="56.683870023116469" lon="-5.82403901964426">
        <ele>19.359999999999999</ele>
        <time>2023-08-29T11:24:56Z</time>
      </trkpt>
      <trkpt lat="56.683804979547858" lon="-5.824180003255606">
        <ele>19.359999999999999</ele>
        <time>2023-08-29T11:24:57Z</time>
      </trkpt>
      <trkpt lat="56.683735996484756" lon="-5.824326016008854">
        <ele>18.879999999999999</ele>
        <time>2023-08-29T11:24:58Z</time>
      </trkpt>
      <trkpt lat="56.683205002918839" lon="-5.825555976480246">
        <ele>17.920000000000002</ele>
        <time>2023-08-29T11:25:06Z</time>
      </trkpt>
      <trkpt lat="56.683151023462415" lon="-5.825723027810454">
        <ele>17.440000000000001</ele>
        <time>2023-08-29T11:25:07Z</time>
      </trkpt>
      <trkpt lat="56.682860003784299" lon="-5.827101012691855">
        <ele>15.039999999999999</ele>
        <time>2023-08-29T11:25:14Z</time>
      </trkpt>
      <trkpt lat="56.682752966880798" lon="-5.827557994052768">
        <ele>14.56</ele>
        <time>2023-08-29T11:25:17Z</time>
      </trkpt>
      <trkpt lat="56.682716002687812" lon="-5.827710963785648">
        <ele>14.08</ele>
        <time>2023-08-29T11:25:18Z</time>
      </trkpt>
      <trkpt lat="56.682650037109852" lon="-5.82779604010284">
        <ele>14.08</ele>
        <time>2023-08-29T11:25:19Z</time>
      </trkpt>
      <trkpt lat="56.682567978277802" lon="-5.827902993187308">
        <ele>14.08</ele>
        <time>2023-08-29T11:25:20Z</time>
      </trkpt>
      <trkpt lat="56.682437974959612" lon="-5.827993014827371">
        <ele>14.56</ele>
        <time>2023-08-29T11:25:21Z</time>
      </trkpt>
      <trkpt lat="56.682321969419718" lon="-5.827999971807003">
        <ele>15.52</ele>
        <time>2023-08-29T11:25:22Z</time>
      </trkpt>
      <trkpt lat="56.681951992213726" lon="-5.828021010383964">
        <ele>17.920000000000002</ele>
        <time>2023-08-29T11:25:25Z</time>
      </trkpt>
      <trkpt lat="56.681817965582013" lon="-5.828028973191977">
        <ele>18.399999999999999</ele>
        <time>2023-08-29T11:25:26Z</time>
      </trkpt>
      <trkpt lat="56.681427033618093" lon="-5.828052023425698">
        <ele>20.32</ele>
        <time>2023-08-29T11:25:29Z</time>
      </trkpt>
      <trkpt lat="56.681322008371353" lon="-5.82805797457695">
        <ele>20.809999999999999</ele>
        <time>2023-08-29T11:25:30Z</time>
      </trkpt>
      <trkpt lat="56.681222012266517" lon="-5.828064009547234">
        <ele>21.77</ele>
        <time>2023-08-29T11:25:31Z</time>
      </trkpt>
      <trkpt lat="56.681127967312932" lon="-5.828069038689137">
        <ele>22.73</ele>
        <time>2023-08-29T11:25:32Z</time>
      </trkpt>
      <trkpt lat="56.681021014228463" lon="-5.828074989840388">
        <ele>23.690000000000001</ele>
        <time>2023-08-29T11:25:33Z</time>
      </trkpt>
      <trkpt lat="56.680953036993742" lon="-5.82816299982369">
        <ele>24.170000000000002</ele>
        <time>2023-08-29T11:25:34Z</time>
      </trkpt>
      <trkpt lat="56.680867960676551" lon="-5.828274982050061">
        <ele>25.129999999999999</ele>
        <time>2023-08-29T11:25:35Z</time>
      </trkpt>
      <trkpt lat="56.680796965956688" lon="-5.828429041430354">
        <ele>26.09</ele>
        <time>2023-08-29T11:25:36Z</time>
      </trkpt>
      <trkpt lat="56.680723959580064" lon="-5.828639008104801">
        <ele>26.57</ele>
        <time>2023-08-29T11:25:37Z</time>
      </trkpt>
      <trkpt lat="56.680678026750684" lon="-5.828866995871067">
        <ele>27.050000000000001</ele>
        <time>2023-08-29T11:25:38Z</time>
      </trkpt>
      <trkpt lat="56.680633015930653" lon="-5.829093977808952">
        <ele>27.530000000000001</ele>
        <time>2023-08-29T11:25:39Z</time>
      </trkpt>
      <trkpt lat="56.680592028424144" lon="-5.829298999160528">
        <ele>28.02</ele>
        <time>2023-08-29T11:25:40Z</time>
      </trkpt>
      <trkpt lat="56.680592028424144" lon="-5.829559005796909">
        <ele>28.02</ele>
        <time>2023-08-29T11:25:41Z</time>
      </trkpt>
      <trkpt lat="56.680592028424144" lon="-5.829796968027949">
        <ele>28.02</ele>
        <time>2023-08-29T11:25:42Z</time>
      </trkpt>
      <trkpt lat="56.680592028424144" lon="-5.830545974895358">
        <ele>28.5</ele>
        <time>2023-08-29T11:25:45Z</time>
      </trkpt>
      <trkpt lat="56.680571995675564" lon="-5.830795001238585">
        <ele>28.98</ele>
        <time>2023-08-29T11:25:46Z</time>
      </trkpt>
      <trkpt lat="56.680533019825816" lon="-5.831040004268289">
        <ele>29.460000000000001</ele>
        <time>2023-08-29T11:25:47Z</time>
      </trkpt>
      <trkpt lat="56.680479040369391" lon="-5.831266986206174">
        <ele>30.420000000000002</ele>
        <time>2023-08-29T11:25:48Z</time>
      </trkpt>
      <trkpt lat="56.680409973487258" lon="-5.831420039758086">
        <ele>30.899999999999999</ele>
        <time>2023-08-29T11:25:49Z</time>
      </trkpt>
      <trkpt lat="56.680346019566059" lon="-5.831561023369432">
        <ele>31.859999999999999</ele>
        <time>2023-08-29T11:25:50Z</time>
      </trkpt>
      <trkpt lat="56.680278964340687" lon="-5.831699995324016">
        <ele>33.299999999999997</ele>
        <time>2023-08-29T11:25:51Z</time>
      </trkpt>
      <trkpt lat="56.680200006812811" lon="-5.831826981157064">
        <ele>34.259999999999998</ele>
        <time>2023-08-29T11:25:52Z</time>
      </trkpt>
      <trkpt lat="56.680108979344368" lon="-5.831973999738693">
        <ele>35.229999999999997</ele>
        <time>2023-08-29T11:25:53Z</time>
      </trkpt>
      <trkpt lat="56.679608998820186" lon="-5.832776986062527">
        <ele>42.920000000000002</ele>
        <time>2023-08-29T11:25:59Z</time>
      </trkpt>
      <trkpt lat="56.679570022970438" lon="-5.832859966903925">
        <ele>43.880000000000003</ele>
        <time>2023-08-29T11:26:00Z</time>
      </trkpt>
      <trkpt lat="56.679518977180123" lon="-5.833031963557005">
        <ele>44.840000000000003</ele>
        <time>2023-08-29T11:26:01Z</time>
      </trkpt>
      <trkpt lat="56.679516965523362" lon="-5.833117961883545">
        <ele>45.799999999999997</ele>
        <time>2023-08-29T11:26:02Z</time>
      </trkpt>
      <trkpt lat="56.679513026028872" lon="-5.833293981850147">
        <ele>46.759999999999998</ele>
        <time>2023-08-29T11:26:03Z</time>
      </trkpt>
      <trkpt lat="56.679501961916685" lon="-5.833850037306547">
        <ele>50.130000000000003</ele>
        <time>2023-08-29T11:26:06Z</time>
      </trkpt>
      <trkpt lat="56.679498022422194" lon="-5.83400602452457">
        <ele>51.090000000000003</ele>
        <time>2023-08-29T11:26:07Z</time>
      </trkpt>
      <trkpt lat="56.67944697663188" lon="-5.834140973165631">
        <ele>51.57</ele>
        <time>2023-08-29T11:26:08Z</time>
      </trkpt>
      <trkpt lat="56.6793820168823" lon="-5.834270976483822">
        <ele>52.049999999999997</ele>
        <time>2023-08-29T11:26:09Z</time>
      </trkpt>
      <trkpt lat="56.679304987192154" lon="-5.834401985630393">
        <ele>53.009999999999998</ele>
        <time>2023-08-29T11:26:10Z</time>
      </trkpt>
      <trkpt lat="56.679214965552092" lon="-5.834530983120203">
        <ele>53.969999999999999</ele>
        <time>2023-08-29T11:26:11Z</time>
      </trkpt>
      <trkpt lat="56.678855968639255" lon="-5.835087038576603">
        <ele>58.299999999999997</ele>
        <time>2023-08-29T11:26:15Z</time>
      </trkpt>
      <trkpt lat="56.678788997232914" lon="-5.835199020802975">
        <ele>59.259999999999998</ele>
        <time>2023-08-29T11:26:16Z</time>
      </trkpt>
      <trkpt lat="56.678742980584502" lon="-5.835367999970913">
        <ele>60.219999999999999</ele>
        <time>2023-08-29T11:26:17Z</time>
      </trkpt>
      <trkpt lat="56.6786930244416" lon="-5.835552988573909">
        <ele>61.18</ele>
        <time>2023-08-29T11:26:18Z</time>
      </trkpt>
      <trkpt lat="56.678649019449949" lon="-5.835758009925485">
        <ele>61.659999999999997</ele>
        <time>2023-08-29T11:26:19Z</time>
      </trkpt>
      <trkpt lat="56.678617000579834" lon="-5.835992032662034">
        <ele>61.659999999999997</ele>
        <time>2023-08-29T11:26:20Z</time>
      </trkpt>
      <trkpt lat="56.678583975881338" lon="-5.836235024034977">
        <ele>61.659999999999997</ele>
        <time>2023-08-29T11:26:21Z</time>
      </trkpt>
      <trkpt lat="56.678470987826586" lon="-5.837056031450629">
        <ele>61.659999999999997</ele>
        <time>2023-08-29T11:26:24Z</time>
      </trkpt>
      <trkpt lat="56.678396975621581" lon="-5.837599011138082">
        <ele>61.659999999999997</ele>
        <time>2023-08-29T11:26:26Z</time>
      </trkpt>
      <trkpt lat="56.67839303612709" lon="-5.837845019996166">
        <ele>62.140000000000001</ele>
        <time>2023-08-29T11:26:27Z</time>
      </trkpt>
      <trkpt lat="56.678411979228258" lon="-5.838056998327375">
        <ele>62.619999999999997</ele>
        <time>2023-08-29T11:26:28Z</time>
      </trkpt>
      <trkpt lat="56.678430000320077" lon="-5.838247016072273">
        <ele>63.100000000000001</ele>
        <time>2023-08-29T11:26:29Z</time>
      </trkpt>
      <trkpt lat="56.678453972563148" lon="-5.838432004675269">
        <ele>63.579999999999998</ele>
        <time>2023-08-29T11:26:30Z</time>
      </trkpt>
      <trkpt lat="56.678480040282011" lon="-5.838633002713323">
        <ele>64.069999999999993</ele>
        <time>2023-08-29T11:26:31Z</time>
      </trkpt>
      <trkpt lat="56.678508035838604" lon="-5.838854033499956">
        <ele>64.069999999999993</ele>
        <time>2023-08-29T11:26:32Z</time>
      </trkpt>
      <trkpt lat="56.678548017516732" lon="-5.840139985084534">
        <ele>65.989999999999995</ele>
        <time>2023-08-29T11:26:38Z</time>
      </trkpt>
      <trkpt lat="56.678523039445281" lon="-5.840515997260809">
        <ele>65.989999999999995</ele>
        <time>2023-08-29T11:26:40Z</time>
      </trkpt>
      <trkpt lat="56.678494038060308" lon="-5.840714983642101">
        <ele>65.989999999999995</ele>
        <time>2023-08-29T11:26:41Z</time>
      </trkpt>
      <trkpt lat="56.678464030846953" lon="-5.840918999165297">
        <ele>65.989999999999995</ele>
        <time>2023-08-29T11:26:42Z</time>
      </trkpt>
      <trkpt lat="56.67843502946198" lon="-5.841117985546589">
        <ele>65.989999999999995</ele>
        <time>2023-08-29T11:26:43Z</time>
      </trkpt>
      <trkpt lat="56.678406028077006" lon="-5.841316971927881">
        <ele>65.989999999999995</ele>
        <time>2023-08-29T11:26:44Z</time>
      </trkpt>
      <trkpt lat="56.678381972014904" lon="-5.841487040743232">
        <ele>65.989999999999995</ele>
        <time>2023-08-29T11:26:45Z</time>
      </trkpt>
      <trkpt lat="56.678396975621581" lon="-5.841665994375944">
        <ele>65.510000000000005</ele>
        <time>2023-08-29T11:26:46Z</time>
      </trkpt>
      <trkpt lat="56.678531002253294" lon="-5.843284958973527">
        <ele>65.510000000000005</ele>
        <time>2023-08-29T11:26:53Z</time>
      </trkpt>
      <trkpt lat="56.678512981161475" lon="-5.843531973659992">
        <ele>65.510000000000005</ele>
        <time>2023-08-29T11:26:54Z</time>
      </trkpt>
      <trkpt lat="56.678472999483347" lon="-5.844028014689684">
        <ele>65.510000000000005</ele>
        <time>2023-08-29T11:26:56Z</time>
      </trkpt>
      <trkpt lat="56.678388006985188" lon="-5.845307009294629">
        <ele>66.469999999999999</ele>
        <time>2023-08-29T11:27:01Z</time>
      </trkpt>
      <trkpt lat="56.678399993106723" lon="-5.845548994839191">
        <ele>67.430000000000007</ele>
        <time>2023-08-29T11:27:02Z</time>
      </trkpt>
      <trkpt lat="56.67843796312809" lon="-5.845771031454206">
        <ele>68.390000000000001</ele>
        <time>2023-08-29T11:27:03Z</time>
      </trkpt>
      <trkpt lat="56.678488003090024" lon="-5.846003964543343">
        <ele>69.349999999999994</ele>
        <time>2023-08-29T11:27:04Z</time>
      </trkpt>
      <trkpt lat="56.678539970889688" lon="-5.846249973401427">
        <ele>70.310000000000002</ele>
        <time>2023-08-29T11:27:05Z</time>
      </trkpt>
      <trkpt lat="56.679078005254269" lon="-5.849168971180916">
        <ele>79.930000000000007</ele>
        <time>2023-08-29T11:27:16Z</time>
      </trkpt>
      <trkpt lat="56.679578991606832" lon="-5.852462975308299">
        <ele>71.269999999999996</ele>
        <time>2023-08-29T11:27:27Z</time>
      </trkpt>
      <trkpt lat="56.679628025740385" lon="-5.853067981079221">
        <ele>68.390000000000001</ele>
        <time>2023-08-29T11:27:29Z</time>
      </trkpt>
      <trkpt lat="56.679809996858239" lon="-5.855163037776947">
        <ele>55.890000000000001</ele>
        <time>2023-08-29T11:27:37Z</time>
      </trkpt>
      <trkpt lat="56.679891971871257" lon="-5.855603003874421">
        <ele>52.530000000000001</ele>
        <time>2023-08-29T11:27:39Z</time>
      </trkpt>
      <trkpt lat="56.67996296659112" lon="-5.855796039104462">
        <ele>51.090000000000003</ele>
        <time>2023-08-29T11:27:40Z</time>
      </trkpt>
      <trkpt lat="56.680033961310983" lon="-5.855989996343851">
        <ele>49.649999999999999</ele>
        <time>2023-08-29T11:27:41Z</time>
      </trkpt>
      <trkpt lat="56.680107973515987" lon="-5.856193006038666">
        <ele>48.200000000000003</ele>
        <time>2023-08-29T11:27:42Z</time>
      </trkpt>
      <trkpt lat="56.680183997377753" lon="-5.856400039047003">
        <ele>46.280000000000001</ele>
        <time>2023-08-29T11:27:43Z</time>
      </trkpt>
      <trkpt lat="56.680278964340687" lon="-5.856581004336476">
        <ele>44.840000000000003</ele>
        <time>2023-08-29T11:27:44Z</time>
      </trkpt>
      <trkpt lat="56.68075799010694" lon="-5.857493039220572">
        <ele>38.590000000000003</ele>
        <time>2023-08-29T11:27:49Z</time>
      </trkpt>
      <trkpt lat="56.680849017575383" lon="-5.857666041702032">
        <ele>37.149999999999999</ele>
        <time>2023-08-29T11:27:50Z</time>
      </trkpt>
      <trkpt lat="56.680924035608768" lon="-5.858023026958108">
        <ele>35.229999999999997</ele>
        <time>2023-08-29T11:27:52Z</time>
      </trkpt>
      <trkpt lat="56.681156968697906" lon="-5.859143016859889">
        <ele>30.899999999999999</ele>
        <time>2023-08-29T11:27:58Z</time>
      </trkpt>
      <trkpt lat="56.681198962032795" lon="-5.859349966049194">
        <ele>29.940000000000001</ele>
        <time>2023-08-29T11:27:59Z</time>
      </trkpt>
      <trkpt lat="56.681283032521605" lon="-5.859751962125301">
        <ele>28.98</ele>
        <time>2023-08-29T11:28:01Z</time>
      </trkpt>
      <trkpt lat="56.681740013882518" lon="-5.861042020842433">
        <ele>28.02</ele>
        <time>2023-08-29T11:28:08Z</time>
      </trkpt>
      <trkpt lat="56.68176700361073" lon="-5.861245030537248">
        <ele>28.02</ele>
        <time>2023-08-29T11:28:09Z</time>
      </trkpt>
      <trkpt lat="56.681787958368659" lon="-5.861452985554934">
        <ele>28.02</ele>
        <time>2023-08-29T11:28:10Z</time>
      </trkpt>
      <trkpt lat="56.68180899694562" lon="-5.861662030220032">
        <ele>27.530000000000001</ele>
        <time>2023-08-29T11:28:11Z</time>
      </trkpt>
      <trkpt lat="56.681826012209058" lon="-5.861885994672775">
        <ele>27.050000000000001</ele>
        <time>2023-08-29T11:28:12Z</time>
      </trkpt>
      <trkpt lat="56.681843027472496" lon="-5.862115994095802">
        <ele>26.57</ele>
        <time>2023-08-29T11:28:13Z</time>
      </trkpt>
      <trkpt lat="56.681859036907554" lon="-5.862343981862068">
        <ele>26.57</ele>
        <time>2023-08-29T11:28:14Z</time>
      </trkpt>
      <trkpt lat="56.68198199942708" lon="-5.86408699862659">
        <ele>25.129999999999999</ele>
        <time>2023-08-29T11:28:23Z</time>
      </trkpt>
      <trkpt lat="56.681962972506881" lon="-5.864256983622909">
        <ele>25.129999999999999</ele>
        <time>2023-08-29T11:28:24Z</time>
      </trkpt>
      <trkpt lat="56.681931037455797" lon="-5.864413976669312">
        <ele>24.649999999999999</ele>
        <time>2023-08-29T11:28:25Z</time>
      </trkpt>
      <trkpt lat="56.681897006928921" lon="-5.86458002217114">
        <ele>24.170000000000002</ele>
        <time>2023-08-29T11:28:26Z</time>
      </trkpt>
      <trkpt lat="56.681859958916903" lon="-5.864756964147091">
        <ele>24.170000000000002</ele>
        <time>2023-08-29T11:28:27Z</time>
      </trkpt>
      <trkpt lat="56.681822994723916" lon="-5.864937007427216">
        <ele>23.690000000000001</ele>
        <time>2023-08-29T11:28:28Z</time>
      </trkpt>
      <trkpt lat="56.681784018874168" lon="-5.865129036828876">
        <ele>23.210000000000001</ele>
        <time>2023-08-29T11:28:29Z</time>
      </trkpt>
      <trkpt lat="56.68174303136766" lon="-5.865325005725026">
        <ele>22.73</ele>
        <time>2023-08-29T11:28:30Z</time>
      </trkpt>
      <trkpt lat="56.681584026664495" lon="-5.866010980680585">
        <ele>19.84</ele>
        <time>2023-08-29T11:28:34Z</time>
      </trkpt>
      <trkpt lat="56.681535998359323" lon="-5.866130003705621">
        <ele>19.359999999999999</ele>
        <time>2023-08-29T11:28:35Z</time>
      </trkpt>
      <trkpt lat="56.681482018902898" lon="-5.866265958175063">
        <ele>18.879999999999999</ele>
        <time>2023-08-29T11:28:36Z</time>
      </trkpt>
      <trkpt lat="56.681415969505906" lon="-5.866419011726975">
        <ele>17.920000000000002</ele>
        <time>2023-08-29T11:28:37Z</time>
      </trkpt>
      <trkpt lat="56.681333994492888" lon="-5.866547003388405">
        <ele>17.440000000000001</ele>
        <time>2023-08-29T11:28:38Z</time>
      </trkpt>
      <trkpt lat="56.680596973747015" lon="-5.867677973583341">
        <ele>15.039999999999999</ele>
        <time>2023-08-29T11:28:46Z</time>
      </trkpt>
      <trkpt lat="56.680445009842515" lon="-5.867922976613045">
        <ele>15.039999999999999</ele>
        <time>2023-08-29T11:28:48Z</time>
      </trkpt>
      <trkpt lat="56.680379966273904" lon="-5.868078041821718">
        <ele>15.039999999999999</ele>
        <time>2023-08-29T11:28:49Z</time>
      </trkpt>
      <trkpt lat="56.680149966850877" lon="-5.86866301484406">
        <ele>15.52</ele>
        <time>2023-08-29T11:28:52Z</time>
      </trkpt>
      <trkpt lat="56.680066986009479" lon="-5.868886979296804">
        <ele>15.52</ele>
        <time>2023-08-29T11:28:53Z</time>
      </trkpt>
      <trkpt lat="56.679673036560416" lon="-5.869959024712443">
        <ele>14.56</ele>
        <time>2023-08-29T11:28:58Z</time>
      </trkpt>
      <trkpt lat="56.679600030183792" lon="-5.870157005265355">
        <ele>14.56</ele>
        <time>2023-08-29T11:28:59Z</time>
      </trkpt>
      <trkpt lat="56.679520988836884" lon="-5.870351968333125">
        <ele>14.56</ele>
        <time>2023-08-29T11:29:00Z</time>
      </trkpt>
      <trkpt lat="56.679137013852596" lon="-5.871212035417557">
        <ele>15.039999999999999</ele>
        <time>2023-08-29T11:29:05Z</time>
      </trkpt>
      <trkpt lat="56.678948001936078" lon="-5.87147799320519">
        <ele>16</ele>
        <time>2023-08-29T11:29:07Z</time>
      </trkpt>
      <trkpt lat="56.678409967571497" lon="-5.872386004775763">
        <ele>16.48</ele>
        <time>2023-08-29T11:29:13Z</time>
      </trkpt>
      <trkpt lat="56.678313994780183" lon="-5.872481977567077">
        <ele>16.48</ele>
        <time>2023-08-29T11:29:14Z</time>
      </trkpt>
      <trkpt lat="56.677729021757841" lon="-5.872757993638516">
        <ele>14.08</ele>
        <time>2023-08-29T11:29:19Z</time>
      </trkpt>
      <trkpt lat="56.677609998732805" lon="-5.872813984751701">
        <ele>13.6</ele>
        <time>2023-08-29T11:29:20Z</time>
      </trkpt>
      <trkpt lat="56.677522994577885" lon="-5.872910963371396">
        <ele>12.630000000000001</ele>
        <time>2023-08-29T11:29:21Z</time>
      </trkpt>
      <trkpt lat="56.677430039271712" lon="-5.873013976961374">
        <ele>12.630000000000001</ele>
        <time>2023-08-29T11:29:22Z</time>
      </trkpt>
      <trkpt lat="56.677371030673385" lon="-5.873145991936326">
        <ele>12.15</ele>
        <time>2023-08-29T11:29:23Z</time>
      </trkpt>
      <trkpt lat="56.677309004589915" lon="-5.873308014124632">
        <ele>11.19</ele>
        <time>2023-08-29T11:29:24Z</time>
      </trkpt>
      <trkpt lat="56.677285032346845" lon="-5.873472969979048">
        <ele>10.710000000000001</ele>
        <time>2023-08-29T11:29:25Z</time>
      </trkpt>
      <trkpt lat="56.677256030961871" lon="-5.873681008815765">
        <ele>10.23</ele>
        <time>2023-08-29T11:29:26Z</time>
      </trkpt>
      <trkpt lat="56.677223006263375" lon="-5.873908996582031">
        <ele>9.27</ele>
        <time>2023-08-29T11:29:27Z</time>
      </trkpt>
      <trkpt lat="56.677230969071388" lon="-5.874108988791704">
        <ele>8.310000000000001</ele>
        <time>2023-08-29T11:29:28Z</time>
      </trkpt>
      <trkpt lat="56.677241027355194" lon="-5.874329013749957">
        <ele>7.83</ele>
        <time>2023-08-29T11:29:29Z</time>
      </trkpt>
      <trkpt lat="56.677249995991588" lon="-5.87454903870821">
        <ele>6.87</ele>
        <time>2023-08-29T11:29:30Z</time>
      </trkpt>
      <trkpt lat="56.677259970456362" lon="-5.874775014817715">
        <ele>5.91</ele>
        <time>2023-08-29T11:29:31Z</time>
      </trkpt>
      <trkpt lat="56.677286960184574" lon="-5.875009959563613">
        <ele>5.42</ele>
        <time>2023-08-29T11:29:32Z</time>
      </trkpt>
      <trkpt lat="56.677333982661366" lon="-5.875206012278795">
        <ele>4.94</ele>
        <time>2023-08-29T11:29:33Z</time>
      </trkpt>
      <trkpt lat="56.677401037886739" lon="-5.875385971739888">
        <ele>4.46</ele>
        <time>2023-08-29T11:29:34Z</time>
      </trkpt>
      <trkpt lat="56.677477983757854" lon="-5.875550005584955">
        <ele>3.98</ele>
        <time>2023-08-29T11:29:35Z</time>
      </trkpt>
      <trkpt lat="56.677557025104761" lon="-5.875716973096132">
        <ele>3.02</ele>
        <time>2023-08-29T11:29:36Z</time>
      </trkpt>
      <trkpt lat="56.677632965147495" lon="-5.875877989456058">
        <ele>2.54</ele>
        <time>2023-08-29T11:29:37Z</time>
      </trkpt>
      <trkpt lat="56.677703959867358" lon="-5.876029031351209">
        <ele>2.06</ele>
        <time>2023-08-29T11:29:38Z</time>
      </trkpt>
      <trkpt lat="56.677723992615938" lon="-5.876201028004289">
        <ele>2.06</ele>
        <time>2023-08-29T11:29:39Z</time>
      </trkpt>
      <trkpt lat="56.677734972909093" lon="-5.876392973586917">
        <ele>2.06</ele>
        <time>2023-08-29T11:29:40Z</time>
      </trkpt>
      <trkpt lat="56.677734972909093" lon="-5.87659003213048">
        <ele>2.06</ele>
        <time>2023-08-29T11:29:41Z</time>
      </trkpt>
      <trkpt lat="56.677717035636306" lon="-5.877649001777172">
        <ele>2.06</ele>
        <time>2023-08-29T11:29:46Z</time>
      </trkpt>
      <trkpt lat="56.677746037021279" lon="-5.877818986773491">
        <ele>2.06</ele>
        <time>2023-08-29T11:29:47Z</time>
      </trkpt>
      <trkpt lat="56.677778977900743" lon="-5.877999030053616">
        <ele>2.54</ele>
        <time>2023-08-29T11:29:48Z</time>
      </trkpt>
      <trkpt lat="56.677814014256001" lon="-5.878186030313373">
        <ele>2.54</ele>
        <time>2023-08-29T11:29:49Z</time>
      </trkpt>
      <trkpt lat="56.677845027297735" lon="-5.878350986167789">
        <ele>2.54</ele>
        <time>2023-08-29T11:29:50Z</time>
      </trkpt>
      <trkpt lat="56.677861036732793" lon="-5.878598000854254">
        <ele>2.54</ele>
        <time>2023-08-29T11:29:51Z</time>
      </trkpt>
      <trkpt lat="56.677875034511089" lon="-5.878819031640887">
        <ele>2.54</ele>
        <time>2023-08-29T11:29:52Z</time>
      </trkpt>
      <trkpt lat="56.677889032289386" lon="-5.879036039113998">
        <ele>2.54</ele>
        <time>2023-08-29T11:29:53Z</time>
      </trkpt>
      <trkpt lat="56.677903030067682" lon="-5.879262015223503">
        <ele>3.02</ele>
        <time>2023-08-29T11:29:54Z</time>
      </trkpt>
      <trkpt lat="56.677909987047315" lon="-5.879481034353375">
        <ele>3.02</ele>
        <time>2023-08-29T11:29:55Z</time>
      </trkpt>
      <trkpt lat="56.677909987047315" lon="-5.879704998806119">
        <ele>3.02</ele>
        <time>2023-08-29T11:29:56Z</time>
      </trkpt>
      <trkpt lat="56.677957009524107" lon="-5.881451033055782">
        <ele>4.94</ele>
        <time>2023-08-29T11:30:04Z</time>
      </trkpt>
      <trkpt lat="56.677972013130784" lon="-5.881659993901849">
        <ele>4.94</ele>
        <time>2023-08-29T11:30:05Z</time>
      </trkpt>
      <trkpt lat="56.677988022565842" lon="-5.881871972233057">
        <ele>4.94</ele>
        <time>2023-08-29T11:30:06Z</time>
      </trkpt>
      <trkpt lat="56.678123977035284" lon="-5.883071003481746">
        <ele>4.94</ele>
        <time>2023-08-29T11:30:11Z</time>
      </trkpt>
      <trkpt lat="56.678112996742129" lon="-5.883302008733153">
        <ele>4.94</ele>
        <time>2023-08-29T11:30:12Z</time>
      </trkpt>
      <trkpt lat="56.678101010620594" lon="-5.883569978177548">
        <ele>4.94</ele>
        <time>2023-08-29T11:30:13Z</time>
      </trkpt>
      <trkpt lat="56.678088018670678" lon="-5.883840965107083">
        <ele>4.46</ele>
        <time>2023-08-29T11:30:14Z</time>
      </trkpt>
      <trkpt lat="56.678068991750479" lon="-5.884104995056987">
        <ele>4.46</ele>
        <time>2023-08-29T11:30:15Z</time>
      </trkpt>
      <trkpt lat="56.677908981218934" lon="-5.885617006570101">
        <ele>0.62</ele>
        <time>2023-08-29T11:30:22Z</time>
      </trkpt>
      <trkpt lat="56.677886014804244" lon="-5.885825967416167">
        <ele>0.14</ele>
        <time>2023-08-29T11:30:23Z</time>
      </trkpt>
      <trkpt lat="56.677583009004593" lon="-5.886869011446834">
        <ele>-3.23</ele>
        <time>2023-08-29T11:30:28Z</time>
      </trkpt>
      <trkpt lat="56.677516959607601" lon="-5.887095993384719">
        <ele>-4.19</ele>
        <time>2023-08-29T11:30:29Z</time>
      </trkpt>
      <trkpt lat="56.677386034280062" lon="-5.887646013870835">
        <ele>-7.55</ele>
        <time>2023-08-29T11:30:32Z</time>
      </trkpt>
      <trkpt lat="56.677347980439663" lon="-5.888041974976659">
        <ele>-9</ele>
        <time>2023-08-29T11:30:34Z</time>
      </trkpt>
      <trkpt lat="56.677344962954521" lon="-5.888283960521221">
        <ele>-9.48</ele>
        <time>2023-08-29T11:30:35Z</time>
      </trkpt>
      <trkpt lat="56.677341023460031" lon="-5.890915039926767">
        <ele>-8.51</ele>
        <time>2023-08-29T11:30:44Z</time>
      </trkpt>
      <trkpt lat="56.677343035116792" lon="-5.891229026019573">
        <ele>-8.51</ele>
        <time>2023-08-29T11:30:45Z</time>
      </trkpt>
      <trkpt lat="56.677352003753185" lon="-5.89380101300776">
        <ele>-8.029999999999999</ele>
        <time>2023-08-29T11:30:54Z</time>
      </trkpt>
      <trkpt lat="56.677330965176225" lon="-5.896221958100796">
        <ele>-6.59</ele>
        <time>2023-08-29T11:31:02Z</time>
      </trkpt>
      <trkpt lat="56.677314033731818" lon="-5.897895991802216">
        <ele>-3.71</ele>
        <time>2023-08-29T11:31:09Z</time>
      </trkpt>
      <trkpt lat="56.677355021238327" lon="-5.898899976164103">
        <ele>-2.75</ele>
        <time>2023-08-29T11:31:13Z</time>
      </trkpt>
      <trkpt lat="56.677377987653017" lon="-5.899154031649232">
        <ele>-2.75</ele>
        <time>2023-08-29T11:31:14Z</time>
      </trkpt>
      <trkpt lat="56.677532969042659" lon="-5.900618014857173">
        <ele>-5.63</ele>
        <time>2023-08-29T11:31:20Z</time>
      </trkpt>
      <trkpt lat="56.677589965984225" lon="-5.90080501511693">
        <ele>-6.11</ele>
        <time>2023-08-29T11:31:21Z</time>
      </trkpt>
      <trkpt lat="56.677646040916443" lon="-5.900988997891545">
        <ele>-6.59</ele>
        <time>2023-08-29T11:31:22Z</time>
      </trkpt>
      <trkpt lat="56.677712006494403" lon="-5.90110600925982">
        <ele>-6.11</ele>
        <time>2023-08-29T11:31:23Z</time>
      </trkpt>
      <trkpt lat="56.677778977900743" lon="-5.901212962344289">
        <ele>-5.63</ele>
        <time>2023-08-29T11:31:24Z</time>
      </trkpt>
      <trkpt lat="56.677842009812593" lon="-5.901313964277506">
        <ele>-5.63</ele>
        <time>2023-08-29T11:31:25Z</time>
      </trkpt>
      <trkpt lat="56.677901018410921" lon="-5.901365010067821">
        <ele>-6.11</ele>
        <time>2023-08-29T11:31:26Z</time>
      </trkpt>
      <trkpt lat="56.678004032000899" lon="-5.901399040594697">
        <ele>-6.11</ele>
        <time>2023-08-29T11:31:27Z</time>
      </trkpt>
      <trkpt lat="56.678119031712413" lon="-5.901437010616064">
        <ele>-6.11</ele>
        <time>2023-08-29T11:31:28Z</time>
      </trkpt>
      <trkpt lat="56.678241994231939" lon="-5.901477998122573">
        <ele>-5.63</ele>
        <time>2023-08-29T11:31:29Z</time>
      </trkpt>
      <trkpt lat="56.678503006696701" lon="-5.901586040854454">
        <ele>-5.63</ele>
        <time>2023-08-29T11:31:31Z</time>
      </trkpt>
      <trkpt lat="56.678624963387847" lon="-5.901670027524233">
        <ele>-5.63</ele>
        <time>2023-08-29T11:31:32Z</time>
      </trkpt>
      <trkpt lat="56.678753038868308" lon="-5.901787960901856">
        <ele>-5.63</ele>
        <time>2023-08-29T11:31:33Z</time>
      </trkpt>
      <trkpt lat="56.678851023316383" lon="-5.901955012232065">
        <ele>-5.63</ele>
        <time>2023-08-29T11:31:34Z</time>
      </trkpt>
      <trkpt lat="56.678950013592839" lon="-5.902123991400003">
        <ele>-5.15</ele>
        <time>2023-08-29T11:31:35Z</time>
      </trkpt>
      <trkpt lat="56.679044980555773" lon="-5.90228701941669">
        <ele>-5.15</ele>
        <time>2023-08-29T11:31:36Z</time>
      </trkpt>
      <trkpt lat="56.679129973053932" lon="-5.902431020513177">
        <ele>-4.19</ele>
        <time>2023-08-29T11:31:37Z</time>
      </trkpt>
      <trkpt lat="56.67921002022922" lon="-5.902568986639381">
        <ele>-4.19</ele>
        <time>2023-08-29T11:31:38Z</time>
      </trkpt>
      <trkpt lat="56.679702959954739" lon="-5.903159994632006">
        <ele>-1.79</ele>
        <time>2023-08-29T11:31:43Z</time>
      </trkpt>
      <trkpt lat="56.680103028193116" lon="-5.903858039528132">
        <ele>-0.82</ele>
        <time>2023-08-29T11:31:48Z</time>
      </trkpt>
      <trkpt lat="56.680220039561391" lon="-5.90415702201426">
        <ele>-0.34</ele>
        <time>2023-08-29T11:31:50Z</time>
      </trkpt>
      <trkpt lat="56.680254992097616" lon="-5.904296999797225">
        <ele>-0.34</ele>
        <time>2023-08-29T11:31:51Z</time>
      </trkpt>
      <trkpt lat="56.680255997925997" lon="-5.904454998672009">
        <ele>0.62</ele>
        <time>2023-08-29T11:31:52Z</time>
      </trkpt>
      <trkpt lat="56.680237976834178" lon="-5.904577961191535">
        <ele>1.58</ele>
        <time>2023-08-29T11:31:53Z</time>
      </trkpt>
      <trkpt lat="56.680195983499289" lon="-5.904701007530093">
        <ele>2.54</ele>
        <time>2023-08-29T11:31:54Z</time>
      </trkpt>
      <trkpt lat="56.680123982951045" lon="-5.90480100363493">
        <ele>3.02</ele>
        <time>2023-08-29T11:31:55Z</time>
      </trkpt>
      <trkpt lat="56.679885014891624" lon="-5.905194031074643">
        <ele>4.94</ele>
        <time>2023-08-29T11:31:58Z</time>
      </trkpt>
      <trkpt lat="56.679815026000142" lon="-5.905364016070962">
        <ele>4.94</ele>
        <time>2023-08-29T11:31:59Z</time>
      </trkpt>
      <trkpt lat="56.679518977180123" lon="-5.906073041260243">
        <ele>5.91</ele>
        <time>2023-08-29T11:32:03Z</time>
      </trkpt>
      <trkpt lat="56.679306998848915" lon="-5.906581990420818">
        <ele>5.91</ele>
        <time>2023-08-29T11:32:06Z</time>
      </trkpt>
      <trkpt lat="56.679241033270955" lon="-5.906740995123982">
        <ele>5.91</ele>
        <time>2023-08-29T11:32:07Z</time>
      </trkpt>
      <trkpt lat="56.67916601523757" lon="-5.906879967078567">
        <ele>5.91</ele>
        <time>2023-08-29T11:32:08Z</time>
      </trkpt>
      <trkpt lat="56.679079011082649" lon="-5.906977029517293">
        <ele>6.39</ele>
        <time>2023-08-29T11:32:09Z</time>
      </trkpt>
      <trkpt lat="56.678982032462955" lon="-5.907082976773381">
        <ele>6.39</ele>
        <time>2023-08-29T11:32:10Z</time>
      </trkpt>
      <trkpt lat="56.67869403026998" lon="-5.907275006175041">
        <ele>7.83</ele>
        <time>2023-08-29T11:32:13Z</time>
      </trkpt>
      <trkpt lat="56.678592022508383" lon="-5.907342983409762">
        <ele>8.310000000000001</ele>
        <time>2023-08-29T11:32:14Z</time>
      </trkpt>
      <trkpt lat="56.678492026403546" lon="-5.907409032806754">
        <ele>8.789999999999999</ele>
        <time>2023-08-29T11:32:15Z</time>
      </trkpt>
      <trkpt lat="56.678389012813568" lon="-5.907478015869856">
        <ele>9.27</ele>
        <time>2023-08-29T11:32:16Z</time>
      </trkpt>
      <trkpt lat="56.678282981738448" lon="-5.907549010589719">
        <ele>9.75</ele>
        <time>2023-08-29T11:32:17Z</time>
      </trkpt>
      <trkpt lat="56.678000008687377" lon="-5.907776998355985">
        <ele>13.119999999999999</ele>
        <time>2023-08-29T11:32:20Z</time>
      </trkpt>
      <trkpt lat="56.67774997651577" lon="-5.908051002770662">
        <ele>16.960000000000001</ele>
        <time>2023-08-29T11:32:23Z</time>
      </trkpt>
      <trkpt lat="56.677666995674372" lon="-5.908193998038769">
        <ele>17.920000000000002</ele>
        <time>2023-08-29T11:32:24Z</time>
      </trkpt>
      <trkpt lat="56.677097026258707" lon="-5.90937802568078">
        <ele>26.09</ele>
        <time>2023-08-29T11:32:31Z</time>
      </trkpt>
      <trkpt lat="56.677043968811631" lon="-5.909538036212325">
        <ele>27.050000000000001</ele>
        <time>2023-08-29T11:32:32Z</time>
      </trkpt>
      <trkpt lat="56.677022008225322" lon="-5.909694023430347">
        <ele>27.530000000000001</ele>
        <time>2023-08-29T11:32:33Z</time>
      </trkpt>
      <trkpt lat="56.677057966589928" lon="-5.911172004416585">
        <ele>29.940000000000001</ele>
        <time>2023-08-29T11:32:40Z</time>
      </trkpt>
      <trkpt lat="56.677094008773565" lon="-5.911632003262639">
        <ele>30.420000000000002</ele>
        <time>2023-08-29T11:32:42Z</time>
      </trkpt>
      <trkpt lat="56.677064001560211" lon="-5.911983037367463">
        <ele>29.940000000000001</ele>
        <time>2023-08-29T11:32:44Z</time>
      </trkpt>
      <trkpt lat="56.677035000175238" lon="-5.912211025133729">
        <ele>29.940000000000001</ele>
        <time>2023-08-29T11:32:45Z</time>
      </trkpt>
      <trkpt lat="56.676990995183587" lon="-5.912439012899995">
        <ele>29.460000000000001</ele>
        <time>2023-08-29T11:32:46Z</time>
      </trkpt>
      <trkpt lat="56.676955036818981" lon="-5.912872022017837">
        <ele>28.02</ele>
        <time>2023-08-29T11:32:48Z</time>
      </trkpt>
      <trkpt lat="56.676972974091768" lon="-5.913091041147709">
        <ele>27.050000000000001</ele>
        <time>2023-08-29T11:32:49Z</time>
      </trkpt>
      <trkpt lat="56.677286038175225" lon="-5.914906980469823">
        <ele>25.129999999999999</ele>
        <time>2023-08-29T11:32:57Z</time>
      </trkpt>
      <trkpt lat="56.677289977669716" lon="-5.915112001821399">
        <ele>25.129999999999999</ele>
        <time>2023-08-29T11:32:58Z</time>
      </trkpt>
      <trkpt lat="56.677292995154858" lon="-5.915330015122891">
        <ele>24.649999999999999</ele>
        <time>2023-08-29T11:32:59Z</time>
      </trkpt>
      <trkpt lat="56.67729701846838" lon="-5.915568983182311">
        <ele>24.170000000000002</ele>
        <time>2023-08-29T11:33:00Z</time>
      </trkpt>
      <trkpt lat="56.677328031510115" lon="-5.916547989472747">
        <ele>23.210000000000001</ele>
        <time>2023-08-29T11:33:04Z</time>
      </trkpt>
      <trkpt lat="56.677355021238327" lon="-5.916776983067393">
        <ele>23.210000000000001</ele>
        <time>2023-08-29T11:33:05Z</time>
      </trkpt>
      <trkpt lat="56.677381005138159" lon="-5.917012011632323">
        <ele>23.210000000000001</ele>
        <time>2023-08-29T11:33:06Z</time>
      </trkpt>
      <trkpt lat="56.677409000694752" lon="-5.917261959984899">
        <ele>22.73</ele>
        <time>2023-08-29T11:33:07Z</time>
      </trkpt>
      <trkpt lat="56.677440013736486" lon="-5.917531019076705">
        <ele>22.25</ele>
        <time>2023-08-29T11:33:08Z</time>
      </trkpt>
      <trkpt lat="56.677533974871039" lon="-5.918357977643609">
        <ele>20.809999999999999</ele>
        <time>2023-08-29T11:33:11Z</time>
      </trkpt>
      <trkpt lat="56.677542021498084" lon="-5.918601974844933">
        <ele>20.809999999999999</ele>
        <time>2023-08-29T11:33:12Z</time>
      </trkpt>
      <trkpt lat="56.677536992356181" lon="-5.918824011459947">
        <ele>20.809999999999999</ele>
        <time>2023-08-29T11:33:13Z</time>
      </trkpt>
      <trkpt lat="56.677527017891407" lon="-5.919245034456253">
        <ele>20.32</ele>
        <time>2023-08-29T11:33:15Z</time>
      </trkpt>
      <trkpt lat="56.677528023719788" lon="-5.919446032494307">
        <ele>20.32</ele>
        <time>2023-08-29T11:33:16Z</time>
      </trkpt>
      <trkpt lat="56.677677975967526" lon="-5.920252958312631">
        <ele>20.32</ele>
        <time>2023-08-29T11:33:20Z</time>
      </trkpt>
      <trkpt lat="56.677711000666022" lon="-5.92042101547122">
        <ele>20.32</ele>
        <time>2023-08-29T11:33:21Z</time>
      </trkpt>
      <trkpt lat="56.677748970687389" lon="-5.920583959668875">
        <ele>20.32</ele>
        <time>2023-08-29T11:33:22Z</time>
      </trkpt>
      <trkpt lat="56.67781300842762" lon="-5.920728966593742">
        <ele>20.809999999999999</ele>
        <time>2023-08-29T11:33:23Z</time>
      </trkpt>
      <trkpt lat="56.677882997319102" lon="-5.920889982953668">
        <ele>20.809999999999999</ele>
        <time>2023-08-29T11:33:24Z</time>
      </trkpt>
      <trkpt lat="56.677953992038965" lon="-5.921053010970354">
        <ele>21.289999999999999</ele>
        <time>2023-08-29T11:33:25Z</time>
      </trkpt>
      <trkpt lat="56.678021969273686" lon="-5.921206986531615">
        <ele>21.77</ele>
        <time>2023-08-29T11:33:26Z</time>
      </trkpt>
      <trkpt lat="56.678063040599227" lon="-5.921337995678186">
        <ele>22.25</ele>
        <time>2023-08-29T11:33:27Z</time>
      </trkpt>
      <trkpt lat="56.678086007013917" lon="-5.921421982347965">
        <ele>23.210000000000001</ele>
        <time>2023-08-29T11:33:28Z</time>
      </trkpt>
      <trkpt lat="56.678096987307072" lon="-5.921464981511235">
        <ele>23.690000000000001</ele>
        <time>2023-08-29T11:33:29Z</time>
      </trkpt>
      <trkpt lat="56.678106039762497" lon="-5.921499012038112">
        <ele>24.170000000000002</ele>
        <time>2023-08-29T11:33:30Z</time>
      </trkpt>
      <trkpt lat="56.678106039762497" lon="-5.921499012038112">
        <ele>24.649999999999999</ele>
        <time>2023-08-29T11:33:42Z</time>
      </trkpt>
      <trkpt lat="56.67817996814847" lon="-5.921773016452789">
        <ele>31.379999999999999</ele>
        <time>2023-08-29T11:33:53Z</time>
      </trkpt>
      <trkpt lat="56.678211987018585" lon="-5.921893967315555">
        <ele>31.859999999999999</ele>
        <time>2023-08-29T11:33:54Z</time>
      </trkpt>
      <trkpt lat="56.678318018093705" lon="-5.92229101806879">
        <ele>33.299999999999997</ele>
        <time>2023-08-29T11:33:57Z</time>
      </trkpt>
      <trkpt lat="56.678369985893369" lon="-5.922464020550251">
        <ele>33.299999999999997</ele>
        <time>2023-08-29T11:33:58Z</time>
      </trkpt>
      <trkpt lat="56.678456990048289" lon="-5.922624031081796">
        <ele>33.780000000000001</ele>
        <time>2023-08-29T11:33:59Z</time>
      </trkpt>
      <trkpt lat="56.678552962839603" lon="-5.922798039391637">
        <ele>34.259999999999998</ele>
        <time>2023-08-29T11:34:00Z</time>
      </trkpt>
      <trkpt lat="56.678649019449949" lon="-5.922971963882446">
        <ele>34.740000000000002</ele>
        <time>2023-08-29T11:34:01Z</time>
      </trkpt>
      <trkpt lat="56.678738035261631" lon="-5.923134991899133">
        <ele>35.710000000000001</ele>
        <time>2023-08-29T11:34:02Z</time>
      </trkpt>
      <trkpt lat="56.679474972188473" lon="-5.924479030072689">
        <ele>35.710000000000001</ele>
        <time>2023-08-29T11:34:11Z</time>
      </trkpt>
      <trkpt lat="56.679842015728354" lon="-5.925133991986513">
        <ele>32.82</ele>
        <time>2023-08-29T11:34:15Z</time>
      </trkpt>
      <trkpt lat="56.6799639724195" lon="-5.925280004739761">
        <ele>31.379999999999999</ele>
        <time>2023-08-29T11:34:16Z</time>
      </trkpt>
      <trkpt lat="56.681027971208096" lon="-5.926408963277936">
        <ele>21.77</ele>
        <time>2023-08-29T11:34:25Z</time>
      </trkpt>
      <trkpt lat="56.681442959234118" lon="-5.926591018214822">
        <ele>19.84</ele>
        <time>2023-08-29T11:34:28Z</time>
      </trkpt>
      <trkpt lat="56.682057017460465" lon="-5.926754968240857">
        <ele>17.440000000000001</ele>
        <time>2023-08-29T11:34:32Z</time>
      </trkpt>
      <trkpt lat="56.682994030416012" lon="-5.926839038729668">
        <ele>14.56</ele>
        <time>2023-08-29T11:34:38Z</time>
      </trkpt>
      <trkpt lat="56.683140965178609" lon="-5.926892012357712">
        <ele>14.08</ele>
        <time>2023-08-29T11:34:39Z</time>
      </trkpt>
      <trkpt lat="56.683427961543202" lon="-5.927079012617469">
        <ele>13.6</ele>
        <time>2023-08-29T11:34:41Z</time>
      </trkpt>
      <trkpt lat="56.683596018701792" lon="-5.927187977358699">
        <ele>14.08</ele>
        <time>2023-08-29T11:34:42Z</time>
      </trkpt>
      <trkpt lat="56.683717975392938" lon="-5.927332984283567">
        <ele>14.08</ele>
        <time>2023-08-29T11:34:43Z</time>
      </trkpt>
      <trkpt lat="56.684761019423604" lon="-5.92888799495995">
        <ele>18.879999999999999</ele>
        <time>2023-08-29T11:34:51Z</time>
      </trkpt>
      <trkpt lat="56.685019014403224" lon="-5.929437009617686">
        <ele>21.77</ele>
        <time>2023-08-29T11:34:54Z</time>
      </trkpt>
      <trkpt lat="56.685065031051636" lon="-5.929613029584289">
        <ele>23.210000000000001</ele>
        <time>2023-08-29T11:34:55Z</time>
      </trkpt>
      <trkpt lat="56.685150023549795" lon="-5.929933972656727">
        <ele>25.129999999999999</ele>
        <time>2023-08-29T11:34:57Z</time>
      </trkpt>
      <trkpt lat="56.685197968035936" lon="-5.930098006501794">
        <ele>25.609999999999999</ele>
        <time>2023-08-29T11:34:58Z</time>
      </trkpt>
      <trkpt lat="56.685268962755799" lon="-5.93026103451848">
        <ele>26.57</ele>
        <time>2023-08-29T11:34:59Z</time>
      </trkpt>
      <trkpt lat="56.685346998274326" lon="-5.930440993979573">
        <ele>27.530000000000001</ele>
        <time>2023-08-29T11:35:00Z</time>
      </trkpt>
      <trkpt lat="56.685437019914389" lon="-5.930649032816291">
        <ele>28.5</ele>
        <time>2023-08-29T11:35:01Z</time>
      </trkpt>
      <trkpt lat="56.686034984886646" lon="-5.9319609683007">
        <ele>31.379999999999999</ele>
        <time>2023-08-29T11:35:08Z</time>
      </trkpt>
      <trkpt lat="56.686691036447883" lon="-5.932923965156078">
        <ele>31.859999999999999</ele>
        <time>2023-08-29T11:35:15Z</time>
      </trkpt>
      <trkpt lat="56.687079034745693" lon="-5.933515978977084">
        <ele>36.189999999999998</ele>
        <time>2023-08-29T11:35:21Z</time>
      </trkpt>
      <trkpt lat="56.687359996140003" lon="-5.934144034981728">
        <ele>37.149999999999999</ele>
        <time>2023-08-29T11:35:26Z</time>
      </trkpt>
      <trkpt lat="56.687447000294924" lon="-5.93445198610425">
        <ele>37.149999999999999</ele>
        <time>2023-08-29T11:35:28Z</time>
      </trkpt>
      <trkpt lat="56.687472984194756" lon="-5.934622976928949">
        <ele>37.149999999999999</ele>
        <time>2023-08-29T11:35:29Z</time>
      </trkpt>
      <trkpt lat="56.687452029436827" lon="-5.934800002723932">
        <ele>37.149999999999999</ele>
        <time>2023-08-29T11:35:30Z</time>
      </trkpt>
      <trkpt lat="56.687429985031486" lon="-5.934978034347296">
        <ele>37.149999999999999</ele>
        <time>2023-08-29T11:35:31Z</time>
      </trkpt>
      <trkpt lat="56.687409030273557" lon="-5.935148019343615">
        <ele>36.670000000000002</ele>
        <time>2023-08-29T11:35:32Z</time>
      </trkpt>
      <trkpt lat="56.687390003353357" lon="-5.935306018218398">
        <ele>36.670000000000002</ele>
        <time>2023-08-29T11:35:33Z</time>
      </trkpt>
      <trkpt lat="56.687372988089919" lon="-5.935442978516221">
        <ele>36.189999999999998</ele>
        <time>2023-08-29T11:35:34Z</time>
      </trkpt>
      <trkpt lat="56.687357984483242" lon="-5.935565019026399">
        <ele>35.710000000000001</ele>
        <time>2023-08-29T11:35:35Z</time>
      </trkpt>
      <trkpt lat="56.687377011403441" lon="-5.935683958232403">
        <ele>35.229999999999997</ele>
        <time>2023-08-29T11:35:36Z</time>
      </trkpt>
      <trkpt lat="56.687427973374724" lon="-5.9358049929142">
        <ele>35.229999999999997</ele>
        <time>2023-08-29T11:35:37Z</time>
      </trkpt>
      <trkpt lat="56.687493016943336" lon="-5.93595796264708">
        <ele>34.740000000000002</ele>
        <time>2023-08-29T11:35:38Z</time>
      </trkpt>
      <trkpt lat="56.687578009441495" lon="-5.936098024249077">
        <ele>34.259999999999998</ele>
        <time>2023-08-29T11:35:39Z</time>
      </trkpt>
      <trkpt lat="56.688440004363656" lon="-5.937017016112804">
        <ele>31.859999999999999</ele>
        <time>2023-08-29T11:35:47Z</time>
      </trkpt>
      <trkpt lat="56.688552992418408" lon="-5.937111983075738">
        <ele>31.379999999999999</ele>
        <time>2023-08-29T11:35:48Z</time>
      </trkpt>
      <trkpt lat="56.689541973173618" lon="-5.938088977709413">
        <ele>29.460000000000001</ele>
        <time>2023-08-29T11:35:57Z</time>
      </trkpt>
      <trkpt lat="56.690456019714475" lon="-5.9396490175277">
        <ele>26.09</ele>
        <time>2023-08-29T11:36:06Z</time>
      </trkpt>
      <trkpt lat="56.690519973635674" lon="-5.939805004745722">
        <ele>26.09</ele>
        <time>2023-08-29T11:36:07Z</time>
      </trkpt>
      <trkpt lat="56.69057697057724" lon="-5.939941965043545">
        <ele>26.09</ele>
        <time>2023-08-29T11:36:08Z</time>
      </trkpt>
      <trkpt lat="56.690631033852696" lon="-5.940075991675258">
        <ele>26.09</ele>
        <time>2023-08-29T11:36:09Z</time>
      </trkpt>
      <trkpt lat="56.690688030794263" lon="-5.940215969458222">
        <ele>26.09</ele>
        <time>2023-08-29T11:36:10Z</time>
      </trkpt>
      <trkpt lat="56.690747039392591" lon="-5.940358964726329">
        <ele>25.609999999999999</ele>
        <time>2023-08-29T11:36:11Z</time>
      </trkpt>
      <trkpt lat="56.69134802184999" lon="-5.941807022318244">
        <ele>23.210000000000001</ele>
        <time>2023-08-29T11:36:20Z</time>
      </trkpt>
      <trkpt lat="56.691439971327782" lon="-5.942049007862806">
        <ele>22.73</ele>
        <time>2023-08-29T11:36:22Z</time>
      </trkpt>
      <trkpt lat="56.691466039046645" lon="-5.942172976210713">
        <ele>22.73</ele>
        <time>2023-08-29T11:36:23Z</time>
      </trkpt>
      <trkpt lat="56.691485987976193" lon="-5.94233701005578">
        <ele>22.73</ele>
        <time>2023-08-29T11:36:24Z</time>
      </trkpt>
      <trkpt lat="56.691464027389884" lon="-5.94248503446579">
        <ele>22.73</ele>
        <time>2023-08-29T11:36:25Z</time>
      </trkpt>
      <trkpt lat="56.691440977156162" lon="-5.942640015855432">
        <ele>22.73</ele>
        <time>2023-08-29T11:36:26Z</time>
      </trkpt>
      <trkpt lat="56.691398983821273" lon="-5.942798014730215">
        <ele>22.73</ele>
        <time>2023-08-29T11:36:27Z</time>
      </trkpt>
      <trkpt lat="56.691182982176542" lon="-5.94336798414588">
        <ele>22.73</ele>
        <time>2023-08-29T11:36:31Z</time>
      </trkpt>
      <trkpt lat="56.691125985234976" lon="-5.94351701438427">
        <ele>22.25</ele>
        <time>2023-08-29T11:36:32Z</time>
      </trkpt>
      <trkpt lat="56.691063037142158" lon="-5.943656992167234">
        <ele>22.25</ele>
        <time>2023-08-29T11:36:33Z</time>
      </trkpt>
      <trkpt lat="56.690980978310108" lon="-5.943774003535509">
        <ele>22.25</ele>
        <time>2023-08-29T11:36:34Z</time>
      </trkpt>
      <trkpt lat="56.690891040489078" lon="-5.9439040068537">
        <ele>22.25</ele>
        <time>2023-08-29T11:36:35Z</time>
      </trkpt>
      <trkpt lat="56.690785009413958" lon="-5.94397097826004">
        <ele>22.73</ele>
        <time>2023-08-29T11:36:36Z</time>
      </trkpt>
      <trkpt lat="56.690675038844347" lon="-5.944040967151523">
        <ele>23.210000000000001</ele>
        <time>2023-08-29T11:36:37Z</time>
      </trkpt>
      <trkpt lat="56.690370021387935" lon="-5.944234002381563">
        <ele>24.649999999999999</ele>
        <time>2023-08-29T11:36:40Z</time>
      </trkpt>
      <trkpt lat="56.690287040546536" lon="-5.944286976009607">
        <ele>25.129999999999999</ele>
        <time>2023-08-29T11:36:41Z</time>
      </trkpt>
      <trkpt lat="56.690215039998293" lon="-5.94439703039825">
        <ele>25.609999999999999</ele>
        <time>2023-08-29T11:36:42Z</time>
      </trkpt>
      <trkpt lat="56.690161982551217" lon="-5.944538014009595">
        <ele>25.609999999999999</ele>
        <time>2023-08-29T11:36:43Z</time>
      </trkpt>
      <trkpt lat="56.690102973952889" lon="-5.944690983742476">
        <ele>26.09</ele>
        <time>2023-08-29T11:36:44Z</time>
      </trkpt>
      <trkpt lat="56.690040025860071" lon="-5.944857029244304">
        <ele>26.09</ele>
        <time>2023-08-29T11:36:45Z</time>
      </trkpt>
      <trkpt lat="56.689975988119841" lon="-5.945026008412242">
        <ele>26.09</ele>
        <time>2023-08-29T11:36:46Z</time>
      </trkpt>
      <trkpt lat="56.689903987571597" lon="-5.945213008671999">
        <ele>26.09</ele>
        <time>2023-08-29T11:36:47Z</time>
      </trkpt>
      <trkpt lat="56.68911399319768" lon="-5.946182040497661">
        <ele>23.690000000000001</ele>
        <time>2023-08-29T11:36:54Z</time>
      </trkpt>
      <trkpt lat="56.68872800655663" lon="-5.946561992168427">
        <ele>21.77</ele>
        <time>2023-08-29T11:36:57Z</time>
      </trkpt>
      <trkpt lat="56.688594985753298" lon="-5.946671962738037">
        <ele>21.289999999999999</ele>
        <time>2023-08-29T11:36:58Z</time>
      </trkpt>
      <trkpt lat="56.687875986099243" lon="-5.947115030139685">
        <ele>20.809999999999999</ele>
        <time>2023-08-29T11:37:04Z</time>
      </trkpt>
      <trkpt lat="56.687779007479548" lon="-5.947219971567392">
        <ele>20.809999999999999</ele>
        <time>2023-08-29T11:37:05Z</time>
      </trkpt>
      <trkpt lat="56.687681023031473" lon="-5.947326002642512">
        <ele>20.32</ele>
        <time>2023-08-29T11:37:06Z</time>
      </trkpt>
      <trkpt lat="56.687599970027804" lon="-5.947481989860535">
        <ele>20.32</ele>
        <time>2023-08-29T11:37:07Z</time>
      </trkpt>
      <trkpt lat="56.687528975307941" lon="-5.947657003998756">
        <ele>19.84</ele>
        <time>2023-08-29T11:37:08Z</time>
      </trkpt>
      <trkpt lat="56.687465021386743" lon="-5.947852972894907">
        <ele>19.84</ele>
        <time>2023-08-29T11:37:09Z</time>
      </trkpt>
      <trkpt lat="56.68715899810195" lon="-5.948958965018392">
        <ele>18.399999999999999</ele>
        <time>2023-08-29T11:37:14Z</time>
      </trkpt>
      <trkpt lat="56.687098983675241" lon="-5.94914797693491">
        <ele>17.920000000000002</ele>
        <time>2023-08-29T11:37:15Z</time>
      </trkpt>
      <trkpt lat="56.687019020318985" lon="-5.9492970071733">
        <ele>17.920000000000002</ele>
        <time>2023-08-29T11:37:16Z</time>
      </trkpt>
      <trkpt lat="56.686934027820826" lon="-5.94944997690618">
        <ele>18.399999999999999</ele>
        <time>2023-08-29T11:37:17Z</time>
      </trkpt>
      <trkpt lat="56.686834031715989" lon="-5.949557013809681">
        <ele>18.879999999999999</ele>
        <time>2023-08-29T11:37:18Z</time>
      </trkpt>
      <trkpt lat="56.686734035611153" lon="-5.94966396689415">
        <ele>19.359999999999999</ele>
        <time>2023-08-29T11:37:19Z</time>
      </trkpt>
      <trkpt lat="56.686567990109324" lon="-5.949892960488796">
        <ele>19.84</ele>
        <time>2023-08-29T11:37:21Z</time>
      </trkpt>
      <trkpt lat="56.686499007046223" lon="-5.950013995170593">
        <ele>20.32</ele>
        <time>2023-08-29T11:37:22Z</time>
      </trkpt>
      <trkpt lat="56.68645198456943" lon="-5.950148021802306">
        <ele>21.289999999999999</ele>
        <time>2023-08-29T11:37:23Z</time>
      </trkpt>
      <trkpt lat="56.686415020376444" lon="-5.950318006798625">
        <ele>21.289999999999999</ele>
        <time>2023-08-29T11:37:24Z</time>
      </trkpt>
      <trkpt lat="56.686374032869935" lon="-5.950502995401621">
        <ele>21.289999999999999</ele>
        <time>2023-08-29T11:37:25Z</time>
      </trkpt>
      <trkpt lat="56.686173034831882" lon="-5.951330959796906">
        <ele>21.77</ele>
        <time>2023-08-29T11:37:29Z</time>
      </trkpt>
      <trkpt lat="56.686103967949748" lon="-5.951547967270017">
        <ele>22.25</ele>
        <time>2023-08-29T11:37:30Z</time>
      </trkpt>
      <trkpt lat="56.685858964920044" lon="-5.952167976647615">
        <ele>22.25</ele>
        <time>2023-08-29T11:37:33Z</time>
      </trkpt>
      <trkpt lat="56.685186987742782" lon="-5.953630032017827">
        <ele>25.609999999999999</ele>
        <time>2023-08-29T11:37:41Z</time>
      </trkpt>
      <trkpt lat="56.685124961659312" lon="-5.95374695956707">
        <ele>26.09</ele>
        <time>2023-08-29T11:37:42Z</time>
      </trkpt>
      <trkpt lat="56.68505497276783" lon="-5.953881992027164">
        <ele>26.57</ele>
        <time>2023-08-29T11:37:43Z</time>
      </trkpt>
      <trkpt lat="56.685035023838282" lon="-5.954001015052199">
        <ele>27.530000000000001</ele>
        <time>2023-08-29T11:37:44Z</time>
      </trkpt>
      <trkpt lat="56.685015996918082" lon="-5.954179968684912">
        <ele>28.02</ele>
        <time>2023-08-29T11:37:45Z</time>
      </trkpt>
      <trkpt lat="56.68503200635314" lon="-5.954350959509611">
        <ele>28.5</ele>
        <time>2023-08-29T11:37:46Z</time>
      </trkpt>
      <trkpt lat="56.685050027444959" lon="-5.954543994739652">
        <ele>28.98</ele>
        <time>2023-08-29T11:37:47Z</time>
      </trkpt>
      <trkpt lat="56.685182964429259" lon="-5.955953998491168">
        <ele>30.899999999999999</ele>
        <time>2023-08-29T11:37:54Z</time>
      </trkpt>
      <trkpt lat="56.685239039361477" lon="-5.956076039001346">
        <ele>31.379999999999999</ele>
        <time>2023-08-29T11:37:55Z</time>
      </trkpt>
      <trkpt lat="56.685296958312392" lon="-5.95619598403573">
        <ele>31.379999999999999</ele>
        <time>2023-08-29T11:37:56Z</time>
      </trkpt>
      <trkpt lat="56.685365019366145" lon="-5.956334033980966">
        <ele>30.899999999999999</ele>
        <time>2023-08-29T11:37:57Z</time>
      </trkpt>
      <trkpt lat="56.68543903157115" lon="-5.956485997885466">
        <ele>30.899999999999999</ele>
        <time>2023-08-29T11:37:58Z</time>
      </trkpt>
      <trkpt lat="56.685520000755787" lon="-5.956652965396643">
        <ele>29.940000000000001</ele>
        <time>2023-08-29T11:37:59Z</time>
      </trkpt>
      <trkpt lat="56.685603987425566" lon="-5.956824962049723">
        <ele>28.5</ele>
        <time>2023-08-29T11:38:00Z</time>
      </trkpt>
      <trkpt lat="56.685648998245597" lon="-5.957008022814989">
        <ele>28.02</ele>
        <time>2023-08-29T11:38:01Z</time>
      </trkpt>
      <trkpt lat="56.685689985752106" lon="-5.957196028903127">
        <ele>27.530000000000001</ele>
        <time>2023-08-29T11:38:02Z</time>
      </trkpt>
      <trkpt lat="56.685730973258615" lon="-5.957381017506123">
        <ele>26.57</ele>
        <time>2023-08-29T11:38:03Z</time>
      </trkpt>
      <trkpt lat="56.68576299212873" lon="-5.957529963925481">
        <ele>26.09</ele>
        <time>2023-08-29T11:38:04Z</time>
      </trkpt>
      <trkpt lat="56.685782019048929" lon="-5.957744959741831">
        <ele>25.609999999999999</ele>
        <time>2023-08-29T11:38:05Z</time>
      </trkpt>
      <trkpt lat="56.685873968526721" lon="-5.95877199433744">
        <ele>22.73</ele>
        <time>2023-08-29T11:38:10Z</time>
      </trkpt>
      <trkpt lat="56.685890983790159" lon="-5.958984978497028">
        <ele>22.25</ele>
        <time>2023-08-29T11:38:11Z</time>
      </trkpt>
      <trkpt lat="56.685714963823557" lon="-5.960515011101961">
        <ele>20.32</ele>
        <time>2023-08-29T11:38:18Z</time>
      </trkpt>
      <trkpt lat="56.685652015730739" lon="-5.960703017190099">
        <ele>20.32</ele>
        <time>2023-08-29T11:38:19Z</time>
      </trkpt>
      <trkpt lat="56.685579009354115" lon="-5.960867973044515">
        <ele>20.32</ele>
        <time>2023-08-29T11:38:20Z</time>
      </trkpt>
      <trkpt lat="56.685495022684336" lon="-5.960997976362705">
        <ele>20.32</ele>
        <time>2023-08-29T11:38:21Z</time>
      </trkpt>
      <trkpt lat="56.68539603240788" lon="-5.961042987182736">
        <ele>20.32</ele>
        <time>2023-08-29T11:38:22Z</time>
      </trkpt>
      <trkpt lat="56.685294024646282" lon="-5.961087998002768">
        <ele>19.84</ele>
        <time>2023-08-29T11:38:23Z</time>
      </trkpt>
      <trkpt lat="56.685187993571162" lon="-5.96113502047956">
        <ele>19.359999999999999</ele>
        <time>2023-08-29T11:38:24Z</time>
      </trkpt>
      <trkpt lat="56.685090009123087" lon="-5.96117801964283">
        <ele>18.879999999999999</ele>
        <time>2023-08-29T11:38:25Z</time>
      </trkpt>
      <trkpt lat="56.684996969997883" lon="-5.961220012977719">
        <ele>18.879999999999999</ele>
        <time>2023-08-29T11:38:26Z</time>
      </trkpt>
      <trkpt lat="56.68490401469171" lon="-5.961299976333976">
        <ele>18.879999999999999</ele>
        <time>2023-08-29T11:38:27Z</time>
      </trkpt>
      <trkpt lat="56.684716008603573" lon="-5.961551014333963">
        <ele>18.399999999999999</ele>
        <time>2023-08-29T11:38:29Z</time>
      </trkpt>
      <trkpt lat="56.684358017519116" lon="-5.961861982941628">
        <ele>17.920000000000002</ele>
        <time>2023-08-29T11:38:32Z</time>
      </trkpt>
      <trkpt lat="56.684259027242661" lon="-5.961990980431438">
        <ele>17.440000000000001</ele>
        <time>2023-08-29T11:38:33Z</time>
      </trkpt>
      <trkpt lat="56.684171017259359" lon="-5.962156020104885">
        <ele>17.920000000000002</ele>
        <time>2023-08-29T11:38:34Z</time>
      </trkpt>
      <trkpt lat="56.684097005054355" lon="-5.962327010929585">
        <ele>17.440000000000001</ele>
        <time>2023-08-29T11:38:35Z</time>
      </trkpt>
      <trkpt lat="56.684034978970885" lon="-5.962500013411045">
        <ele>17.440000000000001</ele>
        <time>2023-08-29T11:38:36Z</time>
      </trkpt>
      <trkpt lat="56.684010000899434" lon="-5.962677039206028">
        <ele>17.920000000000002</ele>
        <time>2023-08-29T11:38:37Z</time>
      </trkpt>
      <trkpt lat="56.683991979807615" lon="-5.962852975353599">
        <ele>17.920000000000002</ele>
        <time>2023-08-29T11:38:38Z</time>
      </trkpt>
      <trkpt lat="56.683974964544177" lon="-5.963009968400002">
        <ele>18.399999999999999</ele>
        <time>2023-08-29T11:38:39Z</time>
      </trkpt>
      <trkpt lat="56.683961972594261" lon="-5.963142989203334">
        <ele>18.879999999999999</ele>
        <time>2023-08-29T11:38:40Z</time>
      </trkpt>
      <trkpt lat="56.6839599609375" lon="-5.963236028328538">
        <ele>19.359999999999999</ele>
        <time>2023-08-29T11:38:41Z</time>
      </trkpt>
      <trkpt lat="56.683959038928151" lon="-5.963293025270104">
        <ele>19.84</ele>
        <time>2023-08-29T11:38:42Z</time>
      </trkpt>
      <trkpt lat="56.683958033099771" lon="-5.963364019989967">
        <ele>21.289999999999999</ele>
        <time>2023-08-29T11:38:46Z</time>
      </trkpt>
      <trkpt lat="56.683955015614629" lon="-5.963579015806317">
        <ele>22.73</ele>
        <time>2023-08-29T11:38:48Z</time>
      </trkpt>
      <trkpt lat="56.683943029493093" lon="-5.964629016816616">
        <ele>29.460000000000001</ele>
        <time>2023-08-29T11:38:55Z</time>
      </trkpt>
      <trkpt lat="56.683939006179571" lon="-5.96491701900959">
        <ele>30.899999999999999</ele>
        <time>2023-08-29T11:38:57Z</time>
      </trkpt>
      <trkpt lat="56.683924002572894" lon="-5.966157037764788">
        <ele>37.149999999999999</ele>
        <time>2023-08-29T11:39:04Z</time>
      </trkpt>
      <trkpt lat="56.683921990916133" lon="-5.966330040246248">
        <ele>38.109999999999999</ele>
        <time>2023-08-29T11:39:05Z</time>
      </trkpt>
      <trkpt lat="56.683919979259372" lon="-5.966489966958761">
        <ele>38.590000000000003</ele>
        <time>2023-08-29T11:39:06Z</time>
      </trkpt>
      <trkpt lat="56.683817971497774" lon="-5.967204021289945">
        <ele>40.509999999999998</ele>
        <time>2023-08-29T11:39:10Z</time>
      </trkpt>
      <trkpt lat="56.683758962899446" lon="-5.967370988801122">
        <ele>40.990000000000002</ele>
        <time>2023-08-29T11:39:11Z</time>
      </trkpt>
      <trkpt lat="56.683696014806628" lon="-5.967548014596105">
        <ele>40.990000000000002</ele>
        <time>2023-08-29T11:39:12Z</time>
      </trkpt>
      <trkpt lat="56.683573974296451" lon="-5.967894019559026">
        <ele>41.469999999999999</ele>
        <time>2023-08-29T11:39:14Z</time>
      </trkpt>
      <trkpt lat="56.683548996224999" lon="-5.968081019818783">
        <ele>41.469999999999999</ele>
        <time>2023-08-29T11:39:15Z</time>
      </trkpt>
      <trkpt lat="56.683533992618322" lon="-5.968263996765018">
        <ele>41.950000000000003</ele>
        <time>2023-08-29T11:39:16Z</time>
      </trkpt>
      <trkpt lat="56.683573974296451" lon="-5.969014009460807">
        <ele>43.880000000000003</ele>
        <time>2023-08-29T11:39:20Z</time>
      </trkpt>
      <trkpt lat="56.683673970401287" lon="-5.970420995727181">
        <ele>46.759999999999998</ele>
        <time>2023-08-29T11:39:27Z</time>
      </trkpt>
      <trkpt lat="56.683702971786261" lon="-5.970575977116823">
        <ele>46.759999999999998</ele>
        <time>2023-08-29T11:39:28Z</time>
      </trkpt>
      <trkpt lat="56.683766003698111" lon="-5.970728024840355">
        <ele>46.759999999999998</ele>
        <time>2023-08-29T11:39:29Z</time>
      </trkpt>
      <trkpt lat="56.683830041438341" lon="-5.970880994573236">
        <ele>46.759999999999998</ele>
        <time>2023-08-29T11:39:30Z</time>
      </trkpt>
      <trkpt lat="56.684020981192589" lon="-5.971339987590909">
        <ele>46.759999999999998</ele>
        <time>2023-08-29T11:39:33Z</time>
      </trkpt>
      <trkpt lat="56.684033973142505" lon="-5.971520030871034">
        <ele>46.759999999999998</ele>
        <time>2023-08-29T11:39:34Z</time>
      </trkpt>
      <trkpt lat="56.684044031426311" lon="-5.971711976453662">
        <ele>46.759999999999998</ele>
        <time>2023-08-29T11:39:35Z</time>
      </trkpt>
      <trkpt lat="56.684029027819633" lon="-5.971894031390548">
        <ele>46.759999999999998</ele>
        <time>2023-08-29T11:39:36Z</time>
      </trkpt>
      <trkpt lat="56.684003965929151" lon="-5.97209201194346">
        <ele>46.759999999999998</ele>
        <time>2023-08-29T11:39:37Z</time>
      </trkpt>
      <trkpt lat="56.683958033099771" lon="-5.972258979454637">
        <ele>47.240000000000002</ele>
        <time>2023-08-29T11:39:38Z</time>
      </trkpt>
      <trkpt lat="56.683902963995934" lon="-5.972448997199535">
        <ele>47.240000000000002</ele>
        <time>2023-08-29T11:39:39Z</time>
      </trkpt>
      <trkpt lat="56.683846972882748" lon="-5.972642032429576">
        <ele>47.240000000000002</ele>
        <time>2023-08-29T11:39:40Z</time>
      </trkpt>
      <trkpt lat="56.683553019538522" lon="-5.973665965721011">
        <ele>49.159999999999997</ele>
        <time>2023-08-29T11:39:47Z</time>
      </trkpt>
      <trkpt lat="56.683553019538522" lon="-5.973665965721011">
        <ele>49.649999999999999</ele>
        <time>2023-08-29T11:39:53Z</time>
      </trkpt>
      <trkpt lat="56.683543967083097" lon="-5.973681975156069">
        <ele>50.130000000000003</ele>
        <time>2023-08-29T11:39:54Z</time>
      </trkpt>
      <trkpt lat="56.683203997090459" lon="-5.974298967048526">
        <ele>51.57</ele>
        <time>2023-08-29T11:40:00Z</time>
      </trkpt>
      <trkpt lat="56.682866038754582" lon="-5.974910007789731">
        <ele>53.490000000000002</ele>
        <time>2023-08-29T11:40:04Z</time>
      </trkpt>
      <trkpt lat="56.682781968265772" lon="-5.974963987246156">
        <ele>54.450000000000003</ele>
        <time>2023-08-29T11:40:05Z</time>
      </trkpt>
      <trkpt lat="56.682450966909528" lon="-5.975175965577364">
        <ele>56.859999999999999</ele>
        <time>2023-08-29T11:40:08Z</time>
      </trkpt>
      <trkpt lat="56.682205041870475" lon="-5.975254001095891">
        <ele>59.259999999999998</ele>
        <time>2023-08-29T11:40:10Z</time>
      </trkpt>
      <trkpt lat="56.681633982807398" lon="-5.975111005827785">
        <ele>64.069999999999993</ele>
        <time>2023-08-29T11:40:16Z</time>
      </trkpt>
      <trkpt lat="56.681547984480858" lon="-5.975132966414094">
        <ele>64.549999999999997</ele>
        <time>2023-08-29T11:40:17Z</time>
      </trkpt>
      <trkpt lat="56.681481013074517" lon="-5.97516699694097">
        <ele>65.030000000000001</ele>
        <time>2023-08-29T11:40:18Z</time>
      </trkpt>
      <trkpt lat="56.681428961455822" lon="-5.975254001095891">
        <ele>65.989999999999995</ele>
        <time>2023-08-29T11:40:19Z</time>
      </trkpt>
      <trkpt lat="56.681384034454823" lon="-5.975387021899223">
        <ele>66.469999999999999</ele>
        <time>2023-08-29T11:40:20Z</time>
      </trkpt>
      <trkpt lat="56.681364001706243" lon="-5.975520964711905">
        <ele>66.950000000000003</ele>
        <time>2023-08-29T11:40:21Z</time>
      </trkpt>
      <trkpt lat="56.681364001706243" lon="-5.975691033527255">
        <ele>68.390000000000001</ele>
        <time>2023-08-29T11:40:22Z</time>
      </trkpt>
      <trkpt lat="56.681391997262836" lon="-5.975860012695193">
        <ele>70.310000000000002</ele>
        <time>2023-08-29T11:40:23Z</time>
      </trkpt>
      <trkpt lat="56.681427033618093" lon="-5.976053969934583">
        <ele>71.269999999999996</ele>
        <time>2023-08-29T11:40:24Z</time>
      </trkpt>
      <trkpt lat="56.681669019162655" lon="-5.977407982572913">
        <ele>78.969999999999999</ele>
        <time>2023-08-29T11:40:33Z</time>
      </trkpt>
      <trkpt lat="56.68170397169888" lon="-5.977629013359547">
        <ele>79.930000000000007</ele>
        <time>2023-08-29T11:40:35Z</time>
      </trkpt>
      <trkpt lat="56.681890971958637" lon="-5.978901972994208">
        <ele>82.810000000000002</ele>
        <time>2023-08-29T11:40:42Z</time>
      </trkpt>
      <trkpt lat="56.68193799443543" lon="-5.979087967425585">
        <ele>83.290000000000006</ele>
        <time>2023-08-29T11:40:43Z</time>
      </trkpt>
      <trkpt lat="56.682459013536572" lon="-5.980811035260558">
        <ele>80.890000000000001</ele>
        <time>2023-08-29T11:40:51Z</time>
      </trkpt>
      <trkpt lat="56.682665962725878" lon="-5.981209008023143">
        <ele>78.969999999999999</ele>
        <time>2023-08-29T11:40:54Z</time>
      </trkpt>
      <trkpt lat="56.682716002687812" lon="-5.981304980814457">
        <ele>78.480000000000004</ele>
        <time>2023-08-29T11:40:55Z</time>
      </trkpt>
      <trkpt lat="56.682802001014352" lon="-5.981334988027811">
        <ele>77.519999999999996</ele>
        <time>2023-08-29T11:40:56Z</time>
      </trkpt>
      <trkpt lat="56.682894034311175" lon="-5.981368012726307">
        <ele>77.040000000000006</ele>
        <time>2023-08-29T11:40:57Z</time>
      </trkpt>
      <trkpt lat="56.682989001274109" lon="-5.981401959434152">
        <ele>76.560000000000002</ele>
        <time>2023-08-29T11:40:58Z</time>
      </trkpt>
      <trkpt lat="56.683082040399313" lon="-5.981392990797758">
        <ele>76.560000000000002</ele>
        <time>2023-08-29T11:40:59Z</time>
      </trkpt>
      <trkpt lat="56.683189999312162" lon="-5.981360971927643">
        <ele>76.079999999999998</ele>
        <time>2023-08-29T11:41:00Z</time>
      </trkpt>
      <trkpt lat="56.683299969881773" lon="-5.981329036876559">
        <ele>76.079999999999998</ele>
        <time>2023-08-29T11:41:01Z</time>
      </trkpt>
      <trkpt lat="56.683843033388257" lon="-5.981197021901608">
        <ele>75.120000000000005</ele>
        <time>2023-08-29T11:41:06Z</time>
      </trkpt>
      <trkpt lat="56.683945963159204" lon="-5.981197021901608">
        <ele>75.120000000000005</ele>
        <time>2023-08-29T11:41:07Z</time>
      </trkpt>
      <trkpt lat="56.684695975854993" lon="-5.981174977496266">
        <ele>75.120000000000005</ele>
        <time>2023-08-29T11:41:15Z</time>
      </trkpt>
      <trkpt lat="56.68511901050806" lon="-5.981069030240178">
        <ele>74.159999999999997</ele>
        <time>2023-08-29T11:41:19Z</time>
      </trkpt>
      <trkpt lat="56.685950998216867" lon="-5.981301041319966">
        <ele>73.200000000000003</ele>
        <time>2023-08-29T11:41:27Z</time>
      </trkpt>
      <trkpt lat="56.686049988493323" lon="-5.98128997720778">
        <ele>73.680000000000007</ele>
        <time>2023-08-29T11:41:28Z</time>
      </trkpt>
      <trkpt lat="56.686320975422859" lon="-5.981261981651187">
        <ele>75.120000000000005</ele>
        <time>2023-08-29T11:41:31Z</time>
      </trkpt>
      <trkpt lat="56.686410997062922" lon="-5.981291988864541">
        <ele>76.079999999999998</ele>
        <time>2023-08-29T11:41:32Z</time>
      </trkpt>
      <trkpt lat="56.686501018702984" lon="-5.981321996077895">
        <ele>76.560000000000002</ele>
        <time>2023-08-29T11:41:33Z</time>
      </trkpt>
      <trkpt lat="56.686596991494298" lon="-5.981364995241165">
        <ele>77.519999999999996</ele>
        <time>2023-08-29T11:41:34Z</time>
      </trkpt>
      <trkpt lat="56.686691036447883" lon="-5.981453005224466">
        <ele>78.480000000000004</ele>
        <time>2023-08-29T11:41:35Z</time>
      </trkpt>
      <trkpt lat="56.686790026724339" lon="-5.98154503852129">
        <ele>78.969999999999999</ele>
        <time>2023-08-29T11:41:36Z</time>
      </trkpt>
      <trkpt lat="56.686893962323666" lon="-5.981642017140985">
        <ele>79.930000000000007</ele>
        <time>2023-08-29T11:41:37Z</time>
      </trkpt>
      <trkpt lat="56.687742965295911" lon="-5.983131984248757">
        <ele>86.659999999999997</ele>
        <time>2023-08-29T11:41:47Z</time>
      </trkpt>
      <trkpt lat="56.688744015991688" lon="-5.985102988779545">
        <ele>90.980000000000004</ele>
        <time>2023-08-29T11:41:59Z</time>
      </trkpt>
      <trkpt lat="56.688829008489847" lon="-5.98524103872478">
        <ele>91.459999999999994</ele>
        <time>2023-08-29T11:42:00Z</time>
      </trkpt>
      <trkpt lat="56.689110975712538" lon="-5.985611015930772">
        <ele>92.420000000000002</ele>
        <time>2023-08-29T11:42:03Z</time>
      </trkpt>
      <trkpt lat="56.689185993745923" lon="-5.985771026462317">
        <ele>92.420000000000002</ele>
        <time>2023-08-29T11:42:04Z</time>
      </trkpt>
      <trkpt lat="56.68937299400568" lon="-5.986281987279654">
        <ele>92.420000000000002</ele>
        <time>2023-08-29T11:42:07Z</time>
      </trkpt>
      <trkpt lat="56.689424961805344" lon="-5.986468987539411">
        <ele>92.900000000000006</ele>
        <time>2023-08-29T11:42:08Z</time>
      </trkpt>
      <trkpt lat="56.689921002835035" lon="-5.987976975739002">
        <ele>96.75</ele>
        <time>2023-08-29T11:42:16Z</time>
      </trkpt>
      <trkpt lat="56.690283017233014" lon="-5.988983977586031">
        <ele>98.670000000000002</ele>
        <time>2023-08-29T11:42:21Z</time>
      </trkpt>
      <trkpt lat="56.690319981426001" lon="-5.98919503390789">
        <ele>98.670000000000002</ele>
        <time>2023-08-29T11:42:22Z</time>
      </trkpt>
      <trkpt lat="56.690354011952877" lon="-5.989408018067479">
        <ele>99.150000000000006</ele>
        <time>2023-08-29T11:42:23Z</time>
      </trkpt>
      <trkpt lat="56.690385024994612" lon="-5.989605998620391">
        <ele>99.629999999999995</ele>
        <time>2023-08-29T11:42:24Z</time>
      </trkpt>
      <trkpt lat="56.690415032207966" lon="-5.989795010536909">
        <ele>100.11</ele>
        <time>2023-08-29T11:42:25Z</time>
      </trkpt>
      <trkpt lat="56.690464988350868" lon="-5.989970024675131">
        <ele>100.59999999999999</ele>
        <time>2023-08-29T11:42:26Z</time>
      </trkpt>
      <trkpt lat="56.690527014434338" lon="-5.990166999399662">
        <ele>101.08</ele>
        <time>2023-08-29T11:42:27Z</time>
      </trkpt>
      <trkpt lat="56.690581999719143" lon="-5.990309994667769">
        <ele>101.56</ele>
        <time>2023-08-29T11:42:28Z</time>
      </trkpt>
      <trkpt lat="56.690649976953864" lon="-5.99048400297761">
        <ele>101.56</ele>
        <time>2023-08-29T11:42:29Z</time>
      </trkpt>
      <trkpt lat="56.691318014636636" lon="-5.992099028080702">
        <ele>101.08</ele>
        <time>2023-08-29T11:42:37Z</time>
      </trkpt>
      <trkpt lat="56.691834004595876" lon="-5.993080968037248">
        <ele>101.56</ele>
        <time>2023-08-29T11:42:42Z</time>
      </trkpt>
      <trkpt lat="56.691968031227589" lon="-5.99321398884058">
        <ele>102.04000000000001</ele>
        <time>2023-08-29T11:42:43Z</time>
      </trkpt>
      <trkpt lat="56.692105997353792" lon="-5.993348015472293">
        <ele>103</ele>
        <time>2023-08-29T11:42:44Z</time>
      </trkpt>
      <trkpt lat="56.693014008924365" lon="-5.994291985407472">
        <ele>112.61</ele>
        <time>2023-08-29T11:42:51Z</time>
      </trkpt>
      <trkpt lat="56.693126996979117" lon="-5.994407990947366">
        <ele>113.56999999999999</ele>
        <time>2023-08-29T11:42:52Z</time>
      </trkpt>
      <trkpt lat="56.693245014175773" lon="-5.994472028687596">
        <ele>114.53</ele>
        <time>2023-08-29T11:42:53Z</time>
      </trkpt>
      <trkpt lat="56.693360013887286" lon="-5.994519973173738">
        <ele>115.5</ele>
        <time>2023-08-29T11:42:54Z</time>
      </trkpt>
      <trkpt lat="56.693469984456897" lon="-5.994507987052202">
        <ele>116.45999999999999</ele>
        <time>2023-08-29T11:42:55Z</time>
      </trkpt>
      <trkpt lat="56.693566041067243" lon="-5.994497006759048">
        <ele>117.42</ele>
        <time>2023-08-29T11:42:56Z</time>
      </trkpt>
      <trkpt lat="56.693718004971743" lon="-5.99448099732399">
        <ele>119.34</ele>
        <time>2023-08-29T11:42:58Z</time>
      </trkpt>
      <trkpt lat="56.693786988034844" lon="-5.994533970952034">
        <ele>120.3</ele>
        <time>2023-08-29T11:42:59Z</time>
      </trkpt>
      <trkpt lat="56.693853959441185" lon="-5.994590967893601">
        <ele>121.26000000000001</ele>
        <time>2023-08-29T11:43:00Z</time>
      </trkpt>
      <trkpt lat="56.693893019109964" lon="-5.99473899230361">
        <ele>122.22</ele>
        <time>2023-08-29T11:43:01Z</time>
      </trkpt>
      <trkpt lat="56.693916991353035" lon="-5.994906965643168">
        <ele>122.70999999999999</ele>
        <time>2023-08-29T11:43:02Z</time>
      </trkpt>
      <trkpt lat="56.693942975252867" lon="-5.995091032236815">
        <ele>123.19</ele>
        <time>2023-08-29T11:43:03Z</time>
      </trkpt>
      <trkpt lat="56.693963008001447" lon="-5.995288006961346">
        <ele>123.67</ele>
        <time>2023-08-29T11:43:04Z</time>
      </trkpt>
      <trkpt lat="56.694059986621141" lon="-5.997436037287116">
        <ele>121.73999999999999</ele>
        <time>2023-08-29T11:43:12Z</time>
      </trkpt>
      <trkpt lat="56.694074990227818" lon="-5.997756980359554">
        <ele>121.26000000000001</ele>
        <time>2023-08-29T11:43:13Z</time>
      </trkpt>
      <trkpt lat="56.694090999662876" lon="-5.998073983937502">
        <ele>120.78</ele>
        <time>2023-08-29T11:43:14Z</time>
      </trkpt>
      <trkpt lat="56.694155959412456" lon="-5.998365003615618">
        <ele>120.3</ele>
        <time>2023-08-29T11:43:15Z</time>
      </trkpt>
      <trkpt lat="56.694224020466208" lon="-5.998660968616605">
        <ele>119.81999999999999</ele>
        <time>2023-08-29T11:43:16Z</time>
      </trkpt>
      <trkpt lat="56.694316975772381" lon="-5.998933967202902">
        <ele>119.34</ele>
        <time>2023-08-29T11:43:17Z</time>
      </trkpt>
      <trkpt lat="56.694975038990378" lon="-6.000702967867255">
        <ele>118.38</ele>
        <time>2023-08-29T11:43:24Z</time>
      </trkpt>
      <trkpt lat="56.695055002346635" lon="-6.000845041126013">
        <ele>118.38</ele>
        <time>2023-08-29T11:43:25Z</time>
      </trkpt>
      <trkpt lat="56.695139994844794" lon="-6.000954005867243">
        <ele>118.86</ele>
        <time>2023-08-29T11:43:26Z</time>
      </trkpt>
      <trkpt lat="56.695243008434772" lon="-6.001009996980429">
        <ele>119.34</ele>
        <time>2023-08-29T11:43:27Z</time>
      </trkpt>
      <trkpt lat="56.695360019803047" lon="-6.001051990315318">
        <ele>120.3</ele>
        <time>2023-08-29T11:43:28Z</time>
      </trkpt>
      <trkpt lat="56.695482982322574" lon="-6.001090966165066">
        <ele>120.78</ele>
        <time>2023-08-29T11:43:29Z</time>
      </trkpt>
      <trkpt lat="56.695614997297525" lon="-6.001103958114982">
        <ele>121.73999999999999</ele>
        <time>2023-08-29T11:43:30Z</time>
      </trkpt>
      <trkpt lat="56.695748018100858" lon="-6.00111803971231">
        <ele>122.22</ele>
        <time>2023-08-29T11:43:31Z</time>
      </trkpt>
      <trkpt lat="56.697273021563888" lon="-6.001276038587093">
        <ele>129.91999999999999</ele>
        <time>2023-08-29T11:43:42Z</time>
      </trkpt>
      <trkpt lat="56.698985025286674" lon="-6.001354996114969">
        <ele>138.09</ele>
        <time>2023-08-29T11:43:53Z</time>
      </trkpt>
      <trkpt lat="56.700128987431526" lon="-6.0012929700315">
        <ele>146.25999999999999</ele>
        <time>2023-08-29T11:44:01Z</time>
      </trkpt>
      <trkpt lat="56.700496030971408" lon="-6.001365976408124">
        <ele>149.13999999999999</ele>
        <time>2023-08-29T11:44:04Z</time>
      </trkpt>
      <trkpt lat="56.70166002586484" lon="-6.001819018274546">
        <ele>157.31</ele>
        <time>2023-08-29T11:44:12Z</time>
      </trkpt>
      <trkpt lat="56.703000962734222" lon="-6.002351017668843">
        <ele>166.93000000000001</ele>
        <time>2023-08-29T11:44:21Z</time>
      </trkpt>
      <trkpt lat="56.703113028779626" lon="-6.002398040145636">
        <ele>167.88999999999999</ele>
        <time>2023-08-29T11:44:22Z</time>
      </trkpt>
      <trkpt lat="56.703230040147901" lon="-6.002395022660494">
        <ele>169.33000000000001</ele>
        <time>2023-08-29T11:44:23Z</time>
      </trkpt>
      <trkpt lat="56.703342022374272" lon="-6.002350011840463">
        <ele>170.28999999999999</ele>
        <time>2023-08-29T11:44:24Z</time>
      </trkpt>
      <trkpt lat="56.703432966023684" lon="-6.002266025170684">
        <ele>171.25</ele>
        <time>2023-08-29T11:44:25Z</time>
      </trkpt>
      <trkpt lat="56.703521981835365" lon="-6.002182960510254">
        <ele>172.69</ele>
        <time>2023-08-29T11:44:26Z</time>
      </trkpt>
      <trkpt lat="56.703617032617331" lon="-6.002095034345985">
        <ele>173.66</ele>
        <time>2023-08-29T11:44:27Z</time>
      </trkpt>
      <trkpt lat="56.703730020672083" lon="-6.002076007425785">
        <ele>175.09999999999999</ele>
        <time>2023-08-29T11:44:28Z</time>
      </trkpt>
      <trkpt lat="56.703851977363229" lon="-6.002076007425785">
        <ele>176.06</ele>
        <time>2023-08-29T11:44:29Z</time>
      </trkpt>
      <trkpt lat="56.703971000388265" lon="-6.002125963568687">
        <ele>177.02000000000001</ele>
        <time>2023-08-29T11:44:30Z</time>
      </trkpt>
      <trkpt lat="56.704087005928159" lon="-6.002202993258834">
        <ele>177.97999999999999</ele>
        <time>2023-08-29T11:44:31Z</time>
      </trkpt>
      <trkpt lat="56.704206028953195" lon="-6.002282034605742">
        <ele>179.41999999999999</ele>
        <time>2023-08-29T11:44:32Z</time>
      </trkpt>
      <trkpt lat="56.70557202771306" lon="-6.003190968185663">
        <ele>186.15000000000001</ele>
        <time>2023-08-29T11:44:42Z</time>
      </trkpt>
      <trkpt lat="56.706768041476607" lon="-6.004167962819338">
        <ele>183.27000000000001</ele>
        <time>2023-08-29T11:44:50Z</time>
      </trkpt>
      <trkpt lat="56.707819970324636" lon="-6.004915041849017">
        <ele>178.94</ele>
        <time>2023-08-29T11:44:58Z</time>
      </trkpt>
      <trkpt lat="56.709079016000032" lon="-6.005878960713744">
        <ele>170.77000000000001</ele>
        <time>2023-08-29T11:45:07Z</time>
      </trkpt>
      <trkpt lat="56.710124993696809" lon="-6.00698696449399">
        <ele>159.24000000000001</ele>
        <time>2023-08-29T11:45:15Z</time>
      </trkpt>
      <trkpt lat="56.710381982848048" lon="-6.007376974448562">
        <ele>155.38999999999999</ele>
        <time>2023-08-29T11:45:17Z</time>
      </trkpt>
      <trkpt lat="56.710492037236691" lon="-6.007609991356731">
        <ele>153.94999999999999</ele>
        <time>2023-08-29T11:45:18Z</time>
      </trkpt>
      <trkpt lat="56.711479006335139" lon="-6.009343033656478">
        <ele>148.18000000000001</ele>
        <time>2023-08-29T11:45:27Z</time>
      </trkpt>
      <trkpt lat="56.711555030196905" lon="-6.009457027539611">
        <ele>147.22</ele>
        <time>2023-08-29T11:45:28Z</time>
      </trkpt>
      <trkpt lat="56.711634993553162" lon="-6.009708987548947">
        <ele>146.74000000000001</ele>
        <time>2023-08-29T11:45:29Z</time>
      </trkpt>
      <trkpt lat="56.711697019636631" lon="-6.00990504026413">
        <ele>146.25999999999999</ele>
        <time>2023-08-29T11:45:30Z</time>
      </trkpt>
      <trkpt lat="56.711813025176525" lon="-6.01027300581336">
        <ele>146.25999999999999</ele>
        <time>2023-08-29T11:45:32Z</time>
      </trkpt>
      <trkpt lat="56.711918972432613" lon="-6.010413989424706">
        <ele>145.78</ele>
        <time>2023-08-29T11:45:33Z</time>
      </trkpt>
      <trkpt lat="56.71201997436583" lon="-6.010541981086135">
        <ele>145.78</ele>
        <time>2023-08-29T11:45:34Z</time>
      </trkpt>
      <trkpt lat="56.71214503236115" lon="-6.010647006332874">
        <ele>146.25999999999999</ele>
        <time>2023-08-29T11:45:35Z</time>
      </trkpt>
      <trkpt lat="56.712282998487353" lon="-6.010763011872768">
        <ele>146.25999999999999</ele>
        <time>2023-08-29T11:45:36Z</time>
      </trkpt>
      <trkpt lat="56.712429011240602" lon="-6.010884968563914">
        <ele>146.74000000000001</ele>
        <time>2023-08-29T11:45:37Z</time>
      </trkpt>
      <trkpt lat="56.713808001950383" lon="-6.012439979240298">
        <ele>145.30000000000001</ele>
        <time>2023-08-29T11:45:47Z</time>
      </trkpt>
      <trkpt lat="56.713905986398458" lon="-6.012640977278352">
        <ele>145.78</ele>
        <time>2023-08-29T11:45:48Z</time>
      </trkpt>
      <trkpt lat="56.71429599635303" lon="-6.013467013835907">
        <ele>145.78</ele>
        <time>2023-08-29T11:45:52Z</time>
      </trkpt>
      <trkpt lat="56.714388029649854" lon="-6.013684021309018">
        <ele>146.25999999999999</ele>
        <time>2023-08-29T11:45:53Z</time>
      </trkpt>
      <trkpt lat="56.714438991621137" lon="-6.013908991590142">
        <ele>146.25999999999999</ele>
        <time>2023-08-29T11:45:54Z</time>
      </trkpt>
      <trkpt lat="56.714494982734323" lon="-6.014156006276608">
        <ele>146.25999999999999</ele>
        <time>2023-08-29T11:45:55Z</time>
      </trkpt>
      <trkpt lat="56.714542005211115" lon="-6.014445014297962">
        <ele>146.74000000000001</ele>
        <time>2023-08-29T11:45:56Z</time>
      </trkpt>
      <trkpt lat="56.714794971048832" lon="-6.016366984695196">
        <ele>145.30000000000001</ele>
        <time>2023-08-29T11:46:03Z</time>
      </trkpt>
      <trkpt lat="56.714849034324288" lon="-6.016500005498529">
        <ele>144.81999999999999</ele>
        <time>2023-08-29T11:46:04Z</time>
      </trkpt>
      <trkpt lat="56.714911982417107" lon="-6.016594972461462">
        <ele>144.34</ele>
        <time>2023-08-29T11:46:05Z</time>
      </trkpt>
      <trkpt lat="56.714985994622111" lon="-6.01667501963675">
        <ele>144.34</ele>
        <time>2023-08-29T11:46:06Z</time>
      </trkpt>
      <trkpt lat="56.715082973241806" lon="-6.016744002699852">
        <ele>143.84999999999999</ele>
        <time>2023-08-29T11:46:07Z</time>
      </trkpt>
      <trkpt lat="56.715307021513581" lon="-6.016903007403016">
        <ele>143.37</ele>
        <time>2023-08-29T11:46:09Z</time>
      </trkpt>
      <trkpt lat="56.715415986254811" lon="-6.016996968537569">
        <ele>142.88999999999999</ele>
        <time>2023-08-29T11:46:10Z</time>
      </trkpt>
      <trkpt lat="56.71549896709621" lon="-6.017122026532888">
        <ele>142.88999999999999</ele>
        <time>2023-08-29T11:46:11Z</time>
      </trkpt>
      <trkpt lat="56.715574990957975" lon="-6.01725596934557">
        <ele>142.88999999999999</ele>
        <time>2023-08-29T11:46:12Z</time>
      </trkpt>
      <trkpt lat="56.715620001778007" lon="-6.017440035939217">
        <ele>142.88999999999999</ele>
        <time>2023-08-29T11:46:13Z</time>
      </trkpt>
      <trkpt lat="56.715670041739941" lon="-6.017642961815">
        <ele>143.37</ele>
        <time>2023-08-29T11:46:14Z</time>
      </trkpt>
      <trkpt lat="56.715974975377321" lon="-6.019112979993224">
        <ele>144.81999999999999</ele>
        <time>2023-08-29T11:46:20Z</time>
      </trkpt>
      <trkpt lat="56.716053010895848" lon="-6.01929796859622">
        <ele>144.81999999999999</ele>
        <time>2023-08-29T11:46:21Z</time>
      </trkpt>
      <trkpt lat="56.71612199395895" lon="-6.019462002441287">
        <ele>145.30000000000001</ele>
        <time>2023-08-29T11:46:22Z</time>
      </trkpt>
      <trkpt lat="56.716203968971968" lon="-6.019569961354137">
        <ele>145.30000000000001</ele>
        <time>2023-08-29T11:46:23Z</time>
      </trkpt>
      <trkpt lat="56.716307988390326" lon="-6.019659982994199">
        <ele>145.30000000000001</ele>
        <time>2023-08-29T11:46:24Z</time>
      </trkpt>
      <trkpt lat="56.716420976445079" lon="-6.019757967442274">
        <ele>145.30000000000001</ele>
        <time>2023-08-29T11:46:25Z</time>
      </trkpt>
      <trkpt lat="56.71655198559165" lon="-6.019826028496027">
        <ele>145.30000000000001</ele>
        <time>2023-08-29T11:46:26Z</time>
      </trkpt>
      <trkpt lat="56.716695986688137" lon="-6.019871961325407">
        <ele>145.30000000000001</ele>
        <time>2023-08-29T11:46:27Z</time>
      </trkpt>
      <trkpt lat="56.717933993786573" lon="-6.020427010953426">
        <ele>144.81999999999999</ele>
        <time>2023-08-29T11:46:35Z</time>
      </trkpt>
      <trkpt lat="56.718244040384889" lon="-6.02047897875309">
        <ele>143.84999999999999</ele>
        <time>2023-08-29T11:46:37Z</time>
      </trkpt>
      <trkpt lat="56.718676965683699" lon="-6.020493982359767">
        <ele>143.84999999999999</ele>
        <time>2023-08-29T11:46:40Z</time>
      </trkpt>
      <trkpt lat="56.719784969463944" lon="-6.020830012857914">
        <ele>138.09</ele>
        <time>2023-08-29T11:46:47Z</time>
      </trkpt>
      <trkpt lat="56.720579992979765" lon="-6.021122960373759">
        <ele>135.19999999999999</ele>
        <time>2023-08-29T11:46:52Z</time>
      </trkpt>
      <trkpt lat="56.720844022929668" lon="-6.021160008385778">
        <ele>135.19999999999999</ele>
        <time>2023-08-29T11:46:54Z</time>
      </trkpt>
      <trkpt lat="56.720957010984421" lon="-6.021199990063906">
        <ele>135.19999999999999</ele>
        <time>2023-08-29T11:46:55Z</time>
      </trkpt>
      <trkpt lat="56.721048038452864" lon="-6.021300991997123">
        <ele>135.68000000000001</ele>
        <time>2023-08-29T11:46:56Z</time>
      </trkpt>
      <trkpt lat="56.72114702872932" lon="-6.021409034729004">
        <ele>136.16</ele>
        <time>2023-08-29T11:46:57Z</time>
      </trkpt>
      <trkpt lat="56.721207965165377" lon="-6.021554041653872">
        <ele>136.63999999999999</ele>
        <time>2023-08-29T11:46:58Z</time>
      </trkpt>
      <trkpt lat="56.72127602621913" lon="-6.021715980023146">
        <ele>136.63999999999999</ele>
        <time>2023-08-29T11:46:59Z</time>
      </trkpt>
      <trkpt lat="56.72149102203548" lon="-6.022225013002753">
        <ele>138.09</ele>
        <time>2023-08-29T11:47:02Z</time>
      </trkpt>
      <trkpt lat="56.72155698761344" lon="-6.022375971078873">
        <ele>138.09</ele>
        <time>2023-08-29T11:47:03Z</time>
      </trkpt>
      <trkpt lat="56.721656983718276" lon="-6.022469010204077">
        <ele>138.56999999999999</ele>
        <time>2023-08-29T11:47:04Z</time>
      </trkpt>
      <trkpt lat="56.721766032278538" lon="-6.022569006308913">
        <ele>138.56999999999999</ele>
        <time>2023-08-29T11:47:05Z</time>
      </trkpt>
      <trkpt lat="56.721884971484542" lon="-6.022661039605737">
        <ele>139.05000000000001</ele>
        <time>2023-08-29T11:47:06Z</time>
      </trkpt>
      <trkpt lat="56.722540017217398" lon="-6.023109974339604">
        <ele>139.05000000000001</ele>
        <time>2023-08-29T11:47:11Z</time>
      </trkpt>
      <trkpt lat="56.722638001665473" lon="-6.023260010406375">
        <ele>138.56999999999999</ele>
        <time>2023-08-29T11:47:12Z</time>
      </trkpt>
      <trkpt lat="56.722731040790677" lon="-6.023425972089171">
        <ele>139.05000000000001</ele>
        <time>2023-08-29T11:47:13Z</time>
      </trkpt>
      <trkpt lat="56.722915023565292" lon="-6.023754961788654">
        <ele>139.05000000000001</ele>
        <time>2023-08-29T11:47:15Z</time>
      </trkpt>
      <trkpt lat="56.723008984699845" lon="-6.023880019783974">
        <ele>138.56999999999999</ele>
        <time>2023-08-29T11:47:16Z</time>
      </trkpt>
      <trkpt lat="56.723120966926217" lon="-6.023951014503837">
        <ele>138.56999999999999</ele>
        <time>2023-08-29T11:47:17Z</time>
      </trkpt>
      <trkpt lat="56.723239989951253" lon="-6.024011028930545">
        <ele>138.56999999999999</ele>
        <time>2023-08-29T11:47:18Z</time>
      </trkpt>
      <trkpt lat="56.723372004926205" lon="-6.024033995345235">
        <ele>138.56999999999999</ele>
        <time>2023-08-29T11:47:19Z</time>
      </trkpt>
      <trkpt lat="56.723508965224028" lon="-6.024057967588306">
        <ele>138.56999999999999</ele>
        <time>2023-08-29T11:47:20Z</time>
      </trkpt>
      <trkpt lat="56.723935017362237" lon="-6.024132985621691">
        <ele>138.09</ele>
        <time>2023-08-29T11:47:23Z</time>
      </trkpt>
      <trkpt lat="56.724078012630343" lon="-6.024168021976948">
        <ele>138.09</ele>
        <time>2023-08-29T11:47:24Z</time>
      </trkpt>
      <trkpt lat="56.724207010120153" lon="-6.024292996153235">
        <ele>138.09</ele>
        <time>2023-08-29T11:47:25Z</time>
      </trkpt>
      <trkpt lat="56.724339025095105" lon="-6.024419981986284">
        <ele>137.61000000000001</ele>
        <time>2023-08-29T11:47:26Z</time>
      </trkpt>
      <trkpt lat="56.724471962079406" lon="-6.024548979476094">
        <ele>137.61000000000001</ele>
        <time>2023-08-29T11:47:27Z</time>
      </trkpt>
      <trkpt lat="56.724730040878057" lon="-6.024799011647701">
        <ele>137.61000000000001</ele>
        <time>2023-08-29T11:47:29Z</time>
      </trkpt>
      <trkpt lat="56.724874963983893" lon="-6.024879980832338">
        <ele>137.61000000000001</ele>
        <time>2023-08-29T11:47:30Z</time>
      </trkpt>
      <trkpt lat="56.725262040272355" lon="-6.025147028267384">
        <ele>137.61000000000001</ele>
        <time>2023-08-29T11:47:33Z</time>
      </trkpt>
      <trkpt lat="56.725385002791882" lon="-6.025265967473388">
        <ele>138.09</ele>
        <time>2023-08-29T11:47:34Z</time>
      </trkpt>
      <trkpt lat="56.726712025702" lon="-6.027272008359432">
        <ele>142.88999999999999</ele>
        <time>2023-08-29T11:47:45Z</time>
      </trkpt>
      <trkpt lat="56.727669993415475" lon="-6.028789971023798">
        <ele>145.78</ele>
        <time>2023-08-29T11:47:53Z</time>
      </trkpt>
      <trkpt lat="56.727747023105621" lon="-6.028983006253839">
        <ele>146.25999999999999</ele>
        <time>2023-08-29T11:47:54Z</time>
      </trkpt>
      <trkpt lat="56.727822041139007" lon="-6.029171012341976">
        <ele>146.25999999999999</ele>
        <time>2023-08-29T11:47:55Z</time>
      </trkpt>
      <trkpt lat="56.72787300311029" lon="-6.029382990673184">
        <ele>146.25999999999999</ele>
        <time>2023-08-29T11:47:56Z</time>
      </trkpt>
      <trkpt lat="56.72791700810194" lon="-6.029615001752973">
        <ele>145.78</ele>
        <time>2023-08-29T11:47:57Z</time>
      </trkpt>
      <trkpt lat="56.728247003629804" lon="-6.031401017680764">
        <ele>147.22</ele>
        <time>2023-08-29T11:48:04Z</time>
      </trkpt>
      <trkpt lat="56.72823702916503" lon="-6.031592963263392">
        <ele>148.18000000000001</ele>
        <time>2023-08-29T11:48:05Z</time>
      </trkpt>
      <trkpt lat="56.728225965052843" lon="-6.031779041513801">
        <ele>148.66</ele>
        <time>2023-08-29T11:48:06Z</time>
      </trkpt>
      <trkpt lat="56.728103002533317" lon="-6.032315986230969">
        <ele>147.22</ele>
        <time>2023-08-29T11:48:11Z</time>
      </trkpt>
      <trkpt lat="56.728103002533317" lon="-6.032315986230969">
        <ele>147.22</ele>
        <time>2023-08-29T11:48:30Z</time>
      </trkpt>
      <trkpt lat="56.728023961186409" lon="-6.032748995348811">
        <ele>145.30000000000001</ele>
        <time>2023-08-29T11:48:37Z</time>
      </trkpt>
      <trkpt lat="56.727992026135325" lon="-6.033188961446285">
        <ele>143.37</ele>
        <time>2023-08-29T11:48:40Z</time>
      </trkpt>
      <trkpt lat="56.727992026135325" lon="-6.033335980027914">
        <ele>142.88999999999999</ele>
        <time>2023-08-29T11:48:41Z</time>
      </trkpt>
      <trkpt lat="56.727992026135325" lon="-6.033654995262623">
        <ele>142.41</ele>
        <time>2023-08-29T11:48:43Z</time>
      </trkpt>
      <trkpt lat="56.727996971458197" lon="-6.034712037071586">
        <ele>141.44999999999999</ele>
        <time>2023-08-29T11:48:48Z</time>
      </trkpt>
      <trkpt lat="56.728049023076892" lon="-6.034903982654214">
        <ele>140.97</ele>
        <time>2023-08-29T11:48:49Z</time>
      </trkpt>
      <trkpt lat="56.728098979219794" lon="-6.035090982913971">
        <ele>140.49000000000001</ele>
        <time>2023-08-29T11:48:50Z</time>
      </trkpt>
      <trkpt lat="56.728189000859857" lon="-6.035428019240499">
        <ele>140.00999999999999</ele>
        <time>2023-08-29T11:48:52Z</time>
      </trkpt>
      <trkpt lat="56.728227976709604" lon="-6.035576965659857">
        <ele>140.00999999999999</ele>
        <time>2023-08-29T11:48:53Z</time>
      </trkpt>
      <trkpt lat="56.728227976709604" lon="-6.035737982019782">
        <ele>140.00999999999999</ele>
        <time>2023-08-29T11:48:54Z</time>
      </trkpt>
      <trkpt lat="56.728224037215114" lon="-6.035896986722946">
        <ele>140.00999999999999</ele>
        <time>2023-08-29T11:48:55Z</time>
      </trkpt>
      <trkpt lat="56.728199981153011" lon="-6.036051968112588">
        <ele>140.00999999999999</ele>
        <time>2023-08-29T11:48:56Z</time>
      </trkpt>
      <trkpt lat="56.728166034445167" lon="-6.036203010007739">
        <ele>140.00999999999999</ele>
        <time>2023-08-29T11:48:57Z</time>
      </trkpt>
      <trkpt lat="56.728118006139994" lon="-6.03633301332593">
        <ele>140.49000000000001</ele>
        <time>2023-08-29T11:48:58Z</time>
      </trkpt>
      <trkpt lat="56.728049023076892" lon="-6.036451030522585">
        <ele>140.49000000000001</ele>
        <time>2023-08-29T11:48:59Z</time>
      </trkpt>
      <trkpt lat="56.727978028357029" lon="-6.036542980000377">
        <ele>140.49000000000001</ele>
        <time>2023-08-29T11:49:00Z</time>
      </trkpt>
      <trkpt lat="56.727891024202108" lon="-6.036604000255466">
        <ele>140.97</ele>
        <time>2023-08-29T11:49:01Z</time>
      </trkpt>
      <trkpt lat="56.727801002562046" lon="-6.036642976105213">
        <ele>140.97</ele>
        <time>2023-08-29T11:49:02Z</time>
      </trkpt>
      <trkpt lat="56.726742032915354" lon="-6.037100041285157">
        <ele>142.41</ele>
        <time>2023-08-29T11:49:13Z</time>
      </trkpt>
      <trkpt lat="56.726646982133389" lon="-6.037184027954936">
        <ele>142.41</ele>
        <time>2023-08-29T11:49:14Z</time>
      </trkpt>
      <trkpt lat="56.725297998636961" lon="-6.038560001179576">
        <ele>140.49000000000001</ele>
        <time>2023-08-29T11:49:27Z</time>
      </trkpt>
      <trkpt lat="56.724945036694407" lon="-6.039089988917112">
        <ele>139.05000000000001</ele>
        <time>2023-08-29T11:49:31Z</time>
      </trkpt>
      <trkpt lat="56.724899020045996" lon="-6.039228038862348">
        <ele>138.56999999999999</ele>
        <time>2023-08-29T11:49:32Z</time>
      </trkpt>
      <trkpt lat="56.724868007004261" lon="-6.039403975009918">
        <ele>138.09</ele>
        <time>2023-08-29T11:49:33Z</time>
      </trkpt>
      <trkpt lat="56.724850991740823" lon="-6.039582006633282">
        <ele>137.61000000000001</ele>
        <time>2023-08-29T11:49:34Z</time>
      </trkpt>
      <trkpt lat="56.724841017276049" lon="-6.039779987186194">
        <ele>137.13</ele>
        <time>2023-08-29T11:49:35Z</time>
      </trkpt>
      <trkpt lat="56.724853003397584" lon="-6.039976961910725">
        <ele>136.63999999999999</ele>
        <time>2023-08-29T11:49:36Z</time>
      </trkpt>
      <trkpt lat="56.724864989519119" lon="-6.040179971605539">
        <ele>136.63999999999999</ele>
        <time>2023-08-29T11:49:37Z</time>
      </trkpt>
      <trkpt lat="56.724943025037646" lon="-6.041569020599127">
        <ele>137.61000000000001</ele>
        <time>2023-08-29T11:49:44Z</time>
      </trkpt>
      <trkpt lat="56.724915029481053" lon="-6.041774963960052">
        <ele>137.61000000000001</ele>
        <time>2023-08-29T11:49:45Z</time>
      </trkpt>
      <trkpt lat="56.724635995924473" lon="-6.043783016502857">
        <ele>138.09</ele>
        <time>2023-08-29T11:49:54Z</time>
      </trkpt>
      <trkpt lat="56.724508004263043" lon="-6.045387983322144">
        <ele>141.44999999999999</ele>
        <time>2023-08-29T11:50:03Z</time>
      </trkpt>
      <trkpt lat="56.724484032019973" lon="-6.045760978013277">
        <ele>142.88999999999999</ele>
        <time>2023-08-29T11:50:07Z</time>
      </trkpt>
      <trkpt lat="56.724472967907786" lon="-6.045934986323118">
        <ele>143.84999999999999</ele>
        <time>2023-08-29T11:50:09Z</time>
      </trkpt>
      <trkpt lat="56.724443966522813" lon="-6.046041017398238">
        <ele>144.34</ele>
        <time>2023-08-29T11:50:10Z</time>
      </trkpt>
      <trkpt lat="56.724413959309459" lon="-6.046150987967849">
        <ele>144.34</ele>
        <time>2023-08-29T11:50:11Z</time>
      </trkpt>
      <trkpt lat="56.724344976246357" lon="-6.046222988516092">
        <ele>144.81999999999999</ele>
        <time>2023-08-29T11:50:12Z</time>
      </trkpt>
      <trkpt lat="56.724257972091436" lon="-6.046293983235955">
        <ele>145.78</ele>
        <time>2023-08-29T11:50:13Z</time>
      </trkpt>
      <trkpt lat="56.724161999300122" lon="-6.046372018754482">
        <ele>146.25999999999999</ele>
        <time>2023-08-29T11:50:14Z</time>
      </trkpt>
      <trkpt lat="56.723185004666448" lon="-6.046943999826908">
        <ele>153.94999999999999</ele>
        <time>2023-08-29T11:50:24Z</time>
      </trkpt>
      <trkpt lat="56.723087020218372" lon="-6.047018012031913">
        <ele>154.91</ele>
        <time>2023-08-29T11:50:25Z</time>
      </trkpt>
      <trkpt lat="56.72297696582973" lon="-6.047115996479988">
        <ele>155.38999999999999</ele>
        <time>2023-08-29T11:50:26Z</time>
      </trkpt>
      <trkpt lat="56.721563022583723" lon="-6.048790030181408">
        <ele>161.16</ele>
        <time>2023-08-29T11:50:38Z</time>
      </trkpt>
      <trkpt lat="56.720344964414835" lon="-6.05034202337265">
        <ele>164.03999999999999</ele>
        <time>2023-08-29T11:50:49Z</time>
      </trkpt>
      <trkpt lat="56.720251003280282" lon="-6.050506979227066">
        <ele>163.56</ele>
        <time>2023-08-29T11:50:50Z</time>
      </trkpt>
      <trkpt lat="56.71945103444159" lon="-6.052440013736486">
        <ele>158.27000000000001</ele>
        <time>2023-08-29T11:50:59Z</time>
      </trkpt>
      <trkpt lat="56.719150962308049" lon="-6.053337967023253">
        <ele>155.38999999999999</ele>
        <time>2023-08-29T11:51:03Z</time>
      </trkpt>
      <trkpt lat="56.719052977859974" lon="-6.053505018353462">
        <ele>154.43000000000001</ele>
        <time>2023-08-29T11:51:04Z</time>
      </trkpt>
      <trkpt lat="56.717879008501768" lon="-6.05549999512732">
        <ele>144.81999999999999</ele>
        <time>2023-08-29T11:51:15Z</time>
      </trkpt>
      <trkpt lat="56.717786975204945" lon="-6.055654976516962">
        <ele>144.34</ele>
        <time>2023-08-29T11:51:16Z</time>
      </trkpt>
      <trkpt lat="56.71764699742198" lon="-6.055893022567034">
        <ele>144.81999999999999</ele>
        <time>2023-08-29T11:51:18Z</time>
      </trkpt>
      <trkpt lat="56.717584971338511" lon="-6.055998969823122">
        <ele>144.81999999999999</ele>
        <time>2023-08-29T11:51:19Z</time>
      </trkpt>
      <trkpt lat="56.717565022408962" lon="-6.056136013939977">
        <ele>144.81999999999999</ele>
        <time>2023-08-29T11:51:20Z</time>
      </trkpt>
      <trkpt lat="56.717542978003621" lon="-6.056304993107915">
        <ele>144.81999999999999</ele>
        <time>2023-08-29T11:51:21Z</time>
      </trkpt>
      <trkpt lat="56.717570973560214" lon="-6.056471038609743">
        <ele>144.81999999999999</ele>
        <time>2023-08-29T11:51:22Z</time>
      </trkpt>
      <trkpt lat="56.717601986601949" lon="-6.056661978363991">
        <ele>144.81999999999999</ele>
        <time>2023-08-29T11:51:23Z</time>
      </trkpt>
      <trkpt lat="56.717638028785586" lon="-6.056877980008721">
        <ele>144.34</ele>
        <time>2023-08-29T11:51:24Z</time>
      </trkpt>
      <trkpt lat="56.71766996383667" lon="-6.057121977210045">
        <ele>143.84999999999999</ele>
        <time>2023-08-29T11:51:25Z</time>
      </trkpt>
      <trkpt lat="56.71766703017056" lon="-6.057380978018045">
        <ele>143.84999999999999</ele>
        <time>2023-08-29T11:51:26Z</time>
      </trkpt>
      <trkpt lat="56.717651020735502" lon="-6.058677993714809">
        <ele>141.44999999999999</ele>
        <time>2023-08-29T11:51:31Z</time>
      </trkpt>
      <trkpt lat="56.717621013522148" lon="-6.058888966217637">
        <ele>141.44999999999999</ele>
        <time>2023-08-29T11:51:32Z</time>
      </trkpt>
      <trkpt lat="56.71756200492382" lon="-6.059056017547846">
        <ele>141.44999999999999</ele>
        <time>2023-08-29T11:51:33Z</time>
      </trkpt>
      <trkpt lat="56.717493021860719" lon="-6.059218961745501">
        <ele>140.97</ele>
        <time>2023-08-29T11:51:34Z</time>
      </trkpt>
      <trkpt lat="56.717398976907134" lon="-6.059368997812271">
        <ele>140.49000000000001</ele>
        <time>2023-08-29T11:51:35Z</time>
      </trkpt>
      <trkpt lat="56.716966973617673" lon="-6.059977021068335">
        <ele>137.61000000000001</ele>
        <time>2023-08-29T11:51:39Z</time>
      </trkpt>
      <trkpt lat="56.716839987784624" lon="-6.060094032436609">
        <ele>137.13</ele>
        <time>2023-08-29T11:51:40Z</time>
      </trkpt>
      <trkpt lat="56.716709984466434" lon="-6.060167960822582">
        <ele>136.16</ele>
        <time>2023-08-29T11:51:41Z</time>
      </trkpt>
      <trkpt lat="56.716571012511849" lon="-6.060216994956136">
        <ele>135.68000000000001</ele>
        <time>2023-08-29T11:51:42Z</time>
      </trkpt>
      <trkpt lat="56.716434974223375" lon="-6.060265023261309">
        <ele>135.19999999999999</ele>
        <time>2023-08-29T11:51:43Z</time>
      </trkpt>
      <trkpt lat="56.716290973126888" lon="-6.060315985232592">
        <ele>134.24000000000001</ele>
        <time>2023-08-29T11:51:44Z</time>
      </trkpt>
      <trkpt lat="56.716145966202021" lon="-6.060367031022906">
        <ele>133.75999999999999</ele>
        <time>2023-08-29T11:51:45Z</time>
      </trkpt>
      <trkpt lat="56.715506007894874" lon="-6.060648998245597">
        <ele>129.91999999999999</ele>
        <time>2023-08-29T11:51:50Z</time>
      </trkpt>
      <trkpt lat="56.715410035103559" lon="-6.060738014057279">
        <ele>129.43000000000001</ele>
        <time>2023-08-29T11:51:51Z</time>
      </trkpt>
      <trkpt lat="56.715340968221426" lon="-6.06091202236712">
        <ele>128.47</ele>
        <time>2023-08-29T11:51:52Z</time>
      </trkpt>
      <trkpt lat="56.715092025697231" lon="-6.061534965410829">
        <ele>127.03</ele>
        <time>2023-08-29T11:51:55Z</time>
      </trkpt>
      <trkpt lat="56.714984988793731" lon="-6.061735963448882">
        <ele>126.06999999999999</ele>
        <time>2023-08-29T11:51:56Z</time>
      </trkpt>
      <trkpt lat="56.714072031900287" lon="-6.063230037689209">
        <ele>119.34</ele>
        <time>2023-08-29T11:52:04Z</time>
      </trkpt>
      <trkpt lat="56.713182963430882" lon="-6.063978038728237">
        <ele>113.09</ele>
        <time>2023-08-29T11:52:11Z</time>
      </trkpt>
      <trkpt lat="56.713034017011523" lon="-6.064097983762622">
        <ele>111.17</ele>
        <time>2023-08-29T11:52:12Z</time>
      </trkpt>
      <trkpt lat="56.712100021541119" lon="-6.065325010567904">
        <ele>103.48</ele>
        <time>2023-08-29T11:52:19Z</time>
      </trkpt>
      <trkpt lat="56.712009999901056" lon="-6.065488960593939">
        <ele>103</ele>
        <time>2023-08-29T11:52:20Z</time>
      </trkpt>
      <trkpt lat="56.71184797771275" lon="-6.065782997757196">
        <ele>102.04000000000001</ele>
        <time>2023-08-29T11:52:22Z</time>
      </trkpt>
      <trkpt lat="56.711744964122772" lon="-6.065888023003936">
        <ele>102.04000000000001</ele>
        <time>2023-08-29T11:52:23Z</time>
      </trkpt>
      <trkpt lat="56.711641028523445" lon="-6.065904032438994">
        <ele>102.04000000000001</ele>
        <time>2023-08-29T11:52:24Z</time>
      </trkpt>
      <trkpt lat="56.711539020761847" lon="-6.065891040489078">
        <ele>102.04000000000001</ele>
        <time>2023-08-29T11:52:25Z</time>
      </trkpt>
      <trkpt lat="56.711431983858347" lon="-6.065876958891749">
        <ele>102.04000000000001</ele>
        <time>2023-08-29T11:52:26Z</time>
      </trkpt>
      <trkpt lat="56.711231991648674" lon="-6.065850974991918">
        <ele>101.56</ele>
        <time>2023-08-29T11:52:28Z</time>
      </trkpt>
      <trkpt lat="56.711164014413953" lon="-6.065901014953852">
        <ele>101.08</ele>
        <time>2023-08-29T11:52:29Z</time>
      </trkpt>
      <trkpt lat="56.711088996380568" lon="-6.06598399579525">
        <ele>101.08</ele>
        <time>2023-08-29T11:52:30Z</time>
      </trkpt>
      <trkpt lat="56.710893027484417" lon="-6.066203014925122">
        <ele>99.150000000000006</ele>
        <time>2023-08-29T11:52:32Z</time>
      </trkpt>
      <trkpt lat="56.710770986974239" lon="-6.066300999373198">
        <ele>98.670000000000002</ele>
        <time>2023-08-29T11:52:33Z</time>
      </trkpt>
      <trkpt lat="56.710637966170907" lon="-6.066361013799906">
        <ele>97.709999999999994</ele>
        <time>2023-08-29T11:52:34Z</time>
      </trkpt>
      <trkpt lat="56.710381982848048" lon="-6.066476013511419">
        <ele>96.269999999999996</ele>
        <time>2023-08-29T11:52:36Z</time>
      </trkpt>
      <trkpt lat="56.710258014500141" lon="-6.066530998796225">
        <ele>95.790000000000006</ele>
        <time>2023-08-29T11:52:37Z</time>
      </trkpt>
      <trkpt lat="56.710138991475105" lon="-6.066635018214583">
        <ele>94.829999999999998</ele>
        <time>2023-08-29T11:52:38Z</time>
      </trkpt>
      <trkpt lat="56.710023991763592" lon="-6.06677801348269">
        <ele>93.870000000000005</ele>
        <time>2023-08-29T11:52:39Z</time>
      </trkpt>
      <trkpt lat="56.709906980395317" lon="-6.066922014579177">
        <ele>93.390000000000001</ele>
        <time>2023-08-29T11:52:40Z</time>
      </trkpt>
      <trkpt lat="56.709782006219029" lon="-6.067047994583845">
        <ele>92.900000000000006</ele>
        <time>2023-08-29T11:52:41Z</time>
      </trkpt>
      <trkpt lat="56.709657032042742" lon="-6.067140027880669">
        <ele>92.900000000000006</ele>
        <time>2023-08-29T11:52:42Z</time>
      </trkpt>
      <trkpt lat="56.709538009017706" lon="-6.06722803786397">
        <ele>92.420000000000002</ele>
        <time>2023-08-29T11:52:43Z</time>
      </trkpt>
      <trkpt lat="56.708782967180014" lon="-6.068198997527361">
        <ele>88.099999999999994</ele>
        <time>2023-08-29T11:52:50Z</time>
      </trkpt>
      <trkpt lat="56.708694035187364" lon="-6.068269992247224">
        <ele>88.099999999999994</ele>
        <time>2023-08-29T11:52:51Z</time>
      </trkpt>
      <trkpt lat="56.708607031032443" lon="-6.068323971703649">
        <ele>87.620000000000005</ele>
        <time>2023-08-29T11:52:52Z</time>
      </trkpt>
      <trkpt lat="56.708516003564" lon="-6.068349033594132">
        <ele>87.620000000000005</ele>
        <time>2023-08-29T11:52:53Z</time>
      </trkpt>
      <trkpt lat="56.708425981923938" lon="-6.068374011665583">
        <ele>87.140000000000001</ele>
        <time>2023-08-29T11:52:54Z</time>
      </trkpt>
      <trkpt lat="56.708334032446146" lon="-6.068399995565414">
        <ele>87.140000000000001</ele>
        <time>2023-08-29T11:52:55Z</time>
      </trkpt>
      <trkpt lat="56.708238981664181" lon="-6.068426985293627">
        <ele>87.620000000000005</ele>
        <time>2023-08-29T11:52:56Z</time>
      </trkpt>
      <trkpt lat="56.708136973902583" lon="-6.06845498085022">
        <ele>87.620000000000005</ele>
        <time>2023-08-29T11:52:57Z</time>
      </trkpt>
      <trkpt lat="56.707045985385776" lon="-6.068858988583088">
        <ele>87.140000000000001</ele>
        <time>2023-08-29T11:53:05Z</time>
      </trkpt>
      <trkpt lat="56.706456989049911" lon="-6.069089993834496">
        <ele>85.689999999999998</ele>
        <time>2023-08-29T11:53:09Z</time>
      </trkpt>
      <trkpt lat="56.706306030973792" lon="-6.06909703463316">
        <ele>84.730000000000004</ele>
        <time>2023-08-29T11:53:10Z</time>
      </trkpt>
      <trkpt lat="56.706163035705686" lon="-6.069103991612792">
        <ele>84.25</ele>
        <time>2023-08-29T11:53:11Z</time>
      </trkpt>
      <trkpt lat="56.70602498576045" lon="-6.06910097412765">
        <ele>83.769999999999996</ele>
        <time>2023-08-29T11:53:12Z</time>
      </trkpt>
      <trkpt lat="56.705891964957118" lon="-6.069029979407787">
        <ele>83.290000000000006</ele>
        <time>2023-08-29T11:53:13Z</time>
      </trkpt>
      <trkpt lat="56.705760033801198" lon="-6.068957978859544">
        <ele>82.329999999999998</ele>
        <time>2023-08-29T11:53:14Z</time>
      </trkpt>
      <trkpt lat="56.705642016604543" lon="-6.068839961662889">
        <ele>81.849999999999994</ele>
        <time>2023-08-29T11:53:15Z</time>
      </trkpt>
      <trkpt lat="56.7055319622159" lon="-6.068729991093278">
        <ele>81.370000000000005</ele>
        <time>2023-08-29T11:53:16Z</time>
      </trkpt>
      <trkpt lat="56.70458204112947" lon="-6.067804964259267">
        <ele>75.599999999999994</ele>
        <time>2023-08-29T11:53:24Z</time>
      </trkpt>
      <trkpt lat="56.704454971477389" lon="-6.067732041701675">
        <ele>74.640000000000001</ele>
        <time>2023-08-29T11:53:25Z</time>
      </trkpt>
      <trkpt lat="56.704328991472721" lon="-6.067690970376134">
        <ele>73.680000000000007</ele>
        <time>2023-08-29T11:53:26Z</time>
      </trkpt>
      <trkpt lat="56.70419798232615" lon="-6.067685019224882">
        <ele>73.200000000000003</ele>
        <time>2023-08-29T11:53:27Z</time>
      </trkpt>
      <trkpt lat="56.704065967351198" lon="-6.067678984254599">
        <ele>72.239999999999995</ele>
        <time>2023-08-29T11:53:28Z</time>
      </trkpt>
      <trkpt lat="56.703934036195278" lon="-6.067674038931727">
        <ele>71.760000000000005</ele>
        <time>2023-08-29T11:53:29Z</time>
      </trkpt>
      <trkpt lat="56.70381098985672" lon="-6.067733969539404">
        <ele>70.790000000000006</ele>
        <time>2023-08-29T11:53:30Z</time>
      </trkpt>
      <trkpt lat="56.703691966831684" lon="-6.067823991179466">
        <ele>69.829999999999998</ele>
        <time>2023-08-29T11:53:31Z</time>
      </trkpt>
      <trkpt lat="56.703580990433693" lon="-6.067906972020865">
        <ele>69.349999999999994</ele>
        <time>2023-08-29T11:53:32Z</time>
      </trkpt>
      <trkpt lat="56.703493986278772" lon="-6.068028006702662">
        <ele>68.870000000000005</ele>
        <time>2023-08-29T11:53:33Z</time>
      </trkpt>
      <trkpt lat="56.703417040407658" lon="-6.068159015849233">
        <ele>68.870000000000005</ele>
        <time>2023-08-29T11:53:34Z</time>
      </trkpt>
      <trkpt lat="56.703353002667427" lon="-6.068330006673932">
        <ele>68.870000000000005</ele>
        <time>2023-08-29T11:53:35Z</time>
      </trkpt>
      <trkpt lat="56.703287959098816" lon="-6.068522036075592">
        <ele>68.870000000000005</ele>
        <time>2023-08-29T11:53:36Z</time>
      </trkpt>
      <trkpt lat="56.702699968591332" lon="-6.070211995393038">
        <ele>67.909999999999997</ele>
        <time>2023-08-29T11:53:44Z</time>
      </trkpt>
      <trkpt lat="56.702078031376004" lon="-6.071701962500811">
        <ele>62.619999999999997</ele>
        <time>2023-08-29T11:53:51Z</time>
      </trkpt>
      <trkpt lat="56.701156022027135" lon="-6.073989970609546">
        <ele>55.409999999999997</ele>
        <time>2023-08-29T11:54:01Z</time>
      </trkpt>
      <trkpt lat="56.70060901902616" lon="-6.075753020122647">
        <ele>52.049999999999997</ele>
        <time>2023-08-29T11:54:09Z</time>
      </trkpt>
      <trkpt lat="56.700186990201473" lon="-6.077438034117222">
        <ele>50.130000000000003</ele>
        <time>2023-08-29T11:54:16Z</time>
      </trkpt>
      <trkpt lat="56.700139967724681" lon="-6.077627968043089">
        <ele>50.130000000000003</ele>
        <time>2023-08-29T11:54:17Z</time>
      </trkpt>
      <trkpt lat="56.700125969946384" lon="-6.07782200910151">
        <ele>49.649999999999999</ele>
        <time>2023-08-29T11:54:18Z</time>
      </trkpt>
      <trkpt lat="56.699980963021517" lon="-6.079879011958838">
        <ele>46.280000000000001</ele>
        <time>2023-08-29T11:54:25Z</time>
      </trkpt>
      <trkpt lat="56.69979496859014" lon="-6.08252702280879">
        <ele>45.799999999999997</ele>
        <time>2023-08-29T11:54:34Z</time>
      </trkpt>
      <trkpt lat="56.699617020785809" lon="-6.084994990378618">
        <ele>42.920000000000002</ele>
        <time>2023-08-29T11:54:44Z</time>
      </trkpt>
      <trkpt lat="56.699405964463949" lon="-6.087434040382505">
        <ele>42.920000000000002</ele>
        <time>2023-08-29T11:54:55Z</time>
      </trkpt>
      <trkpt lat="56.699158027768135" lon="-6.089938972145319">
        <ele>43.399999999999999</ele>
        <time>2023-08-29T11:55:06Z</time>
      </trkpt>
      <trkpt lat="56.698840018361807" lon="-6.093187965452671">
        <ele>48.200000000000003</ele>
        <time>2023-08-29T11:55:19Z</time>
      </trkpt>
      <trkpt lat="56.698650000616908" lon="-6.095695998519659">
        <ele>45.799999999999997</ele>
        <time>2023-08-29T11:55:29Z</time>
      </trkpt>
      <trkpt lat="56.698446990922093" lon="-6.097152018919587">
        <ele>40.509999999999998</ele>
        <time>2023-08-29T11:55:36Z</time>
      </trkpt>
      <trkpt lat="56.698257979005575" lon="-6.099281022325158">
        <ele>31.379999999999999</ele>
        <time>2023-08-29T11:55:46Z</time>
      </trkpt>
      <trkpt lat="56.698162006214261" lon="-6.100953966379166">
        <ele>26.57</ele>
        <time>2023-08-29T11:55:54Z</time>
      </trkpt>
      <trkpt lat="56.698143985122442" lon="-6.101145995780826">
        <ele>26.09</ele>
        <time>2023-08-29T11:55:55Z</time>
      </trkpt>
      <trkpt lat="56.698028985410929" lon="-6.102446028962731">
        <ele>24.170000000000002</ele>
        <time>2023-08-29T11:56:02Z</time>
      </trkpt>
      <trkpt lat="56.697894036769867" lon="-6.104031968861818">
        <ele>23.690000000000001</ele>
        <time>2023-08-29T11:56:13Z</time>
      </trkpt>
      <trkpt lat="56.697854977101088" lon="-6.104428013786674">
        <ele>23.690000000000001</ele>
        <time>2023-08-29T11:56:17Z</time>
      </trkpt>
      <trkpt lat="56.697843996807933" lon="-6.104532033205032">
        <ele>23.690000000000001</ele>
        <time>2023-08-29T11:56:18Z</time>
      </trkpt>
      <trkpt lat="56.697832010686398" lon="-6.104654995724559">
        <ele>23.210000000000001</ele>
        <time>2023-08-29T11:56:19Z</time>
      </trkpt>
      <trkpt lat="56.69781700707972" lon="-6.104805031791329">
        <ele>23.210000000000001</ele>
        <time>2023-08-29T11:56:20Z</time>
      </trkpt>
      <trkpt lat="56.697799991816282" lon="-6.104975016787648">
        <ele>23.210000000000001</ele>
        <time>2023-08-29T11:56:21Z</time>
      </trkpt>
      <trkpt lat="56.697679040953517" lon="-6.106547964736819">
        <ele>22.73</ele>
        <time>2023-08-29T11:56:29Z</time>
      </trkpt>
      <trkpt lat="56.697597987949848" lon="-6.10811797901988">
        <ele>20.32</ele>
        <time>2023-08-29T11:56:37Z</time>
      </trkpt>
      <trkpt lat="56.697744000703096" lon="-6.10998697578907">
        <ele>16.48</ele>
        <time>2023-08-29T11:56:46Z</time>
      </trkpt>
      <trkpt lat="56.697862017899752" lon="-6.11284201964736">
        <ele>15.039999999999999</ele>
        <time>2023-08-29T11:56:59Z</time>
      </trkpt>
      <trkpt lat="56.697865035384893" lon="-6.112926006317139">
        <ele>14.56</ele>
        <time>2023-08-29T11:57:00Z</time>
      </trkpt>
      <trkpt lat="56.697895964607596" lon="-6.113040000200272">
        <ele>14.56</ele>
        <time>2023-08-29T11:57:01Z</time>
      </trkpt>
      <trkpt lat="56.697915997356176" lon="-6.113112000748515">
        <ele>14.56</ele>
        <time>2023-08-29T11:57:02Z</time>
      </trkpt>
      <trkpt lat="56.697929995134473" lon="-6.113162040710449">
        <ele>14.08</ele>
        <time>2023-08-29T11:57:03Z</time>
      </trkpt>
      <trkpt lat="56.697974000126123" lon="-6.113210991024971">
        <ele>14.08</ele>
        <time>2023-08-29T11:57:04Z</time>
      </trkpt>
      <trkpt lat="56.698023034259677" lon="-6.113264970481396">
        <ele>13.6</ele>
        <time>2023-08-29T11:57:05Z</time>
      </trkpt>
      <trkpt lat="56.698079025372863" lon="-6.113326996564865">
        <ele>13.6</ele>
        <time>2023-08-29T11:57:06Z</time>
      </trkpt>
      <trkpt lat="56.6981409676373" lon="-6.113395979627967">
        <ele>13.119999999999999</ele>
        <time>2023-08-29T11:57:07Z</time>
      </trkpt>
      <trkpt lat="56.698211962357163" lon="-6.113474015146494">
        <ele>13.119999999999999</ele>
        <time>2023-08-29T11:57:08Z</time>
      </trkpt>
      <trkpt lat="56.698283962905407" lon="-6.11355397850275">
        <ele>13.119999999999999</ele>
        <time>2023-08-29T11:57:09Z</time>
      </trkpt>
      <trkpt lat="56.698356969282031" lon="-6.113654980435967">
        <ele>13.6</ele>
        <time>2023-08-29T11:57:10Z</time>
      </trkpt>
      <trkpt lat="56.698415977880359" lon="-6.113779032602906">
        <ele>14.08</ele>
        <time>2023-08-29T11:57:11Z</time>
      </trkpt>
      <trkpt lat="56.698692999780178" lon="-6.114362999796867">
        <ele>14.56</ele>
        <time>2023-08-29T11:57:15Z</time>
      </trkpt>
      <trkpt lat="56.698776986449957" lon="-6.114489985629916">
        <ele>14.56</ele>
        <time>2023-08-29T11:57:16Z</time>
      </trkpt>
      <trkpt lat="56.698871031403542" lon="-6.114599034190178">
        <ele>14.56</ele>
        <time>2023-08-29T11:57:17Z</time>
      </trkpt>
      <trkpt lat="56.699548959732056" lon="-6.115439990535379">
        <ele>17.920000000000002</ele>
        <time>2023-08-29T11:57:25Z</time>
      </trkpt>
      <trkpt lat="56.699604028835893" lon="-6.11559396609664">
        <ele>18.399999999999999</ele>
        <time>2023-08-29T11:57:26Z</time>
      </trkpt>
      <trkpt lat="56.699661025777459" lon="-6.115752970799804">
        <ele>18.879999999999999</ele>
        <time>2023-08-29T11:57:27Z</time>
      </trkpt>
      <trkpt lat="56.699721040204167" lon="-6.115923039615154">
        <ele>19.359999999999999</ele>
        <time>2023-08-29T11:57:28Z</time>
      </trkpt>
      <trkpt lat="56.699784994125366" lon="-6.116100987419486">
        <ele>19.84</ele>
        <time>2023-08-29T11:57:29Z</time>
      </trkpt>
      <trkpt lat="56.70052201487124" lon="-6.117795975878835">
        <ele>23.690000000000001</ele>
        <time>2023-08-29T11:57:38Z</time>
      </trkpt>
      <trkpt lat="56.700601978227496" lon="-6.117952968925238">
        <ele>24.170000000000002</ele>
        <time>2023-08-29T11:57:39Z</time>
      </trkpt>
      <trkpt lat="56.701044961810112" lon="-6.118824016302824">
        <ele>28.5</ele>
        <time>2023-08-29T11:57:45Z</time>
      </trkpt>
      <trkpt lat="56.701119979843497" lon="-6.118971034884453">
        <ele>28.98</ele>
        <time>2023-08-29T11:57:46Z</time>
      </trkpt>
      <trkpt lat="56.701476965099573" lon="-6.119625996798277">
        <ele>31.379999999999999</ele>
        <time>2023-08-29T11:57:51Z</time>
      </trkpt>
      <trkpt lat="56.701558018103242" lon="-6.119720041751862">
        <ele>31.859999999999999</ele>
        <time>2023-08-29T11:57:52Z</time>
      </trkpt>
      <trkpt lat="56.701650973409414" lon="-6.119793970137835">
        <ele>32.340000000000003</ele>
        <time>2023-08-29T11:57:53Z</time>
      </trkpt>
      <trkpt lat="56.701753986999393" lon="-6.119875023141503">
        <ele>33.780000000000001</ele>
        <time>2023-08-29T11:57:54Z</time>
      </trkpt>
      <trkpt lat="56.701862029731274" lon="-6.119961021468043">
        <ele>34.259999999999998</ele>
        <time>2023-08-29T11:57:55Z</time>
      </trkpt>
      <trkpt lat="56.702380031347275" lon="-6.120419008657336">
        <ele>38.590000000000003</ele>
        <time>2023-08-29T11:58:00Z</time>
      </trkpt>
      <trkpt lat="56.702459994703531" lon="-6.120562003925443">
        <ele>39.07</ele>
        <time>2023-08-29T11:58:01Z</time>
      </trkpt>
      <trkpt lat="56.702541969716549" lon="-6.120704999193549">
        <ele>39.549999999999997</ele>
        <time>2023-08-29T11:58:02Z</time>
      </trkpt>
      <trkpt lat="56.702697034925222" lon="-6.12098503857851">
        <ele>40.509999999999998</ele>
        <time>2023-08-29T11:58:04Z</time>
      </trkpt>
      <trkpt lat="56.702742967754602" lon="-6.121148988604546">
        <ele>40.990000000000002</ele>
        <time>2023-08-29T11:58:05Z</time>
      </trkpt>
      <trkpt lat="56.702789990231395" lon="-6.121314028277993">
        <ele>41.950000000000003</ele>
        <time>2023-08-29T11:58:06Z</time>
      </trkpt>
      <trkpt lat="56.703167008236051" lon="-6.122546000406146">
        <ele>46.280000000000001</ele>
        <time>2023-08-29T11:58:14Z</time>
      </trkpt>
      <trkpt lat="56.703692972660065" lon="-6.123861959204078">
        <ele>44.840000000000003</ele>
        <time>2023-08-29T11:58:21Z</time>
      </trkpt>
      <trkpt lat="56.703779976814985" lon="-6.123983999714255">
        <ele>44.359999999999999</ele>
        <time>2023-08-29T11:58:22Z</time>
      </trkpt>
      <trkpt lat="56.703871004283428" lon="-6.124111991375685">
        <ele>43.880000000000003</ele>
        <time>2023-08-29T11:58:23Z</time>
      </trkpt>
      <trkpt lat="56.703967982903123" lon="-6.124249035492539">
        <ele>43.399999999999999</ele>
        <time>2023-08-29T11:58:24Z</time>
      </trkpt>
      <trkpt lat="56.704066973179579" lon="-6.124389013275504">
        <ele>42.920000000000002</ele>
        <time>2023-08-29T11:58:25Z</time>
      </trkpt>
      <trkpt lat="56.704159006476402" lon="-6.124518010765314">
        <ele>42.439999999999998</ele>
        <time>2023-08-29T11:58:26Z</time>
      </trkpt>
      <trkpt lat="56.704235030338168" lon="-6.124647008255124">
        <ele>41.950000000000003</ele>
        <time>2023-08-29T11:58:27Z</time>
      </trkpt>
      <trkpt lat="56.704291021451354" lon="-6.124796038493514">
        <ele>41.469999999999999</ele>
        <time>2023-08-29T11:58:28Z</time>
      </trkpt>
      <trkpt lat="56.704351035878062" lon="-6.124954037368298">
        <ele>40.990000000000002</ele>
        <time>2023-08-29T11:58:29Z</time>
      </trkpt>
      <trkpt lat="56.704729981720448" lon="-6.125799017027021">
        <ele>38.590000000000003</ele>
        <time>2023-08-29T11:58:35Z</time>
      </trkpt>
      <trkpt lat="56.704813968390226" lon="-6.125883003696799">
        <ele>38.590000000000003</ele>
        <time>2023-08-29T11:58:36Z</time>
      </trkpt>
      <trkpt lat="56.70490600168705" lon="-6.125975036993623">
        <ele>38.590000000000003</ele>
        <time>2023-08-29T11:58:37Z</time>
      </trkpt>
      <trkpt lat="56.705181011930108" lon="-6.126244012266398">
        <ele>38.109999999999999</ele>
        <time>2023-08-29T11:58:40Z</time>
      </trkpt>
      <trkpt lat="56.70527103357017" lon="-6.126321963965893">
        <ele>38.109999999999999</ele>
        <time>2023-08-29T11:58:41Z</time>
      </trkpt>
      <trkpt lat="56.705450993031263" lon="-6.126478035002947">
        <ele>38.109999999999999</ele>
        <time>2023-08-29T11:58:43Z</time>
      </trkpt>
      <trkpt lat="56.705530034378171" lon="-6.12659596838057">
        <ele>38.109999999999999</ele>
        <time>2023-08-29T11:58:44Z</time>
      </trkpt>
      <trkpt lat="56.705607986077666" lon="-6.126718008890748">
        <ele>38.109999999999999</ele>
        <time>2023-08-29T11:58:45Z</time>
      </trkpt>
      <trkpt lat="56.705664983019233" lon="-6.126863015815616">
        <ele>37.630000000000003</ele>
        <time>2023-08-29T11:58:46Z</time>
      </trkpt>
      <trkpt lat="56.70572399161756" lon="-6.127013973891735">
        <ele>37.630000000000003</ele>
        <time>2023-08-29T11:58:47Z</time>
      </trkpt>
      <trkpt lat="56.706354981288314" lon="-6.128635033965111">
        <ele>41.950000000000003</ele>
        <time>2023-08-29T11:58:57Z</time>
      </trkpt>
      <trkpt lat="56.706424970179796" lon="-6.128757996484637">
        <ele>43.399999999999999</ele>
        <time>2023-08-29T11:58:58Z</time>
      </trkpt>
      <trkpt lat="56.707154028117657" lon="-6.130028022453189">
        <ele>52.049999999999997</ele>
        <time>2023-08-29T11:59:06Z</time>
      </trkpt>
      <trkpt lat="56.707888031378388" lon="-6.131553025916219">
        <ele>59.259999999999998</ele>
        <time>2023-08-29T11:59:15Z</time>
      </trkpt>
      <trkpt lat="56.707945028319955" lon="-6.131757963448763">
        <ele>59.740000000000002</ele>
        <time>2023-08-29T11:59:16Z</time>
      </trkpt>
      <trkpt lat="56.708035971969366" lon="-6.132087958976626">
        <ele>60.219999999999999</ele>
        <time>2023-08-29T11:59:18Z</time>
      </trkpt>
      <trkpt lat="56.708124987781048" lon="-6.132261967286468">
        <ele>61.18</ele>
        <time>2023-08-29T11:59:19Z</time>
      </trkpt>
      <trkpt lat="56.708198999986053" lon="-6.132406974211335">
        <ele>62.140000000000001</ele>
        <time>2023-08-29T11:59:20Z</time>
      </trkpt>
      <trkpt lat="56.708853961899877" lon="-6.133842961862683">
        <ele>68.390000000000001</ele>
        <time>2023-08-29T11:59:29Z</time>
      </trkpt>
      <trkpt lat="56.709280014038086" lon="-6.135087003931403">
        <ele>71.760000000000005</ele>
        <time>2023-08-29T11:59:36Z</time>
      </trkpt>
      <trkpt lat="56.709269033744931" lon="-6.135243996977806">
        <ele>72.719999999999999</ele>
        <time>2023-08-29T11:59:37Z</time>
      </trkpt>
      <trkpt lat="56.709255035966635" lon="-6.135415993630886">
        <ele>73.200000000000003</ele>
        <time>2023-08-29T11:59:38Z</time>
      </trkpt>
      <trkpt lat="56.7092240229249" lon="-6.13581002689898">
        <ele>74.640000000000001</ele>
        <time>2023-08-29T11:59:40Z</time>
      </trkpt>
      <trkpt lat="56.709215976297855" lon="-6.136036003008485">
        <ele>74.640000000000001</ele>
        <time>2023-08-29T11:59:41Z</time>
      </trkpt>
      <trkpt lat="56.709215976297855" lon="-6.136888023465872">
        <ele>78</ele>
        <time>2023-08-29T11:59:45Z</time>
      </trkpt>
      <trkpt lat="56.709197033196688" lon="-6.137069994583726">
        <ele>78.969999999999999</ele>
        <time>2023-08-29T11:59:46Z</time>
      </trkpt>
      <trkpt lat="56.709100976586342" lon="-6.137725962325931">
        <ele>83.290000000000006</ele>
        <time>2023-08-29T11:59:50Z</time>
      </trkpt>
      <trkpt lat="56.709097037091851" lon="-6.137878010049462">
        <ele>84.25</ele>
        <time>2023-08-29T11:59:51Z</time>
      </trkpt>
      <trkpt lat="56.709120003506541" lon="-6.138035003095865">
        <ele>84.730000000000004</ele>
        <time>2023-08-29T11:59:52Z</time>
      </trkpt>
      <trkpt lat="56.709142969921231" lon="-6.138187972828746">
        <ele>84.730000000000004</ele>
        <time>2023-08-29T11:59:53Z</time>
      </trkpt>
      <trkpt lat="56.709198961034417" lon="-6.138309007510543">
        <ele>84.730000000000004</ele>
        <time>2023-08-29T11:59:54Z</time>
      </trkpt>
      <trkpt lat="56.709276996552944" lon="-6.138413026928902">
        <ele>84.730000000000004</ele>
        <time>2023-08-29T11:59:55Z</time>
      </trkpt>
      <trkpt lat="56.709360983222723" lon="-6.138525009155273">
        <ele>84.730000000000004</ele>
        <time>2023-08-29T11:59:56Z</time>
      </trkpt>
      <trkpt lat="56.709447987377644" lon="-6.138641014695168">
        <ele>85.209999999999994</ele>
        <time>2023-08-29T11:59:57Z</time>
      </trkpt>
      <trkpt lat="56.709540020674467" lon="-6.138762971386313">
        <ele>86.180000000000007</ele>
        <time>2023-08-29T11:59:58Z</time>
      </trkpt>
      <trkpt lat="56.709728026762605" lon="-6.139014009386301">
        <ele>87.620000000000005</ele>
        <time>2023-08-29T12:00:00Z</time>
      </trkpt>
      <trkpt lat="56.709816036745906" lon="-6.139143006876111">
        <ele>88.579999999999998</ele>
        <time>2023-08-29T12:00:01Z</time>
      </trkpt>
      <trkpt lat="56.71066302806139" lon="-6.140577988699079">
        <ele>95.310000000000002</ele>
        <time>2023-08-29T12:00:11Z</time>
      </trkpt>
      <trkpt lat="56.710826978087425" lon="-6.140830032527447">
        <ele>96.269999999999996</ele>
        <time>2023-08-29T12:00:13Z</time>
      </trkpt>
      <trkpt lat="56.710909958928823" lon="-6.140975039452314">
        <ele>96.75</ele>
        <time>2023-08-29T12:00:14Z</time>
      </trkpt>
      <trkpt lat="56.711600963026285" lon="-6.142037026584148">
        <ele>95.790000000000006</ele>
        <time>2023-08-29T12:00:21Z</time>
      </trkpt>
      <trkpt lat="56.712179984897375" lon="-6.142913019284606">
        <ele>93.390000000000001</ele>
        <time>2023-08-29T12:00:28Z</time>
      </trkpt>
      <trkpt lat="56.712222984060645" lon="-6.14305098541081">
        <ele>92.900000000000006</ele>
        <time>2023-08-29T12:00:29Z</time>
      </trkpt>
      <trkpt lat="56.712271012365818" lon="-6.143202027305961">
        <ele>91.939999999999998</ele>
        <time>2023-08-29T12:00:30Z</time>
      </trkpt>
      <trkpt lat="56.712306970730424" lon="-6.143397996202111">
        <ele>91.459999999999994</ele>
        <time>2023-08-29T12:00:31Z</time>
      </trkpt>
      <trkpt lat="56.712338989600539" lon="-6.143617015331984">
        <ele>90.5</ele>
        <time>2023-08-29T12:00:32Z</time>
      </trkpt>
      <trkpt lat="56.712501011788845" lon="-6.144731976091862">
        <ele>86.180000000000007</ele>
        <time>2023-08-29T12:00:37Z</time>
      </trkpt>
      <trkpt lat="56.712543005123734" lon="-6.144886035472155">
        <ele>85.209999999999994</ele>
        <time>2023-08-29T12:00:38Z</time>
      </trkpt>
      <trkpt lat="56.712690023705363" lon="-6.145431026816368">
        <ele>82.329999999999998</ele>
        <time>2023-08-29T12:00:41Z</time>
      </trkpt>
      <trkpt lat="56.712789013981819" lon="-6.145794969052076">
        <ele>80.409999999999997</ele>
        <time>2023-08-29T12:00:43Z</time>
      </trkpt>
      <trkpt lat="56.712842993438244" lon="-6.145992027595639">
        <ele>79.930000000000007</ele>
        <time>2023-08-29T12:00:44Z</time>
      </trkpt>
      <trkpt lat="56.712894039228559" lon="-6.146080959588289">
        <ele>79.450000000000003</ele>
        <time>2023-08-29T12:00:45Z</time>
      </trkpt>
      <trkpt lat="56.713119009509683" lon="-6.146469041705132">
        <ele>78</ele>
        <time>2023-08-29T12:00:48Z</time>
      </trkpt>
      <trkpt lat="56.713201990351081" lon="-6.146611031144857">
        <ele>78</ele>
        <time>2023-08-29T12:00:49Z</time>
      </trkpt>
      <trkpt lat="56.713359989225864" lon="-6.146885035559535">
        <ele>77.519999999999996</ele>
        <time>2023-08-29T12:00:51Z</time>
      </trkpt>
      <trkpt lat="56.713429978117347" lon="-6.14700498059392">
        <ele>77.519999999999996</ele>
        <time>2023-08-29T12:00:52Z</time>
      </trkpt>
      <trkpt lat="56.713502984493971" lon="-6.14709097892046">
        <ele>77.519999999999996</ele>
        <time>2023-08-29T12:00:53Z</time>
      </trkpt>
      <trkpt lat="56.714370008558035" lon="-6.14773403853178">
        <ele>79.930000000000007</ele>
        <time>2023-08-29T12:01:01Z</time>
      </trkpt>
      <trkpt lat="56.715503996238112" lon="-6.148755960166454">
        <ele>82.810000000000002</ele>
        <time>2023-08-29T12:01:10Z</time>
      </trkpt>
      <trkpt lat="56.716685006394982" lon="-6.149894976988435">
        <ele>87.140000000000001</ele>
        <time>2023-08-29T12:01:21Z</time>
      </trkpt>
      <trkpt lat="56.717631993815303" lon="-6.151385027915239">
        <ele>89.060000000000002</ele>
        <time>2023-08-29T12:01:31Z</time>
      </trkpt>
      <trkpt lat="56.71855098567903" lon="-6.153114968910813">
        <ele>84.25</ele>
        <time>2023-08-29T12:01:40Z</time>
      </trkpt>
      <trkpt lat="56.719282977283001" lon="-6.154247028753161">
        <ele>82.329999999999998</ele>
        <time>2023-08-29T12:01:47Z</time>
      </trkpt>
      <trkpt lat="56.719337962567806" lon="-6.1544160079211">
        <ele>82.810000000000002</ele>
        <time>2023-08-29T12:01:48Z</time>
      </trkpt>
      <trkpt lat="56.71938699670136" lon="-6.154602002352476">
        <ele>82.810000000000002</ele>
        <time>2023-08-29T12:01:49Z</time>
      </trkpt>
      <trkpt lat="56.71949302777648" lon="-6.155008021742106">
        <ele>82.810000000000002</ele>
        <time>2023-08-29T12:01:51Z</time>
      </trkpt>
      <trkpt lat="56.719551030546427" lon="-6.155208013951778">
        <ele>82.329999999999998</ele>
        <time>2023-08-29T12:01:52Z</time>
      </trkpt>
      <trkpt lat="56.719629988074303" lon="-6.155390990898013">
        <ele>82.329999999999998</ele>
        <time>2023-08-29T12:01:53Z</time>
      </trkpt>
      <trkpt lat="56.720257038250566" lon="-6.156848017126322">
        <ele>80.409999999999997</ele>
        <time>2023-08-29T12:02:00Z</time>
      </trkpt>
      <trkpt lat="56.720302971079946" lon="-6.157064018771052">
        <ele>79.930000000000007</ele>
        <time>2023-08-29T12:02:01Z</time>
      </trkpt>
      <trkpt lat="56.72065400518477" lon="-6.158869983628392">
        <ele>77.519999999999996</ele>
        <time>2023-08-29T12:02:08Z</time>
      </trkpt>
      <trkpt lat="56.720759030431509" lon="-6.159288994967938">
        <ele>77.519999999999996</ele>
        <time>2023-08-29T12:02:10Z</time>
      </trkpt>
      <trkpt lat="56.720905965194106" lon="-6.160633033141494">
        <ele>78.480000000000004</ele>
        <time>2023-08-29T12:02:16Z</time>
      </trkpt>
      <trkpt lat="56.720902025699615" lon="-6.160808969289064">
        <ele>77.519999999999996</ele>
        <time>2023-08-29T12:02:17Z</time>
      </trkpt>
      <trkpt lat="56.720876041799784" lon="-6.160976020619273">
        <ele>77.040000000000006</ele>
        <time>2023-08-29T12:02:18Z</time>
      </trkpt>
      <trkpt lat="56.720818961039186" lon="-6.161338035017252">
        <ele>76.560000000000002</ele>
        <time>2023-08-29T12:02:20Z</time>
      </trkpt>
      <trkpt lat="56.720781996846199" lon="-6.161570968106389">
        <ele>75.599999999999994</ele>
        <time>2023-08-29T12:02:21Z</time>
      </trkpt>
      <trkpt lat="56.720787025988102" lon="-6.161742964759469">
        <ele>74.640000000000001</ele>
        <time>2023-08-29T12:02:22Z</time>
      </trkpt>
      <trkpt lat="56.720818039029837" lon="-6.163073005154729">
        <ele>68.390000000000001</ele>
        <time>2023-08-29T12:02:28Z</time>
      </trkpt>
      <trkpt lat="56.720794988796115" lon="-6.163210971280932">
        <ele>67.909999999999997</ele>
        <time>2023-08-29T12:02:29Z</time>
      </trkpt>
      <trkpt lat="56.720749977976084" lon="-6.163323037326336">
        <ele>66.950000000000003</ele>
        <time>2023-08-29T12:02:30Z</time>
      </trkpt>
      <trkpt lat="56.720678983256221" lon="-6.163404006510973">
        <ele>65.989999999999995</ele>
        <time>2023-08-29T12:02:31Z</time>
      </trkpt>
      <trkpt lat="56.720593990758061" lon="-6.163500985130668">
        <ele>64.549999999999997</ele>
        <time>2023-08-29T12:02:32Z</time>
      </trkpt>
      <trkpt lat="56.720501035451889" lon="-6.163605004549027">
        <ele>63.579999999999998</ele>
        <time>2023-08-29T12:02:33Z</time>
      </trkpt>
      <trkpt lat="56.720430040732026" lon="-6.163724027574062">
        <ele>62.140000000000001</ele>
        <time>2023-08-29T12:02:34Z</time>
      </trkpt>
      <trkpt lat="56.720374971628189" lon="-6.163858976215124">
        <ele>61.659999999999997</ele>
        <time>2023-08-29T12:02:35Z</time>
      </trkpt>
      <trkpt lat="56.720320992171764" lon="-6.163988979533315">
        <ele>60.700000000000003</ele>
        <time>2023-08-29T12:02:36Z</time>
      </trkpt>
      <trkpt lat="56.720167016610503" lon="-6.164360968396068">
        <ele>58.299999999999997</ele>
        <time>2023-08-29T12:02:39Z</time>
      </trkpt>
      <trkpt lat="56.719855964183807" lon="-6.165580032393336">
        <ele>50.609999999999999</ele>
        <time>2023-08-29T12:02:47Z</time>
      </trkpt>
      <trkpt lat="56.719755968078971" lon="-6.166597008705139">
        <ele>45.799999999999997</ele>
        <time>2023-08-29T12:02:53Z</time>
      </trkpt>
      <trkpt lat="56.7197319958359" lon="-6.166713014245033">
        <ele>45.32</ele>
        <time>2023-08-29T12:02:54Z</time>
      </trkpt>
      <trkpt lat="56.719705006107688" lon="-6.166820973157883">
        <ele>44.359999999999999</ele>
        <time>2023-08-29T12:02:55Z</time>
      </trkpt>
      <trkpt lat="56.71966502442956" lon="-6.166908983141184">
        <ele>43.880000000000003</ele>
        <time>2023-08-29T12:02:56Z</time>
      </trkpt>
      <trkpt lat="56.71960199251771" lon="-6.166952988132834">
        <ele>43.399999999999999</ele>
        <time>2023-08-29T12:02:57Z</time>
      </trkpt>
      <trkpt lat="56.719532003626227" lon="-6.166999004781246">
        <ele>42.439999999999998</ele>
        <time>2023-08-29T12:02:58Z</time>
      </trkpt>
      <trkpt lat="56.719454973936081" lon="-6.166994981467724">
        <ele>41.950000000000003</ele>
        <time>2023-08-29T12:02:59Z</time>
      </trkpt>
      <trkpt lat="56.719376016408205" lon="-6.166991963982582">
        <ele>40.990000000000002</ele>
        <time>2023-08-29T12:03:00Z</time>
      </trkpt>
      <trkpt lat="56.719082985073328" lon="-6.166992969810963">
        <ele>37.630000000000003</ele>
        <time>2023-08-29T12:03:04Z</time>
      </trkpt>
      <trkpt lat="56.719019031152129" lon="-6.167032029479742">
        <ele>36.670000000000002</ele>
        <time>2023-08-29T12:03:05Z</time>
      </trkpt>
      <trkpt lat="56.718985000625253" lon="-6.167101012542844">
        <ele>36.189999999999998</ele>
        <time>2023-08-29T12:03:06Z</time>
      </trkpt>
      <trkpt lat="56.718954993411899" lon="-6.167216012254357">
        <ele>35.229999999999997</ele>
        <time>2023-08-29T12:03:07Z</time>
      </trkpt>
      <trkpt lat="56.71891501173377" lon="-6.167364036664367">
        <ele>34.740000000000002</ele>
        <time>2023-08-29T12:03:08Z</time>
      </trkpt>
      <trkpt lat="56.718921968713403" lon="-6.167466966435313">
        <ele>33.780000000000001</ele>
        <time>2023-08-29T12:03:09Z</time>
      </trkpt>
      <trkpt lat="56.718931021168828" lon="-6.167598981410265">
        <ele>32.82</ele>
        <time>2023-08-29T12:03:10Z</time>
      </trkpt>
      <trkpt lat="56.718952981755137" lon="-6.167740970849991">
        <ele>31.859999999999999</ele>
        <time>2023-08-29T12:03:11Z</time>
      </trkpt>
      <trkpt lat="56.718995980918407" lon="-6.167882960289717">
        <ele>31.379999999999999</ele>
        <time>2023-08-29T12:03:12Z</time>
      </trkpt>
      <trkpt lat="56.719035962596536" lon="-6.168015981093049">
        <ele>30.899999999999999</ele>
        <time>2023-08-29T12:03:13Z</time>
      </trkpt>
      <trkpt lat="56.719077033922076" lon="-6.168132992461324">
        <ele>30.899999999999999</ele>
        <time>2023-08-29T12:03:14Z</time>
      </trkpt>
      <trkpt lat="56.719132019206882" lon="-6.168222008273006">
        <ele>30.420000000000002</ele>
        <time>2023-08-29T12:03:15Z</time>
      </trkpt>
      <trkpt lat="56.719205025583506" lon="-6.168310018256307">
        <ele>29.940000000000001</ele>
        <time>2023-08-29T12:03:16Z</time>
      </trkpt>
      <trkpt lat="56.719294041395187" lon="-6.168372966349125">
        <ele>29.940000000000001</ele>
        <time>2023-08-29T12:03:17Z</time>
      </trkpt>
      <trkpt lat="56.719393031671643" lon="-6.168442033231258">
        <ele>28.98</ele>
        <time>2023-08-29T12:03:18Z</time>
      </trkpt>
      <trkpt lat="56.71949403360486" lon="-6.168514033779502">
        <ele>28.5</ele>
        <time>2023-08-29T12:03:19Z</time>
      </trkpt>
      <trkpt lat="56.719587994739413" lon="-6.168604977428913">
        <ele>28.02</ele>
        <time>2023-08-29T12:03:20Z</time>
      </trkpt>
      <trkpt lat="56.719673993065953" lon="-6.168708996847272">
        <ele>28.02</ele>
        <time>2023-08-29T12:03:21Z</time>
      </trkpt>
      <trkpt lat="56.720183026045561" lon="-6.169321965426207">
        <ele>27.530000000000001</ele>
        <time>2023-08-29T12:03:27Z</time>
      </trkpt>
      <trkpt lat="56.720259971916676" lon="-6.169416010379791">
        <ele>27.530000000000001</ele>
        <time>2023-08-29T12:03:28Z</time>
      </trkpt>
      <trkpt lat="56.720337001606822" lon="-6.169469989836216">
        <ele>27.530000000000001</ele>
        <time>2023-08-29T12:03:29Z</time>
      </trkpt>
      <trkpt lat="56.720761964097619" lon="-6.169748017564416">
        <ele>28.02</ele>
        <time>2023-08-29T12:03:34Z</time>
      </trkpt>
      <trkpt lat="56.72084997408092" lon="-6.169806020334363">
        <ele>28.5</ele>
        <time>2023-08-29T12:03:35Z</time>
      </trkpt>
      <trkpt lat="56.721627982333302" lon="-6.170313963666558">
        <ele>29.460000000000001</ele>
        <time>2023-08-29T12:03:42Z</time>
      </trkpt>
      <trkpt lat="56.722043976187706" lon="-6.17066097445786">
        <ele>29.460000000000001</ele>
        <time>2023-08-29T12:03:46Z</time>
      </trkpt>
      <trkpt lat="56.722128968685865" lon="-6.170779997482896">
        <ele>29.460000000000001</ele>
        <time>2023-08-29T12:03:47Z</time>
      </trkpt>
      <trkpt lat="56.722213961184025" lon="-6.170898014679551">
        <ele>29.460000000000001</ele>
        <time>2023-08-29T12:03:48Z</time>
      </trkpt>
      <trkpt lat="56.722629033029079" lon="-6.171719022095203">
        <ele>28.98</ele>
        <time>2023-08-29T12:03:54Z</time>
      </trkpt>
      <trkpt lat="56.722669014707208" lon="-6.171857994049788">
        <ele>29.460000000000001</ele>
        <time>2023-08-29T12:03:55Z</time>
      </trkpt>
      <trkpt lat="56.722701033577323" lon="-6.172008030116558">
        <ele>29.460000000000001</ele>
        <time>2023-08-29T12:03:56Z</time>
      </trkpt>
      <trkpt lat="56.723022982478142" lon="-6.173526998609304">
        <ele>31.379999999999999</ele>
        <time>2023-08-29T12:04:05Z</time>
      </trkpt>
      <trkpt lat="56.723473006859422" lon="-6.175605040043593">
        <ele>29.940000000000001</ele>
        <time>2023-08-29T12:04:19Z</time>
      </trkpt>
      <trkpt lat="56.723764026537538" lon="-6.176759982481599">
        <ele>30.420000000000002</ele>
        <time>2023-08-29T12:04:26Z</time>
      </trkpt>
      <trkpt lat="56.723819011822343" lon="-6.176905995234847">
        <ele>30.420000000000002</ele>
        <time>2023-08-29T12:04:27Z</time>
      </trkpt>
      <trkpt lat="56.723892018198967" lon="-6.176998028531671">
        <ele>30.899999999999999</ele>
        <time>2023-08-29T12:04:28Z</time>
      </trkpt>
      <trkpt lat="56.723968964070082" lon="-6.177095007151365">
        <ele>30.899999999999999</ele>
        <time>2023-08-29T12:04:29Z</time>
      </trkpt>
      <trkpt lat="56.72404901124537" lon="-6.177196009084582">
        <ele>31.379999999999999</ele>
        <time>2023-08-29T12:04:30Z</time>
      </trkpt>
      <trkpt lat="56.724130986258388" lon="-6.177300028502941">
        <ele>31.859999999999999</ele>
        <time>2023-08-29T12:04:31Z</time>
      </trkpt>
      <trkpt lat="56.724216984584928" lon="-6.17740698158741">
        <ele>32.340000000000003</ele>
        <time>2023-08-29T12:04:32Z</time>
      </trkpt>
      <trkpt lat="56.724314969033003" lon="-6.177456015720964">
        <ele>32.82</ele>
        <time>2023-08-29T12:04:33Z</time>
      </trkpt>
      <trkpt lat="56.7244169767946" lon="-6.177506977692246">
        <ele>33.780000000000001</ele>
        <time>2023-08-29T12:04:34Z</time>
      </trkpt>
      <trkpt lat="56.724840011447668" lon="-6.177719039842486">
        <ele>38.109999999999999</ele>
        <time>2023-08-29T12:04:38Z</time>
      </trkpt>
      <trkpt lat="56.724936990067363" lon="-6.177766984328628">
        <ele>39.549999999999997</ele>
        <time>2023-08-29T12:04:39Z</time>
      </trkpt>
      <trkpt lat="56.725030029192567" lon="-6.17781400680542">
        <ele>40.990000000000002</ele>
        <time>2023-08-29T12:04:40Z</time>
      </trkpt>
      <trkpt lat="56.725117033347487" lon="-6.177904028445482">
        <ele>42.439999999999998</ele>
        <time>2023-08-29T12:04:41Z</time>
      </trkpt>
      <trkpt lat="56.725190039724112" lon="-6.178021961823106">
        <ele>43.399999999999999</ele>
        <time>2023-08-29T12:04:42Z</time>
      </trkpt>
      <trkpt lat="56.725263968110085" lon="-6.178139979019761">
        <ele>44.359999999999999</ele>
        <time>2023-08-29T12:04:43Z</time>
      </trkpt>
      <trkpt lat="56.725334962829947" lon="-6.178253972902894">
        <ele>45.32</ele>
        <time>2023-08-29T12:04:44Z</time>
      </trkpt>
      <trkpt lat="56.725401012226939" lon="-6.178364027291536">
        <ele>46.280000000000001</ele>
        <time>2023-08-29T12:04:45Z</time>
      </trkpt>
      <trkpt lat="56.725447028875351" lon="-6.178476009517908">
        <ele>46.759999999999998</ele>
        <time>2023-08-29T12:04:46Z</time>
      </trkpt>
      <trkpt lat="56.725522968918085" lon="-6.178662003949285">
        <ele>48.200000000000003</ele>
        <time>2023-08-29T12:04:48Z</time>
      </trkpt>
      <trkpt lat="56.725577032193542" lon="-6.178856967017055">
        <ele>49.159999999999997</ele>
        <time>2023-08-29T12:04:49Z</time>
      </trkpt>
      <trkpt lat="56.725544007495046" lon="-6.178956963121891">
        <ele>50.130000000000003</ele>
        <time>2023-08-29T12:04:50Z</time>
      </trkpt>
      <trkpt lat="56.725481981411576" lon="-6.179070034995675">
        <ele>51.090000000000003</ele>
        <time>2023-08-29T12:04:51Z</time>
      </trkpt>
      <trkpt lat="56.725416015833616" lon="-6.179154021665454">
        <ele>52.049999999999997</ele>
        <time>2023-08-29T12:04:52Z</time>
      </trkpt>
      <trkpt lat="56.72533999197185" lon="-6.179251000285149">
        <ele>53.009999999999998</ele>
        <time>2023-08-29T12:04:53Z</time>
      </trkpt>
      <trkpt lat="56.725172018632293" lon="-6.179464990273118">
        <ele>54.450000000000003</ele>
        <time>2023-08-29T12:04:55Z</time>
      </trkpt>
      <trkpt lat="56.725072022527456" lon="-6.179536990821362">
        <ele>55.409999999999997</ele>
        <time>2023-08-29T12:04:56Z</time>
      </trkpt>
      <trkpt lat="56.724993987008929" lon="-6.179571021348238">
        <ele>55.890000000000001</ele>
        <time>2023-08-29T12:04:57Z</time>
      </trkpt>
      <trkpt lat="56.72495199367404" lon="-6.179652996361256">
        <ele>56.859999999999999</ele>
        <time>2023-08-29T12:04:58Z</time>
      </trkpt>
      <trkpt lat="56.724902037531137" lon="-6.179766990244389">
        <ele>58.299999999999997</ele>
        <time>2023-08-29T12:04:59Z</time>
      </trkpt>
      <trkpt lat="56.72488703392446" lon="-6.179880984127522">
        <ele>59.259999999999998</ele>
        <time>2023-08-29T12:05:00Z</time>
      </trkpt>
      <trkpt lat="56.72486700117588" lon="-6.180034037679434">
        <ele>60.219999999999999</ele>
        <time>2023-08-29T12:05:01Z</time>
      </trkpt>
      <trkpt lat="56.724836993962526" lon="-6.180468974635005">
        <ele>63.579999999999998</ele>
        <time>2023-08-29T12:05:04Z</time>
      </trkpt>
      <trkpt lat="56.724836993962526" lon="-6.181699018925428">
        <ele>64.549999999999997</ele>
        <time>2023-08-29T12:05:11Z</time>
      </trkpt>
      <trkpt lat="56.724810004234314" lon="-6.181821981444955">
        <ele>64.069999999999993</ele>
        <time>2023-08-29T12:05:12Z</time>
      </trkpt>
      <trkpt lat="56.724758958443999" lon="-6.181933041661978">
        <ele>63.579999999999998</ele>
        <time>2023-08-29T12:05:13Z</time>
      </trkpt>
      <trkpt lat="56.724703973159194" lon="-6.182051980867982">
        <ele>62.619999999999997</ele>
        <time>2023-08-29T12:05:14Z</time>
      </trkpt>
      <trkpt lat="56.724644964560866" lon="-6.18217796087265">
        <ele>62.140000000000001</ele>
        <time>2023-08-29T12:05:15Z</time>
      </trkpt>
      <trkpt lat="56.724578998982906" lon="-6.182321961969137">
        <ele>61.18</ele>
        <time>2023-08-29T12:05:16Z</time>
      </trkpt>
      <trkpt lat="56.724505992606282" lon="-6.182480966672301">
        <ele>60.219999999999999</ele>
        <time>2023-08-29T12:05:17Z</time>
      </trkpt>
      <trkpt lat="56.724428962916136" lon="-6.18264801800251">
        <ele>59.740000000000002</ele>
        <time>2023-08-29T12:05:18Z</time>
      </trkpt>
      <trkpt lat="56.724347993731499" lon="-6.182823032140732">
        <ele>58.780000000000001</ele>
        <time>2023-08-29T12:05:19Z</time>
      </trkpt>
      <trkpt lat="56.723693031817675" lon="-6.184746008366346">
        <ele>49.649999999999999</ele>
        <time>2023-08-29T12:05:29Z</time>
      </trkpt>
      <trkpt lat="56.723621031269431" lon="-6.18486100807786">
        <ele>48.68</ele>
        <time>2023-08-29T12:05:30Z</time>
      </trkpt>
      <trkpt lat="56.723549030721188" lon="-6.184975001960993">
        <ele>47.719999999999999</ele>
        <time>2023-08-29T12:05:31Z</time>
      </trkpt>
      <trkpt lat="56.723477030172944" lon="-6.185088995844126">
        <ele>46.759999999999998</ele>
        <time>2023-08-29T12:05:32Z</time>
      </trkpt>
      <trkpt lat="56.723435036838055" lon="-6.185255041345954">
        <ele>45.32</ele>
        <time>2023-08-29T12:05:33Z</time>
      </trkpt>
      <trkpt lat="56.723395977169275" lon="-6.185452016070485">
        <ele>44.359999999999999</ele>
        <time>2023-08-29T12:05:34Z</time>
      </trkpt>
      <trkpt lat="56.723352978006005" lon="-6.185667011886835">
        <ele>42.920000000000002</ele>
        <time>2023-08-29T12:05:35Z</time>
      </trkpt>
      <trkpt lat="56.723268991336226" lon="-6.185861974954605">
        <ele>41.469999999999999</ele>
        <time>2023-08-29T12:05:36Z</time>
      </trkpt>
      <trkpt lat="56.723171006888151" lon="-6.18602299131453">
        <ele>40.030000000000001</ele>
        <time>2023-08-29T12:05:37Z</time>
      </trkpt>
      <trkpt lat="56.723065981641412" lon="-6.18619398213923">
        <ele>38.590000000000003</ele>
        <time>2023-08-29T12:05:38Z</time>
      </trkpt>
      <trkpt lat="56.722955005243421" lon="-6.186375031247735">
        <ele>36.670000000000002</ele>
        <time>2023-08-29T12:05:39Z</time>
      </trkpt>
      <trkpt lat="56.721959989517927" lon="-6.188036995008588">
        <ele>30.899999999999999</ele>
        <time>2023-08-29T12:05:49Z</time>
      </trkpt>
      <trkpt lat="56.721914978697896" lon="-6.188179990276694">
        <ele>30.899999999999999</ele>
        <time>2023-08-29T12:05:50Z</time>
      </trkpt>
      <trkpt lat="56.721874997019768" lon="-6.188305970281363">
        <ele>30.899999999999999</ele>
        <time>2023-08-29T12:05:51Z</time>
      </trkpt>
      <trkpt lat="56.721834009513259" lon="-6.188433961942792">
        <ele>30.899999999999999</ele>
        <time>2023-08-29T12:05:52Z</time>
      </trkpt>
      <trkpt lat="56.721839960664511" lon="-6.188592966645956">
        <ele>30.420000000000002</ele>
        <time>2023-08-29T12:05:53Z</time>
      </trkpt>
      <trkpt lat="56.721847001463175" lon="-6.188768986612558">
        <ele>30.420000000000002</ele>
        <time>2023-08-29T12:05:54Z</time>
      </trkpt>
      <trkpt lat="56.721854964271188" lon="-6.188967972993851">
        <ele>29.940000000000001</ele>
        <time>2023-08-29T12:05:55Z</time>
      </trkpt>
      <trkpt lat="56.721864016726613" lon="-6.189180035144091">
        <ele>29.460000000000001</ele>
        <time>2023-08-29T12:05:56Z</time>
      </trkpt>
      <trkpt lat="56.722026960924268" lon="-6.191568039357662">
        <ele>28.98</ele>
        <time>2023-08-29T12:06:07Z</time>
      </trkpt>
      <trkpt lat="56.722065014764667" lon="-6.191749004647136">
        <ele>29.460000000000001</ele>
        <time>2023-08-29T12:06:08Z</time>
      </trkpt>
      <trkpt lat="56.722102984786034" lon="-6.19193198159337">
        <ele>29.460000000000001</ele>
        <time>2023-08-29T12:06:09Z</time>
      </trkpt>
      <trkpt lat="56.722351005300879" lon="-6.193106034770608">
        <ele>32.340000000000003</ele>
        <time>2023-08-29T12:06:15Z</time>
      </trkpt>
      <trkpt lat="56.722771022468805" lon="-6.194728016853333">
        <ele>32.82</ele>
        <time>2023-08-29T12:06:22Z</time>
      </trkpt>
      <trkpt lat="56.722836988046765" lon="-6.194892972707748">
        <ele>32.82</ele>
        <time>2023-08-29T12:06:23Z</time>
      </trkpt>
      <trkpt lat="56.722928015515208" lon="-6.195018030703068">
        <ele>32.82</ele>
        <time>2023-08-29T12:06:24Z</time>
      </trkpt>
      <trkpt lat="56.723020970821381" lon="-6.195104029029608">
        <ele>32.82</ele>
        <time>2023-08-29T12:06:25Z</time>
      </trkpt>
      <trkpt lat="56.723119039088488" lon="-6.195193966850638">
        <ele>32.82</ele>
        <time>2023-08-29T12:06:26Z</time>
      </trkpt>
      <trkpt lat="56.723220041021705" lon="-6.195287005975843">
        <ele>32.82</ele>
        <time>2023-08-29T12:06:27Z</time>
      </trkpt>
      <trkpt lat="56.724012969061732" lon="-6.196295013651252">
        <ele>34.259999999999998</ele>
        <time>2023-08-29T12:06:35Z</time>
      </trkpt>
      <trkpt lat="56.724257972091436" lon="-6.196631966158748">
        <ele>34.740000000000002</ele>
        <time>2023-08-29T12:06:38Z</time>
      </trkpt>
      <trkpt lat="56.724317986518145" lon="-6.196793988347054">
        <ele>35.229999999999997</ele>
        <time>2023-08-29T12:06:39Z</time>
      </trkpt>
      <trkpt lat="56.724367020651698" lon="-6.196927009150386">
        <ele>35.229999999999997</ele>
        <time>2023-08-29T12:06:40Z</time>
      </trkpt>
      <trkpt lat="56.724413959309459" lon="-6.197076039388776">
        <ele>35.229999999999997</ele>
        <time>2023-08-29T12:06:41Z</time>
      </trkpt>
      <trkpt lat="56.724442038685083" lon="-6.197249041870236">
        <ele>35.229999999999997</ele>
        <time>2023-08-29T12:06:42Z</time>
      </trkpt>
      <trkpt lat="56.724504986777902" lon="-6.197646008804441">
        <ele>34.740000000000002</ele>
        <time>2023-08-29T12:06:44Z</time>
      </trkpt>
      <trkpt lat="56.724578998982906" lon="-6.198107013478875">
        <ele>34.259999999999998</ele>
        <time>2023-08-29T12:06:46Z</time>
      </trkpt>
      <trkpt lat="56.724615041166544" lon="-6.198338018730283">
        <ele>33.780000000000001</ele>
        <time>2023-08-29T12:06:47Z</time>
      </trkpt>
      <trkpt lat="56.724714031443" lon="-6.198958028107882">
        <ele>34.259999999999998</ele>
        <time>2023-08-29T12:06:50Z</time>
      </trkpt>
      <trkpt lat="56.724755018949509" lon="-6.199129018932581">
        <ele>34.259999999999998</ele>
        <time>2023-08-29T12:06:51Z</time>
      </trkpt>
      <trkpt lat="56.724804975092411" lon="-6.199273020029068">
        <ele>34.259999999999998</ele>
        <time>2023-08-29T12:06:52Z</time>
      </trkpt>
      <trkpt lat="56.724902037531137" lon="-6.199550963938236">
        <ele>33.299999999999997</ele>
        <time>2023-08-29T12:06:54Z</time>
      </trkpt>
      <trkpt lat="56.724913017824292" lon="-6.1997289955616">
        <ele>33.299999999999997</ele>
        <time>2023-08-29T12:06:55Z</time>
      </trkpt>
      <trkpt lat="56.724923998117447" lon="-6.199911972507834">
        <ele>32.340000000000003</ele>
        <time>2023-08-29T12:06:56Z</time>
      </trkpt>
      <trkpt lat="56.724935984238982" lon="-6.200123028829694">
        <ele>31.379999999999999</ele>
        <time>2023-08-29T12:06:57Z</time>
      </trkpt>
      <trkpt lat="56.724935984238982" lon="-6.200364008545876">
        <ele>30.420000000000002</ele>
        <time>2023-08-29T12:06:58Z</time>
      </trkpt>
      <trkpt lat="56.72488996759057" lon="-6.200881004333496">
        <ele>28.02</ele>
        <time>2023-08-29T12:07:00Z</time>
      </trkpt>
      <trkpt lat="56.72467497177422" lon="-6.202313974499703">
        <ele>29.940000000000001</ele>
        <time>2023-08-29T12:07:07Z</time>
      </trkpt>
      <trkpt lat="56.724474979564548" lon="-6.203333968296647">
        <ele>30.420000000000002</ele>
        <time>2023-08-29T12:07:12Z</time>
      </trkpt>
      <trkpt lat="56.724451007321477" lon="-6.203459026291966">
        <ele>30.420000000000002</ele>
        <time>2023-08-29T12:07:13Z</time>
      </trkpt>
      <trkpt lat="56.724446984007955" lon="-6.203600009903312">
        <ele>29.940000000000001</ele>
        <time>2023-08-29T12:07:14Z</time>
      </trkpt>
      <trkpt lat="56.724442038685083" lon="-6.203759014606476">
        <ele>29.940000000000001</ele>
        <time>2023-08-29T12:07:15Z</time>
      </trkpt>
      <trkpt lat="56.72443700954318" lon="-6.203936962410808">
        <ele>28.98</ele>
        <time>2023-08-29T12:07:16Z</time>
      </trkpt>
      <trkpt lat="56.724452013149858" lon="-6.204281961545348">
        <ele>28.5</ele>
        <time>2023-08-29T12:07:18Z</time>
      </trkpt>
      <trkpt lat="56.724482020363212" lon="-6.204406013712287">
        <ele>27.530000000000001</ele>
        <time>2023-08-29T12:07:19Z</time>
      </trkpt>
      <trkpt lat="56.724515967071056" lon="-6.204550014808774">
        <ele>27.050000000000001</ele>
        <time>2023-08-29T12:07:20Z</time>
      </trkpt>
      <trkpt lat="56.724936990067363" lon="-6.205710992217064">
        <ele>22.25</ele>
        <time>2023-08-29T12:07:27Z</time>
      </trkpt>
      <trkpt lat="56.72505903057754" lon="-6.206087004393339">
        <ele>20.809999999999999</ele>
        <time>2023-08-29T12:07:29Z</time>
      </trkpt>
      <trkpt lat="56.725103035569191" lon="-6.206274004653096">
        <ele>20.32</ele>
        <time>2023-08-29T12:07:30Z</time>
      </trkpt>
      <trkpt lat="56.725128013640642" lon="-6.20647600851953">
        <ele>19.84</ele>
        <time>2023-08-29T12:07:31Z</time>
      </trkpt>
      <trkpt lat="56.725310990586877" lon="-6.208523036912084">
        <ele>16.960000000000001</ele>
        <time>2023-08-29T12:07:41Z</time>
      </trkpt>
      <trkpt lat="56.725634029135108" lon="-6.209967993199825">
        <ele>15.039999999999999</ele>
        <time>2023-08-29T12:07:49Z</time>
      </trkpt>
      <trkpt lat="56.725821029394865" lon="-6.210540980100632">
        <ele>14.08</ele>
        <time>2023-08-29T12:07:53Z</time>
      </trkpt>
      <trkpt lat="56.725890012457967" lon="-6.210719011723995">
        <ele>14.08</ele>
        <time>2023-08-29T12:07:55Z</time>
      </trkpt>
      <trkpt lat="56.725882971659303" lon="-6.210867958143354">
        <ele>14.08</ele>
        <time>2023-08-29T12:07:56Z</time>
      </trkpt>
      <trkpt lat="56.725857993587852" lon="-6.210957979783416">
        <ele>14.08</ele>
        <time>2023-08-29T12:07:57Z</time>
      </trkpt>
      <trkpt lat="56.725822035223246" lon="-6.211075996980071">
        <ele>13.6</ele>
        <time>2023-08-29T12:07:58Z</time>
      </trkpt>
      <trkpt lat="56.725759003311396" lon="-6.211146991699934">
        <ele>13.6</ele>
        <time>2023-08-29T12:07:59Z</time>
      </trkpt>
      <trkpt lat="56.725690020248294" lon="-6.211224021390081">
        <ele>13.6</ele>
        <time>2023-08-29T12:08:00Z</time>
      </trkpt>
      <trkpt lat="56.725490028038621" lon="-6.211447985842824">
        <ele>15.52</ele>
        <time>2023-08-29T12:08:03Z</time>
      </trkpt>
      <trkpt lat="56.725460020825267" lon="-6.21148101054132">
        <ele>16</ele>
        <time>2023-08-29T12:08:04Z</time>
      </trkpt>
      <trkpt lat="56.725416015833616" lon="-6.211647978052497">
        <ele>16.960000000000001</ele>
        <time>2023-08-29T12:08:05Z</time>
      </trkpt>
      <trkpt lat="56.725385002791882" lon="-6.21176197193563">
        <ele>17.920000000000002</ele>
        <time>2023-08-29T12:08:06Z</time>
      </trkpt>
      <trkpt lat="56.72535901889205" lon="-6.211863979697228">
        <ele>18.399999999999999</ele>
        <time>2023-08-29T12:08:07Z</time>
      </trkpt>
      <trkpt lat="56.725304033607244" lon="-6.212070006877184">
        <ele>19.359999999999999</ele>
        <time>2023-08-29T12:08:09Z</time>
      </trkpt>
      <trkpt lat="56.725270003080368" lon="-6.212201016023755">
        <ele>19.359999999999999</ele>
        <time>2023-08-29T12:08:10Z</time>
      </trkpt>
      <trkpt lat="56.725229015573859" lon="-6.212352979928255">
        <ele>19.359999999999999</ele>
        <time>2023-08-29T12:08:11Z</time>
      </trkpt>
      <trkpt lat="56.72518802806735" lon="-6.212508967146277">
        <ele>18.879999999999999</ele>
        <time>2023-08-29T12:08:12Z</time>
      </trkpt>
      <trkpt lat="56.725143017247319" lon="-6.212656991556287">
        <ele>18.879999999999999</ele>
        <time>2023-08-29T12:08:13Z</time>
      </trkpt>
      <trkpt lat="56.725090965628624" lon="-6.212778026238084">
        <ele>18.879999999999999</ele>
        <time>2023-08-29T12:08:14Z</time>
      </trkpt>
      <trkpt lat="56.725044026970863" lon="-6.212887996807694">
        <ele>18.879999999999999</ele>
        <time>2023-08-29T12:08:15Z</time>
      </trkpt>
      <trkpt lat="56.724982000887394" lon="-6.212958991527557">
        <ele>18.879999999999999</ele>
        <time>2023-08-29T12:08:16Z</time>
      </trkpt>
      <trkpt lat="56.724925003945827" lon="-6.21300701983273">
        <ele>18.399999999999999</ele>
        <time>2023-08-29T12:08:17Z</time>
      </trkpt>
      <trkpt lat="56.724847974255681" lon="-6.213004002347589">
        <ele>18.399999999999999</ele>
        <time>2023-08-29T12:08:18Z</time>
      </trkpt>
      <trkpt lat="56.724770022556186" lon="-6.212970977649093">
        <ele>18.399999999999999</ele>
        <time>2023-08-29T12:08:19Z</time>
      </trkpt>
      <trkpt lat="56.724677989259362" lon="-6.212932001799345">
        <ele>18.399999999999999</ele>
        <time>2023-08-29T12:08:20Z</time>
      </trkpt>
      <trkpt lat="56.724378000944853" lon="-6.21274801902473">
        <ele>17.440000000000001</ele>
        <time>2023-08-29T12:08:23Z</time>
      </trkpt>
      <trkpt lat="56.724214972928166" lon="-6.212596977129579">
        <ele>17.440000000000001</ele>
        <time>2023-08-29T12:08:25Z</time>
      </trkpt>
      <trkpt lat="56.723867040127516" lon="-6.21240503154695">
        <ele>17.440000000000001</ele>
        <time>2023-08-29T12:08:29Z</time>
      </trkpt>
      <trkpt lat="56.723785987123847" lon="-6.2123610265553">
        <ele>16.960000000000001</ele>
        <time>2023-08-29T12:08:30Z</time>
      </trkpt>
      <trkpt lat="56.723709041252732" lon="-6.212337976321578">
        <ele>16.960000000000001</ele>
        <time>2023-08-29T12:08:31Z</time>
      </trkpt>
      <trkpt lat="56.723621031269431" lon="-6.212311992421746">
        <ele>16.48</ele>
        <time>2023-08-29T12:08:32Z</time>
      </trkpt>
      <trkpt lat="56.723522963002324" lon="-6.21229900047183">
        <ele>16.48</ele>
        <time>2023-08-29T12:08:33Z</time>
      </trkpt>
      <trkpt lat="56.723225992172956" lon="-6.212315009906888">
        <ele>15.039999999999999</ele>
        <time>2023-08-29T12:08:36Z</time>
      </trkpt>
      <trkpt lat="56.722756018862128" lon="-6.212338982149959">
        <ele>14.08</ele>
        <time>2023-08-29T12:08:41Z</time>
      </trkpt>
      <trkpt lat="56.722708996385336" lon="-6.212386004626751">
        <ele>14.08</ele>
        <time>2023-08-29T12:08:42Z</time>
      </trkpt>
      <trkpt lat="56.722679995000362" lon="-6.212524976581335">
        <ele>14.08</ele>
        <time>2023-08-29T12:08:43Z</time>
      </trkpt>
      <trkpt lat="56.722669014707208" lon="-6.212640982121229">
        <ele>14.08</ele>
        <time>2023-08-29T12:08:44Z</time>
      </trkpt>
      <trkpt lat="56.722655016928911" lon="-6.212781965732575">
        <ele>14.08</ele>
        <time>2023-08-29T12:08:45Z</time>
      </trkpt>
      <trkpt lat="56.722639007493854" lon="-6.212948011234403">
        <ele>14.08</ele>
        <time>2023-08-29T12:08:46Z</time>
      </trkpt>
      <trkpt lat="56.722521996125579" lon="-6.214909963309765">
        <ele>13.6</ele>
        <time>2023-08-29T12:08:55Z</time>
      </trkpt>
      <trkpt lat="56.722582010552287" lon="-6.216179989278317">
        <ele>13.6</ele>
        <time>2023-08-29T12:09:01Z</time>
      </trkpt>
      <trkpt lat="56.722616041079164" lon="-6.216290965676308">
        <ele>13.6</ele>
        <time>2023-08-29T12:09:02Z</time>
      </trkpt>
      <trkpt lat="56.722670020535588" lon="-6.216407977044582">
        <ele>13.6</ele>
        <time>2023-08-29T12:09:03Z</time>
      </trkpt>
      <trkpt lat="56.722713019698858" lon="-6.216502021998167">
        <ele>13.6</ele>
        <time>2023-08-29T12:09:04Z</time>
      </trkpt>
      <trkpt lat="56.722734980285168" lon="-6.216717017814517">
        <ele>13.6</ele>
        <time>2023-08-29T12:09:05Z</time>
      </trkpt>
      <trkpt lat="56.722734980285168" lon="-6.216892031952739">
        <ele>13.6</ele>
        <time>2023-08-29T12:09:06Z</time>
      </trkpt>
      <trkpt lat="56.722734980285168" lon="-6.217058999463916">
        <ele>13.6</ele>
        <time>2023-08-29T12:09:07Z</time>
      </trkpt>
      <trkpt lat="56.722734980285168" lon="-6.217223033308983">
        <ele>14.08</ele>
        <time>2023-08-29T12:09:08Z</time>
      </trkpt>
      <trkpt lat="56.722757024690509" lon="-6.218260964378715">
        <ele>14.08</ele>
        <time>2023-08-29T12:09:14Z</time>
      </trkpt>
      <trkpt lat="56.722792983055115" lon="-6.218392979353666">
        <ele>13.6</ele>
        <time>2023-08-29T12:09:15Z</time>
      </trkpt>
      <trkpt lat="56.722826007753611" lon="-6.218516025692225">
        <ele>13.6</ele>
        <time>2023-08-29T12:09:16Z</time>
      </trkpt>
      <trkpt lat="56.722889961674809" lon="-6.218779971823096">
        <ele>13.6</ele>
        <time>2023-08-29T12:09:18Z</time>
      </trkpt>
      <trkpt lat="56.722907982766628" lon="-6.218929002061486">
        <ele>13.6</ele>
        <time>2023-08-29T12:09:19Z</time>
      </trkpt>
      <trkpt lat="56.722943019121885" lon="-6.21921599842608">
        <ele>14.08</ele>
        <time>2023-08-29T12:09:21Z</time>
      </trkpt>
      <trkpt lat="56.722986018285155" lon="-6.219312977045775">
        <ele>14.08</ele>
        <time>2023-08-29T12:09:22Z</time>
      </trkpt>
      <trkpt lat="56.723035974428058" lon="-6.219369973987341">
        <ele>14.56</ele>
        <time>2023-08-29T12:09:23Z</time>
      </trkpt>
      <trkpt lat="56.723087020218372" lon="-6.219429988414049">
        <ele>14.56</ele>
        <time>2023-08-29T12:09:24Z</time>
      </trkpt>
      <trkpt lat="56.723143011331558" lon="-6.21949503198266">
        <ele>15.039999999999999</ele>
        <time>2023-08-29T12:09:25Z</time>
      </trkpt>
      <trkpt lat="56.723205037415028" lon="-6.219566026702523">
        <ele>15.039999999999999</ele>
        <time>2023-08-29T12:09:26Z</time>
      </trkpt>
      <trkpt lat="56.723271002992988" lon="-6.219642972573638">
        <ele>15.039999999999999</ele>
        <time>2023-08-29T12:09:27Z</time>
      </trkpt>
      <trkpt lat="56.723337974399328" lon="-6.219721008092165">
        <ele>15.52</ele>
        <time>2023-08-29T12:09:28Z</time>
      </trkpt>
      <trkpt lat="56.723415004089475" lon="-6.219790996983647">
        <ele>15.52</ele>
        <time>2023-08-29T12:09:29Z</time>
      </trkpt>
      <trkpt lat="56.723498990759254" lon="-6.219859980046749">
        <ele>15.52</ele>
        <time>2023-08-29T12:09:30Z</time>
      </trkpt>
      <trkpt lat="56.723613990470767" lon="-6.219956958666444">
        <ele>15.52</ele>
        <time>2023-08-29T12:09:31Z</time>
      </trkpt>
      <trkpt lat="56.723682973533869" lon="-6.219984032213688">
        <ele>15.52</ele>
        <time>2023-08-29T12:09:32Z</time>
      </trkpt>
      <trkpt lat="56.723872991278768" lon="-6.220057960599661">
        <ele>16</ele>
        <time>2023-08-29T12:09:34Z</time>
      </trkpt>
      <trkpt lat="56.723955972120166" lon="-6.220089979469776">
        <ele>16.48</ele>
        <time>2023-08-29T12:09:35Z</time>
      </trkpt>
      <trkpt lat="56.724022021517158" lon="-6.220172038301826">
        <ele>16.48</ele>
        <time>2023-08-29T12:09:36Z</time>
      </trkpt>
      <trkpt lat="56.724064014852047" lon="-6.220298018306494">
        <ele>16.960000000000001</ele>
        <time>2023-08-29T12:09:37Z</time>
      </trkpt>
      <trkpt lat="56.724108019843698" lon="-6.220431039109826">
        <ele>16.960000000000001</ele>
        <time>2023-08-29T12:09:38Z</time>
      </trkpt>
      <trkpt lat="56.724324021488428" lon="-6.221120031550527">
        <ele>16.960000000000001</ele>
        <time>2023-08-29T12:09:43Z</time>
      </trkpt>
      <trkpt lat="56.724328966811299" lon="-6.221248023211956">
        <ele>16.960000000000001</ele>
        <time>2023-08-29T12:09:44Z</time>
      </trkpt>
      <trkpt lat="56.724332990124822" lon="-6.221355982124806">
        <ele>16.960000000000001</ele>
        <time>2023-08-29T12:09:45Z</time>
      </trkpt>
      <trkpt lat="56.724336007609963" lon="-6.221451032906771">
        <ele>16.48</ele>
        <time>2023-08-29T12:09:46Z</time>
      </trkpt>
      <trkpt lat="56.724339025095105" lon="-6.221522027626634">
        <ele>16</ele>
        <time>2023-08-29T12:09:47Z</time>
      </trkpt>
      <trkpt lat="56.724341036751866" lon="-6.221561003476381">
        <ele>15.52</ele>
        <time>2023-08-29T12:09:55Z</time>
      </trkpt>
      <trkpt lat="56.724341036751866" lon="-6.221561003476381">
        <ele>15.039999999999999</ele>
        <time>2023-08-29T12:10:38Z</time>
      </trkpt>
      <trkpt lat="56.724341958761215" lon="-6.221592016518116">
        <ele>15.039999999999999</ele>
        <time>2023-08-29T12:11:04Z</time>
      </trkpt>
      <trkpt lat="56.724344976246357" lon="-6.221662005409598">
        <ele>14.56</ele>
        <time>2023-08-29T12:11:05Z</time>
      </trkpt>
      <trkpt lat="56.724358974024653" lon="-6.221764013171196">
        <ele>14.56</ele>
        <time>2023-08-29T12:11:06Z</time>
      </trkpt>
      <trkpt lat="56.724494006484747" lon="-6.222789036110044">
        <ele>14.56</ele>
        <time>2023-08-29T12:11:14Z</time>
      </trkpt>
      <trkpt lat="56.724534993991256" lon="-6.222884003072977">
        <ele>15.039999999999999</ele>
        <time>2023-08-29T12:11:15Z</time>
      </trkpt>
      <trkpt lat="56.724568018689752" lon="-6.222959021106362">
        <ele>15.039999999999999</ele>
        <time>2023-08-29T12:11:16Z</time>
      </trkpt>
      <trkpt lat="56.724643036723137" lon="-6.223134035244584">
        <ele>15.52</ele>
        <time>2023-08-29T12:11:18Z</time>
      </trkpt>
      <trkpt lat="56.724686035886407" lon="-6.22323302552104">
        <ele>16</ele>
        <time>2023-08-29T12:11:19Z</time>
      </trkpt>
      <trkpt lat="56.724818972870708" lon="-6.223539970815182">
        <ele>16</ele>
        <time>2023-08-29T12:11:22Z</time>
      </trkpt>
      <trkpt lat="56.724876975640655" lon="-6.223603002727032">
        <ele>16</ele>
        <time>2023-08-29T12:11:23Z</time>
      </trkpt>
      <trkpt lat="56.724937995895743" lon="-6.223633009940386">
        <ele>16</ele>
        <time>2023-08-29T12:11:24Z</time>
      </trkpt>
      <trkpt lat="56.724989963695407" lon="-6.223658993840218">
        <ele>16</ele>
        <time>2023-08-29T12:11:25Z</time>
      </trkpt>
      <trkpt lat="56.725041009485722" lon="-6.223684977740049">
        <ele>16</ele>
        <time>2023-08-29T12:11:26Z</time>
      </trkpt>
      <trkpt lat="56.725092977285385" lon="-6.223710961639881">
        <ele>16</ele>
        <time>2023-08-29T12:11:27Z</time>
      </trkpt>
      <trkpt lat="56.725128013640642" lon="-6.223786985501647">
        <ele>16</ele>
        <time>2023-08-29T12:11:28Z</time>
      </trkpt>
      <trkpt lat="56.725163972005248" lon="-6.223868038505316">
        <ele>16</ele>
        <time>2023-08-29T12:11:29Z</time>
      </trkpt>
      <trkpt lat="56.725276038050652" lon="-6.224123015999794">
        <ele>16.960000000000001</ele>
        <time>2023-08-29T12:11:32Z</time>
      </trkpt>
      <trkpt lat="56.72531702555716" lon="-6.224215971305966">
        <ele>16.960000000000001</ele>
        <time>2023-08-29T12:11:33Z</time>
      </trkpt>
      <trkpt lat="56.725365975871682" lon="-6.224296018481255">
        <ele>17.440000000000001</ele>
        <time>2023-08-29T12:11:34Z</time>
      </trkpt>
      <trkpt lat="56.725592035800219" lon="-6.22460899874568">
        <ele>18.879999999999999</ele>
        <time>2023-08-29T12:11:39Z</time>
      </trkpt>
      <trkpt lat="56.725626988336444" lon="-6.224658032879233">
        <ele>19.359999999999999</ele>
        <time>2023-08-29T12:11:40Z</time>
      </trkpt>
      <trkpt lat="56.725655989721417" lon="-6.224698014557362">
        <ele>19.84</ele>
        <time>2023-08-29T12:11:41Z</time>
      </trkpt>
      <trkpt lat="56.725680967792869" lon="-6.224732967093587">
        <ele>19.84</ele>
        <time>2023-08-29T12:11:42Z</time>
      </trkpt>
      <trkpt lat="56.725696977227926" lon="-6.224755011498928">
        <ele>20.32</ele>
        <time>2023-08-29T12:11:43Z</time>
      </trkpt>
      <trkpt lat="56.725707035511732" lon="-6.224768003448844">
        <ele>20.809999999999999</ele>
        <time>2023-08-29T12:11:44Z</time>
      </trkpt>
      <trkpt lat="56.725707035511732" lon="-6.224768003448844">
        <ele>20.809999999999999</ele>
        <time>2023-08-29T12:11:56Z</time>
      </trkpt>
      <trkpt lat="56.725707035511732" lon="-6.224768003448844">
        <ele>21.289999999999999</ele>
        <time>2023-08-29T12:12:24Z</time>
      </trkpt>
      <trkpt lat="56.725707035511732" lon="-6.224768003448844">
        <ele>21.289999999999999</ele>
        <time>2023-08-29T12:12:25Z</time>
      </trkpt>
      <trkpt lat="56.725522968918085" lon="-6.224936982616782">
        <ele>12.630000000000001</ele>
        <time>2023-08-29T13:12:29Z</time>
      </trkpt>
      <trkpt lat="56.725598992779851" lon="-6.224938994273543">
        <ele>16.48</ele>
        <time>2023-08-29T13:13:02Z</time>
      </trkpt>
      <trkpt lat="56.725656995549798" lon="-6.224834974855185">
        <ele>21.289999999999999</ele>
        <time>2023-08-29T13:13:29Z</time>
      </trkpt>
      <trkpt lat="56.725644003599882" lon="-6.22482399456203">
        <ele>21.77</ele>
        <time>2023-08-29T13:13:35Z</time>
      </trkpt>
      <trkpt lat="56.72561801970005" lon="-6.224659960716963">
        <ele>20.32</ele>
        <time>2023-08-29T13:13:41Z</time>
      </trkpt>
      <trkpt lat="56.725590024143457" lon="-6.224485030397773">
        <ele>15.52</ele>
        <time>2023-08-29T13:13:58Z</time>
      </trkpt>
      <trkpt lat="56.725569991394877" lon="-6.224513025954366">
        <ele>17.920000000000002</ele>
        <time>2023-08-29T13:14:38Z</time>
      </trkpt>
      <trkpt lat="56.725570997223258" lon="-6.224515959620476">
        <ele>17.440000000000001</ele>
        <time>2023-08-29T13:15:25Z</time>
      </trkpt>
      <trkpt lat="56.725537972524762" lon="-6.224534986540675">
        <ele>17.440000000000001</ele>
        <time>2023-08-29T13:15:47Z</time>
      </trkpt>
      <trkpt lat="56.72551098279655" lon="-6.224498022347689">
        <ele>17.440000000000001</ele>
        <time>2023-08-29T13:15:48Z</time>
      </trkpt>
      <trkpt lat="56.725474018603563" lon="-6.224445970728993">
        <ele>17.440000000000001</ele>
        <time>2023-08-29T13:15:49Z</time>
      </trkpt>
      <trkpt lat="56.725426996126771" lon="-6.224381010979414">
        <ele>17.440000000000001</ele>
        <time>2023-08-29T13:15:50Z</time>
      </trkpt>
      <trkpt lat="56.725374022498727" lon="-6.22430800460279">
        <ele>17.440000000000001</ele>
        <time>2023-08-29T13:15:51Z</time>
      </trkpt>
      <trkpt lat="56.725276038050652" lon="-6.224123015999794">
        <ele>16.960000000000001</ele>
        <time>2023-08-29T13:15:53Z</time>
      </trkpt>
      <trkpt lat="56.725233038887382" lon="-6.224025031551719">
        <ele>16.960000000000001</ele>
        <time>2023-08-29T13:15:54Z</time>
      </trkpt>
      <trkpt lat="56.72519096173346" lon="-6.223929980769754">
        <ele>16.48</ele>
        <time>2023-08-29T13:15:55Z</time>
      </trkpt>
      <trkpt lat="56.725109992548823" lon="-6.223744992166758">
        <ele>16.48</ele>
        <time>2023-08-29T13:15:57Z</time>
      </trkpt>
      <trkpt lat="56.725057018920779" lon="-6.223693024367094">
        <ele>16</ele>
        <time>2023-08-29T13:15:58Z</time>
      </trkpt>
      <trkpt lat="56.725009996443987" lon="-6.223669974133372">
        <ele>16</ele>
        <time>2023-08-29T13:15:59Z</time>
      </trkpt>
      <trkpt lat="56.724960962310433" lon="-6.223644996061921">
        <ele>15.52</ele>
        <time>2023-08-29T13:16:00Z</time>
      </trkpt>
      <trkpt lat="56.724911006167531" lon="-6.22362001799047">
        <ele>15.52</ele>
        <time>2023-08-29T13:16:01Z</time>
      </trkpt>
      <trkpt lat="56.724857026711106" lon="-6.223593028262258">
        <ele>15.039999999999999</ele>
        <time>2023-08-29T13:16:02Z</time>
      </trkpt>
      <trkpt lat="56.724812015891075" lon="-6.223524967208505">
        <ele>15.039999999999999</ele>
        <time>2023-08-29T13:16:03Z</time>
      </trkpt>
      <trkpt lat="56.724778991192579" lon="-6.22344802133739">
        <ele>14.56</ele>
        <time>2023-08-29T13:16:04Z</time>
      </trkpt>
      <trkpt lat="56.724742026999593" lon="-6.223363028839231">
        <ele>14.56</ele>
        <time>2023-08-29T13:16:05Z</time>
      </trkpt>
      <trkpt lat="56.724702967330813" lon="-6.223272001370788">
        <ele>14.08</ele>
        <time>2023-08-29T13:16:06Z</time>
      </trkpt>
      <trkpt lat="56.724662985652685" lon="-6.223179968073964">
        <ele>14.08</ele>
        <time>2023-08-29T13:16:07Z</time>
      </trkpt>
      <trkpt lat="56.724627027288079" lon="-6.223097993060947">
        <ele>13.6</ele>
        <time>2023-08-29T13:16:08Z</time>
      </trkpt>
      <trkpt lat="56.724590985104442" lon="-6.223014006391168">
        <ele>13.6</ele>
        <time>2023-08-29T13:16:09Z</time>
      </trkpt>
      <trkpt lat="56.724514961242676" lon="-6.222837986424565">
        <ele>13.6</ele>
        <time>2023-08-29T13:16:11Z</time>
      </trkpt>
      <trkpt lat="56.724487971514463" lon="-6.222745031118393">
        <ele>13.119999999999999</ele>
        <time>2023-08-29T13:16:12Z</time>
      </trkpt>
      <trkpt lat="56.724472967907786" lon="-6.222629025578499">
        <ele>13.119999999999999</ele>
        <time>2023-08-29T13:16:13Z</time>
      </trkpt>
      <trkpt lat="56.724337013438344" lon="-6.22145002707839">
        <ele>12.15</ele>
        <time>2023-08-29T13:16:22Z</time>
      </trkpt>
      <trkpt lat="56.724326033145189" lon="-6.221155989915133">
        <ele>12.15</ele>
        <time>2023-08-29T13:16:24Z</time>
      </trkpt>
      <trkpt lat="56.724298037588596" lon="-6.220997991040349">
        <ele>12.15</ele>
        <time>2023-08-29T13:16:25Z</time>
      </trkpt>
      <trkpt lat="56.724252020940185" lon="-6.220860024914146">
        <ele>12.15</ele>
        <time>2023-08-29T13:16:26Z</time>
      </trkpt>
      <trkpt lat="56.724202986806631" lon="-6.220714012160897">
        <ele>12.15</ele>
        <time>2023-08-29T13:16:27Z</time>
      </trkpt>
      <trkpt lat="56.724151019006968" lon="-6.220558024942875">
        <ele>12.15</ele>
        <time>2023-08-29T13:16:28Z</time>
      </trkpt>
      <trkpt lat="56.724100979045033" lon="-6.220406983047724">
        <ele>12.15</ele>
        <time>2023-08-29T13:16:29Z</time>
      </trkpt>
      <trkpt lat="56.724054040387273" lon="-6.22026801109314">
        <ele>12.15</ele>
        <time>2023-08-29T13:16:30Z</time>
      </trkpt>
      <trkpt lat="56.724013974890113" lon="-6.220147982239723">
        <ele>12.630000000000001</ele>
        <time>2023-08-29T13:16:31Z</time>
      </trkpt>
      <trkpt lat="56.724000982940197" lon="-6.220106994733214">
        <ele>12.630000000000001</ele>
        <time>2023-08-29T13:16:32Z</time>
      </trkpt>
      <trkpt lat="56.723898975178599" lon="-6.220068018883467">
        <ele>12.630000000000001</ele>
        <time>2023-08-29T13:16:33Z</time>
      </trkpt>
      <trkpt lat="56.723828986287117" lon="-6.220040023326874">
        <ele>12.630000000000001</ele>
        <time>2023-08-29T13:16:34Z</time>
      </trkpt>
      <trkpt lat="56.723749022930861" lon="-6.220009010285139">
        <ele>12.630000000000001</ele>
        <time>2023-08-29T13:16:35Z</time>
      </trkpt>
      <trkpt lat="56.72366201877594" lon="-6.219974979758263">
        <ele>12.630000000000001</ele>
        <time>2023-08-29T13:16:36Z</time>
      </trkpt>
      <trkpt lat="56.723573002964258" lon="-6.219923011958599">
        <ele>12.15</ele>
        <time>2023-08-29T13:16:37Z</time>
      </trkpt>
      <trkpt lat="56.723495973274112" lon="-6.219857968389988">
        <ele>12.15</ele>
        <time>2023-08-29T13:16:38Z</time>
      </trkpt>
      <trkpt lat="56.723418021574616" lon="-6.219793008640409">
        <ele>12.630000000000001</ele>
        <time>2023-08-29T13:16:39Z</time>
      </trkpt>
      <trkpt lat="56.72334099188447" lon="-6.219724025577307">
        <ele>12.630000000000001</ele>
        <time>2023-08-29T13:16:40Z</time>
      </trkpt>
      <trkpt lat="56.723263962194324" lon="-6.219635009765625">
        <ele>12.630000000000001</ele>
        <time>2023-08-29T13:16:41Z</time>
      </trkpt>
      <trkpt lat="56.723044021055102" lon="-6.219381038099527">
        <ele>12.630000000000001</ele>
        <time>2023-08-29T13:16:44Z</time>
      </trkpt>
      <trkpt lat="56.722990041598678" lon="-6.219318006187677">
        <ele>12.630000000000001</ele>
        <time>2023-08-29T13:16:45Z</time>
      </trkpt>
      <trkpt lat="56.722946036607027" lon="-6.219240976497531">
        <ele>12.630000000000001</ele>
        <time>2023-08-29T13:16:46Z</time>
      </trkpt>
      <trkpt lat="56.72293103300035" lon="-6.219122037291527">
        <ele>12.630000000000001</ele>
        <time>2023-08-29T13:16:47Z</time>
      </trkpt>
      <trkpt lat="56.722915023565292" lon="-6.218982981517911">
        <ele>12.630000000000001</ele>
        <time>2023-08-29T13:16:48Z</time>
      </trkpt>
      <trkpt lat="56.722894990816712" lon="-6.218821965157986">
        <ele>12.15</ele>
        <time>2023-08-29T13:16:49Z</time>
      </trkpt>
      <trkpt lat="56.722860038280487" lon="-6.218642005696893">
        <ele>11.67</ele>
        <time>2023-08-29T13:16:50Z</time>
      </trkpt>
      <trkpt lat="56.722776973620057" lon="-6.218333970755339">
        <ele>11.67</ele>
        <time>2023-08-29T13:16:52Z</time>
      </trkpt>
      <trkpt lat="56.722734980285168" lon="-6.218175971880555">
        <ele>11.19</ele>
        <time>2023-08-29T13:16:53Z</time>
      </trkpt>
      <trkpt lat="56.722734980285168" lon="-6.218030964955688">
        <ele>11.19</ele>
        <time>2023-08-29T13:16:54Z</time>
      </trkpt>
      <trkpt lat="56.722730034962296" lon="-6.216664966195822">
        <ele>11.67</ele>
        <time>2023-08-29T13:17:01Z</time>
      </trkpt>
      <trkpt lat="56.722710002213717" lon="-6.216494981199503">
        <ele>11.67</ele>
        <time>2023-08-29T13:17:02Z</time>
      </trkpt>
      <trkpt lat="56.722658034414053" lon="-6.216381993144751">
        <ele>11.67</ele>
        <time>2023-08-29T13:17:03Z</time>
      </trkpt>
      <trkpt lat="56.722604976966977" lon="-6.216269005089998">
        <ele>12.15</ele>
        <time>2023-08-29T13:17:04Z</time>
      </trkpt>
      <trkpt lat="56.722579998895526" lon="-6.216136990115047">
        <ele>12.15</ele>
        <time>2023-08-29T13:17:05Z</time>
      </trkpt>
      <trkpt lat="56.722572036087513" lon="-6.215984020382166">
        <ele>12.15</ele>
        <time>2023-08-29T13:17:06Z</time>
      </trkpt>
      <trkpt lat="56.722562983632088" lon="-6.215815041214228">
        <ele>12.15</ele>
        <time>2023-08-29T13:17:07Z</time>
      </trkpt>
      <trkpt lat="56.722554014995694" lon="-6.2156299687922">
        <ele>12.15</ele>
        <time>2023-08-29T13:17:08Z</time>
      </trkpt>
      <trkpt lat="56.722554014995694" lon="-6.213825009763241">
        <ele>13.119999999999999</ele>
        <time>2023-08-29T13:17:17Z</time>
      </trkpt>
      <trkpt lat="56.722678989171982" lon="-6.21253696270287">
        <ele>13.119999999999999</ele>
        <time>2023-08-29T13:17:24Z</time>
      </trkpt>
      <trkpt lat="56.722700027748942" lon="-6.212395979091525">
        <ele>12.630000000000001</ele>
        <time>2023-08-29T13:17:25Z</time>
      </trkpt>
      <trkpt lat="56.722749983891845" lon="-6.212346022948623">
        <ele>12.630000000000001</ele>
        <time>2023-08-29T13:17:26Z</time>
      </trkpt>
      <trkpt lat="56.722813015803695" lon="-6.212336970493197">
        <ele>12.630000000000001</ele>
        <time>2023-08-29T13:17:27Z</time>
      </trkpt>
      <trkpt lat="56.722884010523558" lon="-6.212333030998707">
        <ele>12.630000000000001</ele>
        <time>2023-08-29T13:17:28Z</time>
      </trkpt>
      <trkpt lat="56.723341997712851" lon="-6.212308974936605">
        <ele>12.630000000000001</ele>
        <time>2023-08-29T13:17:33Z</time>
      </trkpt>
      <trkpt lat="56.723832003772259" lon="-6.212386004626751">
        <ele>13.6</ele>
        <time>2023-08-29T13:17:38Z</time>
      </trkpt>
      <trkpt lat="56.723921019583941" lon="-6.212435038760305">
        <ele>14.08</ele>
        <time>2023-08-29T13:17:39Z</time>
      </trkpt>
      <trkpt lat="56.724331984296441" lon="-6.212704014033079">
        <ele>15.039999999999999</ele>
        <time>2023-08-29T13:17:44Z</time>
      </trkpt>
      <trkpt lat="56.724505992606282" lon="-6.212858995422721">
        <ele>16.48</ele>
        <time>2023-08-29T13:17:51Z</time>
      </trkpt>
      <trkpt lat="56.724538011476398" lon="-6.212872993201017">
        <ele>16.48</ele>
        <time>2023-08-29T13:17:52Z</time>
      </trkpt>
      <trkpt lat="56.724583022296429" lon="-6.212892020121217">
        <ele>16.48</ele>
        <time>2023-08-29T13:17:53Z</time>
      </trkpt>
      <trkpt lat="56.724691987037659" lon="-6.212938036769629">
        <ele>16.48</ele>
        <time>2023-08-29T13:17:55Z</time>
      </trkpt>
      <trkpt lat="56.724891979247332" lon="-6.213022023439407">
        <ele>16.960000000000001</ele>
        <time>2023-08-29T13:17:58Z</time>
      </trkpt>
      <trkpt lat="56.724960962310433" lon="-6.212977012619376">
        <ele>16.48</ele>
        <time>2023-08-29T13:17:59Z</time>
      </trkpt>
      <trkpt lat="56.725031035020947" lon="-6.212918004021049">
        <ele>16.48</ele>
        <time>2023-08-29T13:18:00Z</time>
      </trkpt>
      <trkpt lat="56.72508199699223" lon="-6.212797975167632">
        <ele>16</ele>
        <time>2023-08-29T13:18:01Z</time>
      </trkpt>
      <trkpt lat="56.725139999762177" lon="-6.212665038183332">
        <ele>16</ele>
        <time>2023-08-29T13:18:02Z</time>
      </trkpt>
      <trkpt lat="56.725186016410589" lon="-6.212516007944942">
        <ele>15.52</ele>
        <time>2023-08-29T13:18:03Z</time>
      </trkpt>
      <trkpt lat="56.725228009745479" lon="-6.212359014898539">
        <ele>15.039999999999999</ele>
        <time>2023-08-29T13:18:04Z</time>
      </trkpt>
      <trkpt lat="56.725299004465342" lon="-6.212089033797383">
        <ele>14.56</ele>
        <time>2023-08-29T13:18:06Z</time>
      </trkpt>
      <trkpt lat="56.725328005850315" lon="-6.211979985237122">
        <ele>15.039999999999999</ele>
        <time>2023-08-29T13:18:07Z</time>
      </trkpt>
      <trkpt lat="56.72544501721859" lon="-6.211537001654506">
        <ele>16.48</ele>
        <time>2023-08-29T13:18:11Z</time>
      </trkpt>
      <trkpt lat="56.725493967533112" lon="-6.211443040519953">
        <ele>16.48</ele>
        <time>2023-08-29T13:18:12Z</time>
      </trkpt>
      <trkpt lat="56.725556999444962" lon="-6.211371961981058">
        <ele>16</ele>
        <time>2023-08-29T13:18:13Z</time>
      </trkpt>
      <trkpt lat="56.725824968889356" lon="-6.211072979494929">
        <ele>12.630000000000001</ele>
        <time>2023-08-29T13:18:17Z</time>
      </trkpt>
      <trkpt lat="56.725864028558135" lon="-6.210936019197106">
        <ele>12.15</ele>
        <time>2023-08-29T13:18:18Z</time>
      </trkpt>
      <trkpt lat="56.725890012457967" lon="-6.210843985900283">
        <ele>11.67</ele>
        <time>2023-08-29T13:18:19Z</time>
      </trkpt>
      <trkpt lat="56.725892024114728" lon="-6.210724040865898">
        <ele>11.19</ele>
        <time>2023-08-29T13:18:20Z</time>
      </trkpt>
      <trkpt lat="56.725851036608219" lon="-6.210620021447539">
        <ele>10.710000000000001</ele>
        <time>2023-08-29T13:18:21Z</time>
      </trkpt>
      <trkpt lat="56.725800996646285" lon="-6.210489012300968">
        <ele>10.710000000000001</ele>
        <time>2023-08-29T13:18:22Z</time>
      </trkpt>
      <trkpt lat="56.725742993876338" lon="-6.210337970405817">
        <ele>10.23</ele>
        <time>2023-08-29T13:18:23Z</time>
      </trkpt>
      <trkpt lat="56.72568398527801" lon="-6.210168991237879">
        <ele>10.23</ele>
        <time>2023-08-29T13:18:24Z</time>
      </trkpt>
      <trkpt lat="56.725638974457979" lon="-6.209990037605166">
        <ele>10.23</ele>
        <time>2023-08-29T13:18:25Z</time>
      </trkpt>
      <trkpt lat="56.725593963637948" lon="-6.209808988496661">
        <ele>10.710000000000001</ele>
        <time>2023-08-29T13:18:26Z</time>
      </trkpt>
      <trkpt lat="56.725547024980187" lon="-6.209621988236904">
        <ele>10.710000000000001</ele>
        <time>2023-08-29T13:18:27Z</time>
      </trkpt>
      <trkpt lat="56.725501008331776" lon="-6.209433982148767">
        <ele>10.710000000000001</ele>
        <time>2023-08-29T13:18:28Z</time>
      </trkpt>
      <trkpt lat="56.725227003917098" lon="-6.207753997296095">
        <ele>12.630000000000001</ele>
        <time>2023-08-29T13:18:37Z</time>
      </trkpt>
      <trkpt lat="56.725040003657341" lon="-6.206006035208702">
        <ele>14.56</ele>
        <time>2023-08-29T13:18:46Z</time>
      </trkpt>
      <trkpt lat="56.724989041686058" lon="-6.205851975828409">
        <ele>14.56</ele>
        <time>2023-08-29T13:18:47Z</time>
      </trkpt>
      <trkpt lat="56.72449903562665" lon="-6.204478014260531">
        <ele>17.440000000000001</ele>
        <time>2023-08-29T13:18:55Z</time>
      </trkpt>
      <trkpt lat="56.724465005099773" lon="-6.204335018992424">
        <ele>18.399999999999999</ele>
        <time>2023-08-29T13:18:56Z</time>
      </trkpt>
      <trkpt lat="56.724429968744516" lon="-6.204185988754034">
        <ele>18.879999999999999</ele>
        <time>2023-08-29T13:18:57Z</time>
      </trkpt>
      <trkpt lat="56.724432986229658" lon="-6.204080963507295">
        <ele>19.359999999999999</ele>
        <time>2023-08-29T13:18:58Z</time>
      </trkpt>
      <trkpt lat="56.72443700954318" lon="-6.203928999602795">
        <ele>19.84</ele>
        <time>2023-08-29T13:18:59Z</time>
      </trkpt>
      <trkpt lat="56.724451007321477" lon="-6.203456008806825">
        <ele>22.25</ele>
        <time>2023-08-29T13:19:02Z</time>
      </trkpt>
      <trkpt lat="56.724475985392928" lon="-6.203331034630537">
        <ele>23.210000000000001</ele>
        <time>2023-08-29T13:19:03Z</time>
      </trkpt>
      <trkpt lat="56.72450196929276" lon="-6.203199019655585">
        <ele>23.690000000000001</ele>
        <time>2023-08-29T13:19:04Z</time>
      </trkpt>
      <trkpt lat="56.724802041426301" lon="-6.201664041727781">
        <ele>25.609999999999999</ele>
        <time>2023-08-29T13:19:13Z</time>
      </trkpt>
      <trkpt lat="56.724945036694407" lon="-6.200258983299136">
        <ele>21.289999999999999</ele>
        <time>2023-08-29T13:19:20Z</time>
      </trkpt>
      <trkpt lat="56.724915029481053" lon="-6.199768977239728">
        <ele>23.690000000000001</ele>
        <time>2023-08-29T13:19:23Z</time>
      </trkpt>
      <trkpt lat="56.724907988682389" lon="-6.199656995013356">
        <ele>24.170000000000002</ele>
        <time>2023-08-29T13:19:24Z</time>
      </trkpt>
      <trkpt lat="56.724897008389235" lon="-6.19953696615994">
        <ele>25.129999999999999</ele>
        <time>2023-08-29T13:19:25Z</time>
      </trkpt>
      <trkpt lat="56.724860966205597" lon="-6.199433030560613">
        <ele>26.09</ele>
        <time>2023-08-29T13:19:26Z</time>
      </trkpt>
      <trkpt lat="56.724820984527469" lon="-6.199318030849099">
        <ele>27.050000000000001</ele>
        <time>2023-08-29T13:19:27Z</time>
      </trkpt>
      <trkpt lat="56.724730040878057" lon="-6.199057018384337">
        <ele>28.02</ele>
        <time>2023-08-29T13:19:29Z</time>
      </trkpt>
      <trkpt lat="56.724701039493084" lon="-6.198874041438103">
        <ele>28.02</ele>
        <time>2023-08-29T13:19:30Z</time>
      </trkpt>
      <trkpt lat="56.724555026739836" lon="-6.197958989068866">
        <ele>27.530000000000001</ele>
        <time>2023-08-29T13:19:34Z</time>
      </trkpt>
      <trkpt lat="56.724456958472729" lon="-6.197343003004789">
        <ele>28.98</ele>
        <time>2023-08-29T13:19:37Z</time>
      </trkpt>
      <trkpt lat="56.724410019814968" lon="-6.197050977498293">
        <ele>29.940000000000001</ele>
        <time>2023-08-29T13:19:39Z</time>
      </trkpt>
      <trkpt lat="56.724364003166556" lon="-6.196919968351722">
        <ele>30.899999999999999</ele>
        <time>2023-08-29T13:19:40Z</time>
      </trkpt>
      <trkpt lat="56.724314969033003" lon="-6.196788037195802">
        <ele>31.379999999999999</ele>
        <time>2023-08-29T13:19:41Z</time>
      </trkpt>
      <trkpt lat="56.724257972091436" lon="-6.196631966158748">
        <ele>32.340000000000003</ele>
        <time>2023-08-29T13:19:42Z</time>
      </trkpt>
      <trkpt lat="56.724170967936516" lon="-6.196513026952744">
        <ele>32.82</ele>
        <time>2023-08-29T13:19:43Z</time>
      </trkpt>
      <trkpt lat="56.724069966003299" lon="-6.196373971179128">
        <ele>33.299999999999997</ele>
        <time>2023-08-29T13:19:44Z</time>
      </trkpt>
      <trkpt lat="56.723437970504165" lon="-6.195505019277334">
        <ele>33.299999999999997</ele>
        <time>2023-08-29T13:19:50Z</time>
      </trkpt>
      <trkpt lat="56.723322970792651" lon="-6.195381972938776">
        <ele>32.82</ele>
        <time>2023-08-29T13:19:51Z</time>
      </trkpt>
      <trkpt lat="56.723018037155271" lon="-6.195101011544466">
        <ele>32.340000000000003</ele>
        <time>2023-08-29T13:19:54Z</time>
      </trkpt>
      <trkpt lat="56.722846040502191" lon="-6.19491501711309">
        <ele>31.859999999999999</ele>
        <time>2023-08-29T13:19:56Z</time>
      </trkpt>
      <trkpt lat="56.722790971398354" lon="-6.194777972996235">
        <ele>31.379999999999999</ele>
        <time>2023-08-29T13:19:57Z</time>
      </trkpt>
      <trkpt lat="56.722737997770309" lon="-6.194644030183554">
        <ele>30.899999999999999</ele>
        <time>2023-08-29T13:19:58Z</time>
      </trkpt>
      <trkpt lat="56.722681000828743" lon="-6.194502962753177">
        <ele>30.899999999999999</ele>
        <time>2023-08-29T13:19:59Z</time>
      </trkpt>
      <trkpt lat="56.722605982795358" lon="-6.194315040484071">
        <ele>30.899999999999999</ele>
        <time>2023-08-29T13:20:00Z</time>
      </trkpt>
      <trkpt lat="56.722571030259132" lon="-6.194150000810623">
        <ele>30.420000000000002</ele>
        <time>2023-08-29T13:20:01Z</time>
      </trkpt>
      <trkpt lat="56.722213961184025" lon="-6.192459035664797">
        <ele>29.940000000000001</ele>
        <time>2023-08-29T13:20:08Z</time>
      </trkpt>
      <trkpt lat="56.722146989777684" lon="-6.192137002944946">
        <ele>30.899999999999999</ele>
        <time>2023-08-29T13:20:10Z</time>
      </trkpt>
      <trkpt lat="56.722040958702564" lon="-6.191638028249145">
        <ele>29.460000000000001</ele>
        <time>2023-08-29T13:20:13Z</time>
      </trkpt>
      <trkpt lat="56.722013968974352" lon="-6.191450022161007">
        <ele>28.98</ele>
        <time>2023-08-29T13:20:14Z</time>
      </trkpt>
      <trkpt lat="56.721993014216423" lon="-6.191235026344657">
        <ele>28.5</ele>
        <time>2023-08-29T13:20:15Z</time>
      </trkpt>
      <trkpt lat="56.721882959827781" lon="-6.189640033990145">
        <ele>27.530000000000001</ele>
        <time>2023-08-29T13:20:22Z</time>
      </trkpt>
      <trkpt lat="56.721839960664511" lon="-6.188596989959478">
        <ele>25.129999999999999</ele>
        <time>2023-08-29T13:20:27Z</time>
      </trkpt>
      <trkpt lat="56.721834009513259" lon="-6.188459023833275">
        <ele>25.129999999999999</ele>
        <time>2023-08-29T13:20:28Z</time>
      </trkpt>
      <trkpt lat="56.721867034211755" lon="-6.188331032171845">
        <ele>25.129999999999999</ele>
        <time>2023-08-29T13:20:29Z</time>
      </trkpt>
      <trkpt lat="56.721898969262838" lon="-6.188231036067009">
        <ele>25.129999999999999</ele>
        <time>2023-08-29T13:20:30Z</time>
      </trkpt>
      <trkpt lat="56.721934005618095" lon="-6.188118970021606">
        <ele>25.129999999999999</ele>
        <time>2023-08-29T13:20:31Z</time>
      </trkpt>
      <trkpt lat="56.721983961760998" lon="-6.187963988631964">
        <ele>24.649999999999999</ele>
        <time>2023-08-29T13:20:32Z</time>
      </trkpt>
      <trkpt lat="56.722047999501228" lon="-6.187858041375876">
        <ele>24.649999999999999</ele>
        <time>2023-08-29T13:20:33Z</time>
      </trkpt>
      <trkpt lat="56.722813015803695" lon="-6.186607964336872">
        <ele>24.649999999999999</ele>
        <time>2023-08-29T13:20:41Z</time>
      </trkpt>
      <trkpt lat="56.723261028528214" lon="-6.185875972732902">
        <ele>27.530000000000001</ele>
        <time>2023-08-29T13:20:46Z</time>
      </trkpt>
      <trkpt lat="56.723336968570948" lon="-6.185743035748601">
        <ele>28.5</ele>
        <time>2023-08-29T13:20:47Z</time>
      </trkpt>
      <trkpt lat="56.723369993269444" lon="-6.185580007731915">
        <ele>29.940000000000001</ele>
        <time>2023-08-29T13:20:48Z</time>
      </trkpt>
      <trkpt lat="56.723402012139559" lon="-6.185423014685512">
        <ele>31.379999999999999</ele>
        <time>2023-08-29T13:20:49Z</time>
      </trkpt>
      <trkpt lat="56.723431013524532" lon="-6.185274990275502">
        <ele>32.340000000000003</ele>
        <time>2023-08-29T13:20:50Z</time>
      </trkpt>
      <trkpt lat="56.723460014909506" lon="-6.185130989179015">
        <ele>33.780000000000001</ele>
        <time>2023-08-29T13:20:51Z</time>
      </trkpt>
      <trkpt lat="56.723527992144227" lon="-6.185008026659489">
        <ele>34.740000000000002</ele>
        <time>2023-08-29T13:20:52Z</time>
      </trkpt>
      <trkpt lat="56.723595969378948" lon="-6.184899983927608">
        <ele>35.710000000000001</ele>
        <time>2023-08-29T13:20:53Z</time>
      </trkpt>
      <trkpt lat="56.723665036261082" lon="-6.184790013357997">
        <ele>37.149999999999999</ele>
        <time>2023-08-29T13:20:54Z</time>
      </trkpt>
      <trkpt lat="56.723733013495803" lon="-6.184681970626116">
        <ele>38.109999999999999</ele>
        <time>2023-08-29T13:20:55Z</time>
      </trkpt>
      <trkpt lat="56.723801996558905" lon="-6.184573005884886">
        <ele>39.07</ele>
        <time>2023-08-29T13:20:56Z</time>
      </trkpt>
      <trkpt lat="56.723859999328852" lon="-6.184425987303257">
        <ele>40.030000000000001</ele>
        <time>2023-08-29T13:20:57Z</time>
      </trkpt>
      <trkpt lat="56.723910961300135" lon="-6.184256002306938">
        <ele>40.990000000000002</ele>
        <time>2023-08-29T13:20:58Z</time>
      </trkpt>
      <trkpt lat="56.72450196929276" lon="-6.182490019127727">
        <ele>45.799999999999997</ele>
        <time>2023-08-29T13:21:07Z</time>
      </trkpt>
      <trkpt lat="56.724572964012623" lon="-6.182335037738085">
        <ele>46.759999999999998</ele>
        <time>2023-08-29T13:21:08Z</time>
      </trkpt>
      <trkpt lat="56.724643958732486" lon="-6.182180978357792">
        <ele>48.200000000000003</ele>
        <time>2023-08-29T13:21:09Z</time>
      </trkpt>
      <trkpt lat="56.724769016727805" lon="-6.181910997256637">
        <ele>50.130000000000003</ele>
        <time>2023-08-29T13:21:11Z</time>
      </trkpt>
      <trkpt lat="56.724817967042327" lon="-6.181803960353136">
        <ele>51.090000000000003</ele>
        <time>2023-08-29T13:21:12Z</time>
      </trkpt>
      <trkpt lat="56.724836993962526" lon="-6.181697007268667">
        <ele>52.049999999999997</ele>
        <time>2023-08-29T13:21:13Z</time>
      </trkpt>
      <trkpt lat="56.724836993962526" lon="-6.181556023657322">
        <ele>53.009999999999998</ele>
        <time>2023-08-29T13:21:14Z</time>
      </trkpt>
      <trkpt lat="56.724836993962526" lon="-6.181395007297397">
        <ele>53.969999999999999</ele>
        <time>2023-08-29T13:21:15Z</time>
      </trkpt>
      <trkpt lat="56.724854009225965" lon="-6.18013403378427">
        <ele>61.18</ele>
        <time>2023-08-29T13:21:23Z</time>
      </trkpt>
      <trkpt lat="56.724902037531137" lon="-6.179766990244389">
        <ele>60.700000000000003</ele>
        <time>2023-08-29T13:21:26Z</time>
      </trkpt>
      <trkpt lat="56.724949982017279" lon="-6.179659031331539">
        <ele>60.219999999999999</ele>
        <time>2023-08-29T13:21:27Z</time>
      </trkpt>
      <trkpt lat="56.724988035857677" lon="-6.17957403883338">
        <ele>59.259999999999998</ele>
        <time>2023-08-29T13:21:28Z</time>
      </trkpt>
      <trkpt lat="56.725041009485722" lon="-6.179550988599658">
        <ele>57.82</ele>
        <time>2023-08-29T13:21:29Z</time>
      </trkpt>
      <trkpt lat="56.725119967013597" lon="-6.179517041891813">
        <ele>56.859999999999999</ele>
        <time>2023-08-29T13:21:30Z</time>
      </trkpt>
      <trkpt lat="56.725215017795563" lon="-6.179411010816693">
        <ele>55.890000000000001</ele>
        <time>2023-08-29T13:21:31Z</time>
      </trkpt>
      <trkpt lat="56.725291963666677" lon="-6.179312020540237">
        <ele>55.409999999999997</ele>
        <time>2023-08-29T13:21:32Z</time>
      </trkpt>
      <trkpt lat="56.725523974746466" lon="-6.179015971720219">
        <ele>52.530000000000001</ele>
        <time>2023-08-29T13:21:36Z</time>
      </trkpt>
      <trkpt lat="56.725565968081355" lon="-6.178892003372312">
        <ele>51.57</ele>
        <time>2023-08-29T13:21:37Z</time>
      </trkpt>
      <trkpt lat="56.725589018315077" lon="-6.17882302030921">
        <ele>51.090000000000003</ele>
        <time>2023-08-29T13:21:38Z</time>
      </trkpt>
      <trkpt lat="56.725543001666665" lon="-6.178711038082838">
        <ele>50.130000000000003</ele>
        <time>2023-08-29T13:21:39Z</time>
      </trkpt>
      <trkpt lat="56.725506959483027" lon="-6.178623028099537">
        <ele>49.159999999999997</ele>
        <time>2023-08-29T13:21:40Z</time>
      </trkpt>
      <trkpt lat="56.725462032482028" lon="-6.178513979539275">
        <ele>48.68</ele>
        <time>2023-08-29T13:21:41Z</time>
      </trkpt>
      <trkpt lat="56.725202025845647" lon="-6.178040988743305">
        <ele>46.759999999999998</ele>
        <time>2023-08-29T13:21:45Z</time>
      </trkpt>
      <trkpt lat="56.725127007812262" lon="-6.177921965718269">
        <ele>46.280000000000001</ele>
        <time>2023-08-29T13:21:46Z</time>
      </trkpt>
      <trkpt lat="56.724979989230633" lon="-6.177789028733969">
        <ele>44.840000000000003</ele>
        <time>2023-08-29T13:21:48Z</time>
      </trkpt>
      <trkpt lat="56.724896002560854" lon="-6.177747035399079">
        <ele>44.359999999999999</ele>
        <time>2023-08-29T13:21:49Z</time>
      </trkpt>
      <trkpt lat="56.724438015371561" lon="-6.177518041804433">
        <ele>38.590000000000003</ele>
        <time>2023-08-29T13:21:55Z</time>
      </trkpt>
      <trkpt lat="56.724358974024653" lon="-6.177478982135654">
        <ele>36.189999999999998</ele>
        <time>2023-08-29T13:21:58Z</time>
      </trkpt>
      <trkpt lat="56.724310023710132" lon="-6.177454004064202">
        <ele>32.340000000000003</ele>
        <time>2023-08-29T13:22:06Z</time>
      </trkpt>
      <trkpt lat="56.724266018718481" lon="-6.177431959658861">
        <ele>31.859999999999999</ele>
        <time>2023-08-29T13:22:07Z</time>
      </trkpt>
      <trkpt lat="56.724214972928166" lon="-6.177405975759029">
        <ele>30.899999999999999</ele>
        <time>2023-08-29T13:22:08Z</time>
      </trkpt>
      <trkpt lat="56.724138027057052" lon="-6.177308997139335">
        <ele>30.420000000000002</ele>
        <time>2023-08-29T13:22:09Z</time>
      </trkpt>
      <trkpt lat="56.724063009023666" lon="-6.177214030176401">
        <ele>29.460000000000001</ele>
        <time>2023-08-29T13:22:10Z</time>
      </trkpt>
      <trkpt lat="56.723896041512489" lon="-6.177002973854542">
        <ele>28.02</ele>
        <time>2023-08-29T13:22:12Z</time>
      </trkpt>
      <trkpt lat="56.723808031529188" lon="-6.17689099162817">
        <ele>27.530000000000001</ele>
        <time>2023-08-29T13:22:13Z</time>
      </trkpt>
      <trkpt lat="56.723762014880776" lon="-6.176754031330347">
        <ele>27.050000000000001</ele>
        <time>2023-08-29T13:22:14Z</time>
      </trkpt>
      <trkpt lat="56.723709963262081" lon="-6.176599971950054">
        <ele>26.57</ele>
        <time>2023-08-29T13:22:15Z</time>
      </trkpt>
      <trkpt lat="56.723663024604321" lon="-6.176434010267258">
        <ele>26.09</ele>
        <time>2023-08-29T13:22:16Z</time>
      </trkpt>
      <trkpt lat="56.723240995779634" lon="-6.174555961042643">
        <ele>25.609999999999999</ele>
        <time>2023-08-29T13:22:25Z</time>
      </trkpt>
      <trkpt lat="56.7228680010885" lon="-6.172797018662095">
        <ele>27.050000000000001</ele>
        <time>2023-08-29T13:22:33Z</time>
      </trkpt>
      <trkpt lat="56.722833970561624" lon="-6.172634996473789">
        <ele>27.050000000000001</ele>
        <time>2023-08-29T13:22:34Z</time>
      </trkpt>
      <trkpt lat="56.722803041338921" lon="-6.172492001205683">
        <ele>27.050000000000001</ele>
        <time>2023-08-29T13:22:35Z</time>
      </trkpt>
      <trkpt lat="56.722708996385336" lon="-6.172050023451448">
        <ele>26.57</ele>
        <time>2023-08-29T13:22:38Z</time>
      </trkpt>
      <trkpt lat="56.722676977515221" lon="-6.171895964071155">
        <ele>26.09</ele>
        <time>2023-08-29T13:22:39Z</time>
      </trkpt>
      <trkpt lat="56.722648981958628" lon="-6.171763027086854">
        <ele>25.609999999999999</ele>
        <time>2023-08-29T13:22:40Z</time>
      </trkpt>
      <trkpt lat="56.722595002502203" lon="-6.171645009890199">
        <ele>25.129999999999999</ele>
        <time>2023-08-29T13:22:41Z</time>
      </trkpt>
      <trkpt lat="56.722535993903875" lon="-6.171516012400389">
        <ele>24.649999999999999</ele>
        <time>2023-08-29T13:22:42Z</time>
      </trkpt>
      <trkpt lat="56.722472039982677" lon="-6.171373017132282">
        <ele>24.170000000000002</ele>
        <time>2023-08-29T13:22:43Z</time>
      </trkpt>
      <trkpt lat="56.722406996414065" lon="-6.171231027692556">
        <ele>23.690000000000001</ele>
        <time>2023-08-29T13:22:44Z</time>
      </trkpt>
      <trkpt lat="56.722343964502215" lon="-6.171091971918941">
        <ele>23.210000000000001</ele>
        <time>2023-08-29T13:22:45Z</time>
      </trkpt>
      <trkpt lat="56.722270036116242" lon="-6.170974960550666">
        <ele>23.210000000000001</ele>
        <time>2023-08-29T13:22:46Z</time>
      </trkpt>
      <trkpt lat="56.722067026421428" lon="-6.170695004984736">
        <ele>21.77</ele>
        <time>2023-08-29T13:22:49Z</time>
      </trkpt>
      <trkpt lat="56.722005000337958" lon="-6.170606995001435">
        <ele>21.289999999999999</ele>
        <time>2023-08-29T13:22:50Z</time>
      </trkpt>
      <trkpt lat="56.721929982304573" lon="-6.170511022210121">
        <ele>21.289999999999999</ele>
        <time>2023-08-29T13:22:51Z</time>
      </trkpt>
      <trkpt lat="56.721838032826781" lon="-6.170452013611794">
        <ele>20.809999999999999</ele>
        <time>2023-08-29T13:22:52Z</time>
      </trkpt>
      <trkpt lat="56.721742982044816" lon="-6.170388981699944">
        <ele>20.809999999999999</ele>
        <time>2023-08-29T13:22:53Z</time>
      </trkpt>
      <trkpt lat="56.72097503207624" lon="-6.169886989519">
        <ele>20.809999999999999</ele>
        <time>2023-08-29T13:23:01Z</time>
      </trkpt>
      <trkpt lat="56.720899008214474" lon="-6.169838039204478">
        <ele>21.77</ele>
        <time>2023-08-29T13:23:02Z</time>
      </trkpt>
      <trkpt lat="56.720142960548401" lon="-6.169275026768446">
        <ele>22.25</ele>
        <time>2023-08-29T13:23:10Z</time>
      </trkpt>
      <trkpt lat="56.720060985535383" lon="-6.16917603649199">
        <ele>22.25</ele>
        <time>2023-08-29T13:23:11Z</time>
      </trkpt>
      <trkpt lat="56.719980016350746" lon="-6.169077968224883">
        <ele>21.77</ele>
        <time>2023-08-29T13:23:12Z</time>
      </trkpt>
      <trkpt lat="56.719736019149423" lon="-6.168784014880657">
        <ele>21.289999999999999</ele>
        <time>2023-08-29T13:23:15Z</time>
      </trkpt>
      <trkpt lat="56.719481041654944" lon="-6.168503975495696">
        <ele>21.289999999999999</ele>
        <time>2023-08-29T13:23:18Z</time>
      </trkpt>
      <trkpt lat="56.719123972579837" lon="-6.16821002215147">
        <ele>22.25</ele>
        <time>2023-08-29T13:23:23Z</time>
      </trkpt>
      <trkpt lat="56.719064963981509" lon="-6.168114971369505">
        <ele>22.73</ele>
        <time>2023-08-29T13:23:24Z</time>
      </trkpt>
      <trkpt lat="56.719027999788523" lon="-6.167991003021598">
        <ele>22.73</ele>
        <time>2023-08-29T13:23:25Z</time>
      </trkpt>
      <trkpt lat="56.718987012282014" lon="-6.167853958904743">
        <ele>22.73</ele>
        <time>2023-08-29T13:23:26Z</time>
      </trkpt>
      <trkpt lat="56.718948036432266" lon="-6.167723033577204">
        <ele>22.73</ele>
        <time>2023-08-29T13:23:27Z</time>
      </trkpt>
      <trkpt lat="56.718930015340447" lon="-6.167580960318446">
        <ele>22.73</ele>
        <time>2023-08-29T13:23:28Z</time>
      </trkpt>
      <trkpt lat="56.718920962885022" lon="-6.167452968657017">
        <ele>22.73</ele>
        <time>2023-08-29T13:23:29Z</time>
      </trkpt>
      <trkpt lat="56.718923980370164" lon="-6.16733000613749">
        <ele>22.73</ele>
        <time>2023-08-29T13:23:30Z</time>
      </trkpt>
      <trkpt lat="56.718949964269996" lon="-6.167235039174557">
        <ele>22.73</ele>
        <time>2023-08-29T13:23:31Z</time>
      </trkpt>
      <trkpt lat="56.718975026160479" lon="-6.167138982564211">
        <ele>22.73</ele>
        <time>2023-08-29T13:23:32Z</time>
      </trkpt>
      <trkpt lat="56.719019031152129" lon="-6.167032029479742">
        <ele>22.73</ele>
        <time>2023-08-29T13:23:33Z</time>
      </trkpt>
      <trkpt lat="56.719077033922076" lon="-6.166996993124485">
        <ele>22.73</ele>
        <time>2023-08-29T13:23:34Z</time>
      </trkpt>
      <trkpt lat="56.719154985621572" lon="-6.166979977861047">
        <ele>22.73</ele>
        <time>2023-08-29T13:23:35Z</time>
      </trkpt>
      <trkpt lat="56.71923603862524" lon="-6.166984001174569">
        <ele>23.210000000000001</ele>
        <time>2023-08-29T13:23:36Z</time>
      </trkpt>
      <trkpt lat="56.719477018341422" lon="-6.166995987296104">
        <ele>24.649999999999999</ele>
        <time>2023-08-29T13:23:39Z</time>
      </trkpt>
      <trkpt lat="56.71953703276813" lon="-6.166999004781246">
        <ele>25.609999999999999</ele>
        <time>2023-08-29T13:23:40Z</time>
      </trkpt>
      <trkpt lat="56.719598975032568" lon="-6.166956005617976">
        <ele>26.57</ele>
        <time>2023-08-29T13:23:41Z</time>
      </trkpt>
      <trkpt lat="56.719656977802515" lon="-6.166915018111467">
        <ele>27.530000000000001</ele>
        <time>2023-08-29T13:23:42Z</time>
      </trkpt>
      <trkpt lat="56.719692014157772" lon="-6.166875958442688">
        <ele>28.98</ele>
        <time>2023-08-29T13:23:43Z</time>
      </trkpt>
      <trkpt lat="56.719707017764449" lon="-6.166817033663392">
        <ele>29.940000000000001</ele>
        <time>2023-08-29T13:23:44Z</time>
      </trkpt>
      <trkpt lat="56.719715986400843" lon="-6.166778979822993">
        <ele>31.379999999999999</ele>
        <time>2023-08-29T13:23:52Z</time>
      </trkpt>
      <trkpt lat="56.719786981120706" lon="-6.166275981813669">
        <ele>35.710000000000001</ele>
        <time>2023-08-29T13:24:00Z</time>
      </trkpt>
      <trkpt lat="56.719868034124374" lon="-6.165452962741256">
        <ele>39.549999999999997</ele>
        <time>2023-08-29T13:24:07Z</time>
      </trkpt>
      <trkpt lat="56.719941040500998" lon="-6.165087008848786">
        <ele>42.920000000000002</ele>
        <time>2023-08-29T13:24:14Z</time>
      </trkpt>
      <trkpt lat="56.720013963058591" lon="-6.164791965857148">
        <ele>44.840000000000003</ele>
        <time>2023-08-29T13:24:18Z</time>
      </trkpt>
      <trkpt lat="56.720040030777454" lon="-6.164687024429441">
        <ele>44.840000000000003</ele>
        <time>2023-08-29T13:24:19Z</time>
      </trkpt>
      <trkpt lat="56.720184031873941" lon="-6.164320986717939">
        <ele>46.280000000000001</ele>
        <time>2023-08-29T13:24:22Z</time>
      </trkpt>
      <trkpt lat="56.720435991883278" lon="-6.163710029795766">
        <ele>49.159999999999997</ele>
        <time>2023-08-29T13:24:26Z</time>
      </trkpt>
      <trkpt lat="56.72050204128027" lon="-6.163605004549027">
        <ele>49.649999999999999</ele>
        <time>2023-08-29T13:24:27Z</time>
      </trkpt>
      <trkpt lat="56.72071997076273" lon="-6.163357989862561">
        <ele>52.049999999999997</ele>
        <time>2023-08-29T13:24:30Z</time>
      </trkpt>
      <trkpt lat="56.72078400850296" lon="-6.163276014849544">
        <ele>53.009999999999998</ele>
        <time>2023-08-29T13:24:31Z</time>
      </trkpt>
      <trkpt lat="56.72080596908927" lon="-6.163145005702972">
        <ele>53.969999999999999</ele>
        <time>2023-08-29T13:24:32Z</time>
      </trkpt>
      <trkpt lat="56.720823990181088" lon="-6.162993041798472">
        <ele>54.450000000000003</ele>
        <time>2023-08-29T13:24:33Z</time>
      </trkpt>
      <trkpt lat="56.720818039029837" lon="-6.162802018225193">
        <ele>54.93</ele>
        <time>2023-08-29T13:24:34Z</time>
      </trkpt>
      <trkpt lat="56.720810998231173" lon="-6.162572018802166">
        <ele>54.93</ele>
        <time>2023-08-29T13:24:35Z</time>
      </trkpt>
      <trkpt lat="56.72080697491765" lon="-6.161410035565496">
        <ele>59.259999999999998</ele>
        <time>2023-08-29T13:24:40Z</time>
      </trkpt>
      <trkpt lat="56.720831030979753" lon="-6.161263016983867">
        <ele>60.219999999999999</ele>
        <time>2023-08-29T13:24:41Z</time>
      </trkpt>
      <trkpt lat="56.720855003222823" lon="-6.161110969260335">
        <ele>61.18</ele>
        <time>2023-08-29T13:24:42Z</time>
      </trkpt>
      <trkpt lat="56.720907976850867" lon="-6.160691035911441">
        <ele>64.069999999999993</ele>
        <time>2023-08-29T13:24:45Z</time>
      </trkpt>
      <trkpt lat="56.720902025699615" lon="-6.160547034814954">
        <ele>65.030000000000001</ele>
        <time>2023-08-29T13:24:46Z</time>
      </trkpt>
      <trkpt lat="56.720894984900951" lon="-6.160376965999603">
        <ele>65.989999999999995</ele>
        <time>2023-08-29T13:24:47Z</time>
      </trkpt>
      <trkpt lat="56.720721982419491" lon="-6.159140970557928">
        <ele>68.870000000000005</ele>
        <time>2023-08-29T13:24:53Z</time>
      </trkpt>
      <trkpt lat="56.720381006598473" lon="-6.157478000968695">
        <ele>68.870000000000005</ele>
        <time>2023-08-29T13:25:00Z</time>
      </trkpt>
      <trkpt lat="56.720271036028862" lon="-6.156893027946353">
        <ele>69.829999999999998</ele>
        <time>2023-08-29T13:25:03Z</time>
      </trkpt>
      <trkpt lat="56.720191994681954" lon="-6.156696975231171">
        <ele>69.829999999999998</ele>
        <time>2023-08-29T13:25:04Z</time>
      </trkpt>
      <trkpt lat="56.720102978870273" lon="-6.156491031870246">
        <ele>70.310000000000002</ele>
        <time>2023-08-29T13:25:05Z</time>
      </trkpt>
      <trkpt lat="56.71953703276813" lon="-6.155175995081663">
        <ele>72.719999999999999</ele>
        <time>2023-08-29T13:25:11Z</time>
      </trkpt>
      <trkpt lat="56.719482969492674" lon="-6.154969967901707">
        <ele>73.680000000000007</ele>
        <time>2023-08-29T13:25:12Z</time>
      </trkpt>
      <trkpt lat="56.719436030834913" lon="-6.154789002612233">
        <ele>74.159999999999997</ele>
        <time>2023-08-29T13:25:13Z</time>
      </trkpt>
      <trkpt lat="56.719393031671643" lon="-6.154624968767166">
        <ele>74.640000000000001</ele>
        <time>2023-08-29T13:25:14Z</time>
      </trkpt>
      <trkpt lat="56.719351960346103" lon="-6.154468981549144">
        <ele>75.120000000000005</ele>
        <time>2023-08-29T13:25:15Z</time>
      </trkpt>
      <trkpt lat="56.71930099837482" lon="-6.154275024309754">
        <ele>75.599999999999994</ele>
        <time>2023-08-29T13:25:16Z</time>
      </trkpt>
      <trkpt lat="56.719232015311718" lon="-6.154167987406254">
        <ele>76.079999999999998</ele>
        <time>2023-08-29T13:25:17Z</time>
      </trkpt>
      <trkpt lat="56.719138976186514" lon="-6.154023986309767">
        <ele>76.079999999999998</ele>
        <time>2023-08-29T13:25:18Z</time>
      </trkpt>
      <trkpt lat="56.718202969059348" lon="-6.152511974796653">
        <ele>77.519999999999996</ele>
        <time>2023-08-29T13:25:26Z</time>
      </trkpt>
      <trkpt lat="56.717516994103789" lon="-6.151166008785367">
        <ele>82.810000000000002</ele>
        <time>2023-08-29T13:25:34Z</time>
      </trkpt>
      <trkpt lat="56.716773016378284" lon="-6.149984998628497">
        <ele>84.25</ele>
        <time>2023-08-29T13:25:41Z</time>
      </trkpt>
      <trkpt lat="56.715613966807723" lon="-6.148855034261942">
        <ele>82.329999999999998</ele>
        <time>2023-08-29T13:25:50Z</time>
      </trkpt>
      <trkpt lat="56.713991984724998" lon="-6.147428015246987">
        <ele>80.409999999999997</ele>
        <time>2023-08-29T13:26:03Z</time>
      </trkpt>
      <trkpt lat="56.713465014472604" lon="-6.147064995020628">
        <ele>78</ele>
        <time>2023-08-29T13:26:08Z</time>
      </trkpt>
      <trkpt lat="56.713379016146064" lon="-6.146916970610619">
        <ele>77.519999999999996</ele>
        <time>2023-08-29T13:26:09Z</time>
      </trkpt>
      <trkpt lat="56.713309027254581" lon="-6.146797025576234">
        <ele>77.040000000000006</ele>
        <time>2023-08-29T13:26:10Z</time>
      </trkpt>
      <trkpt lat="56.713238032534719" lon="-6.146672973409295">
        <ele>76.560000000000002</ele>
        <time>2023-08-29T13:26:11Z</time>
      </trkpt>
      <trkpt lat="56.713165026158094" lon="-6.146547999233007">
        <ele>76.079999999999998</ele>
        <time>2023-08-29T13:26:12Z</time>
      </trkpt>
      <trkpt lat="56.71309101395309" lon="-6.146421013399959">
        <ele>75.599999999999994</ele>
        <time>2023-08-29T13:26:13Z</time>
      </trkpt>
      <trkpt lat="56.712851040065289" lon="-6.146008037030697">
        <ele>74.640000000000001</ele>
        <time>2023-08-29T13:26:16Z</time>
      </trkpt>
      <trkpt lat="56.712801000103354" lon="-6.145836962386966">
        <ele>74.640000000000001</ele>
        <time>2023-08-29T13:26:17Z</time>
      </trkpt>
      <trkpt lat="56.712754983454943" lon="-6.145669994875789">
        <ele>74.640000000000001</ele>
        <time>2023-08-29T13:26:18Z</time>
      </trkpt>
      <trkpt lat="56.712710978463292" lon="-6.145505961030722">
        <ele>74.640000000000001</ele>
        <time>2023-08-29T13:26:19Z</time>
      </trkpt>
      <trkpt lat="56.712665967643261" lon="-6.145339999347925">
        <ele>74.640000000000001</ele>
        <time>2023-08-29T13:26:20Z</time>
      </trkpt>
      <trkpt lat="56.712622968479991" lon="-6.145180994644761">
        <ele>75.120000000000005</ele>
        <time>2023-08-29T13:26:21Z</time>
      </trkpt>
      <trkpt lat="56.71246999874711" lon="-6.144526032730937">
        <ele>76.560000000000002</ele>
        <time>2023-08-29T13:26:25Z</time>
      </trkpt>
      <trkpt lat="56.712444014847279" lon="-6.144343977794051">
        <ele>77.040000000000006</ele>
        <time>2023-08-29T13:26:26Z</time>
      </trkpt>
      <trkpt lat="56.712266989052296" lon="-6.143189035356045">
        <ele>81.370000000000005</ele>
        <time>2023-08-29T13:26:32Z</time>
      </trkpt>
      <trkpt lat="56.712219966575503" lon="-6.143041010946035">
        <ele>82.329999999999998</ele>
        <time>2023-08-29T13:26:33Z</time>
      </trkpt>
      <trkpt lat="56.712172022089362" lon="-6.142888963222504">
        <ele>83.290000000000006</ele>
        <time>2023-08-29T13:26:34Z</time>
      </trkpt>
      <trkpt lat="56.712091974914074" lon="-6.142739010974765">
        <ele>84.25</ele>
        <time>2023-08-29T13:26:35Z</time>
      </trkpt>
      <trkpt lat="56.712001031264663" lon="-6.142596015706658">
        <ele>84.730000000000004</ele>
        <time>2023-08-29T13:26:36Z</time>
      </trkpt>
      <trkpt lat="56.711732978001237" lon="-6.142201982438564">
        <ele>87.140000000000001</ele>
        <time>2023-08-29T13:26:39Z</time>
      </trkpt>
      <trkpt lat="56.711267028003931" lon="-6.141604017466307">
        <ele>88.579999999999998</ele>
        <time>2023-08-29T13:26:43Z</time>
      </trkpt>
      <trkpt lat="56.710713990032673" lon="-6.140648983418942">
        <ele>90.980000000000004</ele>
        <time>2023-08-29T13:26:49Z</time>
      </trkpt>
      <trkpt lat="56.71038500033319" lon="-6.140195019543171">
        <ele>90.980000000000004</ele>
        <time>2023-08-29T13:26:52Z</time>
      </trkpt>
      <trkpt lat="56.710273018106818" lon="-6.140018999576569">
        <ele>90.5</ele>
        <time>2023-08-29T13:26:53Z</time>
      </trkpt>
      <trkpt lat="56.709285965189338" lon="-6.138425013050437">
        <ele>84.25</ele>
        <time>2023-08-29T13:27:02Z</time>
      </trkpt>
      <trkpt lat="56.70920399017632" lon="-6.138315964490175">
        <ele>83.290000000000006</ele>
        <time>2023-08-29T13:27:03Z</time>
      </trkpt>
      <trkpt lat="56.709144981577992" lon="-6.138201970607042">
        <ele>82.329999999999998</ele>
        <time>2023-08-29T13:27:04Z</time>
      </trkpt>
      <trkpt lat="56.709124026820064" lon="-6.138062998652458">
        <ele>81.370000000000005</ele>
        <time>2023-08-29T13:27:05Z</time>
      </trkpt>
      <trkpt lat="56.709102988243103" lon="-6.137922015041113">
        <ele>80.890000000000001</ele>
        <time>2023-08-29T13:27:06Z</time>
      </trkpt>
      <trkpt lat="56.709093013778329" lon="-6.137779019773006">
        <ele>80.409999999999997</ele>
        <time>2023-08-29T13:27:07Z</time>
      </trkpt>
      <trkpt lat="56.709114974364638" lon="-6.137628983706236">
        <ele>79.930000000000007</ele>
        <time>2023-08-29T13:27:08Z</time>
      </trkpt>
      <trkpt lat="56.70913802459836" lon="-6.137469979003072">
        <ele>79.450000000000003</ele>
        <time>2023-08-29T13:27:09Z</time>
      </trkpt>
      <trkpt lat="56.709212958812714" lon="-6.136958012357354">
        <ele>77.040000000000006</ele>
        <time>2023-08-29T13:27:12Z</time>
      </trkpt>
      <trkpt lat="56.709215976297855" lon="-6.136769000440836">
        <ele>75.599999999999994</ele>
        <time>2023-08-29T13:27:13Z</time>
      </trkpt>
      <trkpt lat="56.709215976297855" lon="-6.136565990746021">
        <ele>74.640000000000001</ele>
        <time>2023-08-29T13:27:14Z</time>
      </trkpt>
      <trkpt lat="56.709215976297855" lon="-6.135907005518675">
        <ele>70.310000000000002</ele>
        <time>2023-08-29T13:27:17Z</time>
      </trkpt>
      <trkpt lat="56.709229974076152" lon="-6.135728973895311">
        <ele>68.870000000000005</ele>
        <time>2023-08-29T13:27:18Z</time>
      </trkpt>
      <trkpt lat="56.709255035966635" lon="-6.135412976145744">
        <ele>67.430000000000007</ele>
        <time>2023-08-29T13:27:20Z</time>
      </trkpt>
      <trkpt lat="56.70926702208817" lon="-6.135259000584483">
        <ele>66.950000000000003</ele>
        <time>2023-08-29T13:27:21Z</time>
      </trkpt>
      <trkpt lat="56.709280014038086" lon="-6.135090021416545">
        <ele>66.469999999999999</ele>
        <time>2023-08-29T13:27:22Z</time>
      </trkpt>
      <trkpt lat="56.709239026531577" lon="-6.134922970086336">
        <ele>65.510000000000005</ele>
        <time>2023-08-29T13:27:23Z</time>
      </trkpt>
      <trkpt lat="56.709192004054785" lon="-6.134739993140101">
        <ele>64.549999999999997</ele>
        <time>2023-08-29T13:27:24Z</time>
      </trkpt>
      <trkpt lat="56.709126038476825" lon="-6.13456497900188">
        <ele>63.579999999999998</ele>
        <time>2023-08-29T13:27:25Z</time>
      </trkpt>
      <trkpt lat="56.709055965766311" lon="-6.134378984570503">
        <ele>62.619999999999997</ele>
        <time>2023-08-29T13:27:26Z</time>
      </trkpt>
      <trkpt lat="56.708262031897902" lon="-6.132532032206655">
        <ele>56.369999999999997</ele>
        <time>2023-08-29T13:27:36Z</time>
      </trkpt>
      <trkpt lat="56.708087017759681" lon="-6.132188038900495">
        <ele>54.93</ele>
        <time>2023-08-29T13:27:38Z</time>
      </trkpt>
      <trkpt lat="56.708010993897915" lon="-6.131998021155596">
        <ele>54.450000000000003</ele>
        <time>2023-08-29T13:27:39Z</time>
      </trkpt>
      <trkpt lat="56.707836985588074" lon="-6.131369965150952">
        <ele>51.090000000000003</ele>
        <time>2023-08-29T13:27:42Z</time>
      </trkpt>
      <trkpt lat="56.707768002524972" lon="-6.131200985983014">
        <ele>50.130000000000003</ele>
        <time>2023-08-29T13:27:43Z</time>
      </trkpt>
      <trkpt lat="56.706998962908983" lon="-6.129757035523653">
        <ele>44.840000000000003</ele>
        <time>2023-08-29T13:27:51Z</time>
      </trkpt>
      <trkpt lat="56.70623897574842" lon="-6.128348037600517">
        <ele>36.670000000000002</ele>
        <time>2023-08-29T13:27:59Z</time>
      </trkpt>
      <trkpt lat="56.705733966082335" lon="-6.127041969448328">
        <ele>27.050000000000001</ele>
        <time>2023-08-29T13:28:08Z</time>
      </trkpt>
      <trkpt lat="56.705536991357803" lon="-6.126606026664376">
        <ele>26.09</ele>
        <time>2023-08-29T13:28:12Z</time>
      </trkpt>
      <trkpt lat="56.705460967496037" lon="-6.12648700363934">
        <ele>25.609999999999999</ele>
        <time>2023-08-29T13:28:13Z</time>
      </trkpt>
      <trkpt lat="56.705387961119413" lon="-6.12642397172749">
        <ele>25.609999999999999</ele>
        <time>2023-08-29T13:28:14Z</time>
      </trkpt>
      <trkpt lat="56.70531302690506" lon="-6.126359011977911">
        <ele>25.609999999999999</ele>
        <time>2023-08-29T13:28:15Z</time>
      </trkpt>
      <trkpt lat="56.705243960022926" lon="-6.126300003379583">
        <ele>25.609999999999999</ele>
        <time>2023-08-29T13:28:16Z</time>
      </trkpt>
      <trkpt lat="56.705139018595219" lon="-6.12620797008276">
        <ele>25.609999999999999</ele>
        <time>2023-08-29T13:28:18Z</time>
      </trkpt>
      <trkpt lat="56.705112028867006" lon="-6.126181986182928">
        <ele>25.609999999999999</ele>
        <time>2023-08-29T13:28:19Z</time>
      </trkpt>
      <trkpt lat="56.705087972804904" lon="-6.126157008111477">
        <ele>26.09</ele>
        <time>2023-08-29T13:28:20Z</time>
      </trkpt>
      <trkpt lat="56.705173971131444" lon="-6.12601300701499">
        <ele>26.09</ele>
        <time>2023-08-29T13:28:21Z</time>
      </trkpt>
      <trkpt lat="56.705194003880024" lon="-6.125901024788618">
        <ele>26.09</ele>
        <time>2023-08-29T13:28:22Z</time>
      </trkpt>
      <trkpt lat="56.705215964466333" lon="-6.12577797845006">
        <ele>26.57</ele>
        <time>2023-08-29T13:28:23Z</time>
      </trkpt>
      <trkpt lat="56.705516958609223" lon="-6.124279964715242">
        <ele>33.780000000000001</ele>
        <time>2023-08-29T13:28:32Z</time>
      </trkpt>
      <trkpt lat="56.705724997445941" lon="-6.123543027788401">
        <ele>36.189999999999998</ele>
        <time>2023-08-29T13:28:37Z</time>
      </trkpt>
      <trkpt lat="56.705761961638927" lon="-6.123461974784732">
        <ele>36.670000000000002</ele>
        <time>2023-08-29T13:28:38Z</time>
      </trkpt>
      <trkpt lat="56.705813007429242" lon="-6.1234359908849">
        <ele>36.670000000000002</ele>
        <time>2023-08-29T13:28:39Z</time>
      </trkpt>
      <trkpt lat="56.705874027684331" lon="-6.1234359908849">
        <ele>37.149999999999999</ele>
        <time>2023-08-29T13:28:40Z</time>
      </trkpt>
      <trkpt lat="56.705944016575813" lon="-6.123479995876551">
        <ele>37.630000000000003</ele>
        <time>2023-08-29T13:28:41Z</time>
      </trkpt>
      <trkpt lat="56.70602397993207" lon="-6.123530035838485">
        <ele>38.109999999999999</ele>
        <time>2023-08-29T13:28:42Z</time>
      </trkpt>
      <trkpt lat="56.70611098408699" lon="-6.12358502112329">
        <ele>38.590000000000003</ele>
        <time>2023-08-29T13:28:43Z</time>
      </trkpt>
      <trkpt lat="56.706202011555433" lon="-6.123643023893237">
        <ele>38.590000000000003</ele>
        <time>2023-08-29T13:28:44Z</time>
      </trkpt>
      <trkpt lat="56.706441985443234" lon="-6.123793981969357">
        <ele>40.030000000000001</ele>
        <time>2023-08-29T13:28:47Z</time>
      </trkpt>
      <trkpt lat="56.706513985991478" lon="-6.123839998617768">
        <ele>40.509999999999998</ele>
        <time>2023-08-29T13:28:48Z</time>
      </trkpt>
      <trkpt lat="56.70718596316874" lon="-6.124464031308889">
        <ele>40.509999999999998</ele>
        <time>2023-08-29T13:28:55Z</time>
      </trkpt>
      <trkpt lat="56.708405027166009" lon="-6.125694997608662">
        <ele>44.359999999999999</ele>
        <time>2023-08-29T13:29:07Z</time>
      </trkpt>
      <trkpt lat="56.708999974653125" lon="-6.126279970631003">
        <ele>50.609999999999999</ele>
        <time>2023-08-29T13:29:15Z</time>
      </trkpt>
      <trkpt lat="56.709132995456457" lon="-6.126410979777575">
        <ele>55.890000000000001</ele>
        <time>2023-08-29T13:29:22Z</time>
      </trkpt>
      <trkpt lat="56.709574973210692" lon="-6.126846000552177">
        <ele>59.259999999999998</ele>
        <time>2023-08-29T13:29:30Z</time>
      </trkpt>
      <trkpt lat="56.709628030657768" lon="-6.126884976401925">
        <ele>59.740000000000002</ele>
        <time>2023-08-29T13:29:31Z</time>
      </trkpt>
      <trkpt lat="56.709628030657768" lon="-6.126884976401925">
        <ele>60.219999999999999</ele>
        <time>2023-08-29T13:29:35Z</time>
      </trkpt>
      <trkpt lat="56.709685027599335" lon="-6.126926969736815">
        <ele>61.18</ele>
        <time>2023-08-29T13:29:41Z</time>
      </trkpt>
      <trkpt lat="56.709743030369282" lon="-6.126968963071704">
        <ele>61.18</ele>
        <time>2023-08-29T13:29:42Z</time>
      </trkpt>
      <trkpt lat="56.710164975374937" lon="-6.127271968871355">
        <ele>62.619999999999997</ele>
        <time>2023-08-29T13:29:48Z</time>
      </trkpt>
      <trkpt lat="56.710210992023349" lon="-6.127305999398232">
        <ele>63.100000000000001</ele>
        <time>2023-08-29T13:29:49Z</time>
      </trkpt>
      <trkpt lat="56.710253991186619" lon="-6.127336006611586">
        <ele>63.100000000000001</ele>
        <time>2023-08-29T13:29:50Z</time>
      </trkpt>
      <trkpt lat="56.710303025320172" lon="-6.127371964976192">
        <ele>63.579999999999998</ele>
        <time>2023-08-29T13:29:51Z</time>
      </trkpt>
      <trkpt lat="56.710367985069752" lon="-6.127418987452984">
        <ele>63.579999999999998</ele>
        <time>2023-08-29T13:29:52Z</time>
      </trkpt>
      <trkpt lat="56.710449038073421" lon="-6.127476990222931">
        <ele>64.069999999999993</ele>
        <time>2023-08-29T13:29:53Z</time>
      </trkpt>
      <trkpt lat="56.711403988301754" lon="-6.127920979633927">
        <ele>63.100000000000001</ele>
        <time>2023-08-29T13:30:02Z</time>
      </trkpt>
      <trkpt lat="56.711729038506746" lon="-6.128072021529079">
        <ele>62.140000000000001</ele>
        <time>2023-08-29T13:30:05Z</time>
      </trkpt>
      <trkpt lat="56.711831968277693" lon="-6.128161959350109">
        <ele>61.659999999999997</ele>
        <time>2023-08-29T13:30:06Z</time>
      </trkpt>
      <trkpt lat="56.711920984089375" lon="-6.128281988203526">
        <ele>61.18</ele>
        <time>2023-08-29T13:30:07Z</time>
      </trkpt>
      <trkpt lat="56.712850034236908" lon="-6.12968503497541">
        <ele>61.18</ele>
        <time>2023-08-29T13:30:18Z</time>
      </trkpt>
      <trkpt lat="56.712972996756434" lon="-6.130025004968047">
        <ele>60.700000000000003</ele>
        <time>2023-08-29T13:30:20Z</time>
      </trkpt>
      <trkpt lat="56.713293017819524" lon="-6.130744004622102">
        <ele>60.219999999999999</ele>
        <time>2023-08-29T13:30:25Z</time>
      </trkpt>
      <trkpt lat="56.713370969519019" lon="-6.130839977413416">
        <ele>60.219999999999999</ele>
        <time>2023-08-29T13:30:26Z</time>
      </trkpt>
      <trkpt lat="56.713443975895643" lon="-6.130928993225098">
        <ele>59.740000000000002</ele>
        <time>2023-08-29T13:30:27Z</time>
      </trkpt>
      <trkpt lat="56.713535003364086" lon="-6.130928993225098">
        <ele>59.259999999999998</ele>
        <time>2023-08-29T13:30:28Z</time>
      </trkpt>
      <trkpt lat="56.71362997032702" lon="-6.130928993225098">
        <ele>59.259999999999998</ele>
        <time>2023-08-29T13:30:29Z</time>
      </trkpt>
      <trkpt lat="56.713720997795463" lon="-6.130928993225098">
        <ele>59.259999999999998</ele>
        <time>2023-08-29T13:30:30Z</time>
      </trkpt>
      <trkpt lat="56.713890982791781" lon="-6.130928993225098">
        <ele>58.780000000000001</ele>
        <time>2023-08-29T13:30:32Z</time>
      </trkpt>
      <trkpt lat="56.713987039402127" lon="-6.131006022915244">
        <ele>58.299999999999997</ele>
        <time>2023-08-29T13:30:33Z</time>
      </trkpt>
      <trkpt lat="56.71408100053668" lon="-6.131083974614739">
        <ele>57.82</ele>
        <time>2023-08-29T13:30:34Z</time>
      </trkpt>
      <trkpt lat="56.714610988274217" lon="-6.131523018702865">
        <ele>56.369999999999997</ele>
        <time>2023-08-29T13:30:40Z</time>
      </trkpt>
      <trkpt lat="56.714676031842828" lon="-6.131553025916219">
        <ele>55.890000000000001</ele>
        <time>2023-08-29T13:30:41Z</time>
      </trkpt>
      <trkpt lat="56.714749038219452" lon="-6.13155797123909">
        <ele>55.890000000000001</ele>
        <time>2023-08-29T13:30:42Z</time>
      </trkpt>
      <trkpt lat="56.714825984090567" lon="-6.131563000380993">
        <ele>55.409999999999997</ele>
        <time>2023-08-29T13:30:43Z</time>
      </trkpt>
      <trkpt lat="56.714909970760345" lon="-6.131569035351276">
        <ele>54.93</ele>
        <time>2023-08-29T13:30:44Z</time>
      </trkpt>
      <trkpt lat="56.714994041249156" lon="-6.131586972624064">
        <ele>54.93</ele>
        <time>2023-08-29T13:30:45Z</time>
      </trkpt>
      <trkpt lat="56.715077022090554" lon="-6.131632989272475">
        <ele>55.409999999999997</ele>
        <time>2023-08-29T13:30:46Z</time>
      </trkpt>
      <trkpt lat="56.71515597961843" lon="-6.131676994264126">
        <ele>55.890000000000001</ele>
        <time>2023-08-29T13:30:47Z</time>
      </trkpt>
      <trkpt lat="56.715236026793718" lon="-6.131720999255776">
        <ele>56.369999999999997</ele>
        <time>2023-08-29T13:30:48Z</time>
      </trkpt>
      <trkpt lat="56.71545697376132" lon="-6.131870029494166">
        <ele>57.82</ele>
        <time>2023-08-29T13:30:51Z</time>
      </trkpt>
      <trkpt lat="56.715620001778007" lon="-6.132146967574954">
        <ele>59.740000000000002</ele>
        <time>2023-08-29T13:30:54Z</time>
      </trkpt>
      <trkpt lat="56.71566903591156" lon="-6.132295997813344">
        <ele>60.219999999999999</ele>
        <time>2023-08-29T13:30:55Z</time>
      </trkpt>
      <trkpt lat="56.715760985389352" lon="-6.132604032754898">
        <ele>60.700000000000003</ele>
        <time>2023-08-29T13:30:57Z</time>
      </trkpt>
      <trkpt lat="56.715803984552622" lon="-6.132748033851385">
        <ele>60.700000000000003</ele>
        <time>2023-08-29T13:30:58Z</time>
      </trkpt>
      <trkpt lat="56.715873973444104" lon="-6.132858004420996">
        <ele>61.18</ele>
        <time>2023-08-29T13:30:59Z</time>
      </trkpt>
      <trkpt lat="56.715957038104534" lon="-6.132926987484098">
        <ele>61.659999999999997</ele>
        <time>2023-08-29T13:31:00Z</time>
      </trkpt>
      <trkpt lat="56.716043958440423" lon="-6.132998988032341">
        <ele>62.140000000000001</ele>
        <time>2023-08-29T13:31:01Z</time>
      </trkpt>
      <trkpt lat="56.716134985908866" lon="-6.133075011894107">
        <ele>62.140000000000001</ele>
        <time>2023-08-29T13:31:02Z</time>
      </trkpt>
      <trkpt lat="56.716383006423712" lon="-6.133281961083412">
        <ele>63.579999999999998</ele>
        <time>2023-08-29T13:31:05Z</time>
      </trkpt>
      <trkpt lat="56.716452995315194" lon="-6.133339963853359">
        <ele>64.069999999999993</ele>
        <time>2023-08-29T13:31:06Z</time>
      </trkpt>
      <trkpt lat="56.716534970328212" lon="-6.133358990773559">
        <ele>64.549999999999997</ele>
        <time>2023-08-29T13:31:07Z</time>
      </trkpt>
      <trkpt lat="56.716630021110177" lon="-6.133367037400603">
        <ele>64.069999999999993</ele>
        <time>2023-08-29T13:31:08Z</time>
      </trkpt>
      <trkpt lat="56.716735968366265" lon="-6.133375000208616">
        <ele>64.069999999999993</ele>
        <time>2023-08-29T13:31:09Z</time>
      </trkpt>
      <trkpt lat="56.717755040153861" lon="-6.133456975221634">
        <ele>64.069999999999993</ele>
        <time>2023-08-29T13:31:18Z</time>
      </trkpt>
      <trkpt lat="56.717858975753188" lon="-6.133524030447006">
        <ele>63.579999999999998</ele>
        <time>2023-08-29T13:31:19Z</time>
      </trkpt>
      <trkpt lat="56.717953020706773" lon="-6.133622014895082">
        <ele>63.579999999999998</ele>
        <time>2023-08-29T13:31:20Z</time>
      </trkpt>
      <trkpt lat="56.718232976272702" lon="-6.133913034573197">
        <ele>63.100000000000001</ele>
        <time>2023-08-29T13:31:23Z</time>
      </trkpt>
      <trkpt lat="56.718324003741145" lon="-6.133991992101073">
        <ele>63.100000000000001</ele>
        <time>2023-08-29T13:31:24Z</time>
      </trkpt>
      <trkpt lat="56.71930099837482" lon="-6.134465988725424">
        <ele>62.619999999999997</ele>
        <time>2023-08-29T13:31:33Z</time>
      </trkpt>
      <trkpt lat="56.719398982822895" lon="-6.134449979290366">
        <ele>63.100000000000001</ele>
        <time>2023-08-29T13:31:34Z</time>
      </trkpt>
      <trkpt lat="56.71949403360486" lon="-6.134433969855309">
        <ele>63.579999999999998</ele>
        <time>2023-08-29T13:31:35Z</time>
      </trkpt>
      <trkpt lat="56.719591012224555" lon="-6.134417960420251">
        <ele>64.549999999999997</ele>
        <time>2023-08-29T13:31:36Z</time>
      </trkpt>
      <trkpt lat="56.719706011936069" lon="-6.13437001593411">
        <ele>64.549999999999997</ele>
        <time>2023-08-29T13:31:37Z</time>
      </trkpt>
      <trkpt lat="56.719808019697666" lon="-6.134281000122428">
        <ele>64.549999999999997</ele>
        <time>2023-08-29T13:31:38Z</time>
      </trkpt>
      <trkpt lat="56.720900014042854" lon="-6.133321020752192">
        <ele>69.829999999999998</ele>
        <time>2023-08-29T13:31:49Z</time>
      </trkpt>
      <trkpt lat="56.720965979620814" lon="-6.133316997438669">
        <ele>70.310000000000002</ele>
        <time>2023-08-29T13:31:50Z</time>
      </trkpt>
      <trkpt lat="56.721026999875903" lon="-6.133324038237333">
        <ele>71.269999999999996</ele>
        <time>2023-08-29T13:31:51Z</time>
      </trkpt>
      <trkpt lat="56.72110402956605" lon="-6.133332001045346">
        <ele>71.269999999999996</ele>
        <time>2023-08-29T13:31:52Z</time>
      </trkpt>
      <trkpt lat="56.721174018457532" lon="-6.133397966623306">
        <ele>72.239999999999995</ele>
        <time>2023-08-29T13:31:53Z</time>
      </trkpt>
      <trkpt lat="56.721263034269214" lon="-6.133480025455356">
        <ele>72.719999999999999</ele>
        <time>2023-08-29T13:31:54Z</time>
      </trkpt>
      <trkpt lat="56.721360012888908" lon="-6.133569963276386">
        <ele>73.200000000000003</ele>
        <time>2023-08-29T13:31:55Z</time>
      </trkpt>
      <trkpt lat="56.722250003367662" lon="-6.134158037602902">
        <ele>76.079999999999998</ele>
        <time>2023-08-29T13:32:03Z</time>
      </trkpt>
      <trkpt lat="56.723185004666448" lon="-6.134345959872007">
        <ele>73.200000000000003</ele>
        <time>2023-08-29T13:32:10Z</time>
      </trkpt>
      <trkpt lat="56.723406035453081" lon="-6.13432701677084">
        <ele>73.200000000000003</ele>
        <time>2023-08-29T13:32:12Z</time>
      </trkpt>
      <trkpt lat="56.723681967705488" lon="-6.13420195877552">
        <ele>72.719999999999999</ele>
        <time>2023-08-29T13:32:15Z</time>
      </trkpt>
      <trkpt lat="56.723750028759241" lon="-6.13411596044898">
        <ele>72.719999999999999</ele>
        <time>2023-08-29T13:32:16Z</time>
      </trkpt>
      <trkpt lat="56.723815994337201" lon="-6.134016970172525">
        <ele>72.239999999999995</ele>
        <time>2023-08-29T13:32:17Z</time>
      </trkpt>
      <trkpt lat="56.723872991278768" lon="-6.133871041238308">
        <ele>72.239999999999995</ele>
        <time>2023-08-29T13:32:18Z</time>
      </trkpt>
      <trkpt lat="56.723924959078431" lon="-6.133724022656679">
        <ele>72.239999999999995</ele>
        <time>2023-08-29T13:32:19Z</time>
      </trkpt>
      <trkpt lat="56.724367020651698" lon="-6.132355006411672">
        <ele>70.790000000000006</ele>
        <time>2023-08-29T13:32:28Z</time>
      </trkpt>
      <trkpt lat="56.724414965137839" lon="-6.132245035842061">
        <ele>70.790000000000006</ele>
        <time>2023-08-29T13:32:29Z</time>
      </trkpt>
      <trkpt lat="56.724483026191592" lon="-6.132156020030379">
        <ele>70.310000000000002</ele>
        <time>2023-08-29T13:32:30Z</time>
      </trkpt>
      <trkpt lat="56.724552009254694" lon="-6.132065998390317">
        <ele>70.310000000000002</ele>
        <time>2023-08-29T13:32:31Z</time>
      </trkpt>
      <trkpt lat="56.724632978439331" lon="-6.132016964256764">
        <ele>69.829999999999998</ele>
        <time>2023-08-29T13:32:32Z</time>
      </trkpt>
      <trkpt lat="56.72471696510911" lon="-6.132058035582304">
        <ele>69.829999999999998</ele>
        <time>2023-08-29T13:32:33Z</time>
      </trkpt>
      <trkpt lat="56.724811010062695" lon="-6.132103968411684">
        <ele>69.829999999999998</ele>
        <time>2023-08-29T13:32:34Z</time>
      </trkpt>
      <trkpt lat="56.724911006167531" lon="-6.132151996716857">
        <ele>69.349999999999994</ele>
        <time>2023-08-29T13:32:35Z</time>
      </trkpt>
      <trkpt lat="56.725013013929129" lon="-6.132201030850411">
        <ele>69.349999999999994</ele>
        <time>2023-08-29T13:32:36Z</time>
      </trkpt>
      <trkpt lat="56.725803008303046" lon="-6.132447961717844">
        <ele>68.870000000000005</ele>
        <time>2023-08-29T13:32:44Z</time>
      </trkpt>
      <trkpt lat="56.725895963609219" lon="-6.132427006959915">
        <ele>68.870000000000005</ele>
        <time>2023-08-29T13:32:45Z</time>
      </trkpt>
      <trkpt lat="56.726866001263261" lon="-6.13177296705544">
        <ele>71.760000000000005</ele>
        <time>2023-08-29T13:32:55Z</time>
      </trkpt>
      <trkpt lat="56.727390959858894" lon="-6.131423022598028">
        <ele>73.680000000000007</ele>
        <time>2023-08-29T13:33:01Z</time>
      </trkpt>
      <trkpt lat="56.727493973448873" lon="-6.131423022598028">
        <ele>74.159999999999997</ele>
        <time>2023-08-29T13:33:02Z</time>
      </trkpt>
      <trkpt lat="56.727606039494276" lon="-6.131423022598028">
        <ele>73.680000000000007</ele>
        <time>2023-08-29T13:33:03Z</time>
      </trkpt>
      <trkpt lat="56.727668987587094" lon="-6.131472978740931">
        <ele>73.680000000000007</ele>
        <time>2023-08-29T13:33:04Z</time>
      </trkpt>
      <trkpt lat="56.727773007005453" lon="-6.131555959582329">
        <ele>73.200000000000003</ele>
        <time>2023-08-29T13:33:05Z</time>
      </trkpt>
      <trkpt lat="56.727888006716967" lon="-6.131647992879152">
        <ele>72.239999999999995</ele>
        <time>2023-08-29T13:33:06Z</time>
      </trkpt>
      <trkpt lat="56.72823702916503" lon="-6.131928032264113">
        <ele>70.310000000000002</ele>
        <time>2023-08-29T13:33:09Z</time>
      </trkpt>
      <trkpt lat="56.728339958935976" lon="-6.132010007277131">
        <ele>69.829999999999998</ele>
        <time>2023-08-29T13:33:10Z</time>
      </trkpt>
      <trkpt lat="56.728449007496238" lon="-6.132017970085144">
        <ele>69.349999999999994</ele>
        <time>2023-08-29T13:33:11Z</time>
      </trkpt>
      <trkpt lat="56.728553026914597" lon="-6.132013024762273">
        <ele>68.870000000000005</ele>
        <time>2023-08-29T13:33:12Z</time>
      </trkpt>
      <trkpt lat="56.728648999705911" lon="-6.132006989791989">
        <ele>68.390000000000001</ele>
        <time>2023-08-29T13:33:13Z</time>
      </trkpt>
      <trkpt lat="56.728744972497225" lon="-6.132001038640738">
        <ele>68.390000000000001</ele>
        <time>2023-08-29T13:33:14Z</time>
      </trkpt>
      <trkpt lat="56.728838011622429" lon="-6.131937000900507">
        <ele>68.390000000000001</ele>
        <time>2023-08-29T13:33:15Z</time>
      </trkpt>
      <trkpt lat="56.728933984413743" lon="-6.131872041150928">
        <ele>68.390000000000001</ele>
        <time>2023-08-29T13:33:16Z</time>
      </trkpt>
      <trkpt lat="56.729033980518579" lon="-6.131803980097175">
        <ele>68.390000000000001</ele>
        <time>2023-08-29T13:33:17Z</time>
      </trkpt>
      <trkpt lat="56.729493979364634" lon="-6.131400978192687">
        <ele>65.510000000000005</ele>
        <time>2023-08-29T13:33:21Z</time>
      </trkpt>
      <trkpt lat="56.729585006833076" lon="-6.131374994292855">
        <ele>65.030000000000001</ele>
        <time>2023-08-29T13:33:22Z</time>
      </trkpt>
      <trkpt lat="56.729711992666125" lon="-6.131339035928249">
        <ele>65.510000000000005</ele>
        <time>2023-08-29T13:33:23Z</time>
      </trkpt>
      <trkpt lat="56.729843001812696" lon="-6.131325038149953">
        <ele>65.989999999999995</ele>
        <time>2023-08-29T13:33:24Z</time>
      </trkpt>
      <trkpt lat="56.729964036494493" lon="-6.131349010393024">
        <ele>65.989999999999995</ele>
        <time>2023-08-29T13:33:25Z</time>
      </trkpt>
      <trkpt lat="56.730268970131874" lon="-6.131441965699196">
        <ele>66.950000000000003</ele>
        <time>2023-08-29T13:33:28Z</time>
      </trkpt>
      <trkpt lat="56.730359997600317" lon="-6.131523018702865">
        <ele>67.430000000000007</ele>
        <time>2023-08-29T13:33:29Z</time>
      </trkpt>
      <trkpt lat="56.730453036725521" lon="-6.131642041727901">
        <ele>67.909999999999997</ele>
        <time>2023-08-29T13:33:30Z</time>
      </trkpt>
      <trkpt lat="56.730611035600305" lon="-6.131912022829056">
        <ele>67.430000000000007</ele>
        <time>2023-08-29T13:33:32Z</time>
      </trkpt>
      <trkpt lat="56.730704996734858" lon="-6.131981005892158">
        <ele>67.430000000000007</ele>
        <time>2023-08-29T13:33:33Z</time>
      </trkpt>
      <trkpt lat="56.731029041111469" lon="-6.132220979779959">
        <ele>65.510000000000005</ele>
        <time>2023-08-29T13:33:36Z</time>
      </trkpt>
      <trkpt lat="56.731123002246022" lon="-6.132352994754911">
        <ele>65.030000000000001</ele>
        <time>2023-08-29T13:33:37Z</time>
      </trkpt>
      <trkpt lat="56.731193996965885" lon="-6.132516022771597">
        <ele>65.030000000000001</ele>
        <time>2023-08-29T13:33:38Z</time>
      </trkpt>
      <trkpt lat="56.731254011392593" lon="-6.132682990282774">
        <ele>64.549999999999997</ele>
        <time>2023-08-29T13:33:39Z</time>
      </trkpt>
      <trkpt lat="56.731306985020638" lon="-6.132869990542531">
        <ele>64.069999999999993</ele>
        <time>2023-08-29T13:33:40Z</time>
      </trkpt>
      <trkpt lat="56.731361970305443" lon="-6.133065959438682">
        <ele>64.069999999999993</ele>
        <time>2023-08-29T13:33:41Z</time>
      </trkpt>
      <trkpt lat="56.731619965285063" lon="-6.133980005979538">
        <ele>64.069999999999993</ele>
        <time>2023-08-29T13:33:46Z</time>
      </trkpt>
      <trkpt lat="56.731690960004926" lon="-6.134129958227277">
        <ele>63.579999999999998</ele>
        <time>2023-08-29T13:33:47Z</time>
      </trkpt>
      <trkpt lat="56.731833033263683" lon="-6.134427012875676">
        <ele>62.140000000000001</ele>
        <time>2023-08-29T13:33:49Z</time>
      </trkpt>
      <trkpt lat="56.731883995234966" lon="-6.134663969278336">
        <ele>61.659999999999997</ele>
        <time>2023-08-29T13:33:50Z</time>
      </trkpt>
      <trkpt lat="56.731928000226617" lon="-6.13486597314477">
        <ele>61.18</ele>
        <time>2023-08-29T13:33:51Z</time>
      </trkpt>
      <trkpt lat="56.731970999389887" lon="-6.135064959526062">
        <ele>60.700000000000003</ele>
        <time>2023-08-29T13:33:52Z</time>
      </trkpt>
      <trkpt lat="56.732011986896396" lon="-6.1352529656142">
        <ele>60.219999999999999</ele>
        <time>2023-08-29T13:33:53Z</time>
      </trkpt>
      <trkpt lat="56.732087004929781" lon="-6.135598970577121">
        <ele>59.259999999999998</ele>
        <time>2023-08-29T13:33:55Z</time>
      </trkpt>
      <trkpt lat="56.732136039063334" lon="-6.135749006643891">
        <ele>58.299999999999997</ele>
        <time>2023-08-29T13:33:56Z</time>
      </trkpt>
      <trkpt lat="56.732212984934449" lon="-6.135857971385121">
        <ele>57.82</ele>
        <time>2023-08-29T13:33:57Z</time>
      </trkpt>
      <trkpt lat="56.732293032109737" lon="-6.135972971096635">
        <ele>56.859999999999999</ele>
        <time>2023-08-29T13:33:58Z</time>
      </trkpt>
      <trkpt lat="56.732370983809233" lon="-6.136085037142038">
        <ele>55.409999999999997</ele>
        <time>2023-08-29T13:33:59Z</time>
      </trkpt>
      <trkpt lat="56.732411971315742" lon="-6.136143039911985">
        <ele>54.450000000000003</ele>
        <time>2023-08-29T13:34:00Z</time>
      </trkpt>
      <trkpt lat="56.73245002515614" lon="-6.136331968009472">
        <ele>53.490000000000002</ele>
        <time>2023-08-29T13:34:01Z</time>
      </trkpt>
      <trkpt lat="56.732451030984521" lon="-6.13636901602149">
        <ele>52.530000000000001</ele>
        <time>2023-08-29T13:34:02Z</time>
      </trkpt>
      <trkpt lat="56.732424041256309" lon="-6.136436993256211">
        <ele>51.57</ele>
        <time>2023-08-29T13:34:03Z</time>
      </trkpt>
      <trkpt lat="56.732395039871335" lon="-6.136512011289597">
        <ele>50.609999999999999</ele>
        <time>2023-08-29T13:34:04Z</time>
      </trkpt>
      <trkpt lat="56.732366038486362" lon="-6.136587029322982">
        <ele>50.130000000000003</ele>
        <time>2023-08-29T13:34:05Z</time>
      </trkpt>
      <trkpt lat="56.732334019616246" lon="-6.136669004336">
        <ele>49.159999999999997</ele>
        <time>2023-08-29T13:34:06Z</time>
      </trkpt>
      <trkpt lat="56.732305018231273" lon="-6.136744022369385">
        <ele>47.719999999999999</ele>
        <time>2023-08-29T13:34:07Z</time>
      </trkpt>
      <trkpt lat="56.732305018231273" lon="-6.136908978223801">
        <ele>46.759999999999998</ele>
        <time>2023-08-29T13:34:08Z</time>
      </trkpt>
      <trkpt lat="56.732305018231273" lon="-6.137062031775713">
        <ele>45.799999999999997</ele>
        <time>2023-08-29T13:34:09Z</time>
      </trkpt>
      <trkpt lat="56.732324967160821" lon="-6.137254983186722">
        <ele>44.840000000000003</ele>
        <time>2023-08-29T13:34:10Z</time>
      </trkpt>
      <trkpt lat="56.732367966324091" lon="-6.137466039508581">
        <ele>43.880000000000003</ele>
        <time>2023-08-29T13:34:11Z</time>
      </trkpt>
      <trkpt lat="56.732413982972503" lon="-6.137697966769338">
        <ele>42.920000000000002</ele>
        <time>2023-08-29T13:34:12Z</time>
      </trkpt>
      <trkpt lat="56.732457987964153" lon="-6.137930983677506">
        <ele>42.439999999999998</ele>
        <time>2023-08-29T13:34:13Z</time>
      </trkpt>
      <trkpt lat="56.732645994052291" lon="-6.140014976263046">
        <ele>43.399999999999999</ele>
        <time>2023-08-29T13:34:22Z</time>
      </trkpt>
      <trkpt lat="56.732629984617233" lon="-6.141897970810533">
        <ele>41.469999999999999</ele>
        <time>2023-08-29T13:34:30Z</time>
      </trkpt>
      <trkpt lat="56.732627972960472" lon="-6.14208597689867">
        <ele>40.509999999999998</ele>
        <time>2023-08-29T13:34:31Z</time>
      </trkpt>
      <trkpt lat="56.732626967132092" lon="-6.14225503988564">
        <ele>39.549999999999997</ele>
        <time>2023-08-29T13:34:32Z</time>
      </trkpt>
      <trkpt lat="56.732677007094026" lon="-6.142399040982127">
        <ele>38.590000000000003</ele>
        <time>2023-08-29T13:34:33Z</time>
      </trkpt>
      <trkpt lat="56.732725035399199" lon="-6.14253499545157">
        <ele>37.630000000000003</ele>
        <time>2023-08-29T13:34:34Z</time>
      </trkpt>
      <trkpt lat="56.73279301263392" lon="-6.142666004598141">
        <ele>36.670000000000002</ele>
        <time>2023-08-29T13:34:35Z</time>
      </trkpt>
      <trkpt lat="56.732873981818557" lon="-6.14281402900815">
        <ele>35.229999999999997</ele>
        <time>2023-08-29T13:34:36Z</time>
      </trkpt>
      <trkpt lat="56.732959980145097" lon="-6.142971022054553">
        <ele>34.259999999999998</ele>
        <time>2023-08-29T13:34:37Z</time>
      </trkpt>
      <trkpt lat="56.733047990128398" lon="-6.143131032586098">
        <ele>33.299999999999997</ele>
        <time>2023-08-29T13:34:38Z</time>
      </trkpt>
      <trkpt lat="56.733215041458607" lon="-6.143392967060208">
        <ele>32.340000000000003</ele>
        <time>2023-08-29T13:34:40Z</time>
      </trkpt>
      <trkpt lat="56.73328896984458" lon="-6.14350100979209">
        <ele>31.859999999999999</ele>
        <time>2023-08-29T13:34:41Z</time>
      </trkpt>
      <trkpt lat="56.733364993706346" lon="-6.14360997453332">
        <ele>31.379999999999999</ele>
        <time>2023-08-29T13:34:42Z</time>
      </trkpt>
      <trkpt lat="56.733445962890983" lon="-6.143727991729975">
        <ele>31.379999999999999</ele>
        <time>2023-08-29T13:34:43Z</time>
      </trkpt>
      <trkpt lat="56.733528021723032" lon="-6.143847014755011">
        <ele>30.899999999999999</ele>
        <time>2023-08-29T13:34:44Z</time>
      </trkpt>
      <trkpt lat="56.73359096981585" lon="-6.143996967002749">
        <ele>30.899999999999999</ele>
        <time>2023-08-29T13:34:45Z</time>
      </trkpt>
      <trkpt lat="56.7336540017277" lon="-6.144143985584378">
        <ele>30.899999999999999</ele>
        <time>2023-08-29T13:34:46Z</time>
      </trkpt>
      <trkpt lat="56.73371703363955" lon="-6.144293015822768">
        <ele>30.899999999999999</ele>
        <time>2023-08-29T13:34:47Z</time>
      </trkpt>
      <trkpt lat="56.733778975903988" lon="-6.144465012475848">
        <ele>30.899999999999999</ele>
        <time>2023-08-29T13:34:48Z</time>
      </trkpt>
      <trkpt lat="56.733950972557068" lon="-6.145176971331239">
        <ele>31.379999999999999</ele>
        <time>2023-08-29T13:34:52Z</time>
      </trkpt>
      <trkpt lat="56.73442698083818" lon="-6.146886963397265">
        <ele>29.940000000000001</ele>
        <time>2023-08-29T13:35:01Z</time>
      </trkpt>
      <trkpt lat="56.734525971114635" lon="-6.147293988615274">
        <ele>29.460000000000001</ele>
        <time>2023-08-29T13:35:03Z</time>
      </trkpt>
      <trkpt lat="56.734622027724981" lon="-6.147688021883369">
        <ele>29.460000000000001</ele>
        <time>2023-08-29T13:35:05Z</time>
      </trkpt>
      <trkpt lat="56.734906006604433" lon="-6.148375002667308">
        <ele>28.98</ele>
        <time>2023-08-29T13:35:10Z</time>
      </trkpt>
      <trkpt lat="56.73496400937438" lon="-6.148471981287003">
        <ele>28.98</ele>
        <time>2023-08-29T13:35:11Z</time>
      </trkpt>
      <trkpt lat="56.735037015751004" lon="-6.14857298322022">
        <ele>28.5</ele>
        <time>2023-08-29T13:35:12Z</time>
      </trkpt>
      <trkpt lat="56.735932035371661" lon="-6.149406982585788">
        <ele>27.050000000000001</ele>
        <time>2023-08-29T13:35:20Z</time>
      </trkpt>
      <trkpt lat="56.736595965921879" lon="-6.150025986135006">
        <ele>27.050000000000001</ele>
        <time>2023-08-29T13:35:27Z</time>
      </trkpt>
      <trkpt lat="56.736695040017366" lon="-6.150046018883586">
        <ele>27.050000000000001</ele>
        <time>2023-08-29T13:35:28Z</time>
      </trkpt>
      <trkpt lat="56.736952029168606" lon="-6.150096980854869">
        <ele>26.57</ele>
        <time>2023-08-29T13:35:31Z</time>
      </trkpt>
      <trkpt lat="56.737053031101823" lon="-6.150136962532997">
        <ele>26.57</ele>
        <time>2023-08-29T13:35:32Z</time>
      </trkpt>
      <trkpt lat="56.737342039123178" lon="-6.15039898082614">
        <ele>26.09</ele>
        <time>2023-08-29T13:35:35Z</time>
      </trkpt>
      <trkpt lat="56.737428959459066" lon="-6.150477016344667">
        <ele>25.609999999999999</ele>
        <time>2023-08-29T13:35:36Z</time>
      </trkpt>
      <trkpt lat="56.737506994977593" lon="-6.150586986914277">
        <ele>25.129999999999999</ele>
        <time>2023-08-29T13:35:37Z</time>
      </trkpt>
      <trkpt lat="56.737583018839359" lon="-6.150755966082215">
        <ele>25.129999999999999</ele>
        <time>2023-08-29T13:35:38Z</time>
      </trkpt>
      <trkpt lat="56.737621994689107" lon="-6.150926034897566">
        <ele>24.649999999999999</ele>
        <time>2023-08-29T13:35:39Z</time>
      </trkpt>
      <trkpt lat="56.737667005509138" lon="-6.151120997965336">
        <ele>25.129999999999999</ele>
        <time>2023-08-29T13:35:40Z</time>
      </trkpt>
      <trkpt lat="56.73784595914185" lon="-6.151906969025731">
        <ele>27.050000000000001</ele>
        <time>2023-08-29T13:35:45Z</time>
      </trkpt>
      <trkpt lat="56.737882001325488" lon="-6.152002019807696">
        <ele>27.050000000000001</ele>
        <time>2023-08-29T13:35:46Z</time>
      </trkpt>
      <trkpt lat="56.737947966903448" lon="-6.152081983163953">
        <ele>27.050000000000001</ele>
        <time>2023-08-29T13:35:47Z</time>
      </trkpt>
      <trkpt lat="56.738023990765214" lon="-6.152135962620378">
        <ele>27.050000000000001</ele>
        <time>2023-08-29T13:35:48Z</time>
      </trkpt>
      <trkpt lat="56.738107977434993" lon="-6.152180973440409">
        <ele>26.57</ele>
        <time>2023-08-29T13:35:49Z</time>
      </trkpt>
      <trkpt lat="56.738197999075055" lon="-6.152227995917201">
        <ele>26.09</ele>
        <time>2023-08-29T13:35:50Z</time>
      </trkpt>
      <trkpt lat="56.738289026543498" lon="-6.152276024222374">
        <ele>26.09</ele>
        <time>2023-08-29T13:35:51Z</time>
      </trkpt>
      <trkpt lat="56.73838097602129" lon="-6.152331009507179">
        <ele>26.09</ele>
        <time>2023-08-29T13:35:52Z</time>
      </trkpt>
      <trkpt lat="56.738435961306095" lon="-6.152450032532215">
        <ele>25.609999999999999</ele>
        <time>2023-08-29T13:35:53Z</time>
      </trkpt>
      <trkpt lat="56.738495975732803" lon="-6.152581041678786">
        <ele>25.609999999999999</ele>
        <time>2023-08-29T13:35:54Z</time>
      </trkpt>
      <trkpt lat="56.738564036786556" lon="-6.152729988098145">
        <ele>25.129999999999999</ele>
        <time>2023-08-29T13:35:55Z</time>
      </trkpt>
      <trkpt lat="56.738954968750477" lon="-6.153445970267057">
        <ele>22.25</ele>
        <time>2023-08-29T13:36:00Z</time>
      </trkpt>
      <trkpt lat="56.73902596347034" lon="-6.153527023270726">
        <ele>22.25</ele>
        <time>2023-08-29T13:36:01Z</time>
      </trkpt>
      <trkpt lat="56.739094024524093" lon="-6.153592988848686">
        <ele>22.25</ele>
        <time>2023-08-29T13:36:02Z</time>
      </trkpt>
      <trkpt lat="56.739166025072336" lon="-6.153661971911788">
        <ele>21.77</ele>
        <time>2023-08-29T13:36:03Z</time>
      </trkpt>
      <trkpt lat="56.739244982600212" lon="-6.153739001601934">
        <ele>21.77</ele>
        <time>2023-08-29T13:36:04Z</time>
      </trkpt>
      <trkpt lat="56.739327041432261" lon="-6.153817037120462">
        <ele>21.289999999999999</ele>
        <time>2023-08-29T13:36:05Z</time>
      </trkpt>
      <trkpt lat="56.739405998960137" lon="-6.153892977163196">
        <ele>21.289999999999999</ele>
        <time>2023-08-29T13:36:06Z</time>
      </trkpt>
      <trkpt lat="56.739481016993523" lon="-6.15396598353982">
        <ele>21.289999999999999</ele>
        <time>2023-08-29T13:36:07Z</time>
      </trkpt>
      <trkpt lat="56.739555029198527" lon="-6.154036978259683">
        <ele>21.289999999999999</ele>
        <time>2023-08-29T13:36:08Z</time>
      </trkpt>
      <trkpt lat="56.73960599116981" lon="-6.154176034033299">
        <ele>21.289999999999999</ele>
        <time>2023-08-29T13:36:09Z</time>
      </trkpt>
      <trkpt lat="56.739655025303364" lon="-6.15431098267436">
        <ele>21.289999999999999</ele>
        <time>2023-08-29T13:36:10Z</time>
      </trkpt>
      <trkpt lat="56.739704981446266" lon="-6.154451966285706">
        <ele>21.289999999999999</ele>
        <time>2023-08-29T13:36:11Z</time>
      </trkpt>
      <trkpt lat="56.739772036671638" lon="-6.154639972373843">
        <ele>21.289999999999999</ele>
        <time>2023-08-29T13:36:12Z</time>
      </trkpt>
      <trkpt lat="56.739789973944426" lon="-6.154766958206892">
        <ele>21.289999999999999</ele>
        <time>2023-08-29T13:36:13Z</time>
      </trkpt>
      <trkpt lat="56.739816041663289" lon="-6.154945995658636">
        <ele>21.289999999999999</ele>
        <time>2023-08-29T13:36:14Z</time>
      </trkpt>
      <trkpt lat="56.740022990852594" lon="-6.155873034149408">
        <ele>20.809999999999999</ele>
        <time>2023-08-29T13:36:19Z</time>
      </trkpt>
      <trkpt lat="56.740479972213507" lon="-6.157622002065182">
        <ele>20.32</ele>
        <time>2023-08-29T13:36:28Z</time>
      </trkpt>
      <trkpt lat="56.740549961104989" lon="-6.157727027311921">
        <ele>20.32</ele>
        <time>2023-08-29T13:36:29Z</time>
      </trkpt>
      <trkpt lat="56.740623973309994" lon="-6.157839009538293">
        <ele>19.359999999999999</ele>
        <time>2023-08-29T13:36:30Z</time>
      </trkpt>
      <trkpt lat="56.741015994921327" lon="-6.158425994217396">
        <ele>17.920000000000002</ele>
        <time>2023-08-29T13:36:35Z</time>
      </trkpt>
      <trkpt lat="56.741081038489938" lon="-6.158536970615387">
        <ele>17.440000000000001</ele>
        <time>2023-08-29T13:36:36Z</time>
      </trkpt>
      <trkpt lat="56.741081038489938" lon="-6.158674014732242">
        <ele>17.440000000000001</ele>
        <time>2023-08-29T13:36:37Z</time>
      </trkpt>
      <trkpt lat="56.741081038489938" lon="-6.158839976415038">
        <ele>16.960000000000001</ele>
        <time>2023-08-29T13:36:38Z</time>
      </trkpt>
      <trkpt lat="56.741081038489938" lon="-6.159028988331556">
        <ele>16.960000000000001</ele>
        <time>2023-08-29T13:36:39Z</time>
      </trkpt>
      <trkpt lat="56.741081038489938" lon="-6.159218000248075">
        <ele>16.960000000000001</ele>
        <time>2023-08-29T13:36:40Z</time>
      </trkpt>
      <trkpt lat="56.741081038489938" lon="-6.159317996352911">
        <ele>16.960000000000001</ele>
        <time>2023-08-29T13:36:41Z</time>
      </trkpt>
      <trkpt lat="56.741125965490937" lon="-6.159498961642385">
        <ele>16.960000000000001</ele>
        <time>2023-08-29T13:36:42Z</time>
      </trkpt>
      <trkpt lat="56.741152033209801" lon="-6.159601975232363">
        <ele>16.960000000000001</ele>
        <time>2023-08-29T13:36:43Z</time>
      </trkpt>
      <trkpt lat="56.741186985746026" lon="-6.159687973558903">
        <ele>16.960000000000001</ele>
        <time>2023-08-29T13:36:44Z</time>
      </trkpt>
      <trkpt lat="56.741248006001115" lon="-6.159769026562572">
        <ele>16.960000000000001</ele>
        <time>2023-08-29T13:36:45Z</time>
      </trkpt>
      <trkpt lat="56.741317994892597" lon="-6.159861981868744">
        <ele>16.960000000000001</ele>
        <time>2023-08-29T13:36:46Z</time>
      </trkpt>
      <trkpt lat="56.741395024582744" lon="-6.159966001287103">
        <ele>16.960000000000001</ele>
        <time>2023-08-29T13:36:47Z</time>
      </trkpt>
      <trkpt lat="56.741661988198757" lon="-6.160320974886417">
        <ele>17.440000000000001</ele>
        <time>2023-08-29T13:36:50Z</time>
      </trkpt>
      <trkpt lat="56.742427004501224" lon="-6.161608016118407">
        <ele>20.32</ele>
        <time>2023-08-29T13:36:58Z</time>
      </trkpt>
      <trkpt lat="56.742651974782348" lon="-6.162015963345766">
        <ele>21.77</ele>
        <time>2023-08-29T13:37:01Z</time>
      </trkpt>
      <trkpt lat="56.742714000865817" lon="-6.162114031612873">
        <ele>22.25</ele>
        <time>2023-08-29T13:37:02Z</time>
      </trkpt>
      <trkpt lat="56.742866970598698" lon="-6.162296002730727">
        <ele>23.690000000000001</ele>
        <time>2023-08-29T13:37:04Z</time>
      </trkpt>
      <trkpt lat="56.742948023602366" lon="-6.162391975522041">
        <ele>24.170000000000002</ele>
        <time>2023-08-29T13:37:05Z</time>
      </trkpt>
      <trkpt lat="56.743109039962292" lon="-6.162584004923701">
        <ele>24.170000000000002</ele>
        <time>2023-08-29T13:37:07Z</time>
      </trkpt>
      <trkpt lat="56.743187997490168" lon="-6.16264502517879">
        <ele>23.690000000000001</ele>
        <time>2023-08-29T13:37:08Z</time>
      </trkpt>
      <trkpt lat="56.743268966674805" lon="-6.162686012685299">
        <ele>23.690000000000001</ele>
        <time>2023-08-29T13:37:09Z</time>
      </trkpt>
      <trkpt lat="56.743525033816695" lon="-6.162814004346728">
        <ele>22.25</ele>
        <time>2023-08-29T13:37:12Z</time>
      </trkpt>
      <trkpt lat="56.743597034364939" lon="-6.162879969924688">
        <ele>21.289999999999999</ele>
        <time>2023-08-29T13:37:13Z</time>
      </trkpt>
      <trkpt lat="56.743655959144235" lon="-6.162975020706654">
        <ele>20.809999999999999</ele>
        <time>2023-08-29T13:37:14Z</time>
      </trkpt>
      <trkpt lat="56.743711028248072" lon="-6.163093037903309">
        <ele>20.32</ele>
        <time>2023-08-29T13:37:15Z</time>
      </trkpt>
      <trkpt lat="56.743769031018019" lon="-6.163235027343035">
        <ele>19.84</ele>
        <time>2023-08-29T13:37:16Z</time>
      </trkpt>
      <trkpt lat="56.744415024295449" lon="-6.164833037182689">
        <ele>22.73</ele>
        <time>2023-08-29T13:37:25Z</time>
      </trkpt>
      <trkpt lat="56.74458903260529" lon="-6.165292030200362">
        <ele>25.609999999999999</ele>
        <time>2023-08-29T13:37:28Z</time>
      </trkpt>
      <trkpt lat="56.744643012061715" lon="-6.165453968569636">
        <ele>26.57</ele>
        <time>2023-08-29T13:37:29Z</time>
      </trkpt>
      <trkpt lat="56.744658015668392" lon="-6.165592018514872">
        <ele>27.530000000000001</ele>
        <time>2023-08-29T13:37:30Z</time>
      </trkpt>
      <trkpt lat="56.74467695876956" lon="-6.16576200351119">
        <ele>28.02</ele>
        <time>2023-08-29T13:37:31Z</time>
      </trkpt>
      <trkpt lat="56.744681987911463" lon="-6.165957972407341">
        <ele>28.98</ele>
        <time>2023-08-29T13:37:32Z</time>
      </trkpt>
      <trkpt lat="56.744692968204618" lon="-6.166699016466737">
        <ele>32.340000000000003</ele>
        <time>2023-08-29T13:37:36Z</time>
      </trkpt>
      <trkpt lat="56.744725992903113" lon="-6.166871013119817">
        <ele>32.82</ele>
        <time>2023-08-29T13:37:37Z</time>
      </trkpt>
      <trkpt lat="56.744762035086751" lon="-6.1670480389148">
        <ele>32.82</ele>
        <time>2023-08-29T13:37:38Z</time>
      </trkpt>
      <trkpt lat="56.74480696208775" lon="-6.167225986719132">
        <ele>32.82</ele>
        <time>2023-08-29T13:37:39Z</time>
      </trkpt>
      <trkpt lat="56.744852978736162" lon="-6.167410975322127">
        <ele>32.82</ele>
        <time>2023-08-29T13:37:40Z</time>
      </trkpt>
      <trkpt lat="56.744902012869716" lon="-6.167606022208929">
        <ele>32.82</ele>
        <time>2023-08-29T13:37:41Z</time>
      </trkpt>
      <trkpt lat="56.745252963155508" lon="-6.16917503066361">
        <ele>30.899999999999999</ele>
        <time>2023-08-29T13:37:49Z</time>
      </trkpt>
      <trkpt lat="56.745291016995907" lon="-6.169260023161769">
        <ele>30.420000000000002</ele>
        <time>2023-08-29T13:37:50Z</time>
      </trkpt>
      <trkpt lat="56.745377015322447" lon="-6.169452974572778">
        <ele>29.940000000000001</ele>
        <time>2023-08-29T13:37:52Z</time>
      </trkpt>
      <trkpt lat="56.745432000607252" lon="-6.169576020911336">
        <ele>29.460000000000001</ele>
        <time>2023-08-29T13:37:53Z</time>
      </trkpt>
      <trkpt lat="56.745487991720438" lon="-6.169736031442881">
        <ele>28.98</ele>
        <time>2023-08-29T13:37:54Z</time>
      </trkpt>
      <trkpt lat="56.74577197059989" lon="-6.171118039637804">
        <ele>24.649999999999999</ele>
        <time>2023-08-29T13:38:01Z</time>
      </trkpt>
      <trkpt lat="56.745808012783527" lon="-6.171254999935627">
        <ele>24.170000000000002</ele>
        <time>2023-08-29T13:38:02Z</time>
      </trkpt>
      <trkpt lat="56.745816981419921" lon="-6.171372011303902">
        <ele>23.210000000000001</ele>
        <time>2023-08-29T13:38:03Z</time>
      </trkpt>
      <trkpt lat="56.745802983641624" lon="-6.171503020450473">
        <ele>22.73</ele>
        <time>2023-08-29T13:38:04Z</time>
      </trkpt>
      <trkpt lat="56.745787980034947" lon="-6.171649033203721">
        <ele>22.25</ele>
        <time>2023-08-29T13:38:05Z</time>
      </trkpt>
      <trkpt lat="56.745755039155483" lon="-6.171805020421743">
        <ele>21.77</ele>
        <time>2023-08-29T13:38:06Z</time>
      </trkpt>
      <trkpt lat="56.74570701085031" lon="-6.17197098210454">
        <ele>21.289999999999999</ele>
        <time>2023-08-29T13:38:07Z</time>
      </trkpt>
      <trkpt lat="56.745522022247314" lon="-6.172634996473789">
        <ele>19.359999999999999</ele>
        <time>2023-08-29T13:38:11Z</time>
      </trkpt>
      <trkpt lat="56.745486985892057" lon="-6.17276499979198">
        <ele>18.879999999999999</ele>
        <time>2023-08-29T13:38:12Z</time>
      </trkpt>
      <trkpt lat="56.745485980063677" lon="-6.172897014766932">
        <ele>18.399999999999999</ele>
        <time>2023-08-29T13:38:13Z</time>
      </trkpt>
      <trkpt lat="56.745495032519102" lon="-6.173035986721516">
        <ele>18.399999999999999</ele>
        <time>2023-08-29T13:38:14Z</time>
      </trkpt>
      <trkpt lat="56.745504001155496" lon="-6.173185016959906">
        <ele>17.920000000000002</ele>
        <time>2023-08-29T13:38:15Z</time>
      </trkpt>
      <trkpt lat="56.74551397562027" lon="-6.17334502749145">
        <ele>17.440000000000001</ele>
        <time>2023-08-29T13:38:16Z</time>
      </trkpt>
      <trkpt lat="56.745523028075695" lon="-6.173479976132512">
        <ele>16.960000000000001</ele>
        <time>2023-08-29T13:38:17Z</time>
      </trkpt>
      <trkpt lat="56.745496960356832" lon="-6.173616014420986">
        <ele>16.960000000000001</ele>
        <time>2023-08-29T13:38:18Z</time>
      </trkpt>
      <trkpt lat="56.745473993942142" lon="-6.173745011910796">
        <ele>16.960000000000001</ele>
        <time>2023-08-29T13:38:19Z</time>
      </trkpt>
      <trkpt lat="56.74544901587069" lon="-6.173876021057367">
        <ele>16.48</ele>
        <time>2023-08-29T13:38:20Z</time>
      </trkpt>
      <trkpt lat="56.745425965636969" lon="-6.174004012718797">
        <ele>16.48</ele>
        <time>2023-08-29T13:38:21Z</time>
      </trkpt>
      <trkpt lat="56.745414985343814" lon="-6.17411800660193">
        <ele>16.48</ele>
        <time>2023-08-29T13:38:22Z</time>
      </trkpt>
      <trkpt lat="56.745414985343814" lon="-6.174244992434979">
        <ele>16.48</ele>
        <time>2023-08-29T13:38:23Z</time>
      </trkpt>
      <trkpt lat="56.745414985343814" lon="-6.174370972439647">
        <ele>16.48</ele>
        <time>2023-08-29T13:38:24Z</time>
      </trkpt>
      <trkpt lat="56.745414985343814" lon="-6.174493012949824">
        <ele>16</ele>
        <time>2023-08-29T13:38:25Z</time>
      </trkpt>
      <trkpt lat="56.745414985343814" lon="-6.174618992954493">
        <ele>16</ele>
        <time>2023-08-29T13:38:26Z</time>
      </trkpt>
      <trkpt lat="56.745410962030292" lon="-6.174744972959161">
        <ele>16</ele>
        <time>2023-08-29T13:38:27Z</time>
      </trkpt>
      <trkpt lat="56.745391013100743" lon="-6.174851004034281">
        <ele>16</ele>
        <time>2023-08-29T13:38:28Z</time>
      </trkpt>
      <trkpt lat="56.745370980352163" lon="-6.174954017624259">
        <ele>16</ele>
        <time>2023-08-29T13:38:29Z</time>
      </trkpt>
      <trkpt lat="56.745352037250996" lon="-6.175048984587193">
        <ele>16</ele>
        <time>2023-08-29T13:38:30Z</time>
      </trkpt>
      <trkpt lat="56.745292022824287" lon="-6.175357019528747">
        <ele>15.52</ele>
        <time>2023-08-29T13:38:35Z</time>
      </trkpt>
      <trkpt lat="56.745283976197243" lon="-6.175395995378494">
        <ele>15.52</ele>
        <time>2023-08-29T13:38:36Z</time>
      </trkpt>
      <trkpt lat="56.745279030874372" lon="-6.175422985106707">
        <ele>15.52</ele>
        <time>2023-08-29T13:38:37Z</time>
      </trkpt>
      <trkpt lat="56.745312977582216" lon="-6.175448969006538">
        <ele>15.039999999999999</ele>
        <time>2023-08-29T13:38:39Z</time>
      </trkpt>
      <trkpt lat="56.745414985343814" lon="-6.175512000918388">
        <ele>14.08</ele>
        <time>2023-08-29T13:38:50Z</time>
      </trkpt>
      <trkpt lat="56.745463013648987" lon="-6.175706963986158">
        <ele>19.359999999999999</ele>
        <time>2023-08-29T14:09:14Z</time>
      </trkpt>
      <trkpt lat="56.745387995615602" lon="-6.175517030060291">
        <ele>9.75</ele>
        <time>2023-08-29T14:09:47Z</time>
      </trkpt>
      <trkpt lat="56.74536201171577" lon="-6.175570003688335">
        <ele>8.310000000000001</ele>
        <time>2023-08-29T14:09:55Z</time>
      </trkpt>
      <trkpt lat="56.745269978418946" lon="-6.175467995926738">
        <ele>6.87</ele>
        <time>2023-08-29T14:10:01Z</time>
      </trkpt>
      <trkpt lat="56.745279030874372" lon="-6.175424996763468">
        <ele>6.87</ele>
        <time>2023-08-29T14:10:02Z</time>
      </trkpt>
      <trkpt lat="56.745292022824287" lon="-6.175358025357127">
        <ele>6.87</ele>
        <time>2023-08-29T14:10:03Z</time>
      </trkpt>
      <trkpt lat="56.745306020602584" lon="-6.175285018980503">
        <ele>6.87</ele>
        <time>2023-08-29T14:10:04Z</time>
      </trkpt>
      <trkpt lat="56.745414985343814" lon="-6.174724018201232">
        <ele>5.91</ele>
        <time>2023-08-29T14:10:14Z</time>
      </trkpt>
      <trkpt lat="56.745414985343814" lon="-6.174613041803241">
        <ele>5.91</ele>
        <time>2023-08-29T14:10:16Z</time>
      </trkpt>
      <trkpt lat="56.745414985343814" lon="-6.174541963264346">
        <ele>6.39</ele>
        <time>2023-08-29T14:10:17Z</time>
      </trkpt>
      <trkpt lat="56.745414985343814" lon="-6.174209034070373">
        <ele>6.39</ele>
        <time>2023-08-29T14:10:21Z</time>
      </trkpt>
      <trkpt lat="56.745414985343814" lon="-6.174120018258691">
        <ele>6.39</ele>
        <time>2023-08-29T14:10:22Z</time>
      </trkpt>
      <trkpt lat="56.745414985343814" lon="-6.174058998003602">
        <ele>6.87</ele>
        <time>2023-08-29T14:10:23Z</time>
      </trkpt>
      <trkpt lat="56.745433006435633" lon="-6.173965036869049">
        <ele>6.87</ele>
        <time>2023-08-29T14:10:24Z</time>
      </trkpt>
      <trkpt lat="56.745452033355832" lon="-6.173863029107451">
        <ele>6.87</ele>
        <time>2023-08-29T14:10:25Z</time>
      </trkpt>
      <trkpt lat="56.745468964800239" lon="-6.173768984153867">
        <ele>6.87</ele>
        <time>2023-08-29T14:10:26Z</time>
      </trkpt>
      <trkpt lat="56.745485980063677" lon="-6.173678962513804">
        <ele>6.87</ele>
        <time>2023-08-29T14:10:27Z</time>
      </trkpt>
      <trkpt lat="56.745502995327115" lon="-6.173586007207632">
        <ele>6.87</ele>
        <time>2023-08-29T14:10:28Z</time>
      </trkpt>
      <trkpt lat="56.745521016418934" lon="-6.173488022759557">
        <ele>6.87</ele>
        <time>2023-08-29T14:10:29Z</time>
      </trkpt>
      <trkpt lat="56.745516993105412" lon="-6.173382997512817">
        <ele>6.87</ele>
        <time>2023-08-29T14:10:30Z</time>
      </trkpt>
      <trkpt lat="56.745510958135128" lon="-6.173284007236362">
        <ele>6.87</ele>
        <time>2023-08-29T14:10:31Z</time>
      </trkpt>
      <trkpt lat="56.745504001155496" lon="-6.173188034445047">
        <ele>6.87</ele>
        <time>2023-08-29T14:10:32Z</time>
      </trkpt>
      <trkpt lat="56.745480028912425" lon="-6.172792995348573">
        <ele>7.35</ele>
        <time>2023-08-29T14:10:36Z</time>
      </trkpt>
      <trkpt lat="56.745505006983876" lon="-6.17269903421402">
        <ele>7.35</ele>
        <time>2023-08-29T14:10:37Z</time>
      </trkpt>
      <trkpt lat="56.745529985055327" lon="-6.172604989260435">
        <ele>7.83</ele>
        <time>2023-08-29T14:10:38Z</time>
      </trkpt>
      <trkpt lat="56.745555968955159" lon="-6.172510022297502">
        <ele>7.83</ele>
        <time>2023-08-29T14:10:39Z</time>
      </trkpt>
      <trkpt lat="56.745583964511752" lon="-6.172406002879143">
        <ele>7.83</ele>
        <time>2023-08-29T14:10:40Z</time>
      </trkpt>
      <trkpt lat="56.745794015005231" lon="-6.171586001291871">
        <ele>8.310000000000001</ele>
        <time>2023-08-29T14:10:47Z</time>
      </trkpt>
      <trkpt lat="56.745807006955147" lon="-6.171467984095216">
        <ele>8.789999999999999</ele>
        <time>2023-08-29T14:10:48Z</time>
      </trkpt>
      <trkpt lat="56.745818993076682" lon="-6.171352984383702">
        <ele>8.789999999999999</ele>
        <time>2023-08-29T14:10:49Z</time>
      </trkpt>
      <trkpt lat="56.745804995298386" lon="-6.171244019642472">
        <ele>8.789999999999999</ele>
        <time>2023-08-29T14:10:50Z</time>
      </trkpt>
      <trkpt lat="56.745776999741793" lon="-6.171135976910591">
        <ele>9.27</ele>
        <time>2023-08-29T14:10:51Z</time>
      </trkpt>
      <trkpt lat="56.745746992528439" lon="-6.171022988855839">
        <ele>9.27</ele>
        <time>2023-08-29T14:10:52Z</time>
      </trkpt>
      <trkpt lat="56.745717991143465" lon="-6.170910000801086">
        <ele>9.27</ele>
        <time>2023-08-29T14:10:53Z</time>
      </trkpt>
      <trkpt lat="56.745364023372531" lon="-6.169422967359424">
        <ele>13.119999999999999</ele>
        <time>2023-08-29T14:11:05Z</time>
      </trkpt>
      <trkpt lat="56.745318006724119" lon="-6.169320037588477">
        <ele>13.119999999999999</ele>
        <time>2023-08-29T14:11:06Z</time>
      </trkpt>
      <trkpt lat="56.745228990912437" lon="-6.169120967388153">
        <ele>14.56</ele>
        <time>2023-08-29T14:11:08Z</time>
      </trkpt>
      <trkpt lat="56.74519102089107" lon="-6.169009990990162">
        <ele>15.039999999999999</ele>
        <time>2023-08-29T14:11:09Z</time>
      </trkpt>
      <trkpt lat="56.745002008974552" lon="-6.168026961386204">
        <ele>19.84</ele>
        <time>2023-08-29T14:11:16Z</time>
      </trkpt>
      <trkpt lat="56.744970995932817" lon="-6.167882960289717">
        <ele>20.32</ele>
        <time>2023-08-29T14:11:17Z</time>
      </trkpt>
      <trkpt lat="56.744708977639675" lon="-6.166784008964896">
        <ele>26.57</ele>
        <time>2023-08-29T14:11:26Z</time>
      </trkpt>
      <trkpt lat="56.744682993739843" lon="-6.166646964848042">
        <ele>27.050000000000001</ele>
        <time>2023-08-29T14:11:27Z</time>
      </trkpt>
      <trkpt lat="56.744665978476405" lon="-6.166487960144877">
        <ele>27.530000000000001</ele>
        <time>2023-08-29T14:11:28Z</time>
      </trkpt>
      <trkpt lat="56.744657009840012" lon="-6.165582966059446">
        <ele>28.02</ele>
        <time>2023-08-29T14:11:34Z</time>
      </trkpt>
      <trkpt lat="56.744598001241684" lon="-6.165319019928575">
        <ele>27.050000000000001</ele>
        <time>2023-08-29T14:11:36Z</time>
      </trkpt>
      <trkpt lat="56.744557013735175" lon="-6.165196979418397">
        <ele>26.57</ele>
        <time>2023-08-29T14:11:37Z</time>
      </trkpt>
      <trkpt lat="56.7439029738307" lon="-6.163567034527659">
        <ele>19.84</ele>
        <time>2023-08-29T14:11:49Z</time>
      </trkpt>
      <trkpt lat="56.743645984679461" lon="-6.162958005443215">
        <ele>17.920000000000002</ele>
        <time>2023-08-29T14:11:54Z</time>
      </trkpt>
      <trkpt lat="56.743593011051416" lon="-6.162874018773437">
        <ele>17.920000000000002</ele>
        <time>2023-08-29T14:11:55Z</time>
      </trkpt>
      <trkpt lat="56.743530984967947" lon="-6.16281702183187">
        <ele>17.920000000000002</ele>
        <time>2023-08-29T14:11:56Z</time>
      </trkpt>
      <trkpt lat="56.743468036875129" lon="-6.162786008790135">
        <ele>17.920000000000002</ele>
        <time>2023-08-29T14:11:57Z</time>
      </trkpt>
      <trkpt lat="56.743400981649756" lon="-6.162751978263259">
        <ele>17.920000000000002</ele>
        <time>2023-08-29T14:11:58Z</time>
      </trkpt>
      <trkpt lat="56.743327975273132" lon="-6.162716019898653">
        <ele>18.399999999999999</ele>
        <time>2023-08-29T14:11:59Z</time>
      </trkpt>
      <trkpt lat="56.743251029402018" lon="-6.162676960229874">
        <ele>18.399999999999999</ele>
        <time>2023-08-29T14:12:00Z</time>
      </trkpt>
      <trkpt lat="56.743172993883491" lon="-6.162638990208507">
        <ele>18.879999999999999</ele>
        <time>2023-08-29T14:12:01Z</time>
      </trkpt>
      <trkpt lat="56.743101999163628" lon="-6.162575958296657">
        <ele>18.879999999999999</ele>
        <time>2023-08-29T14:12:02Z</time>
      </trkpt>
      <trkpt lat="56.743033016100526" lon="-6.162492977455258">
        <ele>18.879999999999999</ele>
        <time>2023-08-29T14:12:03Z</time>
      </trkpt>
      <trkpt lat="56.742820031940937" lon="-6.162240011617541">
        <ele>19.84</ele>
        <time>2023-08-29T14:12:06Z</time>
      </trkpt>
      <trkpt lat="56.742743002250791" lon="-6.162147978320718">
        <ele>19.359999999999999</ele>
        <time>2023-08-29T14:12:07Z</time>
      </trkpt>
      <trkpt lat="56.742690028622746" lon="-6.16208603605628">
        <ele>18.879999999999999</ele>
        <time>2023-08-29T14:12:08Z</time>
      </trkpt>
      <trkpt lat="56.742606963962317" lon="-6.161933988332748">
        <ele>18.399999999999999</ele>
        <time>2023-08-29T14:12:09Z</time>
      </trkpt>
      <trkpt lat="56.742542004212737" lon="-6.161816976964474">
        <ele>17.920000000000002</ele>
        <time>2023-08-29T14:12:10Z</time>
      </trkpt>
      <trkpt lat="56.742476038634777" lon="-6.161697031930089">
        <ele>17.440000000000001</ele>
        <time>2023-08-29T14:12:11Z</time>
      </trkpt>
      <trkpt lat="56.741680009290576" lon="-6.16034503094852">
        <ele>12.630000000000001</ele>
        <time>2023-08-29T14:12:22Z</time>
      </trkpt>
      <trkpt lat="56.741167036816478" lon="-6.15966098383069">
        <ele>11.67</ele>
        <time>2023-08-29T14:12:29Z</time>
      </trkpt>
      <trkpt lat="56.741132000461221" lon="-6.159521006047726">
        <ele>11.67</ele>
        <time>2023-08-29T14:12:30Z</time>
      </trkpt>
      <trkpt lat="56.741099981591105" lon="-6.159395026043057">
        <ele>11.67</ele>
        <time>2023-08-29T14:12:31Z</time>
      </trkpt>
      <trkpt lat="56.741081038489938" lon="-6.159271979704499">
        <ele>11.67</ele>
        <time>2023-08-29T14:12:32Z</time>
      </trkpt>
      <trkpt lat="56.741081038489938" lon="-6.159116998314858">
        <ele>11.67</ele>
        <time>2023-08-29T14:12:33Z</time>
      </trkpt>
      <trkpt lat="56.741081038489938" lon="-6.158962016925216">
        <ele>11.67</ele>
        <time>2023-08-29T14:12:34Z</time>
      </trkpt>
      <trkpt lat="56.741081038489938" lon="-6.158660016953945">
        <ele>11.19</ele>
        <time>2023-08-29T14:12:36Z</time>
      </trkpt>
      <trkpt lat="56.741081038489938" lon="-6.158531019464135">
        <ele>11.19</ele>
        <time>2023-08-29T14:12:37Z</time>
      </trkpt>
      <trkpt lat="56.74102102406323" lon="-6.158434040844441">
        <ele>11.19</ele>
        <time>2023-08-29T14:12:38Z</time>
      </trkpt>
      <trkpt lat="56.740962015464902" lon="-6.158346030861139">
        <ele>10.710000000000001</ele>
        <time>2023-08-29T14:12:39Z</time>
      </trkpt>
      <trkpt lat="56.74089596606791" lon="-6.158246034756303">
        <ele>10.710000000000001</ele>
        <time>2023-08-29T14:12:40Z</time>
      </trkpt>
      <trkpt lat="56.740821031853557" lon="-6.158133968710899">
        <ele>10.710000000000001</ele>
        <time>2023-08-29T14:12:41Z</time>
      </trkpt>
      <trkpt lat="56.740537974983454" lon="-6.157709006220102">
        <ele>11.67</ele>
        <time>2023-08-29T14:12:45Z</time>
      </trkpt>
      <trkpt lat="56.740477960556746" lon="-6.157613033428788">
        <ele>12.15</ele>
        <time>2023-08-29T14:12:46Z</time>
      </trkpt>
      <trkpt lat="56.740438984706998" lon="-6.157465009018779">
        <ele>13.119999999999999</ele>
        <time>2023-08-29T14:12:47Z</time>
      </trkpt>
      <trkpt lat="56.740031959488988" lon="-6.155905975028873">
        <ele>14.56</ele>
        <time>2023-08-29T14:12:55Z</time>
      </trkpt>
      <trkpt lat="56.739984015002847" lon="-6.155722998082638">
        <ele>14.56</ele>
        <time>2023-08-29T14:12:56Z</time>
      </trkpt>
      <trkpt lat="56.739937998354435" lon="-6.155545972287655">
        <ele>15.039999999999999</ele>
        <time>2023-08-29T14:12:57Z</time>
      </trkpt>
      <trkpt lat="56.739891981706023" lon="-6.155371963977814">
        <ele>15.039999999999999</ele>
        <time>2023-08-29T14:12:58Z</time>
      </trkpt>
      <trkpt lat="56.73975401557982" lon="-6.15458901040256">
        <ele>16</ele>
        <time>2023-08-29T14:13:03Z</time>
      </trkpt>
      <trkpt lat="56.739716967567801" lon="-6.154487002640963">
        <ele>16</ele>
        <time>2023-08-29T14:13:04Z</time>
      </trkpt>
      <trkpt lat="56.739682015031576" lon="-6.154389018192887">
        <ele>16</ele>
        <time>2023-08-29T14:13:05Z</time>
      </trkpt>
      <trkpt lat="56.739570032805204" lon="-6.154075032100081">
        <ele>16.48</ele>
        <time>2023-08-29T14:13:08Z</time>
      </trkpt>
      <trkpt lat="56.739526027813554" lon="-6.15400898270309">
        <ele>16.48</ele>
        <time>2023-08-29T14:13:09Z</time>
      </trkpt>
      <trkpt lat="56.739465007558465" lon="-6.153949974104762">
        <ele>16.48</ele>
        <time>2023-08-29T14:13:10Z</time>
      </trkpt>
      <trkpt lat="56.73932402394712" lon="-6.15381401963532">
        <ele>16</ele>
        <time>2023-08-29T14:13:12Z</time>
      </trkpt>
      <trkpt lat="56.739178011193871" lon="-6.153674041852355">
        <ele>16</ele>
        <time>2023-08-29T14:13:14Z</time>
      </trkpt>
      <trkpt lat="56.73911196179688" lon="-6.153610004112124">
        <ele>16.48</ele>
        <time>2023-08-29T14:13:15Z</time>
      </trkpt>
      <trkpt lat="56.739048007875681" lon="-6.153548983857036">
        <ele>16.48</ele>
        <time>2023-08-29T14:13:16Z</time>
      </trkpt>
      <trkpt lat="56.738978018984199" lon="-6.153481006622315">
        <ele>16.48</ele>
        <time>2023-08-29T14:13:17Z</time>
      </trkpt>
      <trkpt lat="56.738911969587207" lon="-6.153378998860717">
        <ele>16.48</ele>
        <time>2023-08-29T14:13:18Z</time>
      </trkpt>
      <trkpt lat="56.738840974867344" lon="-6.153269028291106">
        <ele>16.48</ele>
        <time>2023-08-29T14:13:19Z</time>
      </trkpt>
      <trkpt lat="56.738636959344149" lon="-6.152888992801309">
        <ele>16.48</ele>
        <time>2023-08-29T14:13:22Z</time>
      </trkpt>
      <trkpt lat="56.738415006548166" lon="-6.152404015883803">
        <ele>18.399999999999999</ele>
        <time>2023-08-29T14:13:26Z</time>
      </trkpt>
      <trkpt lat="56.738351974636316" lon="-6.152308965101838">
        <ele>18.879999999999999</ele>
        <time>2023-08-29T14:13:27Z</time>
      </trkpt>
      <trkpt lat="56.738277962431312" lon="-6.152269989252091">
        <ele>19.359999999999999</ele>
        <time>2023-08-29T14:13:28Z</time>
      </trkpt>
      <trkpt lat="56.738200010731816" lon="-6.152229001745582">
        <ele>19.359999999999999</ele>
        <time>2023-08-29T14:13:29Z</time>
      </trkpt>
      <trkpt lat="56.738120969384909" lon="-6.152188014239073">
        <ele>19.84</ele>
        <time>2023-08-29T14:13:30Z</time>
      </trkpt>
      <trkpt lat="56.737915026023984" lon="-6.152042001485825">
        <ele>20.809999999999999</ele>
        <time>2023-08-29T14:13:33Z</time>
      </trkpt>
      <trkpt lat="56.737863980233669" lon="-6.151980981230736">
        <ele>21.289999999999999</ele>
        <time>2023-08-29T14:13:34Z</time>
      </trkpt>
      <trkpt lat="56.737837996333838" lon="-6.151872016489506">
        <ele>22.25</ele>
        <time>2023-08-29T14:13:35Z</time>
      </trkpt>
      <trkpt lat="56.737808994948864" lon="-6.151746958494186">
        <ele>22.73</ele>
        <time>2023-08-29T14:13:36Z</time>
      </trkpt>
      <trkpt lat="56.73777999356389" lon="-6.151616033166647">
        <ele>23.690000000000001</ele>
        <time>2023-08-29T14:13:38Z</time>
      </trkpt>
      <trkpt lat="56.737552005797625" lon="-6.150686983019114">
        <ele>23.690000000000001</ele>
        <time>2023-08-29T14:13:44Z</time>
      </trkpt>
      <trkpt lat="56.737505989149213" lon="-6.150584975257516">
        <ele>24.170000000000002</ele>
        <time>2023-08-29T14:13:45Z</time>
      </trkpt>
      <trkpt lat="56.737475981935859" lon="-6.150520015507937">
        <ele>24.170000000000002</ele>
        <time>2023-08-29T14:13:46Z</time>
      </trkpt>
      <trkpt lat="56.737398030236363" lon="-6.150449020788074">
        <ele>24.649999999999999</ele>
        <time>2023-08-29T14:13:47Z</time>
      </trkpt>
      <trkpt lat="56.737331980839372" lon="-6.150390012189746">
        <ele>25.129999999999999</ele>
        <time>2023-08-29T14:13:48Z</time>
      </trkpt>
      <trkpt lat="56.73726299777627" lon="-6.150327986106277">
        <ele>25.129999999999999</ele>
        <time>2023-08-29T14:13:49Z</time>
      </trkpt>
      <trkpt lat="56.736888997256756" lon="-6.150084994733334">
        <ele>26.57</ele>
        <time>2023-08-29T14:13:54Z</time>
      </trkpt>
      <trkpt lat="56.73668397590518" lon="-6.150044007226825">
        <ele>27.050000000000001</ele>
        <time>2023-08-29T14:13:57Z</time>
      </trkpt>
      <trkpt lat="56.736595965921879" lon="-6.150025986135006">
        <ele>27.530000000000001</ele>
        <time>2023-08-29T14:13:58Z</time>
      </trkpt>
      <trkpt lat="56.735872020944953" lon="-6.149350991472602">
        <ele>28.98</ele>
        <time>2023-08-29T14:14:07Z</time>
      </trkpt>
      <trkpt lat="56.734903994947672" lon="-6.148370979353786">
        <ele>26.09</ele>
        <time>2023-08-29T14:14:18Z</time>
      </trkpt>
      <trkpt lat="56.734853032976389" lon="-6.148263020440936">
        <ele>26.57</ele>
        <time>2023-08-29T14:14:19Z</time>
      </trkpt>
      <trkpt lat="56.734622027724981" lon="-6.147688021883369">
        <ele>27.530000000000001</ele>
        <time>2023-08-29T14:14:23Z</time>
      </trkpt>
      <trkpt lat="56.734585985541344" lon="-6.147537985816598">
        <ele>27.530000000000001</ele>
        <time>2023-08-29T14:14:24Z</time>
      </trkpt>
      <trkpt lat="56.734548015519977" lon="-6.147383004426956">
        <ele>28.02</ele>
        <time>2023-08-29T14:14:25Z</time>
      </trkpt>
      <trkpt lat="56.734509961679578" lon="-6.147226011380553">
        <ele>27.530000000000001</ele>
        <time>2023-08-29T14:14:26Z</time>
      </trkpt>
      <trkpt lat="56.73447098582983" lon="-6.14706901833415">
        <ele>27.530000000000001</ele>
        <time>2023-08-29T14:14:27Z</time>
      </trkpt>
      <trkpt lat="56.73419295810163" lon="-6.146112978458405">
        <ele>26.09</ele>
        <time>2023-08-29T14:14:33Z</time>
      </trkpt>
      <trkpt lat="56.73389095813036" lon="-6.144926017150283">
        <ele>26.57</ele>
        <time>2023-08-29T14:14:40Z</time>
      </trkpt>
      <trkpt lat="56.733601028099656" lon="-6.144019011408091">
        <ele>26.57</ele>
        <time>2023-08-29T14:14:46Z</time>
      </trkpt>
      <trkpt lat="56.73354797065258" lon="-6.143894037231803">
        <ele>26.57</ele>
        <time>2023-08-29T14:14:47Z</time>
      </trkpt>
      <trkpt lat="56.733488962054253" lon="-6.143790017813444">
        <ele>26.57</ele>
        <time>2023-08-29T14:14:48Z</time>
      </trkpt>
      <trkpt lat="56.733421990647912" lon="-6.143693039193749">
        <ele>26.57</ele>
        <time>2023-08-29T14:14:49Z</time>
      </trkpt>
      <trkpt lat="56.73335200175643" lon="-6.143592037260532">
        <ele>26.57</ele>
        <time>2023-08-29T14:14:50Z</time>
      </trkpt>
      <trkpt lat="56.733281007036567" lon="-6.143489023670554">
        <ele>26.57</ele>
        <time>2023-08-29T14:14:51Z</time>
      </trkpt>
      <trkpt lat="56.733206994831562" lon="-6.143381986767054">
        <ele>26.57</ele>
        <time>2023-08-29T14:14:52Z</time>
      </trkpt>
      <trkpt lat="56.733131976798177" lon="-6.143273022025824">
        <ele>26.57</ele>
        <time>2023-08-29T14:14:53Z</time>
      </trkpt>
      <trkpt lat="56.733061987906694" lon="-6.14315802231431">
        <ele>27.050000000000001</ele>
        <time>2023-08-29T14:14:54Z</time>
      </trkpt>
      <trkpt lat="56.732995016500354" lon="-6.143034975975752">
        <ele>27.050000000000001</ele>
        <time>2023-08-29T14:14:55Z</time>
      </trkpt>
      <trkpt lat="56.732926033437252" lon="-6.142910001799464">
        <ele>27.050000000000001</ele>
        <time>2023-08-29T14:14:56Z</time>
      </trkpt>
      <trkpt lat="56.73285998404026" lon="-6.142788967117667">
        <ele>27.530000000000001</ele>
        <time>2023-08-29T14:14:57Z</time>
      </trkpt>
      <trkpt lat="56.732713971287012" lon="-6.142502976581454">
        <ele>28.98</ele>
        <time>2023-08-29T14:15:00Z</time>
      </trkpt>
      <trkpt lat="56.732674995437264" lon="-6.142394011840224">
        <ele>29.460000000000001</ele>
        <time>2023-08-29T14:15:01Z</time>
      </trkpt>
      <trkpt lat="56.732626967132092" lon="-6.142251016572118">
        <ele>30.899999999999999</ele>
        <time>2023-08-29T14:15:02Z</time>
      </trkpt>
      <trkpt lat="56.732627972960472" lon="-6.142102992162108">
        <ele>31.859999999999999</ele>
        <time>2023-08-29T14:15:03Z</time>
      </trkpt>
      <trkpt lat="56.732628978788853" lon="-6.141943987458944">
        <ele>32.340000000000003</ele>
        <time>2023-08-29T14:15:04Z</time>
      </trkpt>
      <trkpt lat="56.732630990445614" lon="-6.141779031604528">
        <ele>33.299999999999997</ele>
        <time>2023-08-29T14:15:05Z</time>
      </trkpt>
      <trkpt lat="56.732645994052291" lon="-6.139708030968905">
        <ele>42.439999999999998</ele>
        <time>2023-08-29T14:15:16Z</time>
      </trkpt>
      <trkpt lat="56.732454970479012" lon="-6.137902988120914">
        <ele>46.280000000000001</ele>
        <time>2023-08-29T14:15:26Z</time>
      </trkpt>
      <trkpt lat="56.732305018231273" lon="-6.13707703538239">
        <ele>47.240000000000002</ele>
        <time>2023-08-29T14:15:31Z</time>
      </trkpt>
      <trkpt lat="56.732305018231273" lon="-6.136945020407438">
        <ele>47.719999999999999</ele>
        <time>2023-08-29T14:15:32Z</time>
      </trkpt>
      <trkpt lat="56.732305018231273" lon="-6.1368209682405">
        <ele>48.200000000000003</ele>
        <time>2023-08-29T14:15:33Z</time>
      </trkpt>
      <trkpt lat="56.732312981039286" lon="-6.136722983792424">
        <ele>48.200000000000003</ele>
        <time>2023-08-29T14:15:34Z</time>
      </trkpt>
      <trkpt lat="56.732347011566162" lon="-6.136634973809123">
        <ele>48.200000000000003</ele>
        <time>2023-08-29T14:15:35Z</time>
      </trkpt>
      <trkpt lat="56.732382969930768" lon="-6.136542018502951">
        <ele>48.68</ele>
        <time>2023-08-29T14:15:36Z</time>
      </trkpt>
      <trkpt lat="56.732421023771167" lon="-6.136445039883256">
        <ele>48.68</ele>
        <time>2023-08-29T14:15:37Z</time>
      </trkpt>
      <trkpt lat="56.732454970479012" lon="-6.136358035728335">
        <ele>49.159999999999997</ele>
        <time>2023-08-29T14:15:38Z</time>
      </trkpt>
      <trkpt lat="56.732436027377844" lon="-6.136263990774751">
        <ele>49.159999999999997</ele>
        <time>2023-08-29T14:15:39Z</time>
      </trkpt>
      <trkpt lat="56.732411971315742" lon="-6.136143039911985">
        <ele>49.649999999999999</ele>
        <time>2023-08-29T14:15:40Z</time>
      </trkpt>
      <trkpt lat="56.732354974374175" lon="-6.136060981079936">
        <ele>49.649999999999999</ele>
        <time>2023-08-29T14:15:41Z</time>
      </trkpt>
      <trkpt lat="56.732282973825932" lon="-6.135958973318338">
        <ele>50.130000000000003</ele>
        <time>2023-08-29T14:15:42Z</time>
      </trkpt>
      <trkpt lat="56.732204016298056" lon="-6.135846991091967">
        <ele>51.090000000000003</ele>
        <time>2023-08-29T14:15:43Z</time>
      </trkpt>
      <trkpt lat="56.73212799243629" lon="-6.135738026350737">
        <ele>52.049999999999997</ele>
        <time>2023-08-29T14:15:44Z</time>
      </trkpt>
      <trkpt lat="56.7320859991014" lon="-6.135596036911011">
        <ele>52.530000000000001</ele>
        <time>2023-08-29T14:15:45Z</time>
      </trkpt>
      <trkpt lat="56.732054986059666" lon="-6.135451029986143">
        <ele>53.969999999999999</ele>
        <time>2023-08-29T14:15:46Z</time>
      </trkpt>
      <trkpt lat="56.73202196136117" lon="-6.135300993919373">
        <ele>54.93</ele>
        <time>2023-08-29T14:15:47Z</time>
      </trkpt>
      <trkpt lat="56.731987008824944" lon="-6.135137965902686">
        <ele>55.890000000000001</ele>
        <time>2023-08-29T14:15:48Z</time>
      </trkpt>
      <trkpt lat="56.731843007728457" lon="-6.134475963190198">
        <ele>58.299999999999997</ele>
        <time>2023-08-29T14:15:52Z</time>
      </trkpt>
      <trkpt lat="56.731791961938143" lon="-6.134340008720756">
        <ele>58.780000000000001</ele>
        <time>2023-08-29T14:15:53Z</time>
      </trkpt>
      <trkpt lat="56.731733959168196" lon="-6.134217968210578">
        <ele>59.259999999999998</ele>
        <time>2023-08-29T14:15:54Z</time>
      </trkpt>
      <trkpt lat="56.731553999707103" lon="-6.13374900072813">
        <ele>61.18</ele>
        <time>2023-08-29T14:15:58Z</time>
      </trkpt>
      <trkpt lat="56.73120598308742" lon="-6.132543012499809">
        <ele>62.140000000000001</ele>
        <time>2023-08-29T14:16:06Z</time>
      </trkpt>
      <trkpt lat="56.731148986145854" lon="-6.132413009181619">
        <ele>62.140000000000001</ele>
        <time>2023-08-29T14:16:07Z</time>
      </trkpt>
      <trkpt lat="56.731091989204288" lon="-6.132284011691809">
        <ele>62.140000000000001</ele>
        <time>2023-08-29T14:16:08Z</time>
      </trkpt>
      <trkpt lat="56.731001967564225" lon="-6.132201030850411">
        <ele>61.659999999999997</ele>
        <time>2023-08-29T14:16:09Z</time>
      </trkpt>
      <trkpt lat="56.730914963409305" lon="-6.132135987281799">
        <ele>62.140000000000001</ele>
        <time>2023-08-29T14:16:10Z</time>
      </trkpt>
      <trkpt lat="56.730828965082765" lon="-6.132073039188981">
        <ele>62.140000000000001</ele>
        <time>2023-08-29T14:16:11Z</time>
      </trkpt>
      <trkpt lat="56.730742966756225" lon="-6.132009001448751">
        <ele>62.140000000000001</ele>
        <time>2023-08-29T14:16:12Z</time>
      </trkpt>
      <trkpt lat="56.730587985366583" lon="-6.131895007565618">
        <ele>62.619999999999997</ele>
        <time>2023-08-29T14:16:14Z</time>
      </trkpt>
      <trkpt lat="56.730527970939875" lon="-6.131782019510865">
        <ele>63.100000000000001</ele>
        <time>2023-08-29T14:16:15Z</time>
      </trkpt>
      <trkpt lat="56.730466028675437" lon="-6.131666013970971">
        <ele>63.100000000000001</ele>
        <time>2023-08-29T14:16:16Z</time>
      </trkpt>
      <trkpt lat="56.730316998437047" lon="-6.131483959034085">
        <ele>63.579999999999998</ele>
        <time>2023-08-29T14:16:18Z</time>
      </trkpt>
      <trkpt lat="56.730238040909171" lon="-6.131413970142603">
        <ele>63.579999999999998</ele>
        <time>2023-08-29T14:16:19Z</time>
      </trkpt>
      <trkpt lat="56.730151958763599" lon="-6.131386980414391">
        <ele>63.579999999999998</ele>
        <time>2023-08-29T14:16:20Z</time>
      </trkpt>
      <trkpt lat="56.730060009285808" lon="-6.131368959322572">
        <ele>63.579999999999998</ele>
        <time>2023-08-29T14:16:21Z</time>
      </trkpt>
      <trkpt lat="56.729964036494493" lon="-6.131350016221404">
        <ele>63.579999999999998</ele>
        <time>2023-08-29T14:16:22Z</time>
      </trkpt>
      <trkpt lat="56.729864962399006" lon="-6.131329983472824">
        <ele>63.579999999999998</ele>
        <time>2023-08-29T14:16:23Z</time>
      </trkpt>
      <trkpt lat="56.729539996013045" lon="-6.131387986242771">
        <ele>61.659999999999997</ele>
        <time>2023-08-29T14:16:26Z</time>
      </trkpt>
      <trkpt lat="56.729444023221731" lon="-6.131451018154621">
        <ele>60.700000000000003</ele>
        <time>2023-08-29T14:16:27Z</time>
      </trkpt>
      <trkpt lat="56.729347966611385" lon="-6.131546990945935">
        <ele>59.740000000000002</ele>
        <time>2023-08-29T14:16:28Z</time>
      </trkpt>
      <trkpt lat="56.729247970506549" lon="-6.131646987050772">
        <ele>58.780000000000001</ele>
        <time>2023-08-29T14:16:29Z</time>
      </trkpt>
      <trkpt lat="56.729132970795035" lon="-6.131734997034073">
        <ele>58.299999999999997</ele>
        <time>2023-08-29T14:16:30Z</time>
      </trkpt>
      <trkpt lat="56.728742960840464" lon="-6.132001960650086">
        <ele>59.259999999999998</ele>
        <time>2023-08-29T14:16:34Z</time>
      </trkpt>
      <trkpt lat="56.728627039119601" lon="-6.13200799562037">
        <ele>59.259999999999998</ele>
        <time>2023-08-29T14:16:35Z</time>
      </trkpt>
      <trkpt lat="56.72851799055934" lon="-6.132014030590653">
        <ele>59.259999999999998</ele>
        <time>2023-08-29T14:16:36Z</time>
      </trkpt>
      <trkpt lat="56.72840902581811" lon="-6.132019981741905">
        <ele>59.259999999999998</ele>
        <time>2023-08-29T14:16:37Z</time>
      </trkpt>
      <trkpt lat="56.728311041370034" lon="-6.131987040862441">
        <ele>59.259999999999998</ele>
        <time>2023-08-29T14:16:38Z</time>
      </trkpt>
      <trkpt lat="56.728220013901591" lon="-6.131914034485817">
        <ele>59.740000000000002</ele>
        <time>2023-08-29T14:16:39Z</time>
      </trkpt>
      <trkpt lat="56.728129992261529" lon="-6.131842033937573">
        <ele>60.219999999999999</ele>
        <time>2023-08-29T14:16:40Z</time>
      </trkpt>
      <trkpt lat="56.728038964793086" lon="-6.13177003338933">
        <ele>60.700000000000003</ele>
        <time>2023-08-29T14:16:41Z</time>
      </trkpt>
      <trkpt lat="56.727949026972055" lon="-6.131697027012706">
        <ele>61.18</ele>
        <time>2023-08-29T14:16:42Z</time>
      </trkpt>
      <trkpt lat="56.727639986202121" lon="-6.131450012326241">
        <ele>65.030000000000001</ele>
        <time>2023-08-29T14:16:46Z</time>
      </trkpt>
      <trkpt lat="56.727568991482258" lon="-6.131423022598028">
        <ele>65.989999999999995</ele>
        <time>2023-08-29T14:16:47Z</time>
      </trkpt>
      <trkpt lat="56.727492967620492" lon="-6.131423022598028">
        <ele>66.469999999999999</ele>
        <time>2023-08-29T14:16:48Z</time>
      </trkpt>
      <trkpt lat="56.727414010092616" lon="-6.131423022598028">
        <ele>66.950000000000003</ele>
        <time>2023-08-29T14:16:49Z</time>
      </trkpt>
      <trkpt lat="56.727329017594457" lon="-6.131455963477492">
        <ele>67.430000000000007</ele>
        <time>2023-08-29T14:16:50Z</time>
      </trkpt>
      <trkpt lat="56.727238995954394" lon="-6.131503991782665">
        <ele>67.909999999999997</ele>
        <time>2023-08-29T14:16:51Z</time>
      </trkpt>
      <trkpt lat="56.726395022124052" lon="-6.13215702585876">
        <ele>68.390000000000001</ele>
        <time>2023-08-29T14:16:59Z</time>
      </trkpt>
      <trkpt lat="56.725824968889356" lon="-6.132452990859747">
        <ele>67.430000000000007</ele>
        <time>2023-08-29T14:17:05Z</time>
      </trkpt>
      <trkpt lat="56.725731007754803" lon="-6.132432958111167">
        <ele>67.430000000000007</ele>
        <time>2023-08-29T14:17:06Z</time>
      </trkpt>
      <trkpt lat="56.725309984758496" lon="-6.132345031946898">
        <ele>67.909999999999997</ele>
        <time>2023-08-29T14:17:13Z</time>
      </trkpt>
      <trkpt lat="56.725309984758496" lon="-6.132345031946898">
        <ele>69.349999999999994</ele>
        <time>2023-08-29T14:17:26Z</time>
      </trkpt>
      <trkpt lat="56.725218035280704" lon="-6.132301026955247">
        <ele>69.349999999999994</ele>
        <time>2023-08-29T14:17:32Z</time>
      </trkpt>
      <trkpt lat="56.72516698949039" lon="-6.132275965064764">
        <ele>69.349999999999994</ele>
        <time>2023-08-29T14:17:33Z</time>
      </trkpt>
      <trkpt lat="56.72510202974081" lon="-6.132245035842061">
        <ele>69.349999999999994</ele>
        <time>2023-08-29T14:17:34Z</time>
      </trkpt>
      <trkpt lat="56.724815033376217" lon="-6.132105980068445">
        <ele>69.829999999999998</ele>
        <time>2023-08-29T14:17:38Z</time>
      </trkpt>
      <trkpt lat="56.724726017564535" lon="-6.132061975076795">
        <ele>69.829999999999998</ele>
        <time>2023-08-29T14:17:39Z</time>
      </trkpt>
      <trkpt lat="56.724637001752853" lon="-6.132018975913525">
        <ele>69.829999999999998</ele>
        <time>2023-08-29T14:17:40Z</time>
      </trkpt>
      <trkpt lat="56.724548991769552" lon="-6.132070021703839">
        <ele>69.829999999999998</ele>
        <time>2023-08-29T14:17:41Z</time>
      </trkpt>
      <trkpt lat="56.724484032019973" lon="-6.132155014201999">
        <ele>69.349999999999994</ele>
        <time>2023-08-29T14:17:42Z</time>
      </trkpt>
      <trkpt lat="56.724418988451362" lon="-6.132239000871778">
        <ele>69.349999999999994</ele>
        <time>2023-08-29T14:17:43Z</time>
      </trkpt>
      <trkpt lat="56.724375989288092" lon="-6.132321981713176">
        <ele>69.349999999999994</ele>
        <time>2023-08-29T14:17:44Z</time>
      </trkpt>
      <trkpt lat="56.724338019266725" lon="-6.132462965324521">
        <ele>69.349999999999994</ele>
        <time>2023-08-29T14:17:45Z</time>
      </trkpt>
      <trkpt lat="56.724296025931835" lon="-6.132619958370924">
        <ele>69.349999999999994</ele>
        <time>2023-08-29T14:17:46Z</time>
      </trkpt>
      <trkpt lat="56.724252020940185" lon="-6.13278298638761">
        <ele>69.829999999999998</ele>
        <time>2023-08-29T14:17:47Z</time>
      </trkpt>
      <trkpt lat="56.723973993211985" lon="-6.133585972711444">
        <ele>70.790000000000006</ele>
        <time>2023-08-29T14:17:52Z</time>
      </trkpt>
      <trkpt lat="56.723729996010661" lon="-6.134145967662334">
        <ele>71.269999999999996</ele>
        <time>2023-08-29T14:17:56Z</time>
      </trkpt>
      <trkpt lat="56.723661012947559" lon="-6.134214028716087">
        <ele>71.269999999999996</ele>
        <time>2023-08-29T14:17:57Z</time>
      </trkpt>
      <trkpt lat="56.723593035712838" lon="-6.134255016222596">
        <ele>71.269999999999996</ele>
        <time>2023-08-29T14:17:58Z</time>
      </trkpt>
      <trkpt lat="56.723522040992975" lon="-6.134298015385866">
        <ele>71.760000000000005</ele>
        <time>2023-08-29T14:17:59Z</time>
      </trkpt>
      <trkpt lat="56.723438976332545" lon="-6.134322993457317">
        <ele>71.760000000000005</ele>
        <time>2023-08-29T14:18:00Z</time>
      </trkpt>
      <trkpt lat="56.722474973648787" lon="-6.134259039536119">
        <ele>73.200000000000003</ele>
        <time>2023-08-29T14:18:09Z</time>
      </trkpt>
      <trkpt lat="56.721715992316604" lon="-6.133901970461011">
        <ele>76.560000000000002</ele>
        <time>2023-08-29T14:18:16Z</time>
      </trkpt>
      <trkpt lat="56.72162395901978" lon="-6.133816977962852">
        <ele>77.040000000000006</ele>
        <time>2023-08-29T14:18:17Z</time>
      </trkpt>
      <trkpt lat="56.721057007089257" lon="-6.133326971903443">
        <ele>75.120000000000005</ele>
        <time>2023-08-29T14:18:23Z</time>
      </trkpt>
      <trkpt lat="56.720976959913969" lon="-6.13331800326705">
        <ele>74.640000000000001</ele>
        <time>2023-08-29T14:18:24Z</time>
      </trkpt>
      <trkpt lat="56.720910994336009" lon="-6.133310962468386">
        <ele>74.640000000000001</ele>
        <time>2023-08-29T14:18:25Z</time>
      </trkpt>
      <trkpt lat="56.720822984352708" lon="-6.133387992158532">
        <ele>74.159999999999997</ele>
        <time>2023-08-29T14:18:26Z</time>
      </trkpt>
      <trkpt lat="56.720731034874916" lon="-6.133468961343169">
        <ele>73.680000000000007</ele>
        <time>2023-08-29T14:18:27Z</time>
      </trkpt>
      <trkpt lat="56.720618968829513" lon="-6.133567029610276">
        <ele>72.719999999999999</ele>
        <time>2023-08-29T14:18:28Z</time>
      </trkpt>
      <trkpt lat="56.719615990296006" lon="-6.13441301509738">
        <ele>68.870000000000005</ele>
        <time>2023-08-29T14:18:36Z</time>
      </trkpt>
      <trkpt lat="56.719434019178152" lon="-6.134444028139114">
        <ele>68.390000000000001</ele>
        <time>2023-08-29T14:18:38Z</time>
      </trkpt>
      <trkpt lat="56.719334023073316" lon="-6.134460037574172">
        <ele>67.909999999999997</ele>
        <time>2023-08-29T14:18:39Z</time>
      </trkpt>
      <trkpt lat="56.719222962856293" lon="-6.134441010653973">
        <ele>67.430000000000007</ele>
        <time>2023-08-29T14:18:40Z</time>
      </trkpt>
      <trkpt lat="56.719105029478669" lon="-6.134382002055645">
        <ele>66.469999999999999</ele>
        <time>2023-08-29T14:18:41Z</time>
      </trkpt>
      <trkpt lat="56.718976031988859" lon="-6.134317964315414">
        <ele>65.989999999999995</ele>
        <time>2023-08-29T14:18:42Z</time>
      </trkpt>
      <trkpt lat="56.718843011185527" lon="-6.134250992909074">
        <ele>65.989999999999995</ele>
        <time>2023-08-29T14:18:43Z</time>
      </trkpt>
      <trkpt lat="56.718157958239317" lon="-6.133836004883051">
        <ele>65.510000000000005</ele>
        <time>2023-08-29T14:18:49Z</time>
      </trkpt>
      <trkpt lat="56.718060979619622" lon="-6.133733997121453">
        <ele>65.030000000000001</ele>
        <time>2023-08-29T14:18:50Z</time>
      </trkpt>
      <trkpt lat="56.717874985188246" lon="-6.133540039882064">
        <ele>65.030000000000001</ele>
        <time>2023-08-29T14:18:52Z</time>
      </trkpt>
      <trkpt lat="56.71777599491179" lon="-6.133458986878395">
        <ele>64.549999999999997</ele>
        <time>2023-08-29T14:18:53Z</time>
      </trkpt>
      <trkpt lat="56.717679016292095" lon="-6.133452029898763">
        <ele>64.549999999999997</ele>
        <time>2023-08-29T14:18:54Z</time>
      </trkpt>
      <trkpt lat="56.717579020187259" lon="-6.133442977443337">
        <ele>65.030000000000001</ele>
        <time>2023-08-29T14:18:55Z</time>
      </trkpt>
      <trkpt lat="56.717469971626997" lon="-6.133435014635325">
        <ele>65.030000000000001</ele>
        <time>2023-08-29T14:18:56Z</time>
      </trkpt>
      <trkpt lat="56.717350026592612" lon="-6.13342504017055">
        <ele>65.030000000000001</ele>
        <time>2023-08-29T14:18:57Z</time>
      </trkpt>
      <trkpt lat="56.716483002528548" lon="-6.133354967460036">
        <ele>65.510000000000005</ele>
        <time>2023-08-29T14:19:04Z</time>
      </trkpt>
      <trkpt lat="56.716407984495163" lon="-6.133302999660373">
        <ele>65.510000000000005</ele>
        <time>2023-08-29T14:19:05Z</time>
      </trkpt>
      <trkpt lat="56.716329026967287" lon="-6.133237034082413">
        <ele>65.030000000000001</ele>
        <time>2023-08-29T14:19:06Z</time>
      </trkpt>
      <trkpt lat="56.716146972030401" lon="-6.133084986358881">
        <ele>64.549999999999997</ele>
        <time>2023-08-29T14:19:08Z</time>
      </trkpt>
      <trkpt lat="56.71594999730587" lon="-6.132921036332846">
        <ele>63.100000000000001</ele>
        <time>2023-08-29T14:19:10Z</time>
      </trkpt>
      <trkpt lat="56.715854024514556" lon="-6.132841994985938">
        <ele>62.619999999999997</ele>
        <time>2023-08-29T14:19:11Z</time>
      </trkpt>
      <trkpt lat="56.715790992602706" lon="-6.132703023031354">
        <ele>62.140000000000001</ele>
        <time>2023-08-29T14:19:12Z</time>
      </trkpt>
      <trkpt lat="56.715745981782675" lon="-6.132552986964583">
        <ele>61.659999999999997</ele>
        <time>2023-08-29T14:19:13Z</time>
      </trkpt>
      <trkpt lat="56.715699965134263" lon="-6.132400017231703">
        <ele>61.18</ele>
        <time>2023-08-29T14:19:14Z</time>
      </trkpt>
      <trkpt lat="56.715654032304883" lon="-6.132246041670442">
        <ele>61.18</ele>
        <time>2023-08-29T14:19:15Z</time>
      </trkpt>
      <trkpt lat="56.715604998171329" lon="-6.13211402669549">
        <ele>60.700000000000003</ele>
        <time>2023-08-29T14:19:16Z</time>
      </trkpt>
      <trkpt lat="56.715554036200047" lon="-6.132001960650086">
        <ele>60.700000000000003</ele>
        <time>2023-08-29T14:19:17Z</time>
      </trkpt>
      <trkpt lat="56.715484969317913" lon="-6.131898025050759">
        <ele>60.219999999999999</ele>
        <time>2023-08-29T14:19:18Z</time>
      </trkpt>
      <trkpt lat="56.715397965162992" lon="-6.131811020895839">
        <ele>59.740000000000002</ele>
        <time>2023-08-29T14:19:19Z</time>
      </trkpt>
      <trkpt lat="56.715292017906904" lon="-6.131751006469131">
        <ele>58.780000000000001</ele>
        <time>2023-08-29T14:19:20Z</time>
      </trkpt>
      <trkpt lat="56.714974008500576" lon="-6.131576998159289">
        <ele>55.890000000000001</ele>
        <time>2023-08-29T14:19:23Z</time>
      </trkpt>
      <trkpt lat="56.714864959940314" lon="-6.131566017866135">
        <ele>54.93</ele>
        <time>2023-08-29T14:19:24Z</time>
      </trkpt>
      <trkpt lat="56.714764963835478" lon="-6.131559982895851">
        <ele>54.450000000000003</ele>
        <time>2023-08-29T14:19:25Z</time>
      </trkpt>
      <trkpt lat="56.714675026014447" lon="-6.131554031744599">
        <ele>53.490000000000002</ele>
        <time>2023-08-29T14:19:26Z</time>
      </trkpt>
      <trkpt lat="56.714602019637823" lon="-6.131515977904201">
        <ele>53.490000000000002</ele>
        <time>2023-08-29T14:19:27Z</time>
      </trkpt>
      <trkpt lat="56.71453102491796" lon="-6.131456969305873">
        <ele>53.490000000000002</ele>
        <time>2023-08-29T14:19:28Z</time>
      </trkpt>
      <trkpt lat="56.714453995227814" lon="-6.131393015384674">
        <ele>53.009999999999998</ele>
        <time>2023-08-29T14:19:29Z</time>
      </trkpt>
      <trkpt lat="56.713940016925335" lon="-6.130967969074845">
        <ele>53.969999999999999</ele>
        <time>2023-08-29T14:19:35Z</time>
      </trkpt>
      <trkpt lat="56.713863993063569" lon="-6.130928993225098">
        <ele>53.969999999999999</ele>
        <time>2023-08-29T14:19:36Z</time>
      </trkpt>
      <trkpt lat="56.713783023878932" lon="-6.130928993225098">
        <ele>54.450000000000003</ele>
        <time>2023-08-29T14:19:37Z</time>
      </trkpt>
      <trkpt lat="56.713602980598807" lon="-6.130928993225098">
        <ele>54.93</ele>
        <time>2023-08-29T14:19:39Z</time>
      </trkpt>
      <trkpt lat="56.713506001979113" lon="-6.130928993225098">
        <ele>54.93</ele>
        <time>2023-08-29T14:19:40Z</time>
      </trkpt>
      <trkpt lat="56.713409023359418" lon="-6.130886999890208">
        <ele>54.93</ele>
        <time>2023-08-29T14:19:41Z</time>
      </trkpt>
      <trkpt lat="56.71332998201251" lon="-6.130790021270514">
        <ele>55.409999999999997</ele>
        <time>2023-08-29T14:19:42Z</time>
      </trkpt>
      <trkpt lat="56.713254963979125" lon="-6.130696982145309">
        <ele>55.890000000000001</ele>
        <time>2023-08-29T14:19:43Z</time>
      </trkpt>
      <trkpt lat="56.713165026158094" lon="-6.130586005747318">
        <ele>55.890000000000001</ele>
        <time>2023-08-29T14:19:44Z</time>
      </trkpt>
      <trkpt lat="56.71311498619616" lon="-6.13043999299407">
        <ele>56.369999999999997</ele>
        <time>2023-08-29T14:19:45Z</time>
      </trkpt>
      <trkpt lat="56.712914993986487" lon="-6.129856025800109">
        <ele>55.890000000000001</ele>
        <time>2023-08-29T14:19:49Z</time>
      </trkpt>
      <trkpt lat="56.712864032015204" lon="-6.129705989733338">
        <ele>56.369999999999997</ele>
        <time>2023-08-29T14:19:50Z</time>
      </trkpt>
      <trkpt lat="56.712379977107048" lon="-6.128973998129368">
        <ele>56.369999999999997</ele>
        <time>2023-08-29T14:19:58Z</time>
      </trkpt>
      <trkpt lat="56.712218038737774" lon="-6.128730000928044">
        <ele>55.890000000000001</ele>
        <time>2023-08-29T14:20:02Z</time>
      </trkpt>
      <trkpt lat="56.711820987984538" lon="-6.128151984885335">
        <ele>55.409999999999997</ele>
        <time>2023-08-29T14:20:09Z</time>
      </trkpt>
      <trkpt lat="56.71173800714314" lon="-6.128078978508711">
        <ele>55.409999999999997</ele>
        <time>2023-08-29T14:20:10Z</time>
      </trkpt>
      <trkpt lat="56.711643040180206" lon="-6.128016030415893">
        <ele>55.409999999999997</ele>
        <time>2023-08-29T14:20:11Z</time>
      </trkpt>
      <trkpt lat="56.71154597774148" lon="-6.127977976575494">
        <ele>55.890000000000001</ele>
        <time>2023-08-29T14:20:12Z</time>
      </trkpt>
      <trkpt lat="56.711447993293405" lon="-6.127939000725746">
        <ele>56.369999999999997</ele>
        <time>2023-08-29T14:20:13Z</time>
      </trkpt>
      <trkpt lat="56.710424982011318" lon="-6.127459974959493">
        <ele>59.740000000000002</ele>
        <time>2023-08-29T14:20:23Z</time>
      </trkpt>
      <trkpt lat="56.709110029041767" lon="-6.126389019191265">
        <ele>57.340000000000003</ele>
        <time>2023-08-29T14:20:35Z</time>
      </trkpt>
      <trkpt lat="56.707734977826476" lon="-6.125021008774638">
        <ele>47.240000000000002</ele>
        <time>2023-08-29T14:20:47Z</time>
      </trkpt>
      <trkpt lat="56.706663016229868" lon="-6.123933959752321">
        <ele>41.469999999999999</ele>
        <time>2023-08-29T14:20:57Z</time>
      </trkpt>
      <trkpt lat="56.706437040120363" lon="-6.123790964484215">
        <ele>41.950000000000003</ele>
        <time>2023-08-29T14:21:00Z</time>
      </trkpt>
      <trkpt lat="56.706362022086978" lon="-6.123744025826454">
        <ele>41.469999999999999</ele>
        <time>2023-08-29T14:21:01Z</time>
      </trkpt>
      <trkpt lat="56.706283986568451" lon="-6.123694991692901">
        <ele>41.469999999999999</ele>
        <time>2023-08-29T14:21:02Z</time>
      </trkpt>
      <trkpt lat="56.706116013228893" lon="-6.123588960617781">
        <ele>40.030000000000001</ele>
        <time>2023-08-29T14:21:04Z</time>
      </trkpt>
      <trkpt lat="56.706028003245592" lon="-6.123532969504595">
        <ele>39.07</ele>
        <time>2023-08-29T14:21:05Z</time>
      </trkpt>
      <trkpt lat="56.705880984663963" lon="-6.123440014198422">
        <ele>37.149999999999999</ele>
        <time>2023-08-29T14:21:07Z</time>
      </trkpt>
      <trkpt lat="56.705815019086003" lon="-6.12343498505652">
        <ele>36.670000000000002</ele>
        <time>2023-08-29T14:21:08Z</time>
      </trkpt>
      <trkpt lat="56.705761961638927" lon="-6.123461974784732">
        <ele>35.710000000000001</ele>
        <time>2023-08-29T14:21:09Z</time>
      </trkpt>
      <trkpt lat="56.705719968304038" lon="-6.123553002253175">
        <ele>34.740000000000002</ele>
        <time>2023-08-29T14:21:10Z</time>
      </trkpt>
      <trkpt lat="56.705677974969149" lon="-6.123645035549998">
        <ele>34.259999999999998</ele>
        <time>2023-08-29T14:21:11Z</time>
      </trkpt>
      <trkpt lat="56.705641010776162" lon="-6.123752994462848">
        <ele>33.299999999999997</ele>
        <time>2023-08-29T14:21:12Z</time>
      </trkpt>
      <trkpt lat="56.705612009391189" lon="-6.123878974467516">
        <ele>33.299999999999997</ele>
        <time>2023-08-29T14:21:13Z</time>
      </trkpt>
      <trkpt lat="56.705310009419918" lon="-6.125247990712524">
        <ele>28.5</ele>
        <time>2023-08-29T14:21:21Z</time>
      </trkpt>
      <trkpt lat="56.705188974738121" lon="-6.125931032001972">
        <ele>25.609999999999999</ele>
        <time>2023-08-29T14:21:26Z</time>
      </trkpt>
      <trkpt lat="56.705174976959825" lon="-6.126006972044706">
        <ele>25.129999999999999</ele>
        <time>2023-08-29T14:21:27Z</time>
      </trkpt>
      <trkpt lat="56.70516399666667" lon="-6.126067992299795">
        <ele>24.170000000000002</ele>
        <time>2023-08-29T14:21:28Z</time>
      </trkpt>
      <trkpt lat="56.70505796559155" lon="-6.126127000898123">
        <ele>23.690000000000001</ele>
        <time>2023-08-29T14:21:29Z</time>
      </trkpt>
      <trkpt lat="56.705010021105409" lon="-6.12607897259295">
        <ele>22.73</ele>
        <time>2023-08-29T14:21:30Z</time>
      </trkpt>
      <trkpt lat="56.704947995021939" lon="-6.126017030328512">
        <ele>22.25</ele>
        <time>2023-08-29T14:21:31Z</time>
      </trkpt>
      <trkpt lat="56.704874988645315" lon="-6.125944023951888">
        <ele>21.77</ele>
        <time>2023-08-29T14:21:32Z</time>
      </trkpt>
      <trkpt lat="56.704789996147156" lon="-6.125860037282109">
        <ele>21.77</ele>
        <time>2023-08-29T14:21:33Z</time>
      </trkpt>
      <trkpt lat="56.704698968678713" lon="-6.12575501203537">
        <ele>21.77</ele>
        <time>2023-08-29T14:21:34Z</time>
      </trkpt>
      <trkpt lat="56.704625962302089" lon="-6.125597013160586">
        <ele>21.77</ele>
        <time>2023-08-29T14:21:35Z</time>
      </trkpt>
      <trkpt lat="56.704552033916116" lon="-6.125435996800661">
        <ele>21.77</ele>
        <time>2023-08-29T14:21:36Z</time>
      </trkpt>
      <trkpt lat="56.704481039196253" lon="-6.1252820212394">
        <ele>22.25</ele>
        <time>2023-08-29T14:21:37Z</time>
      </trkpt>
      <trkpt lat="56.704414989799261" lon="-6.125122010707855">
        <ele>22.25</ele>
        <time>2023-08-29T14:21:38Z</time>
      </trkpt>
      <trkpt lat="56.704354975372553" lon="-6.124963006004691">
        <ele>21.77</ele>
        <time>2023-08-29T14:21:39Z</time>
      </trkpt>
      <trkpt lat="56.704241987317801" lon="-6.124665029346943">
        <ele>21.77</ele>
        <time>2023-08-29T14:21:42Z</time>
      </trkpt>
      <trkpt lat="56.704096980392933" lon="-6.124431006610394">
        <ele>21.77</ele>
        <time>2023-08-29T14:21:43Z</time>
      </trkpt>
      <trkpt lat="56.703754998743534" lon="-6.123949969187379">
        <ele>23.690000000000001</ele>
        <time>2023-08-29T14:21:48Z</time>
      </trkpt>
      <trkpt lat="56.703685009852052" lon="-6.123850978910923">
        <ele>24.170000000000002</ele>
        <time>2023-08-29T14:21:49Z</time>
      </trkpt>
      <trkpt lat="56.70361602678895" lon="-6.123727010563016">
        <ele>24.649999999999999</ele>
        <time>2023-08-29T14:21:50Z</time>
      </trkpt>
      <trkpt lat="56.703557018190622" lon="-6.123573035001755">
        <ele>25.129999999999999</ele>
        <time>2023-08-29T14:21:51Z</time>
      </trkpt>
      <trkpt lat="56.703494992107153" lon="-6.123409001156688">
        <ele>25.609999999999999</ele>
        <time>2023-08-29T14:21:52Z</time>
      </trkpt>
      <trkpt lat="56.702867019921541" lon="-6.12158702686429">
        <ele>28.02</ele>
        <time>2023-08-29T14:22:02Z</time>
      </trkpt>
      <trkpt lat="56.702655963599682" lon="-6.120907003059983">
        <ele>26.57</ele>
        <time>2023-08-29T14:22:08Z</time>
      </trkpt>
      <trkpt lat="56.702613970264792" lon="-6.120833996683359">
        <ele>25.129999999999999</ele>
        <time>2023-08-29T14:22:21Z</time>
      </trkpt>
      <trkpt lat="56.702562002465129" lon="-6.120741963386536">
        <ele>24.649999999999999</ele>
        <time>2023-08-29T14:22:23Z</time>
      </trkpt>
      <trkpt lat="56.702519003301859" lon="-6.120665017515421">
        <ele>24.170000000000002</ele>
        <time>2023-08-29T14:22:24Z</time>
      </trkpt>
      <trkpt lat="56.70241397805512" lon="-6.120480028912425">
        <ele>23.690000000000001</ele>
        <time>2023-08-29T14:22:26Z</time>
      </trkpt>
      <trkpt lat="56.70232797972858" lon="-6.120328987017274">
        <ele>23.210000000000001</ele>
        <time>2023-08-29T14:22:27Z</time>
      </trkpt>
      <trkpt lat="56.702266037464142" lon="-6.120279030874372">
        <ele>23.210000000000001</ele>
        <time>2023-08-29T14:22:28Z</time>
      </trkpt>
      <trkpt lat="56.70217702165246" lon="-6.120209963992238">
        <ele>23.210000000000001</ele>
        <time>2023-08-29T14:22:29Z</time>
      </trkpt>
      <trkpt lat="56.702087000012398" lon="-6.120138969272375">
        <ele>23.210000000000001</ele>
        <time>2023-08-29T14:22:30Z</time>
      </trkpt>
      <trkpt lat="56.701471013948321" lon="-6.119616022333503">
        <ele>22.73</ele>
        <time>2023-08-29T14:22:37Z</time>
      </trkpt>
      <trkpt lat="56.70140597037971" lon="-6.119506973773241">
        <ele>22.73</ele>
        <time>2023-08-29T14:22:38Z</time>
      </trkpt>
      <trkpt lat="56.700713038444519" lon="-6.118170982226729">
        <ele>22.73</ele>
        <time>2023-08-29T14:22:48Z</time>
      </trkpt>
      <trkpt lat="56.699883984401822" lon="-6.116381026804447">
        <ele>19.359999999999999</ele>
        <time>2023-08-29T14:23:01Z</time>
      </trkpt>
      <trkpt lat="56.699483999982476" lon="-6.115311998873949">
        <ele>18.879999999999999</ele>
        <time>2023-08-29T14:23:08Z</time>
      </trkpt>
      <trkpt lat="56.699399007484317" lon="-6.115213008597493">
        <ele>18.879999999999999</ele>
        <time>2023-08-29T14:23:09Z</time>
      </trkpt>
      <trkpt lat="56.699310997501016" lon="-6.115111000835896">
        <ele>18.399999999999999</ele>
        <time>2023-08-29T14:23:10Z</time>
      </trkpt>
      <trkpt lat="56.69876198284328" lon="-6.114472970366478">
        <ele>16</ele>
        <time>2023-08-29T14:23:16Z</time>
      </trkpt>
      <trkpt lat="56.698685958981514" lon="-6.114350007846952">
        <ele>15.52</ele>
        <time>2023-08-29T14:23:17Z</time>
      </trkpt>
      <trkpt lat="56.698622005060315" lon="-6.114212963730097">
        <ele>15.52</ele>
        <time>2023-08-29T14:23:18Z</time>
      </trkpt>
      <trkpt lat="56.698385970667005" lon="-6.113716000691056">
        <ele>15.52</ele>
        <time>2023-08-29T14:23:22Z</time>
      </trkpt>
      <trkpt lat="56.698327967897058" lon="-6.113602006807923">
        <ele>15.52</ele>
        <time>2023-08-29T14:23:23Z</time>
      </trkpt>
      <trkpt lat="56.698250016197562" lon="-6.113516008481383">
        <ele>15.039999999999999</ele>
        <time>2023-08-29T14:23:24Z</time>
      </trkpt>
      <trkpt lat="56.698179021477699" lon="-6.113437972962856">
        <ele>15.039999999999999</ele>
        <time>2023-08-29T14:23:25Z</time>
      </trkpt>
      <trkpt lat="56.69811699539423" lon="-6.113368989899755">
        <ele>14.56</ele>
        <time>2023-08-29T14:23:26Z</time>
      </trkpt>
      <trkpt lat="56.697929995134473" lon="-6.113162040710449">
        <ele>11.19</ele>
        <time>2023-08-29T14:23:30Z</time>
      </trkpt>
      <trkpt lat="56.697912979871035" lon="-6.113103032112122">
        <ele>10.710000000000001</ele>
        <time>2023-08-29T14:23:31Z</time>
      </trkpt>
      <trkpt lat="56.697865035384893" lon="-6.112926006317139">
        <ele>10.23</ele>
        <time>2023-08-29T14:23:32Z</time>
      </trkpt>
      <trkpt lat="56.697802003473043" lon="-6.111422963440418">
        <ele>6.39</ele>
        <time>2023-08-29T14:23:40Z</time>
      </trkpt>
      <trkpt lat="56.697631012648344" lon="-6.10889095813036">
        <ele>3.98</ele>
        <time>2023-08-29T14:23:50Z</time>
      </trkpt>
      <trkpt lat="56.697596982121468" lon="-6.107668960466981">
        <ele>4.46</ele>
        <time>2023-08-29T14:23:56Z</time>
      </trkpt>
      <trkpt lat="56.697610979899764" lon="-6.107467962428927">
        <ele>4.94</ele>
        <time>2023-08-29T14:23:57Z</time>
      </trkpt>
      <trkpt lat="56.697764033451676" lon="-6.105439960956574">
        <ele>7.35</ele>
        <time>2023-08-29T14:24:07Z</time>
      </trkpt>
      <trkpt lat="56.697849025949836" lon="-6.104478975757957">
        <ele>8.789999999999999</ele>
        <time>2023-08-29T14:24:14Z</time>
      </trkpt>
      <trkpt lat="56.697862017899752" lon="-6.104357019066811">
        <ele>8.789999999999999</ele>
        <time>2023-08-29T14:24:15Z</time>
      </trkpt>
      <trkpt lat="56.697943992912769" lon="-6.103626033291221">
        <ele>10.23</ele>
        <time>2023-08-29T14:24:21Z</time>
      </trkpt>
      <trkpt lat="56.697951033711433" lon="-6.103504998609424">
        <ele>10.710000000000001</ele>
        <time>2023-08-29T14:24:22Z</time>
      </trkpt>
      <trkpt lat="56.697951033711433" lon="-6.103402990847826">
        <ele>10.710000000000001</ele>
        <time>2023-08-29T14:24:23Z</time>
      </trkpt>
      <trkpt lat="56.69792303815484" lon="-6.103294026106596">
        <ele>10.710000000000001</ele>
        <time>2023-08-29T14:24:24Z</time>
      </trkpt>
      <trkpt lat="56.697880961000919" lon="-6.103232000023127">
        <ele>11.67</ele>
        <time>2023-08-29T14:24:26Z</time>
      </trkpt>
      <trkpt lat="56.697734026238322" lon="-6.103014992550015">
        <ele>12.15</ele>
        <time>2023-08-29T14:24:28Z</time>
      </trkpt>
      <trkpt lat="56.697570998221636" lon="-6.10274501144886">
        <ele>13.119999999999999</ele>
        <time>2023-08-29T14:24:31Z</time>
      </trkpt>
      <trkpt lat="56.697533028200269" lon="-6.102618025615811">
        <ele>13.119999999999999</ele>
        <time>2023-08-29T14:24:32Z</time>
      </trkpt>
      <trkpt lat="56.697281990200281" lon="-6.101737003773451">
        <ele>14.08</ele>
        <time>2023-08-29T14:24:38Z</time>
      </trkpt>
      <trkpt lat="56.697243014350533" lon="-6.101596020162106">
        <ele>14.56</ele>
        <time>2023-08-29T14:24:39Z</time>
      </trkpt>
      <trkpt lat="56.697186017408967" lon="-6.101470040157437">
        <ele>14.56</ele>
        <time>2023-08-29T14:24:40Z</time>
      </trkpt>
      <trkpt lat="56.697132037952542" lon="-6.10134900547564">
        <ele>15.039999999999999</ele>
        <time>2023-08-29T14:24:41Z</time>
      </trkpt>
      <trkpt lat="56.697076968848705" lon="-6.101226964965463">
        <ele>15.039999999999999</ele>
        <time>2023-08-29T14:24:42Z</time>
      </trkpt>
      <trkpt lat="56.6970219835639" lon="-6.101104002445936">
        <ele>15.039999999999999</ele>
        <time>2023-08-29T14:24:43Z</time>
      </trkpt>
      <trkpt lat="56.696965992450714" lon="-6.100979028269649">
        <ele>15.039999999999999</ele>
        <time>2023-08-29T14:24:44Z</time>
      </trkpt>
      <trkpt lat="56.69689298607409" lon="-6.100881965830922">
        <ele>15.039999999999999</ele>
        <time>2023-08-29T14:24:45Z</time>
      </trkpt>
      <trkpt lat="56.696816040202975" lon="-6.100781969726086">
        <ele>15.52</ele>
        <time>2023-08-29T14:24:46Z</time>
      </trkpt>
      <trkpt lat="56.696087988093495" lon="-6.100159026682377">
        <ele>14.56</ele>
        <time>2023-08-29T14:24:56Z</time>
      </trkpt>
      <trkpt lat="56.696037026122212" lon="-6.100118039175868">
        <ele>14.56</ele>
        <time>2023-08-29T14:24:57Z</time>
      </trkpt>
      <trkpt lat="56.696005007252097" lon="-6.100091971457005">
        <ele>14.56</ele>
        <time>2023-08-29T14:24:58Z</time>
      </trkpt>
      <trkpt lat="56.695906016975641" lon="-6.100007984787226">
        <ele>14.08</ele>
        <time>2023-08-29T14:25:05Z</time>
      </trkpt>
      <trkpt lat="56.695336969569325" lon="-6.099416976794601">
        <ele>13.119999999999999</ele>
        <time>2023-08-29T14:25:12Z</time>
      </trkpt>
      <trkpt lat="56.695242002606392" lon="-6.099302982911468">
        <ele>13.6</ele>
        <time>2023-08-29T14:25:13Z</time>
      </trkpt>
      <trkpt lat="56.695166984573007" lon="-6.099167028442025">
        <ele>13.6</ele>
        <time>2023-08-29T14:25:14Z</time>
      </trkpt>
      <trkpt lat="56.695102024823427" lon="-6.099009029567242">
        <ele>14.08</ele>
        <time>2023-08-29T14:25:15Z</time>
      </trkpt>
      <trkpt lat="56.69414296746254" lon="-6.096783969551325">
        <ele>15.039999999999999</ele>
        <time>2023-08-29T14:25:29Z</time>
      </trkpt>
      <trkpt lat="56.693307962268591" lon="-6.095393998548389">
        <ele>16.960000000000001</ele>
        <time>2023-08-29T14:25:40Z</time>
      </trkpt>
      <trkpt lat="56.69322095811367" lon="-6.095286039635539">
        <ele>16.960000000000001</ele>
        <time>2023-08-29T14:25:41Z</time>
      </trkpt>
      <trkpt lat="56.693120962008834" lon="-6.09520398080349">
        <ele>16.960000000000001</ele>
        <time>2023-08-29T14:25:42Z</time>
      </trkpt>
      <trkpt lat="56.692002983763814" lon="-6.094506019726396">
        <ele>16</ele>
        <time>2023-08-29T14:25:54Z</time>
      </trkpt>
      <trkpt lat="56.691644992679358" lon="-6.09428096562624">
        <ele>15.039999999999999</ele>
        <time>2023-08-29T14:25:58Z</time>
      </trkpt>
      <trkpt lat="56.691552037373185" lon="-6.094298986718059">
        <ele>14.56</ele>
        <time>2023-08-29T14:25:59Z</time>
      </trkpt>
      <trkpt lat="56.691466961055994" lon="-6.094318013638258">
        <ele>14.08</ele>
        <time>2023-08-29T14:26:00Z</time>
      </trkpt>
      <trkpt lat="56.691394038498402" lon="-6.094385990872979">
        <ele>14.08</ele>
        <time>2023-08-29T14:26:01Z</time>
      </trkpt>
      <trkpt lat="56.691321032121778" lon="-6.094470983371139">
        <ele>13.6</ele>
        <time>2023-08-29T14:26:02Z</time>
      </trkpt>
      <trkpt lat="56.691245008260012" lon="-6.09455899335444">
        <ele>13.119999999999999</ele>
        <time>2023-08-29T14:26:03Z</time>
      </trkpt>
      <trkpt lat="56.691168984398246" lon="-6.094647003337741">
        <ele>13.119999999999999</ele>
        <time>2023-08-29T14:26:04Z</time>
      </trkpt>
      <trkpt lat="56.690950971096754" lon="-6.094950009137392">
        <ele>13.6</ele>
        <time>2023-08-29T14:26:07Z</time>
      </trkpt>
      <trkpt lat="56.690678978338838" lon="-6.095420988276601">
        <ele>12.630000000000001</ele>
        <time>2023-08-29T14:26:11Z</time>
      </trkpt>
      <trkpt lat="56.690615024417639" lon="-6.095530958846211">
        <ele>12.15</ele>
        <time>2023-08-29T14:26:12Z</time>
      </trkpt>
      <trkpt lat="56.690075984224677" lon="-6.096124984323978">
        <ele>8.789999999999999</ele>
        <time>2023-08-29T14:26:19Z</time>
      </trkpt>
      <trkpt lat="56.690028039738536" lon="-6.096149040386081">
        <ele>8.310000000000001</ele>
        <time>2023-08-29T14:26:20Z</time>
      </trkpt>
      <trkpt lat="56.689711036160588" lon="-6.096189022064209">
        <ele>6.39</ele>
        <time>2023-08-29T14:26:24Z</time>
      </trkpt>
      <trkpt lat="56.689621014520526" lon="-6.096153985708952">
        <ele>6.39</ele>
        <time>2023-08-29T14:26:25Z</time>
      </trkpt>
      <trkpt lat="56.689194040372968" lon="-6.095959022641182">
        <ele>4.46</ele>
        <time>2023-08-29T14:26:30Z</time>
      </trkpt>
      <trkpt lat="56.689127990975976" lon="-6.095856009051204">
        <ele>3.98</ele>
        <time>2023-08-29T14:26:31Z</time>
      </trkpt>
      <trkpt lat="56.689064037054777" lon="-6.095756012946367">
        <ele>3.98</ele>
        <time>2023-08-29T14:26:32Z</time>
      </trkpt>
      <trkpt lat="56.68876999989152" lon="-6.095235999673605">
        <ele>3.02</ele>
        <time>2023-08-29T14:26:40Z</time>
      </trkpt>
      <trkpt lat="56.688754996284842" lon="-6.09520398080349">
        <ele>2.54</ele>
        <time>2023-08-29T14:26:51Z</time>
      </trkpt>
      <trkpt lat="56.688739992678165" lon="-6.095171961933374">
        <ele>2.54</ele>
        <time>2023-08-29T14:27:19Z</time>
      </trkpt>
      <trkpt lat="56.688716020435095" lon="-6.09513801522553">
        <ele>3.02</ele>
        <time>2023-08-29T14:27:20Z</time>
      </trkpt>
      <trkpt lat="56.68868400156498" lon="-6.09513801522553">
        <ele>3.02</ele>
        <time>2023-08-29T14:27:21Z</time>
      </trkpt>
      <trkpt lat="56.688723983243108" lon="-6.09513801522553">
        <ele>3.5</ele>
        <time>2023-08-29T14:27:23Z</time>
      </trkpt>
      <trkpt lat="56.688732029870152" lon="-6.095154024660587">
        <ele>3.5</ele>
        <time>2023-08-29T14:27:24Z</time>
      </trkpt>
      <trkpt lat="56.688754996284842" lon="-6.09520398080349">
        <ele>3.5</ele>
        <time>2023-08-29T14:27:25Z</time>
      </trkpt>
      <trkpt lat="56.688786009326577" lon="-6.095270030200481">
        <ele>3.5</ele>
        <time>2023-08-29T14:27:26Z</time>
      </trkpt>
      <trkpt lat="56.689080968499184" lon="-6.095781996846199">
        <ele>1.1</ele>
        <time>2023-08-29T14:27:32Z</time>
      </trkpt>
      <trkpt lat="56.689149029552937" lon="-6.0958890337497">
        <ele>1.1</ele>
        <time>2023-08-29T14:27:33Z</time>
      </trkpt>
      <trkpt lat="56.689237039536238" lon="-6.096004033461213">
        <ele>1.1</ele>
        <time>2023-08-29T14:27:34Z</time>
      </trkpt>
      <trkpt lat="56.689337035641074" lon="-6.09604200348258">
        <ele>0.62</ele>
        <time>2023-08-29T14:27:35Z</time>
      </trkpt>
      <trkpt lat="56.689437031745911" lon="-6.096081985160708">
        <ele>1.1</ele>
        <time>2023-08-29T14:27:36Z</time>
      </trkpt>
      <trkpt lat="56.689536022022367" lon="-6.096120039001107">
        <ele>1.1</ele>
        <time>2023-08-29T14:27:37Z</time>
      </trkpt>
      <trkpt lat="56.689818995073438" lon="-6.096189022064209">
        <ele>1.1</ele>
        <time>2023-08-29T14:27:40Z</time>
      </trkpt>
      <trkpt lat="56.689913962036371" lon="-6.096189022064209">
        <ele>1.1</ele>
        <time>2023-08-29T14:27:41Z</time>
      </trkpt>
      <trkpt lat="56.690007001161575" lon="-6.096160020679236">
        <ele>1.1</ele>
        <time>2023-08-29T14:27:42Z</time>
      </trkpt>
      <trkpt lat="56.690244963392615" lon="-6.095947958528996">
        <ele>2.06</ele>
        <time>2023-08-29T14:27:45Z</time>
      </trkpt>
      <trkpt lat="56.691009979695082" lon="-6.094849007204175">
        <ele>6.87</ele>
        <time>2023-08-29T14:27:56Z</time>
      </trkpt>
      <trkpt lat="56.691481964662671" lon="-6.094314996153116">
        <ele>8.310000000000001</ele>
        <time>2023-08-29T14:28:02Z</time>
      </trkpt>
      <trkpt lat="56.691569974645972" lon="-6.094295969232917">
        <ele>8.310000000000001</ele>
        <time>2023-08-29T14:28:03Z</time>
      </trkpt>
      <trkpt lat="56.691659996286035" lon="-6.094290018081665">
        <ele>8.789999999999999</ele>
        <time>2023-08-29T14:28:04Z</time>
      </trkpt>
      <trkpt lat="56.691750017926097" lon="-6.094347015023232">
        <ele>8.789999999999999</ele>
        <time>2023-08-29T14:28:05Z</time>
      </trkpt>
      <trkpt lat="56.691852025687695" lon="-6.09441096894443">
        <ele>9.27</ele>
        <time>2023-08-29T14:28:06Z</time>
      </trkpt>
      <trkpt lat="56.692660041153431" lon="-6.094916984438896">
        <ele>13.6</ele>
        <time>2023-08-29T14:28:13Z</time>
      </trkpt>
      <trkpt lat="56.693450035527349" lon="-6.095571024343371">
        <ele>14.56</ele>
        <time>2023-08-29T14:28:24Z</time>
      </trkpt>
      <trkpt lat="56.694021010771394" lon="-6.096546007320285">
        <ele>14.56</ele>
        <time>2023-08-29T14:28:32Z</time>
      </trkpt>
      <trkpt lat="56.694533983245492" lon="-6.097624003887177">
        <ele>14.56</ele>
        <time>2023-08-29T14:28:40Z</time>
      </trkpt>
      <trkpt lat="56.695191962644458" lon="-6.099226959049702">
        <ele>14.08</ele>
        <time>2023-08-29T14:28:50Z</time>
      </trkpt>
      <trkpt lat="56.695277038961649" lon="-6.099344976246357">
        <ele>14.08</ele>
        <time>2023-08-29T14:28:51Z</time>
      </trkpt>
      <trkpt lat="56.69536697678268" lon="-6.099453018978238">
        <ele>13.6</ele>
        <time>2023-08-29T14:28:52Z</time>
      </trkpt>
      <trkpt lat="56.696015987545252" lon="-6.10010102391243">
        <ele>10.23</ele>
        <time>2023-08-29T14:29:01Z</time>
      </trkpt>
      <trkpt lat="56.696418989449739" lon="-6.100426996126771">
        <ele>9.27</ele>
        <time>2023-08-29T14:29:12Z</time>
      </trkpt>
      <trkpt lat="56.696446985006332" lon="-6.100449962541461">
        <ele>9.27</ele>
        <time>2023-08-29T14:29:14Z</time>
      </trkpt>
      <trkpt lat="56.696460982784629" lon="-6.100461026653647">
        <ele>8.789999999999999</ele>
        <time>2023-08-29T14:29:15Z</time>
      </trkpt>
      <trkpt lat="56.696460982784629" lon="-6.100461026653647">
        <ele>9.27</ele>
        <time>2023-08-29T14:29:25Z</time>
      </trkpt>
      <trkpt lat="56.696460982784629" lon="-6.100461026653647">
        <ele>9.27</ele>
        <time>2023-08-29T14:29:40Z</time>
      </trkpt>
      <trkpt lat="56.696460982784629" lon="-6.100461026653647">
        <ele>9.27</ele>
        <time>2023-08-29T14:30:04Z</time>
      </trkpt>
      <trkpt lat="56.696585034951568" lon="-6.100344015285373">
        <ele>15.039999999999999</ele>
        <time>2023-08-29T15:08:14Z</time>
      </trkpt>
      <trkpt lat="56.696572965011001" lon="-6.100345021113753">
        <ele>19.359999999999999</ele>
        <time>2023-08-29T15:08:50Z</time>
      </trkpt>
      <trkpt lat="56.696563996374607" lon="-6.100350972265005">
        <ele>17.920000000000002</ele>
        <time>2023-08-29T15:08:58Z</time>
      </trkpt>
      <trkpt lat="56.696453019976616" lon="-6.100454991683364">
        <ele>17.920000000000002</ele>
        <time>2023-08-29T15:09:02Z</time>
      </trkpt>
      <trkpt lat="56.696428041905165" lon="-6.100434958934784">
        <ele>17.920000000000002</ele>
        <time>2023-08-29T15:09:03Z</time>
      </trkpt>
      <trkpt lat="56.696407003328204" lon="-6.100418027490377">
        <ele>18.399999999999999</ele>
        <time>2023-08-29T15:09:04Z</time>
      </trkpt>
      <trkpt lat="56.696388982236385" lon="-6.1004030238837">
        <ele>18.399999999999999</ele>
        <time>2023-08-29T15:09:05Z</time>
      </trkpt>
      <trkpt lat="56.696374984458089" lon="-6.100391959771514">
        <ele>17.920000000000002</ele>
        <time>2023-08-29T15:09:06Z</time>
      </trkpt>
      <trkpt lat="56.696359980851412" lon="-6.100379973649979">
        <ele>17.920000000000002</ele>
        <time>2023-08-29T15:09:07Z</time>
      </trkpt>
      <trkpt lat="56.696338020265102" lon="-6.100362036377192">
        <ele>17.920000000000002</ele>
        <time>2023-08-29T15:09:08Z</time>
      </trkpt>
      <trkpt lat="56.696300972253084" lon="-6.100332029163837">
        <ele>17.920000000000002</ele>
        <time>2023-08-29T15:09:09Z</time>
      </trkpt>
      <trkpt lat="56.696252021938562" lon="-6.100291963666678">
        <ele>17.440000000000001</ele>
        <time>2023-08-29T15:09:10Z</time>
      </trkpt>
      <trkpt lat="56.696200976148248" lon="-6.100250976160169">
        <ele>17.440000000000001</ele>
        <time>2023-08-29T15:09:11Z</time>
      </trkpt>
      <trkpt lat="56.695519024506211" lon="-6.099634990096092">
        <ele>16</ele>
        <time>2023-08-29T15:09:21Z</time>
      </trkpt>
      <trkpt lat="56.695346022024751" lon="-6.099428040906787">
        <ele>16</ele>
        <time>2023-08-29T15:09:23Z</time>
      </trkpt>
      <trkpt lat="56.695261029526591" lon="-6.099325027316809">
        <ele>16.48</ele>
        <time>2023-08-29T15:09:24Z</time>
      </trkpt>
      <trkpt lat="56.695197997614741" lon="-6.099241962656379">
        <ele>16.48</ele>
        <time>2023-08-29T15:09:25Z</time>
      </trkpt>
      <trkpt lat="56.695128008723259" lon="-6.099070971831679">
        <ele>16.960000000000001</ele>
        <time>2023-08-29T15:09:27Z</time>
      </trkpt>
      <trkpt lat="56.695090960711241" lon="-6.098982039839029">
        <ele>16.960000000000001</ele>
        <time>2023-08-29T15:09:28Z</time>
      </trkpt>
      <trkpt lat="56.695047961547971" lon="-6.09887701459229">
        <ele>17.440000000000001</ele>
        <time>2023-08-29T15:09:29Z</time>
      </trkpt>
      <trkpt lat="56.694490984082222" lon="-6.097518978640437">
        <ele>17.440000000000001</ele>
        <time>2023-08-29T15:09:38Z</time>
      </trkpt>
      <trkpt lat="56.693566963076591" lon="-6.095715025439858">
        <ele>19.359999999999999</ele>
        <time>2023-08-29T15:09:49Z</time>
      </trkpt>
      <trkpt lat="56.693264963105321" lon="-6.095341024920344">
        <ele>19.84</ele>
        <time>2023-08-29T15:09:53Z</time>
      </trkpt>
      <trkpt lat="56.69321701861918" lon="-6.095281010493636">
        <ele>19.84</ele>
        <time>2023-08-29T15:09:54Z</time>
      </trkpt>
      <trkpt lat="56.6931779589504" lon="-6.095239017158747">
        <ele>19.84</ele>
        <time>2023-08-29T15:09:55Z</time>
      </trkpt>
      <trkpt lat="56.693130014464259" lon="-6.095210015773773">
        <ele>19.84</ele>
        <time>2023-08-29T15:09:56Z</time>
      </trkpt>
      <trkpt lat="56.693076035007834" lon="-6.095175985246897">
        <ele>19.84</ele>
        <time>2023-08-29T15:09:57Z</time>
      </trkpt>
      <trkpt lat="56.693011997267604" lon="-6.095136003568769">
        <ele>19.84</ele>
        <time>2023-08-29T15:09:58Z</time>
      </trkpt>
      <trkpt lat="56.692944020032883" lon="-6.095094010233879">
        <ele>19.84</ele>
        <time>2023-08-29T15:09:59Z</time>
      </trkpt>
      <trkpt lat="56.692880988121033" lon="-6.095055034384131">
        <ele>19.84</ele>
        <time>2023-08-29T15:10:00Z</time>
      </trkpt>
      <trkpt lat="56.69283103197813" lon="-6.095024021342397">
        <ele>19.84</ele>
        <time>2023-08-29T15:10:01Z</time>
      </trkpt>
      <trkpt lat="56.692374972626567" lon="-6.094739958643913">
        <ele>19.359999999999999</ele>
        <time>2023-08-29T15:10:11Z</time>
      </trkpt>
      <trkpt lat="56.691610040143132" lon="-6.094285994768143">
        <ele>18.879999999999999</ele>
        <time>2023-08-29T15:10:21Z</time>
      </trkpt>
      <trkpt lat="56.691524963825941" lon="-6.094305021688342">
        <ele>18.399999999999999</ele>
        <time>2023-08-29T15:10:22Z</time>
      </trkpt>
      <trkpt lat="56.691449023783207" lon="-6.09432203695178">
        <ele>17.920000000000002</ele>
        <time>2023-08-29T15:10:23Z</time>
      </trkpt>
      <trkpt lat="56.691376017406583" lon="-6.09440702944994">
        <ele>17.920000000000002</ele>
        <time>2023-08-29T15:10:24Z</time>
      </trkpt>
      <trkpt lat="56.691303011029959" lon="-6.094491016119719">
        <ele>17.920000000000002</ele>
        <time>2023-08-29T15:10:25Z</time>
      </trkpt>
      <trkpt lat="56.691232016310096" lon="-6.094572991132736">
        <ele>17.440000000000001</ele>
        <time>2023-08-29T15:10:26Z</time>
      </trkpt>
      <trkpt lat="56.690570013597608" lon="-6.095610000193119">
        <ele>17.920000000000002</ele>
        <time>2023-08-29T15:10:37Z</time>
      </trkpt>
      <trkpt lat="56.689967019483447" lon="-6.096178963780403">
        <ele>15.039999999999999</ele>
        <time>2023-08-29T15:10:45Z</time>
      </trkpt>
      <trkpt lat="56.689883032813668" lon="-6.096189022064209">
        <ele>14.08</ele>
        <time>2023-08-29T15:10:46Z</time>
      </trkpt>
      <trkpt lat="56.689798962324858" lon="-6.096189022064209">
        <ele>13.6</ele>
        <time>2023-08-29T15:10:47Z</time>
      </trkpt>
      <trkpt lat="56.689712963998318" lon="-6.096189022064209">
        <ele>13.119999999999999</ele>
        <time>2023-08-29T15:10:48Z</time>
      </trkpt>
      <trkpt lat="56.689638029783964" lon="-6.096160020679236">
        <ele>13.119999999999999</ele>
        <time>2023-08-29T15:10:49Z</time>
      </trkpt>
      <trkpt lat="56.689561000093818" lon="-6.096131019294262">
        <ele>12.630000000000001</ele>
        <time>2023-08-29T15:10:50Z</time>
      </trkpt>
      <trkpt lat="56.689478019252419" lon="-6.096097994595766">
        <ele>12.15</ele>
        <time>2023-08-29T15:10:51Z</time>
      </trkpt>
      <trkpt lat="56.689170990139246" lon="-6.095922980457544">
        <ele>10.23</ele>
        <time>2023-08-29T15:10:55Z</time>
      </trkpt>
      <trkpt lat="56.68911399319768" lon="-6.095833964645863">
        <ele>9.75</ele>
        <time>2023-08-29T15:10:56Z</time>
      </trkpt>
      <trkpt lat="56.689059007912874" lon="-6.095747966319323">
        <ele>9.75</ele>
        <time>2023-08-29T15:10:57Z</time>
      </trkpt>
      <trkpt lat="56.688874019309878" lon="-6.095458958297968">
        <ele>9.27</ele>
        <time>2023-08-29T15:11:01Z</time>
      </trkpt>
      <trkpt lat="56.688838982954621" lon="-6.095383018255234">
        <ele>9.27</ele>
        <time>2023-08-29T15:11:02Z</time>
      </trkpt>
      <trkpt lat="56.68872800655663" lon="-6.095017986372113">
        <ele>8.310000000000001</ele>
        <time>2023-08-29T15:11:10Z</time>
      </trkpt>
      <trkpt lat="56.68872800655663" lon="-6.095017986372113">
        <ele>8.310000000000001</ele>
        <time>2023-08-29T15:11:40Z</time>
      </trkpt>
      <trkpt lat="56.68872800655663" lon="-6.095017986372113">
        <ele>8.310000000000001</ele>
        <time>2023-08-29T15:12:35Z</time>
      </trkpt>
      <trkpt lat="56.68872800655663" lon="-6.095017986372113">
        <ele>8.310000000000001</ele>
        <time>2023-08-29T15:12:36Z</time>
      </trkpt>
      <trkpt lat="56.688729012385011" lon="-6.094973981380463">
        <ele>8.789999999999999</ele>
        <time>2023-08-29T15:13:05Z</time>
      </trkpt>
      <trkpt lat="56.688694981858134" lon="-6.09513801522553">
        <ele>9.27</ele>
        <time>2023-08-29T15:13:06Z</time>
      </trkpt>
      <trkpt lat="56.688668997958302" lon="-6.09513801522553">
        <ele>9.27</ele>
        <time>2023-08-29T15:13:07Z</time>
      </trkpt>
      <trkpt lat="56.688725994899869" lon="-6.095073977485299">
        <ele>9.27</ele>
        <time>2023-08-29T15:13:08Z</time>
      </trkpt>
      <trkpt lat="56.688723983243108" lon="-6.095130974426866">
        <ele>8.789999999999999</ele>
        <time>2023-08-29T15:13:09Z</time>
      </trkpt>
      <trkpt lat="56.688723983243108" lon="-6.09513801522553">
        <ele>8.789999999999999</ele>
        <time>2023-08-29T15:13:10Z</time>
      </trkpt>
      <trkpt lat="56.688738986849785" lon="-6.095170034095645">
        <ele>8.310000000000001</ele>
        <time>2023-08-29T15:13:11Z</time>
      </trkpt>
      <trkpt lat="56.688759019598365" lon="-6.095211021602154">
        <ele>7.35</ele>
        <time>2023-08-29T15:13:12Z</time>
      </trkpt>
      <trkpt lat="56.688723983243108" lon="-6.09513801522553">
        <ele>7.35</ele>
        <time>2023-08-29T15:13:13Z</time>
      </trkpt>
      <trkpt lat="56.688723983243108" lon="-6.09513801522553">
        <ele>6.87</ele>
        <time>2023-08-29T15:13:14Z</time>
      </trkpt>
      <trkpt lat="56.688723983243108" lon="-6.09513801522553">
        <ele>6.87</ele>
        <time>2023-08-29T15:13:15Z</time>
      </trkpt>
      <trkpt lat="56.688723983243108" lon="-6.09513801522553">
        <ele>6.39</ele>
        <time>2023-08-29T15:13:27Z</time>
      </trkpt>
      <trkpt lat="56.688723983243108" lon="-6.09513801522553">
        <ele>6.39</ele>
        <time>2023-08-29T15:14:09Z</time>
      </trkpt>
      <trkpt lat="56.688723983243108" lon="-6.09513801522553">
        <ele>6.39</ele>
        <time>2023-08-29T15:15:06Z</time>
      </trkpt>
      <trkpt lat="56.688723983243108" lon="-6.09513801522553">
        <ele>6.39</ele>
        <time>2023-08-29T15:15:44Z</time>
      </trkpt>
      <trkpt lat="56.688723983243108" lon="-6.09513801522553">
        <ele>6.39</ele>
        <time>2023-08-29T15:16:28Z</time>
      </trkpt>
      <trkpt lat="56.688757007941604" lon="-6.095102978870273">
        <ele>8.789999999999999</ele>
        <time>2023-08-29T15:22:22Z</time>
      </trkpt>
      <trkpt lat="56.688725994899869" lon="-6.09509501606226">
        <ele>9.75</ele>
        <time>2023-08-29T15:22:24Z</time>
      </trkpt>
      <trkpt lat="56.688694981858134" lon="-6.09513801522553">
        <ele>10.23</ele>
        <time>2023-08-29T15:22:25Z</time>
      </trkpt>
      <trkpt lat="56.688686013221741" lon="-6.09513801522553">
        <ele>10.710000000000001</ele>
        <time>2023-08-29T15:22:26Z</time>
      </trkpt>
      <trkpt lat="56.688723983243108" lon="-6.09513801522553">
        <ele>8.789999999999999</ele>
        <time>2023-08-29T15:22:27Z</time>
      </trkpt>
      <trkpt lat="56.688723983243108" lon="-6.09513801522553">
        <ele>4.94</ele>
        <time>2023-08-29T15:22:28Z</time>
      </trkpt>
      <trkpt lat="56.688762037083507" lon="-6.095217978581786">
        <ele>5.42</ele>
        <time>2023-08-29T15:22:29Z</time>
      </trkpt>
      <trkpt lat="56.688776034861803" lon="-6.09524798579514">
        <ele>5.91</ele>
        <time>2023-08-29T15:22:30Z</time>
      </trkpt>
      <trkpt lat="56.688746027648449" lon="-6.094471989199519">
        <ele>5.91</ele>
        <time>2023-08-29T15:22:31Z</time>
      </trkpt>
      <trkpt lat="56.688723983243108" lon="-6.09513801522553">
        <ele>5.42</ele>
        <time>2023-08-29T15:22:32Z</time>
      </trkpt>
      <trkpt lat="56.688723983243108" lon="-6.09513801522553">
        <ele>5.91</ele>
        <time>2023-08-29T15:22:33Z</time>
      </trkpt>
      <trkpt lat="56.688723983243108" lon="-6.09513801522553">
        <ele>5.91</ele>
        <time>2023-08-29T15:22:34Z</time>
      </trkpt>
      <trkpt lat="56.688723983243108" lon="-6.09513801522553">
        <ele>4.94</ele>
        <time>2023-08-29T15:22:49Z</time>
      </trkpt>
      <trkpt lat="56.688791960477829" lon="-6.095030978322029">
        <ele>8.310000000000001</ele>
        <time>2023-08-29T15:42:38Z</time>
      </trkpt>
      <trkpt lat="56.688799001276493" lon="-6.095041036605835">
        <ele>10.710000000000001</ele>
        <time>2023-08-29T15:42:52Z</time>
      </trkpt>
      <trkpt lat="56.688740998506546" lon="-6.094615990296006">
        <ele>8.789999999999999</ele>
        <time>2023-08-29T15:43:08Z</time>
      </trkpt>
      <trkpt lat="56.688756002113223" lon="-6.09441096894443">
        <ele>8.310000000000001</ele>
        <time>2023-08-29T15:43:19Z</time>
      </trkpt>
      <trkpt lat="56.688766982406378" lon="-6.09434500336647">
        <ele>3.5</ele>
        <time>2023-08-29T15:43:29Z</time>
      </trkpt>
      <trkpt lat="56.688766982406378" lon="-6.09434500336647">
        <ele>-2.27</ele>
        <time>2023-08-29T15:43:46Z</time>
      </trkpt>
      <trkpt lat="56.623490983620286" lon="-6.063037002459168">
        <ele>-7.55</ele>
        <time>2023-08-29T16:22:01Z</time>
      </trkpt>
      <trkpt lat="56.623342959210277" lon="-6.062668031081557">
        <ele>2.54</ele>
        <time>2023-08-29T16:22:17Z</time>
      </trkpt>
      <trkpt lat="56.623355029150844" lon="-6.06258898973465">
        <ele>5.91</ele>
        <time>2023-08-29T16:22:45Z</time>
      </trkpt>
      <trkpt lat="56.623460976406932" lon="-6.062711030244827">
        <ele>4.46</ele>
        <time>2023-08-29T16:23:17Z</time>
      </trkpt>
      <trkpt lat="56.623468017205596" lon="-6.062944969162345">
        <ele>10.23</ele>
        <time>2023-08-29T16:23:31Z</time>
      </trkpt>
      <trkpt lat="56.623350000008941" lon="-6.063313018530607">
        <ele>5.91</ele>
        <time>2023-08-29T16:23:40Z</time>
      </trkpt>
      <trkpt lat="56.623204993084073" lon="-6.064089015126228">
        <ele>3.02</ele>
        <time>2023-08-29T16:23:52Z</time>
      </trkpt>
      <trkpt lat="56.62315302528441" lon="-6.06452101841569">
        <ele>2.06</ele>
        <time>2023-08-29T16:24:05Z</time>
      </trkpt>
      <trkpt lat="56.623103991150856" lon="-6.064907005056739">
        <ele>3.02</ele>
        <time>2023-08-29T16:24:20Z</time>
      </trkpt>
      <trkpt lat="56.623061997815967" lon="-6.065204981714487">
        <ele>3.02</ele>
        <time>2023-08-29T16:24:24Z</time>
      </trkpt>
      <trkpt lat="56.623051017522812" lon="-6.065283017233014">
        <ele>3.02</ele>
        <time>2023-08-29T16:24:25Z</time>
      </trkpt>
      <trkpt lat="56.62298396229744" lon="-6.065762965008616">
        <ele>3.02</ele>
        <time>2023-08-29T16:24:33Z</time>
      </trkpt>
      <trkpt lat="56.62302796728909" lon="-6.065821973606944">
        <ele>3.5</ele>
        <time>2023-08-29T16:24:35Z</time>
      </trkpt>
      <trkpt lat="56.623060991987586" lon="-6.065833037719131">
        <ele>3.5</ele>
        <time>2023-08-29T16:24:36Z</time>
      </trkpt>
      <trkpt lat="56.623098039999604" lon="-6.065845023840666">
        <ele>3.5</ele>
        <time>2023-08-29T16:24:37Z</time>
      </trkpt>
      <trkpt lat="56.623170962557197" lon="-6.065868996083736">
        <ele>3.5</ele>
        <time>2023-08-29T16:24:38Z</time>
      </trkpt>
      <trkpt lat="56.623192001134157" lon="-6.065910989418626">
        <ele>3.5</ele>
        <time>2023-08-29T16:24:39Z</time>
      </trkpt>
      <trkpt lat="56.623235000297427" lon="-6.065997993573546">
        <ele>3.5</ele>
        <time>2023-08-29T16:24:40Z</time>
      </trkpt>
      <trkpt lat="56.623250003904104" lon="-6.066076029092073">
        <ele>3.02</ele>
        <time>2023-08-29T16:24:41Z</time>
      </trkpt>
      <trkpt lat="56.623268024995923" lon="-6.066173007711768">
        <ele>2.54</ele>
        <time>2023-08-29T16:24:42Z</time>
      </trkpt>
      <trkpt lat="56.623287973925471" lon="-6.066280966624618">
        <ele>2.06</ele>
        <time>2023-08-29T16:24:43Z</time>
      </trkpt>
      <trkpt lat="56.623310018330812" lon="-6.066393032670021">
        <ele>1.58</ele>
        <time>2023-08-29T16:24:44Z</time>
      </trkpt>
      <trkpt lat="56.623330973088741" lon="-6.066509960219264">
        <ele>1.1</ele>
        <time>2023-08-29T16:24:45Z</time>
      </trkpt>
      <trkpt lat="56.623396016657352" lon="-6.066856971010566">
        <ele>1.1</ele>
        <time>2023-08-29T16:24:48Z</time>
      </trkpt>
      <trkpt lat="56.623499030247331" lon="-6.067514028400183">
        <ele>4.94</ele>
        <time>2023-08-29T16:24:53Z</time>
      </trkpt>
    </trkseg>
  </trk>

</gpx>